<?xml version="1.0" encoding="UTF-8" standalone="no" ?>
<gpx xmlns="http://www.topografix.com/GPX/1/1" xmlns:xsi="http://www.w3.org/2001/XMLSchema-instance" xsi:schemaLocation="http://www.topografix.com/GPX/1/1 http://www.topografix.com/GPX/1/1/gpx.xsd" version="1.1" creator="VisuGPX - https://www.visugpx.com">
  <metadata>
    <name>Rando à Talmas </name>
  </metadata>
  <trk>
    <name><![CDATA[Rando à Talmas _1]]></name>
    <trkseg>
      <trkpt lat="50.03083" lon="2.32601">
        <ele>135.1</ele>
        <time>2023-10-25T12:02:10Z</time>
      </trkpt>
      <trkpt lat="50.03084" lon="2.32602">
        <ele>135.1</ele>
        <time>2023-10-25T12:02:11Z</time>
      </trkpt>
      <trkpt lat="50.03085" lon="2.32603">
        <ele>135.1</ele>
        <time>2023-10-25T12:02:12Z</time>
      </trkpt>
      <trkpt lat="50.03087" lon="2.32605">
        <ele>135.1</ele>
        <time>2023-10-25T12:02:13Z</time>
      </trkpt>
      <trkpt lat="50.03089" lon="2.32606">
        <ele>135.1</ele>
        <time>2023-10-25T12:02:15Z</time>
      </trkpt>
      <trkpt lat="50.03091" lon="2.32609">
        <ele>135</ele>
        <time>2023-10-25T12:02:16Z</time>
      </trkpt>
      <trkpt lat="50.03092" lon="2.32609">
        <ele>134.9</ele>
        <time>2023-10-25T12:02:17Z</time>
      </trkpt>
      <trkpt lat="50.03094" lon="2.32612">
        <ele>134.8</ele>
        <time>2023-10-25T12:02:18Z</time>
      </trkpt>
      <trkpt lat="50.03095" lon="2.32613">
        <ele>134.7</ele>
        <time>2023-10-25T12:02:19Z</time>
      </trkpt>
      <trkpt lat="50.03096" lon="2.32615">
        <ele>134.6</ele>
        <time>2023-10-25T12:02:20Z</time>
      </trkpt>
      <trkpt lat="50.03097" lon="2.32617">
        <ele>134.5</ele>
        <time>2023-10-25T12:02:22Z</time>
      </trkpt>
      <trkpt lat="50.03097" lon="2.32618">
        <ele>134.5</ele>
        <time>2023-10-25T12:02:23Z</time>
      </trkpt>
      <trkpt lat="50.03098" lon="2.3262">
        <ele>134.4</ele>
        <time>2023-10-25T12:02:25Z</time>
      </trkpt>
      <trkpt lat="50.03099" lon="2.32621">
        <ele>134.1</ele>
        <time>2023-10-25T12:02:26Z</time>
      </trkpt>
      <trkpt lat="50.031" lon="2.32623">
        <ele>134.1</ele>
        <time>2023-10-25T12:02:27Z</time>
      </trkpt>
      <trkpt lat="50.03101" lon="2.32623">
        <ele>134.1</ele>
        <time>2023-10-25T12:02:28Z</time>
      </trkpt>
      <trkpt lat="50.03102" lon="2.32624">
        <ele>134.1</ele>
        <time>2023-10-25T12:02:29Z</time>
      </trkpt>
      <trkpt lat="50.03102" lon="2.32624">
        <ele>134.1</ele>
        <time>2023-10-25T12:02:30Z</time>
      </trkpt>
      <trkpt lat="50.03102" lon="2.32624">
        <ele>134.1</ele>
        <time>2023-10-25T12:02:31Z</time>
      </trkpt>
      <trkpt lat="50.03102" lon="2.32624">
        <ele>134.1</ele>
        <time>2023-10-25T12:02:32Z</time>
      </trkpt>
      <trkpt lat="50.03103" lon="2.32624">
        <ele>134.1</ele>
        <time>2023-10-25T12:02:34Z</time>
      </trkpt>
      <trkpt lat="50.03103" lon="2.32624">
        <ele>134.1</ele>
        <time>2023-10-25T12:02:35Z</time>
      </trkpt>
      <trkpt lat="50.03104" lon="2.32624">
        <ele>134.1</ele>
        <time>2023-10-25T12:02:36Z</time>
      </trkpt>
      <trkpt lat="50.03105" lon="2.32625">
        <ele>134.1</ele>
        <time>2023-10-25T12:02:37Z</time>
      </trkpt>
      <trkpt lat="50.03105" lon="2.32625">
        <ele>134.1</ele>
        <time>2023-10-25T12:02:38Z</time>
      </trkpt>
      <trkpt lat="50.03106" lon="2.32624">
        <ele>134.1</ele>
        <time>2023-10-25T12:02:39Z</time>
      </trkpt>
      <trkpt lat="50.03106" lon="2.32624">
        <ele>134</ele>
        <time>2023-10-25T12:02:40Z</time>
      </trkpt>
      <trkpt lat="50.03107" lon="2.32624">
        <ele>134</ele>
        <time>2023-10-25T12:02:42Z</time>
      </trkpt>
      <trkpt lat="50.03109" lon="2.32623">
        <ele>134</ele>
        <time>2023-10-25T12:02:44Z</time>
      </trkpt>
      <trkpt lat="50.03109" lon="2.32623">
        <ele>134</ele>
        <time>2023-10-25T12:02:45Z</time>
      </trkpt>
      <trkpt lat="50.03109" lon="2.32622">
        <ele>134</ele>
        <time>2023-10-25T12:02:47Z</time>
      </trkpt>
      <trkpt lat="50.03109" lon="2.32621">
        <ele>134</ele>
        <time>2023-10-25T12:02:48Z</time>
      </trkpt>
      <trkpt lat="50.0311" lon="2.3262">
        <ele>134</ele>
        <time>2023-10-25T12:02:49Z</time>
      </trkpt>
      <trkpt lat="50.03111" lon="2.32619">
        <ele>134</ele>
        <time>2023-10-25T12:02:50Z</time>
      </trkpt>
      <trkpt lat="50.03112" lon="2.32618">
        <ele>134</ele>
        <time>2023-10-25T12:02:52Z</time>
      </trkpt>
      <trkpt lat="50.03112" lon="2.32617">
        <ele>133.9</ele>
        <time>2023-10-25T12:02:53Z</time>
      </trkpt>
      <trkpt lat="50.03113" lon="2.32615">
        <ele>133.9</ele>
        <time>2023-10-25T12:02:54Z</time>
      </trkpt>
      <trkpt lat="50.03113" lon="2.32613">
        <ele>133.9</ele>
        <time>2023-10-25T12:02:55Z</time>
      </trkpt>
      <trkpt lat="50.03113" lon="2.32612">
        <ele>133.9</ele>
        <time>2023-10-25T12:02:56Z</time>
      </trkpt>
      <trkpt lat="50.03114" lon="2.32609">
        <ele>133.9</ele>
        <time>2023-10-25T12:02:57Z</time>
      </trkpt>
      <trkpt lat="50.03115" lon="2.32606">
        <ele>133.8</ele>
        <time>2023-10-25T12:02:59Z</time>
      </trkpt>
      <trkpt lat="50.03118" lon="2.32602">
        <ele>133.7</ele>
        <time>2023-10-25T12:03:01Z</time>
      </trkpt>
      <trkpt lat="50.03118" lon="2.32601">
        <ele>133.7</ele>
        <time>2023-10-25T12:03:02Z</time>
      </trkpt>
      <trkpt lat="50.03119" lon="2.326">
        <ele>133.6</ele>
        <time>2023-10-25T12:03:03Z</time>
      </trkpt>
      <trkpt lat="50.03119" lon="2.32598">
        <ele>133.6</ele>
        <time>2023-10-25T12:03:04Z</time>
      </trkpt>
      <trkpt lat="50.0312" lon="2.32597">
        <ele>133.6</ele>
        <time>2023-10-25T12:03:05Z</time>
      </trkpt>
      <trkpt lat="50.03121" lon="2.32595">
        <ele>133.5</ele>
        <time>2023-10-25T12:03:07Z</time>
      </trkpt>
      <trkpt lat="50.03121" lon="2.32593">
        <ele>133.5</ele>
        <time>2023-10-25T12:03:08Z</time>
      </trkpt>
      <trkpt lat="50.03122" lon="2.32591">
        <ele>133.4</ele>
        <time>2023-10-25T12:03:09Z</time>
      </trkpt>
      <trkpt lat="50.03122" lon="2.3259">
        <ele>133.4</ele>
        <time>2023-10-25T12:03:10Z</time>
      </trkpt>
      <trkpt lat="50.03123" lon="2.32588">
        <ele>133.4</ele>
        <time>2023-10-25T12:03:11Z</time>
      </trkpt>
      <trkpt lat="50.03123" lon="2.32587">
        <ele>133.3</ele>
        <time>2023-10-25T12:03:12Z</time>
      </trkpt>
      <trkpt lat="50.03124" lon="2.32586">
        <ele>133.3</ele>
        <time>2023-10-25T12:03:13Z</time>
      </trkpt>
      <trkpt lat="50.03125" lon="2.32586">
        <ele>133.3</ele>
        <time>2023-10-25T12:03:15Z</time>
      </trkpt>
      <trkpt lat="50.03125" lon="2.32586">
        <ele>133.3</ele>
        <time>2023-10-25T12:03:16Z</time>
      </trkpt>
      <trkpt lat="50.03126" lon="2.32586">
        <ele>133.3</ele>
        <time>2023-10-25T12:03:17Z</time>
      </trkpt>
      <trkpt lat="50.03127" lon="2.32585">
        <ele>133.2</ele>
        <time>2023-10-25T12:03:19Z</time>
      </trkpt>
      <trkpt lat="50.03127" lon="2.32584">
        <ele>133.2</ele>
        <time>2023-10-25T12:03:20Z</time>
      </trkpt>
      <trkpt lat="50.03127" lon="2.32583">
        <ele>133.2</ele>
        <time>2023-10-25T12:03:22Z</time>
      </trkpt>
      <trkpt lat="50.03127" lon="2.32583">
        <ele>133.2</ele>
        <time>2023-10-25T12:03:23Z</time>
      </trkpt>
      <trkpt lat="50.03128" lon="2.32582">
        <ele>133.1</ele>
        <time>2023-10-25T12:03:24Z</time>
      </trkpt>
      <trkpt lat="50.03128" lon="2.32581">
        <ele>133.1</ele>
        <time>2023-10-25T12:03:25Z</time>
      </trkpt>
      <trkpt lat="50.03128" lon="2.32579">
        <ele>133.1</ele>
        <time>2023-10-25T12:03:26Z</time>
      </trkpt>
      <trkpt lat="50.03129" lon="2.32576">
        <ele>133</ele>
        <time>2023-10-25T12:03:27Z</time>
      </trkpt>
      <trkpt lat="50.03129" lon="2.32574">
        <ele>133</ele>
        <time>2023-10-25T12:03:29Z</time>
      </trkpt>
      <trkpt lat="50.03129" lon="2.32573">
        <ele>133</ele>
        <time>2023-10-25T12:03:30Z</time>
      </trkpt>
      <trkpt lat="50.0313" lon="2.32571">
        <ele>132.9</ele>
        <time>2023-10-25T12:03:31Z</time>
      </trkpt>
      <trkpt lat="50.0313" lon="2.3257">
        <ele>132.9</ele>
        <time>2023-10-25T12:03:32Z</time>
      </trkpt>
      <trkpt lat="50.03131" lon="2.32567">
        <ele>132.8</ele>
        <time>2023-10-25T12:03:34Z</time>
      </trkpt>
      <trkpt lat="50.03132" lon="2.32565">
        <ele>132.8</ele>
        <time>2023-10-25T12:03:35Z</time>
      </trkpt>
      <trkpt lat="50.03132" lon="2.32562">
        <ele>132.7</ele>
        <time>2023-10-25T12:03:36Z</time>
      </trkpt>
      <trkpt lat="50.03133" lon="2.3256">
        <ele>132.7</ele>
        <time>2023-10-25T12:03:37Z</time>
      </trkpt>
      <trkpt lat="50.03133" lon="2.32559">
        <ele>132.7</ele>
        <time>2023-10-25T12:03:38Z</time>
      </trkpt>
      <trkpt lat="50.03134" lon="2.32556">
        <ele>132.6</ele>
        <time>2023-10-25T12:03:40Z</time>
      </trkpt>
      <trkpt lat="50.03134" lon="2.32553">
        <ele>132.6</ele>
        <time>2023-10-25T12:03:42Z</time>
      </trkpt>
      <trkpt lat="50.03135" lon="2.32552">
        <ele>132.6</ele>
        <time>2023-10-25T12:03:43Z</time>
      </trkpt>
      <trkpt lat="50.03135" lon="2.3255">
        <ele>132.5</ele>
        <time>2023-10-25T12:03:44Z</time>
      </trkpt>
      <trkpt lat="50.03136" lon="2.32549">
        <ele>132.5</ele>
        <time>2023-10-25T12:03:45Z</time>
      </trkpt>
      <trkpt lat="50.03137" lon="2.32547">
        <ele>132.5</ele>
        <time>2023-10-25T12:03:46Z</time>
      </trkpt>
      <trkpt lat="50.03139" lon="2.32545">
        <ele>132.4</ele>
        <time>2023-10-25T12:03:48Z</time>
      </trkpt>
      <trkpt lat="50.03141" lon="2.32542">
        <ele>132.3</ele>
        <time>2023-10-25T12:03:49Z</time>
      </trkpt>
      <trkpt lat="50.03142" lon="2.32541">
        <ele>132.3</ele>
        <time>2023-10-25T12:03:50Z</time>
      </trkpt>
      <trkpt lat="50.03144" lon="2.32538">
        <ele>132.3</ele>
        <time>2023-10-25T12:03:51Z</time>
      </trkpt>
      <trkpt lat="50.03145" lon="2.32537">
        <ele>132.2</ele>
        <time>2023-10-25T12:03:52Z</time>
      </trkpt>
      <trkpt lat="50.03146" lon="2.32536">
        <ele>132.2</ele>
        <time>2023-10-25T12:03:54Z</time>
      </trkpt>
      <trkpt lat="50.03148" lon="2.32534">
        <ele>132.1</ele>
        <time>2023-10-25T12:03:55Z</time>
      </trkpt>
      <trkpt lat="50.0315" lon="2.32531">
        <ele>132.1</ele>
        <time>2023-10-25T12:03:56Z</time>
      </trkpt>
      <trkpt lat="50.0315" lon="2.3253">
        <ele>132.1</ele>
        <time>2023-10-25T12:03:57Z</time>
      </trkpt>
      <trkpt lat="50.03151" lon="2.32528">
        <ele>132</ele>
        <time>2023-10-25T12:03:59Z</time>
      </trkpt>
      <trkpt lat="50.03153" lon="2.32526">
        <ele>131.9</ele>
        <time>2023-10-25T12:04:00Z</time>
      </trkpt>
      <trkpt lat="50.03155" lon="2.32524">
        <ele>131.9</ele>
        <time>2023-10-25T12:04:01Z</time>
      </trkpt>
      <trkpt lat="50.03155" lon="2.32523">
        <ele>131.9</ele>
        <time>2023-10-25T12:04:02Z</time>
      </trkpt>
      <trkpt lat="50.03156" lon="2.32523">
        <ele>131.8</ele>
        <time>2023-10-25T12:04:03Z</time>
      </trkpt>
      <trkpt lat="50.03159" lon="2.32521">
        <ele>131.7</ele>
        <time>2023-10-25T12:04:05Z</time>
      </trkpt>
      <trkpt lat="50.03159" lon="2.3252">
        <ele>131.7</ele>
        <time>2023-10-25T12:04:06Z</time>
      </trkpt>
      <trkpt lat="50.03162" lon="2.32517">
        <ele>131.6</ele>
        <time>2023-10-25T12:04:07Z</time>
      </trkpt>
      <trkpt lat="50.03162" lon="2.32516">
        <ele>131.6</ele>
        <time>2023-10-25T12:04:09Z</time>
      </trkpt>
      <trkpt lat="50.03163" lon="2.32515">
        <ele>131.6</ele>
        <time>2023-10-25T12:04:10Z</time>
      </trkpt>
      <trkpt lat="50.03164" lon="2.32514">
        <ele>131.5</ele>
        <time>2023-10-25T12:04:11Z</time>
      </trkpt>
      <trkpt lat="50.03165" lon="2.32513">
        <ele>131.5</ele>
        <time>2023-10-25T12:04:12Z</time>
      </trkpt>
      <trkpt lat="50.03165" lon="2.32512">
        <ele>131.5</ele>
        <time>2023-10-25T12:04:13Z</time>
      </trkpt>
      <trkpt lat="50.03166" lon="2.32511">
        <ele>131.4</ele>
        <time>2023-10-25T12:04:14Z</time>
      </trkpt>
      <trkpt lat="50.03166" lon="2.32509">
        <ele>131.4</ele>
        <time>2023-10-25T12:04:15Z</time>
      </trkpt>
      <trkpt lat="50.03168" lon="2.32507">
        <ele>131.3</ele>
        <time>2023-10-25T12:04:16Z</time>
      </trkpt>
      <trkpt lat="50.03168" lon="2.32505">
        <ele>131.3</ele>
        <time>2023-10-25T12:04:18Z</time>
      </trkpt>
      <trkpt lat="50.03169" lon="2.32504">
        <ele>131.3</ele>
        <time>2023-10-25T12:04:19Z</time>
      </trkpt>
      <trkpt lat="50.03169" lon="2.32502">
        <ele>131.3</ele>
        <time>2023-10-25T12:04:20Z</time>
      </trkpt>
      <trkpt lat="50.0317" lon="2.32501">
        <ele>131.2</ele>
        <time>2023-10-25T12:04:21Z</time>
      </trkpt>
      <trkpt lat="50.03171" lon="2.32498">
        <ele>131.2</ele>
        <time>2023-10-25T12:04:23Z</time>
      </trkpt>
      <trkpt lat="50.03171" lon="2.32497">
        <ele>131.1</ele>
        <time>2023-10-25T12:04:24Z</time>
      </trkpt>
      <trkpt lat="50.03172" lon="2.32496">
        <ele>131.1</ele>
        <time>2023-10-25T12:04:25Z</time>
      </trkpt>
      <trkpt lat="50.03171" lon="2.32495">
        <ele>131.1</ele>
        <time>2023-10-25T12:04:26Z</time>
      </trkpt>
      <trkpt lat="50.03171" lon="2.32494">
        <ele>131.1</ele>
        <time>2023-10-25T12:04:27Z</time>
      </trkpt>
      <trkpt lat="50.03172" lon="2.32493">
        <ele>131.1</ele>
        <time>2023-10-25T12:04:28Z</time>
      </trkpt>
      <trkpt lat="50.03172" lon="2.32492">
        <ele>131.1</ele>
        <time>2023-10-25T12:04:29Z</time>
      </trkpt>
      <trkpt lat="50.03172" lon="2.32491">
        <ele>131</ele>
        <time>2023-10-25T12:04:31Z</time>
      </trkpt>
      <trkpt lat="50.03172" lon="2.3249">
        <ele>131</ele>
        <time>2023-10-25T12:04:32Z</time>
      </trkpt>
      <trkpt lat="50.03171" lon="2.3249">
        <ele>131</ele>
        <time>2023-10-25T12:04:33Z</time>
      </trkpt>
      <trkpt lat="50.03171" lon="2.32489">
        <ele>131</ele>
        <time>2023-10-25T12:04:34Z</time>
      </trkpt>
      <trkpt lat="50.03171" lon="2.32487">
        <ele>131</ele>
        <time>2023-10-25T12:04:36Z</time>
      </trkpt>
      <trkpt lat="50.03172" lon="2.32486">
        <ele>131</ele>
        <time>2023-10-25T12:04:37Z</time>
      </trkpt>
      <trkpt lat="50.03172" lon="2.32484">
        <ele>130.9</ele>
        <time>2023-10-25T12:04:38Z</time>
      </trkpt>
      <trkpt lat="50.03173" lon="2.32482">
        <ele>130.9</ele>
        <time>2023-10-25T12:04:39Z</time>
      </trkpt>
      <trkpt lat="50.03173" lon="2.3248">
        <ele>130.9</ele>
        <time>2023-10-25T12:04:40Z</time>
      </trkpt>
      <trkpt lat="50.03174" lon="2.32479">
        <ele>130.9</ele>
        <time>2023-10-25T12:04:41Z</time>
      </trkpt>
      <trkpt lat="50.03174" lon="2.32477">
        <ele>130.8</ele>
        <time>2023-10-25T12:04:43Z</time>
      </trkpt>
      <trkpt lat="50.03175" lon="2.32472">
        <ele>130.8</ele>
        <time>2023-10-25T12:04:44Z</time>
      </trkpt>
      <trkpt lat="50.03175" lon="2.3247">
        <ele>130.8</ele>
        <time>2023-10-25T12:04:45Z</time>
      </trkpt>
      <trkpt lat="50.03176" lon="2.32468">
        <ele>130.8</ele>
        <time>2023-10-25T12:04:46Z</time>
      </trkpt>
      <trkpt lat="50.03177" lon="2.32466">
        <ele>130.7</ele>
        <time>2023-10-25T12:04:47Z</time>
      </trkpt>
      <trkpt lat="50.03177" lon="2.32462">
        <ele>130.7</ele>
        <time>2023-10-25T12:04:48Z</time>
      </trkpt>
      <trkpt lat="50.03178" lon="2.32459">
        <ele>130.7</ele>
        <time>2023-10-25T12:04:50Z</time>
      </trkpt>
      <trkpt lat="50.03179" lon="2.32457">
        <ele>130.7</ele>
        <time>2023-10-25T12:04:51Z</time>
      </trkpt>
      <trkpt lat="50.0318" lon="2.32454">
        <ele>130.7</ele>
        <time>2023-10-25T12:04:52Z</time>
      </trkpt>
      <trkpt lat="50.0318" lon="2.32452">
        <ele>130.7</ele>
        <time>2023-10-25T12:04:53Z</time>
      </trkpt>
      <trkpt lat="50.03181" lon="2.3245">
        <ele>130.6</ele>
        <time>2023-10-25T12:04:54Z</time>
      </trkpt>
      <trkpt lat="50.03181" lon="2.32448">
        <ele>130.6</ele>
        <time>2023-10-25T12:04:55Z</time>
      </trkpt>
      <trkpt lat="50.03182" lon="2.32446">
        <ele>130.6</ele>
        <time>2023-10-25T12:04:57Z</time>
      </trkpt>
      <trkpt lat="50.03183" lon="2.32445">
        <ele>130.6</ele>
        <time>2023-10-25T12:04:58Z</time>
      </trkpt>
      <trkpt lat="50.03183" lon="2.32443">
        <ele>130.6</ele>
        <time>2023-10-25T12:04:59Z</time>
      </trkpt>
      <trkpt lat="50.03184" lon="2.32442">
        <ele>130.6</ele>
        <time>2023-10-25T12:05:00Z</time>
      </trkpt>
      <trkpt lat="50.03184" lon="2.32438">
        <ele>130.6</ele>
        <time>2023-10-25T12:05:01Z</time>
      </trkpt>
      <trkpt lat="50.03185" lon="2.32437">
        <ele>130.6</ele>
        <time>2023-10-25T12:05:03Z</time>
      </trkpt>
      <trkpt lat="50.03185" lon="2.32436">
        <ele>130.6</ele>
        <time>2023-10-25T12:05:04Z</time>
      </trkpt>
      <trkpt lat="50.03186" lon="2.32434">
        <ele>130.6</ele>
        <time>2023-10-25T12:05:05Z</time>
      </trkpt>
      <trkpt lat="50.03186" lon="2.32432">
        <ele>130.6</ele>
        <time>2023-10-25T12:05:06Z</time>
      </trkpt>
      <trkpt lat="50.03187" lon="2.32429">
        <ele>130.6</ele>
        <time>2023-10-25T12:05:07Z</time>
      </trkpt>
      <trkpt lat="50.03187" lon="2.32427">
        <ele>130.6</ele>
        <time>2023-10-25T12:05:08Z</time>
      </trkpt>
      <trkpt lat="50.03187" lon="2.32426">
        <ele>130.6</ele>
        <time>2023-10-25T12:05:09Z</time>
      </trkpt>
      <trkpt lat="50.03188" lon="2.32423">
        <ele>130.6</ele>
        <time>2023-10-25T12:05:10Z</time>
      </trkpt>
      <trkpt lat="50.03189" lon="2.3242">
        <ele>130.6</ele>
        <time>2023-10-25T12:05:12Z</time>
      </trkpt>
      <trkpt lat="50.03189" lon="2.32418">
        <ele>130.6</ele>
        <time>2023-10-25T12:05:13Z</time>
      </trkpt>
      <trkpt lat="50.0319" lon="2.32415">
        <ele>130.5</ele>
        <time>2023-10-25T12:05:15Z</time>
      </trkpt>
      <trkpt lat="50.03191" lon="2.32413">
        <ele>130.5</ele>
        <time>2023-10-25T12:05:16Z</time>
      </trkpt>
      <trkpt lat="50.03192" lon="2.32411">
        <ele>130.5</ele>
        <time>2023-10-25T12:05:17Z</time>
      </trkpt>
      <trkpt lat="50.03192" lon="2.3241">
        <ele>130.5</ele>
        <time>2023-10-25T12:05:18Z</time>
      </trkpt>
      <trkpt lat="50.03192" lon="2.32409">
        <ele>130.5</ele>
        <time>2023-10-25T12:05:19Z</time>
      </trkpt>
      <trkpt lat="50.03193" lon="2.32407">
        <ele>130.5</ele>
        <time>2023-10-25T12:05:20Z</time>
      </trkpt>
      <trkpt lat="50.03193" lon="2.32406">
        <ele>130.5</ele>
        <time>2023-10-25T12:05:21Z</time>
      </trkpt>
      <trkpt lat="50.03194" lon="2.32404">
        <ele>130.5</ele>
        <time>2023-10-25T12:05:22Z</time>
      </trkpt>
      <trkpt lat="50.03194" lon="2.32402">
        <ele>130.5</ele>
        <time>2023-10-25T12:05:24Z</time>
      </trkpt>
      <trkpt lat="50.03194" lon="2.324">
        <ele>130.5</ele>
        <time>2023-10-25T12:05:25Z</time>
      </trkpt>
      <trkpt lat="50.03194" lon="2.32398">
        <ele>130.5</ele>
        <time>2023-10-25T12:05:26Z</time>
      </trkpt>
      <trkpt lat="50.03195" lon="2.32397">
        <ele>130.5</ele>
        <time>2023-10-25T12:05:27Z</time>
      </trkpt>
      <trkpt lat="50.03195" lon="2.32395">
        <ele>130.5</ele>
        <time>2023-10-25T12:05:28Z</time>
      </trkpt>
      <trkpt lat="50.03195" lon="2.32394">
        <ele>130.5</ele>
        <time>2023-10-25T12:05:29Z</time>
      </trkpt>
      <trkpt lat="50.03196" lon="2.32392">
        <ele>130.5</ele>
        <time>2023-10-25T12:05:30Z</time>
      </trkpt>
      <trkpt lat="50.03196" lon="2.32389">
        <ele>130.5</ele>
        <time>2023-10-25T12:05:32Z</time>
      </trkpt>
      <trkpt lat="50.03197" lon="2.32386">
        <ele>130.5</ele>
        <time>2023-10-25T12:05:33Z</time>
      </trkpt>
      <trkpt lat="50.03197" lon="2.32385">
        <ele>130.5</ele>
        <time>2023-10-25T12:05:34Z</time>
      </trkpt>
      <trkpt lat="50.03198" lon="2.32384">
        <ele>130.5</ele>
        <time>2023-10-25T12:05:35Z</time>
      </trkpt>
      <trkpt lat="50.03198" lon="2.32382">
        <ele>130.5</ele>
        <time>2023-10-25T12:05:36Z</time>
      </trkpt>
      <trkpt lat="50.03199" lon="2.3238">
        <ele>130.5</ele>
        <time>2023-10-25T12:05:37Z</time>
      </trkpt>
      <trkpt lat="50.032" lon="2.32378">
        <ele>130.5</ele>
        <time>2023-10-25T12:05:38Z</time>
      </trkpt>
      <trkpt lat="50.03201" lon="2.32376">
        <ele>130.6</ele>
        <time>2023-10-25T12:05:40Z</time>
      </trkpt>
      <trkpt lat="50.03202" lon="2.32375">
        <ele>130.6</ele>
        <time>2023-10-25T12:05:41Z</time>
      </trkpt>
      <trkpt lat="50.03202" lon="2.32373">
        <ele>130.6</ele>
        <time>2023-10-25T12:05:42Z</time>
      </trkpt>
      <trkpt lat="50.03203" lon="2.32371">
        <ele>130.6</ele>
        <time>2023-10-25T12:05:43Z</time>
      </trkpt>
      <trkpt lat="50.03204" lon="2.32369">
        <ele>130.6</ele>
        <time>2023-10-25T12:05:44Z</time>
      </trkpt>
      <trkpt lat="50.03205" lon="2.32367">
        <ele>130.6</ele>
        <time>2023-10-25T12:05:46Z</time>
      </trkpt>
      <trkpt lat="50.03206" lon="2.32365">
        <ele>130.6</ele>
        <time>2023-10-25T12:05:47Z</time>
      </trkpt>
      <trkpt lat="50.03206" lon="2.32363">
        <ele>130.6</ele>
        <time>2023-10-25T12:05:48Z</time>
      </trkpt>
      <trkpt lat="50.03207" lon="2.32361">
        <ele>130.6</ele>
        <time>2023-10-25T12:05:49Z</time>
      </trkpt>
      <trkpt lat="50.03208" lon="2.32359">
        <ele>130.6</ele>
        <time>2023-10-25T12:05:50Z</time>
      </trkpt>
      <trkpt lat="50.03209" lon="2.32358">
        <ele>130.6</ele>
        <time>2023-10-25T12:05:51Z</time>
      </trkpt>
      <trkpt lat="50.0321" lon="2.32356">
        <ele>130.6</ele>
        <time>2023-10-25T12:05:52Z</time>
      </trkpt>
      <trkpt lat="50.03211" lon="2.32353">
        <ele>130.6</ele>
        <time>2023-10-25T12:05:54Z</time>
      </trkpt>
      <trkpt lat="50.03212" lon="2.32351">
        <ele>130.6</ele>
        <time>2023-10-25T12:05:55Z</time>
      </trkpt>
      <trkpt lat="50.03212" lon="2.32349">
        <ele>130.6</ele>
        <time>2023-10-25T12:05:56Z</time>
      </trkpt>
      <trkpt lat="50.03213" lon="2.32347">
        <ele>130.6</ele>
        <time>2023-10-25T12:05:57Z</time>
      </trkpt>
      <trkpt lat="50.03214" lon="2.32345">
        <ele>130.6</ele>
        <time>2023-10-25T12:05:58Z</time>
      </trkpt>
      <trkpt lat="50.03215" lon="2.32343">
        <ele>130.6</ele>
        <time>2023-10-25T12:06:00Z</time>
      </trkpt>
      <trkpt lat="50.03216" lon="2.32342">
        <ele>130.6</ele>
        <time>2023-10-25T12:06:01Z</time>
      </trkpt>
      <trkpt lat="50.03216" lon="2.32341">
        <ele>130.6</ele>
        <time>2023-10-25T12:06:02Z</time>
      </trkpt>
      <trkpt lat="50.03217" lon="2.32339">
        <ele>130.6</ele>
        <time>2023-10-25T12:06:03Z</time>
      </trkpt>
      <trkpt lat="50.03219" lon="2.32338">
        <ele>130.6</ele>
        <time>2023-10-25T12:06:04Z</time>
      </trkpt>
      <trkpt lat="50.0322" lon="2.32336">
        <ele>130.6</ele>
        <time>2023-10-25T12:06:05Z</time>
      </trkpt>
      <trkpt lat="50.03221" lon="2.32335">
        <ele>130.7</ele>
        <time>2023-10-25T12:06:06Z</time>
      </trkpt>
      <trkpt lat="50.03222" lon="2.32334">
        <ele>130.7</ele>
        <time>2023-10-25T12:06:07Z</time>
      </trkpt>
      <trkpt lat="50.03223" lon="2.32333">
        <ele>130.7</ele>
        <time>2023-10-25T12:06:09Z</time>
      </trkpt>
      <trkpt lat="50.03224" lon="2.32332">
        <ele>130.7</ele>
        <time>2023-10-25T12:06:10Z</time>
      </trkpt>
      <trkpt lat="50.03225" lon="2.32331">
        <ele>130.7</ele>
        <time>2023-10-25T12:06:11Z</time>
      </trkpt>
      <trkpt lat="50.03226" lon="2.32329">
        <ele>130.7</ele>
        <time>2023-10-25T12:06:12Z</time>
      </trkpt>
      <trkpt lat="50.03226" lon="2.32328">
        <ele>130.7</ele>
        <time>2023-10-25T12:06:13Z</time>
      </trkpt>
      <trkpt lat="50.03227" lon="2.32326">
        <ele>130.7</ele>
        <time>2023-10-25T12:06:14Z</time>
      </trkpt>
      <trkpt lat="50.03228" lon="2.32324">
        <ele>130.7</ele>
        <time>2023-10-25T12:06:16Z</time>
      </trkpt>
      <trkpt lat="50.03229" lon="2.32322">
        <ele>130.7</ele>
        <time>2023-10-25T12:06:17Z</time>
      </trkpt>
      <trkpt lat="50.03229" lon="2.32321">
        <ele>130.7</ele>
        <time>2023-10-25T12:06:18Z</time>
      </trkpt>
      <trkpt lat="50.03229" lon="2.3232">
        <ele>130.7</ele>
        <time>2023-10-25T12:06:19Z</time>
      </trkpt>
      <trkpt lat="50.0323" lon="2.32318">
        <ele>130.7</ele>
        <time>2023-10-25T12:06:20Z</time>
      </trkpt>
      <trkpt lat="50.0323" lon="2.32316">
        <ele>130.7</ele>
        <time>2023-10-25T12:06:21Z</time>
      </trkpt>
      <trkpt lat="50.0323" lon="2.32315">
        <ele>130.7</ele>
        <time>2023-10-25T12:06:22Z</time>
      </trkpt>
      <trkpt lat="50.03231" lon="2.32312">
        <ele>130.7</ele>
        <time>2023-10-25T12:06:23Z</time>
      </trkpt>
      <trkpt lat="50.03231" lon="2.3231">
        <ele>130.8</ele>
        <time>2023-10-25T12:06:25Z</time>
      </trkpt>
      <trkpt lat="50.03231" lon="2.32309">
        <ele>130.8</ele>
        <time>2023-10-25T12:06:26Z</time>
      </trkpt>
      <trkpt lat="50.03231" lon="2.32307">
        <ele>130.8</ele>
        <time>2023-10-25T12:06:27Z</time>
      </trkpt>
      <trkpt lat="50.03231" lon="2.32305">
        <ele>130.8</ele>
        <time>2023-10-25T12:06:28Z</time>
      </trkpt>
      <trkpt lat="50.03231" lon="2.32304">
        <ele>130.8</ele>
        <time>2023-10-25T12:06:29Z</time>
      </trkpt>
      <trkpt lat="50.03231" lon="2.323">
        <ele>130.8</ele>
        <time>2023-10-25T12:06:30Z</time>
      </trkpt>
      <trkpt lat="50.03231" lon="2.32299">
        <ele>130.8</ele>
        <time>2023-10-25T12:06:31Z</time>
      </trkpt>
      <trkpt lat="50.03231" lon="2.32298">
        <ele>130.8</ele>
        <time>2023-10-25T12:06:32Z</time>
      </trkpt>
      <trkpt lat="50.0323" lon="2.32295">
        <ele>130.8</ele>
        <time>2023-10-25T12:06:33Z</time>
      </trkpt>
      <trkpt lat="50.0323" lon="2.32293">
        <ele>130.8</ele>
        <time>2023-10-25T12:06:35Z</time>
      </trkpt>
      <trkpt lat="50.0323" lon="2.32292">
        <ele>130.8</ele>
        <time>2023-10-25T12:06:36Z</time>
      </trkpt>
      <trkpt lat="50.03229" lon="2.3229">
        <ele>130.8</ele>
        <time>2023-10-25T12:06:37Z</time>
      </trkpt>
      <trkpt lat="50.03228" lon="2.32288">
        <ele>130.8</ele>
        <time>2023-10-25T12:06:38Z</time>
      </trkpt>
      <trkpt lat="50.03227" lon="2.32286">
        <ele>130.8</ele>
        <time>2023-10-25T12:06:39Z</time>
      </trkpt>
      <trkpt lat="50.03226" lon="2.32284">
        <ele>130.8</ele>
        <time>2023-10-25T12:06:40Z</time>
      </trkpt>
      <trkpt lat="50.03225" lon="2.32282">
        <ele>130.8</ele>
        <time>2023-10-25T12:06:41Z</time>
      </trkpt>
      <trkpt lat="50.03225" lon="2.3228">
        <ele>130.8</ele>
        <time>2023-10-25T12:06:42Z</time>
      </trkpt>
      <trkpt lat="50.03224" lon="2.32278">
        <ele>130.8</ele>
        <time>2023-10-25T12:06:44Z</time>
      </trkpt>
      <trkpt lat="50.03223" lon="2.32276">
        <ele>130.8</ele>
        <time>2023-10-25T12:06:45Z</time>
      </trkpt>
      <trkpt lat="50.03222" lon="2.32274">
        <ele>130.8</ele>
        <time>2023-10-25T12:06:46Z</time>
      </trkpt>
      <trkpt lat="50.03221" lon="2.32273">
        <ele>130.8</ele>
        <time>2023-10-25T12:06:47Z</time>
      </trkpt>
      <trkpt lat="50.0322" lon="2.3227">
        <ele>130.7</ele>
        <time>2023-10-25T12:06:48Z</time>
      </trkpt>
      <trkpt lat="50.03219" lon="2.32269">
        <ele>130.7</ele>
        <time>2023-10-25T12:06:49Z</time>
      </trkpt>
      <trkpt lat="50.03219" lon="2.32268">
        <ele>130.7</ele>
        <time>2023-10-25T12:06:50Z</time>
      </trkpt>
      <trkpt lat="50.03218" lon="2.32265">
        <ele>130.7</ele>
        <time>2023-10-25T12:06:52Z</time>
      </trkpt>
      <trkpt lat="50.03217" lon="2.32263">
        <ele>130.7</ele>
        <time>2023-10-25T12:06:53Z</time>
      </trkpt>
      <trkpt lat="50.03216" lon="2.32259">
        <ele>130.7</ele>
        <time>2023-10-25T12:06:55Z</time>
      </trkpt>
      <trkpt lat="50.03215" lon="2.32258">
        <ele>130.7</ele>
        <time>2023-10-25T12:06:56Z</time>
      </trkpt>
      <trkpt lat="50.03215" lon="2.32256">
        <ele>130.7</ele>
        <time>2023-10-25T12:06:57Z</time>
      </trkpt>
      <trkpt lat="50.03214" lon="2.32255">
        <ele>130.7</ele>
        <time>2023-10-25T12:06:58Z</time>
      </trkpt>
      <trkpt lat="50.03214" lon="2.32253">
        <ele>130.7</ele>
        <time>2023-10-25T12:06:59Z</time>
      </trkpt>
      <trkpt lat="50.03212" lon="2.3225">
        <ele>130.7</ele>
        <time>2023-10-25T12:07:00Z</time>
      </trkpt>
      <trkpt lat="50.03212" lon="2.32249">
        <ele>130.7</ele>
        <time>2023-10-25T12:07:01Z</time>
      </trkpt>
      <trkpt lat="50.03212" lon="2.32248">
        <ele>130.7</ele>
        <time>2023-10-25T12:07:02Z</time>
      </trkpt>
      <trkpt lat="50.03211" lon="2.32246">
        <ele>130.7</ele>
        <time>2023-10-25T12:07:04Z</time>
      </trkpt>
      <trkpt lat="50.0321" lon="2.32244">
        <ele>130.7</ele>
        <time>2023-10-25T12:07:05Z</time>
      </trkpt>
      <trkpt lat="50.03209" lon="2.32241">
        <ele>130.7</ele>
        <time>2023-10-25T12:07:06Z</time>
      </trkpt>
      <trkpt lat="50.03209" lon="2.3224">
        <ele>130.7</ele>
        <time>2023-10-25T12:07:07Z</time>
      </trkpt>
      <trkpt lat="50.03208" lon="2.32239">
        <ele>130.7</ele>
        <time>2023-10-25T12:07:08Z</time>
      </trkpt>
      <trkpt lat="50.03207" lon="2.32236">
        <ele>130.7</ele>
        <time>2023-10-25T12:07:09Z</time>
      </trkpt>
      <trkpt lat="50.03207" lon="2.32234">
        <ele>130.7</ele>
        <time>2023-10-25T12:07:11Z</time>
      </trkpt>
      <trkpt lat="50.03207" lon="2.32233">
        <ele>130.7</ele>
        <time>2023-10-25T12:07:12Z</time>
      </trkpt>
      <trkpt lat="50.03206" lon="2.32231">
        <ele>130.7</ele>
        <time>2023-10-25T12:07:13Z</time>
      </trkpt>
      <trkpt lat="50.03206" lon="2.32229">
        <ele>130.7</ele>
        <time>2023-10-25T12:07:14Z</time>
      </trkpt>
      <trkpt lat="50.03205" lon="2.32228">
        <ele>130.7</ele>
        <time>2023-10-25T12:07:15Z</time>
      </trkpt>
      <trkpt lat="50.03205" lon="2.32226">
        <ele>130.7</ele>
        <time>2023-10-25T12:07:16Z</time>
      </trkpt>
      <trkpt lat="50.03205" lon="2.32224">
        <ele>130.7</ele>
        <time>2023-10-25T12:07:18Z</time>
      </trkpt>
      <trkpt lat="50.03204" lon="2.32222">
        <ele>130.7</ele>
        <time>2023-10-25T12:07:19Z</time>
      </trkpt>
      <trkpt lat="50.03204" lon="2.32221">
        <ele>130.7</ele>
        <time>2023-10-25T12:07:20Z</time>
      </trkpt>
      <trkpt lat="50.03203" lon="2.32219">
        <ele>130.7</ele>
        <time>2023-10-25T12:07:21Z</time>
      </trkpt>
      <trkpt lat="50.03203" lon="2.32217">
        <ele>130.7</ele>
        <time>2023-10-25T12:07:22Z</time>
      </trkpt>
      <trkpt lat="50.03203" lon="2.32215">
        <ele>130.7</ele>
        <time>2023-10-25T12:07:23Z</time>
      </trkpt>
      <trkpt lat="50.03202" lon="2.32214">
        <ele>130.7</ele>
        <time>2023-10-25T12:07:24Z</time>
      </trkpt>
      <trkpt lat="50.03202" lon="2.32212">
        <ele>130.7</ele>
        <time>2023-10-25T12:07:25Z</time>
      </trkpt>
      <trkpt lat="50.03201" lon="2.3221">
        <ele>130.7</ele>
        <time>2023-10-25T12:07:26Z</time>
      </trkpt>
      <trkpt lat="50.03201" lon="2.32209">
        <ele>130.7</ele>
        <time>2023-10-25T12:07:28Z</time>
      </trkpt>
      <trkpt lat="50.03201" lon="2.32208">
        <ele>130.7</ele>
        <time>2023-10-25T12:07:29Z</time>
      </trkpt>
      <trkpt lat="50.032" lon="2.32206">
        <ele>130.7</ele>
        <time>2023-10-25T12:07:30Z</time>
      </trkpt>
      <trkpt lat="50.032" lon="2.32204">
        <ele>130.7</ele>
        <time>2023-10-25T12:07:31Z</time>
      </trkpt>
      <trkpt lat="50.032" lon="2.32203">
        <ele>130.7</ele>
        <time>2023-10-25T12:07:32Z</time>
      </trkpt>
      <trkpt lat="50.03199" lon="2.32201">
        <ele>130.7</ele>
        <time>2023-10-25T12:07:33Z</time>
      </trkpt>
      <trkpt lat="50.03199" lon="2.32199">
        <ele>130.7</ele>
        <time>2023-10-25T12:07:34Z</time>
      </trkpt>
      <trkpt lat="50.03199" lon="2.32198">
        <ele>130.7</ele>
        <time>2023-10-25T12:07:35Z</time>
      </trkpt>
      <trkpt lat="50.03199" lon="2.32196">
        <ele>130.7</ele>
        <time>2023-10-25T12:07:36Z</time>
      </trkpt>
      <trkpt lat="50.03198" lon="2.32195">
        <ele>130.7</ele>
        <time>2023-10-25T12:07:38Z</time>
      </trkpt>
      <trkpt lat="50.03198" lon="2.32193">
        <ele>130.7</ele>
        <time>2023-10-25T12:07:39Z</time>
      </trkpt>
      <trkpt lat="50.03197" lon="2.32191">
        <ele>130.7</ele>
        <time>2023-10-25T12:07:40Z</time>
      </trkpt>
      <trkpt lat="50.03197" lon="2.32189">
        <ele>130.7</ele>
        <time>2023-10-25T12:07:41Z</time>
      </trkpt>
      <trkpt lat="50.03197" lon="2.32188">
        <ele>130.7</ele>
        <time>2023-10-25T12:07:43Z</time>
      </trkpt>
      <trkpt lat="50.03196" lon="2.32186">
        <ele>130.7</ele>
        <time>2023-10-25T12:07:44Z</time>
      </trkpt>
      <trkpt lat="50.03195" lon="2.32184">
        <ele>130.6</ele>
        <time>2023-10-25T12:07:45Z</time>
      </trkpt>
      <trkpt lat="50.03195" lon="2.32183">
        <ele>130.6</ele>
        <time>2023-10-25T12:07:46Z</time>
      </trkpt>
      <trkpt lat="50.03194" lon="2.32182">
        <ele>130.6</ele>
        <time>2023-10-25T12:07:47Z</time>
      </trkpt>
      <trkpt lat="50.03193" lon="2.32179">
        <ele>130.6</ele>
        <time>2023-10-25T12:07:48Z</time>
      </trkpt>
      <trkpt lat="50.03192" lon="2.32179">
        <ele>130.6</ele>
        <time>2023-10-25T12:07:49Z</time>
      </trkpt>
      <trkpt lat="50.03192" lon="2.32178">
        <ele>130.6</ele>
        <time>2023-10-25T12:07:50Z</time>
      </trkpt>
      <trkpt lat="50.03191" lon="2.32176">
        <ele>130.6</ele>
        <time>2023-10-25T12:07:51Z</time>
      </trkpt>
      <trkpt lat="50.0319" lon="2.32174">
        <ele>130.6</ele>
        <time>2023-10-25T12:07:53Z</time>
      </trkpt>
      <trkpt lat="50.03189" lon="2.32173">
        <ele>130.6</ele>
        <time>2023-10-25T12:07:54Z</time>
      </trkpt>
      <trkpt lat="50.03188" lon="2.32171">
        <ele>130.6</ele>
        <time>2023-10-25T12:07:55Z</time>
      </trkpt>
      <trkpt lat="50.03187" lon="2.32169">
        <ele>130.6</ele>
        <time>2023-10-25T12:07:56Z</time>
      </trkpt>
      <trkpt lat="50.03187" lon="2.32168">
        <ele>130.6</ele>
        <time>2023-10-25T12:07:57Z</time>
      </trkpt>
      <trkpt lat="50.03186" lon="2.32167">
        <ele>130.6</ele>
        <time>2023-10-25T12:07:58Z</time>
      </trkpt>
      <trkpt lat="50.03185" lon="2.32164">
        <ele>130.5</ele>
        <time>2023-10-25T12:07:59Z</time>
      </trkpt>
      <trkpt lat="50.03184" lon="2.32163">
        <ele>130.5</ele>
        <time>2023-10-25T12:08:01Z</time>
      </trkpt>
      <trkpt lat="50.03184" lon="2.32162">
        <ele>130.5</ele>
        <time>2023-10-25T12:08:02Z</time>
      </trkpt>
      <trkpt lat="50.03183" lon="2.32159">
        <ele>130.5</ele>
        <time>2023-10-25T12:08:03Z</time>
      </trkpt>
      <trkpt lat="50.03183" lon="2.32158">
        <ele>130.5</ele>
        <time>2023-10-25T12:08:04Z</time>
      </trkpt>
      <trkpt lat="50.03183" lon="2.32157">
        <ele>130.5</ele>
        <time>2023-10-25T12:08:05Z</time>
      </trkpt>
      <trkpt lat="50.03182" lon="2.32154">
        <ele>130.5</ele>
        <time>2023-10-25T12:08:06Z</time>
      </trkpt>
      <trkpt lat="50.03182" lon="2.32152">
        <ele>130.4</ele>
        <time>2023-10-25T12:08:07Z</time>
      </trkpt>
      <trkpt lat="50.03182" lon="2.32151">
        <ele>130.4</ele>
        <time>2023-10-25T12:08:08Z</time>
      </trkpt>
      <trkpt lat="50.03181" lon="2.32149">
        <ele>130.4</ele>
        <time>2023-10-25T12:08:09Z</time>
      </trkpt>
      <trkpt lat="50.03181" lon="2.32147">
        <ele>130.4</ele>
        <time>2023-10-25T12:08:11Z</time>
      </trkpt>
      <trkpt lat="50.03181" lon="2.32144">
        <ele>130.4</ele>
        <time>2023-10-25T12:08:12Z</time>
      </trkpt>
      <trkpt lat="50.0318" lon="2.32142">
        <ele>130.4</ele>
        <time>2023-10-25T12:08:13Z</time>
      </trkpt>
      <trkpt lat="50.0318" lon="2.32141">
        <ele>130.4</ele>
        <time>2023-10-25T12:08:14Z</time>
      </trkpt>
      <trkpt lat="50.03179" lon="2.32139">
        <ele>130.3</ele>
        <time>2023-10-25T12:08:15Z</time>
      </trkpt>
      <trkpt lat="50.03179" lon="2.32137">
        <ele>130.3</ele>
        <time>2023-10-25T12:08:16Z</time>
      </trkpt>
      <trkpt lat="50.03179" lon="2.32136">
        <ele>130.3</ele>
        <time>2023-10-25T12:08:17Z</time>
      </trkpt>
      <trkpt lat="50.03178" lon="2.32134">
        <ele>130.3</ele>
        <time>2023-10-25T12:08:18Z</time>
      </trkpt>
      <trkpt lat="50.03178" lon="2.32132">
        <ele>130.3</ele>
        <time>2023-10-25T12:08:20Z</time>
      </trkpt>
      <trkpt lat="50.03177" lon="2.32128">
        <ele>130.3</ele>
        <time>2023-10-25T12:08:21Z</time>
      </trkpt>
      <trkpt lat="50.03177" lon="2.32127">
        <ele>130.2</ele>
        <time>2023-10-25T12:08:22Z</time>
      </trkpt>
      <trkpt lat="50.03177" lon="2.32126">
        <ele>130.2</ele>
        <time>2023-10-25T12:08:23Z</time>
      </trkpt>
      <trkpt lat="50.03177" lon="2.32124">
        <ele>130.2</ele>
        <time>2023-10-25T12:08:24Z</time>
      </trkpt>
      <trkpt lat="50.03176" lon="2.32122">
        <ele>130.2</ele>
        <time>2023-10-25T12:08:25Z</time>
      </trkpt>
      <trkpt lat="50.03176" lon="2.32121">
        <ele>130.2</ele>
        <time>2023-10-25T12:08:26Z</time>
      </trkpt>
      <trkpt lat="50.03175" lon="2.32117">
        <ele>130.2</ele>
        <time>2023-10-25T12:08:27Z</time>
      </trkpt>
      <trkpt lat="50.03175" lon="2.32116">
        <ele>130.2</ele>
        <time>2023-10-25T12:08:29Z</time>
      </trkpt>
      <trkpt lat="50.03174" lon="2.32114">
        <ele>130.1</ele>
        <time>2023-10-25T12:08:30Z</time>
      </trkpt>
      <trkpt lat="50.03173" lon="2.32111">
        <ele>130.1</ele>
        <time>2023-10-25T12:08:32Z</time>
      </trkpt>
      <trkpt lat="50.03172" lon="2.32109">
        <ele>130.1</ele>
        <time>2023-10-25T12:08:33Z</time>
      </trkpt>
      <trkpt lat="50.03172" lon="2.32108">
        <ele>130.1</ele>
        <time>2023-10-25T12:08:34Z</time>
      </trkpt>
      <trkpt lat="50.03171" lon="2.32106">
        <ele>130.1</ele>
        <time>2023-10-25T12:08:35Z</time>
      </trkpt>
      <trkpt lat="50.0317" lon="2.32104">
        <ele>130.1</ele>
        <time>2023-10-25T12:08:37Z</time>
      </trkpt>
      <trkpt lat="50.03169" lon="2.32101">
        <ele>130</ele>
        <time>2023-10-25T12:08:38Z</time>
      </trkpt>
      <trkpt lat="50.03169" lon="2.321">
        <ele>130</ele>
        <time>2023-10-25T12:08:39Z</time>
      </trkpt>
      <trkpt lat="50.03168" lon="2.32099">
        <ele>130</ele>
        <time>2023-10-25T12:08:40Z</time>
      </trkpt>
      <trkpt lat="50.03168" lon="2.32095">
        <ele>130</ele>
        <time>2023-10-25T12:08:41Z</time>
      </trkpt>
      <trkpt lat="50.03167" lon="2.32094">
        <ele>130</ele>
        <time>2023-10-25T12:08:42Z</time>
      </trkpt>
      <trkpt lat="50.03167" lon="2.32093">
        <ele>129.9</ele>
        <time>2023-10-25T12:08:43Z</time>
      </trkpt>
      <trkpt lat="50.03167" lon="2.32091">
        <ele>129.9</ele>
        <time>2023-10-25T12:08:45Z</time>
      </trkpt>
      <trkpt lat="50.03166" lon="2.32089">
        <ele>129.9</ele>
        <time>2023-10-25T12:08:46Z</time>
      </trkpt>
      <trkpt lat="50.03166" lon="2.32087">
        <ele>129.9</ele>
        <time>2023-10-25T12:08:47Z</time>
      </trkpt>
      <trkpt lat="50.03166" lon="2.32085">
        <ele>129.9</ele>
        <time>2023-10-25T12:08:48Z</time>
      </trkpt>
      <trkpt lat="50.03165" lon="2.32082">
        <ele>129.8</ele>
        <time>2023-10-25T12:08:50Z</time>
      </trkpt>
      <trkpt lat="50.03165" lon="2.32079">
        <ele>129.8</ele>
        <time>2023-10-25T12:08:51Z</time>
      </trkpt>
      <trkpt lat="50.03165" lon="2.32078">
        <ele>129.8</ele>
        <time>2023-10-25T12:08:52Z</time>
      </trkpt>
      <trkpt lat="50.03165" lon="2.32077">
        <ele>129.8</ele>
        <time>2023-10-25T12:08:53Z</time>
      </trkpt>
      <trkpt lat="50.03164" lon="2.32075">
        <ele>129.8</ele>
        <time>2023-10-25T12:08:54Z</time>
      </trkpt>
      <trkpt lat="50.03164" lon="2.32073">
        <ele>129.8</ele>
        <time>2023-10-25T12:08:55Z</time>
      </trkpt>
      <trkpt lat="50.03164" lon="2.32072">
        <ele>129.7</ele>
        <time>2023-10-25T12:08:56Z</time>
      </trkpt>
      <trkpt lat="50.03163" lon="2.3207">
        <ele>129.7</ele>
        <time>2023-10-25T12:08:58Z</time>
      </trkpt>
      <trkpt lat="50.03163" lon="2.32069">
        <ele>129.7</ele>
        <time>2023-10-25T12:08:59Z</time>
      </trkpt>
      <trkpt lat="50.03162" lon="2.32067">
        <ele>129.7</ele>
        <time>2023-10-25T12:09:00Z</time>
      </trkpt>
      <trkpt lat="50.03161" lon="2.32065">
        <ele>129.7</ele>
        <time>2023-10-25T12:09:01Z</time>
      </trkpt>
      <trkpt lat="50.03161" lon="2.32064">
        <ele>129.7</ele>
        <time>2023-10-25T12:09:02Z</time>
      </trkpt>
      <trkpt lat="50.03161" lon="2.32062">
        <ele>129.6</ele>
        <time>2023-10-25T12:09:03Z</time>
      </trkpt>
      <trkpt lat="50.0316" lon="2.32061">
        <ele>129.6</ele>
        <time>2023-10-25T12:09:04Z</time>
      </trkpt>
      <trkpt lat="50.03159" lon="2.32059">
        <ele>129.6</ele>
        <time>2023-10-25T12:09:05Z</time>
      </trkpt>
      <trkpt lat="50.03159" lon="2.32056">
        <ele>129.6</ele>
        <time>2023-10-25T12:09:07Z</time>
      </trkpt>
      <trkpt lat="50.03158" lon="2.32055">
        <ele>129.6</ele>
        <time>2023-10-25T12:09:08Z</time>
      </trkpt>
      <trkpt lat="50.03157" lon="2.32053">
        <ele>129.5</ele>
        <time>2023-10-25T12:09:09Z</time>
      </trkpt>
      <trkpt lat="50.03157" lon="2.32051">
        <ele>129.5</ele>
        <time>2023-10-25T12:09:10Z</time>
      </trkpt>
      <trkpt lat="50.03156" lon="2.3205">
        <ele>129.5</ele>
        <time>2023-10-25T12:09:11Z</time>
      </trkpt>
      <trkpt lat="50.03155" lon="2.32048">
        <ele>129.5</ele>
        <time>2023-10-25T12:09:12Z</time>
      </trkpt>
      <trkpt lat="50.03155" lon="2.32045">
        <ele>129.4</ele>
        <time>2023-10-25T12:09:14Z</time>
      </trkpt>
      <trkpt lat="50.03154" lon="2.32043">
        <ele>129.4</ele>
        <time>2023-10-25T12:09:15Z</time>
      </trkpt>
      <trkpt lat="50.03154" lon="2.3204">
        <ele>129.4</ele>
        <time>2023-10-25T12:09:17Z</time>
      </trkpt>
      <trkpt lat="50.03153" lon="2.32038">
        <ele>129.4</ele>
        <time>2023-10-25T12:09:18Z</time>
      </trkpt>
      <trkpt lat="50.03153" lon="2.32035">
        <ele>129.3</ele>
        <time>2023-10-25T12:09:19Z</time>
      </trkpt>
      <trkpt lat="50.03153" lon="2.32033">
        <ele>129.3</ele>
        <time>2023-10-25T12:09:20Z</time>
      </trkpt>
      <trkpt lat="50.03152" lon="2.32032">
        <ele>129.3</ele>
        <time>2023-10-25T12:09:21Z</time>
      </trkpt>
      <trkpt lat="50.03152" lon="2.3203">
        <ele>129.3</ele>
        <time>2023-10-25T12:09:22Z</time>
      </trkpt>
      <trkpt lat="50.03152" lon="2.32029">
        <ele>129.3</ele>
        <time>2023-10-25T12:09:23Z</time>
      </trkpt>
      <trkpt lat="50.03152" lon="2.32027">
        <ele>129.2</ele>
        <time>2023-10-25T12:09:24Z</time>
      </trkpt>
      <trkpt lat="50.03152" lon="2.32025">
        <ele>129.2</ele>
        <time>2023-10-25T12:09:25Z</time>
      </trkpt>
      <trkpt lat="50.03151" lon="2.32024">
        <ele>129.2</ele>
        <time>2023-10-25T12:09:26Z</time>
      </trkpt>
      <trkpt lat="50.03151" lon="2.32022">
        <ele>129.2</ele>
        <time>2023-10-25T12:09:27Z</time>
      </trkpt>
      <trkpt lat="50.03151" lon="2.3202">
        <ele>129.2</ele>
        <time>2023-10-25T12:09:29Z</time>
      </trkpt>
      <trkpt lat="50.03151" lon="2.32018">
        <ele>129.2</ele>
        <time>2023-10-25T12:09:30Z</time>
      </trkpt>
      <trkpt lat="50.03151" lon="2.32016">
        <ele>129.1</ele>
        <time>2023-10-25T12:09:31Z</time>
      </trkpt>
      <trkpt lat="50.0315" lon="2.32014">
        <ele>129.1</ele>
        <time>2023-10-25T12:09:32Z</time>
      </trkpt>
      <trkpt lat="50.0315" lon="2.32013">
        <ele>129.1</ele>
        <time>2023-10-25T12:09:33Z</time>
      </trkpt>
      <trkpt lat="50.0315" lon="2.32011">
        <ele>129.1</ele>
        <time>2023-10-25T12:09:34Z</time>
      </trkpt>
      <trkpt lat="50.0315" lon="2.32009">
        <ele>129.1</ele>
        <time>2023-10-25T12:09:35Z</time>
      </trkpt>
      <trkpt lat="50.0315" lon="2.32006">
        <ele>129.1</ele>
        <time>2023-10-25T12:09:36Z</time>
      </trkpt>
      <trkpt lat="50.03149" lon="2.32004">
        <ele>129.1</ele>
        <time>2023-10-25T12:09:37Z</time>
      </trkpt>
      <trkpt lat="50.03149" lon="2.32">
        <ele>129.1</ele>
        <time>2023-10-25T12:09:39Z</time>
      </trkpt>
      <trkpt lat="50.03149" lon="2.31998">
        <ele>129</ele>
        <time>2023-10-25T12:09:40Z</time>
      </trkpt>
      <trkpt lat="50.03149" lon="2.31996">
        <ele>129</ele>
        <time>2023-10-25T12:09:41Z</time>
      </trkpt>
      <trkpt lat="50.03148" lon="2.31993">
        <ele>129</ele>
        <time>2023-10-25T12:09:42Z</time>
      </trkpt>
      <trkpt lat="50.03148" lon="2.31991">
        <ele>129</ele>
        <time>2023-10-25T12:09:43Z</time>
      </trkpt>
      <trkpt lat="50.03148" lon="2.31989">
        <ele>129</ele>
        <time>2023-10-25T12:09:44Z</time>
      </trkpt>
      <trkpt lat="50.03148" lon="2.31987">
        <ele>129</ele>
        <time>2023-10-25T12:09:45Z</time>
      </trkpt>
      <trkpt lat="50.03148" lon="2.31985">
        <ele>129</ele>
        <time>2023-10-25T12:09:47Z</time>
      </trkpt>
      <trkpt lat="50.03148" lon="2.31982">
        <ele>129.1</ele>
        <time>2023-10-25T12:09:48Z</time>
      </trkpt>
      <trkpt lat="50.03148" lon="2.3198">
        <ele>129.1</ele>
        <time>2023-10-25T12:09:49Z</time>
      </trkpt>
      <trkpt lat="50.03147" lon="2.31979">
        <ele>129.1</ele>
        <time>2023-10-25T12:09:50Z</time>
      </trkpt>
      <trkpt lat="50.03147" lon="2.31976">
        <ele>129.1</ele>
        <time>2023-10-25T12:09:51Z</time>
      </trkpt>
      <trkpt lat="50.03147" lon="2.31974">
        <ele>129.1</ele>
        <time>2023-10-25T12:09:52Z</time>
      </trkpt>
      <trkpt lat="50.03147" lon="2.31973">
        <ele>129.1</ele>
        <time>2023-10-25T12:09:53Z</time>
      </trkpt>
      <trkpt lat="50.03146" lon="2.31971">
        <ele>129.1</ele>
        <time>2023-10-25T12:09:54Z</time>
      </trkpt>
      <trkpt lat="50.03146" lon="2.31969">
        <ele>129.1</ele>
        <time>2023-10-25T12:09:55Z</time>
      </trkpt>
      <trkpt lat="50.03146" lon="2.31967">
        <ele>129.2</ele>
        <time>2023-10-25T12:09:57Z</time>
      </trkpt>
      <trkpt lat="50.03145" lon="2.31964">
        <ele>129.2</ele>
        <time>2023-10-25T12:09:58Z</time>
      </trkpt>
      <trkpt lat="50.03145" lon="2.31963">
        <ele>129.2</ele>
        <time>2023-10-25T12:09:59Z</time>
      </trkpt>
      <trkpt lat="50.03145" lon="2.31961">
        <ele>129.2</ele>
        <time>2023-10-25T12:10:00Z</time>
      </trkpt>
      <trkpt lat="50.03145" lon="2.31958">
        <ele>129.7</ele>
        <time>2023-10-25T12:10:01Z</time>
      </trkpt>
      <trkpt lat="50.03146" lon="2.31957">
        <ele>129.7</ele>
        <time>2023-10-25T12:10:03Z</time>
      </trkpt>
      <trkpt lat="50.03146" lon="2.31955">
        <ele>129.8</ele>
        <time>2023-10-25T12:10:04Z</time>
      </trkpt>
      <trkpt lat="50.03148" lon="2.31955">
        <ele>129.8</ele>
        <time>2023-10-25T12:10:05Z</time>
      </trkpt>
      <trkpt lat="50.03149" lon="2.31954">
        <ele>129.8</ele>
        <time>2023-10-25T12:10:06Z</time>
      </trkpt>
      <trkpt lat="50.0315" lon="2.31953">
        <ele>129.8</ele>
        <time>2023-10-25T12:10:07Z</time>
      </trkpt>
      <trkpt lat="50.03152" lon="2.31952">
        <ele>129.9</ele>
        <time>2023-10-25T12:10:09Z</time>
      </trkpt>
      <trkpt lat="50.03153" lon="2.31952">
        <ele>129.9</ele>
        <time>2023-10-25T12:10:10Z</time>
      </trkpt>
      <trkpt lat="50.03154" lon="2.31952">
        <ele>129.9</ele>
        <time>2023-10-25T12:10:11Z</time>
      </trkpt>
      <trkpt lat="50.03155" lon="2.31952">
        <ele>129.9</ele>
        <time>2023-10-25T12:10:12Z</time>
      </trkpt>
      <trkpt lat="50.03156" lon="2.31953">
        <ele>129.9</ele>
        <time>2023-10-25T12:10:13Z</time>
      </trkpt>
      <trkpt lat="50.03157" lon="2.31953">
        <ele>130</ele>
        <time>2023-10-25T12:10:14Z</time>
      </trkpt>
      <trkpt lat="50.03158" lon="2.31953">
        <ele>130</ele>
        <time>2023-10-25T12:10:16Z</time>
      </trkpt>
      <trkpt lat="50.03159" lon="2.31953">
        <ele>130</ele>
        <time>2023-10-25T12:10:17Z</time>
      </trkpt>
      <trkpt lat="50.0316" lon="2.31953">
        <ele>130</ele>
        <time>2023-10-25T12:10:18Z</time>
      </trkpt>
      <trkpt lat="50.0316" lon="2.31955">
        <ele>130</ele>
        <time>2023-10-25T12:10:19Z</time>
      </trkpt>
      <trkpt lat="50.03161" lon="2.31956">
        <ele>130</ele>
        <time>2023-10-25T12:10:20Z</time>
      </trkpt>
      <trkpt lat="50.03162" lon="2.31957">
        <ele>130.1</ele>
        <time>2023-10-25T12:10:21Z</time>
      </trkpt>
      <trkpt lat="50.03163" lon="2.31958">
        <ele>130.1</ele>
        <time>2023-10-25T12:10:22Z</time>
      </trkpt>
      <trkpt lat="50.03164" lon="2.31958">
        <ele>130.1</ele>
        <time>2023-10-25T12:10:24Z</time>
      </trkpt>
      <trkpt lat="50.03165" lon="2.31959">
        <ele>130.1</ele>
        <time>2023-10-25T12:10:25Z</time>
      </trkpt>
      <trkpt lat="50.03166" lon="2.3196">
        <ele>130.1</ele>
        <time>2023-10-25T12:10:26Z</time>
      </trkpt>
      <trkpt lat="50.03167" lon="2.31961">
        <ele>130.2</ele>
        <time>2023-10-25T12:10:27Z</time>
      </trkpt>
      <trkpt lat="50.03168" lon="2.31962">
        <ele>130.2</ele>
        <time>2023-10-25T12:10:28Z</time>
      </trkpt>
      <trkpt lat="50.03168" lon="2.31963">
        <ele>130.2</ele>
        <time>2023-10-25T12:10:29Z</time>
      </trkpt>
      <trkpt lat="50.03169" lon="2.31964">
        <ele>130.2</ele>
        <time>2023-10-25T12:10:30Z</time>
      </trkpt>
      <trkpt lat="50.0317" lon="2.31965">
        <ele>130.2</ele>
        <time>2023-10-25T12:10:32Z</time>
      </trkpt>
      <trkpt lat="50.03171" lon="2.31966">
        <ele>130.3</ele>
        <time>2023-10-25T12:10:33Z</time>
      </trkpt>
      <trkpt lat="50.03172" lon="2.31966">
        <ele>130.3</ele>
        <time>2023-10-25T12:10:34Z</time>
      </trkpt>
      <trkpt lat="50.03173" lon="2.31967">
        <ele>130.3</ele>
        <time>2023-10-25T12:10:35Z</time>
      </trkpt>
      <trkpt lat="50.03174" lon="2.31967">
        <ele>130.3</ele>
        <time>2023-10-25T12:10:36Z</time>
      </trkpt>
      <trkpt lat="50.03176" lon="2.31968">
        <ele>130.4</ele>
        <time>2023-10-25T12:10:37Z</time>
      </trkpt>
      <trkpt lat="50.03177" lon="2.31969">
        <ele>130.4</ele>
        <time>2023-10-25T12:10:38Z</time>
      </trkpt>
      <trkpt lat="50.03178" lon="2.31969">
        <ele>130.4</ele>
        <time>2023-10-25T12:10:40Z</time>
      </trkpt>
      <trkpt lat="50.03179" lon="2.31969">
        <ele>130.4</ele>
        <time>2023-10-25T12:10:41Z</time>
      </trkpt>
      <trkpt lat="50.03181" lon="2.3197">
        <ele>130.5</ele>
        <time>2023-10-25T12:10:42Z</time>
      </trkpt>
      <trkpt lat="50.03182" lon="2.31971">
        <ele>130.5</ele>
        <time>2023-10-25T12:10:43Z</time>
      </trkpt>
      <trkpt lat="50.03184" lon="2.31971">
        <ele>130.5</ele>
        <time>2023-10-25T12:10:44Z</time>
      </trkpt>
      <trkpt lat="50.03186" lon="2.31968">
        <ele>130.6</ele>
        <time>2023-10-25T12:10:45Z</time>
      </trkpt>
      <trkpt lat="50.03187" lon="2.31966">
        <ele>130.6</ele>
        <time>2023-10-25T12:10:47Z</time>
      </trkpt>
      <trkpt lat="50.03188" lon="2.31964">
        <ele>130.6</ele>
        <time>2023-10-25T12:10:48Z</time>
      </trkpt>
      <trkpt lat="50.03189" lon="2.31962">
        <ele>130.7</ele>
        <time>2023-10-25T12:10:49Z</time>
      </trkpt>
      <trkpt lat="50.0319" lon="2.31958">
        <ele>130.7</ele>
        <time>2023-10-25T12:10:50Z</time>
      </trkpt>
      <trkpt lat="50.03191" lon="2.31957">
        <ele>130.7</ele>
        <time>2023-10-25T12:10:51Z</time>
      </trkpt>
      <trkpt lat="50.03192" lon="2.31956">
        <ele>130.7</ele>
        <time>2023-10-25T12:10:53Z</time>
      </trkpt>
      <trkpt lat="50.03194" lon="2.31955">
        <ele>130.8</ele>
        <time>2023-10-25T12:10:54Z</time>
      </trkpt>
      <trkpt lat="50.03195" lon="2.31954">
        <ele>130.8</ele>
        <time>2023-10-25T12:10:55Z</time>
      </trkpt>
      <trkpt lat="50.03197" lon="2.31954">
        <ele>130.8</ele>
        <time>2023-10-25T12:10:56Z</time>
      </trkpt>
      <trkpt lat="50.03198" lon="2.31953">
        <ele>130.8</ele>
        <time>2023-10-25T12:10:57Z</time>
      </trkpt>
      <trkpt lat="50.032" lon="2.31954">
        <ele>130.9</ele>
        <time>2023-10-25T12:10:59Z</time>
      </trkpt>
      <trkpt lat="50.03202" lon="2.31954">
        <ele>130.9</ele>
        <time>2023-10-25T12:11:00Z</time>
      </trkpt>
      <trkpt lat="50.03203" lon="2.31954">
        <ele>130.9</ele>
        <time>2023-10-25T12:11:01Z</time>
      </trkpt>
      <trkpt lat="50.03205" lon="2.31955">
        <ele>131</ele>
        <time>2023-10-25T12:11:02Z</time>
      </trkpt>
      <trkpt lat="50.03207" lon="2.31956">
        <ele>131</ele>
        <time>2023-10-25T12:11:04Z</time>
      </trkpt>
      <trkpt lat="50.03209" lon="2.31956">
        <ele>131</ele>
        <time>2023-10-25T12:11:05Z</time>
      </trkpt>
      <trkpt lat="50.0321" lon="2.31957">
        <ele>131</ele>
        <time>2023-10-25T12:11:06Z</time>
      </trkpt>
      <trkpt lat="50.03211" lon="2.31956">
        <ele>131.1</ele>
        <time>2023-10-25T12:11:07Z</time>
      </trkpt>
      <trkpt lat="50.03212" lon="2.31956">
        <ele>131.1</ele>
        <time>2023-10-25T12:11:08Z</time>
      </trkpt>
      <trkpt lat="50.03213" lon="2.31956">
        <ele>131.1</ele>
        <time>2023-10-25T12:11:09Z</time>
      </trkpt>
      <trkpt lat="50.03214" lon="2.31955">
        <ele>131</ele>
        <time>2023-10-25T12:11:11Z</time>
      </trkpt>
      <trkpt lat="50.03215" lon="2.31954">
        <ele>131</ele>
        <time>2023-10-25T12:11:12Z</time>
      </trkpt>
      <trkpt lat="50.03215" lon="2.31953">
        <ele>131</ele>
        <time>2023-10-25T12:11:13Z</time>
      </trkpt>
      <trkpt lat="50.03215" lon="2.31949">
        <ele>130.9</ele>
        <time>2023-10-25T12:11:14Z</time>
      </trkpt>
      <trkpt lat="50.03214" lon="2.31948">
        <ele>130.9</ele>
        <time>2023-10-25T12:11:15Z</time>
      </trkpt>
      <trkpt lat="50.03214" lon="2.31946">
        <ele>130.9</ele>
        <time>2023-10-25T12:11:16Z</time>
      </trkpt>
      <trkpt lat="50.03214" lon="2.31942">
        <ele>130.9</ele>
        <time>2023-10-25T12:11:18Z</time>
      </trkpt>
      <trkpt lat="50.03214" lon="2.3194">
        <ele>130.9</ele>
        <time>2023-10-25T12:11:19Z</time>
      </trkpt>
      <trkpt lat="50.03214" lon="2.31937">
        <ele>130.8</ele>
        <time>2023-10-25T12:11:20Z</time>
      </trkpt>
      <trkpt lat="50.03214" lon="2.31935">
        <ele>130.8</ele>
        <time>2023-10-25T12:11:21Z</time>
      </trkpt>
      <trkpt lat="50.03213" lon="2.31932">
        <ele>130.8</ele>
        <time>2023-10-25T12:11:22Z</time>
      </trkpt>
      <trkpt lat="50.03213" lon="2.3193">
        <ele>130.8</ele>
        <time>2023-10-25T12:11:23Z</time>
      </trkpt>
      <trkpt lat="50.03212" lon="2.31926">
        <ele>130.8</ele>
        <time>2023-10-25T12:11:24Z</time>
      </trkpt>
      <trkpt lat="50.03212" lon="2.31925">
        <ele>130.8</ele>
        <time>2023-10-25T12:11:25Z</time>
      </trkpt>
      <trkpt lat="50.0321" lon="2.3192">
        <ele>130.8</ele>
        <time>2023-10-25T12:11:27Z</time>
      </trkpt>
      <trkpt lat="50.03209" lon="2.31918">
        <ele>130.8</ele>
        <time>2023-10-25T12:11:28Z</time>
      </trkpt>
      <trkpt lat="50.03208" lon="2.31916">
        <ele>130.8</ele>
        <time>2023-10-25T12:11:29Z</time>
      </trkpt>
      <trkpt lat="50.03208" lon="2.31913">
        <ele>130.8</ele>
        <time>2023-10-25T12:11:30Z</time>
      </trkpt>
      <trkpt lat="50.03207" lon="2.31911">
        <ele>130.8</ele>
        <time>2023-10-25T12:11:31Z</time>
      </trkpt>
      <trkpt lat="50.03207" lon="2.31909">
        <ele>130.8</ele>
        <time>2023-10-25T12:11:32Z</time>
      </trkpt>
      <trkpt lat="50.03206" lon="2.31906">
        <ele>130.8</ele>
        <time>2023-10-25T12:11:33Z</time>
      </trkpt>
      <trkpt lat="50.03205" lon="2.31904">
        <ele>130.8</ele>
        <time>2023-10-25T12:11:35Z</time>
      </trkpt>
      <trkpt lat="50.03205" lon="2.31903">
        <ele>130.8</ele>
        <time>2023-10-25T12:11:36Z</time>
      </trkpt>
      <trkpt lat="50.03204" lon="2.31901">
        <ele>130.8</ele>
        <time>2023-10-25T12:11:37Z</time>
      </trkpt>
      <trkpt lat="50.03204" lon="2.319">
        <ele>130.8</ele>
        <time>2023-10-25T12:11:38Z</time>
      </trkpt>
      <trkpt lat="50.03203" lon="2.31897">
        <ele>130.8</ele>
        <time>2023-10-25T12:11:39Z</time>
      </trkpt>
      <trkpt lat="50.03203" lon="2.31895">
        <ele>130.8</ele>
        <time>2023-10-25T12:11:40Z</time>
      </trkpt>
      <trkpt lat="50.03202" lon="2.31894">
        <ele>130.8</ele>
        <time>2023-10-25T12:11:41Z</time>
      </trkpt>
      <trkpt lat="50.03202" lon="2.3189">
        <ele>130.8</ele>
        <time>2023-10-25T12:11:42Z</time>
      </trkpt>
      <trkpt lat="50.03202" lon="2.31888">
        <ele>130.8</ele>
        <time>2023-10-25T12:11:44Z</time>
      </trkpt>
      <trkpt lat="50.03202" lon="2.31887">
        <ele>130.8</ele>
        <time>2023-10-25T12:11:45Z</time>
      </trkpt>
      <trkpt lat="50.03202" lon="2.31885">
        <ele>130.9</ele>
        <time>2023-10-25T12:11:46Z</time>
      </trkpt>
      <trkpt lat="50.03202" lon="2.31883">
        <ele>130.9</ele>
        <time>2023-10-25T12:11:47Z</time>
      </trkpt>
      <trkpt lat="50.03201" lon="2.31881">
        <ele>130.9</ele>
        <time>2023-10-25T12:11:48Z</time>
      </trkpt>
      <trkpt lat="50.03201" lon="2.31879">
        <ele>130.9</ele>
        <time>2023-10-25T12:11:49Z</time>
      </trkpt>
      <trkpt lat="50.03201" lon="2.31875">
        <ele>130.9</ele>
        <time>2023-10-25T12:11:50Z</time>
      </trkpt>
      <trkpt lat="50.032" lon="2.31874">
        <ele>130.9</ele>
        <time>2023-10-25T12:11:52Z</time>
      </trkpt>
      <trkpt lat="50.032" lon="2.31873">
        <ele>130.9</ele>
        <time>2023-10-25T12:11:53Z</time>
      </trkpt>
      <trkpt lat="50.032" lon="2.31869">
        <ele>131</ele>
        <time>2023-10-25T12:11:54Z</time>
      </trkpt>
      <trkpt lat="50.032" lon="2.31868">
        <ele>131</ele>
        <time>2023-10-25T12:11:55Z</time>
      </trkpt>
      <trkpt lat="50.032" lon="2.31867">
        <ele>131</ele>
        <time>2023-10-25T12:11:56Z</time>
      </trkpt>
      <trkpt lat="50.03199" lon="2.31865">
        <ele>131</ele>
        <time>2023-10-25T12:11:57Z</time>
      </trkpt>
      <trkpt lat="50.03199" lon="2.31863">
        <ele>131</ele>
        <time>2023-10-25T12:11:58Z</time>
      </trkpt>
      <trkpt lat="50.03199" lon="2.31861">
        <ele>131</ele>
        <time>2023-10-25T12:12:00Z</time>
      </trkpt>
      <trkpt lat="50.03199" lon="2.31859">
        <ele>131</ele>
        <time>2023-10-25T12:12:01Z</time>
      </trkpt>
      <trkpt lat="50.03199" lon="2.31858">
        <ele>131.1</ele>
        <time>2023-10-25T12:12:02Z</time>
      </trkpt>
      <trkpt lat="50.03199" lon="2.31856">
        <ele>131.1</ele>
        <time>2023-10-25T12:12:03Z</time>
      </trkpt>
      <trkpt lat="50.03198" lon="2.31853">
        <ele>131.1</ele>
        <time>2023-10-25T12:12:04Z</time>
      </trkpt>
      <trkpt lat="50.03198" lon="2.31851">
        <ele>131.1</ele>
        <time>2023-10-25T12:12:05Z</time>
      </trkpt>
      <trkpt lat="50.03198" lon="2.3185">
        <ele>131.1</ele>
        <time>2023-10-25T12:12:06Z</time>
      </trkpt>
      <trkpt lat="50.03197" lon="2.31849">
        <ele>131.1</ele>
        <time>2023-10-25T12:12:07Z</time>
      </trkpt>
      <trkpt lat="50.03197" lon="2.31848">
        <ele>131.1</ele>
        <time>2023-10-25T12:12:09Z</time>
      </trkpt>
      <trkpt lat="50.03197" lon="2.31845">
        <ele>131.2</ele>
        <time>2023-10-25T12:12:10Z</time>
      </trkpt>
      <trkpt lat="50.03197" lon="2.31844">
        <ele>131.2</ele>
        <time>2023-10-25T12:12:11Z</time>
      </trkpt>
      <trkpt lat="50.03196" lon="2.31842">
        <ele>131.2</ele>
        <time>2023-10-25T12:12:12Z</time>
      </trkpt>
      <trkpt lat="50.03196" lon="2.31841">
        <ele>131.2</ele>
        <time>2023-10-25T12:12:13Z</time>
      </trkpt>
      <trkpt lat="50.03196" lon="2.31838">
        <ele>131.2</ele>
        <time>2023-10-25T12:12:14Z</time>
      </trkpt>
      <trkpt lat="50.03196" lon="2.31836">
        <ele>131.3</ele>
        <time>2023-10-25T12:12:15Z</time>
      </trkpt>
      <trkpt lat="50.03196" lon="2.31835">
        <ele>131.3</ele>
        <time>2023-10-25T12:12:16Z</time>
      </trkpt>
      <trkpt lat="50.03195" lon="2.31833">
        <ele>131.3</ele>
        <time>2023-10-25T12:12:17Z</time>
      </trkpt>
      <trkpt lat="50.03195" lon="2.31831">
        <ele>131.3</ele>
        <time>2023-10-25T12:12:19Z</time>
      </trkpt>
      <trkpt lat="50.03195" lon="2.3183">
        <ele>131.3</ele>
        <time>2023-10-25T12:12:20Z</time>
      </trkpt>
      <trkpt lat="50.03194" lon="2.31826">
        <ele>131.4</ele>
        <time>2023-10-25T12:12:21Z</time>
      </trkpt>
      <trkpt lat="50.03194" lon="2.31825">
        <ele>131.4</ele>
        <time>2023-10-25T12:12:22Z</time>
      </trkpt>
      <trkpt lat="50.03193" lon="2.31824">
        <ele>131.4</ele>
        <time>2023-10-25T12:12:23Z</time>
      </trkpt>
      <trkpt lat="50.03193" lon="2.31822">
        <ele>131.4</ele>
        <time>2023-10-25T12:12:24Z</time>
      </trkpt>
      <trkpt lat="50.03192" lon="2.31819">
        <ele>131.4</ele>
        <time>2023-10-25T12:12:26Z</time>
      </trkpt>
      <trkpt lat="50.03192" lon="2.31818">
        <ele>131.5</ele>
        <time>2023-10-25T12:12:27Z</time>
      </trkpt>
      <trkpt lat="50.03192" lon="2.31817">
        <ele>131.5</ele>
        <time>2023-10-25T12:12:28Z</time>
      </trkpt>
      <trkpt lat="50.03192" lon="2.31816">
        <ele>131.5</ele>
        <time>2023-10-25T12:12:29Z</time>
      </trkpt>
      <trkpt lat="50.03192" lon="2.31814">
        <ele>131.5</ele>
        <time>2023-10-25T12:12:30Z</time>
      </trkpt>
      <trkpt lat="50.03191" lon="2.31813">
        <ele>131.5</ele>
        <time>2023-10-25T12:12:31Z</time>
      </trkpt>
      <trkpt lat="50.03191" lon="2.31811">
        <ele>131.5</ele>
        <time>2023-10-25T12:12:32Z</time>
      </trkpt>
      <trkpt lat="50.03191" lon="2.3181">
        <ele>131.5</ele>
        <time>2023-10-25T12:12:33Z</time>
      </trkpt>
      <trkpt lat="50.0319" lon="2.31808">
        <ele>131.6</ele>
        <time>2023-10-25T12:12:35Z</time>
      </trkpt>
      <trkpt lat="50.0319" lon="2.31806">
        <ele>131.6</ele>
        <time>2023-10-25T12:12:36Z</time>
      </trkpt>
      <trkpt lat="50.03189" lon="2.31805">
        <ele>131.6</ele>
        <time>2023-10-25T12:12:37Z</time>
      </trkpt>
      <trkpt lat="50.03189" lon="2.31803">
        <ele>131.6</ele>
        <time>2023-10-25T12:12:38Z</time>
      </trkpt>
      <trkpt lat="50.03189" lon="2.31802">
        <ele>131.6</ele>
        <time>2023-10-25T12:12:39Z</time>
      </trkpt>
      <trkpt lat="50.03188" lon="2.318">
        <ele>131.6</ele>
        <time>2023-10-25T12:12:40Z</time>
      </trkpt>
      <trkpt lat="50.03188" lon="2.31798">
        <ele>131.7</ele>
        <time>2023-10-25T12:12:41Z</time>
      </trkpt>
      <trkpt lat="50.03187" lon="2.31797">
        <ele>131.7</ele>
        <time>2023-10-25T12:12:42Z</time>
      </trkpt>
      <trkpt lat="50.03187" lon="2.31795">
        <ele>131.7</ele>
        <time>2023-10-25T12:12:44Z</time>
      </trkpt>
      <trkpt lat="50.03186" lon="2.31793">
        <ele>131.7</ele>
        <time>2023-10-25T12:12:45Z</time>
      </trkpt>
      <trkpt lat="50.03186" lon="2.31791">
        <ele>131.7</ele>
        <time>2023-10-25T12:12:46Z</time>
      </trkpt>
      <trkpt lat="50.03186" lon="2.31789">
        <ele>131.8</ele>
        <time>2023-10-25T12:12:48Z</time>
      </trkpt>
      <trkpt lat="50.03185" lon="2.31787">
        <ele>131.8</ele>
        <time>2023-10-25T12:12:49Z</time>
      </trkpt>
      <trkpt lat="50.03185" lon="2.31785">
        <ele>131.8</ele>
        <time>2023-10-25T12:12:50Z</time>
      </trkpt>
      <trkpt lat="50.03185" lon="2.31781">
        <ele>131.8</ele>
        <time>2023-10-25T12:12:51Z</time>
      </trkpt>
      <trkpt lat="50.03184" lon="2.3178">
        <ele>131.9</ele>
        <time>2023-10-25T12:12:52Z</time>
      </trkpt>
      <trkpt lat="50.03184" lon="2.31779">
        <ele>131.9</ele>
        <time>2023-10-25T12:12:53Z</time>
      </trkpt>
      <trkpt lat="50.03184" lon="2.31777">
        <ele>131.9</ele>
        <time>2023-10-25T12:12:54Z</time>
      </trkpt>
      <trkpt lat="50.03184" lon="2.31775">
        <ele>131.9</ele>
        <time>2023-10-25T12:12:55Z</time>
      </trkpt>
      <trkpt lat="50.03183" lon="2.31773">
        <ele>131.9</ele>
        <time>2023-10-25T12:12:57Z</time>
      </trkpt>
      <trkpt lat="50.03183" lon="2.31771">
        <ele>132</ele>
        <time>2023-10-25T12:12:58Z</time>
      </trkpt>
      <trkpt lat="50.03183" lon="2.31769">
        <ele>132</ele>
        <time>2023-10-25T12:12:59Z</time>
      </trkpt>
      <trkpt lat="50.03183" lon="2.31768">
        <ele>132</ele>
        <time>2023-10-25T12:13:00Z</time>
      </trkpt>
      <trkpt lat="50.03183" lon="2.31766">
        <ele>132</ele>
        <time>2023-10-25T12:13:01Z</time>
      </trkpt>
      <trkpt lat="50.03183" lon="2.31765">
        <ele>132</ele>
        <time>2023-10-25T12:13:02Z</time>
      </trkpt>
      <trkpt lat="50.03183" lon="2.31763">
        <ele>132</ele>
        <time>2023-10-25T12:13:03Z</time>
      </trkpt>
      <trkpt lat="50.03183" lon="2.31761">
        <ele>132.1</ele>
        <time>2023-10-25T12:13:04Z</time>
      </trkpt>
      <trkpt lat="50.03183" lon="2.31759">
        <ele>132.1</ele>
        <time>2023-10-25T12:13:05Z</time>
      </trkpt>
      <trkpt lat="50.03183" lon="2.31757">
        <ele>132.1</ele>
        <time>2023-10-25T12:13:07Z</time>
      </trkpt>
      <trkpt lat="50.03183" lon="2.31754">
        <ele>132.1</ele>
        <time>2023-10-25T12:13:08Z</time>
      </trkpt>
      <trkpt lat="50.03183" lon="2.31753">
        <ele>132.1</ele>
        <time>2023-10-25T12:13:09Z</time>
      </trkpt>
      <trkpt lat="50.03183" lon="2.31752">
        <ele>132.2</ele>
        <time>2023-10-25T12:13:10Z</time>
      </trkpt>
      <trkpt lat="50.03182" lon="2.31748">
        <ele>132.2</ele>
        <time>2023-10-25T12:13:11Z</time>
      </trkpt>
      <trkpt lat="50.03182" lon="2.31746">
        <ele>132.2</ele>
        <time>2023-10-25T12:13:13Z</time>
      </trkpt>
      <trkpt lat="50.03182" lon="2.31745">
        <ele>132.2</ele>
        <time>2023-10-25T12:13:14Z</time>
      </trkpt>
      <trkpt lat="50.03182" lon="2.31743">
        <ele>132.2</ele>
        <time>2023-10-25T12:13:15Z</time>
      </trkpt>
      <trkpt lat="50.03182" lon="2.31741">
        <ele>132.3</ele>
        <time>2023-10-25T12:13:16Z</time>
      </trkpt>
      <trkpt lat="50.03181" lon="2.31738">
        <ele>132.3</ele>
        <time>2023-10-25T12:13:17Z</time>
      </trkpt>
      <trkpt lat="50.03181" lon="2.31736">
        <ele>132.3</ele>
        <time>2023-10-25T12:13:18Z</time>
      </trkpt>
      <trkpt lat="50.03181" lon="2.31735">
        <ele>132.3</ele>
        <time>2023-10-25T12:13:20Z</time>
      </trkpt>
      <trkpt lat="50.0318" lon="2.31733">
        <ele>132.3</ele>
        <time>2023-10-25T12:13:21Z</time>
      </trkpt>
      <trkpt lat="50.0318" lon="2.31732">
        <ele>132.4</ele>
        <time>2023-10-25T12:13:22Z</time>
      </trkpt>
      <trkpt lat="50.0318" lon="2.3173">
        <ele>132.4</ele>
        <time>2023-10-25T12:13:23Z</time>
      </trkpt>
      <trkpt lat="50.03179" lon="2.31728">
        <ele>132.4</ele>
        <time>2023-10-25T12:13:24Z</time>
      </trkpt>
      <trkpt lat="50.03179" lon="2.31726">
        <ele>132.4</ele>
        <time>2023-10-25T12:13:25Z</time>
      </trkpt>
      <trkpt lat="50.03179" lon="2.31723">
        <ele>132.5</ele>
        <time>2023-10-25T12:13:27Z</time>
      </trkpt>
      <trkpt lat="50.03179" lon="2.31721">
        <ele>132.5</ele>
        <time>2023-10-25T12:13:28Z</time>
      </trkpt>
      <trkpt lat="50.03178" lon="2.31718">
        <ele>132.5</ele>
        <time>2023-10-25T12:13:29Z</time>
      </trkpt>
      <trkpt lat="50.03178" lon="2.31717">
        <ele>132.5</ele>
        <time>2023-10-25T12:13:30Z</time>
      </trkpt>
      <trkpt lat="50.03178" lon="2.31716">
        <ele>132.5</ele>
        <time>2023-10-25T12:13:31Z</time>
      </trkpt>
      <trkpt lat="50.03177" lon="2.31714">
        <ele>132.5</ele>
        <time>2023-10-25T12:13:32Z</time>
      </trkpt>
      <trkpt lat="50.03177" lon="2.31712">
        <ele>132.6</ele>
        <time>2023-10-25T12:13:34Z</time>
      </trkpt>
      <trkpt lat="50.03177" lon="2.31709">
        <ele>132.6</ele>
        <time>2023-10-25T12:13:35Z</time>
      </trkpt>
      <trkpt lat="50.03176" lon="2.31707">
        <ele>132.6</ele>
        <time>2023-10-25T12:13:36Z</time>
      </trkpt>
      <trkpt lat="50.03176" lon="2.31706">
        <ele>132.6</ele>
        <time>2023-10-25T12:13:37Z</time>
      </trkpt>
      <trkpt lat="50.03175" lon="2.31704">
        <ele>132.7</ele>
        <time>2023-10-25T12:13:38Z</time>
      </trkpt>
      <trkpt lat="50.03175" lon="2.31702">
        <ele>132.7</ele>
        <time>2023-10-25T12:13:39Z</time>
      </trkpt>
      <trkpt lat="50.03174" lon="2.317">
        <ele>132.7</ele>
        <time>2023-10-25T12:13:40Z</time>
      </trkpt>
      <trkpt lat="50.03174" lon="2.31698">
        <ele>132.7</ele>
        <time>2023-10-25T12:13:41Z</time>
      </trkpt>
      <trkpt lat="50.03174" lon="2.31696">
        <ele>132.7</ele>
        <time>2023-10-25T12:13:43Z</time>
      </trkpt>
      <trkpt lat="50.03174" lon="2.31693">
        <ele>132.8</ele>
        <time>2023-10-25T12:13:44Z</time>
      </trkpt>
      <trkpt lat="50.03173" lon="2.31692">
        <ele>132.8</ele>
        <time>2023-10-25T12:13:45Z</time>
      </trkpt>
      <trkpt lat="50.03173" lon="2.3169">
        <ele>132.8</ele>
        <time>2023-10-25T12:13:46Z</time>
      </trkpt>
      <trkpt lat="50.03173" lon="2.31689">
        <ele>132.8</ele>
        <time>2023-10-25T12:13:47Z</time>
      </trkpt>
      <trkpt lat="50.03174" lon="2.31687">
        <ele>132.8</ele>
        <time>2023-10-25T12:13:48Z</time>
      </trkpt>
      <trkpt lat="50.03174" lon="2.31685">
        <ele>132.8</ele>
        <time>2023-10-25T12:13:49Z</time>
      </trkpt>
      <trkpt lat="50.03173" lon="2.31683">
        <ele>132.8</ele>
        <time>2023-10-25T12:13:50Z</time>
      </trkpt>
      <trkpt lat="50.03173" lon="2.31681">
        <ele>132.8</ele>
        <time>2023-10-25T12:13:51Z</time>
      </trkpt>
      <trkpt lat="50.03173" lon="2.31679">
        <ele>132.9</ele>
        <time>2023-10-25T12:13:53Z</time>
      </trkpt>
      <trkpt lat="50.03172" lon="2.31676">
        <ele>132.9</ele>
        <time>2023-10-25T12:13:54Z</time>
      </trkpt>
      <trkpt lat="50.03172" lon="2.31675">
        <ele>132.9</ele>
        <time>2023-10-25T12:13:55Z</time>
      </trkpt>
      <trkpt lat="50.03172" lon="2.31674">
        <ele>132.9</ele>
        <time>2023-10-25T12:13:56Z</time>
      </trkpt>
      <trkpt lat="50.03171" lon="2.31671">
        <ele>132.9</ele>
        <time>2023-10-25T12:13:57Z</time>
      </trkpt>
      <trkpt lat="50.0317" lon="2.3167">
        <ele>132.9</ele>
        <time>2023-10-25T12:13:58Z</time>
      </trkpt>
      <trkpt lat="50.0317" lon="2.31669">
        <ele>133</ele>
        <time>2023-10-25T12:13:59Z</time>
      </trkpt>
      <trkpt lat="50.03169" lon="2.31666">
        <ele>133</ele>
        <time>2023-10-25T12:14:01Z</time>
      </trkpt>
      <trkpt lat="50.03168" lon="2.31664">
        <ele>133</ele>
        <time>2023-10-25T12:14:02Z</time>
      </trkpt>
      <trkpt lat="50.03168" lon="2.31663">
        <ele>133</ele>
        <time>2023-10-25T12:14:03Z</time>
      </trkpt>
      <trkpt lat="50.03168" lon="2.31661">
        <ele>133</ele>
        <time>2023-10-25T12:14:04Z</time>
      </trkpt>
      <trkpt lat="50.03167" lon="2.3166">
        <ele>133</ele>
        <time>2023-10-25T12:14:05Z</time>
      </trkpt>
      <trkpt lat="50.03167" lon="2.31658">
        <ele>133.1</ele>
        <time>2023-10-25T12:14:06Z</time>
      </trkpt>
      <trkpt lat="50.03166" lon="2.31657">
        <ele>133.1</ele>
        <time>2023-10-25T12:14:07Z</time>
      </trkpt>
      <trkpt lat="50.03166" lon="2.31655">
        <ele>133.1</ele>
        <time>2023-10-25T12:14:08Z</time>
      </trkpt>
      <trkpt lat="50.03165" lon="2.31653">
        <ele>133.1</ele>
        <time>2023-10-25T12:14:10Z</time>
      </trkpt>
      <trkpt lat="50.03165" lon="2.31651">
        <ele>133.1</ele>
        <time>2023-10-25T12:14:11Z</time>
      </trkpt>
      <trkpt lat="50.03165" lon="2.31649">
        <ele>133.1</ele>
        <time>2023-10-25T12:14:12Z</time>
      </trkpt>
      <trkpt lat="50.03165" lon="2.31648">
        <ele>133.2</ele>
        <time>2023-10-25T12:14:13Z</time>
      </trkpt>
      <trkpt lat="50.03165" lon="2.31646">
        <ele>133.2</ele>
        <time>2023-10-25T12:14:14Z</time>
      </trkpt>
      <trkpt lat="50.03164" lon="2.31644">
        <ele>133.2</ele>
        <time>2023-10-25T12:14:15Z</time>
      </trkpt>
      <trkpt lat="50.03164" lon="2.31642">
        <ele>133.2</ele>
        <time>2023-10-25T12:14:16Z</time>
      </trkpt>
      <trkpt lat="50.03164" lon="2.31639">
        <ele>133.2</ele>
        <time>2023-10-25T12:14:18Z</time>
      </trkpt>
      <trkpt lat="50.03163" lon="2.31638">
        <ele>133.2</ele>
        <time>2023-10-25T12:14:19Z</time>
      </trkpt>
      <trkpt lat="50.03163" lon="2.31637">
        <ele>133.3</ele>
        <time>2023-10-25T12:14:20Z</time>
      </trkpt>
      <trkpt lat="50.03163" lon="2.31635">
        <ele>133.3</ele>
        <time>2023-10-25T12:14:21Z</time>
      </trkpt>
      <trkpt lat="50.03163" lon="2.31633">
        <ele>133.3</ele>
        <time>2023-10-25T12:14:22Z</time>
      </trkpt>
      <trkpt lat="50.03163" lon="2.31632">
        <ele>133.3</ele>
        <time>2023-10-25T12:14:23Z</time>
      </trkpt>
      <trkpt lat="50.03162" lon="2.3163">
        <ele>133.3</ele>
        <time>2023-10-25T12:14:24Z</time>
      </trkpt>
      <trkpt lat="50.03162" lon="2.31628">
        <ele>133.3</ele>
        <time>2023-10-25T12:14:26Z</time>
      </trkpt>
      <trkpt lat="50.03162" lon="2.31626">
        <ele>133.3</ele>
        <time>2023-10-25T12:14:27Z</time>
      </trkpt>
      <trkpt lat="50.03162" lon="2.31625">
        <ele>133.3</ele>
        <time>2023-10-25T12:14:28Z</time>
      </trkpt>
      <trkpt lat="50.03162" lon="2.31623">
        <ele>133.3</ele>
        <time>2023-10-25T12:14:29Z</time>
      </trkpt>
      <trkpt lat="50.03162" lon="2.31621">
        <ele>133.4</ele>
        <time>2023-10-25T12:14:30Z</time>
      </trkpt>
      <trkpt lat="50.03162" lon="2.31618">
        <ele>133.4</ele>
        <time>2023-10-25T12:14:32Z</time>
      </trkpt>
      <trkpt lat="50.03161" lon="2.31616">
        <ele>133.4</ele>
        <time>2023-10-25T12:14:33Z</time>
      </trkpt>
      <trkpt lat="50.03161" lon="2.31614">
        <ele>133.4</ele>
        <time>2023-10-25T12:14:34Z</time>
      </trkpt>
      <trkpt lat="50.03161" lon="2.31611">
        <ele>133.4</ele>
        <time>2023-10-25T12:14:35Z</time>
      </trkpt>
      <trkpt lat="50.03161" lon="2.31609">
        <ele>133.4</ele>
        <time>2023-10-25T12:14:36Z</time>
      </trkpt>
      <trkpt lat="50.03161" lon="2.31606">
        <ele>133.5</ele>
        <time>2023-10-25T12:14:38Z</time>
      </trkpt>
      <trkpt lat="50.03161" lon="2.31604">
        <ele>133.5</ele>
        <time>2023-10-25T12:14:39Z</time>
      </trkpt>
      <trkpt lat="50.03161" lon="2.31602">
        <ele>133.5</ele>
        <time>2023-10-25T12:14:40Z</time>
      </trkpt>
      <trkpt lat="50.03161" lon="2.31599">
        <ele>133.5</ele>
        <time>2023-10-25T12:14:41Z</time>
      </trkpt>
      <trkpt lat="50.03161" lon="2.31597">
        <ele>133.5</ele>
        <time>2023-10-25T12:14:42Z</time>
      </trkpt>
      <trkpt lat="50.03161" lon="2.31594">
        <ele>133.5</ele>
        <time>2023-10-25T12:14:44Z</time>
      </trkpt>
      <trkpt lat="50.03161" lon="2.31592">
        <ele>133.6</ele>
        <time>2023-10-25T12:14:45Z</time>
      </trkpt>
      <trkpt lat="50.03161" lon="2.31589">
        <ele>133.6</ele>
        <time>2023-10-25T12:14:46Z</time>
      </trkpt>
      <trkpt lat="50.03162" lon="2.31587">
        <ele>133.6</ele>
        <time>2023-10-25T12:14:47Z</time>
      </trkpt>
      <trkpt lat="50.03162" lon="2.31585">
        <ele>133.6</ele>
        <time>2023-10-25T12:14:48Z</time>
      </trkpt>
      <trkpt lat="50.03162" lon="2.31583">
        <ele>133.6</ele>
        <time>2023-10-25T12:14:49Z</time>
      </trkpt>
      <trkpt lat="50.03162" lon="2.31581">
        <ele>133.6</ele>
        <time>2023-10-25T12:14:50Z</time>
      </trkpt>
      <trkpt lat="50.03161" lon="2.31579">
        <ele>133.7</ele>
        <time>2023-10-25T12:14:52Z</time>
      </trkpt>
      <trkpt lat="50.03161" lon="2.31576">
        <ele>133.7</ele>
        <time>2023-10-25T12:14:53Z</time>
      </trkpt>
      <trkpt lat="50.03161" lon="2.31574">
        <ele>133.7</ele>
        <time>2023-10-25T12:14:54Z</time>
      </trkpt>
      <trkpt lat="50.0316" lon="2.31572">
        <ele>133.7</ele>
        <time>2023-10-25T12:14:55Z</time>
      </trkpt>
      <trkpt lat="50.03159" lon="2.3157">
        <ele>133.7</ele>
        <time>2023-10-25T12:14:56Z</time>
      </trkpt>
      <trkpt lat="50.03159" lon="2.31569">
        <ele>133.7</ele>
        <time>2023-10-25T12:14:57Z</time>
      </trkpt>
      <trkpt lat="50.03158" lon="2.31566">
        <ele>133.7</ele>
        <time>2023-10-25T12:14:58Z</time>
      </trkpt>
      <trkpt lat="50.03158" lon="2.31565">
        <ele>133.8</ele>
        <time>2023-10-25T12:15:00Z</time>
      </trkpt>
      <trkpt lat="50.03157" lon="2.31563">
        <ele>133.8</ele>
        <time>2023-10-25T12:15:01Z</time>
      </trkpt>
      <trkpt lat="50.03157" lon="2.31562">
        <ele>133.8</ele>
        <time>2023-10-25T12:15:02Z</time>
      </trkpt>
      <trkpt lat="50.03156" lon="2.3156">
        <ele>133.8</ele>
        <time>2023-10-25T12:15:03Z</time>
      </trkpt>
      <trkpt lat="50.03156" lon="2.31559">
        <ele>133.8</ele>
        <time>2023-10-25T12:15:04Z</time>
      </trkpt>
      <trkpt lat="50.03155" lon="2.31557">
        <ele>133.8</ele>
        <time>2023-10-25T12:15:05Z</time>
      </trkpt>
      <trkpt lat="50.03155" lon="2.31554">
        <ele>133.8</ele>
        <time>2023-10-25T12:15:07Z</time>
      </trkpt>
      <trkpt lat="50.03154" lon="2.31553">
        <ele>133.8</ele>
        <time>2023-10-25T12:15:08Z</time>
      </trkpt>
      <trkpt lat="50.03154" lon="2.31551">
        <ele>133.8</ele>
        <time>2023-10-25T12:15:09Z</time>
      </trkpt>
      <trkpt lat="50.03153" lon="2.31549">
        <ele>133.8</ele>
        <time>2023-10-25T12:15:10Z</time>
      </trkpt>
      <trkpt lat="50.03153" lon="2.31548">
        <ele>133.8</ele>
        <time>2023-10-25T12:15:11Z</time>
      </trkpt>
      <trkpt lat="50.03152" lon="2.31546">
        <ele>133.8</ele>
        <time>2023-10-25T12:15:13Z</time>
      </trkpt>
      <trkpt lat="50.03152" lon="2.31545">
        <ele>133.8</ele>
        <time>2023-10-25T12:15:14Z</time>
      </trkpt>
      <trkpt lat="50.03152" lon="2.31543">
        <ele>133.8</ele>
        <time>2023-10-25T12:15:15Z</time>
      </trkpt>
      <trkpt lat="50.03151" lon="2.31541">
        <ele>133.8</ele>
        <time>2023-10-25T12:15:16Z</time>
      </trkpt>
      <trkpt lat="50.03151" lon="2.3154">
        <ele>133.8</ele>
        <time>2023-10-25T12:15:17Z</time>
      </trkpt>
      <trkpt lat="50.0315" lon="2.31538">
        <ele>133.8</ele>
        <time>2023-10-25T12:15:18Z</time>
      </trkpt>
      <trkpt lat="50.03149" lon="2.31535">
        <ele>133.8</ele>
        <time>2023-10-25T12:15:20Z</time>
      </trkpt>
      <trkpt lat="50.03149" lon="2.31534">
        <ele>133.9</ele>
        <time>2023-10-25T12:15:21Z</time>
      </trkpt>
      <trkpt lat="50.03148" lon="2.31533">
        <ele>133.9</ele>
        <time>2023-10-25T12:15:22Z</time>
      </trkpt>
      <trkpt lat="50.03148" lon="2.31531">
        <ele>133.9</ele>
        <time>2023-10-25T12:15:23Z</time>
      </trkpt>
      <trkpt lat="50.03147" lon="2.31529">
        <ele>133.9</ele>
        <time>2023-10-25T12:15:24Z</time>
      </trkpt>
      <trkpt lat="50.03147" lon="2.31527">
        <ele>133.9</ele>
        <time>2023-10-25T12:15:26Z</time>
      </trkpt>
      <trkpt lat="50.03146" lon="2.31526">
        <ele>133.9</ele>
        <time>2023-10-25T12:15:27Z</time>
      </trkpt>
      <trkpt lat="50.03146" lon="2.31525">
        <ele>133.9</ele>
        <time>2023-10-25T12:15:28Z</time>
      </trkpt>
      <trkpt lat="50.03145" lon="2.31523">
        <ele>133.9</ele>
        <time>2023-10-25T12:15:29Z</time>
      </trkpt>
      <trkpt lat="50.03144" lon="2.31522">
        <ele>133.9</ele>
        <time>2023-10-25T12:15:30Z</time>
      </trkpt>
      <trkpt lat="50.03143" lon="2.31519">
        <ele>133.9</ele>
        <time>2023-10-25T12:15:31Z</time>
      </trkpt>
      <trkpt lat="50.03143" lon="2.31518">
        <ele>133.9</ele>
        <time>2023-10-25T12:15:33Z</time>
      </trkpt>
      <trkpt lat="50.03142" lon="2.31517">
        <ele>133.9</ele>
        <time>2023-10-25T12:15:34Z</time>
      </trkpt>
      <trkpt lat="50.03141" lon="2.31516">
        <ele>134</ele>
        <time>2023-10-25T12:15:35Z</time>
      </trkpt>
      <trkpt lat="50.03141" lon="2.31515">
        <ele>134</ele>
        <time>2023-10-25T12:15:36Z</time>
      </trkpt>
      <trkpt lat="50.0314" lon="2.31513">
        <ele>134</ele>
        <time>2023-10-25T12:15:37Z</time>
      </trkpt>
      <trkpt lat="50.03139" lon="2.31512">
        <ele>134</ele>
        <time>2023-10-25T12:15:38Z</time>
      </trkpt>
      <trkpt lat="50.03139" lon="2.3151">
        <ele>134</ele>
        <time>2023-10-25T12:15:39Z</time>
      </trkpt>
      <trkpt lat="50.03138" lon="2.31508">
        <ele>134</ele>
        <time>2023-10-25T12:15:41Z</time>
      </trkpt>
      <trkpt lat="50.03138" lon="2.31506">
        <ele>134</ele>
        <time>2023-10-25T12:15:42Z</time>
      </trkpt>
      <trkpt lat="50.03137" lon="2.31504">
        <ele>134.1</ele>
        <time>2023-10-25T12:15:43Z</time>
      </trkpt>
      <trkpt lat="50.03136" lon="2.31503">
        <ele>134.1</ele>
        <time>2023-10-25T12:15:44Z</time>
      </trkpt>
      <trkpt lat="50.03136" lon="2.31501">
        <ele>134.1</ele>
        <time>2023-10-25T12:15:45Z</time>
      </trkpt>
      <trkpt lat="50.03135" lon="2.31499">
        <ele>134.1</ele>
        <time>2023-10-25T12:15:47Z</time>
      </trkpt>
      <trkpt lat="50.03134" lon="2.31496">
        <ele>134.1</ele>
        <time>2023-10-25T12:15:48Z</time>
      </trkpt>
      <trkpt lat="50.03134" lon="2.31495">
        <ele>134.1</ele>
        <time>2023-10-25T12:15:49Z</time>
      </trkpt>
      <trkpt lat="50.03134" lon="2.31494">
        <ele>134.2</ele>
        <time>2023-10-25T12:15:50Z</time>
      </trkpt>
      <trkpt lat="50.03133" lon="2.31491">
        <ele>134.2</ele>
        <time>2023-10-25T12:15:51Z</time>
      </trkpt>
      <trkpt lat="50.03132" lon="2.31489">
        <ele>134.2</ele>
        <time>2023-10-25T12:15:52Z</time>
      </trkpt>
      <trkpt lat="50.03132" lon="2.31488">
        <ele>134.2</ele>
        <time>2023-10-25T12:15:54Z</time>
      </trkpt>
      <trkpt lat="50.03131" lon="2.31487">
        <ele>134.2</ele>
        <time>2023-10-25T12:15:55Z</time>
      </trkpt>
      <trkpt lat="50.03131" lon="2.31485">
        <ele>134.2</ele>
        <time>2023-10-25T12:15:56Z</time>
      </trkpt>
      <trkpt lat="50.0313" lon="2.31484">
        <ele>134.2</ele>
        <time>2023-10-25T12:15:57Z</time>
      </trkpt>
      <trkpt lat="50.0313" lon="2.31482">
        <ele>134.3</ele>
        <time>2023-10-25T12:15:58Z</time>
      </trkpt>
      <trkpt lat="50.03129" lon="2.3148">
        <ele>134.3</ele>
        <time>2023-10-25T12:15:59Z</time>
      </trkpt>
      <trkpt lat="50.03128" lon="2.31478">
        <ele>134.3</ele>
        <time>2023-10-25T12:16:00Z</time>
      </trkpt>
      <trkpt lat="50.03128" lon="2.31477">
        <ele>134.3</ele>
        <time>2023-10-25T12:16:01Z</time>
      </trkpt>
      <trkpt lat="50.03127" lon="2.31475">
        <ele>134.3</ele>
        <time>2023-10-25T12:16:03Z</time>
      </trkpt>
      <trkpt lat="50.03127" lon="2.31472">
        <ele>134.3</ele>
        <time>2023-10-25T12:16:04Z</time>
      </trkpt>
      <trkpt lat="50.03126" lon="2.3147">
        <ele>134.3</ele>
        <time>2023-10-25T12:16:05Z</time>
      </trkpt>
      <trkpt lat="50.03126" lon="2.31469">
        <ele>134.4</ele>
        <time>2023-10-25T12:16:06Z</time>
      </trkpt>
      <trkpt lat="50.03125" lon="2.31467">
        <ele>134.4</ele>
        <time>2023-10-25T12:16:07Z</time>
      </trkpt>
      <trkpt lat="50.03125" lon="2.31465">
        <ele>134.4</ele>
        <time>2023-10-25T12:16:08Z</time>
      </trkpt>
      <trkpt lat="50.03124" lon="2.31464">
        <ele>134.4</ele>
        <time>2023-10-25T12:16:09Z</time>
      </trkpt>
      <trkpt lat="50.03124" lon="2.31462">
        <ele>134.4</ele>
        <time>2023-10-25T12:16:11Z</time>
      </trkpt>
      <trkpt lat="50.03123" lon="2.3146">
        <ele>134.4</ele>
        <time>2023-10-25T12:16:12Z</time>
      </trkpt>
      <trkpt lat="50.03122" lon="2.31457">
        <ele>134.4</ele>
        <time>2023-10-25T12:16:13Z</time>
      </trkpt>
      <trkpt lat="50.03122" lon="2.31456">
        <ele>134.4</ele>
        <time>2023-10-25T12:16:14Z</time>
      </trkpt>
      <trkpt lat="50.03121" lon="2.31455">
        <ele>134.4</ele>
        <time>2023-10-25T12:16:15Z</time>
      </trkpt>
      <trkpt lat="50.0312" lon="2.31452">
        <ele>134.4</ele>
        <time>2023-10-25T12:16:16Z</time>
      </trkpt>
      <trkpt lat="50.0312" lon="2.3145">
        <ele>134.5</ele>
        <time>2023-10-25T12:16:18Z</time>
      </trkpt>
      <trkpt lat="50.0312" lon="2.31449">
        <ele>134.5</ele>
        <time>2023-10-25T12:16:19Z</time>
      </trkpt>
      <trkpt lat="50.03119" lon="2.31447">
        <ele>134.5</ele>
        <time>2023-10-25T12:16:20Z</time>
      </trkpt>
      <trkpt lat="50.03119" lon="2.31445">
        <ele>134.5</ele>
        <time>2023-10-25T12:16:21Z</time>
      </trkpt>
      <trkpt lat="50.03118" lon="2.31442">
        <ele>134.5</ele>
        <time>2023-10-25T12:16:22Z</time>
      </trkpt>
      <trkpt lat="50.03118" lon="2.31441">
        <ele>134.5</ele>
        <time>2023-10-25T12:16:24Z</time>
      </trkpt>
      <trkpt lat="50.03117" lon="2.31439">
        <ele>134.5</ele>
        <time>2023-10-25T12:16:25Z</time>
      </trkpt>
      <trkpt lat="50.03117" lon="2.31438">
        <ele>134.5</ele>
        <time>2023-10-25T12:16:26Z</time>
      </trkpt>
      <trkpt lat="50.03117" lon="2.31436">
        <ele>134.5</ele>
        <time>2023-10-25T12:16:27Z</time>
      </trkpt>
      <trkpt lat="50.03116" lon="2.31435">
        <ele>134.5</ele>
        <time>2023-10-25T12:16:28Z</time>
      </trkpt>
      <trkpt lat="50.03116" lon="2.31433">
        <ele>134.5</ele>
        <time>2023-10-25T12:16:29Z</time>
      </trkpt>
      <trkpt lat="50.03115" lon="2.31431">
        <ele>134.5</ele>
        <time>2023-10-25T12:16:30Z</time>
      </trkpt>
      <trkpt lat="50.03115" lon="2.31429">
        <ele>134.5</ele>
        <time>2023-10-25T12:16:32Z</time>
      </trkpt>
      <trkpt lat="50.03115" lon="2.31427">
        <ele>134.5</ele>
        <time>2023-10-25T12:16:33Z</time>
      </trkpt>
      <trkpt lat="50.03114" lon="2.31424">
        <ele>134.5</ele>
        <time>2023-10-25T12:16:34Z</time>
      </trkpt>
      <trkpt lat="50.03114" lon="2.31422">
        <ele>134.5</ele>
        <time>2023-10-25T12:16:35Z</time>
      </trkpt>
      <trkpt lat="50.03114" lon="2.31421">
        <ele>134.5</ele>
        <time>2023-10-25T12:16:36Z</time>
      </trkpt>
      <trkpt lat="50.03114" lon="2.3142">
        <ele>134.5</ele>
        <time>2023-10-25T12:16:37Z</time>
      </trkpt>
      <trkpt lat="50.03114" lon="2.31418">
        <ele>134.5</ele>
        <time>2023-10-25T12:16:38Z</time>
      </trkpt>
      <trkpt lat="50.03114" lon="2.31416">
        <ele>134.5</ele>
        <time>2023-10-25T12:16:39Z</time>
      </trkpt>
      <trkpt lat="50.03113" lon="2.31414">
        <ele>134.5</ele>
        <time>2023-10-25T12:16:40Z</time>
      </trkpt>
      <trkpt lat="50.03113" lon="2.31413">
        <ele>134.5</ele>
        <time>2023-10-25T12:16:41Z</time>
      </trkpt>
      <trkpt lat="50.03113" lon="2.31411">
        <ele>134.5</ele>
        <time>2023-10-25T12:16:43Z</time>
      </trkpt>
      <trkpt lat="50.03113" lon="2.31409">
        <ele>134.5</ele>
        <time>2023-10-25T12:16:44Z</time>
      </trkpt>
      <trkpt lat="50.03113" lon="2.31407">
        <ele>134.5</ele>
        <time>2023-10-25T12:16:45Z</time>
      </trkpt>
      <trkpt lat="50.03113" lon="2.31405">
        <ele>134.5</ele>
        <time>2023-10-25T12:16:46Z</time>
      </trkpt>
      <trkpt lat="50.03113" lon="2.31404">
        <ele>134.5</ele>
        <time>2023-10-25T12:16:47Z</time>
      </trkpt>
      <trkpt lat="50.03113" lon="2.31403">
        <ele>134.5</ele>
        <time>2023-10-25T12:16:48Z</time>
      </trkpt>
      <trkpt lat="50.03113" lon="2.31401">
        <ele>134.5</ele>
        <time>2023-10-25T12:16:49Z</time>
      </trkpt>
      <trkpt lat="50.03112" lon="2.31399">
        <ele>134.4</ele>
        <time>2023-10-25T12:16:51Z</time>
      </trkpt>
      <trkpt lat="50.03112" lon="2.31397">
        <ele>134.4</ele>
        <time>2023-10-25T12:16:52Z</time>
      </trkpt>
      <trkpt lat="50.03111" lon="2.31393">
        <ele>134.4</ele>
        <time>2023-10-25T12:16:53Z</time>
      </trkpt>
      <trkpt lat="50.03111" lon="2.31392">
        <ele>134.4</ele>
        <time>2023-10-25T12:16:54Z</time>
      </trkpt>
      <trkpt lat="50.03111" lon="2.31391">
        <ele>134.4</ele>
        <time>2023-10-25T12:16:55Z</time>
      </trkpt>
      <trkpt lat="50.03111" lon="2.31389">
        <ele>134.4</ele>
        <time>2023-10-25T12:16:56Z</time>
      </trkpt>
      <trkpt lat="50.0311" lon="2.31386">
        <ele>134.4</ele>
        <time>2023-10-25T12:16:58Z</time>
      </trkpt>
      <trkpt lat="50.0311" lon="2.31385">
        <ele>134.4</ele>
        <time>2023-10-25T12:16:59Z</time>
      </trkpt>
      <trkpt lat="50.03109" lon="2.31383">
        <ele>134.3</ele>
        <time>2023-10-25T12:17:00Z</time>
      </trkpt>
      <trkpt lat="50.03109" lon="2.31382">
        <ele>134.3</ele>
        <time>2023-10-25T12:17:01Z</time>
      </trkpt>
      <trkpt lat="50.03108" lon="2.3138">
        <ele>134.3</ele>
        <time>2023-10-25T12:17:02Z</time>
      </trkpt>
      <trkpt lat="50.03107" lon="2.31377">
        <ele>134.3</ele>
        <time>2023-10-25T12:17:04Z</time>
      </trkpt>
      <trkpt lat="50.03107" lon="2.31375">
        <ele>134.3</ele>
        <time>2023-10-25T12:17:05Z</time>
      </trkpt>
      <trkpt lat="50.03106" lon="2.31373">
        <ele>134.3</ele>
        <time>2023-10-25T12:17:06Z</time>
      </trkpt>
      <trkpt lat="50.03106" lon="2.31371">
        <ele>134.3</ele>
        <time>2023-10-25T12:17:07Z</time>
      </trkpt>
      <trkpt lat="50.03105" lon="2.31369">
        <ele>134.2</ele>
        <time>2023-10-25T12:17:08Z</time>
      </trkpt>
      <trkpt lat="50.03105" lon="2.31367">
        <ele>134.2</ele>
        <time>2023-10-25T12:17:10Z</time>
      </trkpt>
      <trkpt lat="50.03104" lon="2.31364">
        <ele>134.2</ele>
        <time>2023-10-25T12:17:11Z</time>
      </trkpt>
      <trkpt lat="50.03104" lon="2.31363">
        <ele>134.2</ele>
        <time>2023-10-25T12:17:12Z</time>
      </trkpt>
      <trkpt lat="50.03104" lon="2.31362">
        <ele>134.2</ele>
        <time>2023-10-25T12:17:13Z</time>
      </trkpt>
      <trkpt lat="50.03103" lon="2.31359">
        <ele>134.2</ele>
        <time>2023-10-25T12:17:14Z</time>
      </trkpt>
      <trkpt lat="50.03103" lon="2.31357">
        <ele>134.2</ele>
        <time>2023-10-25T12:17:15Z</time>
      </trkpt>
      <trkpt lat="50.03103" lon="2.31356">
        <ele>134.1</ele>
        <time>2023-10-25T12:17:16Z</time>
      </trkpt>
      <trkpt lat="50.03102" lon="2.31354">
        <ele>134.1</ele>
        <time>2023-10-25T12:17:17Z</time>
      </trkpt>
      <trkpt lat="50.03102" lon="2.31352">
        <ele>134.1</ele>
        <time>2023-10-25T12:17:19Z</time>
      </trkpt>
      <trkpt lat="50.03101" lon="2.31351">
        <ele>134.1</ele>
        <time>2023-10-25T12:17:20Z</time>
      </trkpt>
      <trkpt lat="50.03101" lon="2.31348">
        <ele>134.1</ele>
        <time>2023-10-25T12:17:21Z</time>
      </trkpt>
      <trkpt lat="50.03101" lon="2.31346">
        <ele>134.1</ele>
        <time>2023-10-25T12:17:22Z</time>
      </trkpt>
      <trkpt lat="50.031" lon="2.31345">
        <ele>134</ele>
        <time>2023-10-25T12:17:23Z</time>
      </trkpt>
      <trkpt lat="50.031" lon="2.31342">
        <ele>134</ele>
        <time>2023-10-25T12:17:24Z</time>
      </trkpt>
      <trkpt lat="50.03099" lon="2.31341">
        <ele>134</ele>
        <time>2023-10-25T12:17:25Z</time>
      </trkpt>
      <trkpt lat="50.03099" lon="2.3134">
        <ele>134</ele>
        <time>2023-10-25T12:17:26Z</time>
      </trkpt>
      <trkpt lat="50.03099" lon="2.31338">
        <ele>134</ele>
        <time>2023-10-25T12:17:27Z</time>
      </trkpt>
      <trkpt lat="50.03098" lon="2.31337">
        <ele>134</ele>
        <time>2023-10-25T12:17:29Z</time>
      </trkpt>
      <trkpt lat="50.03098" lon="2.31335">
        <ele>133.9</ele>
        <time>2023-10-25T12:17:30Z</time>
      </trkpt>
      <trkpt lat="50.03097" lon="2.31332">
        <ele>133.9</ele>
        <time>2023-10-25T12:17:31Z</time>
      </trkpt>
      <trkpt lat="50.03097" lon="2.3133">
        <ele>133.9</ele>
        <time>2023-10-25T12:17:32Z</time>
      </trkpt>
      <trkpt lat="50.03096" lon="2.31329">
        <ele>133.9</ele>
        <time>2023-10-25T12:17:33Z</time>
      </trkpt>
      <trkpt lat="50.03096" lon="2.31326">
        <ele>133.8</ele>
        <time>2023-10-25T12:17:35Z</time>
      </trkpt>
      <trkpt lat="50.03095" lon="2.31324">
        <ele>133.8</ele>
        <time>2023-10-25T12:17:36Z</time>
      </trkpt>
      <trkpt lat="50.03095" lon="2.31323">
        <ele>133.8</ele>
        <time>2023-10-25T12:17:37Z</time>
      </trkpt>
      <trkpt lat="50.03094" lon="2.31321">
        <ele>133.8</ele>
        <time>2023-10-25T12:17:38Z</time>
      </trkpt>
      <trkpt lat="50.03094" lon="2.31319">
        <ele>133.8</ele>
        <time>2023-10-25T12:17:39Z</time>
      </trkpt>
      <trkpt lat="50.03093" lon="2.31316">
        <ele>133.8</ele>
        <time>2023-10-25T12:17:40Z</time>
      </trkpt>
      <trkpt lat="50.03093" lon="2.31315">
        <ele>133.8</ele>
        <time>2023-10-25T12:17:42Z</time>
      </trkpt>
      <trkpt lat="50.03092" lon="2.31314">
        <ele>133.7</ele>
        <time>2023-10-25T12:17:43Z</time>
      </trkpt>
      <trkpt lat="50.03091" lon="2.31311">
        <ele>133.7</ele>
        <time>2023-10-25T12:17:44Z</time>
      </trkpt>
      <trkpt lat="50.03091" lon="2.31309">
        <ele>133.7</ele>
        <time>2023-10-25T12:17:45Z</time>
      </trkpt>
      <trkpt lat="50.03091" lon="2.31308">
        <ele>133.7</ele>
        <time>2023-10-25T12:17:46Z</time>
      </trkpt>
      <trkpt lat="50.0309" lon="2.31306">
        <ele>133.7</ele>
        <time>2023-10-25T12:17:47Z</time>
      </trkpt>
      <trkpt lat="50.0309" lon="2.31304">
        <ele>133.7</ele>
        <time>2023-10-25T12:17:48Z</time>
      </trkpt>
      <trkpt lat="50.03089" lon="2.31302">
        <ele>133.7</ele>
        <time>2023-10-25T12:17:49Z</time>
      </trkpt>
      <trkpt lat="50.03089" lon="2.313">
        <ele>133.6</ele>
        <time>2023-10-25T12:17:51Z</time>
      </trkpt>
      <trkpt lat="50.03088" lon="2.31298">
        <ele>133.6</ele>
        <time>2023-10-25T12:17:52Z</time>
      </trkpt>
      <trkpt lat="50.03088" lon="2.31296">
        <ele>133.6</ele>
        <time>2023-10-25T12:17:53Z</time>
      </trkpt>
      <trkpt lat="50.03087" lon="2.31293">
        <ele>133.5</ele>
        <time>2023-10-25T12:17:54Z</time>
      </trkpt>
      <trkpt lat="50.03087" lon="2.31292">
        <ele>133.5</ele>
        <time>2023-10-25T12:17:55Z</time>
      </trkpt>
      <trkpt lat="50.03087" lon="2.3129">
        <ele>133.5</ele>
        <time>2023-10-25T12:17:56Z</time>
      </trkpt>
      <trkpt lat="50.03086" lon="2.31288">
        <ele>133.5</ele>
        <time>2023-10-25T12:17:58Z</time>
      </trkpt>
      <trkpt lat="50.03086" lon="2.31285">
        <ele>133.4</ele>
        <time>2023-10-25T12:17:59Z</time>
      </trkpt>
      <trkpt lat="50.03085" lon="2.31282">
        <ele>133.4</ele>
        <time>2023-10-25T12:18:01Z</time>
      </trkpt>
      <trkpt lat="50.03085" lon="2.3128">
        <ele>133.4</ele>
        <time>2023-10-25T12:18:02Z</time>
      </trkpt>
      <trkpt lat="50.03085" lon="2.31278">
        <ele>133.3</ele>
        <time>2023-10-25T12:18:03Z</time>
      </trkpt>
      <trkpt lat="50.03084" lon="2.31277">
        <ele>133.3</ele>
        <time>2023-10-25T12:18:04Z</time>
      </trkpt>
      <trkpt lat="50.03084" lon="2.31275">
        <ele>133.3</ele>
        <time>2023-10-25T12:18:05Z</time>
      </trkpt>
      <trkpt lat="50.03083" lon="2.31273">
        <ele>133.2</ele>
        <time>2023-10-25T12:18:06Z</time>
      </trkpt>
      <trkpt lat="50.03083" lon="2.31271">
        <ele>133.2</ele>
        <time>2023-10-25T12:18:07Z</time>
      </trkpt>
      <trkpt lat="50.03082" lon="2.31269">
        <ele>133.1</ele>
        <time>2023-10-25T12:18:09Z</time>
      </trkpt>
      <trkpt lat="50.03082" lon="2.31266">
        <ele>133.1</ele>
        <time>2023-10-25T12:18:10Z</time>
      </trkpt>
      <trkpt lat="50.03081" lon="2.31265">
        <ele>133</ele>
        <time>2023-10-25T12:18:11Z</time>
      </trkpt>
      <trkpt lat="50.03081" lon="2.31263">
        <ele>133</ele>
        <time>2023-10-25T12:18:12Z</time>
      </trkpt>
      <trkpt lat="50.0308" lon="2.31261">
        <ele>133</ele>
        <time>2023-10-25T12:18:13Z</time>
      </trkpt>
      <trkpt lat="50.0308" lon="2.3126">
        <ele>132.9</ele>
        <time>2023-10-25T12:18:14Z</time>
      </trkpt>
      <trkpt lat="50.0308" lon="2.31258">
        <ele>132.9</ele>
        <time>2023-10-25T12:18:15Z</time>
      </trkpt>
      <trkpt lat="50.03079" lon="2.31254">
        <ele>132.8</ele>
        <time>2023-10-25T12:18:16Z</time>
      </trkpt>
      <trkpt lat="50.03079" lon="2.31253">
        <ele>132.8</ele>
        <time>2023-10-25T12:18:18Z</time>
      </trkpt>
      <trkpt lat="50.03079" lon="2.31251">
        <ele>132.8</ele>
        <time>2023-10-25T12:18:19Z</time>
      </trkpt>
      <trkpt lat="50.03078" lon="2.31249">
        <ele>132.7</ele>
        <time>2023-10-25T12:18:20Z</time>
      </trkpt>
      <trkpt lat="50.03078" lon="2.31248">
        <ele>132.7</ele>
        <time>2023-10-25T12:18:21Z</time>
      </trkpt>
      <trkpt lat="50.03078" lon="2.31245">
        <ele>132.6</ele>
        <time>2023-10-25T12:18:23Z</time>
      </trkpt>
      <trkpt lat="50.03077" lon="2.31243">
        <ele>132.6</ele>
        <time>2023-10-25T12:18:24Z</time>
      </trkpt>
      <trkpt lat="50.03077" lon="2.3124">
        <ele>132.6</ele>
        <time>2023-10-25T12:18:25Z</time>
      </trkpt>
      <trkpt lat="50.03076" lon="2.31239">
        <ele>132.5</ele>
        <time>2023-10-25T12:18:26Z</time>
      </trkpt>
      <trkpt lat="50.03076" lon="2.31238">
        <ele>132.5</ele>
        <time>2023-10-25T12:18:27Z</time>
      </trkpt>
      <trkpt lat="50.03075" lon="2.31235">
        <ele>132.5</ele>
        <time>2023-10-25T12:18:29Z</time>
      </trkpt>
      <trkpt lat="50.03075" lon="2.31233">
        <ele>132.5</ele>
        <time>2023-10-25T12:18:30Z</time>
      </trkpt>
      <trkpt lat="50.03075" lon="2.3123">
        <ele>132.4</ele>
        <time>2023-10-25T12:18:31Z</time>
      </trkpt>
      <trkpt lat="50.03074" lon="2.31228">
        <ele>132.4</ele>
        <time>2023-10-25T12:18:32Z</time>
      </trkpt>
      <trkpt lat="50.03074" lon="2.31226">
        <ele>132.4</ele>
        <time>2023-10-25T12:18:34Z</time>
      </trkpt>
      <trkpt lat="50.03073" lon="2.31224">
        <ele>132.4</ele>
        <time>2023-10-25T12:18:35Z</time>
      </trkpt>
      <trkpt lat="50.03073" lon="2.31223">
        <ele>132.4</ele>
        <time>2023-10-25T12:18:36Z</time>
      </trkpt>
      <trkpt lat="50.03073" lon="2.31221">
        <ele>132.4</ele>
        <time>2023-10-25T12:18:37Z</time>
      </trkpt>
      <trkpt lat="50.03072" lon="2.31219">
        <ele>132.4</ele>
        <time>2023-10-25T12:18:38Z</time>
      </trkpt>
      <trkpt lat="50.03072" lon="2.31216">
        <ele>132.4</ele>
        <time>2023-10-25T12:18:40Z</time>
      </trkpt>
      <trkpt lat="50.03071" lon="2.31214">
        <ele>132.4</ele>
        <time>2023-10-25T12:18:41Z</time>
      </trkpt>
      <trkpt lat="50.03071" lon="2.31213">
        <ele>132.3</ele>
        <time>2023-10-25T12:18:42Z</time>
      </trkpt>
      <trkpt lat="50.03071" lon="2.31211">
        <ele>132.3</ele>
        <time>2023-10-25T12:18:43Z</time>
      </trkpt>
      <trkpt lat="50.03071" lon="2.3121">
        <ele>132.3</ele>
        <time>2023-10-25T12:18:44Z</time>
      </trkpt>
      <trkpt lat="50.03071" lon="2.31208">
        <ele>132.3</ele>
        <time>2023-10-25T12:18:45Z</time>
      </trkpt>
      <trkpt lat="50.0307" lon="2.31205">
        <ele>132.3</ele>
        <time>2023-10-25T12:18:46Z</time>
      </trkpt>
      <trkpt lat="50.0307" lon="2.31203">
        <ele>132.3</ele>
        <time>2023-10-25T12:18:47Z</time>
      </trkpt>
      <trkpt lat="50.0307" lon="2.31202">
        <ele>132.3</ele>
        <time>2023-10-25T12:18:48Z</time>
      </trkpt>
      <trkpt lat="50.03069" lon="2.312">
        <ele>132.3</ele>
        <time>2023-10-25T12:18:50Z</time>
      </trkpt>
      <trkpt lat="50.03069" lon="2.31198">
        <ele>132.3</ele>
        <time>2023-10-25T12:18:51Z</time>
      </trkpt>
      <trkpt lat="50.03069" lon="2.31195">
        <ele>132.3</ele>
        <time>2023-10-25T12:18:52Z</time>
      </trkpt>
      <trkpt lat="50.03069" lon="2.31193">
        <ele>132.4</ele>
        <time>2023-10-25T12:18:53Z</time>
      </trkpt>
      <trkpt lat="50.03069" lon="2.31192">
        <ele>132.4</ele>
        <time>2023-10-25T12:18:54Z</time>
      </trkpt>
      <trkpt lat="50.03068" lon="2.3119">
        <ele>132.4</ele>
        <time>2023-10-25T12:18:55Z</time>
      </trkpt>
      <trkpt lat="50.03068" lon="2.31188">
        <ele>132.4</ele>
        <time>2023-10-25T12:18:56Z</time>
      </trkpt>
      <trkpt lat="50.03068" lon="2.31186">
        <ele>132.4</ele>
        <time>2023-10-25T12:18:57Z</time>
      </trkpt>
      <trkpt lat="50.03067" lon="2.31184">
        <ele>132.4</ele>
        <time>2023-10-25T12:18:59Z</time>
      </trkpt>
      <trkpt lat="50.03067" lon="2.31181">
        <ele>132.4</ele>
        <time>2023-10-25T12:19:00Z</time>
      </trkpt>
      <trkpt lat="50.03066" lon="2.3118">
        <ele>132.4</ele>
        <time>2023-10-25T12:19:01Z</time>
      </trkpt>
      <trkpt lat="50.03066" lon="2.31178">
        <ele>132.4</ele>
        <time>2023-10-25T12:19:02Z</time>
      </trkpt>
      <trkpt lat="50.03065" lon="2.31177">
        <ele>132.4</ele>
        <time>2023-10-25T12:19:04Z</time>
      </trkpt>
      <trkpt lat="50.03065" lon="2.31175">
        <ele>132.4</ele>
        <time>2023-10-25T12:19:05Z</time>
      </trkpt>
      <trkpt lat="50.03064" lon="2.31172">
        <ele>132.4</ele>
        <time>2023-10-25T12:19:06Z</time>
      </trkpt>
      <trkpt lat="50.03063" lon="2.31171">
        <ele>132.5</ele>
        <time>2023-10-25T12:19:07Z</time>
      </trkpt>
      <trkpt lat="50.03063" lon="2.3117">
        <ele>132.5</ele>
        <time>2023-10-25T12:19:08Z</time>
      </trkpt>
      <trkpt lat="50.03062" lon="2.31167">
        <ele>132.5</ele>
        <time>2023-10-25T12:19:09Z</time>
      </trkpt>
      <trkpt lat="50.03062" lon="2.31166">
        <ele>132.5</ele>
        <time>2023-10-25T12:19:10Z</time>
      </trkpt>
      <trkpt lat="50.03061" lon="2.31165">
        <ele>132.5</ele>
        <time>2023-10-25T12:19:11Z</time>
      </trkpt>
      <trkpt lat="50.03061" lon="2.31163">
        <ele>132.5</ele>
        <time>2023-10-25T12:19:13Z</time>
      </trkpt>
      <trkpt lat="50.0306" lon="2.31162">
        <ele>132.5</ele>
        <time>2023-10-25T12:19:14Z</time>
      </trkpt>
      <trkpt lat="50.0306" lon="2.3116">
        <ele>132.5</ele>
        <time>2023-10-25T12:19:15Z</time>
      </trkpt>
      <trkpt lat="50.03059" lon="2.31158">
        <ele>132.6</ele>
        <time>2023-10-25T12:19:16Z</time>
      </trkpt>
      <trkpt lat="50.03058" lon="2.31157">
        <ele>132.6</ele>
        <time>2023-10-25T12:19:17Z</time>
      </trkpt>
      <trkpt lat="50.03058" lon="2.31155">
        <ele>132.6</ele>
        <time>2023-10-25T12:19:19Z</time>
      </trkpt>
      <trkpt lat="50.03057" lon="2.31152">
        <ele>132.6</ele>
        <time>2023-10-25T12:19:20Z</time>
      </trkpt>
      <trkpt lat="50.03057" lon="2.3115">
        <ele>132.6</ele>
        <time>2023-10-25T12:19:21Z</time>
      </trkpt>
      <trkpt lat="50.03056" lon="2.31149">
        <ele>132.7</ele>
        <time>2023-10-25T12:19:22Z</time>
      </trkpt>
      <trkpt lat="50.03055" lon="2.31146">
        <ele>132.7</ele>
        <time>2023-10-25T12:19:24Z</time>
      </trkpt>
      <trkpt lat="50.03055" lon="2.31145">
        <ele>132.7</ele>
        <time>2023-10-25T12:19:25Z</time>
      </trkpt>
      <trkpt lat="50.03054" lon="2.31144">
        <ele>132.7</ele>
        <time>2023-10-25T12:19:26Z</time>
      </trkpt>
      <trkpt lat="50.03053" lon="2.31141">
        <ele>132.8</ele>
        <time>2023-10-25T12:19:28Z</time>
      </trkpt>
      <trkpt lat="50.03053" lon="2.3114">
        <ele>132.8</ele>
        <time>2023-10-25T12:19:29Z</time>
      </trkpt>
      <trkpt lat="50.03052" lon="2.31139">
        <ele>132.8</ele>
        <time>2023-10-25T12:19:30Z</time>
      </trkpt>
      <trkpt lat="50.03052" lon="2.31137">
        <ele>132.8</ele>
        <time>2023-10-25T12:19:32Z</time>
      </trkpt>
      <trkpt lat="50.03051" lon="2.31136">
        <ele>132.8</ele>
        <time>2023-10-25T12:19:33Z</time>
      </trkpt>
      <trkpt lat="50.03051" lon="2.31134">
        <ele>132.9</ele>
        <time>2023-10-25T12:19:34Z</time>
      </trkpt>
      <trkpt lat="50.03051" lon="2.31133">
        <ele>132.9</ele>
        <time>2023-10-25T12:19:36Z</time>
      </trkpt>
      <trkpt lat="50.03051" lon="2.31131">
        <ele>132.9</ele>
        <time>2023-10-25T12:19:37Z</time>
      </trkpt>
      <trkpt lat="50.03051" lon="2.3113">
        <ele>132.9</ele>
        <time>2023-10-25T12:19:39Z</time>
      </trkpt>
      <trkpt lat="50.03051" lon="2.31128">
        <ele>132.9</ele>
        <time>2023-10-25T12:19:41Z</time>
      </trkpt>
      <trkpt lat="50.03051" lon="2.31127">
        <ele>133</ele>
        <time>2023-10-25T12:19:42Z</time>
      </trkpt>
      <trkpt lat="50.03051" lon="2.31126">
        <ele>133</ele>
        <time>2023-10-25T12:19:43Z</time>
      </trkpt>
      <trkpt lat="50.03051" lon="2.31126">
        <ele>133</ele>
        <time>2023-10-25T12:19:44Z</time>
      </trkpt>
      <trkpt lat="50.0305" lon="2.31125">
        <ele>133</ele>
        <time>2023-10-25T12:19:45Z</time>
      </trkpt>
      <trkpt lat="50.0305" lon="2.31125">
        <ele>133.1</ele>
        <time>2023-10-25T12:19:46Z</time>
      </trkpt>
      <trkpt lat="50.03049" lon="2.31124">
        <ele>133.1</ele>
        <time>2023-10-25T12:19:47Z</time>
      </trkpt>
      <trkpt lat="50.03049" lon="2.31124">
        <ele>133.1</ele>
        <time>2023-10-25T12:19:48Z</time>
      </trkpt>
      <trkpt lat="50.03048" lon="2.31125">
        <ele>133.1</ele>
        <time>2023-10-25T12:19:49Z</time>
      </trkpt>
      <trkpt lat="50.03048" lon="2.31125">
        <ele>133.1</ele>
        <time>2023-10-25T12:19:50Z</time>
      </trkpt>
      <trkpt lat="50.03048" lon="2.31125">
        <ele>133.1</ele>
        <time>2023-10-25T12:19:51Z</time>
      </trkpt>
      <trkpt lat="50.03048" lon="2.31126">
        <ele>133.2</ele>
        <time>2023-10-25T12:19:52Z</time>
      </trkpt>
      <trkpt lat="50.03048" lon="2.31127">
        <ele>133.2</ele>
        <time>2023-10-25T12:19:53Z</time>
      </trkpt>
      <trkpt lat="50.03047" lon="2.31127">
        <ele>133.2</ele>
        <time>2023-10-25T12:19:54Z</time>
      </trkpt>
      <trkpt lat="50.03047" lon="2.31128">
        <ele>133.2</ele>
        <time>2023-10-25T12:19:55Z</time>
      </trkpt>
      <trkpt lat="50.03047" lon="2.31128">
        <ele>133.2</ele>
        <time>2023-10-25T12:19:56Z</time>
      </trkpt>
      <trkpt lat="50.03047" lon="2.31128">
        <ele>133.2</ele>
        <time>2023-10-25T12:19:57Z</time>
      </trkpt>
      <trkpt lat="50.03047" lon="2.31129">
        <ele>133.2</ele>
        <time>2023-10-25T12:19:58Z</time>
      </trkpt>
      <trkpt lat="50.03047" lon="2.31129">
        <ele>133.2</ele>
        <time>2023-10-25T12:19:59Z</time>
      </trkpt>
      <trkpt lat="50.03047" lon="2.3113">
        <ele>133.2</ele>
        <time>2023-10-25T12:20:00Z</time>
      </trkpt>
      <trkpt lat="50.03048" lon="2.3113">
        <ele>133.2</ele>
        <time>2023-10-25T12:20:01Z</time>
      </trkpt>
      <trkpt lat="50.0305" lon="2.31136">
        <ele>133.3</ele>
        <time>2023-10-25T12:20:45Z</time>
      </trkpt>
      <trkpt lat="50.0305" lon="2.31137">
        <ele>133.3</ele>
        <time>2023-10-25T12:20:46Z</time>
      </trkpt>
      <trkpt lat="50.03051" lon="2.31137">
        <ele>133.3</ele>
        <time>2023-10-25T12:20:47Z</time>
      </trkpt>
      <trkpt lat="50.03051" lon="2.31137">
        <ele>133.3</ele>
        <time>2023-10-25T12:20:48Z</time>
      </trkpt>
      <trkpt lat="50.03052" lon="2.31136">
        <ele>133.3</ele>
        <time>2023-10-25T12:20:49Z</time>
      </trkpt>
      <trkpt lat="50.03053" lon="2.31136">
        <ele>133.3</ele>
        <time>2023-10-25T12:20:50Z</time>
      </trkpt>
      <trkpt lat="50.03053" lon="2.31136">
        <ele>133.4</ele>
        <time>2023-10-25T12:20:51Z</time>
      </trkpt>
      <trkpt lat="50.03054" lon="2.31135">
        <ele>133.4</ele>
        <time>2023-10-25T12:20:52Z</time>
      </trkpt>
      <trkpt lat="50.03055" lon="2.31135">
        <ele>133.4</ele>
        <time>2023-10-25T12:20:53Z</time>
      </trkpt>
      <trkpt lat="50.03055" lon="2.31134">
        <ele>133.4</ele>
        <time>2023-10-25T12:20:54Z</time>
      </trkpt>
      <trkpt lat="50.03056" lon="2.31133">
        <ele>133.4</ele>
        <time>2023-10-25T12:20:55Z</time>
      </trkpt>
      <trkpt lat="50.03056" lon="2.31132">
        <ele>133.4</ele>
        <time>2023-10-25T12:20:56Z</time>
      </trkpt>
      <trkpt lat="50.03056" lon="2.31131">
        <ele>133.4</ele>
        <time>2023-10-25T12:20:57Z</time>
      </trkpt>
      <trkpt lat="50.03057" lon="2.31131">
        <ele>133.4</ele>
        <time>2023-10-25T12:20:58Z</time>
      </trkpt>
      <trkpt lat="50.03056" lon="2.31131">
        <ele>133.4</ele>
        <time>2023-10-25T12:20:59Z</time>
      </trkpt>
      <trkpt lat="50.03056" lon="2.31131">
        <ele>133.4</ele>
        <time>2023-10-25T12:21:00Z</time>
      </trkpt>
      <trkpt lat="50.03056" lon="2.31131">
        <ele>133.4</ele>
        <time>2023-10-25T12:21:01Z</time>
      </trkpt>
      <trkpt lat="50.03056" lon="2.31131">
        <ele>133.4</ele>
        <time>2023-10-25T12:21:02Z</time>
      </trkpt>
      <trkpt lat="50.03056" lon="2.31131">
        <ele>133.4</ele>
        <time>2023-10-25T12:21:03Z</time>
      </trkpt>
      <trkpt lat="50.03056" lon="2.31131">
        <ele>133.4</ele>
        <time>2023-10-25T12:21:04Z</time>
      </trkpt>
      <trkpt lat="50.03056" lon="2.31131">
        <ele>133.4</ele>
        <time>2023-10-25T12:21:05Z</time>
      </trkpt>
      <trkpt lat="50.03056" lon="2.31131">
        <ele>133.4</ele>
        <time>2023-10-25T12:21:06Z</time>
      </trkpt>
      <trkpt lat="50.03057" lon="2.3113">
        <ele>133.5</ele>
        <time>2023-10-25T12:21:07Z</time>
      </trkpt>
      <trkpt lat="50.03059" lon="2.31129">
        <ele>133.5</ele>
        <time>2023-10-25T12:21:08Z</time>
      </trkpt>
      <trkpt lat="50.0306" lon="2.31128">
        <ele>133.5</ele>
        <time>2023-10-25T12:21:09Z</time>
      </trkpt>
      <trkpt lat="50.03061" lon="2.31128">
        <ele>133.5</ele>
        <time>2023-10-25T12:21:10Z</time>
      </trkpt>
      <trkpt lat="50.03063" lon="2.31126">
        <ele>133.6</ele>
        <time>2023-10-25T12:21:11Z</time>
      </trkpt>
      <trkpt lat="50.03064" lon="2.31126">
        <ele>133.6</ele>
        <time>2023-10-25T12:21:12Z</time>
      </trkpt>
      <trkpt lat="50.03065" lon="2.31125">
        <ele>133.6</ele>
        <time>2023-10-25T12:21:13Z</time>
      </trkpt>
      <trkpt lat="50.03066" lon="2.31125">
        <ele>133.6</ele>
        <time>2023-10-25T12:21:14Z</time>
      </trkpt>
      <trkpt lat="50.03068" lon="2.31124">
        <ele>133.6</ele>
        <time>2023-10-25T12:21:15Z</time>
      </trkpt>
      <trkpt lat="50.03069" lon="2.31123">
        <ele>133.7</ele>
        <time>2023-10-25T12:21:16Z</time>
      </trkpt>
      <trkpt lat="50.0307" lon="2.31123">
        <ele>133.7</ele>
        <time>2023-10-25T12:21:17Z</time>
      </trkpt>
      <trkpt lat="50.03071" lon="2.31123">
        <ele>133.7</ele>
        <time>2023-10-25T12:21:18Z</time>
      </trkpt>
      <trkpt lat="50.03072" lon="2.31122">
        <ele>133.7</ele>
        <time>2023-10-25T12:21:19Z</time>
      </trkpt>
      <trkpt lat="50.03073" lon="2.31122">
        <ele>133.7</ele>
        <time>2023-10-25T12:21:20Z</time>
      </trkpt>
      <trkpt lat="50.03073" lon="2.31121">
        <ele>133.7</ele>
        <time>2023-10-25T12:21:21Z</time>
      </trkpt>
      <trkpt lat="50.03075" lon="2.3112">
        <ele>133.8</ele>
        <time>2023-10-25T12:21:22Z</time>
      </trkpt>
      <trkpt lat="50.03076" lon="2.31119">
        <ele>133.8</ele>
        <time>2023-10-25T12:21:23Z</time>
      </trkpt>
      <trkpt lat="50.03077" lon="2.31118">
        <ele>133.8</ele>
        <time>2023-10-25T12:21:24Z</time>
      </trkpt>
      <trkpt lat="50.03078" lon="2.31117">
        <ele>133.8</ele>
        <time>2023-10-25T12:21:25Z</time>
      </trkpt>
      <trkpt lat="50.03078" lon="2.31117">
        <ele>133.8</ele>
        <time>2023-10-25T12:21:26Z</time>
      </trkpt>
      <trkpt lat="50.03079" lon="2.31116">
        <ele>133.8</ele>
        <time>2023-10-25T12:21:27Z</time>
      </trkpt>
      <trkpt lat="50.0308" lon="2.31115">
        <ele>133.8</ele>
        <time>2023-10-25T12:21:28Z</time>
      </trkpt>
      <trkpt lat="50.03081" lon="2.31115">
        <ele>133.8</ele>
        <time>2023-10-25T12:21:29Z</time>
      </trkpt>
      <trkpt lat="50.03082" lon="2.31114">
        <ele>133.8</ele>
        <time>2023-10-25T12:21:30Z</time>
      </trkpt>
      <trkpt lat="50.03083" lon="2.31114">
        <ele>133.8</ele>
        <time>2023-10-25T12:21:31Z</time>
      </trkpt>
      <trkpt lat="50.03083" lon="2.31113">
        <ele>133.8</ele>
        <time>2023-10-25T12:21:32Z</time>
      </trkpt>
      <trkpt lat="50.03084" lon="2.31113">
        <ele>133.9</ele>
        <time>2023-10-25T12:21:33Z</time>
      </trkpt>
      <trkpt lat="50.03085" lon="2.31112">
        <ele>133.9</ele>
        <time>2023-10-25T12:21:34Z</time>
      </trkpt>
      <trkpt lat="50.03086" lon="2.31112">
        <ele>133.9</ele>
        <time>2023-10-25T12:21:35Z</time>
      </trkpt>
      <trkpt lat="50.03087" lon="2.31112">
        <ele>133.9</ele>
        <time>2023-10-25T12:21:36Z</time>
      </trkpt>
      <trkpt lat="50.03088" lon="2.31111">
        <ele>133.9</ele>
        <time>2023-10-25T12:21:37Z</time>
      </trkpt>
      <trkpt lat="50.03089" lon="2.31111">
        <ele>133.9</ele>
        <time>2023-10-25T12:21:38Z</time>
      </trkpt>
      <trkpt lat="50.0309" lon="2.3111">
        <ele>133.9</ele>
        <time>2023-10-25T12:21:39Z</time>
      </trkpt>
      <trkpt lat="50.03091" lon="2.3111">
        <ele>133.9</ele>
        <time>2023-10-25T12:21:40Z</time>
      </trkpt>
      <trkpt lat="50.03093" lon="2.31109">
        <ele>133.9</ele>
        <time>2023-10-25T12:21:41Z</time>
      </trkpt>
      <trkpt lat="50.03094" lon="2.31109">
        <ele>133.9</ele>
        <time>2023-10-25T12:21:42Z</time>
      </trkpt>
      <trkpt lat="50.03095" lon="2.31108">
        <ele>134</ele>
        <time>2023-10-25T12:21:43Z</time>
      </trkpt>
      <trkpt lat="50.03097" lon="2.31107">
        <ele>134</ele>
        <time>2023-10-25T12:21:44Z</time>
      </trkpt>
      <trkpt lat="50.03098" lon="2.31107">
        <ele>134</ele>
        <time>2023-10-25T12:21:45Z</time>
      </trkpt>
      <trkpt lat="50.03098" lon="2.31107">
        <ele>134</ele>
        <time>2023-10-25T12:21:46Z</time>
      </trkpt>
      <trkpt lat="50.031" lon="2.31106">
        <ele>134</ele>
        <time>2023-10-25T12:21:47Z</time>
      </trkpt>
      <trkpt lat="50.03101" lon="2.31105">
        <ele>134</ele>
        <time>2023-10-25T12:21:48Z</time>
      </trkpt>
      <trkpt lat="50.03103" lon="2.31105">
        <ele>134.1</ele>
        <time>2023-10-25T12:21:49Z</time>
      </trkpt>
      <trkpt lat="50.03104" lon="2.31105">
        <ele>134.1</ele>
        <time>2023-10-25T12:21:50Z</time>
      </trkpt>
      <trkpt lat="50.03106" lon="2.31104">
        <ele>134.1</ele>
        <time>2023-10-25T12:21:51Z</time>
      </trkpt>
      <trkpt lat="50.03107" lon="2.31103">
        <ele>134.1</ele>
        <time>2023-10-25T12:21:52Z</time>
      </trkpt>
      <trkpt lat="50.03108" lon="2.31103">
        <ele>134.1</ele>
        <time>2023-10-25T12:21:53Z</time>
      </trkpt>
      <trkpt lat="50.0311" lon="2.31102">
        <ele>134.1</ele>
        <time>2023-10-25T12:21:54Z</time>
      </trkpt>
      <trkpt lat="50.03111" lon="2.31102">
        <ele>134.1</ele>
        <time>2023-10-25T12:21:55Z</time>
      </trkpt>
      <trkpt lat="50.03111" lon="2.31102">
        <ele>134.2</ele>
        <time>2023-10-25T12:21:56Z</time>
      </trkpt>
      <trkpt lat="50.03113" lon="2.31101">
        <ele>134.2</ele>
        <time>2023-10-25T12:21:57Z</time>
      </trkpt>
      <trkpt lat="50.03114" lon="2.31101">
        <ele>134.2</ele>
        <time>2023-10-25T12:21:58Z</time>
      </trkpt>
      <trkpt lat="50.03114" lon="2.31101">
        <ele>134.2</ele>
        <time>2023-10-25T12:21:59Z</time>
      </trkpt>
      <trkpt lat="50.03115" lon="2.311">
        <ele>134.2</ele>
        <time>2023-10-25T12:22:00Z</time>
      </trkpt>
      <trkpt lat="50.03116" lon="2.311">
        <ele>134.2</ele>
        <time>2023-10-25T12:22:01Z</time>
      </trkpt>
      <trkpt lat="50.03117" lon="2.311">
        <ele>134.2</ele>
        <time>2023-10-25T12:22:02Z</time>
      </trkpt>
      <trkpt lat="50.03118" lon="2.31099">
        <ele>134.2</ele>
        <time>2023-10-25T12:22:03Z</time>
      </trkpt>
      <trkpt lat="50.03119" lon="2.31099">
        <ele>134.2</ele>
        <time>2023-10-25T12:22:04Z</time>
      </trkpt>
      <trkpt lat="50.03121" lon="2.31098">
        <ele>134.3</ele>
        <time>2023-10-25T12:22:05Z</time>
      </trkpt>
      <trkpt lat="50.03122" lon="2.31098">
        <ele>134.3</ele>
        <time>2023-10-25T12:22:06Z</time>
      </trkpt>
      <trkpt lat="50.03123" lon="2.31098">
        <ele>134.3</ele>
        <time>2023-10-25T12:22:07Z</time>
      </trkpt>
      <trkpt lat="50.03124" lon="2.31097">
        <ele>134.3</ele>
        <time>2023-10-25T12:22:08Z</time>
      </trkpt>
      <trkpt lat="50.03126" lon="2.31097">
        <ele>134.3</ele>
        <time>2023-10-25T12:22:09Z</time>
      </trkpt>
      <trkpt lat="50.03127" lon="2.31096">
        <ele>134.3</ele>
        <time>2023-10-25T12:22:10Z</time>
      </trkpt>
      <trkpt lat="50.03127" lon="2.31096">
        <ele>134.3</ele>
        <time>2023-10-25T12:22:11Z</time>
      </trkpt>
      <trkpt lat="50.03129" lon="2.31095">
        <ele>134.3</ele>
        <time>2023-10-25T12:22:12Z</time>
      </trkpt>
      <trkpt lat="50.0313" lon="2.31094">
        <ele>134.3</ele>
        <time>2023-10-25T12:22:13Z</time>
      </trkpt>
      <trkpt lat="50.03131" lon="2.31094">
        <ele>134.3</ele>
        <time>2023-10-25T12:22:14Z</time>
      </trkpt>
      <trkpt lat="50.03132" lon="2.31093">
        <ele>134.4</ele>
        <time>2023-10-25T12:22:15Z</time>
      </trkpt>
      <trkpt lat="50.03133" lon="2.31092">
        <ele>134.4</ele>
        <time>2023-10-25T12:22:16Z</time>
      </trkpt>
      <trkpt lat="50.03134" lon="2.31091">
        <ele>134.4</ele>
        <time>2023-10-25T12:22:17Z</time>
      </trkpt>
      <trkpt lat="50.03135" lon="2.3109">
        <ele>134.4</ele>
        <time>2023-10-25T12:22:18Z</time>
      </trkpt>
      <trkpt lat="50.03136" lon="2.31089">
        <ele>134.4</ele>
        <time>2023-10-25T12:22:19Z</time>
      </trkpt>
      <trkpt lat="50.03136" lon="2.31089">
        <ele>134.4</ele>
        <time>2023-10-25T12:22:20Z</time>
      </trkpt>
      <trkpt lat="50.03137" lon="2.31088">
        <ele>134.4</ele>
        <time>2023-10-25T12:22:21Z</time>
      </trkpt>
      <trkpt lat="50.03138" lon="2.31087">
        <ele>134.4</ele>
        <time>2023-10-25T12:22:22Z</time>
      </trkpt>
      <trkpt lat="50.03139" lon="2.31086">
        <ele>134.4</ele>
        <time>2023-10-25T12:22:23Z</time>
      </trkpt>
      <trkpt lat="50.03139" lon="2.31086">
        <ele>134.4</ele>
        <time>2023-10-25T12:22:24Z</time>
      </trkpt>
      <trkpt lat="50.0314" lon="2.31085">
        <ele>134.5</ele>
        <time>2023-10-25T12:22:25Z</time>
      </trkpt>
      <trkpt lat="50.03141" lon="2.31084">
        <ele>134.5</ele>
        <time>2023-10-25T12:22:26Z</time>
      </trkpt>
      <trkpt lat="50.03142" lon="2.31084">
        <ele>134.5</ele>
        <time>2023-10-25T12:22:27Z</time>
      </trkpt>
      <trkpt lat="50.03143" lon="2.31083">
        <ele>134.5</ele>
        <time>2023-10-25T12:22:28Z</time>
      </trkpt>
      <trkpt lat="50.03144" lon="2.31083">
        <ele>134.5</ele>
        <time>2023-10-25T12:22:29Z</time>
      </trkpt>
      <trkpt lat="50.03145" lon="2.31082">
        <ele>134.5</ele>
        <time>2023-10-25T12:22:30Z</time>
      </trkpt>
      <trkpt lat="50.03146" lon="2.31082">
        <ele>134.5</ele>
        <time>2023-10-25T12:22:31Z</time>
      </trkpt>
      <trkpt lat="50.03147" lon="2.31081">
        <ele>134.5</ele>
        <time>2023-10-25T12:22:32Z</time>
      </trkpt>
      <trkpt lat="50.03148" lon="2.31081">
        <ele>134.5</ele>
        <time>2023-10-25T12:22:33Z</time>
      </trkpt>
      <trkpt lat="50.0315" lon="2.3108">
        <ele>134.6</ele>
        <time>2023-10-25T12:22:34Z</time>
      </trkpt>
      <trkpt lat="50.03151" lon="2.3108">
        <ele>134.6</ele>
        <time>2023-10-25T12:22:35Z</time>
      </trkpt>
      <trkpt lat="50.03152" lon="2.31079">
        <ele>134.6</ele>
        <time>2023-10-25T12:22:36Z</time>
      </trkpt>
      <trkpt lat="50.03154" lon="2.31079">
        <ele>134.6</ele>
        <time>2023-10-25T12:22:37Z</time>
      </trkpt>
      <trkpt lat="50.03155" lon="2.31078">
        <ele>134.6</ele>
        <time>2023-10-25T12:22:38Z</time>
      </trkpt>
      <trkpt lat="50.03156" lon="2.31078">
        <ele>134.6</ele>
        <time>2023-10-25T12:22:39Z</time>
      </trkpt>
      <trkpt lat="50.03158" lon="2.31077">
        <ele>134.6</ele>
        <time>2023-10-25T12:22:40Z</time>
      </trkpt>
      <trkpt lat="50.03159" lon="2.31077">
        <ele>134.6</ele>
        <time>2023-10-25T12:22:41Z</time>
      </trkpt>
      <trkpt lat="50.03159" lon="2.31077">
        <ele>134.6</ele>
        <time>2023-10-25T12:22:42Z</time>
      </trkpt>
      <trkpt lat="50.03161" lon="2.31076">
        <ele>134.6</ele>
        <time>2023-10-25T12:22:43Z</time>
      </trkpt>
      <trkpt lat="50.03162" lon="2.31076">
        <ele>134.6</ele>
        <time>2023-10-25T12:22:44Z</time>
      </trkpt>
      <trkpt lat="50.03163" lon="2.31075">
        <ele>134.7</ele>
        <time>2023-10-25T12:22:45Z</time>
      </trkpt>
      <trkpt lat="50.03164" lon="2.31075">
        <ele>134.7</ele>
        <time>2023-10-25T12:22:46Z</time>
      </trkpt>
      <trkpt lat="50.03165" lon="2.31074">
        <ele>134.7</ele>
        <time>2023-10-25T12:22:47Z</time>
      </trkpt>
      <trkpt lat="50.03166" lon="2.31074">
        <ele>134.7</ele>
        <time>2023-10-25T12:22:48Z</time>
      </trkpt>
      <trkpt lat="50.03167" lon="2.31074">
        <ele>134.7</ele>
        <time>2023-10-25T12:22:49Z</time>
      </trkpt>
      <trkpt lat="50.03168" lon="2.31073">
        <ele>134.7</ele>
        <time>2023-10-25T12:22:50Z</time>
      </trkpt>
      <trkpt lat="50.03169" lon="2.31073">
        <ele>134.7</ele>
        <time>2023-10-25T12:22:51Z</time>
      </trkpt>
      <trkpt lat="50.03171" lon="2.31073">
        <ele>134.7</ele>
        <time>2023-10-25T12:22:52Z</time>
      </trkpt>
      <trkpt lat="50.03172" lon="2.31072">
        <ele>134.7</ele>
        <time>2023-10-25T12:22:53Z</time>
      </trkpt>
      <trkpt lat="50.03173" lon="2.31072">
        <ele>134.7</ele>
        <time>2023-10-25T12:22:54Z</time>
      </trkpt>
      <trkpt lat="50.03175" lon="2.31071">
        <ele>134.7</ele>
        <time>2023-10-25T12:22:55Z</time>
      </trkpt>
      <trkpt lat="50.03176" lon="2.31071">
        <ele>134.8</ele>
        <time>2023-10-25T12:22:56Z</time>
      </trkpt>
      <trkpt lat="50.03176" lon="2.31071">
        <ele>134.8</ele>
        <time>2023-10-25T12:22:57Z</time>
      </trkpt>
      <trkpt lat="50.03178" lon="2.3107">
        <ele>134.8</ele>
        <time>2023-10-25T12:22:58Z</time>
      </trkpt>
      <trkpt lat="50.03179" lon="2.3107">
        <ele>134.8</ele>
        <time>2023-10-25T12:22:59Z</time>
      </trkpt>
      <trkpt lat="50.0318" lon="2.31069">
        <ele>134.8</ele>
        <time>2023-10-25T12:23:00Z</time>
      </trkpt>
      <trkpt lat="50.03182" lon="2.31068">
        <ele>134.8</ele>
        <time>2023-10-25T12:23:01Z</time>
      </trkpt>
      <trkpt lat="50.03183" lon="2.31068">
        <ele>134.9</ele>
        <time>2023-10-25T12:23:02Z</time>
      </trkpt>
      <trkpt lat="50.03183" lon="2.31068">
        <ele>134.9</ele>
        <time>2023-10-25T12:23:03Z</time>
      </trkpt>
      <trkpt lat="50.03185" lon="2.31067">
        <ele>134.9</ele>
        <time>2023-10-25T12:23:04Z</time>
      </trkpt>
      <trkpt lat="50.03186" lon="2.31067">
        <ele>134.9</ele>
        <time>2023-10-25T12:23:05Z</time>
      </trkpt>
      <trkpt lat="50.03188" lon="2.31066">
        <ele>134.9</ele>
        <time>2023-10-25T12:23:06Z</time>
      </trkpt>
      <trkpt lat="50.03189" lon="2.31065">
        <ele>134.9</ele>
        <time>2023-10-25T12:23:07Z</time>
      </trkpt>
      <trkpt lat="50.0319" lon="2.31065">
        <ele>135</ele>
        <time>2023-10-25T12:23:08Z</time>
      </trkpt>
      <trkpt lat="50.03191" lon="2.31064">
        <ele>135</ele>
        <time>2023-10-25T12:23:09Z</time>
      </trkpt>
      <trkpt lat="50.03193" lon="2.31064">
        <ele>135</ele>
        <time>2023-10-25T12:23:10Z</time>
      </trkpt>
      <trkpt lat="50.03195" lon="2.31063">
        <ele>135</ele>
        <time>2023-10-25T12:23:11Z</time>
      </trkpt>
      <trkpt lat="50.03195" lon="2.31062">
        <ele>135</ele>
        <time>2023-10-25T12:23:12Z</time>
      </trkpt>
      <trkpt lat="50.03196" lon="2.31062">
        <ele>135</ele>
        <time>2023-10-25T12:23:13Z</time>
      </trkpt>
      <trkpt lat="50.03197" lon="2.31061">
        <ele>135.1</ele>
        <time>2023-10-25T12:23:14Z</time>
      </trkpt>
      <trkpt lat="50.03198" lon="2.31061">
        <ele>135.1</ele>
        <time>2023-10-25T12:23:15Z</time>
      </trkpt>
      <trkpt lat="50.03199" lon="2.3106">
        <ele>135.1</ele>
        <time>2023-10-25T12:23:16Z</time>
      </trkpt>
      <trkpt lat="50.032" lon="2.3106">
        <ele>135.1</ele>
        <time>2023-10-25T12:23:17Z</time>
      </trkpt>
      <trkpt lat="50.03201" lon="2.3106">
        <ele>135.1</ele>
        <time>2023-10-25T12:23:18Z</time>
      </trkpt>
      <trkpt lat="50.03202" lon="2.3106">
        <ele>135.1</ele>
        <time>2023-10-25T12:23:19Z</time>
      </trkpt>
      <trkpt lat="50.03203" lon="2.31059">
        <ele>135.1</ele>
        <time>2023-10-25T12:23:20Z</time>
      </trkpt>
      <trkpt lat="50.03204" lon="2.31059">
        <ele>135.1</ele>
        <time>2023-10-25T12:23:21Z</time>
      </trkpt>
      <trkpt lat="50.03204" lon="2.31059">
        <ele>135.2</ele>
        <time>2023-10-25T12:23:22Z</time>
      </trkpt>
      <trkpt lat="50.03205" lon="2.31058">
        <ele>135.2</ele>
        <time>2023-10-25T12:23:23Z</time>
      </trkpt>
      <trkpt lat="50.03206" lon="2.31058">
        <ele>135.2</ele>
        <time>2023-10-25T12:23:24Z</time>
      </trkpt>
      <trkpt lat="50.03207" lon="2.31058">
        <ele>135.2</ele>
        <time>2023-10-25T12:23:25Z</time>
      </trkpt>
      <trkpt lat="50.03208" lon="2.31057">
        <ele>135.2</ele>
        <time>2023-10-25T12:23:26Z</time>
      </trkpt>
      <trkpt lat="50.03209" lon="2.31057">
        <ele>135.2</ele>
        <time>2023-10-25T12:23:27Z</time>
      </trkpt>
      <trkpt lat="50.03209" lon="2.31056">
        <ele>135.2</ele>
        <time>2023-10-25T12:23:28Z</time>
      </trkpt>
      <trkpt lat="50.0321" lon="2.31056">
        <ele>135.2</ele>
        <time>2023-10-25T12:23:29Z</time>
      </trkpt>
      <trkpt lat="50.03211" lon="2.31055">
        <ele>135.2</ele>
        <time>2023-10-25T12:23:30Z</time>
      </trkpt>
      <trkpt lat="50.03212" lon="2.31055">
        <ele>135.2</ele>
        <time>2023-10-25T12:23:31Z</time>
      </trkpt>
      <trkpt lat="50.03213" lon="2.31054">
        <ele>135.3</ele>
        <time>2023-10-25T12:23:32Z</time>
      </trkpt>
      <trkpt lat="50.03214" lon="2.31053">
        <ele>135.3</ele>
        <time>2023-10-25T12:23:33Z</time>
      </trkpt>
      <trkpt lat="50.03215" lon="2.31053">
        <ele>135.3</ele>
        <time>2023-10-25T12:23:34Z</time>
      </trkpt>
      <trkpt lat="50.03216" lon="2.31052">
        <ele>135.3</ele>
        <time>2023-10-25T12:23:35Z</time>
      </trkpt>
      <trkpt lat="50.03217" lon="2.31051">
        <ele>135.3</ele>
        <time>2023-10-25T12:23:36Z</time>
      </trkpt>
      <trkpt lat="50.03218" lon="2.31051">
        <ele>135.3</ele>
        <time>2023-10-25T12:23:37Z</time>
      </trkpt>
      <trkpt lat="50.03219" lon="2.3105">
        <ele>135.3</ele>
        <time>2023-10-25T12:23:38Z</time>
      </trkpt>
      <trkpt lat="50.0322" lon="2.3105">
        <ele>135.3</ele>
        <time>2023-10-25T12:23:39Z</time>
      </trkpt>
      <trkpt lat="50.03221" lon="2.31049">
        <ele>135.3</ele>
        <time>2023-10-25T12:23:40Z</time>
      </trkpt>
      <trkpt lat="50.03222" lon="2.31048">
        <ele>135.3</ele>
        <time>2023-10-25T12:23:41Z</time>
      </trkpt>
      <trkpt lat="50.03223" lon="2.31048">
        <ele>135.3</ele>
        <time>2023-10-25T12:23:42Z</time>
      </trkpt>
      <trkpt lat="50.03224" lon="2.31047">
        <ele>135.4</ele>
        <time>2023-10-25T12:23:43Z</time>
      </trkpt>
      <trkpt lat="50.03225" lon="2.31046">
        <ele>135.4</ele>
        <time>2023-10-25T12:23:44Z</time>
      </trkpt>
      <trkpt lat="50.03225" lon="2.31045">
        <ele>135.4</ele>
        <time>2023-10-25T12:23:45Z</time>
      </trkpt>
      <trkpt lat="50.03226" lon="2.31045">
        <ele>135.4</ele>
        <time>2023-10-25T12:23:46Z</time>
      </trkpt>
      <trkpt lat="50.03227" lon="2.31044">
        <ele>135.4</ele>
        <time>2023-10-25T12:23:47Z</time>
      </trkpt>
      <trkpt lat="50.03228" lon="2.31043">
        <ele>135.4</ele>
        <time>2023-10-25T12:23:48Z</time>
      </trkpt>
      <trkpt lat="50.03229" lon="2.31042">
        <ele>135.4</ele>
        <time>2023-10-25T12:23:49Z</time>
      </trkpt>
      <trkpt lat="50.0323" lon="2.31042">
        <ele>135.4</ele>
        <time>2023-10-25T12:23:50Z</time>
      </trkpt>
      <trkpt lat="50.03231" lon="2.31041">
        <ele>135.4</ele>
        <time>2023-10-25T12:23:51Z</time>
      </trkpt>
      <trkpt lat="50.03231" lon="2.3104">
        <ele>135.4</ele>
        <time>2023-10-25T12:23:52Z</time>
      </trkpt>
      <trkpt lat="50.03232" lon="2.31039">
        <ele>135.4</ele>
        <time>2023-10-25T12:23:53Z</time>
      </trkpt>
      <trkpt lat="50.03233" lon="2.31039">
        <ele>135.4</ele>
        <time>2023-10-25T12:23:54Z</time>
      </trkpt>
      <trkpt lat="50.03234" lon="2.31038">
        <ele>135.4</ele>
        <time>2023-10-25T12:23:55Z</time>
      </trkpt>
      <trkpt lat="50.03235" lon="2.31037">
        <ele>135.4</ele>
        <time>2023-10-25T12:23:56Z</time>
      </trkpt>
      <trkpt lat="50.03236" lon="2.31036">
        <ele>135.4</ele>
        <time>2023-10-25T12:23:57Z</time>
      </trkpt>
      <trkpt lat="50.03237" lon="2.31036">
        <ele>135.4</ele>
        <time>2023-10-25T12:23:58Z</time>
      </trkpt>
      <trkpt lat="50.03238" lon="2.31035">
        <ele>135.4</ele>
        <time>2023-10-25T12:23:59Z</time>
      </trkpt>
      <trkpt lat="50.03239" lon="2.31035">
        <ele>135.4</ele>
        <time>2023-10-25T12:24:00Z</time>
      </trkpt>
      <trkpt lat="50.0324" lon="2.31034">
        <ele>135.4</ele>
        <time>2023-10-25T12:24:01Z</time>
      </trkpt>
      <trkpt lat="50.03241" lon="2.31034">
        <ele>135.4</ele>
        <time>2023-10-25T12:24:02Z</time>
      </trkpt>
      <trkpt lat="50.03242" lon="2.31033">
        <ele>135.4</ele>
        <time>2023-10-25T12:24:03Z</time>
      </trkpt>
      <trkpt lat="50.03243" lon="2.31033">
        <ele>135.4</ele>
        <time>2023-10-25T12:24:04Z</time>
      </trkpt>
      <trkpt lat="50.03244" lon="2.31032">
        <ele>135.4</ele>
        <time>2023-10-25T12:24:05Z</time>
      </trkpt>
      <trkpt lat="50.03245" lon="2.31032">
        <ele>135.4</ele>
        <time>2023-10-25T12:24:06Z</time>
      </trkpt>
      <trkpt lat="50.03246" lon="2.31031">
        <ele>135.4</ele>
        <time>2023-10-25T12:24:07Z</time>
      </trkpt>
      <trkpt lat="50.03247" lon="2.31031">
        <ele>135.5</ele>
        <time>2023-10-25T12:24:08Z</time>
      </trkpt>
      <trkpt lat="50.03248" lon="2.3103">
        <ele>135.5</ele>
        <time>2023-10-25T12:24:09Z</time>
      </trkpt>
      <trkpt lat="50.03249" lon="2.3103">
        <ele>135.5</ele>
        <time>2023-10-25T12:24:10Z</time>
      </trkpt>
      <trkpt lat="50.0325" lon="2.31029">
        <ele>135.5</ele>
        <time>2023-10-25T12:24:11Z</time>
      </trkpt>
      <trkpt lat="50.03252" lon="2.31029">
        <ele>135.5</ele>
        <time>2023-10-25T12:24:12Z</time>
      </trkpt>
      <trkpt lat="50.03254" lon="2.31028">
        <ele>135.5</ele>
        <time>2023-10-25T12:24:13Z</time>
      </trkpt>
      <trkpt lat="50.03254" lon="2.31028">
        <ele>135.5</ele>
        <time>2023-10-25T12:24:14Z</time>
      </trkpt>
      <trkpt lat="50.03255" lon="2.31028">
        <ele>135.5</ele>
        <time>2023-10-25T12:24:15Z</time>
      </trkpt>
      <trkpt lat="50.03256" lon="2.31027">
        <ele>135.5</ele>
        <time>2023-10-25T12:24:16Z</time>
      </trkpt>
      <trkpt lat="50.03257" lon="2.31027">
        <ele>135.5</ele>
        <time>2023-10-25T12:24:17Z</time>
      </trkpt>
      <trkpt lat="50.03258" lon="2.31026">
        <ele>135.5</ele>
        <time>2023-10-25T12:24:18Z</time>
      </trkpt>
      <trkpt lat="50.0326" lon="2.31026">
        <ele>135.5</ele>
        <time>2023-10-25T12:24:19Z</time>
      </trkpt>
      <trkpt lat="50.03261" lon="2.31025">
        <ele>135.5</ele>
        <time>2023-10-25T12:24:20Z</time>
      </trkpt>
      <trkpt lat="50.03262" lon="2.31025">
        <ele>135.5</ele>
        <time>2023-10-25T12:24:21Z</time>
      </trkpt>
      <trkpt lat="50.03263" lon="2.31024">
        <ele>135.5</ele>
        <time>2023-10-25T12:24:22Z</time>
      </trkpt>
      <trkpt lat="50.03264" lon="2.31024">
        <ele>135.5</ele>
        <time>2023-10-25T12:24:23Z</time>
      </trkpt>
      <trkpt lat="50.03265" lon="2.31023">
        <ele>135.5</ele>
        <time>2023-10-25T12:24:24Z</time>
      </trkpt>
      <trkpt lat="50.03266" lon="2.31023">
        <ele>135.5</ele>
        <time>2023-10-25T12:24:25Z</time>
      </trkpt>
      <trkpt lat="50.03267" lon="2.31023">
        <ele>135.5</ele>
        <time>2023-10-25T12:24:26Z</time>
      </trkpt>
      <trkpt lat="50.03268" lon="2.31022">
        <ele>135.5</ele>
        <time>2023-10-25T12:24:27Z</time>
      </trkpt>
      <trkpt lat="50.03269" lon="2.31022">
        <ele>135.5</ele>
        <time>2023-10-25T12:24:28Z</time>
      </trkpt>
      <trkpt lat="50.0327" lon="2.31021">
        <ele>135.5</ele>
        <time>2023-10-25T12:24:29Z</time>
      </trkpt>
      <trkpt lat="50.03271" lon="2.31021">
        <ele>135.5</ele>
        <time>2023-10-25T12:24:30Z</time>
      </trkpt>
      <trkpt lat="50.03272" lon="2.31021">
        <ele>135.5</ele>
        <time>2023-10-25T12:24:31Z</time>
      </trkpt>
      <trkpt lat="50.03273" lon="2.31021">
        <ele>135.5</ele>
        <time>2023-10-25T12:24:32Z</time>
      </trkpt>
      <trkpt lat="50.03274" lon="2.31021">
        <ele>135.5</ele>
        <time>2023-10-25T12:24:33Z</time>
      </trkpt>
      <trkpt lat="50.03275" lon="2.31021">
        <ele>135.5</ele>
        <time>2023-10-25T12:24:34Z</time>
      </trkpt>
      <trkpt lat="50.03276" lon="2.31021">
        <ele>135.5</ele>
        <time>2023-10-25T12:24:35Z</time>
      </trkpt>
      <trkpt lat="50.03277" lon="2.31021">
        <ele>135.5</ele>
        <time>2023-10-25T12:24:36Z</time>
      </trkpt>
      <trkpt lat="50.03278" lon="2.3102">
        <ele>135.5</ele>
        <time>2023-10-25T12:24:37Z</time>
      </trkpt>
      <trkpt lat="50.03279" lon="2.3102">
        <ele>135.5</ele>
        <time>2023-10-25T12:24:38Z</time>
      </trkpt>
      <trkpt lat="50.0328" lon="2.3102">
        <ele>135.5</ele>
        <time>2023-10-25T12:24:39Z</time>
      </trkpt>
      <trkpt lat="50.03281" lon="2.31019">
        <ele>135.6</ele>
        <time>2023-10-25T12:24:40Z</time>
      </trkpt>
      <trkpt lat="50.03282" lon="2.31019">
        <ele>135.6</ele>
        <time>2023-10-25T12:24:41Z</time>
      </trkpt>
      <trkpt lat="50.03283" lon="2.31019">
        <ele>135.6</ele>
        <time>2023-10-25T12:24:42Z</time>
      </trkpt>
      <trkpt lat="50.03284" lon="2.31018">
        <ele>135.6</ele>
        <time>2023-10-25T12:24:43Z</time>
      </trkpt>
      <trkpt lat="50.03285" lon="2.31018">
        <ele>135.6</ele>
        <time>2023-10-25T12:24:44Z</time>
      </trkpt>
      <trkpt lat="50.03286" lon="2.31017">
        <ele>135.6</ele>
        <time>2023-10-25T12:24:45Z</time>
      </trkpt>
      <trkpt lat="50.03287" lon="2.31017">
        <ele>135.6</ele>
        <time>2023-10-25T12:24:46Z</time>
      </trkpt>
      <trkpt lat="50.03288" lon="2.31016">
        <ele>135.6</ele>
        <time>2023-10-25T12:24:47Z</time>
      </trkpt>
      <trkpt lat="50.03289" lon="2.31016">
        <ele>135.6</ele>
        <time>2023-10-25T12:24:48Z</time>
      </trkpt>
      <trkpt lat="50.0329" lon="2.31016">
        <ele>135.6</ele>
        <time>2023-10-25T12:24:49Z</time>
      </trkpt>
      <trkpt lat="50.03291" lon="2.31015">
        <ele>135.6</ele>
        <time>2023-10-25T12:24:50Z</time>
      </trkpt>
      <trkpt lat="50.03292" lon="2.31015">
        <ele>135.6</ele>
        <time>2023-10-25T12:24:51Z</time>
      </trkpt>
      <trkpt lat="50.03293" lon="2.31015">
        <ele>135.6</ele>
        <time>2023-10-25T12:24:52Z</time>
      </trkpt>
      <trkpt lat="50.03294" lon="2.31014">
        <ele>135.6</ele>
        <time>2023-10-25T12:24:53Z</time>
      </trkpt>
      <trkpt lat="50.03295" lon="2.31014">
        <ele>135.6</ele>
        <time>2023-10-25T12:24:54Z</time>
      </trkpt>
      <trkpt lat="50.03296" lon="2.31014">
        <ele>135.6</ele>
        <time>2023-10-25T12:24:55Z</time>
      </trkpt>
      <trkpt lat="50.03297" lon="2.31013">
        <ele>135.6</ele>
        <time>2023-10-25T12:24:56Z</time>
      </trkpt>
      <trkpt lat="50.03298" lon="2.31013">
        <ele>135.6</ele>
        <time>2023-10-25T12:24:57Z</time>
      </trkpt>
      <trkpt lat="50.03299" lon="2.31013">
        <ele>135.6</ele>
        <time>2023-10-25T12:24:58Z</time>
      </trkpt>
      <trkpt lat="50.033" lon="2.31012">
        <ele>135.6</ele>
        <time>2023-10-25T12:24:59Z</time>
      </trkpt>
      <trkpt lat="50.03301" lon="2.31012">
        <ele>135.6</ele>
        <time>2023-10-25T12:25:00Z</time>
      </trkpt>
      <trkpt lat="50.03302" lon="2.31011">
        <ele>135.6</ele>
        <time>2023-10-25T12:25:01Z</time>
      </trkpt>
      <trkpt lat="50.03303" lon="2.31011">
        <ele>135.6</ele>
        <time>2023-10-25T12:25:02Z</time>
      </trkpt>
      <trkpt lat="50.03304" lon="2.3101">
        <ele>135.6</ele>
        <time>2023-10-25T12:25:03Z</time>
      </trkpt>
      <trkpt lat="50.03304" lon="2.3101">
        <ele>135.6</ele>
        <time>2023-10-25T12:25:04Z</time>
      </trkpt>
      <trkpt lat="50.03306" lon="2.31009">
        <ele>135.6</ele>
        <time>2023-10-25T12:25:05Z</time>
      </trkpt>
      <trkpt lat="50.03307" lon="2.31009">
        <ele>135.6</ele>
        <time>2023-10-25T12:25:06Z</time>
      </trkpt>
      <trkpt lat="50.03308" lon="2.31008">
        <ele>135.6</ele>
        <time>2023-10-25T12:25:07Z</time>
      </trkpt>
      <trkpt lat="50.03309" lon="2.31007">
        <ele>135.6</ele>
        <time>2023-10-25T12:25:08Z</time>
      </trkpt>
      <trkpt lat="50.0331" lon="2.31006">
        <ele>135.6</ele>
        <time>2023-10-25T12:25:09Z</time>
      </trkpt>
      <trkpt lat="50.03311" lon="2.31006">
        <ele>135.6</ele>
        <time>2023-10-25T12:25:10Z</time>
      </trkpt>
      <trkpt lat="50.03312" lon="2.31005">
        <ele>135.6</ele>
        <time>2023-10-25T12:25:11Z</time>
      </trkpt>
      <trkpt lat="50.03313" lon="2.31004">
        <ele>135.7</ele>
        <time>2023-10-25T12:25:12Z</time>
      </trkpt>
      <trkpt lat="50.03314" lon="2.31003">
        <ele>135.7</ele>
        <time>2023-10-25T12:25:13Z</time>
      </trkpt>
      <trkpt lat="50.03315" lon="2.31003">
        <ele>135.7</ele>
        <time>2023-10-25T12:25:14Z</time>
      </trkpt>
      <trkpt lat="50.03316" lon="2.31002">
        <ele>135.7</ele>
        <time>2023-10-25T12:25:15Z</time>
      </trkpt>
      <trkpt lat="50.03317" lon="2.31001">
        <ele>135.7</ele>
        <time>2023-10-25T12:25:16Z</time>
      </trkpt>
      <trkpt lat="50.03318" lon="2.31">
        <ele>135.7</ele>
        <time>2023-10-25T12:25:17Z</time>
      </trkpt>
      <trkpt lat="50.03319" lon="2.31">
        <ele>135.7</ele>
        <time>2023-10-25T12:25:18Z</time>
      </trkpt>
      <trkpt lat="50.03319" lon="2.30999">
        <ele>135.7</ele>
        <time>2023-10-25T12:25:19Z</time>
      </trkpt>
      <trkpt lat="50.03321" lon="2.30998">
        <ele>135.7</ele>
        <time>2023-10-25T12:25:20Z</time>
      </trkpt>
      <trkpt lat="50.03322" lon="2.30998">
        <ele>135.7</ele>
        <time>2023-10-25T12:25:21Z</time>
      </trkpt>
      <trkpt lat="50.03323" lon="2.30997">
        <ele>135.7</ele>
        <time>2023-10-25T12:25:22Z</time>
      </trkpt>
      <trkpt lat="50.03324" lon="2.30997">
        <ele>135.7</ele>
        <time>2023-10-25T12:25:23Z</time>
      </trkpt>
      <trkpt lat="50.03325" lon="2.30996">
        <ele>135.7</ele>
        <time>2023-10-25T12:25:24Z</time>
      </trkpt>
      <trkpt lat="50.03326" lon="2.30995">
        <ele>135.7</ele>
        <time>2023-10-25T12:25:25Z</time>
      </trkpt>
      <trkpt lat="50.03327" lon="2.30995">
        <ele>135.7</ele>
        <time>2023-10-25T12:25:26Z</time>
      </trkpt>
      <trkpt lat="50.03328" lon="2.30994">
        <ele>135.7</ele>
        <time>2023-10-25T12:25:27Z</time>
      </trkpt>
      <trkpt lat="50.03329" lon="2.30994">
        <ele>135.7</ele>
        <time>2023-10-25T12:25:28Z</time>
      </trkpt>
      <trkpt lat="50.0333" lon="2.30994">
        <ele>135.8</ele>
        <time>2023-10-25T12:25:29Z</time>
      </trkpt>
      <trkpt lat="50.03331" lon="2.30993">
        <ele>135.8</ele>
        <time>2023-10-25T12:25:30Z</time>
      </trkpt>
      <trkpt lat="50.03333" lon="2.30993">
        <ele>135.8</ele>
        <time>2023-10-25T12:25:31Z</time>
      </trkpt>
      <trkpt lat="50.03334" lon="2.30992">
        <ele>135.8</ele>
        <time>2023-10-25T12:25:32Z</time>
      </trkpt>
      <trkpt lat="50.03335" lon="2.30991">
        <ele>135.8</ele>
        <time>2023-10-25T12:25:33Z</time>
      </trkpt>
      <trkpt lat="50.03336" lon="2.30991">
        <ele>135.8</ele>
        <time>2023-10-25T12:25:34Z</time>
      </trkpt>
      <trkpt lat="50.03337" lon="2.3099">
        <ele>135.8</ele>
        <time>2023-10-25T12:25:35Z</time>
      </trkpt>
      <trkpt lat="50.03338" lon="2.3099">
        <ele>135.8</ele>
        <time>2023-10-25T12:25:36Z</time>
      </trkpt>
      <trkpt lat="50.03339" lon="2.30989">
        <ele>135.8</ele>
        <time>2023-10-25T12:25:37Z</time>
      </trkpt>
      <trkpt lat="50.0334" lon="2.30988">
        <ele>135.8</ele>
        <time>2023-10-25T12:25:38Z</time>
      </trkpt>
      <trkpt lat="50.03341" lon="2.30988">
        <ele>135.8</ele>
        <time>2023-10-25T12:25:39Z</time>
      </trkpt>
      <trkpt lat="50.03342" lon="2.30987">
        <ele>135.8</ele>
        <time>2023-10-25T12:25:40Z</time>
      </trkpt>
      <trkpt lat="50.03343" lon="2.30986">
        <ele>135.8</ele>
        <time>2023-10-25T12:25:41Z</time>
      </trkpt>
      <trkpt lat="50.03344" lon="2.30986">
        <ele>135.8</ele>
        <time>2023-10-25T12:25:42Z</time>
      </trkpt>
      <trkpt lat="50.03345" lon="2.30985">
        <ele>135.8</ele>
        <time>2023-10-25T12:25:43Z</time>
      </trkpt>
      <trkpt lat="50.03346" lon="2.30985">
        <ele>135.8</ele>
        <time>2023-10-25T12:25:44Z</time>
      </trkpt>
      <trkpt lat="50.03347" lon="2.30984">
        <ele>135.8</ele>
        <time>2023-10-25T12:25:45Z</time>
      </trkpt>
      <trkpt lat="50.03348" lon="2.30984">
        <ele>135.9</ele>
        <time>2023-10-25T12:25:46Z</time>
      </trkpt>
      <trkpt lat="50.03349" lon="2.30983">
        <ele>135.9</ele>
        <time>2023-10-25T12:25:47Z</time>
      </trkpt>
      <trkpt lat="50.0335" lon="2.30982">
        <ele>135.9</ele>
        <time>2023-10-25T12:25:48Z</time>
      </trkpt>
      <trkpt lat="50.03351" lon="2.30982">
        <ele>135.9</ele>
        <time>2023-10-25T12:25:49Z</time>
      </trkpt>
      <trkpt lat="50.03351" lon="2.30981">
        <ele>135.9</ele>
        <time>2023-10-25T12:25:50Z</time>
      </trkpt>
      <trkpt lat="50.03352" lon="2.3098">
        <ele>135.9</ele>
        <time>2023-10-25T12:25:51Z</time>
      </trkpt>
      <trkpt lat="50.03353" lon="2.3098">
        <ele>135.9</ele>
        <time>2023-10-25T12:25:52Z</time>
      </trkpt>
      <trkpt lat="50.03354" lon="2.30979">
        <ele>135.9</ele>
        <time>2023-10-25T12:25:53Z</time>
      </trkpt>
      <trkpt lat="50.03355" lon="2.30979">
        <ele>135.9</ele>
        <time>2023-10-25T12:25:54Z</time>
      </trkpt>
      <trkpt lat="50.03357" lon="2.30979">
        <ele>135.9</ele>
        <time>2023-10-25T12:25:55Z</time>
      </trkpt>
      <trkpt lat="50.03358" lon="2.30979">
        <ele>135.9</ele>
        <time>2023-10-25T12:25:56Z</time>
      </trkpt>
      <trkpt lat="50.03359" lon="2.30979">
        <ele>135.9</ele>
        <time>2023-10-25T12:25:57Z</time>
      </trkpt>
      <trkpt lat="50.0336" lon="2.30979">
        <ele>135.9</ele>
        <time>2023-10-25T12:25:58Z</time>
      </trkpt>
      <trkpt lat="50.03361" lon="2.30979">
        <ele>135.9</ele>
        <time>2023-10-25T12:25:59Z</time>
      </trkpt>
      <trkpt lat="50.03361" lon="2.30979">
        <ele>136</ele>
        <time>2023-10-25T12:26:00Z</time>
      </trkpt>
      <trkpt lat="50.03362" lon="2.30978">
        <ele>136</ele>
        <time>2023-10-25T12:26:01Z</time>
      </trkpt>
      <trkpt lat="50.03362" lon="2.30978">
        <ele>136</ele>
        <time>2023-10-25T12:26:02Z</time>
      </trkpt>
      <trkpt lat="50.03363" lon="2.30977">
        <ele>136</ele>
        <time>2023-10-25T12:26:03Z</time>
      </trkpt>
      <trkpt lat="50.03364" lon="2.30977">
        <ele>136</ele>
        <time>2023-10-25T12:26:04Z</time>
      </trkpt>
      <trkpt lat="50.03364" lon="2.30977">
        <ele>136</ele>
        <time>2023-10-25T12:26:05Z</time>
      </trkpt>
      <trkpt lat="50.03365" lon="2.30978">
        <ele>136</ele>
        <time>2023-10-25T12:26:06Z</time>
      </trkpt>
      <trkpt lat="50.03365" lon="2.30979">
        <ele>136</ele>
        <time>2023-10-25T12:26:07Z</time>
      </trkpt>
      <trkpt lat="50.03365" lon="2.30979">
        <ele>136</ele>
        <time>2023-10-25T12:26:08Z</time>
      </trkpt>
      <trkpt lat="50.03365" lon="2.30979">
        <ele>136</ele>
        <time>2023-10-25T12:26:09Z</time>
      </trkpt>
      <trkpt lat="50.03365" lon="2.30979">
        <ele>136</ele>
        <time>2023-10-25T12:26:10Z</time>
      </trkpt>
      <trkpt lat="50.03365" lon="2.30979">
        <ele>136</ele>
        <time>2023-10-25T12:26:11Z</time>
      </trkpt>
      <trkpt lat="50.03365" lon="2.3098">
        <ele>136</ele>
        <time>2023-10-25T12:26:12Z</time>
      </trkpt>
      <trkpt lat="50.03364" lon="2.3098">
        <ele>136</ele>
        <time>2023-10-25T12:26:13Z</time>
      </trkpt>
      <trkpt lat="50.03364" lon="2.3098">
        <ele>136</ele>
        <time>2023-10-25T12:26:14Z</time>
      </trkpt>
      <trkpt lat="50.03364" lon="2.3098">
        <ele>136</ele>
        <time>2023-10-25T12:26:15Z</time>
      </trkpt>
      <trkpt lat="50.03364" lon="2.3098">
        <ele>136</ele>
        <time>2023-10-25T12:26:16Z</time>
      </trkpt>
      <trkpt lat="50.03364" lon="2.3098">
        <ele>136</ele>
        <time>2023-10-25T12:26:17Z</time>
      </trkpt>
      <trkpt lat="50.03364" lon="2.3098">
        <ele>136</ele>
        <time>2023-10-25T12:26:18Z</time>
      </trkpt>
      <trkpt lat="50.03364" lon="2.3098">
        <ele>136</ele>
        <time>2023-10-25T12:26:19Z</time>
      </trkpt>
      <trkpt lat="50.03364" lon="2.3098">
        <ele>136</ele>
        <time>2023-10-25T12:26:20Z</time>
      </trkpt>
      <trkpt lat="50.03364" lon="2.3098">
        <ele>136</ele>
        <time>2023-10-25T12:26:21Z</time>
      </trkpt>
      <trkpt lat="50.03364" lon="2.3098">
        <ele>136</ele>
        <time>2023-10-25T12:26:22Z</time>
      </trkpt>
      <trkpt lat="50.03364" lon="2.3098">
        <ele>136</ele>
        <time>2023-10-25T12:26:23Z</time>
      </trkpt>
      <trkpt lat="50.03364" lon="2.3098">
        <ele>136</ele>
        <time>2023-10-25T12:26:24Z</time>
      </trkpt>
      <trkpt lat="50.03361" lon="2.3098">
        <ele>136</ele>
        <time>2023-10-25T12:26:49Z</time>
      </trkpt>
      <trkpt lat="50.0336" lon="2.3098">
        <ele>136</ele>
        <time>2023-10-25T12:26:50Z</time>
      </trkpt>
      <trkpt lat="50.0336" lon="2.3098">
        <ele>136</ele>
        <time>2023-10-25T12:26:51Z</time>
      </trkpt>
      <trkpt lat="50.03361" lon="2.3098">
        <ele>136</ele>
        <time>2023-10-25T12:26:52Z</time>
      </trkpt>
      <trkpt lat="50.03363" lon="2.3098">
        <ele>136</ele>
        <time>2023-10-25T12:26:53Z</time>
      </trkpt>
      <trkpt lat="50.03364" lon="2.30979">
        <ele>136</ele>
        <time>2023-10-25T12:26:54Z</time>
      </trkpt>
      <trkpt lat="50.03365" lon="2.30979">
        <ele>136</ele>
        <time>2023-10-25T12:26:55Z</time>
      </trkpt>
      <trkpt lat="50.03367" lon="2.30978">
        <ele>136</ele>
        <time>2023-10-25T12:26:56Z</time>
      </trkpt>
      <trkpt lat="50.03368" lon="2.30977">
        <ele>136</ele>
        <time>2023-10-25T12:26:57Z</time>
      </trkpt>
      <trkpt lat="50.0337" lon="2.30977">
        <ele>136</ele>
        <time>2023-10-25T12:26:58Z</time>
      </trkpt>
      <trkpt lat="50.03372" lon="2.30976">
        <ele>136</ele>
        <time>2023-10-25T12:26:59Z</time>
      </trkpt>
      <trkpt lat="50.03373" lon="2.30976">
        <ele>136</ele>
        <time>2023-10-25T12:27:00Z</time>
      </trkpt>
      <trkpt lat="50.03374" lon="2.30976">
        <ele>136</ele>
        <time>2023-10-25T12:27:01Z</time>
      </trkpt>
      <trkpt lat="50.03375" lon="2.30976">
        <ele>136</ele>
        <time>2023-10-25T12:27:02Z</time>
      </trkpt>
      <trkpt lat="50.03376" lon="2.30976">
        <ele>136.1</ele>
        <time>2023-10-25T12:27:03Z</time>
      </trkpt>
      <trkpt lat="50.03377" lon="2.30976">
        <ele>136.1</ele>
        <time>2023-10-25T12:27:04Z</time>
      </trkpt>
      <trkpt lat="50.03377" lon="2.30976">
        <ele>136.1</ele>
        <time>2023-10-25T12:27:05Z</time>
      </trkpt>
      <trkpt lat="50.03378" lon="2.30976">
        <ele>136.1</ele>
        <time>2023-10-25T12:27:06Z</time>
      </trkpt>
      <trkpt lat="50.03379" lon="2.30976">
        <ele>136.1</ele>
        <time>2023-10-25T12:27:07Z</time>
      </trkpt>
      <trkpt lat="50.0338" lon="2.30976">
        <ele>136.1</ele>
        <time>2023-10-25T12:27:08Z</time>
      </trkpt>
      <trkpt lat="50.03381" lon="2.30976">
        <ele>136.1</ele>
        <time>2023-10-25T12:27:09Z</time>
      </trkpt>
      <trkpt lat="50.03382" lon="2.30976">
        <ele>136.1</ele>
        <time>2023-10-25T12:27:10Z</time>
      </trkpt>
      <trkpt lat="50.03382" lon="2.30977">
        <ele>136.1</ele>
        <time>2023-10-25T12:27:11Z</time>
      </trkpt>
      <trkpt lat="50.03383" lon="2.30977">
        <ele>136.1</ele>
        <time>2023-10-25T12:27:12Z</time>
      </trkpt>
      <trkpt lat="50.03384" lon="2.30977">
        <ele>136.1</ele>
        <time>2023-10-25T12:27:13Z</time>
      </trkpt>
      <trkpt lat="50.03385" lon="2.30977">
        <ele>136.1</ele>
        <time>2023-10-25T12:27:14Z</time>
      </trkpt>
      <trkpt lat="50.03386" lon="2.30977">
        <ele>136.1</ele>
        <time>2023-10-25T12:27:15Z</time>
      </trkpt>
      <trkpt lat="50.03387" lon="2.30978">
        <ele>136.1</ele>
        <time>2023-10-25T12:27:16Z</time>
      </trkpt>
      <trkpt lat="50.03388" lon="2.30978">
        <ele>136.1</ele>
        <time>2023-10-25T12:27:17Z</time>
      </trkpt>
      <trkpt lat="50.0339" lon="2.30978">
        <ele>136.1</ele>
        <time>2023-10-25T12:27:18Z</time>
      </trkpt>
      <trkpt lat="50.03391" lon="2.30978">
        <ele>136.1</ele>
        <time>2023-10-25T12:27:19Z</time>
      </trkpt>
      <trkpt lat="50.03392" lon="2.30978">
        <ele>136.1</ele>
        <time>2023-10-25T12:27:20Z</time>
      </trkpt>
      <trkpt lat="50.03392" lon="2.30979">
        <ele>136.1</ele>
        <time>2023-10-25T12:27:21Z</time>
      </trkpt>
      <trkpt lat="50.03393" lon="2.30979">
        <ele>136.1</ele>
        <time>2023-10-25T12:27:22Z</time>
      </trkpt>
      <trkpt lat="50.03394" lon="2.30979">
        <ele>136.1</ele>
        <time>2023-10-25T12:27:23Z</time>
      </trkpt>
      <trkpt lat="50.03395" lon="2.30979">
        <ele>136.1</ele>
        <time>2023-10-25T12:27:24Z</time>
      </trkpt>
      <trkpt lat="50.03396" lon="2.30979">
        <ele>136.1</ele>
        <time>2023-10-25T12:27:25Z</time>
      </trkpt>
      <trkpt lat="50.03397" lon="2.30979">
        <ele>136.1</ele>
        <time>2023-10-25T12:27:26Z</time>
      </trkpt>
      <trkpt lat="50.03398" lon="2.30979">
        <ele>136.1</ele>
        <time>2023-10-25T12:27:27Z</time>
      </trkpt>
      <trkpt lat="50.03399" lon="2.30979">
        <ele>136.1</ele>
        <time>2023-10-25T12:27:28Z</time>
      </trkpt>
      <trkpt lat="50.034" lon="2.30979">
        <ele>136.1</ele>
        <time>2023-10-25T12:27:29Z</time>
      </trkpt>
      <trkpt lat="50.03401" lon="2.30979">
        <ele>136.1</ele>
        <time>2023-10-25T12:27:30Z</time>
      </trkpt>
      <trkpt lat="50.03402" lon="2.30979">
        <ele>136.1</ele>
        <time>2023-10-25T12:27:31Z</time>
      </trkpt>
      <trkpt lat="50.03403" lon="2.30979">
        <ele>136.1</ele>
        <time>2023-10-25T12:27:32Z</time>
      </trkpt>
      <trkpt lat="50.03404" lon="2.30979">
        <ele>136.1</ele>
        <time>2023-10-25T12:27:33Z</time>
      </trkpt>
      <trkpt lat="50.03405" lon="2.3098">
        <ele>136.1</ele>
        <time>2023-10-25T12:27:34Z</time>
      </trkpt>
      <trkpt lat="50.03406" lon="2.3098">
        <ele>136.1</ele>
        <time>2023-10-25T12:27:35Z</time>
      </trkpt>
      <trkpt lat="50.03407" lon="2.3098">
        <ele>136.1</ele>
        <time>2023-10-25T12:27:36Z</time>
      </trkpt>
      <trkpt lat="50.03408" lon="2.3098">
        <ele>136.1</ele>
        <time>2023-10-25T12:27:37Z</time>
      </trkpt>
      <trkpt lat="50.0341" lon="2.3098">
        <ele>136.1</ele>
        <time>2023-10-25T12:27:38Z</time>
      </trkpt>
      <trkpt lat="50.03411" lon="2.3098">
        <ele>136.1</ele>
        <time>2023-10-25T12:27:39Z</time>
      </trkpt>
      <trkpt lat="50.03412" lon="2.30981">
        <ele>136.1</ele>
        <time>2023-10-25T12:27:40Z</time>
      </trkpt>
      <trkpt lat="50.03413" lon="2.30981">
        <ele>136.1</ele>
        <time>2023-10-25T12:27:41Z</time>
      </trkpt>
      <trkpt lat="50.03414" lon="2.30981">
        <ele>136.1</ele>
        <time>2023-10-25T12:27:42Z</time>
      </trkpt>
      <trkpt lat="50.03415" lon="2.30981">
        <ele>136.1</ele>
        <time>2023-10-25T12:27:43Z</time>
      </trkpt>
      <trkpt lat="50.03416" lon="2.30982">
        <ele>136.1</ele>
        <time>2023-10-25T12:27:44Z</time>
      </trkpt>
      <trkpt lat="50.03417" lon="2.30982">
        <ele>136.1</ele>
        <time>2023-10-25T12:27:45Z</time>
      </trkpt>
      <trkpt lat="50.03418" lon="2.30983">
        <ele>136.1</ele>
        <time>2023-10-25T12:27:46Z</time>
      </trkpt>
      <trkpt lat="50.03419" lon="2.30983">
        <ele>136.1</ele>
        <time>2023-10-25T12:27:47Z</time>
      </trkpt>
      <trkpt lat="50.0342" lon="2.30984">
        <ele>136.1</ele>
        <time>2023-10-25T12:27:48Z</time>
      </trkpt>
      <trkpt lat="50.03421" lon="2.30984">
        <ele>136.1</ele>
        <time>2023-10-25T12:27:49Z</time>
      </trkpt>
      <trkpt lat="50.03422" lon="2.30984">
        <ele>136.2</ele>
        <time>2023-10-25T12:27:50Z</time>
      </trkpt>
      <trkpt lat="50.03423" lon="2.30985">
        <ele>136.2</ele>
        <time>2023-10-25T12:27:51Z</time>
      </trkpt>
      <trkpt lat="50.03424" lon="2.30985">
        <ele>136.2</ele>
        <time>2023-10-25T12:27:52Z</time>
      </trkpt>
      <trkpt lat="50.03425" lon="2.30985">
        <ele>136.2</ele>
        <time>2023-10-25T12:27:53Z</time>
      </trkpt>
      <trkpt lat="50.03426" lon="2.30985">
        <ele>136.2</ele>
        <time>2023-10-25T12:27:54Z</time>
      </trkpt>
      <trkpt lat="50.03427" lon="2.30985">
        <ele>136.2</ele>
        <time>2023-10-25T12:27:55Z</time>
      </trkpt>
      <trkpt lat="50.03428" lon="2.30985">
        <ele>136.2</ele>
        <time>2023-10-25T12:27:56Z</time>
      </trkpt>
      <trkpt lat="50.03429" lon="2.30985">
        <ele>136.2</ele>
        <time>2023-10-25T12:27:57Z</time>
      </trkpt>
      <trkpt lat="50.0343" lon="2.30986">
        <ele>136.2</ele>
        <time>2023-10-25T12:27:58Z</time>
      </trkpt>
      <trkpt lat="50.03431" lon="2.30985">
        <ele>136.2</ele>
        <time>2023-10-25T12:27:59Z</time>
      </trkpt>
      <trkpt lat="50.03432" lon="2.30985">
        <ele>136.2</ele>
        <time>2023-10-25T12:28:00Z</time>
      </trkpt>
      <trkpt lat="50.03433" lon="2.30985">
        <ele>136.2</ele>
        <time>2023-10-25T12:28:01Z</time>
      </trkpt>
      <trkpt lat="50.03434" lon="2.30986">
        <ele>136.2</ele>
        <time>2023-10-25T12:28:02Z</time>
      </trkpt>
      <trkpt lat="50.03435" lon="2.30986">
        <ele>136.2</ele>
        <time>2023-10-25T12:28:03Z</time>
      </trkpt>
      <trkpt lat="50.03436" lon="2.30986">
        <ele>136.2</ele>
        <time>2023-10-25T12:28:04Z</time>
      </trkpt>
      <trkpt lat="50.03437" lon="2.30987">
        <ele>136.2</ele>
        <time>2023-10-25T12:28:05Z</time>
      </trkpt>
      <trkpt lat="50.03439" lon="2.30987">
        <ele>136.2</ele>
        <time>2023-10-25T12:28:06Z</time>
      </trkpt>
      <trkpt lat="50.03439" lon="2.30988">
        <ele>136.2</ele>
        <time>2023-10-25T12:28:07Z</time>
      </trkpt>
      <trkpt lat="50.03441" lon="2.30988">
        <ele>136.2</ele>
        <time>2023-10-25T12:28:08Z</time>
      </trkpt>
      <trkpt lat="50.03442" lon="2.30989">
        <ele>136.2</ele>
        <time>2023-10-25T12:28:09Z</time>
      </trkpt>
      <trkpt lat="50.03443" lon="2.30989">
        <ele>136.2</ele>
        <time>2023-10-25T12:28:10Z</time>
      </trkpt>
      <trkpt lat="50.03444" lon="2.30989">
        <ele>136.2</ele>
        <time>2023-10-25T12:28:11Z</time>
      </trkpt>
      <trkpt lat="50.03445" lon="2.3099">
        <ele>136.2</ele>
        <time>2023-10-25T12:28:12Z</time>
      </trkpt>
      <trkpt lat="50.03447" lon="2.30991">
        <ele>136.2</ele>
        <time>2023-10-25T12:28:13Z</time>
      </trkpt>
      <trkpt lat="50.03448" lon="2.30991">
        <ele>136.2</ele>
        <time>2023-10-25T12:28:14Z</time>
      </trkpt>
      <trkpt lat="50.03449" lon="2.30991">
        <ele>136.2</ele>
        <time>2023-10-25T12:28:15Z</time>
      </trkpt>
      <trkpt lat="50.0345" lon="2.30992">
        <ele>136.2</ele>
        <time>2023-10-25T12:28:16Z</time>
      </trkpt>
      <trkpt lat="50.03451" lon="2.30992">
        <ele>136.2</ele>
        <time>2023-10-25T12:28:17Z</time>
      </trkpt>
      <trkpt lat="50.03452" lon="2.30992">
        <ele>136.2</ele>
        <time>2023-10-25T12:28:18Z</time>
      </trkpt>
      <trkpt lat="50.03453" lon="2.30993">
        <ele>136.2</ele>
        <time>2023-10-25T12:28:19Z</time>
      </trkpt>
      <trkpt lat="50.03454" lon="2.30993">
        <ele>136.2</ele>
        <time>2023-10-25T12:28:20Z</time>
      </trkpt>
      <trkpt lat="50.03455" lon="2.30993">
        <ele>136.2</ele>
        <time>2023-10-25T12:28:21Z</time>
      </trkpt>
      <trkpt lat="50.03456" lon="2.30993">
        <ele>136.2</ele>
        <time>2023-10-25T12:28:22Z</time>
      </trkpt>
      <trkpt lat="50.03457" lon="2.30994">
        <ele>136.2</ele>
        <time>2023-10-25T12:28:23Z</time>
      </trkpt>
      <trkpt lat="50.03458" lon="2.30994">
        <ele>136.2</ele>
        <time>2023-10-25T12:28:24Z</time>
      </trkpt>
      <trkpt lat="50.03459" lon="2.30994">
        <ele>136.2</ele>
        <time>2023-10-25T12:28:25Z</time>
      </trkpt>
      <trkpt lat="50.0346" lon="2.30994">
        <ele>136.2</ele>
        <time>2023-10-25T12:28:26Z</time>
      </trkpt>
      <trkpt lat="50.03461" lon="2.30994">
        <ele>136.2</ele>
        <time>2023-10-25T12:28:27Z</time>
      </trkpt>
      <trkpt lat="50.03462" lon="2.30994">
        <ele>136.2</ele>
        <time>2023-10-25T12:28:28Z</time>
      </trkpt>
      <trkpt lat="50.03463" lon="2.30994">
        <ele>136.2</ele>
        <time>2023-10-25T12:28:29Z</time>
      </trkpt>
      <trkpt lat="50.03465" lon="2.30994">
        <ele>136.2</ele>
        <time>2023-10-25T12:28:30Z</time>
      </trkpt>
      <trkpt lat="50.03466" lon="2.30995">
        <ele>136.2</ele>
        <time>2023-10-25T12:28:31Z</time>
      </trkpt>
      <trkpt lat="50.03467" lon="2.30995">
        <ele>136.2</ele>
        <time>2023-10-25T12:28:32Z</time>
      </trkpt>
      <trkpt lat="50.03468" lon="2.30995">
        <ele>136.2</ele>
        <time>2023-10-25T12:28:33Z</time>
      </trkpt>
      <trkpt lat="50.03469" lon="2.30996">
        <ele>136.2</ele>
        <time>2023-10-25T12:28:34Z</time>
      </trkpt>
      <trkpt lat="50.0347" lon="2.30996">
        <ele>136.2</ele>
        <time>2023-10-25T12:28:35Z</time>
      </trkpt>
      <trkpt lat="50.03471" lon="2.30996">
        <ele>136.2</ele>
        <time>2023-10-25T12:28:36Z</time>
      </trkpt>
      <trkpt lat="50.03472" lon="2.30996">
        <ele>136.2</ele>
        <time>2023-10-25T12:28:37Z</time>
      </trkpt>
      <trkpt lat="50.03473" lon="2.30996">
        <ele>136.2</ele>
        <time>2023-10-25T12:28:38Z</time>
      </trkpt>
      <trkpt lat="50.03474" lon="2.30996">
        <ele>136.2</ele>
        <time>2023-10-25T12:28:39Z</time>
      </trkpt>
      <trkpt lat="50.03475" lon="2.30997">
        <ele>136.3</ele>
        <time>2023-10-25T12:28:40Z</time>
      </trkpt>
      <trkpt lat="50.03476" lon="2.30997">
        <ele>136.3</ele>
        <time>2023-10-25T12:28:41Z</time>
      </trkpt>
      <trkpt lat="50.03477" lon="2.30997">
        <ele>136.3</ele>
        <time>2023-10-25T12:28:42Z</time>
      </trkpt>
      <trkpt lat="50.03478" lon="2.30997">
        <ele>136.3</ele>
        <time>2023-10-25T12:28:43Z</time>
      </trkpt>
      <trkpt lat="50.03479" lon="2.30997">
        <ele>136.3</ele>
        <time>2023-10-25T12:28:44Z</time>
      </trkpt>
      <trkpt lat="50.0348" lon="2.30997">
        <ele>136.3</ele>
        <time>2023-10-25T12:28:45Z</time>
      </trkpt>
      <trkpt lat="50.03481" lon="2.30997">
        <ele>136.3</ele>
        <time>2023-10-25T12:28:46Z</time>
      </trkpt>
      <trkpt lat="50.03482" lon="2.30998">
        <ele>136.3</ele>
        <time>2023-10-25T12:28:47Z</time>
      </trkpt>
      <trkpt lat="50.03483" lon="2.30998">
        <ele>136.3</ele>
        <time>2023-10-25T12:28:48Z</time>
      </trkpt>
      <trkpt lat="50.03485" lon="2.30998">
        <ele>136.3</ele>
        <time>2023-10-25T12:28:49Z</time>
      </trkpt>
      <trkpt lat="50.03486" lon="2.30998">
        <ele>136.3</ele>
        <time>2023-10-25T12:28:50Z</time>
      </trkpt>
      <trkpt lat="50.03487" lon="2.30998">
        <ele>136.3</ele>
        <time>2023-10-25T12:28:51Z</time>
      </trkpt>
      <trkpt lat="50.03488" lon="2.30998">
        <ele>136.3</ele>
        <time>2023-10-25T12:28:52Z</time>
      </trkpt>
      <trkpt lat="50.03489" lon="2.30998">
        <ele>136.3</ele>
        <time>2023-10-25T12:28:53Z</time>
      </trkpt>
      <trkpt lat="50.0349" lon="2.30998">
        <ele>136.3</ele>
        <time>2023-10-25T12:28:54Z</time>
      </trkpt>
      <trkpt lat="50.03491" lon="2.30999">
        <ele>136.3</ele>
        <time>2023-10-25T12:28:55Z</time>
      </trkpt>
      <trkpt lat="50.03492" lon="2.30999">
        <ele>136.3</ele>
        <time>2023-10-25T12:28:56Z</time>
      </trkpt>
      <trkpt lat="50.03493" lon="2.30999">
        <ele>136.3</ele>
        <time>2023-10-25T12:28:57Z</time>
      </trkpt>
      <trkpt lat="50.03494" lon="2.30999">
        <ele>136.3</ele>
        <time>2023-10-25T12:28:58Z</time>
      </trkpt>
      <trkpt lat="50.03495" lon="2.30999">
        <ele>136.3</ele>
        <time>2023-10-25T12:28:59Z</time>
      </trkpt>
      <trkpt lat="50.03495" lon="2.30999">
        <ele>136.3</ele>
        <time>2023-10-25T12:29:00Z</time>
      </trkpt>
      <trkpt lat="50.03496" lon="2.30999">
        <ele>136.4</ele>
        <time>2023-10-25T12:29:01Z</time>
      </trkpt>
      <trkpt lat="50.03497" lon="2.31">
        <ele>136.4</ele>
        <time>2023-10-25T12:29:02Z</time>
      </trkpt>
      <trkpt lat="50.03498" lon="2.31">
        <ele>136.4</ele>
        <time>2023-10-25T12:29:03Z</time>
      </trkpt>
      <trkpt lat="50.03499" lon="2.31">
        <ele>136.4</ele>
        <time>2023-10-25T12:29:04Z</time>
      </trkpt>
      <trkpt lat="50.035" lon="2.31">
        <ele>136.4</ele>
        <time>2023-10-25T12:29:05Z</time>
      </trkpt>
      <trkpt lat="50.03502" lon="2.31">
        <ele>136.4</ele>
        <time>2023-10-25T12:29:06Z</time>
      </trkpt>
      <trkpt lat="50.03503" lon="2.31001">
        <ele>136.4</ele>
        <time>2023-10-25T12:29:07Z</time>
      </trkpt>
      <trkpt lat="50.03504" lon="2.31001">
        <ele>136.4</ele>
        <time>2023-10-25T12:29:08Z</time>
      </trkpt>
      <trkpt lat="50.03504" lon="2.31002">
        <ele>136.4</ele>
        <time>2023-10-25T12:29:09Z</time>
      </trkpt>
      <trkpt lat="50.03505" lon="2.31003">
        <ele>136.4</ele>
        <time>2023-10-25T12:29:10Z</time>
      </trkpt>
      <trkpt lat="50.03506" lon="2.31004">
        <ele>136.4</ele>
        <time>2023-10-25T12:29:11Z</time>
      </trkpt>
      <trkpt lat="50.03507" lon="2.31005">
        <ele>136.4</ele>
        <time>2023-10-25T12:29:12Z</time>
      </trkpt>
      <trkpt lat="50.03508" lon="2.31005">
        <ele>136.4</ele>
        <time>2023-10-25T12:29:13Z</time>
      </trkpt>
      <trkpt lat="50.03508" lon="2.31006">
        <ele>136.4</ele>
        <time>2023-10-25T12:29:14Z</time>
      </trkpt>
      <trkpt lat="50.03509" lon="2.31006">
        <ele>136.4</ele>
        <time>2023-10-25T12:29:15Z</time>
      </trkpt>
      <trkpt lat="50.0351" lon="2.31006">
        <ele>136.4</ele>
        <time>2023-10-25T12:29:16Z</time>
      </trkpt>
      <trkpt lat="50.03511" lon="2.31006">
        <ele>136.4</ele>
        <time>2023-10-25T12:29:17Z</time>
      </trkpt>
      <trkpt lat="50.03512" lon="2.31005">
        <ele>136.4</ele>
        <time>2023-10-25T12:29:18Z</time>
      </trkpt>
      <trkpt lat="50.03514" lon="2.31005">
        <ele>136.4</ele>
        <time>2023-10-25T12:29:19Z</time>
      </trkpt>
      <trkpt lat="50.03515" lon="2.31005">
        <ele>136.4</ele>
        <time>2023-10-25T12:29:20Z</time>
      </trkpt>
      <trkpt lat="50.03516" lon="2.31005">
        <ele>136.4</ele>
        <time>2023-10-25T12:29:21Z</time>
      </trkpt>
      <trkpt lat="50.03518" lon="2.31005">
        <ele>136.4</ele>
        <time>2023-10-25T12:29:22Z</time>
      </trkpt>
      <trkpt lat="50.03519" lon="2.31005">
        <ele>136.4</ele>
        <time>2023-10-25T12:29:23Z</time>
      </trkpt>
      <trkpt lat="50.0352" lon="2.31005">
        <ele>136.4</ele>
        <time>2023-10-25T12:29:24Z</time>
      </trkpt>
      <trkpt lat="50.03521" lon="2.31005">
        <ele>136.4</ele>
        <time>2023-10-25T12:29:25Z</time>
      </trkpt>
      <trkpt lat="50.03522" lon="2.31005">
        <ele>136.4</ele>
        <time>2023-10-25T12:29:26Z</time>
      </trkpt>
      <trkpt lat="50.03523" lon="2.31005">
        <ele>136.4</ele>
        <time>2023-10-25T12:29:27Z</time>
      </trkpt>
      <trkpt lat="50.03524" lon="2.31005">
        <ele>136.4</ele>
        <time>2023-10-25T12:29:28Z</time>
      </trkpt>
      <trkpt lat="50.03525" lon="2.31005">
        <ele>136.5</ele>
        <time>2023-10-25T12:29:29Z</time>
      </trkpt>
      <trkpt lat="50.03526" lon="2.31005">
        <ele>136.5</ele>
        <time>2023-10-25T12:29:30Z</time>
      </trkpt>
      <trkpt lat="50.03527" lon="2.31005">
        <ele>136.5</ele>
        <time>2023-10-25T12:29:31Z</time>
      </trkpt>
      <trkpt lat="50.03528" lon="2.31005">
        <ele>136.5</ele>
        <time>2023-10-25T12:29:32Z</time>
      </trkpt>
      <trkpt lat="50.03529" lon="2.31005">
        <ele>136.5</ele>
        <time>2023-10-25T12:29:33Z</time>
      </trkpt>
      <trkpt lat="50.03531" lon="2.31006">
        <ele>136.5</ele>
        <time>2023-10-25T12:29:34Z</time>
      </trkpt>
      <trkpt lat="50.03532" lon="2.31006">
        <ele>136.5</ele>
        <time>2023-10-25T12:29:35Z</time>
      </trkpt>
      <trkpt lat="50.03533" lon="2.31006">
        <ele>136.5</ele>
        <time>2023-10-25T12:29:36Z</time>
      </trkpt>
      <trkpt lat="50.03535" lon="2.31006">
        <ele>136.5</ele>
        <time>2023-10-25T12:29:37Z</time>
      </trkpt>
      <trkpt lat="50.03535" lon="2.31006">
        <ele>136.5</ele>
        <time>2023-10-25T12:29:38Z</time>
      </trkpt>
      <trkpt lat="50.03536" lon="2.31006">
        <ele>136.5</ele>
        <time>2023-10-25T12:29:39Z</time>
      </trkpt>
      <trkpt lat="50.03537" lon="2.31006">
        <ele>136.5</ele>
        <time>2023-10-25T12:29:40Z</time>
      </trkpt>
      <trkpt lat="50.03538" lon="2.31007">
        <ele>136.5</ele>
        <time>2023-10-25T12:29:41Z</time>
      </trkpt>
      <trkpt lat="50.03539" lon="2.31007">
        <ele>136.5</ele>
        <time>2023-10-25T12:29:42Z</time>
      </trkpt>
      <trkpt lat="50.03541" lon="2.31007">
        <ele>136.5</ele>
        <time>2023-10-25T12:29:43Z</time>
      </trkpt>
      <trkpt lat="50.03542" lon="2.31007">
        <ele>136.6</ele>
        <time>2023-10-25T12:29:44Z</time>
      </trkpt>
      <trkpt lat="50.03543" lon="2.31007">
        <ele>136.6</ele>
        <time>2023-10-25T12:29:45Z</time>
      </trkpt>
      <trkpt lat="50.03545" lon="2.31007">
        <ele>136.6</ele>
        <time>2023-10-25T12:29:46Z</time>
      </trkpt>
      <trkpt lat="50.03546" lon="2.31007">
        <ele>136.6</ele>
        <time>2023-10-25T12:29:47Z</time>
      </trkpt>
      <trkpt lat="50.03547" lon="2.31007">
        <ele>136.6</ele>
        <time>2023-10-25T12:29:48Z</time>
      </trkpt>
      <trkpt lat="50.03548" lon="2.31008">
        <ele>136.6</ele>
        <time>2023-10-25T12:29:49Z</time>
      </trkpt>
      <trkpt lat="50.03549" lon="2.31008">
        <ele>136.6</ele>
        <time>2023-10-25T12:29:50Z</time>
      </trkpt>
      <trkpt lat="50.0355" lon="2.31008">
        <ele>136.6</ele>
        <time>2023-10-25T12:29:51Z</time>
      </trkpt>
      <trkpt lat="50.03551" lon="2.31008">
        <ele>136.6</ele>
        <time>2023-10-25T12:29:52Z</time>
      </trkpt>
      <trkpt lat="50.03552" lon="2.31008">
        <ele>136.6</ele>
        <time>2023-10-25T12:29:53Z</time>
      </trkpt>
      <trkpt lat="50.03553" lon="2.31008">
        <ele>136.6</ele>
        <time>2023-10-25T12:29:54Z</time>
      </trkpt>
      <trkpt lat="50.03554" lon="2.31008">
        <ele>136.6</ele>
        <time>2023-10-25T12:29:55Z</time>
      </trkpt>
      <trkpt lat="50.03555" lon="2.31009">
        <ele>136.6</ele>
        <time>2023-10-25T12:29:56Z</time>
      </trkpt>
      <trkpt lat="50.03556" lon="2.31009">
        <ele>136.6</ele>
        <time>2023-10-25T12:29:57Z</time>
      </trkpt>
      <trkpt lat="50.03558" lon="2.31009">
        <ele>136.6</ele>
        <time>2023-10-25T12:29:58Z</time>
      </trkpt>
      <trkpt lat="50.03559" lon="2.31009">
        <ele>136.6</ele>
        <time>2023-10-25T12:29:59Z</time>
      </trkpt>
      <trkpt lat="50.0356" lon="2.3101">
        <ele>136.6</ele>
        <time>2023-10-25T12:30:00Z</time>
      </trkpt>
      <trkpt lat="50.0356" lon="2.3101">
        <ele>136.6</ele>
        <time>2023-10-25T12:30:01Z</time>
      </trkpt>
      <trkpt lat="50.03561" lon="2.3101">
        <ele>136.6</ele>
        <time>2023-10-25T12:30:02Z</time>
      </trkpt>
      <trkpt lat="50.03563" lon="2.3101">
        <ele>136.6</ele>
        <time>2023-10-25T12:30:03Z</time>
      </trkpt>
      <trkpt lat="50.03564" lon="2.31011">
        <ele>136.6</ele>
        <time>2023-10-25T12:30:04Z</time>
      </trkpt>
      <trkpt lat="50.03565" lon="2.31011">
        <ele>136.6</ele>
        <time>2023-10-25T12:30:05Z</time>
      </trkpt>
      <trkpt lat="50.03566" lon="2.31011">
        <ele>136.6</ele>
        <time>2023-10-25T12:30:06Z</time>
      </trkpt>
      <trkpt lat="50.03567" lon="2.31012">
        <ele>136.6</ele>
        <time>2023-10-25T12:30:07Z</time>
      </trkpt>
      <trkpt lat="50.03568" lon="2.31012">
        <ele>136.6</ele>
        <time>2023-10-25T12:30:08Z</time>
      </trkpt>
      <trkpt lat="50.03569" lon="2.31012">
        <ele>136.6</ele>
        <time>2023-10-25T12:30:09Z</time>
      </trkpt>
      <trkpt lat="50.0357" lon="2.31013">
        <ele>136.6</ele>
        <time>2023-10-25T12:30:10Z</time>
      </trkpt>
      <trkpt lat="50.03571" lon="2.31013">
        <ele>136.6</ele>
        <time>2023-10-25T12:30:11Z</time>
      </trkpt>
      <trkpt lat="50.03572" lon="2.31013">
        <ele>136.6</ele>
        <time>2023-10-25T12:30:12Z</time>
      </trkpt>
      <trkpt lat="50.03573" lon="2.31013">
        <ele>136.6</ele>
        <time>2023-10-25T12:30:13Z</time>
      </trkpt>
      <trkpt lat="50.03574" lon="2.31014">
        <ele>136.6</ele>
        <time>2023-10-25T12:30:14Z</time>
      </trkpt>
      <trkpt lat="50.03575" lon="2.31014">
        <ele>136.6</ele>
        <time>2023-10-25T12:30:15Z</time>
      </trkpt>
      <trkpt lat="50.03576" lon="2.31014">
        <ele>136.6</ele>
        <time>2023-10-25T12:30:16Z</time>
      </trkpt>
      <trkpt lat="50.03577" lon="2.31014">
        <ele>136.6</ele>
        <time>2023-10-25T12:30:17Z</time>
      </trkpt>
      <trkpt lat="50.03579" lon="2.31014">
        <ele>136.5</ele>
        <time>2023-10-25T12:30:18Z</time>
      </trkpt>
      <trkpt lat="50.0358" lon="2.31015">
        <ele>136.5</ele>
        <time>2023-10-25T12:30:19Z</time>
      </trkpt>
      <trkpt lat="50.03581" lon="2.31015">
        <ele>136.5</ele>
        <time>2023-10-25T12:30:20Z</time>
      </trkpt>
      <trkpt lat="50.03582" lon="2.31015">
        <ele>136.5</ele>
        <time>2023-10-25T12:30:21Z</time>
      </trkpt>
      <trkpt lat="50.03583" lon="2.31015">
        <ele>136.5</ele>
        <time>2023-10-25T12:30:22Z</time>
      </trkpt>
      <trkpt lat="50.03584" lon="2.31016">
        <ele>136.5</ele>
        <time>2023-10-25T12:30:23Z</time>
      </trkpt>
      <trkpt lat="50.03585" lon="2.31016">
        <ele>136.5</ele>
        <time>2023-10-25T12:30:24Z</time>
      </trkpt>
      <trkpt lat="50.03585" lon="2.31016">
        <ele>136.5</ele>
        <time>2023-10-25T12:30:25Z</time>
      </trkpt>
      <trkpt lat="50.03586" lon="2.31016">
        <ele>136.5</ele>
        <time>2023-10-25T12:30:26Z</time>
      </trkpt>
      <trkpt lat="50.03587" lon="2.31016">
        <ele>136.5</ele>
        <time>2023-10-25T12:30:27Z</time>
      </trkpt>
      <trkpt lat="50.03588" lon="2.31017">
        <ele>136.5</ele>
        <time>2023-10-25T12:30:28Z</time>
      </trkpt>
      <trkpt lat="50.03589" lon="2.31017">
        <ele>136.5</ele>
        <time>2023-10-25T12:30:29Z</time>
      </trkpt>
      <trkpt lat="50.03591" lon="2.31017">
        <ele>136.5</ele>
        <time>2023-10-25T12:30:30Z</time>
      </trkpt>
      <trkpt lat="50.03593" lon="2.31017">
        <ele>136.5</ele>
        <time>2023-10-25T12:30:31Z</time>
      </trkpt>
      <trkpt lat="50.03593" lon="2.31018">
        <ele>136.4</ele>
        <time>2023-10-25T12:30:32Z</time>
      </trkpt>
      <trkpt lat="50.03594" lon="2.31018">
        <ele>136.4</ele>
        <time>2023-10-25T12:30:33Z</time>
      </trkpt>
      <trkpt lat="50.03595" lon="2.31018">
        <ele>136.4</ele>
        <time>2023-10-25T12:30:34Z</time>
      </trkpt>
      <trkpt lat="50.03596" lon="2.31018">
        <ele>136.4</ele>
        <time>2023-10-25T12:30:35Z</time>
      </trkpt>
      <trkpt lat="50.03597" lon="2.31018">
        <ele>136.4</ele>
        <time>2023-10-25T12:30:36Z</time>
      </trkpt>
      <trkpt lat="50.03598" lon="2.31019">
        <ele>136.4</ele>
        <time>2023-10-25T12:30:37Z</time>
      </trkpt>
      <trkpt lat="50.03599" lon="2.31019">
        <ele>136.4</ele>
        <time>2023-10-25T12:30:38Z</time>
      </trkpt>
      <trkpt lat="50.036" lon="2.31019">
        <ele>136.4</ele>
        <time>2023-10-25T12:30:39Z</time>
      </trkpt>
      <trkpt lat="50.03601" lon="2.31019">
        <ele>136.4</ele>
        <time>2023-10-25T12:30:40Z</time>
      </trkpt>
      <trkpt lat="50.03603" lon="2.3102">
        <ele>136.3</ele>
        <time>2023-10-25T12:30:41Z</time>
      </trkpt>
      <trkpt lat="50.03604" lon="2.3102">
        <ele>136.3</ele>
        <time>2023-10-25T12:30:42Z</time>
      </trkpt>
      <trkpt lat="50.03605" lon="2.31021">
        <ele>136.3</ele>
        <time>2023-10-25T12:30:43Z</time>
      </trkpt>
      <trkpt lat="50.03607" lon="2.31021">
        <ele>136.3</ele>
        <time>2023-10-25T12:30:44Z</time>
      </trkpt>
      <trkpt lat="50.03608" lon="2.31022">
        <ele>136.3</ele>
        <time>2023-10-25T12:30:45Z</time>
      </trkpt>
      <trkpt lat="50.03608" lon="2.31022">
        <ele>136.3</ele>
        <time>2023-10-25T12:30:46Z</time>
      </trkpt>
      <trkpt lat="50.0361" lon="2.31022">
        <ele>136.3</ele>
        <time>2023-10-25T12:30:47Z</time>
      </trkpt>
      <trkpt lat="50.03611" lon="2.31023">
        <ele>136.2</ele>
        <time>2023-10-25T12:30:48Z</time>
      </trkpt>
      <trkpt lat="50.03611" lon="2.31023">
        <ele>136.2</ele>
        <time>2023-10-25T12:30:49Z</time>
      </trkpt>
      <trkpt lat="50.03612" lon="2.31023">
        <ele>136.2</ele>
        <time>2023-10-25T12:30:50Z</time>
      </trkpt>
      <trkpt lat="50.03613" lon="2.31023">
        <ele>136.2</ele>
        <time>2023-10-25T12:30:51Z</time>
      </trkpt>
      <trkpt lat="50.03614" lon="2.31023">
        <ele>136.2</ele>
        <time>2023-10-25T12:30:52Z</time>
      </trkpt>
      <trkpt lat="50.03616" lon="2.31024">
        <ele>136.2</ele>
        <time>2023-10-25T12:30:53Z</time>
      </trkpt>
      <trkpt lat="50.03617" lon="2.31024">
        <ele>136.1</ele>
        <time>2023-10-25T12:30:54Z</time>
      </trkpt>
      <trkpt lat="50.03618" lon="2.31024">
        <ele>136.1</ele>
        <time>2023-10-25T12:30:55Z</time>
      </trkpt>
      <trkpt lat="50.03619" lon="2.31024">
        <ele>136.1</ele>
        <time>2023-10-25T12:30:56Z</time>
      </trkpt>
      <trkpt lat="50.0362" lon="2.31025">
        <ele>136.1</ele>
        <time>2023-10-25T12:30:57Z</time>
      </trkpt>
      <trkpt lat="50.03621" lon="2.31025">
        <ele>136.1</ele>
        <time>2023-10-25T12:30:58Z</time>
      </trkpt>
      <trkpt lat="50.03622" lon="2.31025">
        <ele>136</ele>
        <time>2023-10-25T12:30:59Z</time>
      </trkpt>
      <trkpt lat="50.03623" lon="2.31025">
        <ele>136</ele>
        <time>2023-10-25T12:31:00Z</time>
      </trkpt>
      <trkpt lat="50.03624" lon="2.31026">
        <ele>136</ele>
        <time>2023-10-25T12:31:01Z</time>
      </trkpt>
      <trkpt lat="50.03625" lon="2.31026">
        <ele>135.9</ele>
        <time>2023-10-25T12:31:02Z</time>
      </trkpt>
      <trkpt lat="50.03626" lon="2.31026">
        <ele>135.9</ele>
        <time>2023-10-25T12:31:03Z</time>
      </trkpt>
      <trkpt lat="50.03627" lon="2.31026">
        <ele>135.9</ele>
        <time>2023-10-25T12:31:04Z</time>
      </trkpt>
      <trkpt lat="50.03627" lon="2.31027">
        <ele>135.8</ele>
        <time>2023-10-25T12:31:05Z</time>
      </trkpt>
      <trkpt lat="50.03628" lon="2.31027">
        <ele>135.8</ele>
        <time>2023-10-25T12:31:06Z</time>
      </trkpt>
      <trkpt lat="50.03629" lon="2.31028">
        <ele>135.8</ele>
        <time>2023-10-25T12:31:07Z</time>
      </trkpt>
      <trkpt lat="50.0363" lon="2.31028">
        <ele>135.7</ele>
        <time>2023-10-25T12:31:08Z</time>
      </trkpt>
      <trkpt lat="50.0363" lon="2.31028">
        <ele>135.7</ele>
        <time>2023-10-25T12:31:09Z</time>
      </trkpt>
      <trkpt lat="50.03631" lon="2.31028">
        <ele>135.7</ele>
        <time>2023-10-25T12:31:10Z</time>
      </trkpt>
      <trkpt lat="50.03632" lon="2.31028">
        <ele>135.6</ele>
        <time>2023-10-25T12:31:11Z</time>
      </trkpt>
      <trkpt lat="50.03633" lon="2.31027">
        <ele>135.6</ele>
        <time>2023-10-25T12:31:12Z</time>
      </trkpt>
      <trkpt lat="50.03634" lon="2.31027">
        <ele>135.6</ele>
        <time>2023-10-25T12:31:13Z</time>
      </trkpt>
      <trkpt lat="50.03634" lon="2.31027">
        <ele>135.5</ele>
        <time>2023-10-25T12:31:14Z</time>
      </trkpt>
      <trkpt lat="50.03635" lon="2.31027">
        <ele>135.5</ele>
        <time>2023-10-25T12:31:15Z</time>
      </trkpt>
      <trkpt lat="50.03636" lon="2.31027">
        <ele>135.4</ele>
        <time>2023-10-25T12:31:16Z</time>
      </trkpt>
      <trkpt lat="50.03637" lon="2.31027">
        <ele>135.4</ele>
        <time>2023-10-25T12:31:17Z</time>
      </trkpt>
      <trkpt lat="50.03637" lon="2.31027">
        <ele>135.4</ele>
        <time>2023-10-25T12:31:18Z</time>
      </trkpt>
      <trkpt lat="50.03638" lon="2.31028">
        <ele>135.3</ele>
        <time>2023-10-25T12:31:19Z</time>
      </trkpt>
      <trkpt lat="50.03639" lon="2.31028">
        <ele>135.3</ele>
        <time>2023-10-25T12:31:20Z</time>
      </trkpt>
      <trkpt lat="50.0364" lon="2.31028">
        <ele>135.3</ele>
        <time>2023-10-25T12:31:21Z</time>
      </trkpt>
      <trkpt lat="50.03641" lon="2.31028">
        <ele>135.2</ele>
        <time>2023-10-25T12:31:22Z</time>
      </trkpt>
      <trkpt lat="50.03642" lon="2.31028">
        <ele>135.2</ele>
        <time>2023-10-25T12:31:23Z</time>
      </trkpt>
      <trkpt lat="50.03643" lon="2.31028">
        <ele>135.1</ele>
        <time>2023-10-25T12:31:24Z</time>
      </trkpt>
      <trkpt lat="50.03644" lon="2.31028">
        <ele>135.1</ele>
        <time>2023-10-25T12:31:25Z</time>
      </trkpt>
      <trkpt lat="50.03645" lon="2.31029">
        <ele>135</ele>
        <time>2023-10-25T12:31:26Z</time>
      </trkpt>
      <trkpt lat="50.03647" lon="2.31029">
        <ele>134.9</ele>
        <time>2023-10-25T12:31:27Z</time>
      </trkpt>
      <trkpt lat="50.03647" lon="2.31029">
        <ele>134.9</ele>
        <time>2023-10-25T12:31:28Z</time>
      </trkpt>
      <trkpt lat="50.03648" lon="2.31029">
        <ele>134.8</ele>
        <time>2023-10-25T12:31:29Z</time>
      </trkpt>
      <trkpt lat="50.0365" lon="2.31029">
        <ele>134.7</ele>
        <time>2023-10-25T12:31:30Z</time>
      </trkpt>
      <trkpt lat="50.03651" lon="2.31029">
        <ele>134.7</ele>
        <time>2023-10-25T12:31:31Z</time>
      </trkpt>
      <trkpt lat="50.03652" lon="2.31029">
        <ele>134.6</ele>
        <time>2023-10-25T12:31:32Z</time>
      </trkpt>
      <trkpt lat="50.03653" lon="2.31029">
        <ele>134.6</ele>
        <time>2023-10-25T12:31:33Z</time>
      </trkpt>
      <trkpt lat="50.03654" lon="2.31029">
        <ele>134.5</ele>
        <time>2023-10-25T12:31:34Z</time>
      </trkpt>
      <trkpt lat="50.03655" lon="2.31029">
        <ele>134.5</ele>
        <time>2023-10-25T12:31:35Z</time>
      </trkpt>
      <trkpt lat="50.03656" lon="2.31029">
        <ele>134.4</ele>
        <time>2023-10-25T12:31:36Z</time>
      </trkpt>
      <trkpt lat="50.03657" lon="2.3103">
        <ele>134.3</ele>
        <time>2023-10-25T12:31:37Z</time>
      </trkpt>
      <trkpt lat="50.03658" lon="2.3103">
        <ele>134.3</ele>
        <time>2023-10-25T12:31:38Z</time>
      </trkpt>
      <trkpt lat="50.0366" lon="2.3103">
        <ele>134.2</ele>
        <time>2023-10-25T12:31:39Z</time>
      </trkpt>
      <trkpt lat="50.03661" lon="2.31031">
        <ele>134.2</ele>
        <time>2023-10-25T12:31:40Z</time>
      </trkpt>
      <trkpt lat="50.03662" lon="2.31031">
        <ele>134.1</ele>
        <time>2023-10-25T12:31:41Z</time>
      </trkpt>
      <trkpt lat="50.03663" lon="2.31031">
        <ele>134</ele>
        <time>2023-10-25T12:31:42Z</time>
      </trkpt>
      <trkpt lat="50.03664" lon="2.31032">
        <ele>134</ele>
        <time>2023-10-25T12:31:43Z</time>
      </trkpt>
      <trkpt lat="50.03665" lon="2.31032">
        <ele>133.9</ele>
        <time>2023-10-25T12:31:44Z</time>
      </trkpt>
      <trkpt lat="50.03666" lon="2.31032">
        <ele>133.8</ele>
        <time>2023-10-25T12:31:45Z</time>
      </trkpt>
      <trkpt lat="50.03667" lon="2.31033">
        <ele>133.8</ele>
        <time>2023-10-25T12:31:46Z</time>
      </trkpt>
      <trkpt lat="50.03668" lon="2.31033">
        <ele>133.7</ele>
        <time>2023-10-25T12:31:47Z</time>
      </trkpt>
      <trkpt lat="50.0367" lon="2.31033">
        <ele>133.6</ele>
        <time>2023-10-25T12:31:48Z</time>
      </trkpt>
      <trkpt lat="50.03671" lon="2.31033">
        <ele>133.6</ele>
        <time>2023-10-25T12:31:49Z</time>
      </trkpt>
      <trkpt lat="50.03672" lon="2.31032">
        <ele>133.5</ele>
        <time>2023-10-25T12:31:50Z</time>
      </trkpt>
      <trkpt lat="50.03673" lon="2.31032">
        <ele>133.4</ele>
        <time>2023-10-25T12:31:51Z</time>
      </trkpt>
      <trkpt lat="50.03674" lon="2.31033">
        <ele>133.4</ele>
        <time>2023-10-25T12:31:52Z</time>
      </trkpt>
      <trkpt lat="50.03675" lon="2.31033">
        <ele>133.3</ele>
        <time>2023-10-25T12:31:53Z</time>
      </trkpt>
      <trkpt lat="50.03676" lon="2.31034">
        <ele>133.3</ele>
        <time>2023-10-25T12:31:54Z</time>
      </trkpt>
      <trkpt lat="50.03677" lon="2.31035">
        <ele>133.2</ele>
        <time>2023-10-25T12:31:55Z</time>
      </trkpt>
      <trkpt lat="50.03677" lon="2.31035">
        <ele>133.1</ele>
        <time>2023-10-25T12:31:56Z</time>
      </trkpt>
      <trkpt lat="50.03678" lon="2.31035">
        <ele>133.1</ele>
        <time>2023-10-25T12:31:57Z</time>
      </trkpt>
      <trkpt lat="50.03679" lon="2.31036">
        <ele>133</ele>
        <time>2023-10-25T12:31:58Z</time>
      </trkpt>
      <trkpt lat="50.03681" lon="2.31036">
        <ele>133</ele>
        <time>2023-10-25T12:31:59Z</time>
      </trkpt>
      <trkpt lat="50.03682" lon="2.31036">
        <ele>132.9</ele>
        <time>2023-10-25T12:32:00Z</time>
      </trkpt>
      <trkpt lat="50.03683" lon="2.31036">
        <ele>132.8</ele>
        <time>2023-10-25T12:32:01Z</time>
      </trkpt>
      <trkpt lat="50.03684" lon="2.31036">
        <ele>132.7</ele>
        <time>2023-10-25T12:32:02Z</time>
      </trkpt>
      <trkpt lat="50.03685" lon="2.31036">
        <ele>132.7</ele>
        <time>2023-10-25T12:32:03Z</time>
      </trkpt>
      <trkpt lat="50.03687" lon="2.31036">
        <ele>132.5</ele>
        <time>2023-10-25T12:32:04Z</time>
      </trkpt>
      <trkpt lat="50.03688" lon="2.31036">
        <ele>132.5</ele>
        <time>2023-10-25T12:32:05Z</time>
      </trkpt>
      <trkpt lat="50.03689" lon="2.31036">
        <ele>132.4</ele>
        <time>2023-10-25T12:32:06Z</time>
      </trkpt>
      <trkpt lat="50.0369" lon="2.31037">
        <ele>132.3</ele>
        <time>2023-10-25T12:32:07Z</time>
      </trkpt>
      <trkpt lat="50.03692" lon="2.31037">
        <ele>132.2</ele>
        <time>2023-10-25T12:32:08Z</time>
      </trkpt>
      <trkpt lat="50.03693" lon="2.31037">
        <ele>132.2</ele>
        <time>2023-10-25T12:32:09Z</time>
      </trkpt>
      <trkpt lat="50.03694" lon="2.31037">
        <ele>132.1</ele>
        <time>2023-10-25T12:32:10Z</time>
      </trkpt>
      <trkpt lat="50.03695" lon="2.31037">
        <ele>132</ele>
        <time>2023-10-25T12:32:11Z</time>
      </trkpt>
      <trkpt lat="50.03696" lon="2.31037">
        <ele>131.9</ele>
        <time>2023-10-25T12:32:12Z</time>
      </trkpt>
      <trkpt lat="50.03697" lon="2.31037">
        <ele>131.9</ele>
        <time>2023-10-25T12:32:13Z</time>
      </trkpt>
      <trkpt lat="50.03699" lon="2.31037">
        <ele>131.8</ele>
        <time>2023-10-25T12:32:14Z</time>
      </trkpt>
      <trkpt lat="50.03701" lon="2.31037">
        <ele>131.7</ele>
        <time>2023-10-25T12:32:15Z</time>
      </trkpt>
      <trkpt lat="50.03701" lon="2.31037">
        <ele>131.6</ele>
        <time>2023-10-25T12:32:16Z</time>
      </trkpt>
      <trkpt lat="50.03702" lon="2.31037">
        <ele>131.5</ele>
        <time>2023-10-25T12:32:17Z</time>
      </trkpt>
      <trkpt lat="50.03703" lon="2.31037">
        <ele>131.5</ele>
        <time>2023-10-25T12:32:18Z</time>
      </trkpt>
      <trkpt lat="50.03704" lon="2.31037">
        <ele>131.4</ele>
        <time>2023-10-25T12:32:19Z</time>
      </trkpt>
      <trkpt lat="50.03705" lon="2.31038">
        <ele>131.3</ele>
        <time>2023-10-25T12:32:20Z</time>
      </trkpt>
      <trkpt lat="50.03706" lon="2.31038">
        <ele>131.3</ele>
        <time>2023-10-25T12:32:21Z</time>
      </trkpt>
      <trkpt lat="50.03707" lon="2.31038">
        <ele>131.2</ele>
        <time>2023-10-25T12:32:22Z</time>
      </trkpt>
      <trkpt lat="50.03709" lon="2.31038">
        <ele>131.1</ele>
        <time>2023-10-25T12:32:23Z</time>
      </trkpt>
      <trkpt lat="50.0371" lon="2.31038">
        <ele>131.1</ele>
        <time>2023-10-25T12:32:24Z</time>
      </trkpt>
      <trkpt lat="50.03711" lon="2.31038">
        <ele>131</ele>
        <time>2023-10-25T12:32:25Z</time>
      </trkpt>
      <trkpt lat="50.03712" lon="2.31038">
        <ele>130.9</ele>
        <time>2023-10-25T12:32:26Z</time>
      </trkpt>
      <trkpt lat="50.03713" lon="2.31038">
        <ele>130.9</ele>
        <time>2023-10-25T12:32:27Z</time>
      </trkpt>
      <trkpt lat="50.03714" lon="2.31038">
        <ele>130.8</ele>
        <time>2023-10-25T12:32:28Z</time>
      </trkpt>
      <trkpt lat="50.03714" lon="2.31038">
        <ele>130.8</ele>
        <time>2023-10-25T12:32:29Z</time>
      </trkpt>
      <trkpt lat="50.03715" lon="2.31039">
        <ele>130.7</ele>
        <time>2023-10-25T12:32:30Z</time>
      </trkpt>
      <trkpt lat="50.03716" lon="2.31039">
        <ele>130.7</ele>
        <time>2023-10-25T12:32:31Z</time>
      </trkpt>
      <trkpt lat="50.03717" lon="2.31039">
        <ele>130.6</ele>
        <time>2023-10-25T12:32:32Z</time>
      </trkpt>
      <trkpt lat="50.03718" lon="2.3104">
        <ele>130.5</ele>
        <time>2023-10-25T12:32:33Z</time>
      </trkpt>
      <trkpt lat="50.03719" lon="2.3104">
        <ele>130.5</ele>
        <time>2023-10-25T12:32:34Z</time>
      </trkpt>
      <trkpt lat="50.0372" lon="2.3104">
        <ele>130.4</ele>
        <time>2023-10-25T12:32:35Z</time>
      </trkpt>
      <trkpt lat="50.03721" lon="2.31041">
        <ele>130.3</ele>
        <time>2023-10-25T12:32:36Z</time>
      </trkpt>
      <trkpt lat="50.03723" lon="2.31041">
        <ele>130.3</ele>
        <time>2023-10-25T12:32:37Z</time>
      </trkpt>
      <trkpt lat="50.03723" lon="2.31041">
        <ele>130.2</ele>
        <time>2023-10-25T12:32:38Z</time>
      </trkpt>
      <trkpt lat="50.03724" lon="2.31041">
        <ele>130.2</ele>
        <time>2023-10-25T12:32:39Z</time>
      </trkpt>
      <trkpt lat="50.03725" lon="2.31041">
        <ele>130.1</ele>
        <time>2023-10-25T12:32:40Z</time>
      </trkpt>
      <trkpt lat="50.03726" lon="2.31042">
        <ele>130.1</ele>
        <time>2023-10-25T12:32:41Z</time>
      </trkpt>
      <trkpt lat="50.03727" lon="2.31042">
        <ele>130</ele>
        <time>2023-10-25T12:32:42Z</time>
      </trkpt>
      <trkpt lat="50.03728" lon="2.31042">
        <ele>129.9</ele>
        <time>2023-10-25T12:32:43Z</time>
      </trkpt>
      <trkpt lat="50.03729" lon="2.31042">
        <ele>129.9</ele>
        <time>2023-10-25T12:32:44Z</time>
      </trkpt>
      <trkpt lat="50.03729" lon="2.31042">
        <ele>129.8</ele>
        <time>2023-10-25T12:32:45Z</time>
      </trkpt>
      <trkpt lat="50.0373" lon="2.31043">
        <ele>129.8</ele>
        <time>2023-10-25T12:32:46Z</time>
      </trkpt>
      <trkpt lat="50.03732" lon="2.31043">
        <ele>129.7</ele>
        <time>2023-10-25T12:32:47Z</time>
      </trkpt>
      <trkpt lat="50.03733" lon="2.31043">
        <ele>129.7</ele>
        <time>2023-10-25T12:32:48Z</time>
      </trkpt>
      <trkpt lat="50.03733" lon="2.31043">
        <ele>129.6</ele>
        <time>2023-10-25T12:32:49Z</time>
      </trkpt>
      <trkpt lat="50.03734" lon="2.31043">
        <ele>129.6</ele>
        <time>2023-10-25T12:32:50Z</time>
      </trkpt>
      <trkpt lat="50.03735" lon="2.31043">
        <ele>129.5</ele>
        <time>2023-10-25T12:32:51Z</time>
      </trkpt>
      <trkpt lat="50.03736" lon="2.31044">
        <ele>129.5</ele>
        <time>2023-10-25T12:32:52Z</time>
      </trkpt>
      <trkpt lat="50.03737" lon="2.31044">
        <ele>129.4</ele>
        <time>2023-10-25T12:32:53Z</time>
      </trkpt>
      <trkpt lat="50.03738" lon="2.31044">
        <ele>129.3</ele>
        <time>2023-10-25T12:32:54Z</time>
      </trkpt>
      <trkpt lat="50.03739" lon="2.31044">
        <ele>129.3</ele>
        <time>2023-10-25T12:32:55Z</time>
      </trkpt>
      <trkpt lat="50.0374" lon="2.31044">
        <ele>129.2</ele>
        <time>2023-10-25T12:32:56Z</time>
      </trkpt>
      <trkpt lat="50.03741" lon="2.31044">
        <ele>129.2</ele>
        <time>2023-10-25T12:32:57Z</time>
      </trkpt>
      <trkpt lat="50.03742" lon="2.31044">
        <ele>129.1</ele>
        <time>2023-10-25T12:32:58Z</time>
      </trkpt>
      <trkpt lat="50.03743" lon="2.31044">
        <ele>129.1</ele>
        <time>2023-10-25T12:32:59Z</time>
      </trkpt>
      <trkpt lat="50.03744" lon="2.31044">
        <ele>129</ele>
        <time>2023-10-25T12:33:00Z</time>
      </trkpt>
      <trkpt lat="50.03746" lon="2.31045">
        <ele>128.9</ele>
        <time>2023-10-25T12:33:01Z</time>
      </trkpt>
      <trkpt lat="50.03747" lon="2.31045">
        <ele>128.9</ele>
        <time>2023-10-25T12:33:02Z</time>
      </trkpt>
      <trkpt lat="50.03748" lon="2.31045">
        <ele>128.8</ele>
        <time>2023-10-25T12:33:03Z</time>
      </trkpt>
      <trkpt lat="50.03749" lon="2.31045">
        <ele>128.8</ele>
        <time>2023-10-25T12:33:04Z</time>
      </trkpt>
      <trkpt lat="50.0375" lon="2.31046">
        <ele>128.7</ele>
        <time>2023-10-25T12:33:05Z</time>
      </trkpt>
      <trkpt lat="50.03751" lon="2.31046">
        <ele>128.7</ele>
        <time>2023-10-25T12:33:06Z</time>
      </trkpt>
      <trkpt lat="50.03752" lon="2.31046">
        <ele>128.6</ele>
        <time>2023-10-25T12:33:07Z</time>
      </trkpt>
      <trkpt lat="50.03753" lon="2.31046">
        <ele>128.6</ele>
        <time>2023-10-25T12:33:08Z</time>
      </trkpt>
      <trkpt lat="50.03754" lon="2.31047">
        <ele>128.5</ele>
        <time>2023-10-25T12:33:09Z</time>
      </trkpt>
      <trkpt lat="50.03755" lon="2.31047">
        <ele>128.5</ele>
        <time>2023-10-25T12:33:10Z</time>
      </trkpt>
      <trkpt lat="50.03756" lon="2.31047">
        <ele>128.4</ele>
        <time>2023-10-25T12:33:11Z</time>
      </trkpt>
      <trkpt lat="50.03757" lon="2.31047">
        <ele>128.4</ele>
        <time>2023-10-25T12:33:12Z</time>
      </trkpt>
      <trkpt lat="50.03758" lon="2.31048">
        <ele>128.3</ele>
        <time>2023-10-25T12:33:13Z</time>
      </trkpt>
      <trkpt lat="50.03759" lon="2.31048">
        <ele>128.3</ele>
        <time>2023-10-25T12:33:14Z</time>
      </trkpt>
      <trkpt lat="50.03761" lon="2.31048">
        <ele>128.2</ele>
        <time>2023-10-25T12:33:15Z</time>
      </trkpt>
      <trkpt lat="50.03762" lon="2.31048">
        <ele>128.2</ele>
        <time>2023-10-25T12:33:16Z</time>
      </trkpt>
      <trkpt lat="50.03763" lon="2.31049">
        <ele>128.1</ele>
        <time>2023-10-25T12:33:17Z</time>
      </trkpt>
      <trkpt lat="50.03764" lon="2.31049">
        <ele>128</ele>
        <time>2023-10-25T12:33:18Z</time>
      </trkpt>
      <trkpt lat="50.03765" lon="2.31049">
        <ele>128</ele>
        <time>2023-10-25T12:33:19Z</time>
      </trkpt>
      <trkpt lat="50.03766" lon="2.3105">
        <ele>127.9</ele>
        <time>2023-10-25T12:33:20Z</time>
      </trkpt>
      <trkpt lat="50.03767" lon="2.3105">
        <ele>127.9</ele>
        <time>2023-10-25T12:33:21Z</time>
      </trkpt>
      <trkpt lat="50.03769" lon="2.3105">
        <ele>127.8</ele>
        <time>2023-10-25T12:33:22Z</time>
      </trkpt>
      <trkpt lat="50.0377" lon="2.3105">
        <ele>127.8</ele>
        <time>2023-10-25T12:33:23Z</time>
      </trkpt>
      <trkpt lat="50.03771" lon="2.3105">
        <ele>127.7</ele>
        <time>2023-10-25T12:33:24Z</time>
      </trkpt>
      <trkpt lat="50.03772" lon="2.3105">
        <ele>127.7</ele>
        <time>2023-10-25T12:33:25Z</time>
      </trkpt>
      <trkpt lat="50.03773" lon="2.3105">
        <ele>127.6</ele>
        <time>2023-10-25T12:33:26Z</time>
      </trkpt>
      <trkpt lat="50.03774" lon="2.3105">
        <ele>127.6</ele>
        <time>2023-10-25T12:33:27Z</time>
      </trkpt>
      <trkpt lat="50.03775" lon="2.3105">
        <ele>127.5</ele>
        <time>2023-10-25T12:33:28Z</time>
      </trkpt>
      <trkpt lat="50.03776" lon="2.3105">
        <ele>127.5</ele>
        <time>2023-10-25T12:33:29Z</time>
      </trkpt>
      <trkpt lat="50.03777" lon="2.3105">
        <ele>127.4</ele>
        <time>2023-10-25T12:33:30Z</time>
      </trkpt>
      <trkpt lat="50.03778" lon="2.31051">
        <ele>127.4</ele>
        <time>2023-10-25T12:33:31Z</time>
      </trkpt>
      <trkpt lat="50.03779" lon="2.31051">
        <ele>127.3</ele>
        <time>2023-10-25T12:33:32Z</time>
      </trkpt>
      <trkpt lat="50.0378" lon="2.31051">
        <ele>127.3</ele>
        <time>2023-10-25T12:33:33Z</time>
      </trkpt>
      <trkpt lat="50.03781" lon="2.31051">
        <ele>127.2</ele>
        <time>2023-10-25T12:33:34Z</time>
      </trkpt>
      <trkpt lat="50.03782" lon="2.31051">
        <ele>127.2</ele>
        <time>2023-10-25T12:33:35Z</time>
      </trkpt>
      <trkpt lat="50.03783" lon="2.31051">
        <ele>127.2</ele>
        <time>2023-10-25T12:33:36Z</time>
      </trkpt>
      <trkpt lat="50.03784" lon="2.31051">
        <ele>127.1</ele>
        <time>2023-10-25T12:33:37Z</time>
      </trkpt>
      <trkpt lat="50.03785" lon="2.31051">
        <ele>127.1</ele>
        <time>2023-10-25T12:33:38Z</time>
      </trkpt>
      <trkpt lat="50.03786" lon="2.31052">
        <ele>127</ele>
        <time>2023-10-25T12:33:39Z</time>
      </trkpt>
      <trkpt lat="50.03787" lon="2.31052">
        <ele>127</ele>
        <time>2023-10-25T12:33:40Z</time>
      </trkpt>
      <trkpt lat="50.03788" lon="2.31052">
        <ele>126.9</ele>
        <time>2023-10-25T12:33:41Z</time>
      </trkpt>
      <trkpt lat="50.03789" lon="2.31053">
        <ele>126.9</ele>
        <time>2023-10-25T12:33:42Z</time>
      </trkpt>
      <trkpt lat="50.03791" lon="2.31053">
        <ele>126.8</ele>
        <time>2023-10-25T12:33:43Z</time>
      </trkpt>
      <trkpt lat="50.03792" lon="2.31053">
        <ele>126.8</ele>
        <time>2023-10-25T12:33:44Z</time>
      </trkpt>
      <trkpt lat="50.03793" lon="2.31053">
        <ele>126.7</ele>
        <time>2023-10-25T12:33:45Z</time>
      </trkpt>
      <trkpt lat="50.03794" lon="2.31053">
        <ele>126.7</ele>
        <time>2023-10-25T12:33:46Z</time>
      </trkpt>
      <trkpt lat="50.03795" lon="2.31054">
        <ele>126.7</ele>
        <time>2023-10-25T12:33:47Z</time>
      </trkpt>
      <trkpt lat="50.03796" lon="2.31054">
        <ele>126.6</ele>
        <time>2023-10-25T12:33:48Z</time>
      </trkpt>
      <trkpt lat="50.03796" lon="2.31054">
        <ele>126.6</ele>
        <time>2023-10-25T12:33:49Z</time>
      </trkpt>
      <trkpt lat="50.03797" lon="2.31055">
        <ele>126.6</ele>
        <time>2023-10-25T12:33:50Z</time>
      </trkpt>
      <trkpt lat="50.03799" lon="2.31055">
        <ele>126.5</ele>
        <time>2023-10-25T12:33:51Z</time>
      </trkpt>
      <trkpt lat="50.038" lon="2.31055">
        <ele>126.5</ele>
        <time>2023-10-25T12:33:52Z</time>
      </trkpt>
      <trkpt lat="50.03801" lon="2.31056">
        <ele>126.5</ele>
        <time>2023-10-25T12:33:53Z</time>
      </trkpt>
      <trkpt lat="50.03802" lon="2.31056">
        <ele>126.5</ele>
        <time>2023-10-25T12:33:54Z</time>
      </trkpt>
      <trkpt lat="50.03803" lon="2.31056">
        <ele>126.4</ele>
        <time>2023-10-25T12:33:55Z</time>
      </trkpt>
      <trkpt lat="50.03803" lon="2.31056">
        <ele>126.4</ele>
        <time>2023-10-25T12:33:56Z</time>
      </trkpt>
      <trkpt lat="50.03804" lon="2.31057">
        <ele>126.4</ele>
        <time>2023-10-25T12:33:57Z</time>
      </trkpt>
      <trkpt lat="50.03805" lon="2.31057">
        <ele>126.3</ele>
        <time>2023-10-25T12:33:58Z</time>
      </trkpt>
      <trkpt lat="50.03806" lon="2.31057">
        <ele>126.3</ele>
        <time>2023-10-25T12:33:59Z</time>
      </trkpt>
      <trkpt lat="50.03807" lon="2.31057">
        <ele>126.3</ele>
        <time>2023-10-25T12:34:00Z</time>
      </trkpt>
      <trkpt lat="50.03808" lon="2.31057">
        <ele>126.3</ele>
        <time>2023-10-25T12:34:01Z</time>
      </trkpt>
      <trkpt lat="50.03809" lon="2.31057">
        <ele>126.3</ele>
        <time>2023-10-25T12:34:02Z</time>
      </trkpt>
      <trkpt lat="50.0381" lon="2.31058">
        <ele>126.2</ele>
        <time>2023-10-25T12:34:03Z</time>
      </trkpt>
      <trkpt lat="50.03811" lon="2.31058">
        <ele>126.2</ele>
        <time>2023-10-25T12:34:04Z</time>
      </trkpt>
      <trkpt lat="50.03811" lon="2.31058">
        <ele>126.2</ele>
        <time>2023-10-25T12:34:05Z</time>
      </trkpt>
      <trkpt lat="50.03812" lon="2.31058">
        <ele>126.2</ele>
        <time>2023-10-25T12:34:06Z</time>
      </trkpt>
      <trkpt lat="50.03813" lon="2.31058">
        <ele>126.2</ele>
        <time>2023-10-25T12:34:07Z</time>
      </trkpt>
      <trkpt lat="50.03814" lon="2.31059">
        <ele>126.2</ele>
        <time>2023-10-25T12:34:08Z</time>
      </trkpt>
      <trkpt lat="50.03815" lon="2.31059">
        <ele>126.1</ele>
        <time>2023-10-25T12:34:09Z</time>
      </trkpt>
      <trkpt lat="50.03816" lon="2.31058">
        <ele>126.1</ele>
        <time>2023-10-25T12:34:10Z</time>
      </trkpt>
      <trkpt lat="50.03817" lon="2.31058">
        <ele>126.1</ele>
        <time>2023-10-25T12:34:11Z</time>
      </trkpt>
      <trkpt lat="50.03818" lon="2.31058">
        <ele>126.1</ele>
        <time>2023-10-25T12:34:12Z</time>
      </trkpt>
      <trkpt lat="50.03819" lon="2.31058">
        <ele>126.1</ele>
        <time>2023-10-25T12:34:13Z</time>
      </trkpt>
      <trkpt lat="50.0382" lon="2.31058">
        <ele>126.1</ele>
        <time>2023-10-25T12:34:14Z</time>
      </trkpt>
      <trkpt lat="50.0382" lon="2.31058">
        <ele>126.1</ele>
        <time>2023-10-25T12:34:15Z</time>
      </trkpt>
      <trkpt lat="50.03821" lon="2.31058">
        <ele>126.1</ele>
        <time>2023-10-25T12:34:16Z</time>
      </trkpt>
      <trkpt lat="50.03822" lon="2.31059">
        <ele>126.1</ele>
        <time>2023-10-25T12:34:17Z</time>
      </trkpt>
      <trkpt lat="50.03822" lon="2.31059">
        <ele>125.9</ele>
        <time>2023-10-25T12:34:18Z</time>
      </trkpt>
      <trkpt lat="50.03823" lon="2.31059">
        <ele>125.9</ele>
        <time>2023-10-25T12:34:19Z</time>
      </trkpt>
      <trkpt lat="50.03823" lon="2.31058">
        <ele>125.9</ele>
        <time>2023-10-25T12:34:20Z</time>
      </trkpt>
      <trkpt lat="50.03823" lon="2.31058">
        <ele>125.9</ele>
        <time>2023-10-25T12:34:21Z</time>
      </trkpt>
      <trkpt lat="50.03823" lon="2.31058">
        <ele>125.9</ele>
        <time>2023-10-25T12:34:22Z</time>
      </trkpt>
      <trkpt lat="50.03823" lon="2.31058">
        <ele>125.9</ele>
        <time>2023-10-25T12:34:23Z</time>
      </trkpt>
      <trkpt lat="50.03823" lon="2.31059">
        <ele>125.9</ele>
        <time>2023-10-25T12:34:24Z</time>
      </trkpt>
      <trkpt lat="50.03823" lon="2.31059">
        <ele>125.9</ele>
        <time>2023-10-25T12:34:25Z</time>
      </trkpt>
      <trkpt lat="50.03823" lon="2.3106">
        <ele>125.9</ele>
        <time>2023-10-25T12:34:26Z</time>
      </trkpt>
      <trkpt lat="50.03823" lon="2.3106">
        <ele>125.9</ele>
        <time>2023-10-25T12:34:27Z</time>
      </trkpt>
      <trkpt lat="50.03823" lon="2.31061">
        <ele>125.9</ele>
        <time>2023-10-25T12:34:28Z</time>
      </trkpt>
      <trkpt lat="50.03823" lon="2.31061">
        <ele>125.9</ele>
        <time>2023-10-25T12:34:29Z</time>
      </trkpt>
      <trkpt lat="50.03823" lon="2.31062">
        <ele>125.9</ele>
        <time>2023-10-25T12:34:30Z</time>
      </trkpt>
      <trkpt lat="50.03823" lon="2.31062">
        <ele>125.9</ele>
        <time>2023-10-25T12:34:31Z</time>
      </trkpt>
      <trkpt lat="50.03823" lon="2.31062">
        <ele>125.9</ele>
        <time>2023-10-25T12:34:32Z</time>
      </trkpt>
      <trkpt lat="50.03823" lon="2.31063">
        <ele>125.9</ele>
        <time>2023-10-25T12:34:33Z</time>
      </trkpt>
      <trkpt lat="50.03823" lon="2.31063">
        <ele>125.8</ele>
        <time>2023-10-25T12:34:34Z</time>
      </trkpt>
      <trkpt lat="50.03822" lon="2.31064">
        <ele>125.8</ele>
        <time>2023-10-25T12:34:35Z</time>
      </trkpt>
      <trkpt lat="50.03821" lon="2.31064">
        <ele>125.8</ele>
        <time>2023-10-25T12:34:36Z</time>
      </trkpt>
      <trkpt lat="50.03821" lon="2.31064">
        <ele>125.8</ele>
        <time>2023-10-25T12:34:37Z</time>
      </trkpt>
      <trkpt lat="50.0382" lon="2.31064">
        <ele>125.8</ele>
        <time>2023-10-25T12:34:38Z</time>
      </trkpt>
      <trkpt lat="50.0382" lon="2.31064">
        <ele>125.8</ele>
        <time>2023-10-25T12:34:39Z</time>
      </trkpt>
      <trkpt lat="50.03819" lon="2.31064">
        <ele>125.8</ele>
        <time>2023-10-25T12:34:40Z</time>
      </trkpt>
      <trkpt lat="50.03819" lon="2.31064">
        <ele>125.8</ele>
        <time>2023-10-25T12:34:41Z</time>
      </trkpt>
      <trkpt lat="50.03818" lon="2.31064">
        <ele>125.8</ele>
        <time>2023-10-25T12:34:42Z</time>
      </trkpt>
      <trkpt lat="50.03818" lon="2.31064">
        <ele>125.8</ele>
        <time>2023-10-25T12:34:43Z</time>
      </trkpt>
      <trkpt lat="50.03817" lon="2.31064">
        <ele>125.8</ele>
        <time>2023-10-25T12:34:44Z</time>
      </trkpt>
      <trkpt lat="50.03817" lon="2.31064">
        <ele>125.7</ele>
        <time>2023-10-25T12:34:45Z</time>
      </trkpt>
      <trkpt lat="50.03817" lon="2.31064">
        <ele>125.7</ele>
        <time>2023-10-25T12:34:46Z</time>
      </trkpt>
      <trkpt lat="50.03817" lon="2.31064">
        <ele>125.7</ele>
        <time>2023-10-25T12:34:47Z</time>
      </trkpt>
      <trkpt lat="50.03815" lon="2.31061">
        <ele>125.7</ele>
        <time>2023-10-25T12:37:56Z</time>
      </trkpt>
      <trkpt lat="50.03815" lon="2.31061">
        <ele>125.7</ele>
        <time>2023-10-25T12:37:57Z</time>
      </trkpt>
      <trkpt lat="50.03816" lon="2.31062">
        <ele>125.7</ele>
        <time>2023-10-25T12:37:58Z</time>
      </trkpt>
      <trkpt lat="50.03816" lon="2.31063">
        <ele>125.7</ele>
        <time>2023-10-25T12:37:59Z</time>
      </trkpt>
      <trkpt lat="50.03817" lon="2.31063">
        <ele>125.7</ele>
        <time>2023-10-25T12:38:00Z</time>
      </trkpt>
      <trkpt lat="50.03817" lon="2.31064">
        <ele>125.6</ele>
        <time>2023-10-25T12:38:01Z</time>
      </trkpt>
      <trkpt lat="50.03818" lon="2.31066">
        <ele>125.6</ele>
        <time>2023-10-25T12:38:02Z</time>
      </trkpt>
      <trkpt lat="50.03818" lon="2.31067">
        <ele>125.6</ele>
        <time>2023-10-25T12:38:03Z</time>
      </trkpt>
      <trkpt lat="50.03819" lon="2.31068">
        <ele>125.6</ele>
        <time>2023-10-25T12:38:04Z</time>
      </trkpt>
      <trkpt lat="50.03819" lon="2.31069">
        <ele>125.6</ele>
        <time>2023-10-25T12:38:05Z</time>
      </trkpt>
      <trkpt lat="50.0382" lon="2.31073">
        <ele>125.5</ele>
        <time>2023-10-25T12:38:06Z</time>
      </trkpt>
      <trkpt lat="50.0382" lon="2.31075">
        <ele>125.5</ele>
        <time>2023-10-25T12:38:07Z</time>
      </trkpt>
      <trkpt lat="50.0382" lon="2.31078">
        <ele>125.5</ele>
        <time>2023-10-25T12:38:08Z</time>
      </trkpt>
      <trkpt lat="50.03821" lon="2.31079">
        <ele>125.5</ele>
        <time>2023-10-25T12:38:09Z</time>
      </trkpt>
      <trkpt lat="50.03821" lon="2.3108">
        <ele>125.5</ele>
        <time>2023-10-25T12:38:10Z</time>
      </trkpt>
      <trkpt lat="50.03821" lon="2.31082">
        <ele>125.5</ele>
        <time>2023-10-25T12:38:11Z</time>
      </trkpt>
      <trkpt lat="50.03821" lon="2.31083">
        <ele>125.5</ele>
        <time>2023-10-25T12:38:12Z</time>
      </trkpt>
      <trkpt lat="50.03821" lon="2.31085">
        <ele>125.5</ele>
        <time>2023-10-25T12:38:13Z</time>
      </trkpt>
      <trkpt lat="50.03821" lon="2.31086">
        <ele>125.5</ele>
        <time>2023-10-25T12:38:14Z</time>
      </trkpt>
      <trkpt lat="50.03821" lon="2.31087">
        <ele>125.5</ele>
        <time>2023-10-25T12:38:15Z</time>
      </trkpt>
      <trkpt lat="50.0382" lon="2.31089">
        <ele>125.5</ele>
        <time>2023-10-25T12:38:16Z</time>
      </trkpt>
      <trkpt lat="50.0382" lon="2.3109">
        <ele>125.5</ele>
        <time>2023-10-25T12:38:17Z</time>
      </trkpt>
      <trkpt lat="50.0382" lon="2.31091">
        <ele>125.5</ele>
        <time>2023-10-25T12:38:18Z</time>
      </trkpt>
      <trkpt lat="50.0382" lon="2.31093">
        <ele>125.5</ele>
        <time>2023-10-25T12:38:19Z</time>
      </trkpt>
      <trkpt lat="50.0382" lon="2.31094">
        <ele>125.5</ele>
        <time>2023-10-25T12:38:20Z</time>
      </trkpt>
      <trkpt lat="50.0382" lon="2.31096">
        <ele>125.5</ele>
        <time>2023-10-25T12:38:21Z</time>
      </trkpt>
      <trkpt lat="50.03819" lon="2.31097">
        <ele>125.5</ele>
        <time>2023-10-25T12:38:22Z</time>
      </trkpt>
      <trkpt lat="50.03819" lon="2.31099">
        <ele>125.5</ele>
        <time>2023-10-25T12:38:23Z</time>
      </trkpt>
      <trkpt lat="50.03819" lon="2.31101">
        <ele>125.5</ele>
        <time>2023-10-25T12:38:24Z</time>
      </trkpt>
      <trkpt lat="50.03819" lon="2.31102">
        <ele>125.5</ele>
        <time>2023-10-25T12:38:25Z</time>
      </trkpt>
      <trkpt lat="50.03819" lon="2.31104">
        <ele>125.5</ele>
        <time>2023-10-25T12:38:26Z</time>
      </trkpt>
      <trkpt lat="50.03818" lon="2.31107">
        <ele>125.5</ele>
        <time>2023-10-25T12:38:27Z</time>
      </trkpt>
      <trkpt lat="50.03818" lon="2.31109">
        <ele>125.6</ele>
        <time>2023-10-25T12:38:28Z</time>
      </trkpt>
      <trkpt lat="50.03818" lon="2.31111">
        <ele>125.6</ele>
        <time>2023-10-25T12:38:29Z</time>
      </trkpt>
      <trkpt lat="50.03818" lon="2.31114">
        <ele>125.6</ele>
        <time>2023-10-25T12:38:30Z</time>
      </trkpt>
      <trkpt lat="50.03817" lon="2.31116">
        <ele>125.6</ele>
        <time>2023-10-25T12:38:31Z</time>
      </trkpt>
      <trkpt lat="50.03817" lon="2.31118">
        <ele>125.6</ele>
        <time>2023-10-25T12:38:32Z</time>
      </trkpt>
      <trkpt lat="50.03817" lon="2.3112">
        <ele>125.7</ele>
        <time>2023-10-25T12:38:33Z</time>
      </trkpt>
      <trkpt lat="50.03817" lon="2.31122">
        <ele>125.7</ele>
        <time>2023-10-25T12:38:34Z</time>
      </trkpt>
      <trkpt lat="50.03817" lon="2.31123">
        <ele>125.7</ele>
        <time>2023-10-25T12:38:35Z</time>
      </trkpt>
      <trkpt lat="50.03817" lon="2.31125">
        <ele>125.7</ele>
        <time>2023-10-25T12:38:36Z</time>
      </trkpt>
      <trkpt lat="50.03817" lon="2.31126">
        <ele>125.7</ele>
        <time>2023-10-25T12:38:37Z</time>
      </trkpt>
      <trkpt lat="50.03817" lon="2.31128">
        <ele>125.8</ele>
        <time>2023-10-25T12:38:38Z</time>
      </trkpt>
      <trkpt lat="50.03817" lon="2.3113">
        <ele>125.8</ele>
        <time>2023-10-25T12:38:39Z</time>
      </trkpt>
      <trkpt lat="50.03816" lon="2.31132">
        <ele>125.8</ele>
        <time>2023-10-25T12:38:40Z</time>
      </trkpt>
      <trkpt lat="50.03816" lon="2.31134">
        <ele>125.8</ele>
        <time>2023-10-25T12:38:41Z</time>
      </trkpt>
      <trkpt lat="50.03816" lon="2.31135">
        <ele>125.8</ele>
        <time>2023-10-25T12:38:42Z</time>
      </trkpt>
      <trkpt lat="50.03816" lon="2.31137">
        <ele>125.9</ele>
        <time>2023-10-25T12:38:43Z</time>
      </trkpt>
      <trkpt lat="50.03816" lon="2.31139">
        <ele>125.9</ele>
        <time>2023-10-25T12:38:44Z</time>
      </trkpt>
      <trkpt lat="50.03816" lon="2.31141">
        <ele>125.9</ele>
        <time>2023-10-25T12:38:45Z</time>
      </trkpt>
      <trkpt lat="50.03816" lon="2.31142">
        <ele>125.9</ele>
        <time>2023-10-25T12:38:46Z</time>
      </trkpt>
      <trkpt lat="50.03816" lon="2.31144">
        <ele>126</ele>
        <time>2023-10-25T12:38:47Z</time>
      </trkpt>
      <trkpt lat="50.03816" lon="2.31146">
        <ele>126</ele>
        <time>2023-10-25T12:38:48Z</time>
      </trkpt>
      <trkpt lat="50.03816" lon="2.31148">
        <ele>126</ele>
        <time>2023-10-25T12:38:49Z</time>
      </trkpt>
      <trkpt lat="50.03816" lon="2.3115">
        <ele>126</ele>
        <time>2023-10-25T12:38:50Z</time>
      </trkpt>
      <trkpt lat="50.03815" lon="2.31151">
        <ele>126.1</ele>
        <time>2023-10-25T12:38:51Z</time>
      </trkpt>
      <trkpt lat="50.03815" lon="2.31153">
        <ele>126.1</ele>
        <time>2023-10-25T12:38:52Z</time>
      </trkpt>
      <trkpt lat="50.03815" lon="2.31154">
        <ele>126.1</ele>
        <time>2023-10-25T12:38:53Z</time>
      </trkpt>
      <trkpt lat="50.03816" lon="2.31156">
        <ele>126.1</ele>
        <time>2023-10-25T12:38:54Z</time>
      </trkpt>
      <trkpt lat="50.03816" lon="2.31158">
        <ele>126.2</ele>
        <time>2023-10-25T12:38:55Z</time>
      </trkpt>
      <trkpt lat="50.03816" lon="2.31159">
        <ele>126.2</ele>
        <time>2023-10-25T12:38:56Z</time>
      </trkpt>
      <trkpt lat="50.03816" lon="2.31161">
        <ele>126.2</ele>
        <time>2023-10-25T12:38:57Z</time>
      </trkpt>
      <trkpt lat="50.03816" lon="2.31162">
        <ele>126.2</ele>
        <time>2023-10-25T12:38:58Z</time>
      </trkpt>
      <trkpt lat="50.03816" lon="2.31164">
        <ele>126.2</ele>
        <time>2023-10-25T12:38:59Z</time>
      </trkpt>
      <trkpt lat="50.03816" lon="2.31166">
        <ele>126.3</ele>
        <time>2023-10-25T12:39:00Z</time>
      </trkpt>
      <trkpt lat="50.03816" lon="2.31167">
        <ele>126.3</ele>
        <time>2023-10-25T12:39:01Z</time>
      </trkpt>
      <trkpt lat="50.03816" lon="2.31169">
        <ele>126.3</ele>
        <time>2023-10-25T12:39:02Z</time>
      </trkpt>
      <trkpt lat="50.03816" lon="2.31171">
        <ele>126.4</ele>
        <time>2023-10-25T12:39:03Z</time>
      </trkpt>
      <trkpt lat="50.03815" lon="2.31173">
        <ele>126.4</ele>
        <time>2023-10-25T12:39:04Z</time>
      </trkpt>
      <trkpt lat="50.03815" lon="2.31175">
        <ele>126.4</ele>
        <time>2023-10-25T12:39:05Z</time>
      </trkpt>
      <trkpt lat="50.03815" lon="2.31178">
        <ele>126.5</ele>
        <time>2023-10-25T12:39:06Z</time>
      </trkpt>
      <trkpt lat="50.03814" lon="2.31179">
        <ele>126.5</ele>
        <time>2023-10-25T12:39:07Z</time>
      </trkpt>
      <trkpt lat="50.03814" lon="2.3118">
        <ele>126.5</ele>
        <time>2023-10-25T12:39:08Z</time>
      </trkpt>
      <trkpt lat="50.03814" lon="2.31182">
        <ele>126.5</ele>
        <time>2023-10-25T12:39:09Z</time>
      </trkpt>
      <trkpt lat="50.03814" lon="2.31183">
        <ele>126.5</ele>
        <time>2023-10-25T12:39:10Z</time>
      </trkpt>
      <trkpt lat="50.03813" lon="2.31185">
        <ele>126.6</ele>
        <time>2023-10-25T12:39:11Z</time>
      </trkpt>
      <trkpt lat="50.03813" lon="2.31186">
        <ele>126.6</ele>
        <time>2023-10-25T12:39:12Z</time>
      </trkpt>
      <trkpt lat="50.03813" lon="2.31187">
        <ele>126.6</ele>
        <time>2023-10-25T12:39:13Z</time>
      </trkpt>
      <trkpt lat="50.03812" lon="2.31189">
        <ele>126.6</ele>
        <time>2023-10-25T12:39:14Z</time>
      </trkpt>
      <trkpt lat="50.03812" lon="2.3119">
        <ele>126.6</ele>
        <time>2023-10-25T12:39:15Z</time>
      </trkpt>
      <trkpt lat="50.03812" lon="2.31192">
        <ele>126.7</ele>
        <time>2023-10-25T12:39:16Z</time>
      </trkpt>
      <trkpt lat="50.03811" lon="2.31194">
        <ele>126.7</ele>
        <time>2023-10-25T12:39:17Z</time>
      </trkpt>
      <trkpt lat="50.03811" lon="2.31195">
        <ele>126.7</ele>
        <time>2023-10-25T12:39:18Z</time>
      </trkpt>
      <trkpt lat="50.0381" lon="2.31196">
        <ele>126.7</ele>
        <time>2023-10-25T12:39:19Z</time>
      </trkpt>
      <trkpt lat="50.0381" lon="2.31198">
        <ele>126.8</ele>
        <time>2023-10-25T12:39:20Z</time>
      </trkpt>
      <trkpt lat="50.0381" lon="2.31199">
        <ele>126.8</ele>
        <time>2023-10-25T12:39:21Z</time>
      </trkpt>
      <trkpt lat="50.03809" lon="2.31201">
        <ele>126.8</ele>
        <time>2023-10-25T12:39:22Z</time>
      </trkpt>
      <trkpt lat="50.03809" lon="2.31203">
        <ele>126.8</ele>
        <time>2023-10-25T12:39:23Z</time>
      </trkpt>
      <trkpt lat="50.03809" lon="2.31205">
        <ele>126.9</ele>
        <time>2023-10-25T12:39:24Z</time>
      </trkpt>
      <trkpt lat="50.03808" lon="2.31207">
        <ele>126.9</ele>
        <time>2023-10-25T12:39:25Z</time>
      </trkpt>
      <trkpt lat="50.03808" lon="2.31208">
        <ele>126.9</ele>
        <time>2023-10-25T12:39:26Z</time>
      </trkpt>
      <trkpt lat="50.03808" lon="2.31212">
        <ele>126.9</ele>
        <time>2023-10-25T12:39:27Z</time>
      </trkpt>
      <trkpt lat="50.03807" lon="2.31213">
        <ele>127</ele>
        <time>2023-10-25T12:39:28Z</time>
      </trkpt>
      <trkpt lat="50.03807" lon="2.31214">
        <ele>127</ele>
        <time>2023-10-25T12:39:29Z</time>
      </trkpt>
      <trkpt lat="50.03807" lon="2.31218">
        <ele>127</ele>
        <time>2023-10-25T12:39:30Z</time>
      </trkpt>
      <trkpt lat="50.03807" lon="2.31219">
        <ele>127</ele>
        <time>2023-10-25T12:39:31Z</time>
      </trkpt>
      <trkpt lat="50.03807" lon="2.3122">
        <ele>127</ele>
        <time>2023-10-25T12:39:32Z</time>
      </trkpt>
      <trkpt lat="50.03806" lon="2.31222">
        <ele>127</ele>
        <time>2023-10-25T12:39:33Z</time>
      </trkpt>
      <trkpt lat="50.03806" lon="2.31223">
        <ele>127.1</ele>
        <time>2023-10-25T12:39:34Z</time>
      </trkpt>
      <trkpt lat="50.03806" lon="2.31225">
        <ele>127.1</ele>
        <time>2023-10-25T12:39:35Z</time>
      </trkpt>
      <trkpt lat="50.03806" lon="2.31226">
        <ele>127.1</ele>
        <time>2023-10-25T12:39:36Z</time>
      </trkpt>
      <trkpt lat="50.03806" lon="2.31227">
        <ele>127.1</ele>
        <time>2023-10-25T12:39:37Z</time>
      </trkpt>
      <trkpt lat="50.03805" lon="2.31229">
        <ele>127.1</ele>
        <time>2023-10-25T12:39:38Z</time>
      </trkpt>
      <trkpt lat="50.03805" lon="2.3123">
        <ele>127.1</ele>
        <time>2023-10-25T12:39:39Z</time>
      </trkpt>
      <trkpt lat="50.03805" lon="2.31232">
        <ele>127.1</ele>
        <time>2023-10-25T12:39:40Z</time>
      </trkpt>
      <trkpt lat="50.03805" lon="2.31233">
        <ele>127.2</ele>
        <time>2023-10-25T12:39:41Z</time>
      </trkpt>
      <trkpt lat="50.03804" lon="2.31235">
        <ele>127.2</ele>
        <time>2023-10-25T12:39:42Z</time>
      </trkpt>
      <trkpt lat="50.03804" lon="2.31236">
        <ele>127.2</ele>
        <time>2023-10-25T12:39:43Z</time>
      </trkpt>
      <trkpt lat="50.03803" lon="2.31238">
        <ele>127.2</ele>
        <time>2023-10-25T12:39:44Z</time>
      </trkpt>
      <trkpt lat="50.03803" lon="2.31239">
        <ele>127.2</ele>
        <time>2023-10-25T12:39:45Z</time>
      </trkpt>
      <trkpt lat="50.03803" lon="2.3124">
        <ele>127.2</ele>
        <time>2023-10-25T12:39:46Z</time>
      </trkpt>
      <trkpt lat="50.03802" lon="2.31241">
        <ele>127.2</ele>
        <time>2023-10-25T12:39:47Z</time>
      </trkpt>
      <trkpt lat="50.03802" lon="2.31243">
        <ele>127.2</ele>
        <time>2023-10-25T12:39:48Z</time>
      </trkpt>
      <trkpt lat="50.03802" lon="2.31244">
        <ele>127.2</ele>
        <time>2023-10-25T12:39:49Z</time>
      </trkpt>
      <trkpt lat="50.03801" lon="2.31246">
        <ele>127.2</ele>
        <time>2023-10-25T12:39:50Z</time>
      </trkpt>
      <trkpt lat="50.03801" lon="2.31247">
        <ele>127.2</ele>
        <time>2023-10-25T12:39:51Z</time>
      </trkpt>
      <trkpt lat="50.03801" lon="2.3125">
        <ele>127.2</ele>
        <time>2023-10-25T12:39:52Z</time>
      </trkpt>
      <trkpt lat="50.038" lon="2.31251">
        <ele>127.2</ele>
        <time>2023-10-25T12:39:53Z</time>
      </trkpt>
      <trkpt lat="50.038" lon="2.31252">
        <ele>127.2</ele>
        <time>2023-10-25T12:39:54Z</time>
      </trkpt>
      <trkpt lat="50.03799" lon="2.31254">
        <ele>127.2</ele>
        <time>2023-10-25T12:39:55Z</time>
      </trkpt>
      <trkpt lat="50.03799" lon="2.31256">
        <ele>127.2</ele>
        <time>2023-10-25T12:39:56Z</time>
      </trkpt>
      <trkpt lat="50.03799" lon="2.31257">
        <ele>127.2</ele>
        <time>2023-10-25T12:39:57Z</time>
      </trkpt>
      <trkpt lat="50.03798" lon="2.31258">
        <ele>127.2</ele>
        <time>2023-10-25T12:39:58Z</time>
      </trkpt>
      <trkpt lat="50.03798" lon="2.3126">
        <ele>127.2</ele>
        <time>2023-10-25T12:39:59Z</time>
      </trkpt>
      <trkpt lat="50.03798" lon="2.31261">
        <ele>127.2</ele>
        <time>2023-10-25T12:40:00Z</time>
      </trkpt>
      <trkpt lat="50.03797" lon="2.31263">
        <ele>127.2</ele>
        <time>2023-10-25T12:40:01Z</time>
      </trkpt>
      <trkpt lat="50.03797" lon="2.31264">
        <ele>127.1</ele>
        <time>2023-10-25T12:40:02Z</time>
      </trkpt>
      <trkpt lat="50.03797" lon="2.31266">
        <ele>127.1</ele>
        <time>2023-10-25T12:40:03Z</time>
      </trkpt>
      <trkpt lat="50.03796" lon="2.31267">
        <ele>127.1</ele>
        <time>2023-10-25T12:40:04Z</time>
      </trkpt>
      <trkpt lat="50.03796" lon="2.31269">
        <ele>127.1</ele>
        <time>2023-10-25T12:40:05Z</time>
      </trkpt>
      <trkpt lat="50.03796" lon="2.3127">
        <ele>127.1</ele>
        <time>2023-10-25T12:40:06Z</time>
      </trkpt>
      <trkpt lat="50.03796" lon="2.31272">
        <ele>127.1</ele>
        <time>2023-10-25T12:40:07Z</time>
      </trkpt>
      <trkpt lat="50.03795" lon="2.31273">
        <ele>127</ele>
        <time>2023-10-25T12:40:08Z</time>
      </trkpt>
      <trkpt lat="50.03795" lon="2.31274">
        <ele>127</ele>
        <time>2023-10-25T12:40:09Z</time>
      </trkpt>
      <trkpt lat="50.03795" lon="2.31276">
        <ele>127</ele>
        <time>2023-10-25T12:40:10Z</time>
      </trkpt>
      <trkpt lat="50.03795" lon="2.31277">
        <ele>127</ele>
        <time>2023-10-25T12:40:11Z</time>
      </trkpt>
      <trkpt lat="50.03795" lon="2.31278">
        <ele>127</ele>
        <time>2023-10-25T12:40:12Z</time>
      </trkpt>
      <trkpt lat="50.03795" lon="2.3128">
        <ele>127</ele>
        <time>2023-10-25T12:40:13Z</time>
      </trkpt>
      <trkpt lat="50.03795" lon="2.31282">
        <ele>126.9</ele>
        <time>2023-10-25T12:40:14Z</time>
      </trkpt>
      <trkpt lat="50.03794" lon="2.31283">
        <ele>126.9</ele>
        <time>2023-10-25T12:40:15Z</time>
      </trkpt>
      <trkpt lat="50.03794" lon="2.31285">
        <ele>126.9</ele>
        <time>2023-10-25T12:40:16Z</time>
      </trkpt>
      <trkpt lat="50.03794" lon="2.31287">
        <ele>126.9</ele>
        <time>2023-10-25T12:40:17Z</time>
      </trkpt>
      <trkpt lat="50.03793" lon="2.31289">
        <ele>126.8</ele>
        <time>2023-10-25T12:40:18Z</time>
      </trkpt>
      <trkpt lat="50.03793" lon="2.31291">
        <ele>126.8</ele>
        <time>2023-10-25T12:40:19Z</time>
      </trkpt>
      <trkpt lat="50.03793" lon="2.31292">
        <ele>126.8</ele>
        <time>2023-10-25T12:40:20Z</time>
      </trkpt>
      <trkpt lat="50.03793" lon="2.31294">
        <ele>126.7</ele>
        <time>2023-10-25T12:40:21Z</time>
      </trkpt>
      <trkpt lat="50.03793" lon="2.31295">
        <ele>126.7</ele>
        <time>2023-10-25T12:40:22Z</time>
      </trkpt>
      <trkpt lat="50.03792" lon="2.31297">
        <ele>126.7</ele>
        <time>2023-10-25T12:40:23Z</time>
      </trkpt>
      <trkpt lat="50.03792" lon="2.31299">
        <ele>126.7</ele>
        <time>2023-10-25T12:40:24Z</time>
      </trkpt>
      <trkpt lat="50.03792" lon="2.313">
        <ele>126.7</ele>
        <time>2023-10-25T12:40:25Z</time>
      </trkpt>
      <trkpt lat="50.03792" lon="2.31302">
        <ele>126.6</ele>
        <time>2023-10-25T12:40:26Z</time>
      </trkpt>
      <trkpt lat="50.03792" lon="2.31303">
        <ele>126.6</ele>
        <time>2023-10-25T12:40:27Z</time>
      </trkpt>
      <trkpt lat="50.03791" lon="2.31305">
        <ele>126.6</ele>
        <time>2023-10-25T12:40:28Z</time>
      </trkpt>
      <trkpt lat="50.03791" lon="2.31307">
        <ele>126.6</ele>
        <time>2023-10-25T12:40:29Z</time>
      </trkpt>
      <trkpt lat="50.03791" lon="2.31308">
        <ele>126.5</ele>
        <time>2023-10-25T12:40:30Z</time>
      </trkpt>
      <trkpt lat="50.0379" lon="2.3131">
        <ele>126.5</ele>
        <time>2023-10-25T12:40:31Z</time>
      </trkpt>
      <trkpt lat="50.0379" lon="2.31312">
        <ele>126.5</ele>
        <time>2023-10-25T12:40:32Z</time>
      </trkpt>
      <trkpt lat="50.0379" lon="2.31314">
        <ele>126.4</ele>
        <time>2023-10-25T12:40:33Z</time>
      </trkpt>
      <trkpt lat="50.0379" lon="2.31315">
        <ele>126.4</ele>
        <time>2023-10-25T12:40:34Z</time>
      </trkpt>
      <trkpt lat="50.03789" lon="2.31316">
        <ele>126.4</ele>
        <time>2023-10-25T12:40:35Z</time>
      </trkpt>
      <trkpt lat="50.03789" lon="2.31318">
        <ele>126.4</ele>
        <time>2023-10-25T12:40:36Z</time>
      </trkpt>
      <trkpt lat="50.03789" lon="2.3132">
        <ele>126.4</ele>
        <time>2023-10-25T12:40:37Z</time>
      </trkpt>
      <trkpt lat="50.03789" lon="2.31321">
        <ele>126.3</ele>
        <time>2023-10-25T12:40:38Z</time>
      </trkpt>
      <trkpt lat="50.03788" lon="2.31323">
        <ele>126.3</ele>
        <time>2023-10-25T12:40:39Z</time>
      </trkpt>
      <trkpt lat="50.03788" lon="2.31324">
        <ele>126.3</ele>
        <time>2023-10-25T12:40:40Z</time>
      </trkpt>
      <trkpt lat="50.03788" lon="2.31326">
        <ele>126.2</ele>
        <time>2023-10-25T12:40:41Z</time>
      </trkpt>
      <trkpt lat="50.03788" lon="2.31328">
        <ele>126.2</ele>
        <time>2023-10-25T12:40:42Z</time>
      </trkpt>
      <trkpt lat="50.03787" lon="2.31329">
        <ele>126.2</ele>
        <time>2023-10-25T12:40:43Z</time>
      </trkpt>
      <trkpt lat="50.03787" lon="2.31331">
        <ele>126.2</ele>
        <time>2023-10-25T12:40:44Z</time>
      </trkpt>
      <trkpt lat="50.03787" lon="2.31332">
        <ele>126.1</ele>
        <time>2023-10-25T12:40:45Z</time>
      </trkpt>
      <trkpt lat="50.03786" lon="2.31334">
        <ele>126.1</ele>
        <time>2023-10-25T12:40:46Z</time>
      </trkpt>
      <trkpt lat="50.03786" lon="2.31337">
        <ele>126.1</ele>
        <time>2023-10-25T12:40:47Z</time>
      </trkpt>
      <trkpt lat="50.03786" lon="2.31338">
        <ele>126</ele>
        <time>2023-10-25T12:40:48Z</time>
      </trkpt>
      <trkpt lat="50.03786" lon="2.3134">
        <ele>126</ele>
        <time>2023-10-25T12:40:49Z</time>
      </trkpt>
      <trkpt lat="50.03785" lon="2.31343">
        <ele>126</ele>
        <time>2023-10-25T12:40:50Z</time>
      </trkpt>
      <trkpt lat="50.03785" lon="2.31344">
        <ele>125.9</ele>
        <time>2023-10-25T12:40:51Z</time>
      </trkpt>
      <trkpt lat="50.03785" lon="2.31345">
        <ele>125.9</ele>
        <time>2023-10-25T12:40:52Z</time>
      </trkpt>
      <trkpt lat="50.03785" lon="2.31347">
        <ele>125.9</ele>
        <time>2023-10-25T12:40:53Z</time>
      </trkpt>
      <trkpt lat="50.03785" lon="2.31349">
        <ele>125.9</ele>
        <time>2023-10-25T12:40:54Z</time>
      </trkpt>
      <trkpt lat="50.03784" lon="2.31351">
        <ele>125.8</ele>
        <time>2023-10-25T12:40:55Z</time>
      </trkpt>
      <trkpt lat="50.03784" lon="2.31352">
        <ele>125.8</ele>
        <time>2023-10-25T12:40:56Z</time>
      </trkpt>
      <trkpt lat="50.03784" lon="2.31354">
        <ele>125.8</ele>
        <time>2023-10-25T12:40:57Z</time>
      </trkpt>
      <trkpt lat="50.03784" lon="2.31356">
        <ele>125.8</ele>
        <time>2023-10-25T12:40:58Z</time>
      </trkpt>
      <trkpt lat="50.03783" lon="2.31359">
        <ele>125.7</ele>
        <time>2023-10-25T12:40:59Z</time>
      </trkpt>
      <trkpt lat="50.03783" lon="2.3136">
        <ele>125.7</ele>
        <time>2023-10-25T12:41:00Z</time>
      </trkpt>
      <trkpt lat="50.03783" lon="2.31362">
        <ele>125.7</ele>
        <time>2023-10-25T12:41:01Z</time>
      </trkpt>
      <trkpt lat="50.03783" lon="2.31363">
        <ele>125.7</ele>
        <time>2023-10-25T12:41:02Z</time>
      </trkpt>
      <trkpt lat="50.03782" lon="2.31365">
        <ele>125.7</ele>
        <time>2023-10-25T12:41:03Z</time>
      </trkpt>
      <trkpt lat="50.03782" lon="2.31367">
        <ele>125.6</ele>
        <time>2023-10-25T12:41:04Z</time>
      </trkpt>
      <trkpt lat="50.03782" lon="2.31369">
        <ele>125.6</ele>
        <time>2023-10-25T12:41:05Z</time>
      </trkpt>
      <trkpt lat="50.03782" lon="2.3137">
        <ele>125.6</ele>
        <time>2023-10-25T12:41:06Z</time>
      </trkpt>
      <trkpt lat="50.03781" lon="2.31371">
        <ele>125.6</ele>
        <time>2023-10-25T12:41:07Z</time>
      </trkpt>
      <trkpt lat="50.03781" lon="2.31373">
        <ele>125.6</ele>
        <time>2023-10-25T12:41:08Z</time>
      </trkpt>
      <trkpt lat="50.03781" lon="2.31375">
        <ele>125.5</ele>
        <time>2023-10-25T12:41:09Z</time>
      </trkpt>
      <trkpt lat="50.03781" lon="2.31376">
        <ele>125.5</ele>
        <time>2023-10-25T12:41:10Z</time>
      </trkpt>
      <trkpt lat="50.03781" lon="2.31378">
        <ele>125.5</ele>
        <time>2023-10-25T12:41:11Z</time>
      </trkpt>
      <trkpt lat="50.0378" lon="2.3138">
        <ele>125.5</ele>
        <time>2023-10-25T12:41:12Z</time>
      </trkpt>
      <trkpt lat="50.0378" lon="2.31381">
        <ele>125.5</ele>
        <time>2023-10-25T12:41:13Z</time>
      </trkpt>
      <trkpt lat="50.03779" lon="2.31383">
        <ele>125.4</ele>
        <time>2023-10-25T12:41:14Z</time>
      </trkpt>
      <trkpt lat="50.03779" lon="2.31384">
        <ele>125.4</ele>
        <time>2023-10-25T12:41:15Z</time>
      </trkpt>
      <trkpt lat="50.03779" lon="2.31386">
        <ele>125.4</ele>
        <time>2023-10-25T12:41:16Z</time>
      </trkpt>
      <trkpt lat="50.03779" lon="2.31387">
        <ele>125.4</ele>
        <time>2023-10-25T12:41:17Z</time>
      </trkpt>
      <trkpt lat="50.03778" lon="2.31389">
        <ele>125.4</ele>
        <time>2023-10-25T12:41:18Z</time>
      </trkpt>
      <trkpt lat="50.03778" lon="2.3139">
        <ele>125.4</ele>
        <time>2023-10-25T12:41:19Z</time>
      </trkpt>
      <trkpt lat="50.03778" lon="2.31392">
        <ele>125.4</ele>
        <time>2023-10-25T12:41:20Z</time>
      </trkpt>
      <trkpt lat="50.03778" lon="2.31394">
        <ele>125.3</ele>
        <time>2023-10-25T12:41:21Z</time>
      </trkpt>
      <trkpt lat="50.03777" lon="2.31395">
        <ele>125.3</ele>
        <time>2023-10-25T12:41:22Z</time>
      </trkpt>
      <trkpt lat="50.03777" lon="2.31397">
        <ele>125.3</ele>
        <time>2023-10-25T12:41:23Z</time>
      </trkpt>
      <trkpt lat="50.03777" lon="2.31399">
        <ele>125.3</ele>
        <time>2023-10-25T12:41:24Z</time>
      </trkpt>
      <trkpt lat="50.03777" lon="2.31401">
        <ele>125.3</ele>
        <time>2023-10-25T12:41:25Z</time>
      </trkpt>
      <trkpt lat="50.03776" lon="2.31402">
        <ele>125.3</ele>
        <time>2023-10-25T12:41:26Z</time>
      </trkpt>
      <trkpt lat="50.03776" lon="2.31404">
        <ele>125.3</ele>
        <time>2023-10-25T12:41:27Z</time>
      </trkpt>
      <trkpt lat="50.03776" lon="2.31405">
        <ele>125.2</ele>
        <time>2023-10-25T12:41:28Z</time>
      </trkpt>
      <trkpt lat="50.03776" lon="2.31407">
        <ele>125.2</ele>
        <time>2023-10-25T12:41:29Z</time>
      </trkpt>
      <trkpt lat="50.03776" lon="2.31408">
        <ele>125.2</ele>
        <time>2023-10-25T12:41:30Z</time>
      </trkpt>
      <trkpt lat="50.03775" lon="2.3141">
        <ele>125.2</ele>
        <time>2023-10-25T12:41:31Z</time>
      </trkpt>
      <trkpt lat="50.03775" lon="2.31412">
        <ele>125.2</ele>
        <time>2023-10-25T12:41:32Z</time>
      </trkpt>
      <trkpt lat="50.03775" lon="2.31414">
        <ele>125.2</ele>
        <time>2023-10-25T12:41:33Z</time>
      </trkpt>
      <trkpt lat="50.03775" lon="2.31415">
        <ele>125.2</ele>
        <time>2023-10-25T12:41:34Z</time>
      </trkpt>
      <trkpt lat="50.03775" lon="2.31417">
        <ele>125.2</ele>
        <time>2023-10-25T12:41:35Z</time>
      </trkpt>
      <trkpt lat="50.03775" lon="2.31419">
        <ele>125.2</ele>
        <time>2023-10-25T12:41:36Z</time>
      </trkpt>
      <trkpt lat="50.03774" lon="2.3142">
        <ele>125.1</ele>
        <time>2023-10-25T12:41:37Z</time>
      </trkpt>
      <trkpt lat="50.03774" lon="2.31422">
        <ele>125.1</ele>
        <time>2023-10-25T12:41:38Z</time>
      </trkpt>
      <trkpt lat="50.03774" lon="2.31423">
        <ele>125.1</ele>
        <time>2023-10-25T12:41:39Z</time>
      </trkpt>
      <trkpt lat="50.03774" lon="2.31425">
        <ele>125.1</ele>
        <time>2023-10-25T12:41:40Z</time>
      </trkpt>
      <trkpt lat="50.03774" lon="2.31427">
        <ele>125.1</ele>
        <time>2023-10-25T12:41:41Z</time>
      </trkpt>
      <trkpt lat="50.03774" lon="2.31429">
        <ele>125.1</ele>
        <time>2023-10-25T12:41:42Z</time>
      </trkpt>
      <trkpt lat="50.03773" lon="2.31431">
        <ele>125.1</ele>
        <time>2023-10-25T12:41:43Z</time>
      </trkpt>
      <trkpt lat="50.03773" lon="2.31432">
        <ele>125.1</ele>
        <time>2023-10-25T12:41:44Z</time>
      </trkpt>
      <trkpt lat="50.03773" lon="2.31434">
        <ele>125.1</ele>
        <time>2023-10-25T12:41:45Z</time>
      </trkpt>
      <trkpt lat="50.03773" lon="2.31435">
        <ele>125.1</ele>
        <time>2023-10-25T12:41:46Z</time>
      </trkpt>
      <trkpt lat="50.03773" lon="2.31437">
        <ele>125.1</ele>
        <time>2023-10-25T12:41:47Z</time>
      </trkpt>
      <trkpt lat="50.03772" lon="2.31438">
        <ele>125.1</ele>
        <time>2023-10-25T12:41:48Z</time>
      </trkpt>
      <trkpt lat="50.03772" lon="2.3144">
        <ele>125.1</ele>
        <time>2023-10-25T12:41:49Z</time>
      </trkpt>
      <trkpt lat="50.03772" lon="2.31441">
        <ele>125.1</ele>
        <time>2023-10-25T12:41:50Z</time>
      </trkpt>
      <trkpt lat="50.03771" lon="2.31443">
        <ele>125.1</ele>
        <time>2023-10-25T12:41:51Z</time>
      </trkpt>
      <trkpt lat="50.03771" lon="2.31445">
        <ele>125.1</ele>
        <time>2023-10-25T12:41:52Z</time>
      </trkpt>
      <trkpt lat="50.03771" lon="2.31446">
        <ele>125</ele>
        <time>2023-10-25T12:41:53Z</time>
      </trkpt>
      <trkpt lat="50.0377" lon="2.31448">
        <ele>125</ele>
        <time>2023-10-25T12:41:54Z</time>
      </trkpt>
      <trkpt lat="50.0377" lon="2.3145">
        <ele>125</ele>
        <time>2023-10-25T12:41:55Z</time>
      </trkpt>
      <trkpt lat="50.0377" lon="2.31451">
        <ele>125</ele>
        <time>2023-10-25T12:41:56Z</time>
      </trkpt>
      <trkpt lat="50.03769" lon="2.31453">
        <ele>125</ele>
        <time>2023-10-25T12:41:57Z</time>
      </trkpt>
      <trkpt lat="50.03769" lon="2.31454">
        <ele>125</ele>
        <time>2023-10-25T12:41:58Z</time>
      </trkpt>
      <trkpt lat="50.03769" lon="2.31456">
        <ele>125</ele>
        <time>2023-10-25T12:41:59Z</time>
      </trkpt>
      <trkpt lat="50.03768" lon="2.31457">
        <ele>125</ele>
        <time>2023-10-25T12:42:00Z</time>
      </trkpt>
      <trkpt lat="50.03768" lon="2.31459">
        <ele>125</ele>
        <time>2023-10-25T12:42:01Z</time>
      </trkpt>
      <trkpt lat="50.03768" lon="2.31461">
        <ele>125</ele>
        <time>2023-10-25T12:42:02Z</time>
      </trkpt>
      <trkpt lat="50.03768" lon="2.31462">
        <ele>125</ele>
        <time>2023-10-25T12:42:03Z</time>
      </trkpt>
      <trkpt lat="50.03767" lon="2.31464">
        <ele>125</ele>
        <time>2023-10-25T12:42:04Z</time>
      </trkpt>
      <trkpt lat="50.03767" lon="2.31465">
        <ele>125</ele>
        <time>2023-10-25T12:42:05Z</time>
      </trkpt>
      <trkpt lat="50.03767" lon="2.31466">
        <ele>125</ele>
        <time>2023-10-25T12:42:06Z</time>
      </trkpt>
      <trkpt lat="50.03767" lon="2.31467">
        <ele>125</ele>
        <time>2023-10-25T12:42:07Z</time>
      </trkpt>
      <trkpt lat="50.03767" lon="2.31469">
        <ele>125</ele>
        <time>2023-10-25T12:42:08Z</time>
      </trkpt>
      <trkpt lat="50.03766" lon="2.3147">
        <ele>125</ele>
        <time>2023-10-25T12:42:09Z</time>
      </trkpt>
      <trkpt lat="50.03766" lon="2.31472">
        <ele>125</ele>
        <time>2023-10-25T12:42:10Z</time>
      </trkpt>
      <trkpt lat="50.03766" lon="2.31473">
        <ele>125</ele>
        <time>2023-10-25T12:42:11Z</time>
      </trkpt>
      <trkpt lat="50.03766" lon="2.31475">
        <ele>125</ele>
        <time>2023-10-25T12:42:12Z</time>
      </trkpt>
      <trkpt lat="50.03765" lon="2.31476">
        <ele>125</ele>
        <time>2023-10-25T12:42:13Z</time>
      </trkpt>
      <trkpt lat="50.03765" lon="2.31478">
        <ele>125</ele>
        <time>2023-10-25T12:42:14Z</time>
      </trkpt>
      <trkpt lat="50.03765" lon="2.31481">
        <ele>125</ele>
        <time>2023-10-25T12:42:15Z</time>
      </trkpt>
      <trkpt lat="50.03764" lon="2.31483">
        <ele>125</ele>
        <time>2023-10-25T12:42:16Z</time>
      </trkpt>
      <trkpt lat="50.03764" lon="2.31484">
        <ele>125</ele>
        <time>2023-10-25T12:42:17Z</time>
      </trkpt>
      <trkpt lat="50.03764" lon="2.31486">
        <ele>125</ele>
        <time>2023-10-25T12:42:18Z</time>
      </trkpt>
      <trkpt lat="50.03764" lon="2.31488">
        <ele>125</ele>
        <time>2023-10-25T12:42:19Z</time>
      </trkpt>
      <trkpt lat="50.03763" lon="2.31491">
        <ele>125</ele>
        <time>2023-10-25T12:42:20Z</time>
      </trkpt>
      <trkpt lat="50.03763" lon="2.31493">
        <ele>125</ele>
        <time>2023-10-25T12:42:21Z</time>
      </trkpt>
      <trkpt lat="50.03763" lon="2.31496">
        <ele>125</ele>
        <time>2023-10-25T12:42:22Z</time>
      </trkpt>
      <trkpt lat="50.03762" lon="2.31497">
        <ele>125</ele>
        <time>2023-10-25T12:42:23Z</time>
      </trkpt>
      <trkpt lat="50.03762" lon="2.31498">
        <ele>125</ele>
        <time>2023-10-25T12:42:24Z</time>
      </trkpt>
      <trkpt lat="50.03762" lon="2.315">
        <ele>125.1</ele>
        <time>2023-10-25T12:42:25Z</time>
      </trkpt>
      <trkpt lat="50.03762" lon="2.31501">
        <ele>125.1</ele>
        <time>2023-10-25T12:42:26Z</time>
      </trkpt>
      <trkpt lat="50.03761" lon="2.31503">
        <ele>125.1</ele>
        <time>2023-10-25T12:42:27Z</time>
      </trkpt>
      <trkpt lat="50.03761" lon="2.31506">
        <ele>125.1</ele>
        <time>2023-10-25T12:42:28Z</time>
      </trkpt>
      <trkpt lat="50.0376" lon="2.31507">
        <ele>125.1</ele>
        <time>2023-10-25T12:42:29Z</time>
      </trkpt>
      <trkpt lat="50.0376" lon="2.31508">
        <ele>125.1</ele>
        <time>2023-10-25T12:42:30Z</time>
      </trkpt>
      <trkpt lat="50.0376" lon="2.3151">
        <ele>125.1</ele>
        <time>2023-10-25T12:42:31Z</time>
      </trkpt>
      <trkpt lat="50.03759" lon="2.31513">
        <ele>125.1</ele>
        <time>2023-10-25T12:42:32Z</time>
      </trkpt>
      <trkpt lat="50.03759" lon="2.31514">
        <ele>125.2</ele>
        <time>2023-10-25T12:42:33Z</time>
      </trkpt>
      <trkpt lat="50.03758" lon="2.31515">
        <ele>125.2</ele>
        <time>2023-10-25T12:42:34Z</time>
      </trkpt>
      <trkpt lat="50.03758" lon="2.31516">
        <ele>125.2</ele>
        <time>2023-10-25T12:42:35Z</time>
      </trkpt>
      <trkpt lat="50.03758" lon="2.31517">
        <ele>125.2</ele>
        <time>2023-10-25T12:42:36Z</time>
      </trkpt>
      <trkpt lat="50.03757" lon="2.31517">
        <ele>125.2</ele>
        <time>2023-10-25T12:42:37Z</time>
      </trkpt>
      <trkpt lat="50.03757" lon="2.31518">
        <ele>125.2</ele>
        <time>2023-10-25T12:42:38Z</time>
      </trkpt>
      <trkpt lat="50.03756" lon="2.31519">
        <ele>125.2</ele>
        <time>2023-10-25T12:42:39Z</time>
      </trkpt>
      <trkpt lat="50.03756" lon="2.3152">
        <ele>125.2</ele>
        <time>2023-10-25T12:42:40Z</time>
      </trkpt>
      <trkpt lat="50.03756" lon="2.31522">
        <ele>125.2</ele>
        <time>2023-10-25T12:42:41Z</time>
      </trkpt>
      <trkpt lat="50.03755" lon="2.31523">
        <ele>125.2</ele>
        <time>2023-10-25T12:42:42Z</time>
      </trkpt>
      <trkpt lat="50.03755" lon="2.31525">
        <ele>125.3</ele>
        <time>2023-10-25T12:42:43Z</time>
      </trkpt>
      <trkpt lat="50.03754" lon="2.3153">
        <ele>125.3</ele>
        <time>2023-10-25T12:42:45Z</time>
      </trkpt>
      <trkpt lat="50.03753" lon="2.31531">
        <ele>125.3</ele>
        <time>2023-10-25T12:42:46Z</time>
      </trkpt>
      <trkpt lat="50.03753" lon="2.31533">
        <ele>125.3</ele>
        <time>2023-10-25T12:42:47Z</time>
      </trkpt>
      <trkpt lat="50.03753" lon="2.31534">
        <ele>125.4</ele>
        <time>2023-10-25T12:42:48Z</time>
      </trkpt>
      <trkpt lat="50.03753" lon="2.31535">
        <ele>125.4</ele>
        <time>2023-10-25T12:42:49Z</time>
      </trkpt>
      <trkpt lat="50.03753" lon="2.31537">
        <ele>125.4</ele>
        <time>2023-10-25T12:42:50Z</time>
      </trkpt>
      <trkpt lat="50.03752" lon="2.31538">
        <ele>125.4</ele>
        <time>2023-10-25T12:42:51Z</time>
      </trkpt>
      <trkpt lat="50.03752" lon="2.31539">
        <ele>125.4</ele>
        <time>2023-10-25T12:42:52Z</time>
      </trkpt>
      <trkpt lat="50.03752" lon="2.3154">
        <ele>125.4</ele>
        <time>2023-10-25T12:42:53Z</time>
      </trkpt>
      <trkpt lat="50.03752" lon="2.31542">
        <ele>125.4</ele>
        <time>2023-10-25T12:42:54Z</time>
      </trkpt>
      <trkpt lat="50.03752" lon="2.31544">
        <ele>125.5</ele>
        <time>2023-10-25T12:42:55Z</time>
      </trkpt>
      <trkpt lat="50.03751" lon="2.31546">
        <ele>125.5</ele>
        <time>2023-10-25T12:42:56Z</time>
      </trkpt>
      <trkpt lat="50.03751" lon="2.31547">
        <ele>125.5</ele>
        <time>2023-10-25T12:42:57Z</time>
      </trkpt>
      <trkpt lat="50.03751" lon="2.31549">
        <ele>125.5</ele>
        <time>2023-10-25T12:42:58Z</time>
      </trkpt>
      <trkpt lat="50.03751" lon="2.31551">
        <ele>125.5</ele>
        <time>2023-10-25T12:42:59Z</time>
      </trkpt>
      <trkpt lat="50.0375" lon="2.31552">
        <ele>125.6</ele>
        <time>2023-10-25T12:43:00Z</time>
      </trkpt>
      <trkpt lat="50.0375" lon="2.31553">
        <ele>125.6</ele>
        <time>2023-10-25T12:43:01Z</time>
      </trkpt>
      <trkpt lat="50.0375" lon="2.31554">
        <ele>125.6</ele>
        <time>2023-10-25T12:43:02Z</time>
      </trkpt>
      <trkpt lat="50.0375" lon="2.31555">
        <ele>125.6</ele>
        <time>2023-10-25T12:43:03Z</time>
      </trkpt>
      <trkpt lat="50.0375" lon="2.31557">
        <ele>125.6</ele>
        <time>2023-10-25T12:43:04Z</time>
      </trkpt>
      <trkpt lat="50.0375" lon="2.31558">
        <ele>125.6</ele>
        <time>2023-10-25T12:43:05Z</time>
      </trkpt>
      <trkpt lat="50.0375" lon="2.3156">
        <ele>125.7</ele>
        <time>2023-10-25T12:43:06Z</time>
      </trkpt>
      <trkpt lat="50.0375" lon="2.31563">
        <ele>125.7</ele>
        <time>2023-10-25T12:43:07Z</time>
      </trkpt>
      <trkpt lat="50.0375" lon="2.31564">
        <ele>125.7</ele>
        <time>2023-10-25T12:43:08Z</time>
      </trkpt>
      <trkpt lat="50.03749" lon="2.31565">
        <ele>125.7</ele>
        <time>2023-10-25T12:43:09Z</time>
      </trkpt>
      <trkpt lat="50.03749" lon="2.31568">
        <ele>125.8</ele>
        <time>2023-10-25T12:43:10Z</time>
      </trkpt>
      <trkpt lat="50.03749" lon="2.3157">
        <ele>125.8</ele>
        <time>2023-10-25T12:43:11Z</time>
      </trkpt>
      <trkpt lat="50.03749" lon="2.31571">
        <ele>125.8</ele>
        <time>2023-10-25T12:43:12Z</time>
      </trkpt>
      <trkpt lat="50.03749" lon="2.31573">
        <ele>125.8</ele>
        <time>2023-10-25T12:43:13Z</time>
      </trkpt>
      <trkpt lat="50.03748" lon="2.31575">
        <ele>125.9</ele>
        <time>2023-10-25T12:43:14Z</time>
      </trkpt>
      <trkpt lat="50.03748" lon="2.31576">
        <ele>125.9</ele>
        <time>2023-10-25T12:43:15Z</time>
      </trkpt>
      <trkpt lat="50.03748" lon="2.31578">
        <ele>125.9</ele>
        <time>2023-10-25T12:43:16Z</time>
      </trkpt>
      <trkpt lat="50.03747" lon="2.31579">
        <ele>125.9</ele>
        <time>2023-10-25T12:43:17Z</time>
      </trkpt>
      <trkpt lat="50.03747" lon="2.3158">
        <ele>126</ele>
        <time>2023-10-25T12:43:18Z</time>
      </trkpt>
      <trkpt lat="50.03747" lon="2.31581">
        <ele>126</ele>
        <time>2023-10-25T12:43:19Z</time>
      </trkpt>
      <trkpt lat="50.03747" lon="2.31582">
        <ele>126</ele>
        <time>2023-10-25T12:43:20Z</time>
      </trkpt>
      <trkpt lat="50.03746" lon="2.31584">
        <ele>126</ele>
        <time>2023-10-25T12:43:21Z</time>
      </trkpt>
      <trkpt lat="50.03746" lon="2.31585">
        <ele>126.1</ele>
        <time>2023-10-25T12:43:22Z</time>
      </trkpt>
      <trkpt lat="50.03746" lon="2.31586">
        <ele>126.1</ele>
        <time>2023-10-25T12:43:23Z</time>
      </trkpt>
      <trkpt lat="50.03746" lon="2.31587">
        <ele>126.1</ele>
        <time>2023-10-25T12:43:24Z</time>
      </trkpt>
      <trkpt lat="50.03745" lon="2.31588">
        <ele>126.2</ele>
        <time>2023-10-25T12:43:25Z</time>
      </trkpt>
      <trkpt lat="50.03745" lon="2.31589">
        <ele>126.2</ele>
        <time>2023-10-25T12:43:26Z</time>
      </trkpt>
      <trkpt lat="50.03745" lon="2.31591">
        <ele>126.2</ele>
        <time>2023-10-25T12:43:27Z</time>
      </trkpt>
      <trkpt lat="50.03744" lon="2.31592">
        <ele>126.2</ele>
        <time>2023-10-25T12:43:28Z</time>
      </trkpt>
      <trkpt lat="50.03744" lon="2.31593">
        <ele>126.3</ele>
        <time>2023-10-25T12:43:29Z</time>
      </trkpt>
      <trkpt lat="50.03744" lon="2.31595">
        <ele>126.3</ele>
        <time>2023-10-25T12:43:30Z</time>
      </trkpt>
      <trkpt lat="50.03743" lon="2.31596">
        <ele>126.3</ele>
        <time>2023-10-25T12:43:31Z</time>
      </trkpt>
      <trkpt lat="50.03743" lon="2.31598">
        <ele>126.4</ele>
        <time>2023-10-25T12:43:32Z</time>
      </trkpt>
      <trkpt lat="50.03742" lon="2.31599">
        <ele>126.4</ele>
        <time>2023-10-25T12:43:33Z</time>
      </trkpt>
      <trkpt lat="50.03742" lon="2.316">
        <ele>126.4</ele>
        <time>2023-10-25T12:43:34Z</time>
      </trkpt>
      <trkpt lat="50.03742" lon="2.31602">
        <ele>126.5</ele>
        <time>2023-10-25T12:43:35Z</time>
      </trkpt>
      <trkpt lat="50.03741" lon="2.31603">
        <ele>126.5</ele>
        <time>2023-10-25T12:43:36Z</time>
      </trkpt>
      <trkpt lat="50.03741" lon="2.31605">
        <ele>126.5</ele>
        <time>2023-10-25T12:43:37Z</time>
      </trkpt>
      <trkpt lat="50.0374" lon="2.31606">
        <ele>126.5</ele>
        <time>2023-10-25T12:43:38Z</time>
      </trkpt>
      <trkpt lat="50.0374" lon="2.31607">
        <ele>126.6</ele>
        <time>2023-10-25T12:43:39Z</time>
      </trkpt>
      <trkpt lat="50.0374" lon="2.31609">
        <ele>126.6</ele>
        <time>2023-10-25T12:43:40Z</time>
      </trkpt>
      <trkpt lat="50.03739" lon="2.3161">
        <ele>126.6</ele>
        <time>2023-10-25T12:43:41Z</time>
      </trkpt>
      <trkpt lat="50.03739" lon="2.31612">
        <ele>126.7</ele>
        <time>2023-10-25T12:43:42Z</time>
      </trkpt>
      <trkpt lat="50.03739" lon="2.31613">
        <ele>126.7</ele>
        <time>2023-10-25T12:43:43Z</time>
      </trkpt>
      <trkpt lat="50.03738" lon="2.31614">
        <ele>126.7</ele>
        <time>2023-10-25T12:43:44Z</time>
      </trkpt>
      <trkpt lat="50.03738" lon="2.31615">
        <ele>126.7</ele>
        <time>2023-10-25T12:43:45Z</time>
      </trkpt>
      <trkpt lat="50.03738" lon="2.31617">
        <ele>126.7</ele>
        <time>2023-10-25T12:43:46Z</time>
      </trkpt>
      <trkpt lat="50.03737" lon="2.31618">
        <ele>126.7</ele>
        <time>2023-10-25T12:43:47Z</time>
      </trkpt>
      <trkpt lat="50.03737" lon="2.3162">
        <ele>126.8</ele>
        <time>2023-10-25T12:43:48Z</time>
      </trkpt>
      <trkpt lat="50.03737" lon="2.31621">
        <ele>126.8</ele>
        <time>2023-10-25T12:43:49Z</time>
      </trkpt>
      <trkpt lat="50.03736" lon="2.31622">
        <ele>126.8</ele>
        <time>2023-10-25T12:43:50Z</time>
      </trkpt>
      <trkpt lat="50.03736" lon="2.31623">
        <ele>126.8</ele>
        <time>2023-10-25T12:43:51Z</time>
      </trkpt>
      <trkpt lat="50.03736" lon="2.31624">
        <ele>126.8</ele>
        <time>2023-10-25T12:43:52Z</time>
      </trkpt>
      <trkpt lat="50.03735" lon="2.31626">
        <ele>126.8</ele>
        <time>2023-10-25T12:43:53Z</time>
      </trkpt>
      <trkpt lat="50.03735" lon="2.31627">
        <ele>126.8</ele>
        <time>2023-10-25T12:43:54Z</time>
      </trkpt>
      <trkpt lat="50.03735" lon="2.31629">
        <ele>126.9</ele>
        <time>2023-10-25T12:43:55Z</time>
      </trkpt>
      <trkpt lat="50.03734" lon="2.3163">
        <ele>126.9</ele>
        <time>2023-10-25T12:43:56Z</time>
      </trkpt>
      <trkpt lat="50.03734" lon="2.31631">
        <ele>126.9</ele>
        <time>2023-10-25T12:43:57Z</time>
      </trkpt>
      <trkpt lat="50.03733" lon="2.31633">
        <ele>126.9</ele>
        <time>2023-10-25T12:43:58Z</time>
      </trkpt>
      <trkpt lat="50.03733" lon="2.31634">
        <ele>126.9</ele>
        <time>2023-10-25T12:43:59Z</time>
      </trkpt>
      <trkpt lat="50.03733" lon="2.31635">
        <ele>126.9</ele>
        <time>2023-10-25T12:44:00Z</time>
      </trkpt>
      <trkpt lat="50.03732" lon="2.31637">
        <ele>126.9</ele>
        <time>2023-10-25T12:44:01Z</time>
      </trkpt>
      <trkpt lat="50.03732" lon="2.31638">
        <ele>126.9</ele>
        <time>2023-10-25T12:44:02Z</time>
      </trkpt>
      <trkpt lat="50.03731" lon="2.3164">
        <ele>126.9</ele>
        <time>2023-10-25T12:44:03Z</time>
      </trkpt>
      <trkpt lat="50.03731" lon="2.31641">
        <ele>126.9</ele>
        <time>2023-10-25T12:44:04Z</time>
      </trkpt>
      <trkpt lat="50.03731" lon="2.31643">
        <ele>126.9</ele>
        <time>2023-10-25T12:44:05Z</time>
      </trkpt>
      <trkpt lat="50.0373" lon="2.31644">
        <ele>126.9</ele>
        <time>2023-10-25T12:44:06Z</time>
      </trkpt>
      <trkpt lat="50.0373" lon="2.31646">
        <ele>126.9</ele>
        <time>2023-10-25T12:44:07Z</time>
      </trkpt>
      <trkpt lat="50.0373" lon="2.31647">
        <ele>126.9</ele>
        <time>2023-10-25T12:44:08Z</time>
      </trkpt>
      <trkpt lat="50.0373" lon="2.31649">
        <ele>126.9</ele>
        <time>2023-10-25T12:44:09Z</time>
      </trkpt>
      <trkpt lat="50.03729" lon="2.31651">
        <ele>126.9</ele>
        <time>2023-10-25T12:44:10Z</time>
      </trkpt>
      <trkpt lat="50.03729" lon="2.31652">
        <ele>126.9</ele>
        <time>2023-10-25T12:44:11Z</time>
      </trkpt>
      <trkpt lat="50.03728" lon="2.31654">
        <ele>126.9</ele>
        <time>2023-10-25T12:44:12Z</time>
      </trkpt>
      <trkpt lat="50.03728" lon="2.31656">
        <ele>126.9</ele>
        <time>2023-10-25T12:44:13Z</time>
      </trkpt>
      <trkpt lat="50.03727" lon="2.31657">
        <ele>126.9</ele>
        <time>2023-10-25T12:44:14Z</time>
      </trkpt>
      <trkpt lat="50.03727" lon="2.31659">
        <ele>126.9</ele>
        <time>2023-10-25T12:44:15Z</time>
      </trkpt>
      <trkpt lat="50.03726" lon="2.31661">
        <ele>126.8</ele>
        <time>2023-10-25T12:44:16Z</time>
      </trkpt>
      <trkpt lat="50.03726" lon="2.31662">
        <ele>126.8</ele>
        <time>2023-10-25T12:44:17Z</time>
      </trkpt>
      <trkpt lat="50.03726" lon="2.31663">
        <ele>126.8</ele>
        <time>2023-10-25T12:44:18Z</time>
      </trkpt>
      <trkpt lat="50.03725" lon="2.31665">
        <ele>126.8</ele>
        <time>2023-10-25T12:44:19Z</time>
      </trkpt>
      <trkpt lat="50.03725" lon="2.31666">
        <ele>126.8</ele>
        <time>2023-10-25T12:44:20Z</time>
      </trkpt>
      <trkpt lat="50.03724" lon="2.31669">
        <ele>126.8</ele>
        <time>2023-10-25T12:44:21Z</time>
      </trkpt>
      <trkpt lat="50.03723" lon="2.3167">
        <ele>126.8</ele>
        <time>2023-10-25T12:44:22Z</time>
      </trkpt>
      <trkpt lat="50.03723" lon="2.31672">
        <ele>126.8</ele>
        <time>2023-10-25T12:44:23Z</time>
      </trkpt>
      <trkpt lat="50.03722" lon="2.31673">
        <ele>126.8</ele>
        <time>2023-10-25T12:44:24Z</time>
      </trkpt>
      <trkpt lat="50.03722" lon="2.31675">
        <ele>126.8</ele>
        <time>2023-10-25T12:44:25Z</time>
      </trkpt>
      <trkpt lat="50.03722" lon="2.31676">
        <ele>126.7</ele>
        <time>2023-10-25T12:44:26Z</time>
      </trkpt>
      <trkpt lat="50.03721" lon="2.31678">
        <ele>126.7</ele>
        <time>2023-10-25T12:44:27Z</time>
      </trkpt>
      <trkpt lat="50.03721" lon="2.31679">
        <ele>126.7</ele>
        <time>2023-10-25T12:44:28Z</time>
      </trkpt>
      <trkpt lat="50.0372" lon="2.31681">
        <ele>126.7</ele>
        <time>2023-10-25T12:44:29Z</time>
      </trkpt>
      <trkpt lat="50.0372" lon="2.31682">
        <ele>126.7</ele>
        <time>2023-10-25T12:44:30Z</time>
      </trkpt>
      <trkpt lat="50.03719" lon="2.31684">
        <ele>126.7</ele>
        <time>2023-10-25T12:44:31Z</time>
      </trkpt>
      <trkpt lat="50.03719" lon="2.31685">
        <ele>126.7</ele>
        <time>2023-10-25T12:44:32Z</time>
      </trkpt>
      <trkpt lat="50.03718" lon="2.31688">
        <ele>126.7</ele>
        <time>2023-10-25T12:44:33Z</time>
      </trkpt>
      <trkpt lat="50.03718" lon="2.31689">
        <ele>126.7</ele>
        <time>2023-10-25T12:44:34Z</time>
      </trkpt>
      <trkpt lat="50.03717" lon="2.31691">
        <ele>126.7</ele>
        <time>2023-10-25T12:44:35Z</time>
      </trkpt>
      <trkpt lat="50.03717" lon="2.31692">
        <ele>126.7</ele>
        <time>2023-10-25T12:44:36Z</time>
      </trkpt>
      <trkpt lat="50.03717" lon="2.31694">
        <ele>126.6</ele>
        <time>2023-10-25T12:44:37Z</time>
      </trkpt>
      <trkpt lat="50.03716" lon="2.31696">
        <ele>126.6</ele>
        <time>2023-10-25T12:44:38Z</time>
      </trkpt>
      <trkpt lat="50.03716" lon="2.31697">
        <ele>126.6</ele>
        <time>2023-10-25T12:44:39Z</time>
      </trkpt>
      <trkpt lat="50.03715" lon="2.31699">
        <ele>126.6</ele>
        <time>2023-10-25T12:44:40Z</time>
      </trkpt>
      <trkpt lat="50.03715" lon="2.31701">
        <ele>126.6</ele>
        <time>2023-10-25T12:44:41Z</time>
      </trkpt>
      <trkpt lat="50.03715" lon="2.31702">
        <ele>126.6</ele>
        <time>2023-10-25T12:44:42Z</time>
      </trkpt>
      <trkpt lat="50.03714" lon="2.31704">
        <ele>126.6</ele>
        <time>2023-10-25T12:44:43Z</time>
      </trkpt>
      <trkpt lat="50.03714" lon="2.31706">
        <ele>126.6</ele>
        <time>2023-10-25T12:44:44Z</time>
      </trkpt>
      <trkpt lat="50.03714" lon="2.31707">
        <ele>126.6</ele>
        <time>2023-10-25T12:44:45Z</time>
      </trkpt>
      <trkpt lat="50.03714" lon="2.31708">
        <ele>126.6</ele>
        <time>2023-10-25T12:44:46Z</time>
      </trkpt>
      <trkpt lat="50.03713" lon="2.31709">
        <ele>126.6</ele>
        <time>2023-10-25T12:44:47Z</time>
      </trkpt>
      <trkpt lat="50.03713" lon="2.31711">
        <ele>126.6</ele>
        <time>2023-10-25T12:44:48Z</time>
      </trkpt>
      <trkpt lat="50.03713" lon="2.31712">
        <ele>126.6</ele>
        <time>2023-10-25T12:44:49Z</time>
      </trkpt>
      <trkpt lat="50.03712" lon="2.31714">
        <ele>126.6</ele>
        <time>2023-10-25T12:44:50Z</time>
      </trkpt>
      <trkpt lat="50.03712" lon="2.31716">
        <ele>126.6</ele>
        <time>2023-10-25T12:44:51Z</time>
      </trkpt>
      <trkpt lat="50.03711" lon="2.31719">
        <ele>126.6</ele>
        <time>2023-10-25T12:44:52Z</time>
      </trkpt>
      <trkpt lat="50.0371" lon="2.3172">
        <ele>126.6</ele>
        <time>2023-10-25T12:44:53Z</time>
      </trkpt>
      <trkpt lat="50.0371" lon="2.31721">
        <ele>126.6</ele>
        <time>2023-10-25T12:44:54Z</time>
      </trkpt>
      <trkpt lat="50.0371" lon="2.31723">
        <ele>126.6</ele>
        <time>2023-10-25T12:44:55Z</time>
      </trkpt>
      <trkpt lat="50.03709" lon="2.31725">
        <ele>126.6</ele>
        <time>2023-10-25T12:44:56Z</time>
      </trkpt>
      <trkpt lat="50.03709" lon="2.31726">
        <ele>126.6</ele>
        <time>2023-10-25T12:44:57Z</time>
      </trkpt>
      <trkpt lat="50.03709" lon="2.31728">
        <ele>126.6</ele>
        <time>2023-10-25T12:44:58Z</time>
      </trkpt>
      <trkpt lat="50.03709" lon="2.3173">
        <ele>126.6</ele>
        <time>2023-10-25T12:44:59Z</time>
      </trkpt>
      <trkpt lat="50.03708" lon="2.31731">
        <ele>126.6</ele>
        <time>2023-10-25T12:45:00Z</time>
      </trkpt>
      <trkpt lat="50.03708" lon="2.31733">
        <ele>126.6</ele>
        <time>2023-10-25T12:45:01Z</time>
      </trkpt>
      <trkpt lat="50.03708" lon="2.31734">
        <ele>126.6</ele>
        <time>2023-10-25T12:45:02Z</time>
      </trkpt>
      <trkpt lat="50.03708" lon="2.31736">
        <ele>126.6</ele>
        <time>2023-10-25T12:45:03Z</time>
      </trkpt>
      <trkpt lat="50.03707" lon="2.31737">
        <ele>126.6</ele>
        <time>2023-10-25T12:45:04Z</time>
      </trkpt>
      <trkpt lat="50.03707" lon="2.31738">
        <ele>126.6</ele>
        <time>2023-10-25T12:45:05Z</time>
      </trkpt>
      <trkpt lat="50.03707" lon="2.31739">
        <ele>126.6</ele>
        <time>2023-10-25T12:45:06Z</time>
      </trkpt>
      <trkpt lat="50.03706" lon="2.31741">
        <ele>126.6</ele>
        <time>2023-10-25T12:45:07Z</time>
      </trkpt>
      <trkpt lat="50.03706" lon="2.31742">
        <ele>126.6</ele>
        <time>2023-10-25T12:45:08Z</time>
      </trkpt>
      <trkpt lat="50.03706" lon="2.31743">
        <ele>126.5</ele>
        <time>2023-10-25T12:45:09Z</time>
      </trkpt>
      <trkpt lat="50.03706" lon="2.31744">
        <ele>126.5</ele>
        <time>2023-10-25T12:45:10Z</time>
      </trkpt>
      <trkpt lat="50.03705" lon="2.31745">
        <ele>126.5</ele>
        <time>2023-10-25T12:45:11Z</time>
      </trkpt>
      <trkpt lat="50.03705" lon="2.31747">
        <ele>126.5</ele>
        <time>2023-10-25T12:45:12Z</time>
      </trkpt>
      <trkpt lat="50.03705" lon="2.31748">
        <ele>126.5</ele>
        <time>2023-10-25T12:45:13Z</time>
      </trkpt>
      <trkpt lat="50.03704" lon="2.31749">
        <ele>126.5</ele>
        <time>2023-10-25T12:45:14Z</time>
      </trkpt>
      <trkpt lat="50.03704" lon="2.3175">
        <ele>126.5</ele>
        <time>2023-10-25T12:45:15Z</time>
      </trkpt>
      <trkpt lat="50.03704" lon="2.31752">
        <ele>126.5</ele>
        <time>2023-10-25T12:45:16Z</time>
      </trkpt>
      <trkpt lat="50.03703" lon="2.31754">
        <ele>126.5</ele>
        <time>2023-10-25T12:45:17Z</time>
      </trkpt>
      <trkpt lat="50.03703" lon="2.31755">
        <ele>126.5</ele>
        <time>2023-10-25T12:45:18Z</time>
      </trkpt>
      <trkpt lat="50.03703" lon="2.31757">
        <ele>126.5</ele>
        <time>2023-10-25T12:45:19Z</time>
      </trkpt>
      <trkpt lat="50.03702" lon="2.31758">
        <ele>126.5</ele>
        <time>2023-10-25T12:45:20Z</time>
      </trkpt>
      <trkpt lat="50.03702" lon="2.3176">
        <ele>126.5</ele>
        <time>2023-10-25T12:45:21Z</time>
      </trkpt>
      <trkpt lat="50.03702" lon="2.31761">
        <ele>126.5</ele>
        <time>2023-10-25T12:45:22Z</time>
      </trkpt>
      <trkpt lat="50.03701" lon="2.31763">
        <ele>126.5</ele>
        <time>2023-10-25T12:45:23Z</time>
      </trkpt>
      <trkpt lat="50.03701" lon="2.31765">
        <ele>126.5</ele>
        <time>2023-10-25T12:45:24Z</time>
      </trkpt>
      <trkpt lat="50.03701" lon="2.31766">
        <ele>126.5</ele>
        <time>2023-10-25T12:45:25Z</time>
      </trkpt>
      <trkpt lat="50.03701" lon="2.31768">
        <ele>126.5</ele>
        <time>2023-10-25T12:45:26Z</time>
      </trkpt>
      <trkpt lat="50.03701" lon="2.3177">
        <ele>126.5</ele>
        <time>2023-10-25T12:45:27Z</time>
      </trkpt>
      <trkpt lat="50.037" lon="2.31771">
        <ele>126.5</ele>
        <time>2023-10-25T12:45:28Z</time>
      </trkpt>
      <trkpt lat="50.037" lon="2.31773">
        <ele>126.5</ele>
        <time>2023-10-25T12:45:29Z</time>
      </trkpt>
      <trkpt lat="50.037" lon="2.31774">
        <ele>126.5</ele>
        <time>2023-10-25T12:45:30Z</time>
      </trkpt>
      <trkpt lat="50.037" lon="2.31776">
        <ele>126.5</ele>
        <time>2023-10-25T12:45:31Z</time>
      </trkpt>
      <trkpt lat="50.037" lon="2.31777">
        <ele>126.5</ele>
        <time>2023-10-25T12:45:32Z</time>
      </trkpt>
      <trkpt lat="50.037" lon="2.31779">
        <ele>126.5</ele>
        <time>2023-10-25T12:45:33Z</time>
      </trkpt>
      <trkpt lat="50.03699" lon="2.31781">
        <ele>126.5</ele>
        <time>2023-10-25T12:45:34Z</time>
      </trkpt>
      <trkpt lat="50.03699" lon="2.31782">
        <ele>126.6</ele>
        <time>2023-10-25T12:45:35Z</time>
      </trkpt>
      <trkpt lat="50.03699" lon="2.31784">
        <ele>126.6</ele>
        <time>2023-10-25T12:45:36Z</time>
      </trkpt>
      <trkpt lat="50.03699" lon="2.31786">
        <ele>126.6</ele>
        <time>2023-10-25T12:45:37Z</time>
      </trkpt>
      <trkpt lat="50.03698" lon="2.31787">
        <ele>126.6</ele>
        <time>2023-10-25T12:45:38Z</time>
      </trkpt>
      <trkpt lat="50.03698" lon="2.31789">
        <ele>126.6</ele>
        <time>2023-10-25T12:45:39Z</time>
      </trkpt>
      <trkpt lat="50.03698" lon="2.3179">
        <ele>126.6</ele>
        <time>2023-10-25T12:45:40Z</time>
      </trkpt>
      <trkpt lat="50.03698" lon="2.31792">
        <ele>126.6</ele>
        <time>2023-10-25T12:45:41Z</time>
      </trkpt>
      <trkpt lat="50.03697" lon="2.31793">
        <ele>126.6</ele>
        <time>2023-10-25T12:45:42Z</time>
      </trkpt>
      <trkpt lat="50.03697" lon="2.31795">
        <ele>126.6</ele>
        <time>2023-10-25T12:45:43Z</time>
      </trkpt>
      <trkpt lat="50.03697" lon="2.31797">
        <ele>126.6</ele>
        <time>2023-10-25T12:45:44Z</time>
      </trkpt>
      <trkpt lat="50.03697" lon="2.31799">
        <ele>126.6</ele>
        <time>2023-10-25T12:45:45Z</time>
      </trkpt>
      <trkpt lat="50.03696" lon="2.318">
        <ele>126.6</ele>
        <time>2023-10-25T12:45:46Z</time>
      </trkpt>
      <trkpt lat="50.03696" lon="2.31802">
        <ele>126.6</ele>
        <time>2023-10-25T12:45:47Z</time>
      </trkpt>
      <trkpt lat="50.03696" lon="2.31803">
        <ele>126.6</ele>
        <time>2023-10-25T12:45:48Z</time>
      </trkpt>
      <trkpt lat="50.03696" lon="2.31805">
        <ele>126.6</ele>
        <time>2023-10-25T12:45:49Z</time>
      </trkpt>
      <trkpt lat="50.03696" lon="2.31806">
        <ele>126.7</ele>
        <time>2023-10-25T12:45:50Z</time>
      </trkpt>
      <trkpt lat="50.03695" lon="2.31808">
        <ele>126.7</ele>
        <time>2023-10-25T12:45:51Z</time>
      </trkpt>
      <trkpt lat="50.03695" lon="2.3181">
        <ele>126.7</ele>
        <time>2023-10-25T12:45:52Z</time>
      </trkpt>
      <trkpt lat="50.03695" lon="2.31811">
        <ele>126.7</ele>
        <time>2023-10-25T12:45:53Z</time>
      </trkpt>
      <trkpt lat="50.03694" lon="2.31813">
        <ele>126.7</ele>
        <time>2023-10-25T12:45:54Z</time>
      </trkpt>
      <trkpt lat="50.03694" lon="2.31815">
        <ele>126.7</ele>
        <time>2023-10-25T12:45:55Z</time>
      </trkpt>
      <trkpt lat="50.03694" lon="2.31816">
        <ele>126.7</ele>
        <time>2023-10-25T12:45:56Z</time>
      </trkpt>
      <trkpt lat="50.03693" lon="2.31818">
        <ele>126.7</ele>
        <time>2023-10-25T12:45:57Z</time>
      </trkpt>
      <trkpt lat="50.03693" lon="2.31819">
        <ele>126.7</ele>
        <time>2023-10-25T12:45:58Z</time>
      </trkpt>
      <trkpt lat="50.03693" lon="2.31821">
        <ele>126.7</ele>
        <time>2023-10-25T12:45:59Z</time>
      </trkpt>
      <trkpt lat="50.03693" lon="2.31823">
        <ele>126.7</ele>
        <time>2023-10-25T12:46:00Z</time>
      </trkpt>
      <trkpt lat="50.03692" lon="2.31824">
        <ele>126.7</ele>
        <time>2023-10-25T12:46:01Z</time>
      </trkpt>
      <trkpt lat="50.03692" lon="2.31826">
        <ele>126.8</ele>
        <time>2023-10-25T12:46:02Z</time>
      </trkpt>
      <trkpt lat="50.03692" lon="2.31828">
        <ele>126.8</ele>
        <time>2023-10-25T12:46:03Z</time>
      </trkpt>
      <trkpt lat="50.03692" lon="2.31831">
        <ele>126.8</ele>
        <time>2023-10-25T12:46:04Z</time>
      </trkpt>
      <trkpt lat="50.03691" lon="2.31832">
        <ele>126.8</ele>
        <time>2023-10-25T12:46:05Z</time>
      </trkpt>
      <trkpt lat="50.03691" lon="2.31834">
        <ele>126.8</ele>
        <time>2023-10-25T12:46:06Z</time>
      </trkpt>
      <trkpt lat="50.03691" lon="2.31836">
        <ele>126.8</ele>
        <time>2023-10-25T12:46:07Z</time>
      </trkpt>
      <trkpt lat="50.03691" lon="2.31837">
        <ele>126.8</ele>
        <time>2023-10-25T12:46:08Z</time>
      </trkpt>
      <trkpt lat="50.03691" lon="2.31839">
        <ele>126.8</ele>
        <time>2023-10-25T12:46:09Z</time>
      </trkpt>
      <trkpt lat="50.0369" lon="2.31841">
        <ele>126.8</ele>
        <time>2023-10-25T12:46:10Z</time>
      </trkpt>
      <trkpt lat="50.0369" lon="2.31843">
        <ele>126.9</ele>
        <time>2023-10-25T12:46:11Z</time>
      </trkpt>
      <trkpt lat="50.0369" lon="2.31844">
        <ele>126.9</ele>
        <time>2023-10-25T12:46:12Z</time>
      </trkpt>
      <trkpt lat="50.0369" lon="2.31846">
        <ele>126.9</ele>
        <time>2023-10-25T12:46:13Z</time>
      </trkpt>
      <trkpt lat="50.03689" lon="2.31848">
        <ele>126.9</ele>
        <time>2023-10-25T12:46:14Z</time>
      </trkpt>
      <trkpt lat="50.03689" lon="2.3185">
        <ele>126.9</ele>
        <time>2023-10-25T12:46:15Z</time>
      </trkpt>
      <trkpt lat="50.03689" lon="2.31853">
        <ele>126.9</ele>
        <time>2023-10-25T12:46:16Z</time>
      </trkpt>
      <trkpt lat="50.03688" lon="2.31854">
        <ele>127</ele>
        <time>2023-10-25T12:46:17Z</time>
      </trkpt>
      <trkpt lat="50.03688" lon="2.31855">
        <ele>127</ele>
        <time>2023-10-25T12:46:18Z</time>
      </trkpt>
      <trkpt lat="50.03688" lon="2.31858">
        <ele>127</ele>
        <time>2023-10-25T12:46:19Z</time>
      </trkpt>
      <trkpt lat="50.03688" lon="2.3186">
        <ele>127</ele>
        <time>2023-10-25T12:46:20Z</time>
      </trkpt>
      <trkpt lat="50.03687" lon="2.31863">
        <ele>127</ele>
        <time>2023-10-25T12:46:21Z</time>
      </trkpt>
      <trkpt lat="50.03687" lon="2.31864">
        <ele>127</ele>
        <time>2023-10-25T12:46:22Z</time>
      </trkpt>
      <trkpt lat="50.03687" lon="2.31866">
        <ele>127</ele>
        <time>2023-10-25T12:46:23Z</time>
      </trkpt>
      <trkpt lat="50.03687" lon="2.31867">
        <ele>127.1</ele>
        <time>2023-10-25T12:46:24Z</time>
      </trkpt>
      <trkpt lat="50.03686" lon="2.31869">
        <ele>127.1</ele>
        <time>2023-10-25T12:46:25Z</time>
      </trkpt>
      <trkpt lat="50.03686" lon="2.3187">
        <ele>127.1</ele>
        <time>2023-10-25T12:46:26Z</time>
      </trkpt>
      <trkpt lat="50.03686" lon="2.31871">
        <ele>127.1</ele>
        <time>2023-10-25T12:46:27Z</time>
      </trkpt>
      <trkpt lat="50.03685" lon="2.31873">
        <ele>127.1</ele>
        <time>2023-10-25T12:46:28Z</time>
      </trkpt>
      <trkpt lat="50.03685" lon="2.31874">
        <ele>127.1</ele>
        <time>2023-10-25T12:46:29Z</time>
      </trkpt>
      <trkpt lat="50.03685" lon="2.31876">
        <ele>127.1</ele>
        <time>2023-10-25T12:46:30Z</time>
      </trkpt>
      <trkpt lat="50.03684" lon="2.31878">
        <ele>127.1</ele>
        <time>2023-10-25T12:46:31Z</time>
      </trkpt>
      <trkpt lat="50.03684" lon="2.31879">
        <ele>127.1</ele>
        <time>2023-10-25T12:46:32Z</time>
      </trkpt>
      <trkpt lat="50.03684" lon="2.31881">
        <ele>127.1</ele>
        <time>2023-10-25T12:46:33Z</time>
      </trkpt>
      <trkpt lat="50.03684" lon="2.31883">
        <ele>127.2</ele>
        <time>2023-10-25T12:46:34Z</time>
      </trkpt>
      <trkpt lat="50.03684" lon="2.31884">
        <ele>127.2</ele>
        <time>2023-10-25T12:46:35Z</time>
      </trkpt>
      <trkpt lat="50.03684" lon="2.31887">
        <ele>127.2</ele>
        <time>2023-10-25T12:46:36Z</time>
      </trkpt>
      <trkpt lat="50.03683" lon="2.31888">
        <ele>127.2</ele>
        <time>2023-10-25T12:46:37Z</time>
      </trkpt>
      <trkpt lat="50.03683" lon="2.31889">
        <ele>127.2</ele>
        <time>2023-10-25T12:46:38Z</time>
      </trkpt>
      <trkpt lat="50.03683" lon="2.3189">
        <ele>127.2</ele>
        <time>2023-10-25T12:46:39Z</time>
      </trkpt>
      <trkpt lat="50.03683" lon="2.31891">
        <ele>127.2</ele>
        <time>2023-10-25T12:46:40Z</time>
      </trkpt>
      <trkpt lat="50.03683" lon="2.31893">
        <ele>127.2</ele>
        <time>2023-10-25T12:46:41Z</time>
      </trkpt>
      <trkpt lat="50.03683" lon="2.31894">
        <ele>127.3</ele>
        <time>2023-10-25T12:46:42Z</time>
      </trkpt>
      <trkpt lat="50.03683" lon="2.31895">
        <ele>127.3</ele>
        <time>2023-10-25T12:46:43Z</time>
      </trkpt>
      <trkpt lat="50.03683" lon="2.31897">
        <ele>127.3</ele>
        <time>2023-10-25T12:46:44Z</time>
      </trkpt>
      <trkpt lat="50.03682" lon="2.31898">
        <ele>127.3</ele>
        <time>2023-10-25T12:46:45Z</time>
      </trkpt>
      <trkpt lat="50.03682" lon="2.31901">
        <ele>127.3</ele>
        <time>2023-10-25T12:46:46Z</time>
      </trkpt>
      <trkpt lat="50.03681" lon="2.31902">
        <ele>127.3</ele>
        <time>2023-10-25T12:46:47Z</time>
      </trkpt>
      <trkpt lat="50.03681" lon="2.31904">
        <ele>127.4</ele>
        <time>2023-10-25T12:46:48Z</time>
      </trkpt>
      <trkpt lat="50.03681" lon="2.31906">
        <ele>127.4</ele>
        <time>2023-10-25T12:46:49Z</time>
      </trkpt>
      <trkpt lat="50.03681" lon="2.31907">
        <ele>127.4</ele>
        <time>2023-10-25T12:46:50Z</time>
      </trkpt>
      <trkpt lat="50.03681" lon="2.31909">
        <ele>127.4</ele>
        <time>2023-10-25T12:46:51Z</time>
      </trkpt>
      <trkpt lat="50.03681" lon="2.3191">
        <ele>127.4</ele>
        <time>2023-10-25T12:46:52Z</time>
      </trkpt>
      <trkpt lat="50.0368" lon="2.31911">
        <ele>127.4</ele>
        <time>2023-10-25T12:46:53Z</time>
      </trkpt>
      <trkpt lat="50.0368" lon="2.31912">
        <ele>127.4</ele>
        <time>2023-10-25T12:46:54Z</time>
      </trkpt>
      <trkpt lat="50.0368" lon="2.31913">
        <ele>127.5</ele>
        <time>2023-10-25T12:46:55Z</time>
      </trkpt>
      <trkpt lat="50.03679" lon="2.31915">
        <ele>127.5</ele>
        <time>2023-10-25T12:46:56Z</time>
      </trkpt>
      <trkpt lat="50.03679" lon="2.31916">
        <ele>127.5</ele>
        <time>2023-10-25T12:46:57Z</time>
      </trkpt>
      <trkpt lat="50.03679" lon="2.31918">
        <ele>127.5</ele>
        <time>2023-10-25T12:46:58Z</time>
      </trkpt>
      <trkpt lat="50.03678" lon="2.3192">
        <ele>127.5</ele>
        <time>2023-10-25T12:46:59Z</time>
      </trkpt>
      <trkpt lat="50.03678" lon="2.31921">
        <ele>127.5</ele>
        <time>2023-10-25T12:47:00Z</time>
      </trkpt>
      <trkpt lat="50.03678" lon="2.31922">
        <ele>127.6</ele>
        <time>2023-10-25T12:47:01Z</time>
      </trkpt>
      <trkpt lat="50.03677" lon="2.31923">
        <ele>127.6</ele>
        <time>2023-10-25T12:47:02Z</time>
      </trkpt>
      <trkpt lat="50.03677" lon="2.31925">
        <ele>127.6</ele>
        <time>2023-10-25T12:47:03Z</time>
      </trkpt>
      <trkpt lat="50.03677" lon="2.31926">
        <ele>127.6</ele>
        <time>2023-10-25T12:47:04Z</time>
      </trkpt>
      <trkpt lat="50.03677" lon="2.31928">
        <ele>127.6</ele>
        <time>2023-10-25T12:47:05Z</time>
      </trkpt>
      <trkpt lat="50.03676" lon="2.3193">
        <ele>127.6</ele>
        <time>2023-10-25T12:47:06Z</time>
      </trkpt>
      <trkpt lat="50.03676" lon="2.31931">
        <ele>127.7</ele>
        <time>2023-10-25T12:47:07Z</time>
      </trkpt>
      <trkpt lat="50.03676" lon="2.31933">
        <ele>127.7</ele>
        <time>2023-10-25T12:47:08Z</time>
      </trkpt>
      <trkpt lat="50.03676" lon="2.31935">
        <ele>127.7</ele>
        <time>2023-10-25T12:47:09Z</time>
      </trkpt>
      <trkpt lat="50.03675" lon="2.31937">
        <ele>127.7</ele>
        <time>2023-10-25T12:47:10Z</time>
      </trkpt>
      <trkpt lat="50.03675" lon="2.31938">
        <ele>127.7</ele>
        <time>2023-10-25T12:47:11Z</time>
      </trkpt>
      <trkpt lat="50.03675" lon="2.3194">
        <ele>127.7</ele>
        <time>2023-10-25T12:47:12Z</time>
      </trkpt>
      <trkpt lat="50.03675" lon="2.31941">
        <ele>127.8</ele>
        <time>2023-10-25T12:47:13Z</time>
      </trkpt>
      <trkpt lat="50.03675" lon="2.31942">
        <ele>127.8</ele>
        <time>2023-10-25T12:47:14Z</time>
      </trkpt>
      <trkpt lat="50.03675" lon="2.31944">
        <ele>127.8</ele>
        <time>2023-10-25T12:47:15Z</time>
      </trkpt>
      <trkpt lat="50.03675" lon="2.31945">
        <ele>127.8</ele>
        <time>2023-10-25T12:47:16Z</time>
      </trkpt>
      <trkpt lat="50.03675" lon="2.31947">
        <ele>127.8</ele>
        <time>2023-10-25T12:47:17Z</time>
      </trkpt>
      <trkpt lat="50.03676" lon="2.31948">
        <ele>127.8</ele>
        <time>2023-10-25T12:47:18Z</time>
      </trkpt>
      <trkpt lat="50.03676" lon="2.3195">
        <ele>127.8</ele>
        <time>2023-10-25T12:47:19Z</time>
      </trkpt>
      <trkpt lat="50.03676" lon="2.31952">
        <ele>127.9</ele>
        <time>2023-10-25T12:47:20Z</time>
      </trkpt>
      <trkpt lat="50.03676" lon="2.31953">
        <ele>127.9</ele>
        <time>2023-10-25T12:47:21Z</time>
      </trkpt>
      <trkpt lat="50.03676" lon="2.31955">
        <ele>127.9</ele>
        <time>2023-10-25T12:47:22Z</time>
      </trkpt>
      <trkpt lat="50.03676" lon="2.31956">
        <ele>127.9</ele>
        <time>2023-10-25T12:47:23Z</time>
      </trkpt>
      <trkpt lat="50.03677" lon="2.31958">
        <ele>127.9</ele>
        <time>2023-10-25T12:47:24Z</time>
      </trkpt>
      <trkpt lat="50.03677" lon="2.31959">
        <ele>127.9</ele>
        <time>2023-10-25T12:47:25Z</time>
      </trkpt>
      <trkpt lat="50.03677" lon="2.31961">
        <ele>128</ele>
        <time>2023-10-25T12:47:26Z</time>
      </trkpt>
      <trkpt lat="50.03677" lon="2.31962">
        <ele>128</ele>
        <time>2023-10-25T12:47:27Z</time>
      </trkpt>
      <trkpt lat="50.03677" lon="2.31964">
        <ele>128</ele>
        <time>2023-10-25T12:47:28Z</time>
      </trkpt>
      <trkpt lat="50.03678" lon="2.31965">
        <ele>128</ele>
        <time>2023-10-25T12:47:29Z</time>
      </trkpt>
      <trkpt lat="50.03678" lon="2.31967">
        <ele>128</ele>
        <time>2023-10-25T12:47:30Z</time>
      </trkpt>
      <trkpt lat="50.03678" lon="2.31969">
        <ele>128</ele>
        <time>2023-10-25T12:47:31Z</time>
      </trkpt>
      <trkpt lat="50.03678" lon="2.31971">
        <ele>128.1</ele>
        <time>2023-10-25T12:47:32Z</time>
      </trkpt>
      <trkpt lat="50.03678" lon="2.31972">
        <ele>128.1</ele>
        <time>2023-10-25T12:47:33Z</time>
      </trkpt>
      <trkpt lat="50.03679" lon="2.31974">
        <ele>128.1</ele>
        <time>2023-10-25T12:47:34Z</time>
      </trkpt>
      <trkpt lat="50.03679" lon="2.31976">
        <ele>128.1</ele>
        <time>2023-10-25T12:47:35Z</time>
      </trkpt>
      <trkpt lat="50.03679" lon="2.31977">
        <ele>128.2</ele>
        <time>2023-10-25T12:47:36Z</time>
      </trkpt>
      <trkpt lat="50.03679" lon="2.31979">
        <ele>128.2</ele>
        <time>2023-10-25T12:47:37Z</time>
      </trkpt>
      <trkpt lat="50.03679" lon="2.31981">
        <ele>128.2</ele>
        <time>2023-10-25T12:47:38Z</time>
      </trkpt>
      <trkpt lat="50.03679" lon="2.31982">
        <ele>128.2</ele>
        <time>2023-10-25T12:47:39Z</time>
      </trkpt>
      <trkpt lat="50.03679" lon="2.31984">
        <ele>128.2</ele>
        <time>2023-10-25T12:47:40Z</time>
      </trkpt>
      <trkpt lat="50.03679" lon="2.31986">
        <ele>128.3</ele>
        <time>2023-10-25T12:47:41Z</time>
      </trkpt>
      <trkpt lat="50.03679" lon="2.31987">
        <ele>128.3</ele>
        <time>2023-10-25T12:47:42Z</time>
      </trkpt>
      <trkpt lat="50.03679" lon="2.31989">
        <ele>128.3</ele>
        <time>2023-10-25T12:47:43Z</time>
      </trkpt>
      <trkpt lat="50.03679" lon="2.3199">
        <ele>128.3</ele>
        <time>2023-10-25T12:47:44Z</time>
      </trkpt>
      <trkpt lat="50.03679" lon="2.31991">
        <ele>128.3</ele>
        <time>2023-10-25T12:47:45Z</time>
      </trkpt>
      <trkpt lat="50.03679" lon="2.31992">
        <ele>128.3</ele>
        <time>2023-10-25T12:47:46Z</time>
      </trkpt>
      <trkpt lat="50.03679" lon="2.31994">
        <ele>128.4</ele>
        <time>2023-10-25T12:47:47Z</time>
      </trkpt>
      <trkpt lat="50.03678" lon="2.31995">
        <ele>128.4</ele>
        <time>2023-10-25T12:47:48Z</time>
      </trkpt>
      <trkpt lat="50.03678" lon="2.31996">
        <ele>128.4</ele>
        <time>2023-10-25T12:47:49Z</time>
      </trkpt>
      <trkpt lat="50.03678" lon="2.31998">
        <ele>128.4</ele>
        <time>2023-10-25T12:47:50Z</time>
      </trkpt>
      <trkpt lat="50.03678" lon="2.31999">
        <ele>128.4</ele>
        <time>2023-10-25T12:47:51Z</time>
      </trkpt>
      <trkpt lat="50.03678" lon="2.32001">
        <ele>128.4</ele>
        <time>2023-10-25T12:47:52Z</time>
      </trkpt>
      <trkpt lat="50.03678" lon="2.32002">
        <ele>128.4</ele>
        <time>2023-10-25T12:47:53Z</time>
      </trkpt>
      <trkpt lat="50.03678" lon="2.32003">
        <ele>128.5</ele>
        <time>2023-10-25T12:47:54Z</time>
      </trkpt>
      <trkpt lat="50.03677" lon="2.32005">
        <ele>128.5</ele>
        <time>2023-10-25T12:47:55Z</time>
      </trkpt>
      <trkpt lat="50.03677" lon="2.32007">
        <ele>128.5</ele>
        <time>2023-10-25T12:47:56Z</time>
      </trkpt>
      <trkpt lat="50.03677" lon="2.32009">
        <ele>128.5</ele>
        <time>2023-10-25T12:47:57Z</time>
      </trkpt>
      <trkpt lat="50.03677" lon="2.32011">
        <ele>128.5</ele>
        <time>2023-10-25T12:47:58Z</time>
      </trkpt>
      <trkpt lat="50.03677" lon="2.32012">
        <ele>128.6</ele>
        <time>2023-10-25T12:47:59Z</time>
      </trkpt>
      <trkpt lat="50.03677" lon="2.32014">
        <ele>128.6</ele>
        <time>2023-10-25T12:48:00Z</time>
      </trkpt>
      <trkpt lat="50.03677" lon="2.32016">
        <ele>128.6</ele>
        <time>2023-10-25T12:48:01Z</time>
      </trkpt>
      <trkpt lat="50.03676" lon="2.32018">
        <ele>128.6</ele>
        <time>2023-10-25T12:48:02Z</time>
      </trkpt>
      <trkpt lat="50.03676" lon="2.32019">
        <ele>128.6</ele>
        <time>2023-10-25T12:48:03Z</time>
      </trkpt>
      <trkpt lat="50.03676" lon="2.3202">
        <ele>128.7</ele>
        <time>2023-10-25T12:48:04Z</time>
      </trkpt>
      <trkpt lat="50.03676" lon="2.32022">
        <ele>128.7</ele>
        <time>2023-10-25T12:48:05Z</time>
      </trkpt>
      <trkpt lat="50.03676" lon="2.32023">
        <ele>128.7</ele>
        <time>2023-10-25T12:48:06Z</time>
      </trkpt>
      <trkpt lat="50.03676" lon="2.32025">
        <ele>128.7</ele>
        <time>2023-10-25T12:48:07Z</time>
      </trkpt>
      <trkpt lat="50.03676" lon="2.32026">
        <ele>128.7</ele>
        <time>2023-10-25T12:48:08Z</time>
      </trkpt>
      <trkpt lat="50.03675" lon="2.32028">
        <ele>128.7</ele>
        <time>2023-10-25T12:48:09Z</time>
      </trkpt>
      <trkpt lat="50.03675" lon="2.32029">
        <ele>128.8</ele>
        <time>2023-10-25T12:48:10Z</time>
      </trkpt>
      <trkpt lat="50.03675" lon="2.32031">
        <ele>128.8</ele>
        <time>2023-10-25T12:48:11Z</time>
      </trkpt>
      <trkpt lat="50.03675" lon="2.32032">
        <ele>128.8</ele>
        <time>2023-10-25T12:48:12Z</time>
      </trkpt>
      <trkpt lat="50.03675" lon="2.32034">
        <ele>128.8</ele>
        <time>2023-10-25T12:48:13Z</time>
      </trkpt>
      <trkpt lat="50.03674" lon="2.32036">
        <ele>128.8</ele>
        <time>2023-10-25T12:48:14Z</time>
      </trkpt>
      <trkpt lat="50.03674" lon="2.32037">
        <ele>128.8</ele>
        <time>2023-10-25T12:48:15Z</time>
      </trkpt>
      <trkpt lat="50.03674" lon="2.32039">
        <ele>128.9</ele>
        <time>2023-10-25T12:48:16Z</time>
      </trkpt>
      <trkpt lat="50.03673" lon="2.32041">
        <ele>128.9</ele>
        <time>2023-10-25T12:48:17Z</time>
      </trkpt>
      <trkpt lat="50.03673" lon="2.32042">
        <ele>128.9</ele>
        <time>2023-10-25T12:48:18Z</time>
      </trkpt>
      <trkpt lat="50.03673" lon="2.32044">
        <ele>128.9</ele>
        <time>2023-10-25T12:48:19Z</time>
      </trkpt>
      <trkpt lat="50.03673" lon="2.32045">
        <ele>128.9</ele>
        <time>2023-10-25T12:48:20Z</time>
      </trkpt>
      <trkpt lat="50.03673" lon="2.32047">
        <ele>128.9</ele>
        <time>2023-10-25T12:48:21Z</time>
      </trkpt>
      <trkpt lat="50.03673" lon="2.32048">
        <ele>128.9</ele>
        <time>2023-10-25T12:48:22Z</time>
      </trkpt>
      <trkpt lat="50.03672" lon="2.3205">
        <ele>129</ele>
        <time>2023-10-25T12:48:23Z</time>
      </trkpt>
      <trkpt lat="50.03672" lon="2.32051">
        <ele>129</ele>
        <time>2023-10-25T12:48:24Z</time>
      </trkpt>
      <trkpt lat="50.03672" lon="2.32053">
        <ele>129</ele>
        <time>2023-10-25T12:48:25Z</time>
      </trkpt>
      <trkpt lat="50.03671" lon="2.32054">
        <ele>129</ele>
        <time>2023-10-25T12:48:26Z</time>
      </trkpt>
      <trkpt lat="50.03671" lon="2.32055">
        <ele>129</ele>
        <time>2023-10-25T12:48:27Z</time>
      </trkpt>
      <trkpt lat="50.03671" lon="2.32057">
        <ele>129</ele>
        <time>2023-10-25T12:48:28Z</time>
      </trkpt>
      <trkpt lat="50.03671" lon="2.32059">
        <ele>129</ele>
        <time>2023-10-25T12:48:29Z</time>
      </trkpt>
      <trkpt lat="50.0367" lon="2.3206">
        <ele>129</ele>
        <time>2023-10-25T12:48:30Z</time>
      </trkpt>
      <trkpt lat="50.0367" lon="2.32062">
        <ele>129.1</ele>
        <time>2023-10-25T12:48:31Z</time>
      </trkpt>
      <trkpt lat="50.03669" lon="2.32063">
        <ele>129.1</ele>
        <time>2023-10-25T12:48:32Z</time>
      </trkpt>
      <trkpt lat="50.03669" lon="2.32064">
        <ele>129.1</ele>
        <time>2023-10-25T12:48:33Z</time>
      </trkpt>
      <trkpt lat="50.03669" lon="2.32066">
        <ele>129.1</ele>
        <time>2023-10-25T12:48:34Z</time>
      </trkpt>
      <trkpt lat="50.03669" lon="2.32067">
        <ele>129.1</ele>
        <time>2023-10-25T12:48:35Z</time>
      </trkpt>
      <trkpt lat="50.03668" lon="2.32067">
        <ele>129.1</ele>
        <time>2023-10-25T12:48:36Z</time>
      </trkpt>
      <trkpt lat="50.03668" lon="2.32068">
        <ele>129.1</ele>
        <time>2023-10-25T12:48:37Z</time>
      </trkpt>
      <trkpt lat="50.03668" lon="2.32069">
        <ele>129.1</ele>
        <time>2023-10-25T12:48:38Z</time>
      </trkpt>
      <trkpt lat="50.03667" lon="2.3207">
        <ele>129.1</ele>
        <time>2023-10-25T12:48:39Z</time>
      </trkpt>
      <trkpt lat="50.03667" lon="2.32071">
        <ele>129.2</ele>
        <time>2023-10-25T12:48:40Z</time>
      </trkpt>
      <trkpt lat="50.03666" lon="2.32072">
        <ele>129.2</ele>
        <time>2023-10-25T12:48:41Z</time>
      </trkpt>
      <trkpt lat="50.03666" lon="2.32072">
        <ele>129.2</ele>
        <time>2023-10-25T12:48:42Z</time>
      </trkpt>
      <trkpt lat="50.03665" lon="2.32073">
        <ele>129.2</ele>
        <time>2023-10-25T12:48:43Z</time>
      </trkpt>
      <trkpt lat="50.03665" lon="2.32074">
        <ele>129.2</ele>
        <time>2023-10-25T12:48:44Z</time>
      </trkpt>
      <trkpt lat="50.03664" lon="2.32075">
        <ele>129.2</ele>
        <time>2023-10-25T12:48:45Z</time>
      </trkpt>
      <trkpt lat="50.03665" lon="2.32076">
        <ele>129.2</ele>
        <time>2023-10-25T12:48:46Z</time>
      </trkpt>
      <trkpt lat="50.03665" lon="2.32077">
        <ele>129.2</ele>
        <time>2023-10-25T12:48:47Z</time>
      </trkpt>
      <trkpt lat="50.03666" lon="2.32078">
        <ele>129.2</ele>
        <time>2023-10-25T12:48:48Z</time>
      </trkpt>
      <trkpt lat="50.03666" lon="2.32078">
        <ele>129.3</ele>
        <time>2023-10-25T12:48:49Z</time>
      </trkpt>
      <trkpt lat="50.03666" lon="2.32078">
        <ele>129.3</ele>
        <time>2023-10-25T12:48:50Z</time>
      </trkpt>
      <trkpt lat="50.03667" lon="2.32078">
        <ele>129.3</ele>
        <time>2023-10-25T12:48:51Z</time>
      </trkpt>
      <trkpt lat="50.03667" lon="2.32078">
        <ele>129.3</ele>
        <time>2023-10-25T12:48:52Z</time>
      </trkpt>
      <trkpt lat="50.03667" lon="2.32078">
        <ele>129.3</ele>
        <time>2023-10-25T12:48:53Z</time>
      </trkpt>
      <trkpt lat="50.03667" lon="2.32078">
        <ele>129.3</ele>
        <time>2023-10-25T12:48:54Z</time>
      </trkpt>
      <trkpt lat="50.03667" lon="2.32078">
        <ele>129.3</ele>
        <time>2023-10-25T12:48:55Z</time>
      </trkpt>
      <trkpt lat="50.03667" lon="2.32078">
        <ele>129.3</ele>
        <time>2023-10-25T12:48:56Z</time>
      </trkpt>
      <trkpt lat="50.03667" lon="2.32078">
        <ele>129.3</ele>
        <time>2023-10-25T12:48:57Z</time>
      </trkpt>
      <trkpt lat="50.03667" lon="2.32078">
        <ele>129.3</ele>
        <time>2023-10-25T12:48:58Z</time>
      </trkpt>
      <trkpt lat="50.03667" lon="2.32078">
        <ele>129.3</ele>
        <time>2023-10-25T12:48:59Z</time>
      </trkpt>
      <trkpt lat="50.03667" lon="2.32077">
        <ele>129.3</ele>
        <time>2023-10-25T12:49:00Z</time>
      </trkpt>
      <trkpt lat="50.03667" lon="2.32077">
        <ele>129.3</ele>
        <time>2023-10-25T12:49:01Z</time>
      </trkpt>
      <trkpt lat="50.03667" lon="2.32077">
        <ele>129.3</ele>
        <time>2023-10-25T12:49:02Z</time>
      </trkpt>
      <trkpt lat="50.03667" lon="2.32077">
        <ele>129.3</ele>
        <time>2023-10-25T12:49:03Z</time>
      </trkpt>
      <trkpt lat="50.03667" lon="2.32077">
        <ele>129.3</ele>
        <time>2023-10-25T12:49:04Z</time>
      </trkpt>
      <trkpt lat="50.03667" lon="2.32077">
        <ele>129.3</ele>
        <time>2023-10-25T12:49:05Z</time>
      </trkpt>
      <trkpt lat="50.03667" lon="2.32077">
        <ele>129.3</ele>
        <time>2023-10-25T12:49:06Z</time>
      </trkpt>
      <trkpt lat="50.03667" lon="2.32077">
        <ele>129.3</ele>
        <time>2023-10-25T12:49:07Z</time>
      </trkpt>
      <trkpt lat="50.03663" lon="2.3208">
        <ele>129.4</ele>
        <time>2023-10-25T12:49:39Z</time>
      </trkpt>
      <trkpt lat="50.03663" lon="2.3208">
        <ele>129.4</ele>
        <time>2023-10-25T12:49:40Z</time>
      </trkpt>
      <trkpt lat="50.03662" lon="2.32081">
        <ele>129.4</ele>
        <time>2023-10-25T12:49:41Z</time>
      </trkpt>
      <trkpt lat="50.03662" lon="2.32082">
        <ele>129.4</ele>
        <time>2023-10-25T12:49:42Z</time>
      </trkpt>
      <trkpt lat="50.03662" lon="2.32083">
        <ele>129.4</ele>
        <time>2023-10-25T12:49:43Z</time>
      </trkpt>
      <trkpt lat="50.03661" lon="2.32083">
        <ele>129.4</ele>
        <time>2023-10-25T12:49:44Z</time>
      </trkpt>
      <trkpt lat="50.03661" lon="2.32084">
        <ele>129.4</ele>
        <time>2023-10-25T12:49:45Z</time>
      </trkpt>
      <trkpt lat="50.0366" lon="2.32085">
        <ele>129.4</ele>
        <time>2023-10-25T12:49:46Z</time>
      </trkpt>
      <trkpt lat="50.0366" lon="2.32086">
        <ele>129.4</ele>
        <time>2023-10-25T12:49:47Z</time>
      </trkpt>
      <trkpt lat="50.0366" lon="2.32087">
        <ele>129.4</ele>
        <time>2023-10-25T12:49:48Z</time>
      </trkpt>
      <trkpt lat="50.03659" lon="2.32088">
        <ele>129.4</ele>
        <time>2023-10-25T12:49:49Z</time>
      </trkpt>
      <trkpt lat="50.03659" lon="2.32089">
        <ele>129.4</ele>
        <time>2023-10-25T12:49:50Z</time>
      </trkpt>
      <trkpt lat="50.03658" lon="2.3209">
        <ele>129.4</ele>
        <time>2023-10-25T12:49:51Z</time>
      </trkpt>
      <trkpt lat="50.03658" lon="2.32091">
        <ele>129.4</ele>
        <time>2023-10-25T12:49:52Z</time>
      </trkpt>
      <trkpt lat="50.03657" lon="2.32092">
        <ele>129.4</ele>
        <time>2023-10-25T12:49:53Z</time>
      </trkpt>
      <trkpt lat="50.03657" lon="2.32092">
        <ele>129.5</ele>
        <time>2023-10-25T12:49:54Z</time>
      </trkpt>
      <trkpt lat="50.03656" lon="2.32093">
        <ele>129.5</ele>
        <time>2023-10-25T12:49:55Z</time>
      </trkpt>
      <trkpt lat="50.03656" lon="2.32094">
        <ele>129.5</ele>
        <time>2023-10-25T12:49:56Z</time>
      </trkpt>
      <trkpt lat="50.03655" lon="2.32095">
        <ele>129.5</ele>
        <time>2023-10-25T12:49:57Z</time>
      </trkpt>
      <trkpt lat="50.03655" lon="2.32095">
        <ele>129.5</ele>
        <time>2023-10-25T12:49:58Z</time>
      </trkpt>
      <trkpt lat="50.03655" lon="2.32096">
        <ele>129.5</ele>
        <time>2023-10-25T12:49:59Z</time>
      </trkpt>
      <trkpt lat="50.03656" lon="2.32097">
        <ele>129.5</ele>
        <time>2023-10-25T12:50:00Z</time>
      </trkpt>
      <trkpt lat="50.03656" lon="2.32097">
        <ele>129.5</ele>
        <time>2023-10-25T12:50:01Z</time>
      </trkpt>
      <trkpt lat="50.03656" lon="2.32097">
        <ele>129.5</ele>
        <time>2023-10-25T12:50:02Z</time>
      </trkpt>
      <trkpt lat="50.03656" lon="2.32097">
        <ele>129.5</ele>
        <time>2023-10-25T12:50:03Z</time>
      </trkpt>
      <trkpt lat="50.03657" lon="2.32097">
        <ele>129.5</ele>
        <time>2023-10-25T12:50:04Z</time>
      </trkpt>
      <trkpt lat="50.03657" lon="2.32097">
        <ele>129.5</ele>
        <time>2023-10-25T12:50:05Z</time>
      </trkpt>
      <trkpt lat="50.03657" lon="2.32097">
        <ele>129.5</ele>
        <time>2023-10-25T12:50:06Z</time>
      </trkpt>
      <trkpt lat="50.03657" lon="2.32097">
        <ele>129.5</ele>
        <time>2023-10-25T12:50:07Z</time>
      </trkpt>
      <trkpt lat="50.03658" lon="2.32096">
        <ele>129.5</ele>
        <time>2023-10-25T12:50:08Z</time>
      </trkpt>
      <trkpt lat="50.03658" lon="2.32096">
        <ele>129.5</ele>
        <time>2023-10-25T12:50:09Z</time>
      </trkpt>
      <trkpt lat="50.03658" lon="2.32096">
        <ele>129.5</ele>
        <time>2023-10-25T12:50:10Z</time>
      </trkpt>
      <trkpt lat="50.03658" lon="2.32095">
        <ele>129.5</ele>
        <time>2023-10-25T12:50:11Z</time>
      </trkpt>
      <trkpt lat="50.03658" lon="2.32095">
        <ele>129.5</ele>
        <time>2023-10-25T12:50:12Z</time>
      </trkpt>
      <trkpt lat="50.03658" lon="2.32095">
        <ele>129.5</ele>
        <time>2023-10-25T12:50:13Z</time>
      </trkpt>
      <trkpt lat="50.03658" lon="2.32095">
        <ele>129.5</ele>
        <time>2023-10-25T12:50:14Z</time>
      </trkpt>
      <trkpt lat="50.03658" lon="2.32095">
        <ele>129.5</ele>
        <time>2023-10-25T12:50:15Z</time>
      </trkpt>
      <trkpt lat="50.03658" lon="2.32095">
        <ele>129.5</ele>
        <time>2023-10-25T12:50:16Z</time>
      </trkpt>
      <trkpt lat="50.03658" lon="2.32095">
        <ele>129.5</ele>
        <time>2023-10-25T12:50:17Z</time>
      </trkpt>
      <trkpt lat="50.03658" lon="2.32095">
        <ele>129.5</ele>
        <time>2023-10-25T12:50:18Z</time>
      </trkpt>
      <trkpt lat="50.03656" lon="2.32096">
        <ele>129.5</ele>
        <time>2023-10-25T12:50:38Z</time>
      </trkpt>
      <trkpt lat="50.03656" lon="2.32098">
        <ele>129.5</ele>
        <time>2023-10-25T12:50:39Z</time>
      </trkpt>
      <trkpt lat="50.03656" lon="2.32099">
        <ele>129.5</ele>
        <time>2023-10-25T12:50:40Z</time>
      </trkpt>
      <trkpt lat="50.03655" lon="2.321">
        <ele>129.5</ele>
        <time>2023-10-25T12:50:41Z</time>
      </trkpt>
      <trkpt lat="50.03655" lon="2.32101">
        <ele>129.5</ele>
        <time>2023-10-25T12:50:42Z</time>
      </trkpt>
      <trkpt lat="50.03654" lon="2.32102">
        <ele>129.5</ele>
        <time>2023-10-25T12:50:43Z</time>
      </trkpt>
      <trkpt lat="50.03653" lon="2.32103">
        <ele>129.5</ele>
        <time>2023-10-25T12:50:44Z</time>
      </trkpt>
      <trkpt lat="50.03653" lon="2.32104">
        <ele>129.5</ele>
        <time>2023-10-25T12:50:45Z</time>
      </trkpt>
      <trkpt lat="50.03653" lon="2.32104">
        <ele>129.5</ele>
        <time>2023-10-25T12:50:46Z</time>
      </trkpt>
      <trkpt lat="50.03652" lon="2.32105">
        <ele>129.5</ele>
        <time>2023-10-25T12:50:47Z</time>
      </trkpt>
      <trkpt lat="50.03652" lon="2.32106">
        <ele>129.5</ele>
        <time>2023-10-25T12:50:48Z</time>
      </trkpt>
      <trkpt lat="50.03651" lon="2.32107">
        <ele>129.5</ele>
        <time>2023-10-25T12:50:49Z</time>
      </trkpt>
      <trkpt lat="50.03651" lon="2.32107">
        <ele>129.5</ele>
        <time>2023-10-25T12:50:50Z</time>
      </trkpt>
      <trkpt lat="50.03651" lon="2.32108">
        <ele>129.5</ele>
        <time>2023-10-25T12:50:51Z</time>
      </trkpt>
      <trkpt lat="50.03651" lon="2.32108">
        <ele>129.5</ele>
        <time>2023-10-25T12:50:52Z</time>
      </trkpt>
      <trkpt lat="50.0365" lon="2.32109">
        <ele>129.5</ele>
        <time>2023-10-25T12:50:53Z</time>
      </trkpt>
      <trkpt lat="50.03649" lon="2.32111">
        <ele>129.5</ele>
        <time>2023-10-25T12:50:54Z</time>
      </trkpt>
      <trkpt lat="50.03649" lon="2.32113">
        <ele>129.5</ele>
        <time>2023-10-25T12:50:55Z</time>
      </trkpt>
      <trkpt lat="50.03648" lon="2.32114">
        <ele>129.5</ele>
        <time>2023-10-25T12:50:56Z</time>
      </trkpt>
      <trkpt lat="50.03648" lon="2.32115">
        <ele>129.5</ele>
        <time>2023-10-25T12:50:57Z</time>
      </trkpt>
      <trkpt lat="50.03647" lon="2.32116">
        <ele>129.5</ele>
        <time>2023-10-25T12:50:58Z</time>
      </trkpt>
      <trkpt lat="50.03646" lon="2.32117">
        <ele>129.5</ele>
        <time>2023-10-25T12:50:59Z</time>
      </trkpt>
      <trkpt lat="50.03645" lon="2.32119">
        <ele>129.5</ele>
        <time>2023-10-25T12:51:00Z</time>
      </trkpt>
      <trkpt lat="50.03644" lon="2.3212">
        <ele>129.5</ele>
        <time>2023-10-25T12:51:01Z</time>
      </trkpt>
      <trkpt lat="50.03644" lon="2.32121">
        <ele>129.5</ele>
        <time>2023-10-25T12:51:02Z</time>
      </trkpt>
      <trkpt lat="50.03643" lon="2.32123">
        <ele>129.6</ele>
        <time>2023-10-25T12:51:03Z</time>
      </trkpt>
      <trkpt lat="50.03642" lon="2.32124">
        <ele>129.6</ele>
        <time>2023-10-25T12:51:04Z</time>
      </trkpt>
      <trkpt lat="50.03641" lon="2.32127">
        <ele>129.6</ele>
        <time>2023-10-25T12:51:05Z</time>
      </trkpt>
      <trkpt lat="50.0364" lon="2.32128">
        <ele>129.6</ele>
        <time>2023-10-25T12:51:06Z</time>
      </trkpt>
      <trkpt lat="50.0364" lon="2.32129">
        <ele>129.6</ele>
        <time>2023-10-25T12:51:07Z</time>
      </trkpt>
      <trkpt lat="50.03638" lon="2.32131">
        <ele>129.6</ele>
        <time>2023-10-25T12:51:08Z</time>
      </trkpt>
      <trkpt lat="50.03638" lon="2.32132">
        <ele>129.6</ele>
        <time>2023-10-25T12:51:09Z</time>
      </trkpt>
      <trkpt lat="50.03637" lon="2.32134">
        <ele>129.6</ele>
        <time>2023-10-25T12:51:10Z</time>
      </trkpt>
      <trkpt lat="50.03636" lon="2.32137">
        <ele>129.6</ele>
        <time>2023-10-25T12:51:11Z</time>
      </trkpt>
      <trkpt lat="50.03635" lon="2.32138">
        <ele>129.6</ele>
        <time>2023-10-25T12:51:12Z</time>
      </trkpt>
      <trkpt lat="50.03635" lon="2.3214">
        <ele>129.6</ele>
        <time>2023-10-25T12:51:13Z</time>
      </trkpt>
      <trkpt lat="50.03634" lon="2.32142">
        <ele>129.7</ele>
        <time>2023-10-25T12:51:14Z</time>
      </trkpt>
      <trkpt lat="50.03633" lon="2.32146">
        <ele>129.7</ele>
        <time>2023-10-25T12:51:15Z</time>
      </trkpt>
      <trkpt lat="50.03633" lon="2.32147">
        <ele>129.7</ele>
        <time>2023-10-25T12:51:16Z</time>
      </trkpt>
      <trkpt lat="50.03633" lon="2.32148">
        <ele>129.7</ele>
        <time>2023-10-25T12:51:17Z</time>
      </trkpt>
      <trkpt lat="50.03632" lon="2.32151">
        <ele>129.7</ele>
        <time>2023-10-25T12:51:18Z</time>
      </trkpt>
      <trkpt lat="50.03631" lon="2.32152">
        <ele>129.7</ele>
        <time>2023-10-25T12:51:19Z</time>
      </trkpt>
      <trkpt lat="50.03631" lon="2.32154">
        <ele>129.7</ele>
        <time>2023-10-25T12:51:20Z</time>
      </trkpt>
      <trkpt lat="50.0363" lon="2.32156">
        <ele>129.8</ele>
        <time>2023-10-25T12:51:21Z</time>
      </trkpt>
      <trkpt lat="50.0363" lon="2.32157">
        <ele>129.8</ele>
        <time>2023-10-25T12:51:22Z</time>
      </trkpt>
      <trkpt lat="50.03629" lon="2.32158">
        <ele>129.8</ele>
        <time>2023-10-25T12:51:23Z</time>
      </trkpt>
      <trkpt lat="50.03629" lon="2.3216">
        <ele>129.8</ele>
        <time>2023-10-25T12:51:24Z</time>
      </trkpt>
      <trkpt lat="50.03628" lon="2.32161">
        <ele>129.8</ele>
        <time>2023-10-25T12:51:25Z</time>
      </trkpt>
      <trkpt lat="50.03627" lon="2.32162">
        <ele>129.8</ele>
        <time>2023-10-25T12:51:26Z</time>
      </trkpt>
      <trkpt lat="50.03627" lon="2.32164">
        <ele>129.8</ele>
        <time>2023-10-25T12:51:27Z</time>
      </trkpt>
      <trkpt lat="50.03626" lon="2.32165">
        <ele>129.9</ele>
        <time>2023-10-25T12:51:28Z</time>
      </trkpt>
      <trkpt lat="50.03625" lon="2.32166">
        <ele>129.9</ele>
        <time>2023-10-25T12:51:29Z</time>
      </trkpt>
      <trkpt lat="50.03625" lon="2.32168">
        <ele>129.9</ele>
        <time>2023-10-25T12:51:30Z</time>
      </trkpt>
      <trkpt lat="50.03624" lon="2.32169">
        <ele>129.9</ele>
        <time>2023-10-25T12:51:31Z</time>
      </trkpt>
      <trkpt lat="50.03623" lon="2.32171">
        <ele>129.9</ele>
        <time>2023-10-25T12:51:32Z</time>
      </trkpt>
      <trkpt lat="50.03623" lon="2.32172">
        <ele>129.9</ele>
        <time>2023-10-25T12:51:33Z</time>
      </trkpt>
      <trkpt lat="50.03622" lon="2.32173">
        <ele>129.9</ele>
        <time>2023-10-25T12:51:34Z</time>
      </trkpt>
      <trkpt lat="50.03621" lon="2.32175">
        <ele>129.9</ele>
        <time>2023-10-25T12:51:35Z</time>
      </trkpt>
      <trkpt lat="50.0362" lon="2.32176">
        <ele>130</ele>
        <time>2023-10-25T12:51:36Z</time>
      </trkpt>
      <trkpt lat="50.0362" lon="2.32177">
        <ele>130</ele>
        <time>2023-10-25T12:51:37Z</time>
      </trkpt>
      <trkpt lat="50.03619" lon="2.32178">
        <ele>130</ele>
        <time>2023-10-25T12:51:38Z</time>
      </trkpt>
      <trkpt lat="50.03618" lon="2.32179">
        <ele>130</ele>
        <time>2023-10-25T12:51:39Z</time>
      </trkpt>
      <trkpt lat="50.03617" lon="2.3218">
        <ele>130</ele>
        <time>2023-10-25T12:51:40Z</time>
      </trkpt>
      <trkpt lat="50.03616" lon="2.32181">
        <ele>130</ele>
        <time>2023-10-25T12:51:41Z</time>
      </trkpt>
      <trkpt lat="50.03615" lon="2.32182">
        <ele>130.1</ele>
        <time>2023-10-25T12:51:42Z</time>
      </trkpt>
      <trkpt lat="50.03614" lon="2.32184">
        <ele>130.1</ele>
        <time>2023-10-25T12:51:43Z</time>
      </trkpt>
      <trkpt lat="50.03613" lon="2.32185">
        <ele>130.1</ele>
        <time>2023-10-25T12:51:44Z</time>
      </trkpt>
      <trkpt lat="50.03612" lon="2.32186">
        <ele>130.1</ele>
        <time>2023-10-25T12:51:45Z</time>
      </trkpt>
      <trkpt lat="50.03611" lon="2.32186">
        <ele>130.1</ele>
        <time>2023-10-25T12:51:46Z</time>
      </trkpt>
      <trkpt lat="50.0361" lon="2.32187">
        <ele>130.1</ele>
        <time>2023-10-25T12:51:47Z</time>
      </trkpt>
      <trkpt lat="50.03609" lon="2.32187">
        <ele>130.2</ele>
        <time>2023-10-25T12:51:48Z</time>
      </trkpt>
      <trkpt lat="50.03608" lon="2.32188">
        <ele>130.2</ele>
        <time>2023-10-25T12:51:49Z</time>
      </trkpt>
      <trkpt lat="50.03607" lon="2.32189">
        <ele>130.2</ele>
        <time>2023-10-25T12:51:50Z</time>
      </trkpt>
      <trkpt lat="50.03605" lon="2.3219">
        <ele>130.2</ele>
        <time>2023-10-25T12:51:51Z</time>
      </trkpt>
      <trkpt lat="50.03604" lon="2.3219">
        <ele>130.3</ele>
        <time>2023-10-25T12:51:52Z</time>
      </trkpt>
      <trkpt lat="50.03603" lon="2.3219">
        <ele>130.3</ele>
        <time>2023-10-25T12:51:53Z</time>
      </trkpt>
      <trkpt lat="50.03602" lon="2.32191">
        <ele>130.3</ele>
        <time>2023-10-25T12:51:54Z</time>
      </trkpt>
      <trkpt lat="50.03601" lon="2.32191">
        <ele>130.3</ele>
        <time>2023-10-25T12:51:55Z</time>
      </trkpt>
      <trkpt lat="50.036" lon="2.32191">
        <ele>130.3</ele>
        <time>2023-10-25T12:51:56Z</time>
      </trkpt>
      <trkpt lat="50.03599" lon="2.32191">
        <ele>130.4</ele>
        <time>2023-10-25T12:51:57Z</time>
      </trkpt>
      <trkpt lat="50.03598" lon="2.32191">
        <ele>130.4</ele>
        <time>2023-10-25T12:51:58Z</time>
      </trkpt>
      <trkpt lat="50.03597" lon="2.32191">
        <ele>130.4</ele>
        <time>2023-10-25T12:51:59Z</time>
      </trkpt>
      <trkpt lat="50.03596" lon="2.32192">
        <ele>130.4</ele>
        <time>2023-10-25T12:52:00Z</time>
      </trkpt>
      <trkpt lat="50.03595" lon="2.32192">
        <ele>130.4</ele>
        <time>2023-10-25T12:52:01Z</time>
      </trkpt>
      <trkpt lat="50.03594" lon="2.32192">
        <ele>130.5</ele>
        <time>2023-10-25T12:52:02Z</time>
      </trkpt>
      <trkpt lat="50.03593" lon="2.32192">
        <ele>130.5</ele>
        <time>2023-10-25T12:52:03Z</time>
      </trkpt>
      <trkpt lat="50.03592" lon="2.32192">
        <ele>130.5</ele>
        <time>2023-10-25T12:52:04Z</time>
      </trkpt>
      <trkpt lat="50.03591" lon="2.32192">
        <ele>130.5</ele>
        <time>2023-10-25T12:52:05Z</time>
      </trkpt>
      <trkpt lat="50.03589" lon="2.32192">
        <ele>130.5</ele>
        <time>2023-10-25T12:52:06Z</time>
      </trkpt>
      <trkpt lat="50.03588" lon="2.32192">
        <ele>130.6</ele>
        <time>2023-10-25T12:52:07Z</time>
      </trkpt>
      <trkpt lat="50.03587" lon="2.32193">
        <ele>130.6</ele>
        <time>2023-10-25T12:52:08Z</time>
      </trkpt>
      <trkpt lat="50.03587" lon="2.32193">
        <ele>130.6</ele>
        <time>2023-10-25T12:52:09Z</time>
      </trkpt>
      <trkpt lat="50.03586" lon="2.32193">
        <ele>130.6</ele>
        <time>2023-10-25T12:52:10Z</time>
      </trkpt>
      <trkpt lat="50.03585" lon="2.32192">
        <ele>130.6</ele>
        <time>2023-10-25T12:52:11Z</time>
      </trkpt>
      <trkpt lat="50.03584" lon="2.32193">
        <ele>130.7</ele>
        <time>2023-10-25T12:52:12Z</time>
      </trkpt>
      <trkpt lat="50.03583" lon="2.32193">
        <ele>130.7</ele>
        <time>2023-10-25T12:52:13Z</time>
      </trkpt>
      <trkpt lat="50.03582" lon="2.32193">
        <ele>130.7</ele>
        <time>2023-10-25T12:52:14Z</time>
      </trkpt>
      <trkpt lat="50.03581" lon="2.32193">
        <ele>130.7</ele>
        <time>2023-10-25T12:52:15Z</time>
      </trkpt>
      <trkpt lat="50.0358" lon="2.32193">
        <ele>130.8</ele>
        <time>2023-10-25T12:52:16Z</time>
      </trkpt>
      <trkpt lat="50.03579" lon="2.32193">
        <ele>130.8</ele>
        <time>2023-10-25T12:52:17Z</time>
      </trkpt>
      <trkpt lat="50.03577" lon="2.32193">
        <ele>130.8</ele>
        <time>2023-10-25T12:52:18Z</time>
      </trkpt>
      <trkpt lat="50.03575" lon="2.32193">
        <ele>130.8</ele>
        <time>2023-10-25T12:52:19Z</time>
      </trkpt>
      <trkpt lat="50.03575" lon="2.32193">
        <ele>130.9</ele>
        <time>2023-10-25T12:52:20Z</time>
      </trkpt>
      <trkpt lat="50.03574" lon="2.32193">
        <ele>130.9</ele>
        <time>2023-10-25T12:52:21Z</time>
      </trkpt>
      <trkpt lat="50.03572" lon="2.32192">
        <ele>130.9</ele>
        <time>2023-10-25T12:52:22Z</time>
      </trkpt>
      <trkpt lat="50.03571" lon="2.32192">
        <ele>131</ele>
        <time>2023-10-25T12:52:23Z</time>
      </trkpt>
      <trkpt lat="50.0357" lon="2.32192">
        <ele>131</ele>
        <time>2023-10-25T12:52:24Z</time>
      </trkpt>
      <trkpt lat="50.03568" lon="2.32192">
        <ele>131</ele>
        <time>2023-10-25T12:52:25Z</time>
      </trkpt>
      <trkpt lat="50.03567" lon="2.32191">
        <ele>131</ele>
        <time>2023-10-25T12:52:26Z</time>
      </trkpt>
      <trkpt lat="50.03566" lon="2.32191">
        <ele>131.1</ele>
        <time>2023-10-25T12:52:27Z</time>
      </trkpt>
      <trkpt lat="50.03564" lon="2.32191">
        <ele>131.1</ele>
        <time>2023-10-25T12:52:28Z</time>
      </trkpt>
      <trkpt lat="50.03563" lon="2.32191">
        <ele>131.1</ele>
        <time>2023-10-25T12:52:29Z</time>
      </trkpt>
      <trkpt lat="50.03563" lon="2.32191">
        <ele>131.1</ele>
        <time>2023-10-25T12:52:30Z</time>
      </trkpt>
      <trkpt lat="50.03562" lon="2.32191">
        <ele>131.1</ele>
        <time>2023-10-25T12:52:31Z</time>
      </trkpt>
      <trkpt lat="50.03561" lon="2.32191">
        <ele>131.2</ele>
        <time>2023-10-25T12:52:32Z</time>
      </trkpt>
      <trkpt lat="50.0356" lon="2.3219">
        <ele>131.2</ele>
        <time>2023-10-25T12:52:33Z</time>
      </trkpt>
      <trkpt lat="50.03559" lon="2.3219">
        <ele>131.2</ele>
        <time>2023-10-25T12:52:34Z</time>
      </trkpt>
      <trkpt lat="50.03557" lon="2.3219">
        <ele>131.2</ele>
        <time>2023-10-25T12:52:35Z</time>
      </trkpt>
      <trkpt lat="50.03556" lon="2.3219">
        <ele>131.2</ele>
        <time>2023-10-25T12:52:36Z</time>
      </trkpt>
      <trkpt lat="50.03555" lon="2.32189">
        <ele>131.3</ele>
        <time>2023-10-25T12:52:37Z</time>
      </trkpt>
      <trkpt lat="50.03554" lon="2.32189">
        <ele>131.3</ele>
        <time>2023-10-25T12:52:38Z</time>
      </trkpt>
      <trkpt lat="50.03553" lon="2.32189">
        <ele>131.3</ele>
        <time>2023-10-25T12:52:39Z</time>
      </trkpt>
      <trkpt lat="50.03552" lon="2.32188">
        <ele>131.3</ele>
        <time>2023-10-25T12:52:40Z</time>
      </trkpt>
      <trkpt lat="50.03552" lon="2.32188">
        <ele>131.3</ele>
        <time>2023-10-25T12:52:41Z</time>
      </trkpt>
      <trkpt lat="50.03551" lon="2.32188">
        <ele>131.3</ele>
        <time>2023-10-25T12:52:42Z</time>
      </trkpt>
      <trkpt lat="50.0355" lon="2.32189">
        <ele>131.3</ele>
        <time>2023-10-25T12:52:43Z</time>
      </trkpt>
      <trkpt lat="50.03549" lon="2.32189">
        <ele>131.4</ele>
        <time>2023-10-25T12:52:44Z</time>
      </trkpt>
      <trkpt lat="50.03548" lon="2.32189">
        <ele>131.4</ele>
        <time>2023-10-25T12:52:45Z</time>
      </trkpt>
      <trkpt lat="50.03547" lon="2.32189">
        <ele>131.4</ele>
        <time>2023-10-25T12:52:46Z</time>
      </trkpt>
      <trkpt lat="50.03546" lon="2.32189">
        <ele>131.4</ele>
        <time>2023-10-25T12:52:47Z</time>
      </trkpt>
      <trkpt lat="50.03545" lon="2.32189">
        <ele>131.4</ele>
        <time>2023-10-25T12:52:48Z</time>
      </trkpt>
      <trkpt lat="50.03544" lon="2.32188">
        <ele>131.4</ele>
        <time>2023-10-25T12:52:49Z</time>
      </trkpt>
      <trkpt lat="50.03543" lon="2.32188">
        <ele>131.4</ele>
        <time>2023-10-25T12:52:50Z</time>
      </trkpt>
      <trkpt lat="50.03542" lon="2.32188">
        <ele>131.5</ele>
        <time>2023-10-25T12:52:51Z</time>
      </trkpt>
      <trkpt lat="50.03541" lon="2.32188">
        <ele>131.5</ele>
        <time>2023-10-25T12:52:52Z</time>
      </trkpt>
      <trkpt lat="50.0354" lon="2.32187">
        <ele>131.5</ele>
        <time>2023-10-25T12:52:53Z</time>
      </trkpt>
      <trkpt lat="50.03539" lon="2.32187">
        <ele>131.5</ele>
        <time>2023-10-25T12:52:54Z</time>
      </trkpt>
      <trkpt lat="50.03538" lon="2.32187">
        <ele>131.5</ele>
        <time>2023-10-25T12:52:55Z</time>
      </trkpt>
      <trkpt lat="50.03536" lon="2.32187">
        <ele>131.5</ele>
        <time>2023-10-25T12:52:56Z</time>
      </trkpt>
      <trkpt lat="50.03535" lon="2.32187">
        <ele>131.5</ele>
        <time>2023-10-25T12:52:57Z</time>
      </trkpt>
      <trkpt lat="50.03535" lon="2.32188">
        <ele>131.5</ele>
        <time>2023-10-25T12:52:58Z</time>
      </trkpt>
      <trkpt lat="50.03534" lon="2.32188">
        <ele>131.6</ele>
        <time>2023-10-25T12:52:59Z</time>
      </trkpt>
      <trkpt lat="50.03533" lon="2.32187">
        <ele>131.6</ele>
        <time>2023-10-25T12:53:00Z</time>
      </trkpt>
      <trkpt lat="50.03532" lon="2.32187">
        <ele>131.6</ele>
        <time>2023-10-25T12:53:01Z</time>
      </trkpt>
      <trkpt lat="50.03531" lon="2.32187">
        <ele>131.6</ele>
        <time>2023-10-25T12:53:02Z</time>
      </trkpt>
      <trkpt lat="50.03529" lon="2.32186">
        <ele>131.6</ele>
        <time>2023-10-25T12:53:03Z</time>
      </trkpt>
      <trkpt lat="50.03528" lon="2.32186">
        <ele>131.6</ele>
        <time>2023-10-25T12:53:04Z</time>
      </trkpt>
      <trkpt lat="50.03527" lon="2.32186">
        <ele>131.7</ele>
        <time>2023-10-25T12:53:05Z</time>
      </trkpt>
      <trkpt lat="50.03526" lon="2.32186">
        <ele>131.7</ele>
        <time>2023-10-25T12:53:06Z</time>
      </trkpt>
      <trkpt lat="50.03525" lon="2.32185">
        <ele>131.7</ele>
        <time>2023-10-25T12:53:07Z</time>
      </trkpt>
      <trkpt lat="50.03524" lon="2.32185">
        <ele>131.7</ele>
        <time>2023-10-25T12:53:08Z</time>
      </trkpt>
      <trkpt lat="50.03523" lon="2.32185">
        <ele>131.7</ele>
        <time>2023-10-25T12:53:09Z</time>
      </trkpt>
      <trkpt lat="50.03521" lon="2.32185">
        <ele>131.7</ele>
        <time>2023-10-25T12:53:10Z</time>
      </trkpt>
      <trkpt lat="50.0352" lon="2.32185">
        <ele>131.8</ele>
        <time>2023-10-25T12:53:11Z</time>
      </trkpt>
      <trkpt lat="50.03518" lon="2.32185">
        <ele>131.8</ele>
        <time>2023-10-25T12:53:12Z</time>
      </trkpt>
      <trkpt lat="50.03517" lon="2.32184">
        <ele>131.8</ele>
        <time>2023-10-25T12:53:13Z</time>
      </trkpt>
      <trkpt lat="50.03517" lon="2.32184">
        <ele>131.8</ele>
        <time>2023-10-25T12:53:14Z</time>
      </trkpt>
      <trkpt lat="50.03515" lon="2.32184">
        <ele>131.8</ele>
        <time>2023-10-25T12:53:15Z</time>
      </trkpt>
      <trkpt lat="50.03514" lon="2.32184">
        <ele>131.8</ele>
        <time>2023-10-25T12:53:16Z</time>
      </trkpt>
      <trkpt lat="50.03513" lon="2.32183">
        <ele>131.9</ele>
        <time>2023-10-25T12:53:17Z</time>
      </trkpt>
      <trkpt lat="50.03512" lon="2.32183">
        <ele>131.9</ele>
        <time>2023-10-25T12:53:18Z</time>
      </trkpt>
      <trkpt lat="50.03511" lon="2.32183">
        <ele>131.9</ele>
        <time>2023-10-25T12:53:19Z</time>
      </trkpt>
      <trkpt lat="50.0351" lon="2.32183">
        <ele>131.9</ele>
        <time>2023-10-25T12:53:20Z</time>
      </trkpt>
      <trkpt lat="50.03509" lon="2.32182">
        <ele>131.9</ele>
        <time>2023-10-25T12:53:21Z</time>
      </trkpt>
      <trkpt lat="50.03508" lon="2.32182">
        <ele>131.9</ele>
        <time>2023-10-25T12:53:22Z</time>
      </trkpt>
      <trkpt lat="50.03506" lon="2.32182">
        <ele>131.9</ele>
        <time>2023-10-25T12:53:23Z</time>
      </trkpt>
      <trkpt lat="50.03504" lon="2.32181">
        <ele>132</ele>
        <time>2023-10-25T12:53:24Z</time>
      </trkpt>
      <trkpt lat="50.03504" lon="2.32181">
        <ele>132</ele>
        <time>2023-10-25T12:53:25Z</time>
      </trkpt>
      <trkpt lat="50.03503" lon="2.32181">
        <ele>132</ele>
        <time>2023-10-25T12:53:26Z</time>
      </trkpt>
      <trkpt lat="50.03501" lon="2.32181">
        <ele>132</ele>
        <time>2023-10-25T12:53:27Z</time>
      </trkpt>
      <trkpt lat="50.035" lon="2.32181">
        <ele>132</ele>
        <time>2023-10-25T12:53:28Z</time>
      </trkpt>
      <trkpt lat="50.03499" lon="2.32181">
        <ele>132</ele>
        <time>2023-10-25T12:53:29Z</time>
      </trkpt>
      <trkpt lat="50.03498" lon="2.3218">
        <ele>132</ele>
        <time>2023-10-25T12:53:30Z</time>
      </trkpt>
      <trkpt lat="50.03497" lon="2.3218">
        <ele>132</ele>
        <time>2023-10-25T12:53:31Z</time>
      </trkpt>
      <trkpt lat="50.03496" lon="2.3218">
        <ele>132</ele>
        <time>2023-10-25T12:53:32Z</time>
      </trkpt>
      <trkpt lat="50.03493" lon="2.3218">
        <ele>132.1</ele>
        <time>2023-10-25T12:53:33Z</time>
      </trkpt>
      <trkpt lat="50.03493" lon="2.32179">
        <ele>132.1</ele>
        <time>2023-10-25T12:53:34Z</time>
      </trkpt>
      <trkpt lat="50.03492" lon="2.32179">
        <ele>132.1</ele>
        <time>2023-10-25T12:53:35Z</time>
      </trkpt>
      <trkpt lat="50.0349" lon="2.32179">
        <ele>132.1</ele>
        <time>2023-10-25T12:53:36Z</time>
      </trkpt>
      <trkpt lat="50.03489" lon="2.32179">
        <ele>132.1</ele>
        <time>2023-10-25T12:53:37Z</time>
      </trkpt>
      <trkpt lat="50.03487" lon="2.32178">
        <ele>132.2</ele>
        <time>2023-10-25T12:53:38Z</time>
      </trkpt>
      <trkpt lat="50.03486" lon="2.32178">
        <ele>132.2</ele>
        <time>2023-10-25T12:53:39Z</time>
      </trkpt>
      <trkpt lat="50.03484" lon="2.32178">
        <ele>132.2</ele>
        <time>2023-10-25T12:53:40Z</time>
      </trkpt>
      <trkpt lat="50.03483" lon="2.32177">
        <ele>132.2</ele>
        <time>2023-10-25T12:53:41Z</time>
      </trkpt>
      <trkpt lat="50.03481" lon="2.32177">
        <ele>132.3</ele>
        <time>2023-10-25T12:53:42Z</time>
      </trkpt>
      <trkpt lat="50.0348" lon="2.32177">
        <ele>132.3</ele>
        <time>2023-10-25T12:53:43Z</time>
      </trkpt>
      <trkpt lat="50.03479" lon="2.32177">
        <ele>132.3</ele>
        <time>2023-10-25T12:53:44Z</time>
      </trkpt>
      <trkpt lat="50.03477" lon="2.32177">
        <ele>132.3</ele>
        <time>2023-10-25T12:53:45Z</time>
      </trkpt>
      <trkpt lat="50.03476" lon="2.32177">
        <ele>132.3</ele>
        <time>2023-10-25T12:53:46Z</time>
      </trkpt>
      <trkpt lat="50.03476" lon="2.32177">
        <ele>132.3</ele>
        <time>2023-10-25T12:53:47Z</time>
      </trkpt>
      <trkpt lat="50.03473" lon="2.32177">
        <ele>132.4</ele>
        <time>2023-10-25T12:53:48Z</time>
      </trkpt>
      <trkpt lat="50.03473" lon="2.32177">
        <ele>132.4</ele>
        <time>2023-10-25T12:53:49Z</time>
      </trkpt>
      <trkpt lat="50.03472" lon="2.32177">
        <ele>132.4</ele>
        <time>2023-10-25T12:53:50Z</time>
      </trkpt>
      <trkpt lat="50.0347" lon="2.32178">
        <ele>132.4</ele>
        <time>2023-10-25T12:53:51Z</time>
      </trkpt>
      <trkpt lat="50.03469" lon="2.32178">
        <ele>132.4</ele>
        <time>2023-10-25T12:53:52Z</time>
      </trkpt>
      <trkpt lat="50.03468" lon="2.32178">
        <ele>132.4</ele>
        <time>2023-10-25T12:53:53Z</time>
      </trkpt>
      <trkpt lat="50.03467" lon="2.32178">
        <ele>132.5</ele>
        <time>2023-10-25T12:53:54Z</time>
      </trkpt>
      <trkpt lat="50.03466" lon="2.32178">
        <ele>132.5</ele>
        <time>2023-10-25T12:53:55Z</time>
      </trkpt>
      <trkpt lat="50.03465" lon="2.32178">
        <ele>132.5</ele>
        <time>2023-10-25T12:53:56Z</time>
      </trkpt>
      <trkpt lat="50.03463" lon="2.32179">
        <ele>132.5</ele>
        <time>2023-10-25T12:53:57Z</time>
      </trkpt>
      <trkpt lat="50.03462" lon="2.32179">
        <ele>132.5</ele>
        <time>2023-10-25T12:53:58Z</time>
      </trkpt>
      <trkpt lat="50.03461" lon="2.32179">
        <ele>132.5</ele>
        <time>2023-10-25T12:53:59Z</time>
      </trkpt>
      <trkpt lat="50.03459" lon="2.32179">
        <ele>132.6</ele>
        <time>2023-10-25T12:54:00Z</time>
      </trkpt>
      <trkpt lat="50.03458" lon="2.32179">
        <ele>132.6</ele>
        <time>2023-10-25T12:54:01Z</time>
      </trkpt>
      <trkpt lat="50.03457" lon="2.3218">
        <ele>132.6</ele>
        <time>2023-10-25T12:54:02Z</time>
      </trkpt>
      <trkpt lat="50.03456" lon="2.3218">
        <ele>132.6</ele>
        <time>2023-10-25T12:54:03Z</time>
      </trkpt>
      <trkpt lat="50.03455" lon="2.3218">
        <ele>132.6</ele>
        <time>2023-10-25T12:54:04Z</time>
      </trkpt>
      <trkpt lat="50.03454" lon="2.3218">
        <ele>132.6</ele>
        <time>2023-10-25T12:54:05Z</time>
      </trkpt>
      <trkpt lat="50.03453" lon="2.3218">
        <ele>132.7</ele>
        <time>2023-10-25T12:54:06Z</time>
      </trkpt>
      <trkpt lat="50.03452" lon="2.3218">
        <ele>132.7</ele>
        <time>2023-10-25T12:54:07Z</time>
      </trkpt>
      <trkpt lat="50.0345" lon="2.32181">
        <ele>132.7</ele>
        <time>2023-10-25T12:54:08Z</time>
      </trkpt>
      <trkpt lat="50.03449" lon="2.32181">
        <ele>132.7</ele>
        <time>2023-10-25T12:54:09Z</time>
      </trkpt>
      <trkpt lat="50.03448" lon="2.32181">
        <ele>132.7</ele>
        <time>2023-10-25T12:54:10Z</time>
      </trkpt>
      <trkpt lat="50.03447" lon="2.32181">
        <ele>132.7</ele>
        <time>2023-10-25T12:54:11Z</time>
      </trkpt>
      <trkpt lat="50.03446" lon="2.32182">
        <ele>132.7</ele>
        <time>2023-10-25T12:54:12Z</time>
      </trkpt>
      <trkpt lat="50.03445" lon="2.32182">
        <ele>132.7</ele>
        <time>2023-10-25T12:54:13Z</time>
      </trkpt>
      <trkpt lat="50.03443" lon="2.32182">
        <ele>132.7</ele>
        <time>2023-10-25T12:54:14Z</time>
      </trkpt>
      <trkpt lat="50.03442" lon="2.32182">
        <ele>132.7</ele>
        <time>2023-10-25T12:54:15Z</time>
      </trkpt>
      <trkpt lat="50.03441" lon="2.32183">
        <ele>132.8</ele>
        <time>2023-10-25T12:54:16Z</time>
      </trkpt>
      <trkpt lat="50.03441" lon="2.32183">
        <ele>132.8</ele>
        <time>2023-10-25T12:54:17Z</time>
      </trkpt>
      <trkpt lat="50.0344" lon="2.32183">
        <ele>132.8</ele>
        <time>2023-10-25T12:54:18Z</time>
      </trkpt>
      <trkpt lat="50.03439" lon="2.32183">
        <ele>132.8</ele>
        <time>2023-10-25T12:54:19Z</time>
      </trkpt>
      <trkpt lat="50.03438" lon="2.32183">
        <ele>132.8</ele>
        <time>2023-10-25T12:54:20Z</time>
      </trkpt>
      <trkpt lat="50.03437" lon="2.32184">
        <ele>132.8</ele>
        <time>2023-10-25T12:54:21Z</time>
      </trkpt>
      <trkpt lat="50.03437" lon="2.32184">
        <ele>132.8</ele>
        <time>2023-10-25T12:54:22Z</time>
      </trkpt>
      <trkpt lat="50.03436" lon="2.32184">
        <ele>132.8</ele>
        <time>2023-10-25T12:54:23Z</time>
      </trkpt>
      <trkpt lat="50.03435" lon="2.32185">
        <ele>132.8</ele>
        <time>2023-10-25T12:54:24Z</time>
      </trkpt>
      <trkpt lat="50.03434" lon="2.32185">
        <ele>132.8</ele>
        <time>2023-10-25T12:54:25Z</time>
      </trkpt>
      <trkpt lat="50.03433" lon="2.32185">
        <ele>132.8</ele>
        <time>2023-10-25T12:54:26Z</time>
      </trkpt>
      <trkpt lat="50.03432" lon="2.32186">
        <ele>132.8</ele>
        <time>2023-10-25T12:54:27Z</time>
      </trkpt>
      <trkpt lat="50.03432" lon="2.32186">
        <ele>132.8</ele>
        <time>2023-10-25T12:54:28Z</time>
      </trkpt>
      <trkpt lat="50.03431" lon="2.32187">
        <ele>132.8</ele>
        <time>2023-10-25T12:54:29Z</time>
      </trkpt>
      <trkpt lat="50.0343" lon="2.32188">
        <ele>132.8</ele>
        <time>2023-10-25T12:54:30Z</time>
      </trkpt>
      <trkpt lat="50.03429" lon="2.32188">
        <ele>132.8</ele>
        <time>2023-10-25T12:54:31Z</time>
      </trkpt>
      <trkpt lat="50.03428" lon="2.32189">
        <ele>132.8</ele>
        <time>2023-10-25T12:54:32Z</time>
      </trkpt>
      <trkpt lat="50.03427" lon="2.3219">
        <ele>132.8</ele>
        <time>2023-10-25T12:54:33Z</time>
      </trkpt>
      <trkpt lat="50.03426" lon="2.32191">
        <ele>132.9</ele>
        <time>2023-10-25T12:54:34Z</time>
      </trkpt>
      <trkpt lat="50.03425" lon="2.32191">
        <ele>132.9</ele>
        <time>2023-10-25T12:54:35Z</time>
      </trkpt>
      <trkpt lat="50.03424" lon="2.32192">
        <ele>132.9</ele>
        <time>2023-10-25T12:54:36Z</time>
      </trkpt>
      <trkpt lat="50.03423" lon="2.32193">
        <ele>132.9</ele>
        <time>2023-10-25T12:54:37Z</time>
      </trkpt>
      <trkpt lat="50.03423" lon="2.32194">
        <ele>132.9</ele>
        <time>2023-10-25T12:54:38Z</time>
      </trkpt>
      <trkpt lat="50.03422" lon="2.32194">
        <ele>132.9</ele>
        <time>2023-10-25T12:54:39Z</time>
      </trkpt>
      <trkpt lat="50.03421" lon="2.32195">
        <ele>132.9</ele>
        <time>2023-10-25T12:54:40Z</time>
      </trkpt>
      <trkpt lat="50.0342" lon="2.32196">
        <ele>132.9</ele>
        <time>2023-10-25T12:54:41Z</time>
      </trkpt>
      <trkpt lat="50.03419" lon="2.32197">
        <ele>132.9</ele>
        <time>2023-10-25T12:54:42Z</time>
      </trkpt>
      <trkpt lat="50.03418" lon="2.32198">
        <ele>132.9</ele>
        <time>2023-10-25T12:54:43Z</time>
      </trkpt>
      <trkpt lat="50.03418" lon="2.32199">
        <ele>132.9</ele>
        <time>2023-10-25T12:54:44Z</time>
      </trkpt>
      <trkpt lat="50.03417" lon="2.322">
        <ele>132.9</ele>
        <time>2023-10-25T12:54:45Z</time>
      </trkpt>
      <trkpt lat="50.03417" lon="2.322">
        <ele>132.9</ele>
        <time>2023-10-25T12:54:46Z</time>
      </trkpt>
      <trkpt lat="50.03417" lon="2.32201">
        <ele>132.9</ele>
        <time>2023-10-25T12:54:47Z</time>
      </trkpt>
      <trkpt lat="50.03417" lon="2.32201">
        <ele>132.9</ele>
        <time>2023-10-25T12:54:48Z</time>
      </trkpt>
      <trkpt lat="50.03417" lon="2.32201">
        <ele>132.9</ele>
        <time>2023-10-25T12:54:49Z</time>
      </trkpt>
      <trkpt lat="50.03417" lon="2.32201">
        <ele>132.9</ele>
        <time>2023-10-25T12:54:50Z</time>
      </trkpt>
      <trkpt lat="50.03417" lon="2.32201">
        <ele>132.9</ele>
        <time>2023-10-25T12:54:51Z</time>
      </trkpt>
      <trkpt lat="50.03417" lon="2.32201">
        <ele>132.9</ele>
        <time>2023-10-25T12:54:52Z</time>
      </trkpt>
      <trkpt lat="50.03417" lon="2.32201">
        <ele>132.9</ele>
        <time>2023-10-25T12:54:53Z</time>
      </trkpt>
      <trkpt lat="50.03417" lon="2.32201">
        <ele>132.9</ele>
        <time>2023-10-25T12:54:54Z</time>
      </trkpt>
      <trkpt lat="50.03417" lon="2.32201">
        <ele>132.9</ele>
        <time>2023-10-25T12:54:55Z</time>
      </trkpt>
      <trkpt lat="50.03417" lon="2.322">
        <ele>132.9</ele>
        <time>2023-10-25T12:54:56Z</time>
      </trkpt>
      <trkpt lat="50.03417" lon="2.322">
        <ele>132.9</ele>
        <time>2023-10-25T12:54:57Z</time>
      </trkpt>
      <trkpt lat="50.03417" lon="2.322">
        <ele>132.9</ele>
        <time>2023-10-25T12:54:58Z</time>
      </trkpt>
      <trkpt lat="50.03417" lon="2.32201">
        <ele>132.9</ele>
        <time>2023-10-25T12:54:59Z</time>
      </trkpt>
      <trkpt lat="50.03416" lon="2.32201">
        <ele>132.9</ele>
        <time>2023-10-25T12:55:00Z</time>
      </trkpt>
      <trkpt lat="50.03415" lon="2.32201">
        <ele>132.9</ele>
        <time>2023-10-25T12:55:01Z</time>
      </trkpt>
      <trkpt lat="50.03415" lon="2.32201">
        <ele>132.9</ele>
        <time>2023-10-25T12:55:02Z</time>
      </trkpt>
      <trkpt lat="50.03413" lon="2.32204">
        <ele>133</ele>
        <time>2023-10-25T12:55:06Z</time>
      </trkpt>
      <trkpt lat="50.03413" lon="2.32205">
        <ele>133</ele>
        <time>2023-10-25T12:55:07Z</time>
      </trkpt>
      <trkpt lat="50.03412" lon="2.32206">
        <ele>133</ele>
        <time>2023-10-25T12:55:08Z</time>
      </trkpt>
      <trkpt lat="50.03412" lon="2.32207">
        <ele>133</ele>
        <time>2023-10-25T12:55:09Z</time>
      </trkpt>
      <trkpt lat="50.03411" lon="2.32208">
        <ele>133</ele>
        <time>2023-10-25T12:55:10Z</time>
      </trkpt>
      <trkpt lat="50.03411" lon="2.3221">
        <ele>133</ele>
        <time>2023-10-25T12:55:11Z</time>
      </trkpt>
      <trkpt lat="50.03411" lon="2.32211">
        <ele>133</ele>
        <time>2023-10-25T12:55:12Z</time>
      </trkpt>
      <trkpt lat="50.0341" lon="2.32213">
        <ele>133</ele>
        <time>2023-10-25T12:55:13Z</time>
      </trkpt>
      <trkpt lat="50.0341" lon="2.32214">
        <ele>133</ele>
        <time>2023-10-25T12:55:14Z</time>
      </trkpt>
      <trkpt lat="50.0341" lon="2.32216">
        <ele>133</ele>
        <time>2023-10-25T12:55:15Z</time>
      </trkpt>
      <trkpt lat="50.03409" lon="2.32218">
        <ele>133</ele>
        <time>2023-10-25T12:55:16Z</time>
      </trkpt>
      <trkpt lat="50.03409" lon="2.32219">
        <ele>133</ele>
        <time>2023-10-25T12:55:17Z</time>
      </trkpt>
      <trkpt lat="50.03409" lon="2.32221">
        <ele>133</ele>
        <time>2023-10-25T12:55:18Z</time>
      </trkpt>
      <trkpt lat="50.03409" lon="2.32223">
        <ele>133</ele>
        <time>2023-10-25T12:55:19Z</time>
      </trkpt>
      <trkpt lat="50.03409" lon="2.32226">
        <ele>133</ele>
        <time>2023-10-25T12:55:20Z</time>
      </trkpt>
      <trkpt lat="50.03409" lon="2.32228">
        <ele>133</ele>
        <time>2023-10-25T12:55:21Z</time>
      </trkpt>
      <trkpt lat="50.03409" lon="2.32229">
        <ele>133</ele>
        <time>2023-10-25T12:55:22Z</time>
      </trkpt>
      <trkpt lat="50.03409" lon="2.32231">
        <ele>133</ele>
        <time>2023-10-25T12:55:23Z</time>
      </trkpt>
      <trkpt lat="50.0341" lon="2.32233">
        <ele>133</ele>
        <time>2023-10-25T12:55:24Z</time>
      </trkpt>
      <trkpt lat="50.0341" lon="2.32234">
        <ele>133</ele>
        <time>2023-10-25T12:55:25Z</time>
      </trkpt>
      <trkpt lat="50.0341" lon="2.32236">
        <ele>133</ele>
        <time>2023-10-25T12:55:26Z</time>
      </trkpt>
      <trkpt lat="50.0341" lon="2.32237">
        <ele>133</ele>
        <time>2023-10-25T12:55:27Z</time>
      </trkpt>
      <trkpt lat="50.0341" lon="2.32238">
        <ele>133</ele>
        <time>2023-10-25T12:55:28Z</time>
      </trkpt>
      <trkpt lat="50.03411" lon="2.32239">
        <ele>133</ele>
        <time>2023-10-25T12:55:29Z</time>
      </trkpt>
      <trkpt lat="50.03411" lon="2.3224">
        <ele>133</ele>
        <time>2023-10-25T12:55:30Z</time>
      </trkpt>
      <trkpt lat="50.03411" lon="2.32242">
        <ele>133</ele>
        <time>2023-10-25T12:55:31Z</time>
      </trkpt>
      <trkpt lat="50.03411" lon="2.32243">
        <ele>133</ele>
        <time>2023-10-25T12:55:32Z</time>
      </trkpt>
      <trkpt lat="50.03411" lon="2.32244">
        <ele>133</ele>
        <time>2023-10-25T12:55:33Z</time>
      </trkpt>
      <trkpt lat="50.03411" lon="2.32245">
        <ele>133</ele>
        <time>2023-10-25T12:55:34Z</time>
      </trkpt>
      <trkpt lat="50.03412" lon="2.32247">
        <ele>133</ele>
        <time>2023-10-25T12:55:35Z</time>
      </trkpt>
      <trkpt lat="50.03412" lon="2.32249">
        <ele>133</ele>
        <time>2023-10-25T12:55:36Z</time>
      </trkpt>
      <trkpt lat="50.03412" lon="2.3225">
        <ele>133</ele>
        <time>2023-10-25T12:55:37Z</time>
      </trkpt>
      <trkpt lat="50.03412" lon="2.32252">
        <ele>133</ele>
        <time>2023-10-25T12:55:38Z</time>
      </trkpt>
      <trkpt lat="50.03412" lon="2.32254">
        <ele>133</ele>
        <time>2023-10-25T12:55:39Z</time>
      </trkpt>
      <trkpt lat="50.03412" lon="2.32256">
        <ele>133</ele>
        <time>2023-10-25T12:55:40Z</time>
      </trkpt>
      <trkpt lat="50.03412" lon="2.32257">
        <ele>133</ele>
        <time>2023-10-25T12:55:41Z</time>
      </trkpt>
      <trkpt lat="50.03412" lon="2.32259">
        <ele>133</ele>
        <time>2023-10-25T12:55:42Z</time>
      </trkpt>
      <trkpt lat="50.03412" lon="2.3226">
        <ele>133</ele>
        <time>2023-10-25T12:55:43Z</time>
      </trkpt>
      <trkpt lat="50.03412" lon="2.32262">
        <ele>133.1</ele>
        <time>2023-10-25T12:55:44Z</time>
      </trkpt>
      <trkpt lat="50.03412" lon="2.32263">
        <ele>133.1</ele>
        <time>2023-10-25T12:55:45Z</time>
      </trkpt>
      <trkpt lat="50.03412" lon="2.32264">
        <ele>133.1</ele>
        <time>2023-10-25T12:55:46Z</time>
      </trkpt>
      <trkpt lat="50.03412" lon="2.32265">
        <ele>133.1</ele>
        <time>2023-10-25T12:55:47Z</time>
      </trkpt>
      <trkpt lat="50.03412" lon="2.32267">
        <ele>133.1</ele>
        <time>2023-10-25T12:55:48Z</time>
      </trkpt>
      <trkpt lat="50.03412" lon="2.32268">
        <ele>133.1</ele>
        <time>2023-10-25T12:55:49Z</time>
      </trkpt>
      <trkpt lat="50.03413" lon="2.32269">
        <ele>133.1</ele>
        <time>2023-10-25T12:55:50Z</time>
      </trkpt>
      <trkpt lat="50.03413" lon="2.3227">
        <ele>133.1</ele>
        <time>2023-10-25T12:55:51Z</time>
      </trkpt>
      <trkpt lat="50.03413" lon="2.32272">
        <ele>133.1</ele>
        <time>2023-10-25T12:55:52Z</time>
      </trkpt>
      <trkpt lat="50.03413" lon="2.32273">
        <ele>133.1</ele>
        <time>2023-10-25T12:55:53Z</time>
      </trkpt>
      <trkpt lat="50.03413" lon="2.32275">
        <ele>133.1</ele>
        <time>2023-10-25T12:55:54Z</time>
      </trkpt>
      <trkpt lat="50.03413" lon="2.32276">
        <ele>133.1</ele>
        <time>2023-10-25T12:55:55Z</time>
      </trkpt>
      <trkpt lat="50.03413" lon="2.32277">
        <ele>133.1</ele>
        <time>2023-10-25T12:55:56Z</time>
      </trkpt>
      <trkpt lat="50.03413" lon="2.32279">
        <ele>133.1</ele>
        <time>2023-10-25T12:55:57Z</time>
      </trkpt>
      <trkpt lat="50.03413" lon="2.3228">
        <ele>133.1</ele>
        <time>2023-10-25T12:55:58Z</time>
      </trkpt>
      <trkpt lat="50.03413" lon="2.32282">
        <ele>133.1</ele>
        <time>2023-10-25T12:55:59Z</time>
      </trkpt>
      <trkpt lat="50.03413" lon="2.32283">
        <ele>133.1</ele>
        <time>2023-10-25T12:56:00Z</time>
      </trkpt>
      <trkpt lat="50.03412" lon="2.32285">
        <ele>133.1</ele>
        <time>2023-10-25T12:56:01Z</time>
      </trkpt>
      <trkpt lat="50.03412" lon="2.32287">
        <ele>133.1</ele>
        <time>2023-10-25T12:56:02Z</time>
      </trkpt>
      <trkpt lat="50.03412" lon="2.32289">
        <ele>133.1</ele>
        <time>2023-10-25T12:56:03Z</time>
      </trkpt>
      <trkpt lat="50.03412" lon="2.3229">
        <ele>133.1</ele>
        <time>2023-10-25T12:56:04Z</time>
      </trkpt>
      <trkpt lat="50.03412" lon="2.32292">
        <ele>133.1</ele>
        <time>2023-10-25T12:56:05Z</time>
      </trkpt>
      <trkpt lat="50.03412" lon="2.32294">
        <ele>133.2</ele>
        <time>2023-10-25T12:56:06Z</time>
      </trkpt>
      <trkpt lat="50.03412" lon="2.32295">
        <ele>133.2</ele>
        <time>2023-10-25T12:56:07Z</time>
      </trkpt>
      <trkpt lat="50.03411" lon="2.32298">
        <ele>133.2</ele>
        <time>2023-10-25T12:56:08Z</time>
      </trkpt>
      <trkpt lat="50.03411" lon="2.323">
        <ele>133.2</ele>
        <time>2023-10-25T12:56:09Z</time>
      </trkpt>
      <trkpt lat="50.03411" lon="2.32301">
        <ele>133.2</ele>
        <time>2023-10-25T12:56:10Z</time>
      </trkpt>
      <trkpt lat="50.03411" lon="2.32304">
        <ele>133.2</ele>
        <time>2023-10-25T12:56:11Z</time>
      </trkpt>
      <trkpt lat="50.03411" lon="2.32305">
        <ele>133.2</ele>
        <time>2023-10-25T12:56:12Z</time>
      </trkpt>
      <trkpt lat="50.03411" lon="2.32306">
        <ele>133.2</ele>
        <time>2023-10-25T12:56:13Z</time>
      </trkpt>
      <trkpt lat="50.03411" lon="2.32308">
        <ele>133.2</ele>
        <time>2023-10-25T12:56:14Z</time>
      </trkpt>
      <trkpt lat="50.0341" lon="2.3231">
        <ele>133.2</ele>
        <time>2023-10-25T12:56:15Z</time>
      </trkpt>
      <trkpt lat="50.0341" lon="2.32311">
        <ele>133.2</ele>
        <time>2023-10-25T12:56:16Z</time>
      </trkpt>
      <trkpt lat="50.0341" lon="2.32313">
        <ele>133.3</ele>
        <time>2023-10-25T12:56:17Z</time>
      </trkpt>
      <trkpt lat="50.03409" lon="2.32315">
        <ele>133.3</ele>
        <time>2023-10-25T12:56:18Z</time>
      </trkpt>
      <trkpt lat="50.03409" lon="2.32317">
        <ele>133.3</ele>
        <time>2023-10-25T12:56:19Z</time>
      </trkpt>
      <trkpt lat="50.03409" lon="2.32319">
        <ele>133.3</ele>
        <time>2023-10-25T12:56:20Z</time>
      </trkpt>
      <trkpt lat="50.03409" lon="2.3232">
        <ele>133.3</ele>
        <time>2023-10-25T12:56:21Z</time>
      </trkpt>
      <trkpt lat="50.03408" lon="2.32322">
        <ele>133.3</ele>
        <time>2023-10-25T12:56:22Z</time>
      </trkpt>
      <trkpt lat="50.03408" lon="2.32323">
        <ele>133.3</ele>
        <time>2023-10-25T12:56:23Z</time>
      </trkpt>
      <trkpt lat="50.03408" lon="2.32325">
        <ele>133.3</ele>
        <time>2023-10-25T12:56:24Z</time>
      </trkpt>
      <trkpt lat="50.03408" lon="2.32326">
        <ele>133.3</ele>
        <time>2023-10-25T12:56:25Z</time>
      </trkpt>
      <trkpt lat="50.03407" lon="2.32328">
        <ele>133.3</ele>
        <time>2023-10-25T12:56:26Z</time>
      </trkpt>
      <trkpt lat="50.03407" lon="2.32329">
        <ele>133.3</ele>
        <time>2023-10-25T12:56:27Z</time>
      </trkpt>
      <trkpt lat="50.03407" lon="2.32331">
        <ele>133.4</ele>
        <time>2023-10-25T12:56:28Z</time>
      </trkpt>
      <trkpt lat="50.03406" lon="2.32333">
        <ele>133.4</ele>
        <time>2023-10-25T12:56:29Z</time>
      </trkpt>
      <trkpt lat="50.03406" lon="2.32334">
        <ele>133.4</ele>
        <time>2023-10-25T12:56:30Z</time>
      </trkpt>
      <trkpt lat="50.03406" lon="2.32336">
        <ele>133.4</ele>
        <time>2023-10-25T12:56:31Z</time>
      </trkpt>
      <trkpt lat="50.03406" lon="2.32337">
        <ele>133.4</ele>
        <time>2023-10-25T12:56:32Z</time>
      </trkpt>
      <trkpt lat="50.03406" lon="2.32339">
        <ele>133.4</ele>
        <time>2023-10-25T12:56:33Z</time>
      </trkpt>
      <trkpt lat="50.03405" lon="2.32341">
        <ele>133.4</ele>
        <time>2023-10-25T12:56:34Z</time>
      </trkpt>
      <trkpt lat="50.03405" lon="2.32342">
        <ele>133.4</ele>
        <time>2023-10-25T12:56:35Z</time>
      </trkpt>
      <trkpt lat="50.03405" lon="2.32344">
        <ele>133.4</ele>
        <time>2023-10-25T12:56:36Z</time>
      </trkpt>
      <trkpt lat="50.03405" lon="2.32346">
        <ele>133.5</ele>
        <time>2023-10-25T12:56:37Z</time>
      </trkpt>
      <trkpt lat="50.03405" lon="2.32347">
        <ele>133.5</ele>
        <time>2023-10-25T12:56:38Z</time>
      </trkpt>
      <trkpt lat="50.03405" lon="2.32349">
        <ele>133.5</ele>
        <time>2023-10-25T12:56:39Z</time>
      </trkpt>
      <trkpt lat="50.03405" lon="2.3235">
        <ele>133.5</ele>
        <time>2023-10-25T12:56:40Z</time>
      </trkpt>
      <trkpt lat="50.03405" lon="2.32352">
        <ele>133.5</ele>
        <time>2023-10-25T12:56:41Z</time>
      </trkpt>
      <trkpt lat="50.03404" lon="2.32353">
        <ele>133.5</ele>
        <time>2023-10-25T12:56:42Z</time>
      </trkpt>
      <trkpt lat="50.03404" lon="2.32355">
        <ele>133.5</ele>
        <time>2023-10-25T12:56:43Z</time>
      </trkpt>
      <trkpt lat="50.03404" lon="2.32357">
        <ele>133.5</ele>
        <time>2023-10-25T12:56:44Z</time>
      </trkpt>
      <trkpt lat="50.03404" lon="2.32358">
        <ele>133.5</ele>
        <time>2023-10-25T12:56:45Z</time>
      </trkpt>
      <trkpt lat="50.03404" lon="2.3236">
        <ele>133.5</ele>
        <time>2023-10-25T12:56:46Z</time>
      </trkpt>
      <trkpt lat="50.03404" lon="2.32361">
        <ele>133.5</ele>
        <time>2023-10-25T12:56:47Z</time>
      </trkpt>
      <trkpt lat="50.03404" lon="2.32363">
        <ele>133.6</ele>
        <time>2023-10-25T12:56:48Z</time>
      </trkpt>
      <trkpt lat="50.03404" lon="2.32364">
        <ele>133.6</ele>
        <time>2023-10-25T12:56:49Z</time>
      </trkpt>
      <trkpt lat="50.03404" lon="2.32366">
        <ele>133.6</ele>
        <time>2023-10-25T12:56:50Z</time>
      </trkpt>
      <trkpt lat="50.03404" lon="2.32367">
        <ele>133.6</ele>
        <time>2023-10-25T12:56:51Z</time>
      </trkpt>
      <trkpt lat="50.03404" lon="2.32369">
        <ele>133.6</ele>
        <time>2023-10-25T12:56:52Z</time>
      </trkpt>
      <trkpt lat="50.03405" lon="2.3237">
        <ele>133.6</ele>
        <time>2023-10-25T12:56:53Z</time>
      </trkpt>
      <trkpt lat="50.03405" lon="2.32372">
        <ele>133.6</ele>
        <time>2023-10-25T12:56:54Z</time>
      </trkpt>
      <trkpt lat="50.03405" lon="2.32373">
        <ele>133.6</ele>
        <time>2023-10-25T12:56:55Z</time>
      </trkpt>
      <trkpt lat="50.03405" lon="2.32375">
        <ele>133.6</ele>
        <time>2023-10-25T12:56:56Z</time>
      </trkpt>
      <trkpt lat="50.03405" lon="2.32376">
        <ele>133.7</ele>
        <time>2023-10-25T12:56:57Z</time>
      </trkpt>
      <trkpt lat="50.03405" lon="2.32378">
        <ele>133.7</ele>
        <time>2023-10-25T12:56:58Z</time>
      </trkpt>
      <trkpt lat="50.03405" lon="2.32379">
        <ele>133.7</ele>
        <time>2023-10-25T12:56:59Z</time>
      </trkpt>
      <trkpt lat="50.03405" lon="2.32381">
        <ele>133.7</ele>
        <time>2023-10-25T12:57:00Z</time>
      </trkpt>
      <trkpt lat="50.03405" lon="2.32382">
        <ele>133.7</ele>
        <time>2023-10-25T12:57:01Z</time>
      </trkpt>
      <trkpt lat="50.03405" lon="2.32384">
        <ele>133.7</ele>
        <time>2023-10-25T12:57:02Z</time>
      </trkpt>
      <trkpt lat="50.03405" lon="2.32385">
        <ele>133.7</ele>
        <time>2023-10-25T12:57:03Z</time>
      </trkpt>
      <trkpt lat="50.03405" lon="2.32387">
        <ele>133.8</ele>
        <time>2023-10-25T12:57:04Z</time>
      </trkpt>
      <trkpt lat="50.03405" lon="2.32388">
        <ele>133.8</ele>
        <time>2023-10-25T12:57:05Z</time>
      </trkpt>
      <trkpt lat="50.03405" lon="2.3239">
        <ele>133.8</ele>
        <time>2023-10-25T12:57:06Z</time>
      </trkpt>
      <trkpt lat="50.03405" lon="2.32392">
        <ele>133.8</ele>
        <time>2023-10-25T12:57:07Z</time>
      </trkpt>
      <trkpt lat="50.03405" lon="2.32393">
        <ele>133.8</ele>
        <time>2023-10-25T12:57:08Z</time>
      </trkpt>
      <trkpt lat="50.03405" lon="2.32395">
        <ele>133.8</ele>
        <time>2023-10-25T12:57:09Z</time>
      </trkpt>
      <trkpt lat="50.03405" lon="2.32397">
        <ele>133.9</ele>
        <time>2023-10-25T12:57:10Z</time>
      </trkpt>
      <trkpt lat="50.03405" lon="2.32398">
        <ele>133.9</ele>
        <time>2023-10-25T12:57:11Z</time>
      </trkpt>
      <trkpt lat="50.03405" lon="2.324">
        <ele>133.9</ele>
        <time>2023-10-25T12:57:12Z</time>
      </trkpt>
      <trkpt lat="50.03405" lon="2.32401">
        <ele>133.9</ele>
        <time>2023-10-25T12:57:13Z</time>
      </trkpt>
      <trkpt lat="50.03405" lon="2.32403">
        <ele>133.9</ele>
        <time>2023-10-25T12:57:14Z</time>
      </trkpt>
      <trkpt lat="50.03404" lon="2.32405">
        <ele>133.9</ele>
        <time>2023-10-25T12:57:15Z</time>
      </trkpt>
      <trkpt lat="50.03404" lon="2.32406">
        <ele>134</ele>
        <time>2023-10-25T12:57:16Z</time>
      </trkpt>
      <trkpt lat="50.03404" lon="2.32408">
        <ele>134</ele>
        <time>2023-10-25T12:57:17Z</time>
      </trkpt>
      <trkpt lat="50.03404" lon="2.3241">
        <ele>134</ele>
        <time>2023-10-25T12:57:18Z</time>
      </trkpt>
      <trkpt lat="50.03404" lon="2.32412">
        <ele>134</ele>
        <time>2023-10-25T12:57:19Z</time>
      </trkpt>
      <trkpt lat="50.03404" lon="2.32413">
        <ele>134</ele>
        <time>2023-10-25T12:57:20Z</time>
      </trkpt>
      <trkpt lat="50.03404" lon="2.32415">
        <ele>134.1</ele>
        <time>2023-10-25T12:57:21Z</time>
      </trkpt>
      <trkpt lat="50.03404" lon="2.32416">
        <ele>134.1</ele>
        <time>2023-10-25T12:57:22Z</time>
      </trkpt>
      <trkpt lat="50.03404" lon="2.32418">
        <ele>134.1</ele>
        <time>2023-10-25T12:57:23Z</time>
      </trkpt>
      <trkpt lat="50.03404" lon="2.3242">
        <ele>134.1</ele>
        <time>2023-10-25T12:57:24Z</time>
      </trkpt>
      <trkpt lat="50.03403" lon="2.32422">
        <ele>134.1</ele>
        <time>2023-10-25T12:57:25Z</time>
      </trkpt>
      <trkpt lat="50.03403" lon="2.32424">
        <ele>134.2</ele>
        <time>2023-10-25T12:57:26Z</time>
      </trkpt>
      <trkpt lat="50.03403" lon="2.32425">
        <ele>134.2</ele>
        <time>2023-10-25T12:57:27Z</time>
      </trkpt>
      <trkpt lat="50.03403" lon="2.32427">
        <ele>134.2</ele>
        <time>2023-10-25T12:57:28Z</time>
      </trkpt>
      <trkpt lat="50.03403" lon="2.32428">
        <ele>134.2</ele>
        <time>2023-10-25T12:57:29Z</time>
      </trkpt>
      <trkpt lat="50.03403" lon="2.3243">
        <ele>134.2</ele>
        <time>2023-10-25T12:57:30Z</time>
      </trkpt>
      <trkpt lat="50.03403" lon="2.32432">
        <ele>134.2</ele>
        <time>2023-10-25T12:57:31Z</time>
      </trkpt>
      <trkpt lat="50.03403" lon="2.32433">
        <ele>134.3</ele>
        <time>2023-10-25T12:57:32Z</time>
      </trkpt>
      <trkpt lat="50.03403" lon="2.32435">
        <ele>134.3</ele>
        <time>2023-10-25T12:57:33Z</time>
      </trkpt>
      <trkpt lat="50.03403" lon="2.32437">
        <ele>134.3</ele>
        <time>2023-10-25T12:57:34Z</time>
      </trkpt>
      <trkpt lat="50.03403" lon="2.32439">
        <ele>134.3</ele>
        <time>2023-10-25T12:57:35Z</time>
      </trkpt>
      <trkpt lat="50.03403" lon="2.3244">
        <ele>134.3</ele>
        <time>2023-10-25T12:57:36Z</time>
      </trkpt>
      <trkpt lat="50.03403" lon="2.32442">
        <ele>134.4</ele>
        <time>2023-10-25T12:57:37Z</time>
      </trkpt>
      <trkpt lat="50.03403" lon="2.32444">
        <ele>134.4</ele>
        <time>2023-10-25T12:57:38Z</time>
      </trkpt>
      <trkpt lat="50.03403" lon="2.32445">
        <ele>134.4</ele>
        <time>2023-10-25T12:57:39Z</time>
      </trkpt>
      <trkpt lat="50.03403" lon="2.32447">
        <ele>134.4</ele>
        <time>2023-10-25T12:57:40Z</time>
      </trkpt>
      <trkpt lat="50.03403" lon="2.32449">
        <ele>134.4</ele>
        <time>2023-10-25T12:57:41Z</time>
      </trkpt>
      <trkpt lat="50.03403" lon="2.32451">
        <ele>134.4</ele>
        <time>2023-10-25T12:57:42Z</time>
      </trkpt>
      <trkpt lat="50.03403" lon="2.32452">
        <ele>134.5</ele>
        <time>2023-10-25T12:57:43Z</time>
      </trkpt>
      <trkpt lat="50.03403" lon="2.32454">
        <ele>134.5</ele>
        <time>2023-10-25T12:57:44Z</time>
      </trkpt>
      <trkpt lat="50.03402" lon="2.32455">
        <ele>134.5</ele>
        <time>2023-10-25T12:57:45Z</time>
      </trkpt>
      <trkpt lat="50.03402" lon="2.32457">
        <ele>134.5</ele>
        <time>2023-10-25T12:57:46Z</time>
      </trkpt>
      <trkpt lat="50.03402" lon="2.32458">
        <ele>134.5</ele>
        <time>2023-10-25T12:57:47Z</time>
      </trkpt>
      <trkpt lat="50.03402" lon="2.3246">
        <ele>134.5</ele>
        <time>2023-10-25T12:57:48Z</time>
      </trkpt>
      <trkpt lat="50.03402" lon="2.32462">
        <ele>134.5</ele>
        <time>2023-10-25T12:57:49Z</time>
      </trkpt>
      <trkpt lat="50.03402" lon="2.32463">
        <ele>134.5</ele>
        <time>2023-10-25T12:57:50Z</time>
      </trkpt>
      <trkpt lat="50.03402" lon="2.32465">
        <ele>134.6</ele>
        <time>2023-10-25T12:57:51Z</time>
      </trkpt>
      <trkpt lat="50.03401" lon="2.32466">
        <ele>134.6</ele>
        <time>2023-10-25T12:57:52Z</time>
      </trkpt>
      <trkpt lat="50.03401" lon="2.32468">
        <ele>134.6</ele>
        <time>2023-10-25T12:57:53Z</time>
      </trkpt>
      <trkpt lat="50.03401" lon="2.32469">
        <ele>134.6</ele>
        <time>2023-10-25T12:57:54Z</time>
      </trkpt>
      <trkpt lat="50.03401" lon="2.32471">
        <ele>134.6</ele>
        <time>2023-10-25T12:57:55Z</time>
      </trkpt>
      <trkpt lat="50.03401" lon="2.32472">
        <ele>134.6</ele>
        <time>2023-10-25T12:57:56Z</time>
      </trkpt>
      <trkpt lat="50.03401" lon="2.32474">
        <ele>134.6</ele>
        <time>2023-10-25T12:57:57Z</time>
      </trkpt>
      <trkpt lat="50.03401" lon="2.32476">
        <ele>134.7</ele>
        <time>2023-10-25T12:57:58Z</time>
      </trkpt>
      <trkpt lat="50.03401" lon="2.32477">
        <ele>134.7</ele>
        <time>2023-10-25T12:57:59Z</time>
      </trkpt>
      <trkpt lat="50.03401" lon="2.32479">
        <ele>134.7</ele>
        <time>2023-10-25T12:58:00Z</time>
      </trkpt>
      <trkpt lat="50.03401" lon="2.32481">
        <ele>134.7</ele>
        <time>2023-10-25T12:58:01Z</time>
      </trkpt>
      <trkpt lat="50.03401" lon="2.32482">
        <ele>134.7</ele>
        <time>2023-10-25T12:58:02Z</time>
      </trkpt>
      <trkpt lat="50.03401" lon="2.32484">
        <ele>134.7</ele>
        <time>2023-10-25T12:58:03Z</time>
      </trkpt>
      <trkpt lat="50.03401" lon="2.32486">
        <ele>134.7</ele>
        <time>2023-10-25T12:58:04Z</time>
      </trkpt>
      <trkpt lat="50.03401" lon="2.32489">
        <ele>134.8</ele>
        <time>2023-10-25T12:58:05Z</time>
      </trkpt>
      <trkpt lat="50.03401" lon="2.3249">
        <ele>134.8</ele>
        <time>2023-10-25T12:58:06Z</time>
      </trkpt>
      <trkpt lat="50.03401" lon="2.32491">
        <ele>134.8</ele>
        <time>2023-10-25T12:58:07Z</time>
      </trkpt>
      <trkpt lat="50.03401" lon="2.32493">
        <ele>134.8</ele>
        <time>2023-10-25T12:58:08Z</time>
      </trkpt>
      <trkpt lat="50.03401" lon="2.32495">
        <ele>134.8</ele>
        <time>2023-10-25T12:58:09Z</time>
      </trkpt>
      <trkpt lat="50.03401" lon="2.32496">
        <ele>134.8</ele>
        <time>2023-10-25T12:58:10Z</time>
      </trkpt>
      <trkpt lat="50.03401" lon="2.32498">
        <ele>134.8</ele>
        <time>2023-10-25T12:58:11Z</time>
      </trkpt>
      <trkpt lat="50.03402" lon="2.325">
        <ele>134.8</ele>
        <time>2023-10-25T12:58:12Z</time>
      </trkpt>
      <trkpt lat="50.03402" lon="2.32501">
        <ele>134.8</ele>
        <time>2023-10-25T12:58:13Z</time>
      </trkpt>
      <trkpt lat="50.03402" lon="2.32503">
        <ele>134.8</ele>
        <time>2023-10-25T12:58:14Z</time>
      </trkpt>
      <trkpt lat="50.03402" lon="2.32505">
        <ele>134.9</ele>
        <time>2023-10-25T12:58:15Z</time>
      </trkpt>
      <trkpt lat="50.03402" lon="2.32507">
        <ele>134.9</ele>
        <time>2023-10-25T12:58:16Z</time>
      </trkpt>
      <trkpt lat="50.03402" lon="2.32509">
        <ele>134.9</ele>
        <time>2023-10-25T12:58:17Z</time>
      </trkpt>
      <trkpt lat="50.03402" lon="2.3251">
        <ele>134.9</ele>
        <time>2023-10-25T12:58:18Z</time>
      </trkpt>
      <trkpt lat="50.03402" lon="2.32512">
        <ele>134.9</ele>
        <time>2023-10-25T12:58:19Z</time>
      </trkpt>
      <trkpt lat="50.03402" lon="2.32514">
        <ele>134.9</ele>
        <time>2023-10-25T12:58:20Z</time>
      </trkpt>
      <trkpt lat="50.03402" lon="2.32515">
        <ele>134.9</ele>
        <time>2023-10-25T12:58:21Z</time>
      </trkpt>
      <trkpt lat="50.03402" lon="2.32516">
        <ele>134.9</ele>
        <time>2023-10-25T12:58:22Z</time>
      </trkpt>
      <trkpt lat="50.03402" lon="2.32518">
        <ele>134.9</ele>
        <time>2023-10-25T12:58:23Z</time>
      </trkpt>
      <trkpt lat="50.03401" lon="2.32519">
        <ele>134.9</ele>
        <time>2023-10-25T12:58:24Z</time>
      </trkpt>
      <trkpt lat="50.03401" lon="2.3252">
        <ele>134.9</ele>
        <time>2023-10-25T12:58:25Z</time>
      </trkpt>
      <trkpt lat="50.03401" lon="2.32522">
        <ele>134.9</ele>
        <time>2023-10-25T12:58:26Z</time>
      </trkpt>
      <trkpt lat="50.03401" lon="2.32523">
        <ele>134.9</ele>
        <time>2023-10-25T12:58:27Z</time>
      </trkpt>
      <trkpt lat="50.03401" lon="2.32525">
        <ele>135</ele>
        <time>2023-10-25T12:58:28Z</time>
      </trkpt>
      <trkpt lat="50.03401" lon="2.32526">
        <ele>135</ele>
        <time>2023-10-25T12:58:29Z</time>
      </trkpt>
      <trkpt lat="50.03401" lon="2.32527">
        <ele>135</ele>
        <time>2023-10-25T12:58:30Z</time>
      </trkpt>
      <trkpt lat="50.03401" lon="2.32528">
        <ele>135</ele>
        <time>2023-10-25T12:58:31Z</time>
      </trkpt>
      <trkpt lat="50.03401" lon="2.32529">
        <ele>135</ele>
        <time>2023-10-25T12:58:32Z</time>
      </trkpt>
      <trkpt lat="50.03401" lon="2.32531">
        <ele>135</ele>
        <time>2023-10-25T12:58:33Z</time>
      </trkpt>
      <trkpt lat="50.03401" lon="2.32532">
        <ele>135</ele>
        <time>2023-10-25T12:58:34Z</time>
      </trkpt>
      <trkpt lat="50.03401" lon="2.32533">
        <ele>135</ele>
        <time>2023-10-25T12:58:35Z</time>
      </trkpt>
      <trkpt lat="50.03401" lon="2.32534">
        <ele>135</ele>
        <time>2023-10-25T12:58:36Z</time>
      </trkpt>
      <trkpt lat="50.03401" lon="2.32536">
        <ele>135</ele>
        <time>2023-10-25T12:58:37Z</time>
      </trkpt>
      <trkpt lat="50.03401" lon="2.32537">
        <ele>135</ele>
        <time>2023-10-25T12:58:38Z</time>
      </trkpt>
      <trkpt lat="50.03401" lon="2.32539">
        <ele>135</ele>
        <time>2023-10-25T12:58:39Z</time>
      </trkpt>
      <trkpt lat="50.03401" lon="2.3254">
        <ele>135</ele>
        <time>2023-10-25T12:58:40Z</time>
      </trkpt>
      <trkpt lat="50.03401" lon="2.32542">
        <ele>135</ele>
        <time>2023-10-25T12:58:41Z</time>
      </trkpt>
      <trkpt lat="50.03401" lon="2.32544">
        <ele>135</ele>
        <time>2023-10-25T12:58:42Z</time>
      </trkpt>
      <trkpt lat="50.034" lon="2.32546">
        <ele>135</ele>
        <time>2023-10-25T12:58:43Z</time>
      </trkpt>
      <trkpt lat="50.034" lon="2.32547">
        <ele>135</ele>
        <time>2023-10-25T12:58:44Z</time>
      </trkpt>
      <trkpt lat="50.034" lon="2.32549">
        <ele>135</ele>
        <time>2023-10-25T12:58:45Z</time>
      </trkpt>
      <trkpt lat="50.034" lon="2.3255">
        <ele>135</ele>
        <time>2023-10-25T12:58:46Z</time>
      </trkpt>
      <trkpt lat="50.034" lon="2.32552">
        <ele>135</ele>
        <time>2023-10-25T12:58:47Z</time>
      </trkpt>
      <trkpt lat="50.03401" lon="2.32553">
        <ele>135</ele>
        <time>2023-10-25T12:58:48Z</time>
      </trkpt>
      <trkpt lat="50.03401" lon="2.32555">
        <ele>135</ele>
        <time>2023-10-25T12:58:49Z</time>
      </trkpt>
      <trkpt lat="50.03401" lon="2.32557">
        <ele>135</ele>
        <time>2023-10-25T12:58:50Z</time>
      </trkpt>
      <trkpt lat="50.03401" lon="2.32559">
        <ele>135</ele>
        <time>2023-10-25T12:58:51Z</time>
      </trkpt>
      <trkpt lat="50.03401" lon="2.3256">
        <ele>135</ele>
        <time>2023-10-25T12:58:52Z</time>
      </trkpt>
      <trkpt lat="50.03401" lon="2.32562">
        <ele>135</ele>
        <time>2023-10-25T12:58:53Z</time>
      </trkpt>
      <trkpt lat="50.03401" lon="2.32564">
        <ele>135.1</ele>
        <time>2023-10-25T12:58:54Z</time>
      </trkpt>
      <trkpt lat="50.03401" lon="2.32566">
        <ele>135.1</ele>
        <time>2023-10-25T12:58:55Z</time>
      </trkpt>
      <trkpt lat="50.03401" lon="2.32567">
        <ele>135.1</ele>
        <time>2023-10-25T12:58:56Z</time>
      </trkpt>
      <trkpt lat="50.03401" lon="2.32569">
        <ele>135.1</ele>
        <time>2023-10-25T12:58:57Z</time>
      </trkpt>
      <trkpt lat="50.03401" lon="2.32571">
        <ele>135.1</ele>
        <time>2023-10-25T12:58:58Z</time>
      </trkpt>
      <trkpt lat="50.03401" lon="2.32572">
        <ele>135.1</ele>
        <time>2023-10-25T12:58:59Z</time>
      </trkpt>
      <trkpt lat="50.03401" lon="2.32574">
        <ele>135.1</ele>
        <time>2023-10-25T12:59:00Z</time>
      </trkpt>
      <trkpt lat="50.03401" lon="2.32576">
        <ele>135.1</ele>
        <time>2023-10-25T12:59:01Z</time>
      </trkpt>
      <trkpt lat="50.03401" lon="2.32578">
        <ele>135.1</ele>
        <time>2023-10-25T12:59:02Z</time>
      </trkpt>
      <trkpt lat="50.03401" lon="2.32579">
        <ele>135.1</ele>
        <time>2023-10-25T12:59:03Z</time>
      </trkpt>
      <trkpt lat="50.03401" lon="2.32581">
        <ele>135.1</ele>
        <time>2023-10-25T12:59:04Z</time>
      </trkpt>
      <trkpt lat="50.03401" lon="2.32582">
        <ele>135.1</ele>
        <time>2023-10-25T12:59:05Z</time>
      </trkpt>
      <trkpt lat="50.03401" lon="2.32584">
        <ele>135.1</ele>
        <time>2023-10-25T12:59:06Z</time>
      </trkpt>
      <trkpt lat="50.03401" lon="2.32586">
        <ele>135.1</ele>
        <time>2023-10-25T12:59:07Z</time>
      </trkpt>
      <trkpt lat="50.03402" lon="2.32587">
        <ele>135.1</ele>
        <time>2023-10-25T12:59:08Z</time>
      </trkpt>
      <trkpt lat="50.03402" lon="2.32589">
        <ele>135.1</ele>
        <time>2023-10-25T12:59:09Z</time>
      </trkpt>
      <trkpt lat="50.03402" lon="2.32591">
        <ele>135.1</ele>
        <time>2023-10-25T12:59:10Z</time>
      </trkpt>
      <trkpt lat="50.03402" lon="2.32593">
        <ele>135.1</ele>
        <time>2023-10-25T12:59:11Z</time>
      </trkpt>
      <trkpt lat="50.03402" lon="2.32594">
        <ele>135.1</ele>
        <time>2023-10-25T12:59:12Z</time>
      </trkpt>
      <trkpt lat="50.03402" lon="2.32596">
        <ele>135.1</ele>
        <time>2023-10-25T12:59:13Z</time>
      </trkpt>
      <trkpt lat="50.03402" lon="2.32597">
        <ele>135.1</ele>
        <time>2023-10-25T12:59:14Z</time>
      </trkpt>
      <trkpt lat="50.03402" lon="2.32599">
        <ele>135.1</ele>
        <time>2023-10-25T12:59:15Z</time>
      </trkpt>
      <trkpt lat="50.03402" lon="2.32601">
        <ele>135.1</ele>
        <time>2023-10-25T12:59:16Z</time>
      </trkpt>
      <trkpt lat="50.03402" lon="2.32602">
        <ele>135.1</ele>
        <time>2023-10-25T12:59:17Z</time>
      </trkpt>
      <trkpt lat="50.03402" lon="2.32604">
        <ele>135.1</ele>
        <time>2023-10-25T12:59:18Z</time>
      </trkpt>
      <trkpt lat="50.03402" lon="2.32606">
        <ele>135.1</ele>
        <time>2023-10-25T12:59:19Z</time>
      </trkpt>
      <trkpt lat="50.03402" lon="2.32608">
        <ele>135.1</ele>
        <time>2023-10-25T12:59:20Z</time>
      </trkpt>
      <trkpt lat="50.03402" lon="2.32609">
        <ele>135.1</ele>
        <time>2023-10-25T12:59:21Z</time>
      </trkpt>
      <trkpt lat="50.03402" lon="2.32611">
        <ele>135.1</ele>
        <time>2023-10-25T12:59:22Z</time>
      </trkpt>
      <trkpt lat="50.03402" lon="2.32612">
        <ele>135.1</ele>
        <time>2023-10-25T12:59:23Z</time>
      </trkpt>
      <trkpt lat="50.03402" lon="2.32614">
        <ele>135.1</ele>
        <time>2023-10-25T12:59:24Z</time>
      </trkpt>
      <trkpt lat="50.03402" lon="2.32615">
        <ele>135.1</ele>
        <time>2023-10-25T12:59:25Z</time>
      </trkpt>
      <trkpt lat="50.03402" lon="2.32617">
        <ele>135.1</ele>
        <time>2023-10-25T12:59:26Z</time>
      </trkpt>
      <trkpt lat="50.03402" lon="2.32619">
        <ele>135.1</ele>
        <time>2023-10-25T12:59:27Z</time>
      </trkpt>
      <trkpt lat="50.03402" lon="2.3262">
        <ele>135.1</ele>
        <time>2023-10-25T12:59:28Z</time>
      </trkpt>
      <trkpt lat="50.03402" lon="2.32622">
        <ele>135.1</ele>
        <time>2023-10-25T12:59:29Z</time>
      </trkpt>
      <trkpt lat="50.03402" lon="2.32624">
        <ele>135.1</ele>
        <time>2023-10-25T12:59:30Z</time>
      </trkpt>
      <trkpt lat="50.03402" lon="2.32626">
        <ele>135.1</ele>
        <time>2023-10-25T12:59:31Z</time>
      </trkpt>
      <trkpt lat="50.03402" lon="2.32627">
        <ele>135.1</ele>
        <time>2023-10-25T12:59:32Z</time>
      </trkpt>
      <trkpt lat="50.03402" lon="2.32629">
        <ele>135.1</ele>
        <time>2023-10-25T12:59:33Z</time>
      </trkpt>
      <trkpt lat="50.03402" lon="2.3263">
        <ele>135.1</ele>
        <time>2023-10-25T12:59:34Z</time>
      </trkpt>
      <trkpt lat="50.03402" lon="2.32632">
        <ele>135.1</ele>
        <time>2023-10-25T12:59:35Z</time>
      </trkpt>
      <trkpt lat="50.03402" lon="2.32634">
        <ele>135.1</ele>
        <time>2023-10-25T12:59:36Z</time>
      </trkpt>
      <trkpt lat="50.03402" lon="2.32635">
        <ele>135.1</ele>
        <time>2023-10-25T12:59:37Z</time>
      </trkpt>
      <trkpt lat="50.03401" lon="2.32637">
        <ele>135.1</ele>
        <time>2023-10-25T12:59:38Z</time>
      </trkpt>
      <trkpt lat="50.03401" lon="2.32639">
        <ele>135.1</ele>
        <time>2023-10-25T12:59:39Z</time>
      </trkpt>
      <trkpt lat="50.03401" lon="2.32641">
        <ele>135.1</ele>
        <time>2023-10-25T12:59:40Z</time>
      </trkpt>
      <trkpt lat="50.03401" lon="2.32642">
        <ele>135.1</ele>
        <time>2023-10-25T12:59:41Z</time>
      </trkpt>
      <trkpt lat="50.034" lon="2.32644">
        <ele>135.1</ele>
        <time>2023-10-25T12:59:42Z</time>
      </trkpt>
      <trkpt lat="50.034" lon="2.32645">
        <ele>135.2</ele>
        <time>2023-10-25T12:59:43Z</time>
      </trkpt>
      <trkpt lat="50.034" lon="2.32647">
        <ele>135.2</ele>
        <time>2023-10-25T12:59:44Z</time>
      </trkpt>
      <trkpt lat="50.034" lon="2.32648">
        <ele>135.2</ele>
        <time>2023-10-25T12:59:45Z</time>
      </trkpt>
      <trkpt lat="50.034" lon="2.32649">
        <ele>135.2</ele>
        <time>2023-10-25T12:59:46Z</time>
      </trkpt>
      <trkpt lat="50.034" lon="2.32651">
        <ele>135.2</ele>
        <time>2023-10-25T12:59:47Z</time>
      </trkpt>
      <trkpt lat="50.034" lon="2.32652">
        <ele>135.2</ele>
        <time>2023-10-25T12:59:48Z</time>
      </trkpt>
      <trkpt lat="50.03399" lon="2.32653">
        <ele>135.2</ele>
        <time>2023-10-25T12:59:49Z</time>
      </trkpt>
      <trkpt lat="50.03399" lon="2.32654">
        <ele>135.2</ele>
        <time>2023-10-25T12:59:50Z</time>
      </trkpt>
      <trkpt lat="50.03399" lon="2.32655">
        <ele>135.2</ele>
        <time>2023-10-25T12:59:51Z</time>
      </trkpt>
      <trkpt lat="50.03399" lon="2.32655">
        <ele>135.2</ele>
        <time>2023-10-25T12:59:52Z</time>
      </trkpt>
      <trkpt lat="50.03399" lon="2.32656">
        <ele>135.2</ele>
        <time>2023-10-25T12:59:53Z</time>
      </trkpt>
      <trkpt lat="50.03399" lon="2.32657">
        <ele>135.2</ele>
        <time>2023-10-25T12:59:54Z</time>
      </trkpt>
      <trkpt lat="50.03399" lon="2.32659">
        <ele>135.2</ele>
        <time>2023-10-25T12:59:55Z</time>
      </trkpt>
      <trkpt lat="50.03399" lon="2.3266">
        <ele>135.2</ele>
        <time>2023-10-25T12:59:56Z</time>
      </trkpt>
      <trkpt lat="50.03399" lon="2.32661">
        <ele>135.2</ele>
        <time>2023-10-25T12:59:57Z</time>
      </trkpt>
      <trkpt lat="50.03399" lon="2.32663">
        <ele>135.2</ele>
        <time>2023-10-25T12:59:58Z</time>
      </trkpt>
      <trkpt lat="50.03399" lon="2.32664">
        <ele>135.2</ele>
        <time>2023-10-25T12:59:59Z</time>
      </trkpt>
      <trkpt lat="50.03399" lon="2.32666">
        <ele>135.2</ele>
        <time>2023-10-25T13:00:00Z</time>
      </trkpt>
      <trkpt lat="50.03399" lon="2.32667">
        <ele>135.2</ele>
        <time>2023-10-25T13:00:01Z</time>
      </trkpt>
      <trkpt lat="50.03399" lon="2.32669">
        <ele>135.2</ele>
        <time>2023-10-25T13:00:02Z</time>
      </trkpt>
      <trkpt lat="50.03399" lon="2.3267">
        <ele>135.2</ele>
        <time>2023-10-25T13:00:03Z</time>
      </trkpt>
      <trkpt lat="50.03399" lon="2.32672">
        <ele>135.2</ele>
        <time>2023-10-25T13:00:04Z</time>
      </trkpt>
      <trkpt lat="50.03399" lon="2.32674">
        <ele>135.2</ele>
        <time>2023-10-25T13:00:05Z</time>
      </trkpt>
      <trkpt lat="50.03399" lon="2.32676">
        <ele>135.2</ele>
        <time>2023-10-25T13:00:06Z</time>
      </trkpt>
      <trkpt lat="50.03399" lon="2.32678">
        <ele>135.2</ele>
        <time>2023-10-25T13:00:07Z</time>
      </trkpt>
      <trkpt lat="50.03399" lon="2.32679">
        <ele>135.2</ele>
        <time>2023-10-25T13:00:08Z</time>
      </trkpt>
      <trkpt lat="50.03399" lon="2.32681">
        <ele>135.2</ele>
        <time>2023-10-25T13:00:09Z</time>
      </trkpt>
      <trkpt lat="50.03399" lon="2.32682">
        <ele>135.2</ele>
        <time>2023-10-25T13:00:10Z</time>
      </trkpt>
      <trkpt lat="50.03399" lon="2.32684">
        <ele>135.2</ele>
        <time>2023-10-25T13:00:11Z</time>
      </trkpt>
      <trkpt lat="50.03399" lon="2.32686">
        <ele>135.2</ele>
        <time>2023-10-25T13:00:12Z</time>
      </trkpt>
      <trkpt lat="50.03399" lon="2.32687">
        <ele>135.2</ele>
        <time>2023-10-25T13:00:13Z</time>
      </trkpt>
      <trkpt lat="50.03399" lon="2.32689">
        <ele>135.2</ele>
        <time>2023-10-25T13:00:14Z</time>
      </trkpt>
      <trkpt lat="50.03399" lon="2.32691">
        <ele>135.2</ele>
        <time>2023-10-25T13:00:15Z</time>
      </trkpt>
      <trkpt lat="50.03399" lon="2.32692">
        <ele>135.2</ele>
        <time>2023-10-25T13:00:16Z</time>
      </trkpt>
      <trkpt lat="50.03399" lon="2.32694">
        <ele>135.2</ele>
        <time>2023-10-25T13:00:17Z</time>
      </trkpt>
      <trkpt lat="50.034" lon="2.32695">
        <ele>135.2</ele>
        <time>2023-10-25T13:00:18Z</time>
      </trkpt>
      <trkpt lat="50.034" lon="2.32697">
        <ele>135.2</ele>
        <time>2023-10-25T13:00:19Z</time>
      </trkpt>
      <trkpt lat="50.034" lon="2.32699">
        <ele>135.2</ele>
        <time>2023-10-25T13:00:20Z</time>
      </trkpt>
      <trkpt lat="50.034" lon="2.327">
        <ele>135.2</ele>
        <time>2023-10-25T13:00:21Z</time>
      </trkpt>
      <trkpt lat="50.034" lon="2.32702">
        <ele>135.3</ele>
        <time>2023-10-25T13:00:22Z</time>
      </trkpt>
      <trkpt lat="50.034" lon="2.32703">
        <ele>135.3</ele>
        <time>2023-10-25T13:00:23Z</time>
      </trkpt>
      <trkpt lat="50.034" lon="2.32704">
        <ele>135.3</ele>
        <time>2023-10-25T13:00:24Z</time>
      </trkpt>
      <trkpt lat="50.034" lon="2.32706">
        <ele>135.3</ele>
        <time>2023-10-25T13:00:25Z</time>
      </trkpt>
      <trkpt lat="50.034" lon="2.32707">
        <ele>135.3</ele>
        <time>2023-10-25T13:00:26Z</time>
      </trkpt>
      <trkpt lat="50.034" lon="2.32709">
        <ele>135.3</ele>
        <time>2023-10-25T13:00:27Z</time>
      </trkpt>
      <trkpt lat="50.034" lon="2.3271">
        <ele>135.3</ele>
        <time>2023-10-25T13:00:28Z</time>
      </trkpt>
      <trkpt lat="50.03401" lon="2.3271">
        <ele>135.3</ele>
        <time>2023-10-25T13:00:29Z</time>
      </trkpt>
      <trkpt lat="50.03401" lon="2.32711">
        <ele>135.3</ele>
        <time>2023-10-25T13:00:30Z</time>
      </trkpt>
      <trkpt lat="50.03401" lon="2.32711">
        <ele>135.3</ele>
        <time>2023-10-25T13:00:31Z</time>
      </trkpt>
      <trkpt lat="50.03401" lon="2.32711">
        <ele>135.3</ele>
        <time>2023-10-25T13:00:32Z</time>
      </trkpt>
      <trkpt lat="50.03401" lon="2.32711">
        <ele>135.3</ele>
        <time>2023-10-25T13:00:33Z</time>
      </trkpt>
      <trkpt lat="50.03401" lon="2.32711">
        <ele>135.3</ele>
        <time>2023-10-25T13:00:34Z</time>
      </trkpt>
      <trkpt lat="50.03401" lon="2.3271">
        <ele>135.3</ele>
        <time>2023-10-25T13:00:35Z</time>
      </trkpt>
      <trkpt lat="50.03401" lon="2.3271">
        <ele>135.3</ele>
        <time>2023-10-25T13:00:36Z</time>
      </trkpt>
      <trkpt lat="50.03401" lon="2.3271">
        <ele>135.3</ele>
        <time>2023-10-25T13:00:37Z</time>
      </trkpt>
      <trkpt lat="50.03401" lon="2.3271">
        <ele>135.3</ele>
        <time>2023-10-25T13:00:38Z</time>
      </trkpt>
      <trkpt lat="50.03401" lon="2.3271">
        <ele>135.3</ele>
        <time>2023-10-25T13:00:39Z</time>
      </trkpt>
      <trkpt lat="50.03401" lon="2.3271">
        <ele>135.3</ele>
        <time>2023-10-25T13:00:40Z</time>
      </trkpt>
      <trkpt lat="50.03401" lon="2.3271">
        <ele>135.3</ele>
        <time>2023-10-25T13:00:41Z</time>
      </trkpt>
      <trkpt lat="50.03401" lon="2.3271">
        <ele>135.3</ele>
        <time>2023-10-25T13:00:42Z</time>
      </trkpt>
      <trkpt lat="50.03406" lon="2.32715">
        <ele>135.4</ele>
        <time>2023-10-25T13:01:05Z</time>
      </trkpt>
      <trkpt lat="50.03406" lon="2.32716">
        <ele>135.4</ele>
        <time>2023-10-25T13:01:06Z</time>
      </trkpt>
      <trkpt lat="50.03407" lon="2.32717">
        <ele>135.4</ele>
        <time>2023-10-25T13:01:07Z</time>
      </trkpt>
      <trkpt lat="50.03408" lon="2.32718">
        <ele>135.4</ele>
        <time>2023-10-25T13:01:08Z</time>
      </trkpt>
      <trkpt lat="50.03408" lon="2.32719">
        <ele>135.4</ele>
        <time>2023-10-25T13:01:09Z</time>
      </trkpt>
      <trkpt lat="50.03409" lon="2.3272">
        <ele>135.4</ele>
        <time>2023-10-25T13:01:10Z</time>
      </trkpt>
      <trkpt lat="50.0341" lon="2.3272">
        <ele>135.5</ele>
        <time>2023-10-25T13:01:11Z</time>
      </trkpt>
      <trkpt lat="50.03411" lon="2.32721">
        <ele>135.5</ele>
        <time>2023-10-25T13:01:12Z</time>
      </trkpt>
      <trkpt lat="50.03412" lon="2.32721">
        <ele>135.5</ele>
        <time>2023-10-25T13:01:13Z</time>
      </trkpt>
      <trkpt lat="50.03413" lon="2.32722">
        <ele>135.5</ele>
        <time>2023-10-25T13:01:14Z</time>
      </trkpt>
      <trkpt lat="50.03414" lon="2.32722">
        <ele>135.5</ele>
        <time>2023-10-25T13:01:15Z</time>
      </trkpt>
      <trkpt lat="50.03414" lon="2.32723">
        <ele>135.5</ele>
        <time>2023-10-25T13:01:16Z</time>
      </trkpt>
      <trkpt lat="50.03415" lon="2.32723">
        <ele>135.6</ele>
        <time>2023-10-25T13:01:17Z</time>
      </trkpt>
      <trkpt lat="50.03416" lon="2.32723">
        <ele>135.6</ele>
        <time>2023-10-25T13:01:18Z</time>
      </trkpt>
      <trkpt lat="50.03417" lon="2.32724">
        <ele>135.6</ele>
        <time>2023-10-25T13:01:19Z</time>
      </trkpt>
      <trkpt lat="50.03418" lon="2.32724">
        <ele>135.6</ele>
        <time>2023-10-25T13:01:20Z</time>
      </trkpt>
      <trkpt lat="50.03419" lon="2.32725">
        <ele>135.6</ele>
        <time>2023-10-25T13:01:21Z</time>
      </trkpt>
      <trkpt lat="50.03419" lon="2.32725">
        <ele>135.6</ele>
        <time>2023-10-25T13:01:22Z</time>
      </trkpt>
      <trkpt lat="50.0342" lon="2.32726">
        <ele>135.6</ele>
        <time>2023-10-25T13:01:23Z</time>
      </trkpt>
      <trkpt lat="50.03421" lon="2.32726">
        <ele>135.6</ele>
        <time>2023-10-25T13:01:24Z</time>
      </trkpt>
      <trkpt lat="50.03421" lon="2.32726">
        <ele>135.6</ele>
        <time>2023-10-25T13:01:25Z</time>
      </trkpt>
      <trkpt lat="50.03422" lon="2.32726">
        <ele>135.6</ele>
        <time>2023-10-25T13:01:26Z</time>
      </trkpt>
      <trkpt lat="50.03423" lon="2.32727">
        <ele>135.7</ele>
        <time>2023-10-25T13:01:27Z</time>
      </trkpt>
      <trkpt lat="50.03423" lon="2.32727">
        <ele>135.7</ele>
        <time>2023-10-25T13:01:28Z</time>
      </trkpt>
      <trkpt lat="50.03424" lon="2.32727">
        <ele>135.7</ele>
        <time>2023-10-25T13:01:29Z</time>
      </trkpt>
      <trkpt lat="50.03424" lon="2.32727">
        <ele>135.7</ele>
        <time>2023-10-25T13:01:30Z</time>
      </trkpt>
      <trkpt lat="50.03424" lon="2.32727">
        <ele>135.7</ele>
        <time>2023-10-25T13:01:31Z</time>
      </trkpt>
      <trkpt lat="50.03425" lon="2.32727">
        <ele>135.7</ele>
        <time>2023-10-25T13:01:32Z</time>
      </trkpt>
      <trkpt lat="50.03425" lon="2.32727">
        <ele>135.7</ele>
        <time>2023-10-25T13:01:33Z</time>
      </trkpt>
      <trkpt lat="50.03425" lon="2.32727">
        <ele>135.7</ele>
        <time>2023-10-25T13:01:34Z</time>
      </trkpt>
      <trkpt lat="50.03426" lon="2.32728">
        <ele>135.7</ele>
        <time>2023-10-25T13:01:35Z</time>
      </trkpt>
      <trkpt lat="50.03426" lon="2.32728">
        <ele>135.7</ele>
        <time>2023-10-25T13:01:36Z</time>
      </trkpt>
      <trkpt lat="50.03427" lon="2.32728">
        <ele>135.7</ele>
        <time>2023-10-25T13:01:37Z</time>
      </trkpt>
      <trkpt lat="50.03427" lon="2.32728">
        <ele>135.7</ele>
        <time>2023-10-25T13:01:38Z</time>
      </trkpt>
      <trkpt lat="50.03428" lon="2.32729">
        <ele>135.7</ele>
        <time>2023-10-25T13:01:39Z</time>
      </trkpt>
      <trkpt lat="50.03428" lon="2.32729">
        <ele>135.7</ele>
        <time>2023-10-25T13:01:40Z</time>
      </trkpt>
      <trkpt lat="50.03429" lon="2.32729">
        <ele>135.7</ele>
        <time>2023-10-25T13:01:41Z</time>
      </trkpt>
      <trkpt lat="50.03429" lon="2.3273">
        <ele>135.7</ele>
        <time>2023-10-25T13:01:42Z</time>
      </trkpt>
      <trkpt lat="50.03429" lon="2.3273">
        <ele>135.7</ele>
        <time>2023-10-25T13:01:43Z</time>
      </trkpt>
      <trkpt lat="50.0343" lon="2.3273">
        <ele>135.7</ele>
        <time>2023-10-25T13:01:44Z</time>
      </trkpt>
      <trkpt lat="50.03431" lon="2.32731">
        <ele>135.7</ele>
        <time>2023-10-25T13:01:45Z</time>
      </trkpt>
      <trkpt lat="50.03431" lon="2.32731">
        <ele>135.7</ele>
        <time>2023-10-25T13:01:46Z</time>
      </trkpt>
      <trkpt lat="50.03432" lon="2.32732">
        <ele>135.8</ele>
        <time>2023-10-25T13:01:47Z</time>
      </trkpt>
      <trkpt lat="50.03433" lon="2.32732">
        <ele>135.8</ele>
        <time>2023-10-25T13:01:48Z</time>
      </trkpt>
      <trkpt lat="50.03433" lon="2.32733">
        <ele>135.8</ele>
        <time>2023-10-25T13:01:49Z</time>
      </trkpt>
      <trkpt lat="50.03434" lon="2.32733">
        <ele>135.8</ele>
        <time>2023-10-25T13:01:50Z</time>
      </trkpt>
      <trkpt lat="50.03435" lon="2.32734">
        <ele>135.8</ele>
        <time>2023-10-25T13:01:51Z</time>
      </trkpt>
      <trkpt lat="50.03436" lon="2.32735">
        <ele>135.8</ele>
        <time>2023-10-25T13:01:52Z</time>
      </trkpt>
      <trkpt lat="50.03437" lon="2.32736">
        <ele>135.8</ele>
        <time>2023-10-25T13:01:53Z</time>
      </trkpt>
      <trkpt lat="50.03439" lon="2.32737">
        <ele>135.8</ele>
        <time>2023-10-25T13:01:54Z</time>
      </trkpt>
      <trkpt lat="50.0344" lon="2.32738">
        <ele>135.8</ele>
        <time>2023-10-25T13:01:55Z</time>
      </trkpt>
      <trkpt lat="50.03441" lon="2.32739">
        <ele>135.9</ele>
        <time>2023-10-25T13:01:56Z</time>
      </trkpt>
      <trkpt lat="50.03443" lon="2.3274">
        <ele>135.9</ele>
        <time>2023-10-25T13:01:57Z</time>
      </trkpt>
      <trkpt lat="50.03444" lon="2.32742">
        <ele>135.9</ele>
        <time>2023-10-25T13:01:58Z</time>
      </trkpt>
      <trkpt lat="50.03446" lon="2.32743">
        <ele>135.9</ele>
        <time>2023-10-25T13:01:59Z</time>
      </trkpt>
      <trkpt lat="50.03447" lon="2.32744">
        <ele>136</ele>
        <time>2023-10-25T13:02:00Z</time>
      </trkpt>
      <trkpt lat="50.03449" lon="2.32745">
        <ele>136</ele>
        <time>2023-10-25T13:02:01Z</time>
      </trkpt>
      <trkpt lat="50.0345" lon="2.32746">
        <ele>136</ele>
        <time>2023-10-25T13:02:02Z</time>
      </trkpt>
      <trkpt lat="50.03451" lon="2.32747">
        <ele>136</ele>
        <time>2023-10-25T13:02:03Z</time>
      </trkpt>
      <trkpt lat="50.03452" lon="2.32748">
        <ele>136</ele>
        <time>2023-10-25T13:02:04Z</time>
      </trkpt>
      <trkpt lat="50.03454" lon="2.32749">
        <ele>136.1</ele>
        <time>2023-10-25T13:02:05Z</time>
      </trkpt>
      <trkpt lat="50.03455" lon="2.3275">
        <ele>136.1</ele>
        <time>2023-10-25T13:02:06Z</time>
      </trkpt>
      <trkpt lat="50.03456" lon="2.32751">
        <ele>136.1</ele>
        <time>2023-10-25T13:02:07Z</time>
      </trkpt>
      <trkpt lat="50.03457" lon="2.32752">
        <ele>136.1</ele>
        <time>2023-10-25T13:02:08Z</time>
      </trkpt>
      <trkpt lat="50.03458" lon="2.32752">
        <ele>136.1</ele>
        <time>2023-10-25T13:02:09Z</time>
      </trkpt>
      <trkpt lat="50.03459" lon="2.32753">
        <ele>136.2</ele>
        <time>2023-10-25T13:02:10Z</time>
      </trkpt>
      <trkpt lat="50.0346" lon="2.32753">
        <ele>136.2</ele>
        <time>2023-10-25T13:02:11Z</time>
      </trkpt>
      <trkpt lat="50.03462" lon="2.32754">
        <ele>136.2</ele>
        <time>2023-10-25T13:02:12Z</time>
      </trkpt>
      <trkpt lat="50.03463" lon="2.32754">
        <ele>136.2</ele>
        <time>2023-10-25T13:02:13Z</time>
      </trkpt>
      <trkpt lat="50.03464" lon="2.32755">
        <ele>136.2</ele>
        <time>2023-10-25T13:02:14Z</time>
      </trkpt>
      <trkpt lat="50.03465" lon="2.32755">
        <ele>136.3</ele>
        <time>2023-10-25T13:02:15Z</time>
      </trkpt>
      <trkpt lat="50.03467" lon="2.32756">
        <ele>136.3</ele>
        <time>2023-10-25T13:02:16Z</time>
      </trkpt>
      <trkpt lat="50.03468" lon="2.32756">
        <ele>136.3</ele>
        <time>2023-10-25T13:02:17Z</time>
      </trkpt>
      <trkpt lat="50.03469" lon="2.32756">
        <ele>136.3</ele>
        <time>2023-10-25T13:02:18Z</time>
      </trkpt>
      <trkpt lat="50.0347" lon="2.32757">
        <ele>136.3</ele>
        <time>2023-10-25T13:02:19Z</time>
      </trkpt>
      <trkpt lat="50.03471" lon="2.32757">
        <ele>136.4</ele>
        <time>2023-10-25T13:02:20Z</time>
      </trkpt>
      <trkpt lat="50.03472" lon="2.32757">
        <ele>136.4</ele>
        <time>2023-10-25T13:02:21Z</time>
      </trkpt>
      <trkpt lat="50.03473" lon="2.32757">
        <ele>136.4</ele>
        <time>2023-10-25T13:02:22Z</time>
      </trkpt>
      <trkpt lat="50.03474" lon="2.32757">
        <ele>136.4</ele>
        <time>2023-10-25T13:02:23Z</time>
      </trkpt>
      <trkpt lat="50.03476" lon="2.32757">
        <ele>136.4</ele>
        <time>2023-10-25T13:02:24Z</time>
      </trkpt>
      <trkpt lat="50.03477" lon="2.32757">
        <ele>136.5</ele>
        <time>2023-10-25T13:02:25Z</time>
      </trkpt>
      <trkpt lat="50.03478" lon="2.32757">
        <ele>136.5</ele>
        <time>2023-10-25T13:02:26Z</time>
      </trkpt>
      <trkpt lat="50.03479" lon="2.32757">
        <ele>136.5</ele>
        <time>2023-10-25T13:02:27Z</time>
      </trkpt>
      <trkpt lat="50.0348" lon="2.32758">
        <ele>136.5</ele>
        <time>2023-10-25T13:02:28Z</time>
      </trkpt>
      <trkpt lat="50.03481" lon="2.32758">
        <ele>136.5</ele>
        <time>2023-10-25T13:02:29Z</time>
      </trkpt>
      <trkpt lat="50.03482" lon="2.32758">
        <ele>136.5</ele>
        <time>2023-10-25T13:02:30Z</time>
      </trkpt>
      <trkpt lat="50.03483" lon="2.32758">
        <ele>136.5</ele>
        <time>2023-10-25T13:02:31Z</time>
      </trkpt>
      <trkpt lat="50.03484" lon="2.32758">
        <ele>136.5</ele>
        <time>2023-10-25T13:02:32Z</time>
      </trkpt>
      <trkpt lat="50.03485" lon="2.32758">
        <ele>136.5</ele>
        <time>2023-10-25T13:02:33Z</time>
      </trkpt>
      <trkpt lat="50.03486" lon="2.32758">
        <ele>136.5</ele>
        <time>2023-10-25T13:02:34Z</time>
      </trkpt>
      <trkpt lat="50.03487" lon="2.32758">
        <ele>136.5</ele>
        <time>2023-10-25T13:02:35Z</time>
      </trkpt>
      <trkpt lat="50.03488" lon="2.32758">
        <ele>136.5</ele>
        <time>2023-10-25T13:02:36Z</time>
      </trkpt>
      <trkpt lat="50.03488" lon="2.32758">
        <ele>136.5</ele>
        <time>2023-10-25T13:02:37Z</time>
      </trkpt>
      <trkpt lat="50.03489" lon="2.32758">
        <ele>136.5</ele>
        <time>2023-10-25T13:02:38Z</time>
      </trkpt>
      <trkpt lat="50.03489" lon="2.32759">
        <ele>136.5</ele>
        <time>2023-10-25T13:02:39Z</time>
      </trkpt>
      <trkpt lat="50.0349" lon="2.32759">
        <ele>136.5</ele>
        <time>2023-10-25T13:02:40Z</time>
      </trkpt>
      <trkpt lat="50.03491" lon="2.32759">
        <ele>136.5</ele>
        <time>2023-10-25T13:02:41Z</time>
      </trkpt>
      <trkpt lat="50.03492" lon="2.3276">
        <ele>136.5</ele>
        <time>2023-10-25T13:02:42Z</time>
      </trkpt>
      <trkpt lat="50.03492" lon="2.3276">
        <ele>136.5</ele>
        <time>2023-10-25T13:02:43Z</time>
      </trkpt>
      <trkpt lat="50.03493" lon="2.3276">
        <ele>136.5</ele>
        <time>2023-10-25T13:02:44Z</time>
      </trkpt>
      <trkpt lat="50.03494" lon="2.32761">
        <ele>136.5</ele>
        <time>2023-10-25T13:02:45Z</time>
      </trkpt>
      <trkpt lat="50.03495" lon="2.32761">
        <ele>136.5</ele>
        <time>2023-10-25T13:02:46Z</time>
      </trkpt>
      <trkpt lat="50.03495" lon="2.32761">
        <ele>136.5</ele>
        <time>2023-10-25T13:02:47Z</time>
      </trkpt>
      <trkpt lat="50.03496" lon="2.32762">
        <ele>136.5</ele>
        <time>2023-10-25T13:02:48Z</time>
      </trkpt>
      <trkpt lat="50.03497" lon="2.32762">
        <ele>136.5</ele>
        <time>2023-10-25T13:02:49Z</time>
      </trkpt>
      <trkpt lat="50.03498" lon="2.32763">
        <ele>136.5</ele>
        <time>2023-10-25T13:02:50Z</time>
      </trkpt>
      <trkpt lat="50.03499" lon="2.32763">
        <ele>136.5</ele>
        <time>2023-10-25T13:02:51Z</time>
      </trkpt>
      <trkpt lat="50.035" lon="2.32764">
        <ele>136.5</ele>
        <time>2023-10-25T13:02:52Z</time>
      </trkpt>
      <trkpt lat="50.035" lon="2.32765">
        <ele>136.5</ele>
        <time>2023-10-25T13:02:53Z</time>
      </trkpt>
      <trkpt lat="50.03501" lon="2.32765">
        <ele>136.5</ele>
        <time>2023-10-25T13:02:54Z</time>
      </trkpt>
      <trkpt lat="50.03501" lon="2.32766">
        <ele>136.5</ele>
        <time>2023-10-25T13:02:55Z</time>
      </trkpt>
      <trkpt lat="50.03502" lon="2.32767">
        <ele>136.5</ele>
        <time>2023-10-25T13:02:56Z</time>
      </trkpt>
      <trkpt lat="50.03503" lon="2.32768">
        <ele>136.5</ele>
        <time>2023-10-25T13:02:57Z</time>
      </trkpt>
      <trkpt lat="50.03503" lon="2.32768">
        <ele>136.5</ele>
        <time>2023-10-25T13:02:58Z</time>
      </trkpt>
      <trkpt lat="50.03503" lon="2.32769">
        <ele>136.5</ele>
        <time>2023-10-25T13:02:59Z</time>
      </trkpt>
      <trkpt lat="50.03504" lon="2.32769">
        <ele>136.5</ele>
        <time>2023-10-25T13:03:00Z</time>
      </trkpt>
      <trkpt lat="50.03504" lon="2.32769">
        <ele>136.5</ele>
        <time>2023-10-25T13:03:01Z</time>
      </trkpt>
      <trkpt lat="50.03504" lon="2.3277">
        <ele>136.5</ele>
        <time>2023-10-25T13:03:02Z</time>
      </trkpt>
      <trkpt lat="50.03505" lon="2.3277">
        <ele>136.5</ele>
        <time>2023-10-25T13:03:03Z</time>
      </trkpt>
      <trkpt lat="50.03505" lon="2.32771">
        <ele>136.5</ele>
        <time>2023-10-25T13:03:04Z</time>
      </trkpt>
      <trkpt lat="50.03506" lon="2.32771">
        <ele>136.5</ele>
        <time>2023-10-25T13:03:05Z</time>
      </trkpt>
      <trkpt lat="50.03506" lon="2.32772">
        <ele>136.5</ele>
        <time>2023-10-25T13:03:06Z</time>
      </trkpt>
      <trkpt lat="50.03507" lon="2.32773">
        <ele>136.5</ele>
        <time>2023-10-25T13:03:07Z</time>
      </trkpt>
      <trkpt lat="50.03508" lon="2.32774">
        <ele>136.5</ele>
        <time>2023-10-25T13:03:08Z</time>
      </trkpt>
      <trkpt lat="50.03508" lon="2.32775">
        <ele>136.5</ele>
        <time>2023-10-25T13:03:09Z</time>
      </trkpt>
      <trkpt lat="50.03509" lon="2.32776">
        <ele>136.6</ele>
        <time>2023-10-25T13:03:10Z</time>
      </trkpt>
      <trkpt lat="50.0351" lon="2.32776">
        <ele>136.6</ele>
        <time>2023-10-25T13:03:11Z</time>
      </trkpt>
      <trkpt lat="50.03512" lon="2.32778">
        <ele>136.6</ele>
        <time>2023-10-25T13:03:12Z</time>
      </trkpt>
      <trkpt lat="50.03513" lon="2.32778">
        <ele>136.6</ele>
        <time>2023-10-25T13:03:13Z</time>
      </trkpt>
      <trkpt lat="50.03514" lon="2.32779">
        <ele>136.6</ele>
        <time>2023-10-25T13:03:14Z</time>
      </trkpt>
      <trkpt lat="50.03515" lon="2.3278">
        <ele>136.6</ele>
        <time>2023-10-25T13:03:15Z</time>
      </trkpt>
      <trkpt lat="50.03516" lon="2.32781">
        <ele>136.7</ele>
        <time>2023-10-25T13:03:16Z</time>
      </trkpt>
      <trkpt lat="50.03518" lon="2.32782">
        <ele>136.7</ele>
        <time>2023-10-25T13:03:17Z</time>
      </trkpt>
      <trkpt lat="50.03519" lon="2.32783">
        <ele>136.7</ele>
        <time>2023-10-25T13:03:18Z</time>
      </trkpt>
      <trkpt lat="50.0352" lon="2.32784">
        <ele>136.7</ele>
        <time>2023-10-25T13:03:19Z</time>
      </trkpt>
      <trkpt lat="50.03521" lon="2.32786">
        <ele>136.7</ele>
        <time>2023-10-25T13:03:20Z</time>
      </trkpt>
      <trkpt lat="50.03523" lon="2.32787">
        <ele>136.8</ele>
        <time>2023-10-25T13:03:21Z</time>
      </trkpt>
      <trkpt lat="50.03524" lon="2.32789">
        <ele>136.8</ele>
        <time>2023-10-25T13:03:22Z</time>
      </trkpt>
      <trkpt lat="50.03525" lon="2.3279">
        <ele>136.8</ele>
        <time>2023-10-25T13:03:23Z</time>
      </trkpt>
      <trkpt lat="50.03527" lon="2.32791">
        <ele>136.8</ele>
        <time>2023-10-25T13:03:24Z</time>
      </trkpt>
      <trkpt lat="50.03528" lon="2.32793">
        <ele>136.8</ele>
        <time>2023-10-25T13:03:25Z</time>
      </trkpt>
      <trkpt lat="50.03529" lon="2.32794">
        <ele>136.8</ele>
        <time>2023-10-25T13:03:26Z</time>
      </trkpt>
      <trkpt lat="50.0353" lon="2.32795">
        <ele>136.9</ele>
        <time>2023-10-25T13:03:27Z</time>
      </trkpt>
      <trkpt lat="50.03531" lon="2.32796">
        <ele>136.9</ele>
        <time>2023-10-25T13:03:28Z</time>
      </trkpt>
      <trkpt lat="50.03532" lon="2.32796">
        <ele>136.9</ele>
        <time>2023-10-25T13:03:29Z</time>
      </trkpt>
      <trkpt lat="50.03533" lon="2.32797">
        <ele>136.9</ele>
        <time>2023-10-25T13:03:30Z</time>
      </trkpt>
      <trkpt lat="50.03534" lon="2.32798">
        <ele>136.9</ele>
        <time>2023-10-25T13:03:31Z</time>
      </trkpt>
      <trkpt lat="50.03535" lon="2.32799">
        <ele>136.9</ele>
        <time>2023-10-25T13:03:32Z</time>
      </trkpt>
      <trkpt lat="50.03536" lon="2.328">
        <ele>136.9</ele>
        <time>2023-10-25T13:03:33Z</time>
      </trkpt>
      <trkpt lat="50.03537" lon="2.32801">
        <ele>137</ele>
        <time>2023-10-25T13:03:34Z</time>
      </trkpt>
      <trkpt lat="50.03538" lon="2.32802">
        <ele>137</ele>
        <time>2023-10-25T13:03:35Z</time>
      </trkpt>
      <trkpt lat="50.03538" lon="2.32803">
        <ele>137</ele>
        <time>2023-10-25T13:03:36Z</time>
      </trkpt>
      <trkpt lat="50.03539" lon="2.32804">
        <ele>137</ele>
        <time>2023-10-25T13:03:37Z</time>
      </trkpt>
      <trkpt lat="50.0354" lon="2.32805">
        <ele>137</ele>
        <time>2023-10-25T13:03:38Z</time>
      </trkpt>
      <trkpt lat="50.03541" lon="2.32805">
        <ele>137</ele>
        <time>2023-10-25T13:03:39Z</time>
      </trkpt>
      <trkpt lat="50.03542" lon="2.32806">
        <ele>137</ele>
        <time>2023-10-25T13:03:40Z</time>
      </trkpt>
      <trkpt lat="50.03542" lon="2.32807">
        <ele>137</ele>
        <time>2023-10-25T13:03:41Z</time>
      </trkpt>
      <trkpt lat="50.03543" lon="2.32808">
        <ele>137</ele>
        <time>2023-10-25T13:03:42Z</time>
      </trkpt>
      <trkpt lat="50.03544" lon="2.32809">
        <ele>137.1</ele>
        <time>2023-10-25T13:03:43Z</time>
      </trkpt>
      <trkpt lat="50.03545" lon="2.3281">
        <ele>137.1</ele>
        <time>2023-10-25T13:03:44Z</time>
      </trkpt>
      <trkpt lat="50.03546" lon="2.32811">
        <ele>137.1</ele>
        <time>2023-10-25T13:03:45Z</time>
      </trkpt>
      <trkpt lat="50.03546" lon="2.32811">
        <ele>137.1</ele>
        <time>2023-10-25T13:03:46Z</time>
      </trkpt>
      <trkpt lat="50.03547" lon="2.32812">
        <ele>137.1</ele>
        <time>2023-10-25T13:03:47Z</time>
      </trkpt>
      <trkpt lat="50.03548" lon="2.32813">
        <ele>137.1</ele>
        <time>2023-10-25T13:03:48Z</time>
      </trkpt>
      <trkpt lat="50.03549" lon="2.32814">
        <ele>137.1</ele>
        <time>2023-10-25T13:03:49Z</time>
      </trkpt>
      <trkpt lat="50.03549" lon="2.32814">
        <ele>137.1</ele>
        <time>2023-10-25T13:03:50Z</time>
      </trkpt>
      <trkpt lat="50.0355" lon="2.32815">
        <ele>137.1</ele>
        <time>2023-10-25T13:03:51Z</time>
      </trkpt>
      <trkpt lat="50.03551" lon="2.32816">
        <ele>137.1</ele>
        <time>2023-10-25T13:03:52Z</time>
      </trkpt>
      <trkpt lat="50.03551" lon="2.32817">
        <ele>137.1</ele>
        <time>2023-10-25T13:03:53Z</time>
      </trkpt>
      <trkpt lat="50.03552" lon="2.32818">
        <ele>137.2</ele>
        <time>2023-10-25T13:03:54Z</time>
      </trkpt>
      <trkpt lat="50.03553" lon="2.32819">
        <ele>137.2</ele>
        <time>2023-10-25T13:03:55Z</time>
      </trkpt>
      <trkpt lat="50.03554" lon="2.3282">
        <ele>137.2</ele>
        <time>2023-10-25T13:03:56Z</time>
      </trkpt>
      <trkpt lat="50.03555" lon="2.32821">
        <ele>137.2</ele>
        <time>2023-10-25T13:03:57Z</time>
      </trkpt>
      <trkpt lat="50.03556" lon="2.32822">
        <ele>137.2</ele>
        <time>2023-10-25T13:03:58Z</time>
      </trkpt>
      <trkpt lat="50.03557" lon="2.32823">
        <ele>137.2</ele>
        <time>2023-10-25T13:03:59Z</time>
      </trkpt>
      <trkpt lat="50.03557" lon="2.32824">
        <ele>137.2</ele>
        <time>2023-10-25T13:04:00Z</time>
      </trkpt>
      <trkpt lat="50.03558" lon="2.32824">
        <ele>137.2</ele>
        <time>2023-10-25T13:04:01Z</time>
      </trkpt>
      <trkpt lat="50.03559" lon="2.32825">
        <ele>137.2</ele>
        <time>2023-10-25T13:04:02Z</time>
      </trkpt>
      <trkpt lat="50.0356" lon="2.32826">
        <ele>137.3</ele>
        <time>2023-10-25T13:04:03Z</time>
      </trkpt>
      <trkpt lat="50.03561" lon="2.32827">
        <ele>137.3</ele>
        <time>2023-10-25T13:04:04Z</time>
      </trkpt>
      <trkpt lat="50.03561" lon="2.32828">
        <ele>137.3</ele>
        <time>2023-10-25T13:04:05Z</time>
      </trkpt>
      <trkpt lat="50.03562" lon="2.32829">
        <ele>137.3</ele>
        <time>2023-10-25T13:04:06Z</time>
      </trkpt>
      <trkpt lat="50.03563" lon="2.32829">
        <ele>137.3</ele>
        <time>2023-10-25T13:04:07Z</time>
      </trkpt>
      <trkpt lat="50.03563" lon="2.3283">
        <ele>137.3</ele>
        <time>2023-10-25T13:04:08Z</time>
      </trkpt>
      <trkpt lat="50.03564" lon="2.32831">
        <ele>137.3</ele>
        <time>2023-10-25T13:04:09Z</time>
      </trkpt>
      <trkpt lat="50.03565" lon="2.32832">
        <ele>137.3</ele>
        <time>2023-10-25T13:04:10Z</time>
      </trkpt>
      <trkpt lat="50.03565" lon="2.32833">
        <ele>137.4</ele>
        <time>2023-10-25T13:04:11Z</time>
      </trkpt>
      <trkpt lat="50.03566" lon="2.32834">
        <ele>137.4</ele>
        <time>2023-10-25T13:04:12Z</time>
      </trkpt>
      <trkpt lat="50.03567" lon="2.32835">
        <ele>137.4</ele>
        <time>2023-10-25T13:04:13Z</time>
      </trkpt>
      <trkpt lat="50.03567" lon="2.32836">
        <ele>137.4</ele>
        <time>2023-10-25T13:04:14Z</time>
      </trkpt>
      <trkpt lat="50.03568" lon="2.32837">
        <ele>137.4</ele>
        <time>2023-10-25T13:04:15Z</time>
      </trkpt>
      <trkpt lat="50.03569" lon="2.32838">
        <ele>137.4</ele>
        <time>2023-10-25T13:04:16Z</time>
      </trkpt>
      <trkpt lat="50.03569" lon="2.32838">
        <ele>137.4</ele>
        <time>2023-10-25T13:04:17Z</time>
      </trkpt>
      <trkpt lat="50.0357" lon="2.32838">
        <ele>137.4</ele>
        <time>2023-10-25T13:04:18Z</time>
      </trkpt>
      <trkpt lat="50.03571" lon="2.32839">
        <ele>137.4</ele>
        <time>2023-10-25T13:04:19Z</time>
      </trkpt>
      <trkpt lat="50.03572" lon="2.32839">
        <ele>137.4</ele>
        <time>2023-10-25T13:04:20Z</time>
      </trkpt>
      <trkpt lat="50.03573" lon="2.32839">
        <ele>137.4</ele>
        <time>2023-10-25T13:04:21Z</time>
      </trkpt>
      <trkpt lat="50.03574" lon="2.32839">
        <ele>137.4</ele>
        <time>2023-10-25T13:04:22Z</time>
      </trkpt>
      <trkpt lat="50.03575" lon="2.32839">
        <ele>137.4</ele>
        <time>2023-10-25T13:04:23Z</time>
      </trkpt>
      <trkpt lat="50.03576" lon="2.32838">
        <ele>137.3</ele>
        <time>2023-10-25T13:04:24Z</time>
      </trkpt>
      <trkpt lat="50.03577" lon="2.32838">
        <ele>137.3</ele>
        <time>2023-10-25T13:04:25Z</time>
      </trkpt>
      <trkpt lat="50.03578" lon="2.32837">
        <ele>137.3</ele>
        <time>2023-10-25T13:04:26Z</time>
      </trkpt>
      <trkpt lat="50.03579" lon="2.32836">
        <ele>137.3</ele>
        <time>2023-10-25T13:04:27Z</time>
      </trkpt>
      <trkpt lat="50.03581" lon="2.32835">
        <ele>137.3</ele>
        <time>2023-10-25T13:04:28Z</time>
      </trkpt>
      <trkpt lat="50.03582" lon="2.32834">
        <ele>137.3</ele>
        <time>2023-10-25T13:04:29Z</time>
      </trkpt>
      <trkpt lat="50.03583" lon="2.32834">
        <ele>137.3</ele>
        <time>2023-10-25T13:04:30Z</time>
      </trkpt>
      <trkpt lat="50.03584" lon="2.32831">
        <ele>137.3</ele>
        <time>2023-10-25T13:04:31Z</time>
      </trkpt>
      <trkpt lat="50.03585" lon="2.3283">
        <ele>137.3</ele>
        <time>2023-10-25T13:04:32Z</time>
      </trkpt>
      <trkpt lat="50.03585" lon="2.3283">
        <ele>137.3</ele>
        <time>2023-10-25T13:04:33Z</time>
      </trkpt>
      <trkpt lat="50.03586" lon="2.32828">
        <ele>137.3</ele>
        <time>2023-10-25T13:04:34Z</time>
      </trkpt>
      <trkpt lat="50.03587" lon="2.32827">
        <ele>137.3</ele>
        <time>2023-10-25T13:04:35Z</time>
      </trkpt>
      <trkpt lat="50.03588" lon="2.32826">
        <ele>137.3</ele>
        <time>2023-10-25T13:04:36Z</time>
      </trkpt>
      <trkpt lat="50.03589" lon="2.32825">
        <ele>137.3</ele>
        <time>2023-10-25T13:04:37Z</time>
      </trkpt>
      <trkpt lat="50.0359" lon="2.32824">
        <ele>137.3</ele>
        <time>2023-10-25T13:04:38Z</time>
      </trkpt>
      <trkpt lat="50.03591" lon="2.32823">
        <ele>137.3</ele>
        <time>2023-10-25T13:04:39Z</time>
      </trkpt>
      <trkpt lat="50.03592" lon="2.32822">
        <ele>137.2</ele>
        <time>2023-10-25T13:04:40Z</time>
      </trkpt>
      <trkpt lat="50.03592" lon="2.32821">
        <ele>137.2</ele>
        <time>2023-10-25T13:04:41Z</time>
      </trkpt>
      <trkpt lat="50.03593" lon="2.3282">
        <ele>137.2</ele>
        <time>2023-10-25T13:04:42Z</time>
      </trkpt>
      <trkpt lat="50.03595" lon="2.32818">
        <ele>137.2</ele>
        <time>2023-10-25T13:04:43Z</time>
      </trkpt>
      <trkpt lat="50.03595" lon="2.32817">
        <ele>137.2</ele>
        <time>2023-10-25T13:04:44Z</time>
      </trkpt>
      <trkpt lat="50.03596" lon="2.32816">
        <ele>137.2</ele>
        <time>2023-10-25T13:04:45Z</time>
      </trkpt>
      <trkpt lat="50.03597" lon="2.32815">
        <ele>137.2</ele>
        <time>2023-10-25T13:04:46Z</time>
      </trkpt>
      <trkpt lat="50.03598" lon="2.32814">
        <ele>137.2</ele>
        <time>2023-10-25T13:04:47Z</time>
      </trkpt>
      <trkpt lat="50.03599" lon="2.32813">
        <ele>137.2</ele>
        <time>2023-10-25T13:04:48Z</time>
      </trkpt>
      <trkpt lat="50.036" lon="2.32813">
        <ele>137.2</ele>
        <time>2023-10-25T13:04:49Z</time>
      </trkpt>
      <trkpt lat="50.03601" lon="2.32812">
        <ele>137.2</ele>
        <time>2023-10-25T13:04:50Z</time>
      </trkpt>
      <trkpt lat="50.03602" lon="2.32811">
        <ele>137.2</ele>
        <time>2023-10-25T13:04:51Z</time>
      </trkpt>
      <trkpt lat="50.03604" lon="2.3281">
        <ele>137.2</ele>
        <time>2023-10-25T13:04:52Z</time>
      </trkpt>
      <trkpt lat="50.03605" lon="2.32809">
        <ele>137.1</ele>
        <time>2023-10-25T13:04:53Z</time>
      </trkpt>
      <trkpt lat="50.03605" lon="2.32809">
        <ele>137.1</ele>
        <time>2023-10-25T13:04:54Z</time>
      </trkpt>
      <trkpt lat="50.03607" lon="2.32808">
        <ele>137.1</ele>
        <time>2023-10-25T13:04:55Z</time>
      </trkpt>
      <trkpt lat="50.03608" lon="2.32807">
        <ele>137.1</ele>
        <time>2023-10-25T13:04:56Z</time>
      </trkpt>
      <trkpt lat="50.03609" lon="2.32806">
        <ele>137.1</ele>
        <time>2023-10-25T13:04:57Z</time>
      </trkpt>
      <trkpt lat="50.03609" lon="2.32805">
        <ele>137.1</ele>
        <time>2023-10-25T13:04:58Z</time>
      </trkpt>
      <trkpt lat="50.0361" lon="2.32805">
        <ele>137.1</ele>
        <time>2023-10-25T13:04:59Z</time>
      </trkpt>
      <trkpt lat="50.03611" lon="2.32804">
        <ele>137.1</ele>
        <time>2023-10-25T13:05:00Z</time>
      </trkpt>
      <trkpt lat="50.03612" lon="2.32803">
        <ele>137.1</ele>
        <time>2023-10-25T13:05:01Z</time>
      </trkpt>
      <trkpt lat="50.03613" lon="2.32802">
        <ele>137</ele>
        <time>2023-10-25T13:05:02Z</time>
      </trkpt>
      <trkpt lat="50.03614" lon="2.32801">
        <ele>137</ele>
        <time>2023-10-25T13:05:03Z</time>
      </trkpt>
      <trkpt lat="50.03615" lon="2.328">
        <ele>137</ele>
        <time>2023-10-25T13:05:04Z</time>
      </trkpt>
      <trkpt lat="50.03616" lon="2.32799">
        <ele>137</ele>
        <time>2023-10-25T13:05:05Z</time>
      </trkpt>
      <trkpt lat="50.03617" lon="2.32798">
        <ele>137</ele>
        <time>2023-10-25T13:05:06Z</time>
      </trkpt>
      <trkpt lat="50.03618" lon="2.32797">
        <ele>137</ele>
        <time>2023-10-25T13:05:07Z</time>
      </trkpt>
      <trkpt lat="50.03619" lon="2.32796">
        <ele>137</ele>
        <time>2023-10-25T13:05:08Z</time>
      </trkpt>
      <trkpt lat="50.03619" lon="2.32796">
        <ele>136.9</ele>
        <time>2023-10-25T13:05:09Z</time>
      </trkpt>
      <trkpt lat="50.0362" lon="2.32795">
        <ele>136.9</ele>
        <time>2023-10-25T13:05:10Z</time>
      </trkpt>
      <trkpt lat="50.03621" lon="2.32794">
        <ele>136.9</ele>
        <time>2023-10-25T13:05:11Z</time>
      </trkpt>
      <trkpt lat="50.03622" lon="2.32793">
        <ele>136.9</ele>
        <time>2023-10-25T13:05:12Z</time>
      </trkpt>
      <trkpt lat="50.03624" lon="2.32791">
        <ele>136.9</ele>
        <time>2023-10-25T13:05:13Z</time>
      </trkpt>
      <trkpt lat="50.03624" lon="2.3279">
        <ele>136.9</ele>
        <time>2023-10-25T13:05:14Z</time>
      </trkpt>
      <trkpt lat="50.03625" lon="2.3279">
        <ele>136.9</ele>
        <time>2023-10-25T13:05:15Z</time>
      </trkpt>
      <trkpt lat="50.03626" lon="2.32788">
        <ele>136.8</ele>
        <time>2023-10-25T13:05:16Z</time>
      </trkpt>
      <trkpt lat="50.03627" lon="2.32787">
        <ele>136.8</ele>
        <time>2023-10-25T13:05:17Z</time>
      </trkpt>
      <trkpt lat="50.03628" lon="2.32786">
        <ele>136.8</ele>
        <time>2023-10-25T13:05:18Z</time>
      </trkpt>
      <trkpt lat="50.03629" lon="2.32785">
        <ele>136.8</ele>
        <time>2023-10-25T13:05:19Z</time>
      </trkpt>
      <trkpt lat="50.03629" lon="2.32785">
        <ele>136.8</ele>
        <time>2023-10-25T13:05:20Z</time>
      </trkpt>
      <trkpt lat="50.0363" lon="2.32784">
        <ele>136.8</ele>
        <time>2023-10-25T13:05:21Z</time>
      </trkpt>
      <trkpt lat="50.03631" lon="2.32783">
        <ele>136.7</ele>
        <time>2023-10-25T13:05:22Z</time>
      </trkpt>
      <trkpt lat="50.03632" lon="2.32782">
        <ele>136.7</ele>
        <time>2023-10-25T13:05:23Z</time>
      </trkpt>
      <trkpt lat="50.03633" lon="2.32782">
        <ele>136.7</ele>
        <time>2023-10-25T13:05:24Z</time>
      </trkpt>
      <trkpt lat="50.03634" lon="2.32781">
        <ele>136.7</ele>
        <time>2023-10-25T13:05:25Z</time>
      </trkpt>
      <trkpt lat="50.03635" lon="2.3278">
        <ele>136.7</ele>
        <time>2023-10-25T13:05:26Z</time>
      </trkpt>
      <trkpt lat="50.03636" lon="2.32779">
        <ele>136.7</ele>
        <time>2023-10-25T13:05:27Z</time>
      </trkpt>
      <trkpt lat="50.03637" lon="2.32777">
        <ele>136.6</ele>
        <time>2023-10-25T13:05:28Z</time>
      </trkpt>
      <trkpt lat="50.03638" lon="2.32776">
        <ele>136.6</ele>
        <time>2023-10-25T13:05:29Z</time>
      </trkpt>
      <trkpt lat="50.03639" lon="2.32775">
        <ele>136.6</ele>
        <time>2023-10-25T13:05:30Z</time>
      </trkpt>
      <trkpt lat="50.0364" lon="2.32775">
        <ele>136.6</ele>
        <time>2023-10-25T13:05:31Z</time>
      </trkpt>
      <trkpt lat="50.03641" lon="2.32774">
        <ele>136.6</ele>
        <time>2023-10-25T13:05:32Z</time>
      </trkpt>
      <trkpt lat="50.03642" lon="2.32773">
        <ele>136.5</ele>
        <time>2023-10-25T13:05:33Z</time>
      </trkpt>
      <trkpt lat="50.03644" lon="2.32772">
        <ele>136.5</ele>
        <time>2023-10-25T13:05:34Z</time>
      </trkpt>
      <trkpt lat="50.03645" lon="2.32771">
        <ele>136.5</ele>
        <time>2023-10-25T13:05:35Z</time>
      </trkpt>
      <trkpt lat="50.03646" lon="2.32771">
        <ele>136.5</ele>
        <time>2023-10-25T13:05:36Z</time>
      </trkpt>
      <trkpt lat="50.03648" lon="2.32769">
        <ele>136.5</ele>
        <time>2023-10-25T13:05:37Z</time>
      </trkpt>
      <trkpt lat="50.03648" lon="2.32769">
        <ele>136.4</ele>
        <time>2023-10-25T13:05:38Z</time>
      </trkpt>
      <trkpt lat="50.03649" lon="2.32768">
        <ele>136.4</ele>
        <time>2023-10-25T13:05:39Z</time>
      </trkpt>
      <trkpt lat="50.0365" lon="2.32767">
        <ele>136.4</ele>
        <time>2023-10-25T13:05:40Z</time>
      </trkpt>
      <trkpt lat="50.03651" lon="2.32765">
        <ele>136.4</ele>
        <time>2023-10-25T13:05:41Z</time>
      </trkpt>
      <trkpt lat="50.03651" lon="2.32764">
        <ele>136.4</ele>
        <time>2023-10-25T13:05:42Z</time>
      </trkpt>
      <trkpt lat="50.03652" lon="2.32763">
        <ele>136.4</ele>
        <time>2023-10-25T13:05:43Z</time>
      </trkpt>
      <trkpt lat="50.03653" lon="2.32762">
        <ele>136.4</ele>
        <time>2023-10-25T13:05:44Z</time>
      </trkpt>
      <trkpt lat="50.03654" lon="2.32761">
        <ele>136.3</ele>
        <time>2023-10-25T13:05:45Z</time>
      </trkpt>
      <trkpt lat="50.03655" lon="2.3276">
        <ele>136.3</ele>
        <time>2023-10-25T13:05:46Z</time>
      </trkpt>
      <trkpt lat="50.03655" lon="2.3276">
        <ele>136.3</ele>
        <time>2023-10-25T13:05:47Z</time>
      </trkpt>
      <trkpt lat="50.03656" lon="2.32759">
        <ele>136.3</ele>
        <time>2023-10-25T13:05:48Z</time>
      </trkpt>
      <trkpt lat="50.03657" lon="2.32758">
        <ele>136.3</ele>
        <time>2023-10-25T13:05:49Z</time>
      </trkpt>
      <trkpt lat="50.03658" lon="2.32757">
        <ele>136.3</ele>
        <time>2023-10-25T13:05:50Z</time>
      </trkpt>
      <trkpt lat="50.03659" lon="2.32756">
        <ele>136.3</ele>
        <time>2023-10-25T13:05:51Z</time>
      </trkpt>
      <trkpt lat="50.0366" lon="2.32755">
        <ele>136.3</ele>
        <time>2023-10-25T13:05:52Z</time>
      </trkpt>
      <trkpt lat="50.03661" lon="2.32754">
        <ele>136.2</ele>
        <time>2023-10-25T13:05:53Z</time>
      </trkpt>
      <trkpt lat="50.03662" lon="2.32754">
        <ele>136.2</ele>
        <time>2023-10-25T13:05:54Z</time>
      </trkpt>
      <trkpt lat="50.03663" lon="2.32753">
        <ele>136.2</ele>
        <time>2023-10-25T13:05:55Z</time>
      </trkpt>
      <trkpt lat="50.03664" lon="2.32753">
        <ele>136.2</ele>
        <time>2023-10-25T13:05:56Z</time>
      </trkpt>
      <trkpt lat="50.03665" lon="2.32752">
        <ele>136.2</ele>
        <time>2023-10-25T13:05:57Z</time>
      </trkpt>
      <trkpt lat="50.03666" lon="2.32752">
        <ele>136.2</ele>
        <time>2023-10-25T13:05:58Z</time>
      </trkpt>
      <trkpt lat="50.03667" lon="2.32751">
        <ele>136.2</ele>
        <time>2023-10-25T13:05:59Z</time>
      </trkpt>
      <trkpt lat="50.03668" lon="2.32751">
        <ele>136.1</ele>
        <time>2023-10-25T13:06:00Z</time>
      </trkpt>
      <trkpt lat="50.03669" lon="2.3275">
        <ele>136.1</ele>
        <time>2023-10-25T13:06:01Z</time>
      </trkpt>
      <trkpt lat="50.0367" lon="2.32749">
        <ele>136.1</ele>
        <time>2023-10-25T13:06:02Z</time>
      </trkpt>
      <trkpt lat="50.03671" lon="2.32749">
        <ele>136.1</ele>
        <time>2023-10-25T13:06:03Z</time>
      </trkpt>
      <trkpt lat="50.03672" lon="2.32748">
        <ele>136.1</ele>
        <time>2023-10-25T13:06:04Z</time>
      </trkpt>
      <trkpt lat="50.03673" lon="2.32747">
        <ele>136.1</ele>
        <time>2023-10-25T13:06:05Z</time>
      </trkpt>
      <trkpt lat="50.03674" lon="2.32746">
        <ele>136.1</ele>
        <time>2023-10-25T13:06:06Z</time>
      </trkpt>
      <trkpt lat="50.03675" lon="2.32746">
        <ele>136</ele>
        <time>2023-10-25T13:06:07Z</time>
      </trkpt>
      <trkpt lat="50.03676" lon="2.32745">
        <ele>136</ele>
        <time>2023-10-25T13:06:08Z</time>
      </trkpt>
      <trkpt lat="50.03677" lon="2.32744">
        <ele>136</ele>
        <time>2023-10-25T13:06:09Z</time>
      </trkpt>
      <trkpt lat="50.03678" lon="2.32743">
        <ele>136</ele>
        <time>2023-10-25T13:06:10Z</time>
      </trkpt>
      <trkpt lat="50.03679" lon="2.32742">
        <ele>136</ele>
        <time>2023-10-25T13:06:11Z</time>
      </trkpt>
      <trkpt lat="50.0368" lon="2.32741">
        <ele>136</ele>
        <time>2023-10-25T13:06:12Z</time>
      </trkpt>
      <trkpt lat="50.03682" lon="2.32739">
        <ele>135.9</ele>
        <time>2023-10-25T13:06:13Z</time>
      </trkpt>
      <trkpt lat="50.03683" lon="2.32738">
        <ele>135.9</ele>
        <time>2023-10-25T13:06:14Z</time>
      </trkpt>
      <trkpt lat="50.03683" lon="2.32737">
        <ele>135.9</ele>
        <time>2023-10-25T13:06:15Z</time>
      </trkpt>
      <trkpt lat="50.03685" lon="2.32736">
        <ele>135.9</ele>
        <time>2023-10-25T13:06:16Z</time>
      </trkpt>
      <trkpt lat="50.03686" lon="2.32736">
        <ele>135.9</ele>
        <time>2023-10-25T13:06:17Z</time>
      </trkpt>
      <trkpt lat="50.03687" lon="2.32735">
        <ele>135.9</ele>
        <time>2023-10-25T13:06:18Z</time>
      </trkpt>
      <trkpt lat="50.03689" lon="2.32734">
        <ele>135.9</ele>
        <time>2023-10-25T13:06:19Z</time>
      </trkpt>
      <trkpt lat="50.03689" lon="2.32733">
        <ele>135.9</ele>
        <time>2023-10-25T13:06:20Z</time>
      </trkpt>
      <trkpt lat="50.0369" lon="2.32733">
        <ele>135.9</ele>
        <time>2023-10-25T13:06:21Z</time>
      </trkpt>
      <trkpt lat="50.03691" lon="2.32732">
        <ele>135.8</ele>
        <time>2023-10-25T13:06:22Z</time>
      </trkpt>
      <trkpt lat="50.03692" lon="2.32731">
        <ele>135.8</ele>
        <time>2023-10-25T13:06:23Z</time>
      </trkpt>
      <trkpt lat="50.03693" lon="2.32731">
        <ele>135.8</ele>
        <time>2023-10-25T13:06:24Z</time>
      </trkpt>
      <trkpt lat="50.03694" lon="2.3273">
        <ele>135.8</ele>
        <time>2023-10-25T13:06:25Z</time>
      </trkpt>
      <trkpt lat="50.03695" lon="2.32729">
        <ele>135.8</ele>
        <time>2023-10-25T13:06:26Z</time>
      </trkpt>
      <trkpt lat="50.03696" lon="2.32729">
        <ele>135.8</ele>
        <time>2023-10-25T13:06:27Z</time>
      </trkpt>
      <trkpt lat="50.03698" lon="2.32727">
        <ele>135.8</ele>
        <time>2023-10-25T13:06:28Z</time>
      </trkpt>
      <trkpt lat="50.03699" lon="2.32727">
        <ele>135.8</ele>
        <time>2023-10-25T13:06:29Z</time>
      </trkpt>
      <trkpt lat="50.037" lon="2.32726">
        <ele>135.8</ele>
        <time>2023-10-25T13:06:30Z</time>
      </trkpt>
      <trkpt lat="50.03702" lon="2.32725">
        <ele>135.7</ele>
        <time>2023-10-25T13:06:31Z</time>
      </trkpt>
      <trkpt lat="50.03702" lon="2.32724">
        <ele>135.7</ele>
        <time>2023-10-25T13:06:32Z</time>
      </trkpt>
      <trkpt lat="50.03703" lon="2.32724">
        <ele>135.7</ele>
        <time>2023-10-25T13:06:33Z</time>
      </trkpt>
      <trkpt lat="50.03704" lon="2.32723">
        <ele>135.7</ele>
        <time>2023-10-25T13:06:34Z</time>
      </trkpt>
      <trkpt lat="50.03705" lon="2.32722">
        <ele>135.7</ele>
        <time>2023-10-25T13:06:35Z</time>
      </trkpt>
      <trkpt lat="50.03706" lon="2.32721">
        <ele>135.6</ele>
        <time>2023-10-25T13:06:36Z</time>
      </trkpt>
      <trkpt lat="50.03707" lon="2.3272">
        <ele>135.6</ele>
        <time>2023-10-25T13:06:37Z</time>
      </trkpt>
      <trkpt lat="50.03708" lon="2.32719">
        <ele>135.6</ele>
        <time>2023-10-25T13:06:38Z</time>
      </trkpt>
      <trkpt lat="50.03708" lon="2.32718">
        <ele>135.6</ele>
        <time>2023-10-25T13:06:39Z</time>
      </trkpt>
      <trkpt lat="50.03709" lon="2.32716">
        <ele>135.6</ele>
        <time>2023-10-25T13:06:40Z</time>
      </trkpt>
      <trkpt lat="50.0371" lon="2.32715">
        <ele>135.6</ele>
        <time>2023-10-25T13:06:41Z</time>
      </trkpt>
      <trkpt lat="50.03711" lon="2.32714">
        <ele>135.5</ele>
        <time>2023-10-25T13:06:42Z</time>
      </trkpt>
      <trkpt lat="50.03712" lon="2.32713">
        <ele>135.5</ele>
        <time>2023-10-25T13:06:43Z</time>
      </trkpt>
      <trkpt lat="50.03713" lon="2.32711">
        <ele>135.5</ele>
        <time>2023-10-25T13:06:44Z</time>
      </trkpt>
      <trkpt lat="50.03714" lon="2.3271">
        <ele>135.5</ele>
        <time>2023-10-25T13:06:45Z</time>
      </trkpt>
      <trkpt lat="50.03715" lon="2.32709">
        <ele>135.5</ele>
        <time>2023-10-25T13:06:46Z</time>
      </trkpt>
      <trkpt lat="50.03716" lon="2.32709">
        <ele>135.4</ele>
        <time>2023-10-25T13:06:47Z</time>
      </trkpt>
      <trkpt lat="50.03716" lon="2.32708">
        <ele>135.4</ele>
        <time>2023-10-25T13:06:48Z</time>
      </trkpt>
      <trkpt lat="50.03717" lon="2.32707">
        <ele>135.4</ele>
        <time>2023-10-25T13:06:49Z</time>
      </trkpt>
      <trkpt lat="50.03718" lon="2.32706">
        <ele>135.4</ele>
        <time>2023-10-25T13:06:50Z</time>
      </trkpt>
      <trkpt lat="50.03719" lon="2.32705">
        <ele>135.4</ele>
        <time>2023-10-25T13:06:51Z</time>
      </trkpt>
      <trkpt lat="50.0372" lon="2.32704">
        <ele>135.4</ele>
        <time>2023-10-25T13:06:52Z</time>
      </trkpt>
      <trkpt lat="50.03721" lon="2.32704">
        <ele>135.3</ele>
        <time>2023-10-25T13:06:53Z</time>
      </trkpt>
      <trkpt lat="50.03722" lon="2.32703">
        <ele>135.3</ele>
        <time>2023-10-25T13:06:54Z</time>
      </trkpt>
      <trkpt lat="50.03723" lon="2.32702">
        <ele>135.3</ele>
        <time>2023-10-25T13:06:55Z</time>
      </trkpt>
      <trkpt lat="50.03724" lon="2.32701">
        <ele>135.3</ele>
        <time>2023-10-25T13:06:56Z</time>
      </trkpt>
      <trkpt lat="50.03725" lon="2.327">
        <ele>135.3</ele>
        <time>2023-10-25T13:06:57Z</time>
      </trkpt>
      <trkpt lat="50.03725" lon="2.327">
        <ele>135.3</ele>
        <time>2023-10-25T13:06:58Z</time>
      </trkpt>
      <trkpt lat="50.03726" lon="2.32699">
        <ele>135.3</ele>
        <time>2023-10-25T13:06:59Z</time>
      </trkpt>
      <trkpt lat="50.03727" lon="2.32698">
        <ele>135.3</ele>
        <time>2023-10-25T13:07:00Z</time>
      </trkpt>
      <trkpt lat="50.03728" lon="2.32697">
        <ele>135.3</ele>
        <time>2023-10-25T13:07:01Z</time>
      </trkpt>
      <trkpt lat="50.03729" lon="2.32696">
        <ele>135.2</ele>
        <time>2023-10-25T13:07:02Z</time>
      </trkpt>
      <trkpt lat="50.0373" lon="2.32695">
        <ele>135.2</ele>
        <time>2023-10-25T13:07:03Z</time>
      </trkpt>
      <trkpt lat="50.0373" lon="2.32694">
        <ele>135.2</ele>
        <time>2023-10-25T13:07:04Z</time>
      </trkpt>
      <trkpt lat="50.03731" lon="2.32694">
        <ele>135.2</ele>
        <time>2023-10-25T13:07:05Z</time>
      </trkpt>
      <trkpt lat="50.03732" lon="2.32693">
        <ele>135.2</ele>
        <time>2023-10-25T13:07:06Z</time>
      </trkpt>
      <trkpt lat="50.03733" lon="2.32692">
        <ele>135.2</ele>
        <time>2023-10-25T13:07:07Z</time>
      </trkpt>
      <trkpt lat="50.03734" lon="2.32691">
        <ele>135.2</ele>
        <time>2023-10-25T13:07:08Z</time>
      </trkpt>
      <trkpt lat="50.03735" lon="2.3269">
        <ele>135.2</ele>
        <time>2023-10-25T13:07:09Z</time>
      </trkpt>
      <trkpt lat="50.03736" lon="2.32689">
        <ele>135.2</ele>
        <time>2023-10-25T13:07:10Z</time>
      </trkpt>
      <trkpt lat="50.03737" lon="2.32688">
        <ele>135.2</ele>
        <time>2023-10-25T13:07:11Z</time>
      </trkpt>
      <trkpt lat="50.03738" lon="2.32688">
        <ele>135.2</ele>
        <time>2023-10-25T13:07:12Z</time>
      </trkpt>
      <trkpt lat="50.03739" lon="2.32687">
        <ele>135.2</ele>
        <time>2023-10-25T13:07:13Z</time>
      </trkpt>
      <trkpt lat="50.0374" lon="2.32686">
        <ele>135.2</ele>
        <time>2023-10-25T13:07:14Z</time>
      </trkpt>
      <trkpt lat="50.0374" lon="2.32685">
        <ele>135.2</ele>
        <time>2023-10-25T13:07:15Z</time>
      </trkpt>
      <trkpt lat="50.03741" lon="2.32684">
        <ele>135.1</ele>
        <time>2023-10-25T13:07:16Z</time>
      </trkpt>
      <trkpt lat="50.03742" lon="2.32683">
        <ele>135.1</ele>
        <time>2023-10-25T13:07:17Z</time>
      </trkpt>
      <trkpt lat="50.03743" lon="2.32682">
        <ele>135.1</ele>
        <time>2023-10-25T13:07:18Z</time>
      </trkpt>
      <trkpt lat="50.03744" lon="2.32681">
        <ele>135.1</ele>
        <time>2023-10-25T13:07:19Z</time>
      </trkpt>
      <trkpt lat="50.03745" lon="2.3268">
        <ele>135.1</ele>
        <time>2023-10-25T13:07:20Z</time>
      </trkpt>
      <trkpt lat="50.03746" lon="2.32679">
        <ele>135.1</ele>
        <time>2023-10-25T13:07:21Z</time>
      </trkpt>
      <trkpt lat="50.03747" lon="2.32679">
        <ele>135.1</ele>
        <time>2023-10-25T13:07:22Z</time>
      </trkpt>
      <trkpt lat="50.03748" lon="2.32678">
        <ele>135.1</ele>
        <time>2023-10-25T13:07:23Z</time>
      </trkpt>
      <trkpt lat="50.03749" lon="2.32678">
        <ele>135.1</ele>
        <time>2023-10-25T13:07:24Z</time>
      </trkpt>
      <trkpt lat="50.0375" lon="2.32677">
        <ele>135.1</ele>
        <time>2023-10-25T13:07:25Z</time>
      </trkpt>
      <trkpt lat="50.03751" lon="2.32677">
        <ele>135</ele>
        <time>2023-10-25T13:07:26Z</time>
      </trkpt>
      <trkpt lat="50.03752" lon="2.32676">
        <ele>135</ele>
        <time>2023-10-25T13:07:27Z</time>
      </trkpt>
      <trkpt lat="50.03754" lon="2.32675">
        <ele>135</ele>
        <time>2023-10-25T13:07:28Z</time>
      </trkpt>
      <trkpt lat="50.03755" lon="2.32675">
        <ele>135</ele>
        <time>2023-10-25T13:07:29Z</time>
      </trkpt>
      <trkpt lat="50.03756" lon="2.32674">
        <ele>135</ele>
        <time>2023-10-25T13:07:30Z</time>
      </trkpt>
      <trkpt lat="50.03758" lon="2.32673">
        <ele>135</ele>
        <time>2023-10-25T13:07:31Z</time>
      </trkpt>
      <trkpt lat="50.03759" lon="2.32673">
        <ele>135</ele>
        <time>2023-10-25T13:07:32Z</time>
      </trkpt>
      <trkpt lat="50.03759" lon="2.32673">
        <ele>135</ele>
        <time>2023-10-25T13:07:33Z</time>
      </trkpt>
      <trkpt lat="50.0376" lon="2.32672">
        <ele>135</ele>
        <time>2023-10-25T13:07:34Z</time>
      </trkpt>
      <trkpt lat="50.03761" lon="2.32672">
        <ele>135</ele>
        <time>2023-10-25T13:07:35Z</time>
      </trkpt>
      <trkpt lat="50.03762" lon="2.32672">
        <ele>135</ele>
        <time>2023-10-25T13:07:36Z</time>
      </trkpt>
      <trkpt lat="50.03763" lon="2.32671">
        <ele>134.9</ele>
        <time>2023-10-25T13:07:37Z</time>
      </trkpt>
      <trkpt lat="50.03764" lon="2.32671">
        <ele>134.9</ele>
        <time>2023-10-25T13:07:38Z</time>
      </trkpt>
      <trkpt lat="50.03765" lon="2.3267">
        <ele>134.9</ele>
        <time>2023-10-25T13:07:39Z</time>
      </trkpt>
      <trkpt lat="50.03766" lon="2.32669">
        <ele>134.9</ele>
        <time>2023-10-25T13:07:40Z</time>
      </trkpt>
      <trkpt lat="50.03767" lon="2.32668">
        <ele>134.9</ele>
        <time>2023-10-25T13:07:41Z</time>
      </trkpt>
      <trkpt lat="50.03768" lon="2.32668">
        <ele>134.9</ele>
        <time>2023-10-25T13:07:42Z</time>
      </trkpt>
      <trkpt lat="50.03768" lon="2.32667">
        <ele>134.9</ele>
        <time>2023-10-25T13:07:43Z</time>
      </trkpt>
      <trkpt lat="50.03769" lon="2.32666">
        <ele>134.8</ele>
        <time>2023-10-25T13:07:44Z</time>
      </trkpt>
      <trkpt lat="50.03769" lon="2.32665">
        <ele>134.8</ele>
        <time>2023-10-25T13:07:45Z</time>
      </trkpt>
      <trkpt lat="50.0377" lon="2.32664">
        <ele>134.8</ele>
        <time>2023-10-25T13:07:46Z</time>
      </trkpt>
      <trkpt lat="50.03771" lon="2.32664">
        <ele>134.8</ele>
        <time>2023-10-25T13:07:47Z</time>
      </trkpt>
      <trkpt lat="50.03772" lon="2.32663">
        <ele>134.8</ele>
        <time>2023-10-25T13:07:48Z</time>
      </trkpt>
      <trkpt lat="50.03773" lon="2.32662">
        <ele>134.8</ele>
        <time>2023-10-25T13:07:49Z</time>
      </trkpt>
      <trkpt lat="50.03774" lon="2.32661">
        <ele>134.8</ele>
        <time>2023-10-25T13:07:50Z</time>
      </trkpt>
      <trkpt lat="50.03775" lon="2.3266">
        <ele>134.7</ele>
        <time>2023-10-25T13:07:51Z</time>
      </trkpt>
      <trkpt lat="50.03776" lon="2.32659">
        <ele>134.7</ele>
        <time>2023-10-25T13:07:52Z</time>
      </trkpt>
      <trkpt lat="50.03776" lon="2.32659">
        <ele>134.7</ele>
        <time>2023-10-25T13:07:53Z</time>
      </trkpt>
      <trkpt lat="50.03777" lon="2.32658">
        <ele>134.7</ele>
        <time>2023-10-25T13:07:54Z</time>
      </trkpt>
      <trkpt lat="50.03778" lon="2.32657">
        <ele>134.7</ele>
        <time>2023-10-25T13:07:55Z</time>
      </trkpt>
      <trkpt lat="50.03779" lon="2.32656">
        <ele>134.7</ele>
        <time>2023-10-25T13:07:56Z</time>
      </trkpt>
      <trkpt lat="50.0378" lon="2.32655">
        <ele>134.7</ele>
        <time>2023-10-25T13:07:57Z</time>
      </trkpt>
      <trkpt lat="50.03781" lon="2.32655">
        <ele>134.6</ele>
        <time>2023-10-25T13:07:58Z</time>
      </trkpt>
      <trkpt lat="50.03782" lon="2.32654">
        <ele>134.6</ele>
        <time>2023-10-25T13:07:59Z</time>
      </trkpt>
      <trkpt lat="50.03783" lon="2.32653">
        <ele>134.6</ele>
        <time>2023-10-25T13:08:00Z</time>
      </trkpt>
      <trkpt lat="50.03784" lon="2.32652">
        <ele>134.6</ele>
        <time>2023-10-25T13:08:01Z</time>
      </trkpt>
      <trkpt lat="50.03785" lon="2.32652">
        <ele>134.6</ele>
        <time>2023-10-25T13:08:02Z</time>
      </trkpt>
      <trkpt lat="50.03786" lon="2.32651">
        <ele>134.6</ele>
        <time>2023-10-25T13:08:03Z</time>
      </trkpt>
      <trkpt lat="50.03787" lon="2.3265">
        <ele>134.5</ele>
        <time>2023-10-25T13:08:04Z</time>
      </trkpt>
      <trkpt lat="50.03788" lon="2.32649">
        <ele>134.5</ele>
        <time>2023-10-25T13:08:05Z</time>
      </trkpt>
      <trkpt lat="50.03789" lon="2.32648">
        <ele>134.5</ele>
        <time>2023-10-25T13:08:06Z</time>
      </trkpt>
      <trkpt lat="50.0379" lon="2.32647">
        <ele>134.5</ele>
        <time>2023-10-25T13:08:07Z</time>
      </trkpt>
      <trkpt lat="50.03792" lon="2.32645">
        <ele>134.5</ele>
        <time>2023-10-25T13:08:08Z</time>
      </trkpt>
      <trkpt lat="50.03792" lon="2.32645">
        <ele>134.5</ele>
        <time>2023-10-25T13:08:09Z</time>
      </trkpt>
      <trkpt lat="50.03793" lon="2.32644">
        <ele>134.4</ele>
        <time>2023-10-25T13:08:10Z</time>
      </trkpt>
      <trkpt lat="50.03794" lon="2.32643">
        <ele>134.4</ele>
        <time>2023-10-25T13:08:11Z</time>
      </trkpt>
      <trkpt lat="50.03795" lon="2.32642">
        <ele>134.4</ele>
        <time>2023-10-25T13:08:12Z</time>
      </trkpt>
      <trkpt lat="50.03795" lon="2.32641">
        <ele>134.4</ele>
        <time>2023-10-25T13:08:13Z</time>
      </trkpt>
      <trkpt lat="50.03796" lon="2.3264">
        <ele>134.4</ele>
        <time>2023-10-25T13:08:14Z</time>
      </trkpt>
      <trkpt lat="50.03797" lon="2.32639">
        <ele>134.3</ele>
        <time>2023-10-25T13:08:15Z</time>
      </trkpt>
      <trkpt lat="50.03798" lon="2.32638">
        <ele>134.3</ele>
        <time>2023-10-25T13:08:16Z</time>
      </trkpt>
      <trkpt lat="50.03799" lon="2.32638">
        <ele>134.3</ele>
        <time>2023-10-25T13:08:17Z</time>
      </trkpt>
      <trkpt lat="50.038" lon="2.32637">
        <ele>134.3</ele>
        <time>2023-10-25T13:08:18Z</time>
      </trkpt>
      <trkpt lat="50.03801" lon="2.32636">
        <ele>134.3</ele>
        <time>2023-10-25T13:08:19Z</time>
      </trkpt>
      <trkpt lat="50.03802" lon="2.32635">
        <ele>134.2</ele>
        <time>2023-10-25T13:08:20Z</time>
      </trkpt>
      <trkpt lat="50.03803" lon="2.32634">
        <ele>134.2</ele>
        <time>2023-10-25T13:08:21Z</time>
      </trkpt>
      <trkpt lat="50.03804" lon="2.32633">
        <ele>134.2</ele>
        <time>2023-10-25T13:08:22Z</time>
      </trkpt>
      <trkpt lat="50.03804" lon="2.32632">
        <ele>134.2</ele>
        <time>2023-10-25T13:08:23Z</time>
      </trkpt>
      <trkpt lat="50.03805" lon="2.32631">
        <ele>134.1</ele>
        <time>2023-10-25T13:08:24Z</time>
      </trkpt>
      <trkpt lat="50.03806" lon="2.3263">
        <ele>134.1</ele>
        <time>2023-10-25T13:08:25Z</time>
      </trkpt>
      <trkpt lat="50.03807" lon="2.32629">
        <ele>134.1</ele>
        <time>2023-10-25T13:08:26Z</time>
      </trkpt>
      <trkpt lat="50.03808" lon="2.32629">
        <ele>134.1</ele>
        <time>2023-10-25T13:08:27Z</time>
      </trkpt>
      <trkpt lat="50.03809" lon="2.32628">
        <ele>134</ele>
        <time>2023-10-25T13:08:28Z</time>
      </trkpt>
      <trkpt lat="50.0381" lon="2.32627">
        <ele>134</ele>
        <time>2023-10-25T13:08:29Z</time>
      </trkpt>
      <trkpt lat="50.03811" lon="2.32626">
        <ele>134</ele>
        <time>2023-10-25T13:08:30Z</time>
      </trkpt>
      <trkpt lat="50.03812" lon="2.32625">
        <ele>133.9</ele>
        <time>2023-10-25T13:08:31Z</time>
      </trkpt>
      <trkpt lat="50.03813" lon="2.32624">
        <ele>133.9</ele>
        <time>2023-10-25T13:08:32Z</time>
      </trkpt>
      <trkpt lat="50.03814" lon="2.32623">
        <ele>133.9</ele>
        <time>2023-10-25T13:08:33Z</time>
      </trkpt>
      <trkpt lat="50.03815" lon="2.32623">
        <ele>133.9</ele>
        <time>2023-10-25T13:08:34Z</time>
      </trkpt>
      <trkpt lat="50.03816" lon="2.32622">
        <ele>133.8</ele>
        <time>2023-10-25T13:08:35Z</time>
      </trkpt>
      <trkpt lat="50.03817" lon="2.32621">
        <ele>133.8</ele>
        <time>2023-10-25T13:08:36Z</time>
      </trkpt>
      <trkpt lat="50.03818" lon="2.3262">
        <ele>133.8</ele>
        <time>2023-10-25T13:08:37Z</time>
      </trkpt>
      <trkpt lat="50.03819" lon="2.32619">
        <ele>133.8</ele>
        <time>2023-10-25T13:08:38Z</time>
      </trkpt>
      <trkpt lat="50.0382" lon="2.32618">
        <ele>133.8</ele>
        <time>2023-10-25T13:08:39Z</time>
      </trkpt>
      <trkpt lat="50.03821" lon="2.32617">
        <ele>133.7</ele>
        <time>2023-10-25T13:08:40Z</time>
      </trkpt>
      <trkpt lat="50.03822" lon="2.32617">
        <ele>133.7</ele>
        <time>2023-10-25T13:08:41Z</time>
      </trkpt>
      <trkpt lat="50.03822" lon="2.32616">
        <ele>133.7</ele>
        <time>2023-10-25T13:08:42Z</time>
      </trkpt>
      <trkpt lat="50.03823" lon="2.32615">
        <ele>133.7</ele>
        <time>2023-10-25T13:08:43Z</time>
      </trkpt>
      <trkpt lat="50.03824" lon="2.32614">
        <ele>133.7</ele>
        <time>2023-10-25T13:08:44Z</time>
      </trkpt>
      <trkpt lat="50.03825" lon="2.32613">
        <ele>133.7</ele>
        <time>2023-10-25T13:08:45Z</time>
      </trkpt>
      <trkpt lat="50.03826" lon="2.32613">
        <ele>133.7</ele>
        <time>2023-10-25T13:08:46Z</time>
      </trkpt>
      <trkpt lat="50.03827" lon="2.32612">
        <ele>133.7</ele>
        <time>2023-10-25T13:08:47Z</time>
      </trkpt>
      <trkpt lat="50.03828" lon="2.32611">
        <ele>133.7</ele>
        <time>2023-10-25T13:08:48Z</time>
      </trkpt>
      <trkpt lat="50.03829" lon="2.3261">
        <ele>133.7</ele>
        <time>2023-10-25T13:08:49Z</time>
      </trkpt>
      <trkpt lat="50.0383" lon="2.32609">
        <ele>133.7</ele>
        <time>2023-10-25T13:08:50Z</time>
      </trkpt>
      <trkpt lat="50.03831" lon="2.32608">
        <ele>133.7</ele>
        <time>2023-10-25T13:08:51Z</time>
      </trkpt>
      <trkpt lat="50.03832" lon="2.32608">
        <ele>133.7</ele>
        <time>2023-10-25T13:08:52Z</time>
      </trkpt>
      <trkpt lat="50.03832" lon="2.32607">
        <ele>133.7</ele>
        <time>2023-10-25T13:08:53Z</time>
      </trkpt>
      <trkpt lat="50.03833" lon="2.32606">
        <ele>133.7</ele>
        <time>2023-10-25T13:08:54Z</time>
      </trkpt>
      <trkpt lat="50.03834" lon="2.32605">
        <ele>133.7</ele>
        <time>2023-10-25T13:08:55Z</time>
      </trkpt>
      <trkpt lat="50.03835" lon="2.32605">
        <ele>133.7</ele>
        <time>2023-10-25T13:08:56Z</time>
      </trkpt>
      <trkpt lat="50.03836" lon="2.32604">
        <ele>133.7</ele>
        <time>2023-10-25T13:08:57Z</time>
      </trkpt>
      <trkpt lat="50.03837" lon="2.32603">
        <ele>133.6</ele>
        <time>2023-10-25T13:08:58Z</time>
      </trkpt>
      <trkpt lat="50.03838" lon="2.32602">
        <ele>133.6</ele>
        <time>2023-10-25T13:08:59Z</time>
      </trkpt>
      <trkpt lat="50.0384" lon="2.32601">
        <ele>133.6</ele>
        <time>2023-10-25T13:09:00Z</time>
      </trkpt>
      <trkpt lat="50.03841" lon="2.32601">
        <ele>133.6</ele>
        <time>2023-10-25T13:09:01Z</time>
      </trkpt>
      <trkpt lat="50.03842" lon="2.326">
        <ele>133.6</ele>
        <time>2023-10-25T13:09:02Z</time>
      </trkpt>
      <trkpt lat="50.03843" lon="2.326">
        <ele>133.6</ele>
        <time>2023-10-25T13:09:03Z</time>
      </trkpt>
      <trkpt lat="50.03844" lon="2.32599">
        <ele>133.6</ele>
        <time>2023-10-25T13:09:04Z</time>
      </trkpt>
      <trkpt lat="50.03846" lon="2.32598">
        <ele>133.6</ele>
        <time>2023-10-25T13:09:05Z</time>
      </trkpt>
      <trkpt lat="50.03846" lon="2.32598">
        <ele>133.6</ele>
        <time>2023-10-25T13:09:06Z</time>
      </trkpt>
      <trkpt lat="50.03847" lon="2.32598">
        <ele>133.6</ele>
        <time>2023-10-25T13:09:07Z</time>
      </trkpt>
      <trkpt lat="50.03849" lon="2.32596">
        <ele>133.6</ele>
        <time>2023-10-25T13:09:08Z</time>
      </trkpt>
      <trkpt lat="50.0385" lon="2.32596">
        <ele>133.6</ele>
        <time>2023-10-25T13:09:09Z</time>
      </trkpt>
      <trkpt lat="50.03851" lon="2.32596">
        <ele>133.6</ele>
        <time>2023-10-25T13:09:10Z</time>
      </trkpt>
      <trkpt lat="50.03853" lon="2.32595">
        <ele>133.6</ele>
        <time>2023-10-25T13:09:11Z</time>
      </trkpt>
      <trkpt lat="50.03854" lon="2.32594">
        <ele>133.6</ele>
        <time>2023-10-25T13:09:12Z</time>
      </trkpt>
      <trkpt lat="50.03855" lon="2.32594">
        <ele>133.6</ele>
        <time>2023-10-25T13:09:13Z</time>
      </trkpt>
      <trkpt lat="50.03855" lon="2.32594">
        <ele>133.5</ele>
        <time>2023-10-25T13:09:14Z</time>
      </trkpt>
      <trkpt lat="50.03856" lon="2.32593">
        <ele>133.5</ele>
        <time>2023-10-25T13:09:15Z</time>
      </trkpt>
      <trkpt lat="50.03857" lon="2.32592">
        <ele>133.5</ele>
        <time>2023-10-25T13:09:16Z</time>
      </trkpt>
      <trkpt lat="50.03858" lon="2.32592">
        <ele>133.5</ele>
        <time>2023-10-25T13:09:17Z</time>
      </trkpt>
      <trkpt lat="50.03859" lon="2.32591">
        <ele>133.5</ele>
        <time>2023-10-25T13:09:18Z</time>
      </trkpt>
      <trkpt lat="50.0386" lon="2.3259">
        <ele>133.5</ele>
        <time>2023-10-25T13:09:19Z</time>
      </trkpt>
      <trkpt lat="50.03862" lon="2.32588">
        <ele>133.5</ele>
        <time>2023-10-25T13:09:20Z</time>
      </trkpt>
      <trkpt lat="50.03863" lon="2.32588">
        <ele>133.5</ele>
        <time>2023-10-25T13:09:21Z</time>
      </trkpt>
      <trkpt lat="50.03863" lon="2.32587">
        <ele>133.5</ele>
        <time>2023-10-25T13:09:22Z</time>
      </trkpt>
      <trkpt lat="50.03864" lon="2.32586">
        <ele>133.5</ele>
        <time>2023-10-25T13:09:23Z</time>
      </trkpt>
      <trkpt lat="50.03866" lon="2.32586">
        <ele>133.5</ele>
        <time>2023-10-25T13:09:24Z</time>
      </trkpt>
      <trkpt lat="50.03866" lon="2.32585">
        <ele>133.4</ele>
        <time>2023-10-25T13:09:25Z</time>
      </trkpt>
      <trkpt lat="50.03867" lon="2.32584">
        <ele>133.4</ele>
        <time>2023-10-25T13:09:26Z</time>
      </trkpt>
      <trkpt lat="50.03868" lon="2.32583">
        <ele>133.4</ele>
        <time>2023-10-25T13:09:27Z</time>
      </trkpt>
      <trkpt lat="50.03869" lon="2.32583">
        <ele>133.4</ele>
        <time>2023-10-25T13:09:28Z</time>
      </trkpt>
      <trkpt lat="50.0387" lon="2.32582">
        <ele>133.4</ele>
        <time>2023-10-25T13:09:29Z</time>
      </trkpt>
      <trkpt lat="50.03871" lon="2.32581">
        <ele>133.4</ele>
        <time>2023-10-25T13:09:30Z</time>
      </trkpt>
      <trkpt lat="50.03872" lon="2.3258">
        <ele>133.4</ele>
        <time>2023-10-25T13:09:31Z</time>
      </trkpt>
      <trkpt lat="50.03874" lon="2.32578">
        <ele>133.3</ele>
        <time>2023-10-25T13:09:32Z</time>
      </trkpt>
      <trkpt lat="50.03875" lon="2.32578">
        <ele>133.3</ele>
        <time>2023-10-25T13:09:33Z</time>
      </trkpt>
      <trkpt lat="50.03875" lon="2.32577">
        <ele>133.3</ele>
        <time>2023-10-25T13:09:34Z</time>
      </trkpt>
      <trkpt lat="50.03876" lon="2.32576">
        <ele>133.3</ele>
        <time>2023-10-25T13:09:35Z</time>
      </trkpt>
      <trkpt lat="50.03877" lon="2.32576">
        <ele>133.3</ele>
        <time>2023-10-25T13:09:36Z</time>
      </trkpt>
      <trkpt lat="50.03878" lon="2.32575">
        <ele>133.3</ele>
        <time>2023-10-25T13:09:37Z</time>
      </trkpt>
      <trkpt lat="50.03879" lon="2.32574">
        <ele>133.2</ele>
        <time>2023-10-25T13:09:38Z</time>
      </trkpt>
      <trkpt lat="50.0388" lon="2.32573">
        <ele>133.2</ele>
        <time>2023-10-25T13:09:39Z</time>
      </trkpt>
      <trkpt lat="50.03881" lon="2.32573">
        <ele>133.2</ele>
        <time>2023-10-25T13:09:40Z</time>
      </trkpt>
      <trkpt lat="50.03883" lon="2.32571">
        <ele>133.2</ele>
        <time>2023-10-25T13:09:41Z</time>
      </trkpt>
      <trkpt lat="50.03884" lon="2.3257">
        <ele>133.2</ele>
        <time>2023-10-25T13:09:42Z</time>
      </trkpt>
      <trkpt lat="50.03885" lon="2.3257">
        <ele>133.2</ele>
        <time>2023-10-25T13:09:43Z</time>
      </trkpt>
      <trkpt lat="50.03886" lon="2.32569">
        <ele>133.1</ele>
        <time>2023-10-25T13:09:44Z</time>
      </trkpt>
      <trkpt lat="50.03887" lon="2.32569">
        <ele>133.1</ele>
        <time>2023-10-25T13:09:45Z</time>
      </trkpt>
      <trkpt lat="50.03888" lon="2.32568">
        <ele>133.1</ele>
        <time>2023-10-25T13:09:46Z</time>
      </trkpt>
      <trkpt lat="50.03889" lon="2.32567">
        <ele>133.1</ele>
        <time>2023-10-25T13:09:47Z</time>
      </trkpt>
      <trkpt lat="50.0389" lon="2.32567">
        <ele>133.1</ele>
        <time>2023-10-25T13:09:48Z</time>
      </trkpt>
      <trkpt lat="50.03891" lon="2.32566">
        <ele>133.1</ele>
        <time>2023-10-25T13:09:49Z</time>
      </trkpt>
      <trkpt lat="50.03892" lon="2.32565">
        <ele>133.1</ele>
        <time>2023-10-25T13:09:50Z</time>
      </trkpt>
      <trkpt lat="50.03893" lon="2.32565">
        <ele>133.1</ele>
        <time>2023-10-25T13:09:51Z</time>
      </trkpt>
      <trkpt lat="50.03894" lon="2.32564">
        <ele>133.1</ele>
        <time>2023-10-25T13:09:52Z</time>
      </trkpt>
      <trkpt lat="50.03895" lon="2.32563">
        <ele>133.1</ele>
        <time>2023-10-25T13:09:53Z</time>
      </trkpt>
      <trkpt lat="50.03896" lon="2.32562">
        <ele>133.1</ele>
        <time>2023-10-25T13:09:54Z</time>
      </trkpt>
      <trkpt lat="50.03897" lon="2.32561">
        <ele>133</ele>
        <time>2023-10-25T13:09:55Z</time>
      </trkpt>
      <trkpt lat="50.03898" lon="2.32561">
        <ele>133</ele>
        <time>2023-10-25T13:09:56Z</time>
      </trkpt>
      <trkpt lat="50.03899" lon="2.3256">
        <ele>133</ele>
        <time>2023-10-25T13:09:57Z</time>
      </trkpt>
      <trkpt lat="50.03899" lon="2.32559">
        <ele>133</ele>
        <time>2023-10-25T13:09:58Z</time>
      </trkpt>
      <trkpt lat="50.039" lon="2.32558">
        <ele>133</ele>
        <time>2023-10-25T13:09:59Z</time>
      </trkpt>
      <trkpt lat="50.03901" lon="2.32557">
        <ele>133</ele>
        <time>2023-10-25T13:10:00Z</time>
      </trkpt>
      <trkpt lat="50.03902" lon="2.32556">
        <ele>133</ele>
        <time>2023-10-25T13:10:01Z</time>
      </trkpt>
      <trkpt lat="50.03904" lon="2.32554">
        <ele>133</ele>
        <time>2023-10-25T13:10:02Z</time>
      </trkpt>
      <trkpt lat="50.03904" lon="2.32553">
        <ele>133</ele>
        <time>2023-10-25T13:10:03Z</time>
      </trkpt>
      <trkpt lat="50.03905" lon="2.32552">
        <ele>133</ele>
        <time>2023-10-25T13:10:04Z</time>
      </trkpt>
      <trkpt lat="50.03906" lon="2.32551">
        <ele>132.9</ele>
        <time>2023-10-25T13:10:05Z</time>
      </trkpt>
      <trkpt lat="50.03907" lon="2.3255">
        <ele>132.9</ele>
        <time>2023-10-25T13:10:06Z</time>
      </trkpt>
      <trkpt lat="50.03908" lon="2.32549">
        <ele>132.9</ele>
        <time>2023-10-25T13:10:07Z</time>
      </trkpt>
      <trkpt lat="50.03909" lon="2.32548">
        <ele>132.9</ele>
        <time>2023-10-25T13:10:08Z</time>
      </trkpt>
      <trkpt lat="50.03909" lon="2.32548">
        <ele>132.9</ele>
        <time>2023-10-25T13:10:09Z</time>
      </trkpt>
      <trkpt lat="50.0391" lon="2.32547">
        <ele>132.9</ele>
        <time>2023-10-25T13:10:10Z</time>
      </trkpt>
      <trkpt lat="50.03911" lon="2.32546">
        <ele>132.9</ele>
        <time>2023-10-25T13:10:11Z</time>
      </trkpt>
      <trkpt lat="50.03911" lon="2.32545">
        <ele>132.9</ele>
        <time>2023-10-25T13:10:12Z</time>
      </trkpt>
      <trkpt lat="50.03912" lon="2.32543">
        <ele>132.9</ele>
        <time>2023-10-25T13:10:13Z</time>
      </trkpt>
      <trkpt lat="50.03913" lon="2.32542">
        <ele>132.9</ele>
        <time>2023-10-25T13:10:14Z</time>
      </trkpt>
      <trkpt lat="50.03914" lon="2.32541">
        <ele>132.9</ele>
        <time>2023-10-25T13:10:15Z</time>
      </trkpt>
      <trkpt lat="50.03914" lon="2.32541">
        <ele>132.8</ele>
        <time>2023-10-25T13:10:16Z</time>
      </trkpt>
      <trkpt lat="50.03915" lon="2.3254">
        <ele>132.8</ele>
        <time>2023-10-25T13:10:17Z</time>
      </trkpt>
      <trkpt lat="50.03916" lon="2.32539">
        <ele>132.8</ele>
        <time>2023-10-25T13:10:18Z</time>
      </trkpt>
      <trkpt lat="50.03917" lon="2.32538">
        <ele>132.8</ele>
        <time>2023-10-25T13:10:19Z</time>
      </trkpt>
      <trkpt lat="50.03918" lon="2.32537">
        <ele>132.8</ele>
        <time>2023-10-25T13:10:20Z</time>
      </trkpt>
      <trkpt lat="50.03919" lon="2.32536">
        <ele>132.8</ele>
        <time>2023-10-25T13:10:21Z</time>
      </trkpt>
      <trkpt lat="50.0392" lon="2.32535">
        <ele>132.8</ele>
        <time>2023-10-25T13:10:22Z</time>
      </trkpt>
      <trkpt lat="50.0392" lon="2.32535">
        <ele>132.7</ele>
        <time>2023-10-25T13:10:23Z</time>
      </trkpt>
      <trkpt lat="50.03921" lon="2.32534">
        <ele>132.7</ele>
        <time>2023-10-25T13:10:24Z</time>
      </trkpt>
      <trkpt lat="50.03922" lon="2.32533">
        <ele>132.7</ele>
        <time>2023-10-25T13:10:25Z</time>
      </trkpt>
      <trkpt lat="50.03923" lon="2.32532">
        <ele>132.7</ele>
        <time>2023-10-25T13:10:26Z</time>
      </trkpt>
      <trkpt lat="50.03924" lon="2.32531">
        <ele>132.7</ele>
        <time>2023-10-25T13:10:27Z</time>
      </trkpt>
      <trkpt lat="50.03925" lon="2.3253">
        <ele>132.7</ele>
        <time>2023-10-25T13:10:28Z</time>
      </trkpt>
      <trkpt lat="50.03925" lon="2.3253">
        <ele>132.6</ele>
        <time>2023-10-25T13:10:29Z</time>
      </trkpt>
      <trkpt lat="50.03926" lon="2.32529">
        <ele>132.6</ele>
        <time>2023-10-25T13:10:30Z</time>
      </trkpt>
      <trkpt lat="50.03927" lon="2.32528">
        <ele>132.6</ele>
        <time>2023-10-25T13:10:31Z</time>
      </trkpt>
      <trkpt lat="50.03928" lon="2.32527">
        <ele>132.6</ele>
        <time>2023-10-25T13:10:32Z</time>
      </trkpt>
      <trkpt lat="50.03929" lon="2.32526">
        <ele>132.6</ele>
        <time>2023-10-25T13:10:33Z</time>
      </trkpt>
      <trkpt lat="50.0393" lon="2.32525">
        <ele>132.5</ele>
        <time>2023-10-25T13:10:34Z</time>
      </trkpt>
      <trkpt lat="50.03931" lon="2.32524">
        <ele>132.5</ele>
        <time>2023-10-25T13:10:35Z</time>
      </trkpt>
      <trkpt lat="50.03932" lon="2.32523">
        <ele>132.5</ele>
        <time>2023-10-25T13:10:36Z</time>
      </trkpt>
      <trkpt lat="50.03933" lon="2.32522">
        <ele>132.5</ele>
        <time>2023-10-25T13:10:37Z</time>
      </trkpt>
      <trkpt lat="50.03934" lon="2.32521">
        <ele>132.4</ele>
        <time>2023-10-25T13:10:38Z</time>
      </trkpt>
      <trkpt lat="50.03934" lon="2.3252">
        <ele>132.4</ele>
        <time>2023-10-25T13:10:39Z</time>
      </trkpt>
      <trkpt lat="50.03935" lon="2.3252">
        <ele>132.4</ele>
        <time>2023-10-25T13:10:40Z</time>
      </trkpt>
      <trkpt lat="50.03937" lon="2.32518">
        <ele>132.4</ele>
        <time>2023-10-25T13:10:41Z</time>
      </trkpt>
      <trkpt lat="50.03938" lon="2.32518">
        <ele>132.3</ele>
        <time>2023-10-25T13:10:42Z</time>
      </trkpt>
      <trkpt lat="50.03939" lon="2.32517">
        <ele>132.3</ele>
        <time>2023-10-25T13:10:43Z</time>
      </trkpt>
      <trkpt lat="50.03941" lon="2.32515">
        <ele>132.3</ele>
        <time>2023-10-25T13:10:44Z</time>
      </trkpt>
      <trkpt lat="50.03941" lon="2.32515">
        <ele>132.3</ele>
        <time>2023-10-25T13:10:45Z</time>
      </trkpt>
      <trkpt lat="50.03942" lon="2.32514">
        <ele>132.2</ele>
        <time>2023-10-25T13:10:46Z</time>
      </trkpt>
      <trkpt lat="50.03944" lon="2.32512">
        <ele>132.2</ele>
        <time>2023-10-25T13:10:47Z</time>
      </trkpt>
      <trkpt lat="50.03945" lon="2.32511">
        <ele>132.2</ele>
        <time>2023-10-25T13:10:48Z</time>
      </trkpt>
      <trkpt lat="50.03945" lon="2.32511">
        <ele>132.2</ele>
        <time>2023-10-25T13:10:49Z</time>
      </trkpt>
      <trkpt lat="50.03946" lon="2.3251">
        <ele>132.2</ele>
        <time>2023-10-25T13:10:50Z</time>
      </trkpt>
      <trkpt lat="50.03947" lon="2.32509">
        <ele>132.1</ele>
        <time>2023-10-25T13:10:51Z</time>
      </trkpt>
      <trkpt lat="50.03948" lon="2.32508">
        <ele>132.1</ele>
        <time>2023-10-25T13:10:52Z</time>
      </trkpt>
      <trkpt lat="50.03949" lon="2.32507">
        <ele>132.1</ele>
        <time>2023-10-25T13:10:53Z</time>
      </trkpt>
      <trkpt lat="50.0395" lon="2.32506">
        <ele>132.1</ele>
        <time>2023-10-25T13:10:54Z</time>
      </trkpt>
      <trkpt lat="50.03951" lon="2.32505">
        <ele>132.1</ele>
        <time>2023-10-25T13:10:55Z</time>
      </trkpt>
      <trkpt lat="50.03952" lon="2.32504">
        <ele>132.1</ele>
        <time>2023-10-25T13:10:56Z</time>
      </trkpt>
      <trkpt lat="50.03952" lon="2.32503">
        <ele>132</ele>
        <time>2023-10-25T13:10:57Z</time>
      </trkpt>
      <trkpt lat="50.03953" lon="2.32502">
        <ele>132</ele>
        <time>2023-10-25T13:10:58Z</time>
      </trkpt>
      <trkpt lat="50.03954" lon="2.32501">
        <ele>132</ele>
        <time>2023-10-25T13:10:59Z</time>
      </trkpt>
      <trkpt lat="50.03955" lon="2.325">
        <ele>132</ele>
        <time>2023-10-25T13:11:00Z</time>
      </trkpt>
      <trkpt lat="50.03956" lon="2.32499">
        <ele>132</ele>
        <time>2023-10-25T13:11:01Z</time>
      </trkpt>
      <trkpt lat="50.03956" lon="2.32498">
        <ele>132</ele>
        <time>2023-10-25T13:11:02Z</time>
      </trkpt>
      <trkpt lat="50.03957" lon="2.32497">
        <ele>132</ele>
        <time>2023-10-25T13:11:03Z</time>
      </trkpt>
      <trkpt lat="50.03958" lon="2.32496">
        <ele>131.9</ele>
        <time>2023-10-25T13:11:04Z</time>
      </trkpt>
      <trkpt lat="50.03959" lon="2.32495">
        <ele>131.9</ele>
        <time>2023-10-25T13:11:05Z</time>
      </trkpt>
      <trkpt lat="50.0396" lon="2.32494">
        <ele>131.9</ele>
        <time>2023-10-25T13:11:06Z</time>
      </trkpt>
      <trkpt lat="50.03961" lon="2.32493">
        <ele>131.9</ele>
        <time>2023-10-25T13:11:07Z</time>
      </trkpt>
      <trkpt lat="50.03963" lon="2.32492">
        <ele>131.9</ele>
        <time>2023-10-25T13:11:08Z</time>
      </trkpt>
      <trkpt lat="50.03963" lon="2.32491">
        <ele>131.8</ele>
        <time>2023-10-25T13:11:09Z</time>
      </trkpt>
      <trkpt lat="50.03964" lon="2.3249">
        <ele>131.8</ele>
        <time>2023-10-25T13:11:10Z</time>
      </trkpt>
      <trkpt lat="50.03965" lon="2.32489">
        <ele>131.8</ele>
        <time>2023-10-25T13:11:11Z</time>
      </trkpt>
      <trkpt lat="50.03966" lon="2.32488">
        <ele>131.8</ele>
        <time>2023-10-25T13:11:12Z</time>
      </trkpt>
      <trkpt lat="50.03967" lon="2.32487">
        <ele>131.8</ele>
        <time>2023-10-25T13:11:13Z</time>
      </trkpt>
      <trkpt lat="50.03968" lon="2.32486">
        <ele>131.8</ele>
        <time>2023-10-25T13:11:14Z</time>
      </trkpt>
      <trkpt lat="50.03969" lon="2.32485">
        <ele>131.8</ele>
        <time>2023-10-25T13:11:15Z</time>
      </trkpt>
      <trkpt lat="50.03969" lon="2.32484">
        <ele>131.7</ele>
        <time>2023-10-25T13:11:16Z</time>
      </trkpt>
      <trkpt lat="50.0397" lon="2.32483">
        <ele>131.7</ele>
        <time>2023-10-25T13:11:17Z</time>
      </trkpt>
      <trkpt lat="50.03971" lon="2.32482">
        <ele>131.7</ele>
        <time>2023-10-25T13:11:18Z</time>
      </trkpt>
      <trkpt lat="50.03972" lon="2.32481">
        <ele>131.7</ele>
        <time>2023-10-25T13:11:19Z</time>
      </trkpt>
      <trkpt lat="50.03974" lon="2.3248">
        <ele>131.7</ele>
        <time>2023-10-25T13:11:20Z</time>
      </trkpt>
      <trkpt lat="50.03975" lon="2.32479">
        <ele>131.7</ele>
        <time>2023-10-25T13:11:21Z</time>
      </trkpt>
      <trkpt lat="50.03976" lon="2.32479">
        <ele>131.7</ele>
        <time>2023-10-25T13:11:22Z</time>
      </trkpt>
      <trkpt lat="50.03977" lon="2.32478">
        <ele>131.7</ele>
        <time>2023-10-25T13:11:23Z</time>
      </trkpt>
      <trkpt lat="50.03977" lon="2.32477">
        <ele>131.6</ele>
        <time>2023-10-25T13:11:24Z</time>
      </trkpt>
      <trkpt lat="50.03978" lon="2.32476">
        <ele>131.6</ele>
        <time>2023-10-25T13:11:25Z</time>
      </trkpt>
      <trkpt lat="50.03979" lon="2.32475">
        <ele>131.6</ele>
        <time>2023-10-25T13:11:26Z</time>
      </trkpt>
      <trkpt lat="50.0398" lon="2.32474">
        <ele>131.6</ele>
        <time>2023-10-25T13:11:27Z</time>
      </trkpt>
      <trkpt lat="50.03981" lon="2.32473">
        <ele>131.6</ele>
        <time>2023-10-25T13:11:28Z</time>
      </trkpt>
      <trkpt lat="50.03982" lon="2.32472">
        <ele>131.6</ele>
        <time>2023-10-25T13:11:29Z</time>
      </trkpt>
      <trkpt lat="50.03983" lon="2.32471">
        <ele>131.6</ele>
        <time>2023-10-25T13:11:30Z</time>
      </trkpt>
      <trkpt lat="50.03984" lon="2.32469">
        <ele>131.6</ele>
        <time>2023-10-25T13:11:31Z</time>
      </trkpt>
      <trkpt lat="50.03985" lon="2.32468">
        <ele>131.6</ele>
        <time>2023-10-25T13:11:32Z</time>
      </trkpt>
      <trkpt lat="50.03985" lon="2.32467">
        <ele>131.6</ele>
        <time>2023-10-25T13:11:33Z</time>
      </trkpt>
      <trkpt lat="50.03986" lon="2.32466">
        <ele>131.6</ele>
        <time>2023-10-25T13:11:34Z</time>
      </trkpt>
      <trkpt lat="50.03988" lon="2.32465">
        <ele>131.6</ele>
        <time>2023-10-25T13:11:35Z</time>
      </trkpt>
      <trkpt lat="50.03989" lon="2.32464">
        <ele>131.6</ele>
        <time>2023-10-25T13:11:36Z</time>
      </trkpt>
      <trkpt lat="50.03989" lon="2.32463">
        <ele>131.6</ele>
        <time>2023-10-25T13:11:37Z</time>
      </trkpt>
      <trkpt lat="50.0399" lon="2.32462">
        <ele>131.6</ele>
        <time>2023-10-25T13:11:38Z</time>
      </trkpt>
      <trkpt lat="50.03992" lon="2.32462">
        <ele>131.6</ele>
        <time>2023-10-25T13:11:39Z</time>
      </trkpt>
      <trkpt lat="50.03993" lon="2.32461">
        <ele>131.6</ele>
        <time>2023-10-25T13:11:40Z</time>
      </trkpt>
      <trkpt lat="50.03994" lon="2.3246">
        <ele>131.6</ele>
        <time>2023-10-25T13:11:41Z</time>
      </trkpt>
      <trkpt lat="50.03995" lon="2.32459">
        <ele>131.6</ele>
        <time>2023-10-25T13:11:42Z</time>
      </trkpt>
      <trkpt lat="50.03996" lon="2.32459">
        <ele>131.6</ele>
        <time>2023-10-25T13:11:43Z</time>
      </trkpt>
      <trkpt lat="50.03998" lon="2.32457">
        <ele>131.5</ele>
        <time>2023-10-25T13:11:44Z</time>
      </trkpt>
      <trkpt lat="50.03998" lon="2.32457">
        <ele>131.5</ele>
        <time>2023-10-25T13:11:45Z</time>
      </trkpt>
      <trkpt lat="50.03999" lon="2.32456">
        <ele>131.5</ele>
        <time>2023-10-25T13:11:46Z</time>
      </trkpt>
      <trkpt lat="50.04001" lon="2.32454">
        <ele>131.5</ele>
        <time>2023-10-25T13:11:47Z</time>
      </trkpt>
      <trkpt lat="50.04002" lon="2.32454">
        <ele>131.5</ele>
        <time>2023-10-25T13:11:48Z</time>
      </trkpt>
      <trkpt lat="50.04003" lon="2.32453">
        <ele>131.5</ele>
        <time>2023-10-25T13:11:49Z</time>
      </trkpt>
      <trkpt lat="50.04004" lon="2.32452">
        <ele>131.5</ele>
        <time>2023-10-25T13:11:50Z</time>
      </trkpt>
      <trkpt lat="50.04004" lon="2.32452">
        <ele>131.4</ele>
        <time>2023-10-25T13:11:51Z</time>
      </trkpt>
      <trkpt lat="50.04005" lon="2.32451">
        <ele>131.4</ele>
        <time>2023-10-25T13:11:52Z</time>
      </trkpt>
      <trkpt lat="50.04006" lon="2.32451">
        <ele>131.4</ele>
        <time>2023-10-25T13:11:53Z</time>
      </trkpt>
      <trkpt lat="50.04007" lon="2.3245">
        <ele>131.4</ele>
        <time>2023-10-25T13:11:54Z</time>
      </trkpt>
      <trkpt lat="50.04008" lon="2.32449">
        <ele>131.4</ele>
        <time>2023-10-25T13:11:55Z</time>
      </trkpt>
      <trkpt lat="50.04009" lon="2.32448">
        <ele>131.4</ele>
        <time>2023-10-25T13:11:56Z</time>
      </trkpt>
      <trkpt lat="50.0401" lon="2.32448">
        <ele>131.4</ele>
        <time>2023-10-25T13:11:57Z</time>
      </trkpt>
      <trkpt lat="50.04011" lon="2.32447">
        <ele>131.4</ele>
        <time>2023-10-25T13:11:58Z</time>
      </trkpt>
      <trkpt lat="50.04012" lon="2.32446">
        <ele>131.4</ele>
        <time>2023-10-25T13:11:59Z</time>
      </trkpt>
      <trkpt lat="50.04013" lon="2.32445">
        <ele>131.3</ele>
        <time>2023-10-25T13:12:00Z</time>
      </trkpt>
      <trkpt lat="50.04014" lon="2.32444">
        <ele>131.3</ele>
        <time>2023-10-25T13:12:01Z</time>
      </trkpt>
      <trkpt lat="50.04015" lon="2.32443">
        <ele>131.3</ele>
        <time>2023-10-25T13:12:02Z</time>
      </trkpt>
      <trkpt lat="50.04016" lon="2.32442">
        <ele>131.3</ele>
        <time>2023-10-25T13:12:03Z</time>
      </trkpt>
      <trkpt lat="50.04017" lon="2.32442">
        <ele>131.3</ele>
        <time>2023-10-25T13:12:04Z</time>
      </trkpt>
      <trkpt lat="50.04018" lon="2.32441">
        <ele>131.3</ele>
        <time>2023-10-25T13:12:05Z</time>
      </trkpt>
      <trkpt lat="50.04019" lon="2.3244">
        <ele>131.3</ele>
        <time>2023-10-25T13:12:06Z</time>
      </trkpt>
      <trkpt lat="50.0402" lon="2.32439">
        <ele>131.3</ele>
        <time>2023-10-25T13:12:07Z</time>
      </trkpt>
      <trkpt lat="50.04021" lon="2.32439">
        <ele>131.3</ele>
        <time>2023-10-25T13:12:08Z</time>
      </trkpt>
      <trkpt lat="50.04022" lon="2.32438">
        <ele>131.3</ele>
        <time>2023-10-25T13:12:09Z</time>
      </trkpt>
      <trkpt lat="50.04023" lon="2.32437">
        <ele>131.3</ele>
        <time>2023-10-25T13:12:10Z</time>
      </trkpt>
      <trkpt lat="50.04024" lon="2.32437">
        <ele>131.3</ele>
        <time>2023-10-25T13:12:11Z</time>
      </trkpt>
      <trkpt lat="50.04025" lon="2.32436">
        <ele>131.3</ele>
        <time>2023-10-25T13:12:12Z</time>
      </trkpt>
      <trkpt lat="50.04026" lon="2.32436">
        <ele>131.2</ele>
        <time>2023-10-25T13:12:13Z</time>
      </trkpt>
      <trkpt lat="50.04027" lon="2.32435">
        <ele>131.2</ele>
        <time>2023-10-25T13:12:14Z</time>
      </trkpt>
      <trkpt lat="50.04029" lon="2.32434">
        <ele>131.2</ele>
        <time>2023-10-25T13:12:15Z</time>
      </trkpt>
      <trkpt lat="50.0403" lon="2.32434">
        <ele>131.2</ele>
        <time>2023-10-25T13:12:16Z</time>
      </trkpt>
      <trkpt lat="50.04031" lon="2.32433">
        <ele>131.2</ele>
        <time>2023-10-25T13:12:17Z</time>
      </trkpt>
      <trkpt lat="50.04032" lon="2.32433">
        <ele>131.2</ele>
        <time>2023-10-25T13:12:18Z</time>
      </trkpt>
      <trkpt lat="50.04033" lon="2.32433">
        <ele>131.2</ele>
        <time>2023-10-25T13:12:19Z</time>
      </trkpt>
      <trkpt lat="50.04034" lon="2.32432">
        <ele>131.2</ele>
        <time>2023-10-25T13:12:20Z</time>
      </trkpt>
      <trkpt lat="50.04035" lon="2.32432">
        <ele>131.2</ele>
        <time>2023-10-25T13:12:21Z</time>
      </trkpt>
      <trkpt lat="50.04036" lon="2.32431">
        <ele>131.2</ele>
        <time>2023-10-25T13:12:22Z</time>
      </trkpt>
      <trkpt lat="50.04037" lon="2.32431">
        <ele>131.2</ele>
        <time>2023-10-25T13:12:23Z</time>
      </trkpt>
      <trkpt lat="50.04038" lon="2.32431">
        <ele>131.2</ele>
        <time>2023-10-25T13:12:24Z</time>
      </trkpt>
      <trkpt lat="50.0404" lon="2.32431">
        <ele>131.2</ele>
        <time>2023-10-25T13:12:25Z</time>
      </trkpt>
      <trkpt lat="50.04041" lon="2.32431">
        <ele>131.2</ele>
        <time>2023-10-25T13:12:26Z</time>
      </trkpt>
      <trkpt lat="50.04042" lon="2.3243">
        <ele>131.2</ele>
        <time>2023-10-25T13:12:27Z</time>
      </trkpt>
      <trkpt lat="50.04043" lon="2.3243">
        <ele>131.2</ele>
        <time>2023-10-25T13:12:28Z</time>
      </trkpt>
      <trkpt lat="50.04044" lon="2.32429">
        <ele>131.2</ele>
        <time>2023-10-25T13:12:29Z</time>
      </trkpt>
      <trkpt lat="50.04045" lon="2.32429">
        <ele>131.2</ele>
        <time>2023-10-25T13:12:30Z</time>
      </trkpt>
      <trkpt lat="50.04045" lon="2.32428">
        <ele>131.2</ele>
        <time>2023-10-25T13:12:31Z</time>
      </trkpt>
      <trkpt lat="50.04046" lon="2.32428">
        <ele>131.2</ele>
        <time>2023-10-25T13:12:32Z</time>
      </trkpt>
      <trkpt lat="50.04047" lon="2.32427">
        <ele>131.2</ele>
        <time>2023-10-25T13:12:33Z</time>
      </trkpt>
      <trkpt lat="50.04048" lon="2.32427">
        <ele>131.2</ele>
        <time>2023-10-25T13:12:34Z</time>
      </trkpt>
      <trkpt lat="50.04049" lon="2.32427">
        <ele>131.2</ele>
        <time>2023-10-25T13:12:35Z</time>
      </trkpt>
      <trkpt lat="50.0405" lon="2.32426">
        <ele>131.2</ele>
        <time>2023-10-25T13:12:36Z</time>
      </trkpt>
      <trkpt lat="50.04052" lon="2.32426">
        <ele>131.2</ele>
        <time>2023-10-25T13:12:37Z</time>
      </trkpt>
      <trkpt lat="50.04053" lon="2.32425">
        <ele>131.1</ele>
        <time>2023-10-25T13:12:38Z</time>
      </trkpt>
      <trkpt lat="50.04054" lon="2.32425">
        <ele>131.1</ele>
        <time>2023-10-25T13:12:39Z</time>
      </trkpt>
      <trkpt lat="50.04055" lon="2.32424">
        <ele>131.1</ele>
        <time>2023-10-25T13:12:40Z</time>
      </trkpt>
      <trkpt lat="50.04056" lon="2.32424">
        <ele>131.1</ele>
        <time>2023-10-25T13:12:41Z</time>
      </trkpt>
      <trkpt lat="50.04057" lon="2.32424">
        <ele>131.1</ele>
        <time>2023-10-25T13:12:42Z</time>
      </trkpt>
      <trkpt lat="50.04058" lon="2.32424">
        <ele>131.1</ele>
        <time>2023-10-25T13:12:43Z</time>
      </trkpt>
      <trkpt lat="50.04059" lon="2.32423">
        <ele>131.1</ele>
        <time>2023-10-25T13:12:44Z</time>
      </trkpt>
      <trkpt lat="50.0406" lon="2.32423">
        <ele>131.1</ele>
        <time>2023-10-25T13:12:45Z</time>
      </trkpt>
      <trkpt lat="50.04061" lon="2.32423">
        <ele>131.1</ele>
        <time>2023-10-25T13:12:46Z</time>
      </trkpt>
      <trkpt lat="50.04062" lon="2.32423">
        <ele>131.1</ele>
        <time>2023-10-25T13:12:47Z</time>
      </trkpt>
      <trkpt lat="50.04063" lon="2.32422">
        <ele>131.1</ele>
        <time>2023-10-25T13:12:48Z</time>
      </trkpt>
      <trkpt lat="50.04065" lon="2.32422">
        <ele>131.1</ele>
        <time>2023-10-25T13:12:49Z</time>
      </trkpt>
      <trkpt lat="50.04066" lon="2.32422">
        <ele>131.1</ele>
        <time>2023-10-25T13:12:50Z</time>
      </trkpt>
      <trkpt lat="50.04067" lon="2.32421">
        <ele>131.1</ele>
        <time>2023-10-25T13:12:51Z</time>
      </trkpt>
      <trkpt lat="50.04068" lon="2.32421">
        <ele>131.1</ele>
        <time>2023-10-25T13:12:52Z</time>
      </trkpt>
      <trkpt lat="50.04069" lon="2.32421">
        <ele>131.1</ele>
        <time>2023-10-25T13:12:53Z</time>
      </trkpt>
      <trkpt lat="50.0407" lon="2.32421">
        <ele>131.1</ele>
        <time>2023-10-25T13:12:54Z</time>
      </trkpt>
      <trkpt lat="50.04071" lon="2.32421">
        <ele>131.1</ele>
        <time>2023-10-25T13:12:55Z</time>
      </trkpt>
      <trkpt lat="50.04072" lon="2.32421">
        <ele>131.1</ele>
        <time>2023-10-25T13:12:56Z</time>
      </trkpt>
      <trkpt lat="50.04074" lon="2.3242">
        <ele>131.1</ele>
        <time>2023-10-25T13:12:57Z</time>
      </trkpt>
      <trkpt lat="50.04075" lon="2.3242">
        <ele>131.1</ele>
        <time>2023-10-25T13:12:58Z</time>
      </trkpt>
      <trkpt lat="50.04076" lon="2.3242">
        <ele>131.1</ele>
        <time>2023-10-25T13:12:59Z</time>
      </trkpt>
      <trkpt lat="50.04077" lon="2.32419">
        <ele>131.1</ele>
        <time>2023-10-25T13:13:00Z</time>
      </trkpt>
      <trkpt lat="50.04078" lon="2.32419">
        <ele>131.1</ele>
        <time>2023-10-25T13:13:01Z</time>
      </trkpt>
      <trkpt lat="50.04079" lon="2.32418">
        <ele>131.1</ele>
        <time>2023-10-25T13:13:02Z</time>
      </trkpt>
      <trkpt lat="50.0408" lon="2.32418">
        <ele>131.1</ele>
        <time>2023-10-25T13:13:03Z</time>
      </trkpt>
      <trkpt lat="50.04081" lon="2.32417">
        <ele>131.1</ele>
        <time>2023-10-25T13:13:04Z</time>
      </trkpt>
      <trkpt lat="50.04083" lon="2.32417">
        <ele>131</ele>
        <time>2023-10-25T13:13:05Z</time>
      </trkpt>
      <trkpt lat="50.04084" lon="2.32416">
        <ele>131</ele>
        <time>2023-10-25T13:13:06Z</time>
      </trkpt>
      <trkpt lat="50.04085" lon="2.32416">
        <ele>131</ele>
        <time>2023-10-25T13:13:07Z</time>
      </trkpt>
      <trkpt lat="50.04086" lon="2.32415">
        <ele>131</ele>
        <time>2023-10-25T13:13:08Z</time>
      </trkpt>
      <trkpt lat="50.04087" lon="2.32415">
        <ele>131</ele>
        <time>2023-10-25T13:13:09Z</time>
      </trkpt>
      <trkpt lat="50.04088" lon="2.32414">
        <ele>131</ele>
        <time>2023-10-25T13:13:10Z</time>
      </trkpt>
      <trkpt lat="50.04089" lon="2.32414">
        <ele>131</ele>
        <time>2023-10-25T13:13:11Z</time>
      </trkpt>
      <trkpt lat="50.0409" lon="2.32413">
        <ele>131</ele>
        <time>2023-10-25T13:13:12Z</time>
      </trkpt>
      <trkpt lat="50.04091" lon="2.32413">
        <ele>131</ele>
        <time>2023-10-25T13:13:13Z</time>
      </trkpt>
      <trkpt lat="50.04092" lon="2.32412">
        <ele>131</ele>
        <time>2023-10-25T13:13:14Z</time>
      </trkpt>
      <trkpt lat="50.04094" lon="2.32411">
        <ele>131</ele>
        <time>2023-10-25T13:13:15Z</time>
      </trkpt>
      <trkpt lat="50.04095" lon="2.32411">
        <ele>131</ele>
        <time>2023-10-25T13:13:16Z</time>
      </trkpt>
      <trkpt lat="50.04095" lon="2.3241">
        <ele>131</ele>
        <time>2023-10-25T13:13:17Z</time>
      </trkpt>
      <trkpt lat="50.04098" lon="2.3241">
        <ele>131</ele>
        <time>2023-10-25T13:13:18Z</time>
      </trkpt>
      <trkpt lat="50.04098" lon="2.32409">
        <ele>131</ele>
        <time>2023-10-25T13:13:19Z</time>
      </trkpt>
      <trkpt lat="50.04099" lon="2.32409">
        <ele>131</ele>
        <time>2023-10-25T13:13:20Z</time>
      </trkpt>
      <trkpt lat="50.04101" lon="2.32408">
        <ele>131</ele>
        <time>2023-10-25T13:13:21Z</time>
      </trkpt>
      <trkpt lat="50.04102" lon="2.32408">
        <ele>131</ele>
        <time>2023-10-25T13:13:22Z</time>
      </trkpt>
      <trkpt lat="50.04103" lon="2.32407">
        <ele>131</ele>
        <time>2023-10-25T13:13:23Z</time>
      </trkpt>
      <trkpt lat="50.04104" lon="2.32407">
        <ele>131</ele>
        <time>2023-10-25T13:13:24Z</time>
      </trkpt>
      <trkpt lat="50.04105" lon="2.32406">
        <ele>131</ele>
        <time>2023-10-25T13:13:25Z</time>
      </trkpt>
      <trkpt lat="50.04106" lon="2.32406">
        <ele>131</ele>
        <time>2023-10-25T13:13:26Z</time>
      </trkpt>
      <trkpt lat="50.04107" lon="2.32405">
        <ele>131</ele>
        <time>2023-10-25T13:13:27Z</time>
      </trkpt>
      <trkpt lat="50.04108" lon="2.32405">
        <ele>131</ele>
        <time>2023-10-25T13:13:28Z</time>
      </trkpt>
      <trkpt lat="50.04109" lon="2.32404">
        <ele>131</ele>
        <time>2023-10-25T13:13:29Z</time>
      </trkpt>
      <trkpt lat="50.04111" lon="2.32404">
        <ele>131</ele>
        <time>2023-10-25T13:13:30Z</time>
      </trkpt>
      <trkpt lat="50.04112" lon="2.32404">
        <ele>131</ele>
        <time>2023-10-25T13:13:31Z</time>
      </trkpt>
      <trkpt lat="50.04113" lon="2.32403">
        <ele>131</ele>
        <time>2023-10-25T13:13:32Z</time>
      </trkpt>
      <trkpt lat="50.04115" lon="2.32403">
        <ele>131</ele>
        <time>2023-10-25T13:13:33Z</time>
      </trkpt>
      <trkpt lat="50.04116" lon="2.32403">
        <ele>131</ele>
        <time>2023-10-25T13:13:34Z</time>
      </trkpt>
      <trkpt lat="50.04116" lon="2.32403">
        <ele>131</ele>
        <time>2023-10-25T13:13:35Z</time>
      </trkpt>
      <trkpt lat="50.04118" lon="2.32403">
        <ele>131</ele>
        <time>2023-10-25T13:13:36Z</time>
      </trkpt>
      <trkpt lat="50.04119" lon="2.32402">
        <ele>131</ele>
        <time>2023-10-25T13:13:37Z</time>
      </trkpt>
      <trkpt lat="50.0412" lon="2.32402">
        <ele>131</ele>
        <time>2023-10-25T13:13:38Z</time>
      </trkpt>
      <trkpt lat="50.04122" lon="2.32402">
        <ele>131</ele>
        <time>2023-10-25T13:13:39Z</time>
      </trkpt>
      <trkpt lat="50.04123" lon="2.32402">
        <ele>131</ele>
        <time>2023-10-25T13:13:40Z</time>
      </trkpt>
      <trkpt lat="50.04124" lon="2.32402">
        <ele>131.1</ele>
        <time>2023-10-25T13:13:41Z</time>
      </trkpt>
      <trkpt lat="50.04125" lon="2.32401">
        <ele>131.1</ele>
        <time>2023-10-25T13:13:42Z</time>
      </trkpt>
      <trkpt lat="50.04126" lon="2.32401">
        <ele>131.1</ele>
        <time>2023-10-25T13:13:43Z</time>
      </trkpt>
      <trkpt lat="50.04127" lon="2.324">
        <ele>131.1</ele>
        <time>2023-10-25T13:13:44Z</time>
      </trkpt>
      <trkpt lat="50.04128" lon="2.324">
        <ele>131.1</ele>
        <time>2023-10-25T13:13:45Z</time>
      </trkpt>
      <trkpt lat="50.04129" lon="2.32399">
        <ele>131.1</ele>
        <time>2023-10-25T13:13:46Z</time>
      </trkpt>
      <trkpt lat="50.0413" lon="2.32399">
        <ele>131.1</ele>
        <time>2023-10-25T13:13:47Z</time>
      </trkpt>
      <trkpt lat="50.0413" lon="2.32398">
        <ele>131.1</ele>
        <time>2023-10-25T13:13:48Z</time>
      </trkpt>
      <trkpt lat="50.04131" lon="2.32398">
        <ele>131.1</ele>
        <time>2023-10-25T13:13:49Z</time>
      </trkpt>
      <trkpt lat="50.04132" lon="2.32397">
        <ele>131.1</ele>
        <time>2023-10-25T13:13:50Z</time>
      </trkpt>
      <trkpt lat="50.04134" lon="2.32397">
        <ele>131.1</ele>
        <time>2023-10-25T13:13:51Z</time>
      </trkpt>
      <trkpt lat="50.04135" lon="2.32396">
        <ele>131.1</ele>
        <time>2023-10-25T13:13:52Z</time>
      </trkpt>
      <trkpt lat="50.04136" lon="2.32396">
        <ele>131.1</ele>
        <time>2023-10-25T13:13:53Z</time>
      </trkpt>
      <trkpt lat="50.04137" lon="2.32396">
        <ele>131.1</ele>
        <time>2023-10-25T13:13:54Z</time>
      </trkpt>
      <trkpt lat="50.04138" lon="2.32395">
        <ele>131.1</ele>
        <time>2023-10-25T13:13:55Z</time>
      </trkpt>
      <trkpt lat="50.04139" lon="2.32395">
        <ele>131.1</ele>
        <time>2023-10-25T13:13:56Z</time>
      </trkpt>
      <trkpt lat="50.0414" lon="2.32394">
        <ele>131.1</ele>
        <time>2023-10-25T13:13:57Z</time>
      </trkpt>
      <trkpt lat="50.04141" lon="2.32393">
        <ele>131.1</ele>
        <time>2023-10-25T13:13:58Z</time>
      </trkpt>
      <trkpt lat="50.04142" lon="2.32393">
        <ele>131.1</ele>
        <time>2023-10-25T13:13:59Z</time>
      </trkpt>
      <trkpt lat="50.04144" lon="2.32391">
        <ele>131.1</ele>
        <time>2023-10-25T13:14:00Z</time>
      </trkpt>
      <trkpt lat="50.04144" lon="2.32391">
        <ele>131.2</ele>
        <time>2023-10-25T13:14:01Z</time>
      </trkpt>
      <trkpt lat="50.04145" lon="2.3239">
        <ele>131.2</ele>
        <time>2023-10-25T13:14:02Z</time>
      </trkpt>
      <trkpt lat="50.04146" lon="2.32389">
        <ele>131.2</ele>
        <time>2023-10-25T13:14:03Z</time>
      </trkpt>
      <trkpt lat="50.04147" lon="2.32388">
        <ele>131.2</ele>
        <time>2023-10-25T13:14:04Z</time>
      </trkpt>
      <trkpt lat="50.04148" lon="2.32388">
        <ele>131.2</ele>
        <time>2023-10-25T13:14:05Z</time>
      </trkpt>
      <trkpt lat="50.04149" lon="2.32387">
        <ele>131.2</ele>
        <time>2023-10-25T13:14:06Z</time>
      </trkpt>
      <trkpt lat="50.04151" lon="2.32386">
        <ele>131.2</ele>
        <time>2023-10-25T13:14:08Z</time>
      </trkpt>
      <trkpt lat="50.04152" lon="2.32385">
        <ele>131.3</ele>
        <time>2023-10-25T13:14:09Z</time>
      </trkpt>
      <trkpt lat="50.04153" lon="2.32384">
        <ele>131.3</ele>
        <time>2023-10-25T13:14:10Z</time>
      </trkpt>
      <trkpt lat="50.04154" lon="2.32384">
        <ele>131.3</ele>
        <time>2023-10-25T13:14:11Z</time>
      </trkpt>
      <trkpt lat="50.04156" lon="2.32383">
        <ele>131.3</ele>
        <time>2023-10-25T13:14:12Z</time>
      </trkpt>
      <trkpt lat="50.04157" lon="2.32382">
        <ele>131.3</ele>
        <time>2023-10-25T13:14:13Z</time>
      </trkpt>
      <trkpt lat="50.04158" lon="2.32382">
        <ele>131.3</ele>
        <time>2023-10-25T13:14:14Z</time>
      </trkpt>
      <trkpt lat="50.04159" lon="2.32381">
        <ele>131.4</ele>
        <time>2023-10-25T13:14:15Z</time>
      </trkpt>
      <trkpt lat="50.04159" lon="2.3238">
        <ele>131.4</ele>
        <time>2023-10-25T13:14:16Z</time>
      </trkpt>
      <trkpt lat="50.0416" lon="2.3238">
        <ele>131.4</ele>
        <time>2023-10-25T13:14:17Z</time>
      </trkpt>
      <trkpt lat="50.04161" lon="2.32379">
        <ele>131.4</ele>
        <time>2023-10-25T13:14:18Z</time>
      </trkpt>
      <trkpt lat="50.04162" lon="2.32379">
        <ele>131.4</ele>
        <time>2023-10-25T13:14:19Z</time>
      </trkpt>
      <trkpt lat="50.04163" lon="2.32378">
        <ele>131.4</ele>
        <time>2023-10-25T13:14:20Z</time>
      </trkpt>
      <trkpt lat="50.04164" lon="2.32377">
        <ele>131.4</ele>
        <time>2023-10-25T13:14:21Z</time>
      </trkpt>
      <trkpt lat="50.04165" lon="2.32377">
        <ele>131.4</ele>
        <time>2023-10-25T13:14:22Z</time>
      </trkpt>
      <trkpt lat="50.04166" lon="2.32376">
        <ele>131.4</ele>
        <time>2023-10-25T13:14:23Z</time>
      </trkpt>
      <trkpt lat="50.04167" lon="2.32376">
        <ele>131.4</ele>
        <time>2023-10-25T13:14:24Z</time>
      </trkpt>
      <trkpt lat="50.04168" lon="2.32376">
        <ele>131.5</ele>
        <time>2023-10-25T13:14:25Z</time>
      </trkpt>
      <trkpt lat="50.04169" lon="2.32375">
        <ele>131.5</ele>
        <time>2023-10-25T13:14:26Z</time>
      </trkpt>
      <trkpt lat="50.0417" lon="2.32375">
        <ele>131.5</ele>
        <time>2023-10-25T13:14:27Z</time>
      </trkpt>
      <trkpt lat="50.04171" lon="2.32375">
        <ele>131.5</ele>
        <time>2023-10-25T13:14:28Z</time>
      </trkpt>
      <trkpt lat="50.04172" lon="2.32375">
        <ele>131.5</ele>
        <time>2023-10-25T13:14:29Z</time>
      </trkpt>
      <trkpt lat="50.04173" lon="2.32374">
        <ele>131.4</ele>
        <time>2023-10-25T13:14:30Z</time>
      </trkpt>
      <trkpt lat="50.04174" lon="2.32374">
        <ele>131.4</ele>
        <time>2023-10-25T13:14:31Z</time>
      </trkpt>
      <trkpt lat="50.04175" lon="2.32374">
        <ele>131.4</ele>
        <time>2023-10-25T13:14:32Z</time>
      </trkpt>
      <trkpt lat="50.04176" lon="2.32374">
        <ele>131.4</ele>
        <time>2023-10-25T13:14:33Z</time>
      </trkpt>
      <trkpt lat="50.04177" lon="2.32373">
        <ele>131.4</ele>
        <time>2023-10-25T13:14:34Z</time>
      </trkpt>
      <trkpt lat="50.04178" lon="2.32373">
        <ele>131.4</ele>
        <time>2023-10-25T13:14:35Z</time>
      </trkpt>
      <trkpt lat="50.04179" lon="2.32372">
        <ele>131.4</ele>
        <time>2023-10-25T13:14:36Z</time>
      </trkpt>
      <trkpt lat="50.0418" lon="2.32372">
        <ele>131.4</ele>
        <time>2023-10-25T13:14:37Z</time>
      </trkpt>
      <trkpt lat="50.04181" lon="2.32371">
        <ele>131.4</ele>
        <time>2023-10-25T13:14:38Z</time>
      </trkpt>
      <trkpt lat="50.04182" lon="2.32371">
        <ele>131.4</ele>
        <time>2023-10-25T13:14:39Z</time>
      </trkpt>
      <trkpt lat="50.04183" lon="2.32371">
        <ele>131.4</ele>
        <time>2023-10-25T13:14:40Z</time>
      </trkpt>
      <trkpt lat="50.04184" lon="2.32371">
        <ele>131.4</ele>
        <time>2023-10-25T13:14:41Z</time>
      </trkpt>
      <trkpt lat="50.04185" lon="2.32371">
        <ele>131.4</ele>
        <time>2023-10-25T13:14:42Z</time>
      </trkpt>
      <trkpt lat="50.04186" lon="2.3237">
        <ele>131.4</ele>
        <time>2023-10-25T13:14:43Z</time>
      </trkpt>
      <trkpt lat="50.04187" lon="2.3237">
        <ele>131.4</ele>
        <time>2023-10-25T13:14:44Z</time>
      </trkpt>
      <trkpt lat="50.04188" lon="2.3237">
        <ele>131.4</ele>
        <time>2023-10-25T13:14:45Z</time>
      </trkpt>
      <trkpt lat="50.04189" lon="2.3237">
        <ele>131.4</ele>
        <time>2023-10-25T13:14:46Z</time>
      </trkpt>
      <trkpt lat="50.0419" lon="2.32369">
        <ele>131.4</ele>
        <time>2023-10-25T13:14:47Z</time>
      </trkpt>
      <trkpt lat="50.04191" lon="2.32369">
        <ele>131.4</ele>
        <time>2023-10-25T13:14:48Z</time>
      </trkpt>
      <trkpt lat="50.04192" lon="2.32369">
        <ele>131.4</ele>
        <time>2023-10-25T13:14:49Z</time>
      </trkpt>
      <trkpt lat="50.04193" lon="2.32369">
        <ele>131.4</ele>
        <time>2023-10-25T13:14:50Z</time>
      </trkpt>
      <trkpt lat="50.04194" lon="2.32368">
        <ele>131.4</ele>
        <time>2023-10-25T13:14:51Z</time>
      </trkpt>
      <trkpt lat="50.04194" lon="2.32368">
        <ele>131.4</ele>
        <time>2023-10-25T13:14:52Z</time>
      </trkpt>
      <trkpt lat="50.04195" lon="2.32368">
        <ele>131.4</ele>
        <time>2023-10-25T13:14:53Z</time>
      </trkpt>
      <trkpt lat="50.04196" lon="2.32367">
        <ele>131.4</ele>
        <time>2023-10-25T13:14:54Z</time>
      </trkpt>
      <trkpt lat="50.04197" lon="2.32367">
        <ele>131.4</ele>
        <time>2023-10-25T13:14:55Z</time>
      </trkpt>
      <trkpt lat="50.04198" lon="2.32366">
        <ele>131.4</ele>
        <time>2023-10-25T13:14:56Z</time>
      </trkpt>
      <trkpt lat="50.04199" lon="2.32366">
        <ele>131.4</ele>
        <time>2023-10-25T13:14:57Z</time>
      </trkpt>
      <trkpt lat="50.042" lon="2.32366">
        <ele>131.4</ele>
        <time>2023-10-25T13:14:58Z</time>
      </trkpt>
      <trkpt lat="50.04201" lon="2.32365">
        <ele>131.4</ele>
        <time>2023-10-25T13:14:59Z</time>
      </trkpt>
      <trkpt lat="50.04202" lon="2.32365">
        <ele>131.4</ele>
        <time>2023-10-25T13:15:00Z</time>
      </trkpt>
      <trkpt lat="50.04203" lon="2.32365">
        <ele>131.4</ele>
        <time>2023-10-25T13:15:01Z</time>
      </trkpt>
      <trkpt lat="50.04204" lon="2.32364">
        <ele>131.4</ele>
        <time>2023-10-25T13:15:02Z</time>
      </trkpt>
      <trkpt lat="50.04204" lon="2.32364">
        <ele>131.4</ele>
        <time>2023-10-25T13:15:03Z</time>
      </trkpt>
      <trkpt lat="50.04205" lon="2.32364">
        <ele>131.4</ele>
        <time>2023-10-25T13:15:04Z</time>
      </trkpt>
      <trkpt lat="50.04206" lon="2.32364">
        <ele>131.4</ele>
        <time>2023-10-25T13:15:05Z</time>
      </trkpt>
      <trkpt lat="50.04207" lon="2.32364">
        <ele>131.4</ele>
        <time>2023-10-25T13:15:06Z</time>
      </trkpt>
      <trkpt lat="50.04208" lon="2.32364">
        <ele>131.3</ele>
        <time>2023-10-25T13:15:07Z</time>
      </trkpt>
      <trkpt lat="50.04209" lon="2.32364">
        <ele>131.3</ele>
        <time>2023-10-25T13:15:08Z</time>
      </trkpt>
      <trkpt lat="50.04209" lon="2.32363">
        <ele>131.3</ele>
        <time>2023-10-25T13:15:09Z</time>
      </trkpt>
      <trkpt lat="50.0421" lon="2.32363">
        <ele>131.3</ele>
        <time>2023-10-25T13:15:10Z</time>
      </trkpt>
      <trkpt lat="50.04211" lon="2.32363">
        <ele>131.3</ele>
        <time>2023-10-25T13:15:11Z</time>
      </trkpt>
      <trkpt lat="50.04212" lon="2.32363">
        <ele>131.2</ele>
        <time>2023-10-25T13:15:12Z</time>
      </trkpt>
      <trkpt lat="50.04213" lon="2.32363">
        <ele>131.2</ele>
        <time>2023-10-25T13:15:13Z</time>
      </trkpt>
      <trkpt lat="50.04213" lon="2.32363">
        <ele>131.2</ele>
        <time>2023-10-25T13:15:14Z</time>
      </trkpt>
      <trkpt lat="50.04214" lon="2.32363">
        <ele>131.2</ele>
        <time>2023-10-25T13:15:15Z</time>
      </trkpt>
      <trkpt lat="50.04215" lon="2.32362">
        <ele>131.2</ele>
        <time>2023-10-25T13:15:16Z</time>
      </trkpt>
      <trkpt lat="50.04215" lon="2.32363">
        <ele>131.1</ele>
        <time>2023-10-25T13:15:17Z</time>
      </trkpt>
      <trkpt lat="50.04215" lon="2.32363">
        <ele>131.1</ele>
        <time>2023-10-25T13:15:18Z</time>
      </trkpt>
      <trkpt lat="50.04215" lon="2.32364">
        <ele>131.1</ele>
        <time>2023-10-25T13:15:19Z</time>
      </trkpt>
      <trkpt lat="50.04215" lon="2.32365">
        <ele>131.1</ele>
        <time>2023-10-25T13:15:20Z</time>
      </trkpt>
      <trkpt lat="50.04215" lon="2.32365">
        <ele>131.1</ele>
        <time>2023-10-25T13:15:21Z</time>
      </trkpt>
      <trkpt lat="50.04215" lon="2.32365">
        <ele>131.1</ele>
        <time>2023-10-25T13:15:22Z</time>
      </trkpt>
      <trkpt lat="50.04216" lon="2.32365">
        <ele>131.1</ele>
        <time>2023-10-25T13:15:23Z</time>
      </trkpt>
      <trkpt lat="50.04216" lon="2.32366">
        <ele>131.1</ele>
        <time>2023-10-25T13:15:24Z</time>
      </trkpt>
      <trkpt lat="50.04216" lon="2.32366">
        <ele>131.1</ele>
        <time>2023-10-25T13:15:25Z</time>
      </trkpt>
      <trkpt lat="50.04216" lon="2.32366">
        <ele>131.1</ele>
        <time>2023-10-25T13:15:26Z</time>
      </trkpt>
      <trkpt lat="50.04216" lon="2.32366">
        <ele>131.1</ele>
        <time>2023-10-25T13:15:27Z</time>
      </trkpt>
      <trkpt lat="50.04216" lon="2.32366">
        <ele>131.1</ele>
        <time>2023-10-25T13:15:28Z</time>
      </trkpt>
      <trkpt lat="50.04216" lon="2.32366">
        <ele>131.1</ele>
        <time>2023-10-25T13:15:29Z</time>
      </trkpt>
      <trkpt lat="50.04216" lon="2.32366">
        <ele>131.1</ele>
        <time>2023-10-25T13:15:30Z</time>
      </trkpt>
      <trkpt lat="50.04215" lon="2.32366">
        <ele>131.1</ele>
        <time>2023-10-25T13:15:31Z</time>
      </trkpt>
      <trkpt lat="50.04215" lon="2.32366">
        <ele>131.1</ele>
        <time>2023-10-25T13:15:32Z</time>
      </trkpt>
      <trkpt lat="50.04215" lon="2.32366">
        <ele>131.1</ele>
        <time>2023-10-25T13:15:33Z</time>
      </trkpt>
      <trkpt lat="50.04215" lon="2.32366">
        <ele>131.1</ele>
        <time>2023-10-25T13:15:34Z</time>
      </trkpt>
      <trkpt lat="50.04215" lon="2.32366">
        <ele>131.1</ele>
        <time>2023-10-25T13:15:35Z</time>
      </trkpt>
      <trkpt lat="50.04215" lon="2.32366">
        <ele>131.1</ele>
        <time>2023-10-25T13:15:36Z</time>
      </trkpt>
      <trkpt lat="50.04215" lon="2.32366">
        <ele>131.1</ele>
        <time>2023-10-25T13:15:37Z</time>
      </trkpt>
      <trkpt lat="50.04215" lon="2.32366">
        <ele>131.1</ele>
        <time>2023-10-25T13:15:38Z</time>
      </trkpt>
      <trkpt lat="50.04211" lon="2.32365">
        <ele>130.9</ele>
        <time>2023-10-25T13:16:30Z</time>
      </trkpt>
      <trkpt lat="50.04208" lon="2.32365">
        <ele>130.9</ele>
        <time>2023-10-25T13:16:31Z</time>
      </trkpt>
      <trkpt lat="50.04208" lon="2.32365">
        <ele>130.8</ele>
        <time>2023-10-25T13:16:32Z</time>
      </trkpt>
      <trkpt lat="50.04207" lon="2.32365">
        <ele>130.8</ele>
        <time>2023-10-25T13:16:33Z</time>
      </trkpt>
      <trkpt lat="50.04206" lon="2.32365">
        <ele>130.8</ele>
        <time>2023-10-25T13:16:34Z</time>
      </trkpt>
      <trkpt lat="50.04206" lon="2.32365">
        <ele>130.8</ele>
        <time>2023-10-25T13:16:35Z</time>
      </trkpt>
      <trkpt lat="50.04206" lon="2.32365">
        <ele>130.8</ele>
        <time>2023-10-25T13:16:36Z</time>
      </trkpt>
      <trkpt lat="50.04206" lon="2.32365">
        <ele>130.8</ele>
        <time>2023-10-25T13:16:37Z</time>
      </trkpt>
      <trkpt lat="50.04206" lon="2.32364">
        <ele>130.8</ele>
        <time>2023-10-25T13:16:38Z</time>
      </trkpt>
      <trkpt lat="50.04206" lon="2.32364">
        <ele>130.8</ele>
        <time>2023-10-25T13:16:39Z</time>
      </trkpt>
      <trkpt lat="50.04206" lon="2.32363">
        <ele>130.8</ele>
        <time>2023-10-25T13:16:40Z</time>
      </trkpt>
      <trkpt lat="50.04206" lon="2.32363">
        <ele>130.8</ele>
        <time>2023-10-25T13:16:41Z</time>
      </trkpt>
      <trkpt lat="50.04207" lon="2.32363">
        <ele>130.7</ele>
        <time>2023-10-25T13:16:42Z</time>
      </trkpt>
      <trkpt lat="50.04207" lon="2.32363">
        <ele>130.7</ele>
        <time>2023-10-25T13:16:43Z</time>
      </trkpt>
      <trkpt lat="50.04207" lon="2.32363">
        <ele>130.7</ele>
        <time>2023-10-25T13:16:44Z</time>
      </trkpt>
      <trkpt lat="50.04208" lon="2.32363">
        <ele>130.7</ele>
        <time>2023-10-25T13:16:45Z</time>
      </trkpt>
      <trkpt lat="50.04208" lon="2.32363">
        <ele>130.7</ele>
        <time>2023-10-25T13:16:46Z</time>
      </trkpt>
      <trkpt lat="50.04208" lon="2.32364">
        <ele>130.7</ele>
        <time>2023-10-25T13:16:47Z</time>
      </trkpt>
      <trkpt lat="50.04209" lon="2.32364">
        <ele>130.7</ele>
        <time>2023-10-25T13:16:48Z</time>
      </trkpt>
      <trkpt lat="50.04209" lon="2.32364">
        <ele>130.7</ele>
        <time>2023-10-25T13:16:49Z</time>
      </trkpt>
      <trkpt lat="50.0421" lon="2.32364">
        <ele>130.7</ele>
        <time>2023-10-25T13:16:50Z</time>
      </trkpt>
      <trkpt lat="50.04211" lon="2.32364">
        <ele>130.6</ele>
        <time>2023-10-25T13:16:51Z</time>
      </trkpt>
      <trkpt lat="50.04211" lon="2.32365">
        <ele>130.6</ele>
        <time>2023-10-25T13:16:52Z</time>
      </trkpt>
      <trkpt lat="50.04212" lon="2.32365">
        <ele>130.6</ele>
        <time>2023-10-25T13:16:53Z</time>
      </trkpt>
      <trkpt lat="50.04212" lon="2.32365">
        <ele>130.6</ele>
        <time>2023-10-25T13:16:54Z</time>
      </trkpt>
      <trkpt lat="50.04212" lon="2.32365">
        <ele>130.6</ele>
        <time>2023-10-25T13:16:55Z</time>
      </trkpt>
      <trkpt lat="50.04213" lon="2.32365">
        <ele>130.6</ele>
        <time>2023-10-25T13:16:56Z</time>
      </trkpt>
      <trkpt lat="50.04213" lon="2.32365">
        <ele>130.6</ele>
        <time>2023-10-25T13:16:57Z</time>
      </trkpt>
      <trkpt lat="50.04213" lon="2.32365">
        <ele>130.5</ele>
        <time>2023-10-25T13:16:58Z</time>
      </trkpt>
      <trkpt lat="50.04214" lon="2.32365">
        <ele>130.5</ele>
        <time>2023-10-25T13:16:59Z</time>
      </trkpt>
      <trkpt lat="50.04214" lon="2.32365">
        <ele>130.5</ele>
        <time>2023-10-25T13:17:00Z</time>
      </trkpt>
      <trkpt lat="50.04214" lon="2.32365">
        <ele>130.5</ele>
        <time>2023-10-25T13:17:01Z</time>
      </trkpt>
      <trkpt lat="50.04215" lon="2.32365">
        <ele>130.5</ele>
        <time>2023-10-25T13:17:02Z</time>
      </trkpt>
      <trkpt lat="50.04215" lon="2.32365">
        <ele>130.5</ele>
        <time>2023-10-25T13:17:03Z</time>
      </trkpt>
      <trkpt lat="50.04215" lon="2.32365">
        <ele>130.5</ele>
        <time>2023-10-25T13:17:04Z</time>
      </trkpt>
      <trkpt lat="50.04216" lon="2.32365">
        <ele>130.5</ele>
        <time>2023-10-25T13:17:05Z</time>
      </trkpt>
      <trkpt lat="50.04216" lon="2.32365">
        <ele>130.5</ele>
        <time>2023-10-25T13:18:20Z</time>
      </trkpt>
      <trkpt lat="50.04216" lon="2.32365">
        <ele>130.5</ele>
        <time>2023-10-25T13:18:21Z</time>
      </trkpt>
      <trkpt lat="50.04217" lon="2.32365">
        <ele>130.5</ele>
        <time>2023-10-25T13:18:22Z</time>
      </trkpt>
      <trkpt lat="50.04217" lon="2.32365">
        <ele>130.4</ele>
        <time>2023-10-25T13:18:23Z</time>
      </trkpt>
      <trkpt lat="50.04218" lon="2.32365">
        <ele>130.4</ele>
        <time>2023-10-25T13:18:24Z</time>
      </trkpt>
      <trkpt lat="50.0422" lon="2.32364">
        <ele>130.4</ele>
        <time>2023-10-25T13:18:25Z</time>
      </trkpt>
      <trkpt lat="50.04221" lon="2.32364">
        <ele>130.3</ele>
        <time>2023-10-25T13:18:26Z</time>
      </trkpt>
      <trkpt lat="50.04222" lon="2.32364">
        <ele>130.3</ele>
        <time>2023-10-25T13:18:27Z</time>
      </trkpt>
      <trkpt lat="50.04225" lon="2.32363">
        <ele>130.3</ele>
        <time>2023-10-25T13:18:28Z</time>
      </trkpt>
      <trkpt lat="50.04225" lon="2.32363">
        <ele>130.2</ele>
        <time>2023-10-25T13:18:29Z</time>
      </trkpt>
      <trkpt lat="50.04226" lon="2.32363">
        <ele>130.2</ele>
        <time>2023-10-25T13:18:30Z</time>
      </trkpt>
      <trkpt lat="50.04228" lon="2.32362">
        <ele>130.2</ele>
        <time>2023-10-25T13:18:31Z</time>
      </trkpt>
      <trkpt lat="50.04229" lon="2.32362">
        <ele>130.1</ele>
        <time>2023-10-25T13:18:32Z</time>
      </trkpt>
      <trkpt lat="50.0423" lon="2.32361">
        <ele>130.1</ele>
        <time>2023-10-25T13:18:33Z</time>
      </trkpt>
      <trkpt lat="50.04232" lon="2.32361">
        <ele>130.1</ele>
        <time>2023-10-25T13:18:34Z</time>
      </trkpt>
      <trkpt lat="50.04232" lon="2.3236">
        <ele>130.1</ele>
        <time>2023-10-25T13:18:35Z</time>
      </trkpt>
      <trkpt lat="50.04233" lon="2.3236">
        <ele>130</ele>
        <time>2023-10-25T13:18:36Z</time>
      </trkpt>
      <trkpt lat="50.04235" lon="2.3236">
        <ele>130</ele>
        <time>2023-10-25T13:18:37Z</time>
      </trkpt>
      <trkpt lat="50.04236" lon="2.3236">
        <ele>130</ele>
        <time>2023-10-25T13:18:38Z</time>
      </trkpt>
      <trkpt lat="50.04238" lon="2.32359">
        <ele>129.9</ele>
        <time>2023-10-25T13:18:39Z</time>
      </trkpt>
      <trkpt lat="50.04239" lon="2.3236">
        <ele>129.9</ele>
        <time>2023-10-25T13:18:40Z</time>
      </trkpt>
      <trkpt lat="50.04241" lon="2.3236">
        <ele>129.8</ele>
        <time>2023-10-25T13:18:41Z</time>
      </trkpt>
      <trkpt lat="50.04242" lon="2.3236">
        <ele>129.8</ele>
        <time>2023-10-25T13:18:42Z</time>
      </trkpt>
      <trkpt lat="50.04243" lon="2.3236">
        <ele>129.8</ele>
        <time>2023-10-25T13:18:43Z</time>
      </trkpt>
      <trkpt lat="50.04244" lon="2.3236">
        <ele>129.8</ele>
        <time>2023-10-25T13:18:44Z</time>
      </trkpt>
      <trkpt lat="50.04245" lon="2.32359">
        <ele>129.7</ele>
        <time>2023-10-25T13:18:45Z</time>
      </trkpt>
      <trkpt lat="50.04246" lon="2.32359">
        <ele>129.7</ele>
        <time>2023-10-25T13:18:46Z</time>
      </trkpt>
      <trkpt lat="50.04247" lon="2.32359">
        <ele>129.7</ele>
        <time>2023-10-25T13:18:47Z</time>
      </trkpt>
      <trkpt lat="50.04248" lon="2.32359">
        <ele>129.7</ele>
        <time>2023-10-25T13:18:48Z</time>
      </trkpt>
      <trkpt lat="50.04249" lon="2.32359">
        <ele>129.7</ele>
        <time>2023-10-25T13:18:49Z</time>
      </trkpt>
      <trkpt lat="50.0425" lon="2.32359">
        <ele>129.6</ele>
        <time>2023-10-25T13:18:50Z</time>
      </trkpt>
      <trkpt lat="50.04251" lon="2.32359">
        <ele>129.6</ele>
        <time>2023-10-25T13:18:51Z</time>
      </trkpt>
      <trkpt lat="50.04252" lon="2.3236">
        <ele>129.6</ele>
        <time>2023-10-25T13:18:52Z</time>
      </trkpt>
      <trkpt lat="50.04253" lon="2.3236">
        <ele>129.5</ele>
        <time>2023-10-25T13:18:53Z</time>
      </trkpt>
      <trkpt lat="50.04255" lon="2.3236">
        <ele>129.5</ele>
        <time>2023-10-25T13:18:54Z</time>
      </trkpt>
      <trkpt lat="50.04257" lon="2.3236">
        <ele>129.4</ele>
        <time>2023-10-25T13:18:55Z</time>
      </trkpt>
      <trkpt lat="50.04257" lon="2.3236">
        <ele>129.4</ele>
        <time>2023-10-25T13:18:56Z</time>
      </trkpt>
      <trkpt lat="50.04258" lon="2.3236">
        <ele>129.4</ele>
        <time>2023-10-25T13:18:57Z</time>
      </trkpt>
      <trkpt lat="50.04259" lon="2.3236">
        <ele>129.3</ele>
        <time>2023-10-25T13:18:58Z</time>
      </trkpt>
      <trkpt lat="50.0426" lon="2.3236">
        <ele>129.3</ele>
        <time>2023-10-25T13:18:59Z</time>
      </trkpt>
      <trkpt lat="50.04261" lon="2.3236">
        <ele>129.3</ele>
        <time>2023-10-25T13:19:00Z</time>
      </trkpt>
      <trkpt lat="50.04262" lon="2.3236">
        <ele>129.2</ele>
        <time>2023-10-25T13:19:01Z</time>
      </trkpt>
      <trkpt lat="50.04263" lon="2.3236">
        <ele>129.2</ele>
        <time>2023-10-25T13:19:02Z</time>
      </trkpt>
      <trkpt lat="50.04264" lon="2.32361">
        <ele>129.2</ele>
        <time>2023-10-25T13:19:03Z</time>
      </trkpt>
      <trkpt lat="50.04265" lon="2.32361">
        <ele>129.1</ele>
        <time>2023-10-25T13:19:04Z</time>
      </trkpt>
      <trkpt lat="50.04266" lon="2.32361">
        <ele>129.1</ele>
        <time>2023-10-25T13:19:05Z</time>
      </trkpt>
      <trkpt lat="50.04267" lon="2.32361">
        <ele>129</ele>
        <time>2023-10-25T13:19:06Z</time>
      </trkpt>
      <trkpt lat="50.04268" lon="2.32361">
        <ele>129</ele>
        <time>2023-10-25T13:19:07Z</time>
      </trkpt>
      <trkpt lat="50.0427" lon="2.32361">
        <ele>129</ele>
        <time>2023-10-25T13:19:08Z</time>
      </trkpt>
      <trkpt lat="50.04271" lon="2.32361">
        <ele>128.9</ele>
        <time>2023-10-25T13:19:09Z</time>
      </trkpt>
      <trkpt lat="50.04272" lon="2.32362">
        <ele>128.9</ele>
        <time>2023-10-25T13:19:10Z</time>
      </trkpt>
      <trkpt lat="50.04273" lon="2.32362">
        <ele>128.8</ele>
        <time>2023-10-25T13:19:11Z</time>
      </trkpt>
      <trkpt lat="50.04274" lon="2.32362">
        <ele>128.8</ele>
        <time>2023-10-25T13:19:12Z</time>
      </trkpt>
      <trkpt lat="50.04275" lon="2.32362">
        <ele>128.8</ele>
        <time>2023-10-25T13:19:13Z</time>
      </trkpt>
      <trkpt lat="50.04276" lon="2.32362">
        <ele>128.7</ele>
        <time>2023-10-25T13:19:14Z</time>
      </trkpt>
      <trkpt lat="50.04277" lon="2.32362">
        <ele>128.7</ele>
        <time>2023-10-25T13:19:15Z</time>
      </trkpt>
      <trkpt lat="50.04278" lon="2.32362">
        <ele>128.7</ele>
        <time>2023-10-25T13:19:16Z</time>
      </trkpt>
      <trkpt lat="50.04279" lon="2.32362">
        <ele>128.6</ele>
        <time>2023-10-25T13:19:17Z</time>
      </trkpt>
      <trkpt lat="50.0428" lon="2.32362">
        <ele>128.6</ele>
        <time>2023-10-25T13:19:18Z</time>
      </trkpt>
      <trkpt lat="50.04281" lon="2.32362">
        <ele>128.6</ele>
        <time>2023-10-25T13:19:19Z</time>
      </trkpt>
      <trkpt lat="50.04282" lon="2.32363">
        <ele>128.6</ele>
        <time>2023-10-25T13:19:20Z</time>
      </trkpt>
      <trkpt lat="50.04282" lon="2.32363">
        <ele>128.5</ele>
        <time>2023-10-25T13:19:21Z</time>
      </trkpt>
      <trkpt lat="50.04283" lon="2.32363">
        <ele>128.5</ele>
        <time>2023-10-25T13:19:22Z</time>
      </trkpt>
      <trkpt lat="50.04284" lon="2.32363">
        <ele>128.5</ele>
        <time>2023-10-25T13:19:23Z</time>
      </trkpt>
      <trkpt lat="50.04285" lon="2.32364">
        <ele>128.5</ele>
        <time>2023-10-25T13:19:24Z</time>
      </trkpt>
      <trkpt lat="50.04285" lon="2.32364">
        <ele>128.4</ele>
        <time>2023-10-25T13:19:25Z</time>
      </trkpt>
      <trkpt lat="50.04286" lon="2.32364">
        <ele>128.4</ele>
        <time>2023-10-25T13:19:26Z</time>
      </trkpt>
      <trkpt lat="50.04286" lon="2.32364">
        <ele>128.4</ele>
        <time>2023-10-25T13:19:27Z</time>
      </trkpt>
      <trkpt lat="50.04287" lon="2.32364">
        <ele>128.4</ele>
        <time>2023-10-25T13:19:28Z</time>
      </trkpt>
      <trkpt lat="50.04287" lon="2.32364">
        <ele>128.4</ele>
        <time>2023-10-25T13:19:29Z</time>
      </trkpt>
      <trkpt lat="50.04287" lon="2.32364">
        <ele>128.4</ele>
        <time>2023-10-25T13:19:30Z</time>
      </trkpt>
      <trkpt lat="50.04288" lon="2.32365">
        <ele>128.4</ele>
        <time>2023-10-25T13:19:31Z</time>
      </trkpt>
      <trkpt lat="50.04288" lon="2.32365">
        <ele>128.4</ele>
        <time>2023-10-25T13:19:32Z</time>
      </trkpt>
      <trkpt lat="50.04288" lon="2.32365">
        <ele>128.3</ele>
        <time>2023-10-25T13:19:33Z</time>
      </trkpt>
      <trkpt lat="50.04289" lon="2.32365">
        <ele>128.3</ele>
        <time>2023-10-25T13:19:34Z</time>
      </trkpt>
      <trkpt lat="50.04289" lon="2.32365">
        <ele>128.3</ele>
        <time>2023-10-25T13:19:35Z</time>
      </trkpt>
      <trkpt lat="50.04289" lon="2.32365">
        <ele>128.3</ele>
        <time>2023-10-25T13:19:36Z</time>
      </trkpt>
      <trkpt lat="50.0429" lon="2.32365">
        <ele>128.3</ele>
        <time>2023-10-25T13:19:37Z</time>
      </trkpt>
      <trkpt lat="50.0429" lon="2.32365">
        <ele>128.3</ele>
        <time>2023-10-25T13:19:38Z</time>
      </trkpt>
      <trkpt lat="50.04291" lon="2.32365">
        <ele>128.3</ele>
        <time>2023-10-25T13:19:39Z</time>
      </trkpt>
      <trkpt lat="50.04291" lon="2.32365">
        <ele>128.3</ele>
        <time>2023-10-25T13:19:40Z</time>
      </trkpt>
      <trkpt lat="50.04291" lon="2.32365">
        <ele>128.3</ele>
        <time>2023-10-25T13:19:41Z</time>
      </trkpt>
      <trkpt lat="50.04292" lon="2.32365">
        <ele>128.3</ele>
        <time>2023-10-25T13:19:42Z</time>
      </trkpt>
      <trkpt lat="50.04292" lon="2.32365">
        <ele>128.2</ele>
        <time>2023-10-25T13:19:43Z</time>
      </trkpt>
      <trkpt lat="50.04292" lon="2.32365">
        <ele>128.2</ele>
        <time>2023-10-25T13:19:44Z</time>
      </trkpt>
      <trkpt lat="50.04293" lon="2.32365">
        <ele>128.2</ele>
        <time>2023-10-25T13:19:45Z</time>
      </trkpt>
      <trkpt lat="50.04294" lon="2.32365">
        <ele>128.2</ele>
        <time>2023-10-25T13:19:46Z</time>
      </trkpt>
      <trkpt lat="50.04295" lon="2.32365">
        <ele>128.2</ele>
        <time>2023-10-25T13:19:47Z</time>
      </trkpt>
      <trkpt lat="50.04296" lon="2.32365">
        <ele>128.1</ele>
        <time>2023-10-25T13:19:48Z</time>
      </trkpt>
      <trkpt lat="50.04298" lon="2.32365">
        <ele>128.1</ele>
        <time>2023-10-25T13:19:49Z</time>
      </trkpt>
      <trkpt lat="50.04299" lon="2.32365">
        <ele>128</ele>
        <time>2023-10-25T13:19:50Z</time>
      </trkpt>
      <trkpt lat="50.04301" lon="2.32365">
        <ele>128</ele>
        <time>2023-10-25T13:19:51Z</time>
      </trkpt>
      <trkpt lat="50.04303" lon="2.32365">
        <ele>127.9</ele>
        <time>2023-10-25T13:19:52Z</time>
      </trkpt>
      <trkpt lat="50.04304" lon="2.32365">
        <ele>127.9</ele>
        <time>2023-10-25T13:19:53Z</time>
      </trkpt>
      <trkpt lat="50.04306" lon="2.32365">
        <ele>127.8</ele>
        <time>2023-10-25T13:19:54Z</time>
      </trkpt>
      <trkpt lat="50.04307" lon="2.32365">
        <ele>127.8</ele>
        <time>2023-10-25T13:19:55Z</time>
      </trkpt>
      <trkpt lat="50.04309" lon="2.32365">
        <ele>127.8</ele>
        <time>2023-10-25T13:19:56Z</time>
      </trkpt>
      <trkpt lat="50.0431" lon="2.32365">
        <ele>127.7</ele>
        <time>2023-10-25T13:19:57Z</time>
      </trkpt>
      <trkpt lat="50.04311" lon="2.32365">
        <ele>127.7</ele>
        <time>2023-10-25T13:19:58Z</time>
      </trkpt>
      <trkpt lat="50.04312" lon="2.32365">
        <ele>127.7</ele>
        <time>2023-10-25T13:19:59Z</time>
      </trkpt>
      <trkpt lat="50.04313" lon="2.32366">
        <ele>127.6</ele>
        <time>2023-10-25T13:20:00Z</time>
      </trkpt>
      <trkpt lat="50.04314" lon="2.32366">
        <ele>127.6</ele>
        <time>2023-10-25T13:20:01Z</time>
      </trkpt>
      <trkpt lat="50.04315" lon="2.32366">
        <ele>127.6</ele>
        <time>2023-10-25T13:20:02Z</time>
      </trkpt>
      <trkpt lat="50.04316" lon="2.32366">
        <ele>127.5</ele>
        <time>2023-10-25T13:20:03Z</time>
      </trkpt>
      <trkpt lat="50.04317" lon="2.32366">
        <ele>127.5</ele>
        <time>2023-10-25T13:20:04Z</time>
      </trkpt>
      <trkpt lat="50.04318" lon="2.32366">
        <ele>127.5</ele>
        <time>2023-10-25T13:20:05Z</time>
      </trkpt>
      <trkpt lat="50.04319" lon="2.32366">
        <ele>127.4</ele>
        <time>2023-10-25T13:20:06Z</time>
      </trkpt>
      <trkpt lat="50.0432" lon="2.32365">
        <ele>127.4</ele>
        <time>2023-10-25T13:20:07Z</time>
      </trkpt>
      <trkpt lat="50.04321" lon="2.32365">
        <ele>127.4</ele>
        <time>2023-10-25T13:20:08Z</time>
      </trkpt>
      <trkpt lat="50.04323" lon="2.32365">
        <ele>127.3</ele>
        <time>2023-10-25T13:20:09Z</time>
      </trkpt>
      <trkpt lat="50.04324" lon="2.32366">
        <ele>127.3</ele>
        <time>2023-10-25T13:20:10Z</time>
      </trkpt>
      <trkpt lat="50.04325" lon="2.32366">
        <ele>127.3</ele>
        <time>2023-10-25T13:20:11Z</time>
      </trkpt>
      <trkpt lat="50.04326" lon="2.32366">
        <ele>127.3</ele>
        <time>2023-10-25T13:20:12Z</time>
      </trkpt>
      <trkpt lat="50.04327" lon="2.32366">
        <ele>127.2</ele>
        <time>2023-10-25T13:20:13Z</time>
      </trkpt>
      <trkpt lat="50.04328" lon="2.32366">
        <ele>127.2</ele>
        <time>2023-10-25T13:20:14Z</time>
      </trkpt>
      <trkpt lat="50.04329" lon="2.32366">
        <ele>127.2</ele>
        <time>2023-10-25T13:20:15Z</time>
      </trkpt>
      <trkpt lat="50.0433" lon="2.32367">
        <ele>127.2</ele>
        <time>2023-10-25T13:20:16Z</time>
      </trkpt>
      <trkpt lat="50.04331" lon="2.32367">
        <ele>127.2</ele>
        <time>2023-10-25T13:20:17Z</time>
      </trkpt>
      <trkpt lat="50.04332" lon="2.32367">
        <ele>127.1</ele>
        <time>2023-10-25T13:20:18Z</time>
      </trkpt>
      <trkpt lat="50.04333" lon="2.32367">
        <ele>127.1</ele>
        <time>2023-10-25T13:20:19Z</time>
      </trkpt>
      <trkpt lat="50.04334" lon="2.32368">
        <ele>127.1</ele>
        <time>2023-10-25T13:20:20Z</time>
      </trkpt>
      <trkpt lat="50.04336" lon="2.32368">
        <ele>127.1</ele>
        <time>2023-10-25T13:20:21Z</time>
      </trkpt>
      <trkpt lat="50.04337" lon="2.32368">
        <ele>127</ele>
        <time>2023-10-25T13:20:22Z</time>
      </trkpt>
      <trkpt lat="50.04338" lon="2.32368">
        <ele>127</ele>
        <time>2023-10-25T13:20:23Z</time>
      </trkpt>
      <trkpt lat="50.0434" lon="2.32369">
        <ele>127</ele>
        <time>2023-10-25T13:20:24Z</time>
      </trkpt>
      <trkpt lat="50.04341" lon="2.32369">
        <ele>127</ele>
        <time>2023-10-25T13:20:25Z</time>
      </trkpt>
      <trkpt lat="50.04341" lon="2.32369">
        <ele>127</ele>
        <time>2023-10-25T13:20:26Z</time>
      </trkpt>
      <trkpt lat="50.04344" lon="2.32369">
        <ele>126.9</ele>
        <time>2023-10-25T13:20:27Z</time>
      </trkpt>
      <trkpt lat="50.04344" lon="2.32369">
        <ele>126.9</ele>
        <time>2023-10-25T13:20:28Z</time>
      </trkpt>
      <trkpt lat="50.04345" lon="2.32369">
        <ele>126.9</ele>
        <time>2023-10-25T13:20:29Z</time>
      </trkpt>
      <trkpt lat="50.04347" lon="2.32369">
        <ele>126.9</ele>
        <time>2023-10-25T13:20:30Z</time>
      </trkpt>
      <trkpt lat="50.04348" lon="2.3237">
        <ele>126.9</ele>
        <time>2023-10-25T13:20:31Z</time>
      </trkpt>
      <trkpt lat="50.04349" lon="2.3237">
        <ele>126.9</ele>
        <time>2023-10-25T13:20:32Z</time>
      </trkpt>
      <trkpt lat="50.0435" lon="2.3237">
        <ele>126.8</ele>
        <time>2023-10-25T13:20:33Z</time>
      </trkpt>
      <trkpt lat="50.04351" lon="2.3237">
        <ele>126.8</ele>
        <time>2023-10-25T13:20:34Z</time>
      </trkpt>
      <trkpt lat="50.04352" lon="2.3237">
        <ele>126.8</ele>
        <time>2023-10-25T13:20:35Z</time>
      </trkpt>
      <trkpt lat="50.04354" lon="2.3237">
        <ele>126.8</ele>
        <time>2023-10-25T13:20:36Z</time>
      </trkpt>
      <trkpt lat="50.04355" lon="2.3237">
        <ele>126.8</ele>
        <time>2023-10-25T13:20:37Z</time>
      </trkpt>
      <trkpt lat="50.04356" lon="2.3237">
        <ele>126.8</ele>
        <time>2023-10-25T13:20:38Z</time>
      </trkpt>
      <trkpt lat="50.04357" lon="2.3237">
        <ele>126.8</ele>
        <time>2023-10-25T13:20:39Z</time>
      </trkpt>
      <trkpt lat="50.04358" lon="2.3237">
        <ele>126.8</ele>
        <time>2023-10-25T13:20:40Z</time>
      </trkpt>
      <trkpt lat="50.04359" lon="2.3237">
        <ele>126.8</ele>
        <time>2023-10-25T13:20:41Z</time>
      </trkpt>
      <trkpt lat="50.0436" lon="2.3237">
        <ele>126.8</ele>
        <time>2023-10-25T13:20:42Z</time>
      </trkpt>
      <trkpt lat="50.04361" lon="2.3237">
        <ele>126.8</ele>
        <time>2023-10-25T13:20:43Z</time>
      </trkpt>
      <trkpt lat="50.04362" lon="2.32369">
        <ele>126.8</ele>
        <time>2023-10-25T13:20:44Z</time>
      </trkpt>
      <trkpt lat="50.04363" lon="2.32369">
        <ele>126.8</ele>
        <time>2023-10-25T13:20:45Z</time>
      </trkpt>
      <trkpt lat="50.04364" lon="2.32369">
        <ele>126.8</ele>
        <time>2023-10-25T13:20:46Z</time>
      </trkpt>
      <trkpt lat="50.04365" lon="2.32369">
        <ele>126.8</ele>
        <time>2023-10-25T13:20:47Z</time>
      </trkpt>
      <trkpt lat="50.04366" lon="2.32369">
        <ele>126.8</ele>
        <time>2023-10-25T13:20:48Z</time>
      </trkpt>
      <trkpt lat="50.04366" lon="2.32368">
        <ele>126.8</ele>
        <time>2023-10-25T13:20:49Z</time>
      </trkpt>
      <trkpt lat="50.04367" lon="2.32368">
        <ele>126.8</ele>
        <time>2023-10-25T13:20:50Z</time>
      </trkpt>
      <trkpt lat="50.04368" lon="2.32368">
        <ele>126.8</ele>
        <time>2023-10-25T13:20:51Z</time>
      </trkpt>
      <trkpt lat="50.04369" lon="2.32367">
        <ele>126.8</ele>
        <time>2023-10-25T13:20:52Z</time>
      </trkpt>
      <trkpt lat="50.04369" lon="2.32366">
        <ele>126.8</ele>
        <time>2023-10-25T13:20:53Z</time>
      </trkpt>
      <trkpt lat="50.0437" lon="2.32365">
        <ele>126.8</ele>
        <time>2023-10-25T13:20:54Z</time>
      </trkpt>
      <trkpt lat="50.0437" lon="2.32364">
        <ele>126.9</ele>
        <time>2023-10-25T13:20:55Z</time>
      </trkpt>
      <trkpt lat="50.04371" lon="2.32363">
        <ele>126.9</ele>
        <time>2023-10-25T13:20:56Z</time>
      </trkpt>
      <trkpt lat="50.04372" lon="2.32363">
        <ele>126.9</ele>
        <time>2023-10-25T13:20:57Z</time>
      </trkpt>
      <trkpt lat="50.04373" lon="2.32362">
        <ele>126.9</ele>
        <time>2023-10-25T13:20:58Z</time>
      </trkpt>
      <trkpt lat="50.04374" lon="2.32362">
        <ele>126.9</ele>
        <time>2023-10-25T13:20:59Z</time>
      </trkpt>
      <trkpt lat="50.04374" lon="2.32362">
        <ele>126.9</ele>
        <time>2023-10-25T13:21:00Z</time>
      </trkpt>
      <trkpt lat="50.04375" lon="2.32362">
        <ele>126.9</ele>
        <time>2023-10-25T13:21:01Z</time>
      </trkpt>
      <trkpt lat="50.04376" lon="2.32362">
        <ele>126.9</ele>
        <time>2023-10-25T13:21:02Z</time>
      </trkpt>
      <trkpt lat="50.04376" lon="2.32362">
        <ele>126.9</ele>
        <time>2023-10-25T13:21:03Z</time>
      </trkpt>
      <trkpt lat="50.04377" lon="2.32362">
        <ele>126.9</ele>
        <time>2023-10-25T13:21:04Z</time>
      </trkpt>
      <trkpt lat="50.04378" lon="2.32362">
        <ele>126.9</ele>
        <time>2023-10-25T13:21:05Z</time>
      </trkpt>
      <trkpt lat="50.04379" lon="2.32362">
        <ele>126.9</ele>
        <time>2023-10-25T13:21:06Z</time>
      </trkpt>
      <trkpt lat="50.0438" lon="2.32362">
        <ele>126.9</ele>
        <time>2023-10-25T13:21:07Z</time>
      </trkpt>
      <trkpt lat="50.04381" lon="2.32362">
        <ele>126.9</ele>
        <time>2023-10-25T13:21:08Z</time>
      </trkpt>
      <trkpt lat="50.04382" lon="2.32362">
        <ele>126.9</ele>
        <time>2023-10-25T13:21:09Z</time>
      </trkpt>
      <trkpt lat="50.04382" lon="2.32362">
        <ele>126.9</ele>
        <time>2023-10-25T13:21:10Z</time>
      </trkpt>
      <trkpt lat="50.04383" lon="2.32362">
        <ele>126.9</ele>
        <time>2023-10-25T13:21:11Z</time>
      </trkpt>
      <trkpt lat="50.04384" lon="2.32362">
        <ele>126.9</ele>
        <time>2023-10-25T13:21:12Z</time>
      </trkpt>
      <trkpt lat="50.04385" lon="2.32361">
        <ele>126.9</ele>
        <time>2023-10-25T13:21:13Z</time>
      </trkpt>
      <trkpt lat="50.04386" lon="2.32361">
        <ele>126.9</ele>
        <time>2023-10-25T13:21:14Z</time>
      </trkpt>
      <trkpt lat="50.04386" lon="2.32361">
        <ele>126.9</ele>
        <time>2023-10-25T13:21:15Z</time>
      </trkpt>
      <trkpt lat="50.04388" lon="2.3236">
        <ele>126.9</ele>
        <time>2023-10-25T13:21:16Z</time>
      </trkpt>
      <trkpt lat="50.04389" lon="2.3236">
        <ele>126.9</ele>
        <time>2023-10-25T13:21:17Z</time>
      </trkpt>
      <trkpt lat="50.04389" lon="2.3236">
        <ele>126.9</ele>
        <time>2023-10-25T13:21:18Z</time>
      </trkpt>
      <trkpt lat="50.0439" lon="2.32361">
        <ele>126.9</ele>
        <time>2023-10-25T13:21:19Z</time>
      </trkpt>
      <trkpt lat="50.0439" lon="2.32361">
        <ele>126.9</ele>
        <time>2023-10-25T13:21:20Z</time>
      </trkpt>
      <trkpt lat="50.04391" lon="2.32361">
        <ele>126.9</ele>
        <time>2023-10-25T13:21:21Z</time>
      </trkpt>
      <trkpt lat="50.04391" lon="2.32362">
        <ele>126.9</ele>
        <time>2023-10-25T13:21:22Z</time>
      </trkpt>
      <trkpt lat="50.04392" lon="2.32362">
        <ele>126.9</ele>
        <time>2023-10-25T13:21:23Z</time>
      </trkpt>
      <trkpt lat="50.04392" lon="2.32362">
        <ele>126.9</ele>
        <time>2023-10-25T13:21:24Z</time>
      </trkpt>
      <trkpt lat="50.04392" lon="2.32362">
        <ele>126.9</ele>
        <time>2023-10-25T13:21:25Z</time>
      </trkpt>
      <trkpt lat="50.04393" lon="2.32362">
        <ele>126.9</ele>
        <time>2023-10-25T13:21:26Z</time>
      </trkpt>
      <trkpt lat="50.04393" lon="2.32361">
        <ele>126.9</ele>
        <time>2023-10-25T13:21:27Z</time>
      </trkpt>
      <trkpt lat="50.04394" lon="2.32361">
        <ele>126.9</ele>
        <time>2023-10-25T13:21:28Z</time>
      </trkpt>
      <trkpt lat="50.04395" lon="2.3236">
        <ele>126.9</ele>
        <time>2023-10-25T13:21:29Z</time>
      </trkpt>
      <trkpt lat="50.04395" lon="2.3236">
        <ele>126.9</ele>
        <time>2023-10-25T13:21:30Z</time>
      </trkpt>
      <trkpt lat="50.04396" lon="2.3236">
        <ele>126.9</ele>
        <time>2023-10-25T13:21:31Z</time>
      </trkpt>
      <trkpt lat="50.04397" lon="2.32359">
        <ele>126.9</ele>
        <time>2023-10-25T13:21:32Z</time>
      </trkpt>
      <trkpt lat="50.04398" lon="2.32359">
        <ele>126.9</ele>
        <time>2023-10-25T13:21:33Z</time>
      </trkpt>
      <trkpt lat="50.04399" lon="2.32359">
        <ele>126.9</ele>
        <time>2023-10-25T13:21:34Z</time>
      </trkpt>
      <trkpt lat="50.044" lon="2.32358">
        <ele>126.9</ele>
        <time>2023-10-25T13:21:35Z</time>
      </trkpt>
      <trkpt lat="50.04401" lon="2.32358">
        <ele>126.9</ele>
        <time>2023-10-25T13:21:36Z</time>
      </trkpt>
      <trkpt lat="50.04402" lon="2.32357">
        <ele>126.9</ele>
        <time>2023-10-25T13:21:37Z</time>
      </trkpt>
      <trkpt lat="50.04403" lon="2.32357">
        <ele>126.9</ele>
        <time>2023-10-25T13:21:38Z</time>
      </trkpt>
      <trkpt lat="50.04404" lon="2.32357">
        <ele>126.9</ele>
        <time>2023-10-25T13:21:39Z</time>
      </trkpt>
      <trkpt lat="50.04405" lon="2.32357">
        <ele>126.9</ele>
        <time>2023-10-25T13:21:40Z</time>
      </trkpt>
      <trkpt lat="50.04406" lon="2.32356">
        <ele>126.9</ele>
        <time>2023-10-25T13:21:41Z</time>
      </trkpt>
      <trkpt lat="50.04407" lon="2.32356">
        <ele>126.9</ele>
        <time>2023-10-25T13:21:42Z</time>
      </trkpt>
      <trkpt lat="50.04408" lon="2.32356">
        <ele>126.9</ele>
        <time>2023-10-25T13:21:43Z</time>
      </trkpt>
      <trkpt lat="50.04409" lon="2.32356">
        <ele>126.8</ele>
        <time>2023-10-25T13:21:44Z</time>
      </trkpt>
      <trkpt lat="50.0441" lon="2.32356">
        <ele>126.7</ele>
        <time>2023-10-25T13:21:45Z</time>
      </trkpt>
      <trkpt lat="50.0441" lon="2.32357">
        <ele>126.7</ele>
        <time>2023-10-25T13:21:46Z</time>
      </trkpt>
      <trkpt lat="50.04411" lon="2.32357">
        <ele>126.7</ele>
        <time>2023-10-25T13:21:47Z</time>
      </trkpt>
      <trkpt lat="50.04412" lon="2.32357">
        <ele>126.6</ele>
        <time>2023-10-25T13:21:48Z</time>
      </trkpt>
      <trkpt lat="50.04413" lon="2.32358">
        <ele>126.6</ele>
        <time>2023-10-25T13:21:49Z</time>
      </trkpt>
      <trkpt lat="50.04414" lon="2.32358">
        <ele>126.6</ele>
        <time>2023-10-25T13:21:50Z</time>
      </trkpt>
      <trkpt lat="50.04414" lon="2.32359">
        <ele>126.6</ele>
        <time>2023-10-25T13:21:51Z</time>
      </trkpt>
      <trkpt lat="50.04415" lon="2.32359">
        <ele>126.5</ele>
        <time>2023-10-25T13:21:52Z</time>
      </trkpt>
      <trkpt lat="50.04416" lon="2.3236">
        <ele>126.5</ele>
        <time>2023-10-25T13:21:53Z</time>
      </trkpt>
      <trkpt lat="50.04417" lon="2.3236">
        <ele>126.5</ele>
        <time>2023-10-25T13:21:54Z</time>
      </trkpt>
      <trkpt lat="50.04418" lon="2.3236">
        <ele>126.4</ele>
        <time>2023-10-25T13:21:55Z</time>
      </trkpt>
      <trkpt lat="50.04419" lon="2.3236">
        <ele>126.4</ele>
        <time>2023-10-25T13:21:56Z</time>
      </trkpt>
      <trkpt lat="50.04419" lon="2.3236">
        <ele>126.4</ele>
        <time>2023-10-25T13:21:57Z</time>
      </trkpt>
      <trkpt lat="50.0442" lon="2.32361">
        <ele>126.3</ele>
        <time>2023-10-25T13:21:58Z</time>
      </trkpt>
      <trkpt lat="50.04421" lon="2.32361">
        <ele>126.3</ele>
        <time>2023-10-25T13:21:59Z</time>
      </trkpt>
      <trkpt lat="50.04422" lon="2.32361">
        <ele>126.3</ele>
        <time>2023-10-25T13:22:00Z</time>
      </trkpt>
      <trkpt lat="50.04423" lon="2.32362">
        <ele>126.2</ele>
        <time>2023-10-25T13:22:01Z</time>
      </trkpt>
      <trkpt lat="50.04424" lon="2.32362">
        <ele>126.2</ele>
        <time>2023-10-25T13:22:02Z</time>
      </trkpt>
      <trkpt lat="50.04424" lon="2.32362">
        <ele>126.2</ele>
        <time>2023-10-25T13:22:03Z</time>
      </trkpt>
      <trkpt lat="50.04425" lon="2.32363">
        <ele>126.1</ele>
        <time>2023-10-25T13:22:04Z</time>
      </trkpt>
      <trkpt lat="50.04426" lon="2.32363">
        <ele>126.1</ele>
        <time>2023-10-25T13:22:05Z</time>
      </trkpt>
      <trkpt lat="50.04427" lon="2.32363">
        <ele>126</ele>
        <time>2023-10-25T13:22:06Z</time>
      </trkpt>
      <trkpt lat="50.04428" lon="2.32364">
        <ele>126</ele>
        <time>2023-10-25T13:22:07Z</time>
      </trkpt>
      <trkpt lat="50.04429" lon="2.32364">
        <ele>126</ele>
        <time>2023-10-25T13:22:08Z</time>
      </trkpt>
      <trkpt lat="50.0443" lon="2.32365">
        <ele>125.9</ele>
        <time>2023-10-25T13:22:09Z</time>
      </trkpt>
      <trkpt lat="50.04431" lon="2.32365">
        <ele>125.9</ele>
        <time>2023-10-25T13:22:10Z</time>
      </trkpt>
      <trkpt lat="50.04432" lon="2.32366">
        <ele>125.8</ele>
        <time>2023-10-25T13:22:11Z</time>
      </trkpt>
      <trkpt lat="50.04433" lon="2.32366">
        <ele>125.8</ele>
        <time>2023-10-25T13:22:12Z</time>
      </trkpt>
      <trkpt lat="50.04434" lon="2.32367">
        <ele>125.7</ele>
        <time>2023-10-25T13:22:13Z</time>
      </trkpt>
      <trkpt lat="50.04435" lon="2.32367">
        <ele>125.7</ele>
        <time>2023-10-25T13:22:14Z</time>
      </trkpt>
      <trkpt lat="50.04437" lon="2.32368">
        <ele>125.6</ele>
        <time>2023-10-25T13:22:15Z</time>
      </trkpt>
      <trkpt lat="50.04438" lon="2.32368">
        <ele>125.6</ele>
        <time>2023-10-25T13:22:16Z</time>
      </trkpt>
      <trkpt lat="50.04439" lon="2.32369">
        <ele>125.5</ele>
        <time>2023-10-25T13:22:17Z</time>
      </trkpt>
      <trkpt lat="50.0444" lon="2.32369">
        <ele>125.5</ele>
        <time>2023-10-25T13:22:18Z</time>
      </trkpt>
      <trkpt lat="50.0444" lon="2.32369">
        <ele>125.4</ele>
        <time>2023-10-25T13:22:19Z</time>
      </trkpt>
      <trkpt lat="50.04441" lon="2.3237">
        <ele>125.4</ele>
        <time>2023-10-25T13:22:20Z</time>
      </trkpt>
      <trkpt lat="50.04442" lon="2.3237">
        <ele>125.3</ele>
        <time>2023-10-25T13:22:21Z</time>
      </trkpt>
      <trkpt lat="50.04443" lon="2.3237">
        <ele>125.3</ele>
        <time>2023-10-25T13:22:22Z</time>
      </trkpt>
      <trkpt lat="50.04444" lon="2.32371">
        <ele>125.3</ele>
        <time>2023-10-25T13:22:23Z</time>
      </trkpt>
      <trkpt lat="50.04445" lon="2.32371">
        <ele>125.2</ele>
        <time>2023-10-25T13:22:24Z</time>
      </trkpt>
      <trkpt lat="50.04446" lon="2.32371">
        <ele>125.2</ele>
        <time>2023-10-25T13:22:25Z</time>
      </trkpt>
      <trkpt lat="50.04447" lon="2.32371">
        <ele>125.1</ele>
        <time>2023-10-25T13:22:26Z</time>
      </trkpt>
      <trkpt lat="50.04448" lon="2.32372">
        <ele>125.1</ele>
        <time>2023-10-25T13:22:27Z</time>
      </trkpt>
      <trkpt lat="50.0445" lon="2.32372">
        <ele>125</ele>
        <time>2023-10-25T13:22:28Z</time>
      </trkpt>
      <trkpt lat="50.04451" lon="2.32372">
        <ele>125</ele>
        <time>2023-10-25T13:22:29Z</time>
      </trkpt>
      <trkpt lat="50.04452" lon="2.32373">
        <ele>124.9</ele>
        <time>2023-10-25T13:22:30Z</time>
      </trkpt>
      <trkpt lat="50.04454" lon="2.32373">
        <ele>124.8</ele>
        <time>2023-10-25T13:22:31Z</time>
      </trkpt>
      <trkpt lat="50.04454" lon="2.32374">
        <ele>124.8</ele>
        <time>2023-10-25T13:22:32Z</time>
      </trkpt>
      <trkpt lat="50.04455" lon="2.32374">
        <ele>124.7</ele>
        <time>2023-10-25T13:22:33Z</time>
      </trkpt>
      <trkpt lat="50.04457" lon="2.32375">
        <ele>124.6</ele>
        <time>2023-10-25T13:22:34Z</time>
      </trkpt>
      <trkpt lat="50.04458" lon="2.32375">
        <ele>124.6</ele>
        <time>2023-10-25T13:22:35Z</time>
      </trkpt>
      <trkpt lat="50.04459" lon="2.32375">
        <ele>124.5</ele>
        <time>2023-10-25T13:22:36Z</time>
      </trkpt>
      <trkpt lat="50.04461" lon="2.32376">
        <ele>124.5</ele>
        <time>2023-10-25T13:22:37Z</time>
      </trkpt>
      <trkpt lat="50.04462" lon="2.32376">
        <ele>124.4</ele>
        <time>2023-10-25T13:22:38Z</time>
      </trkpt>
      <trkpt lat="50.04463" lon="2.32376">
        <ele>124.4</ele>
        <time>2023-10-25T13:22:39Z</time>
      </trkpt>
      <trkpt lat="50.04464" lon="2.32377">
        <ele>124.3</ele>
        <time>2023-10-25T13:22:40Z</time>
      </trkpt>
      <trkpt lat="50.04465" lon="2.32377">
        <ele>124.3</ele>
        <time>2023-10-25T13:22:41Z</time>
      </trkpt>
      <trkpt lat="50.04466" lon="2.32377">
        <ele>124.2</ele>
        <time>2023-10-25T13:22:42Z</time>
      </trkpt>
      <trkpt lat="50.04467" lon="2.32377">
        <ele>124.2</ele>
        <time>2023-10-25T13:22:43Z</time>
      </trkpt>
      <trkpt lat="50.04468" lon="2.32378">
        <ele>124.1</ele>
        <time>2023-10-25T13:22:44Z</time>
      </trkpt>
      <trkpt lat="50.0447" lon="2.32378">
        <ele>124.1</ele>
        <time>2023-10-25T13:22:45Z</time>
      </trkpt>
      <trkpt lat="50.04471" lon="2.32378">
        <ele>124</ele>
        <time>2023-10-25T13:22:46Z</time>
      </trkpt>
      <trkpt lat="50.04471" lon="2.32378">
        <ele>124</ele>
        <time>2023-10-25T13:22:47Z</time>
      </trkpt>
      <trkpt lat="50.04472" lon="2.32378">
        <ele>123.9</ele>
        <time>2023-10-25T13:22:48Z</time>
      </trkpt>
      <trkpt lat="50.04473" lon="2.32379">
        <ele>123.9</ele>
        <time>2023-10-25T13:22:49Z</time>
      </trkpt>
      <trkpt lat="50.04474" lon="2.32379">
        <ele>123.8</ele>
        <time>2023-10-25T13:22:50Z</time>
      </trkpt>
      <trkpt lat="50.04475" lon="2.32379">
        <ele>123.8</ele>
        <time>2023-10-25T13:22:51Z</time>
      </trkpt>
      <trkpt lat="50.04477" lon="2.3238">
        <ele>123.7</ele>
        <time>2023-10-25T13:22:52Z</time>
      </trkpt>
      <trkpt lat="50.04478" lon="2.3238">
        <ele>123.7</ele>
        <time>2023-10-25T13:22:53Z</time>
      </trkpt>
      <trkpt lat="50.04479" lon="2.32381">
        <ele>123.6</ele>
        <time>2023-10-25T13:22:54Z</time>
      </trkpt>
      <trkpt lat="50.0448" lon="2.32381">
        <ele>123.6</ele>
        <time>2023-10-25T13:22:55Z</time>
      </trkpt>
      <trkpt lat="50.04481" lon="2.32381">
        <ele>123.6</ele>
        <time>2023-10-25T13:22:56Z</time>
      </trkpt>
      <trkpt lat="50.04482" lon="2.32382">
        <ele>123.5</ele>
        <time>2023-10-25T13:22:57Z</time>
      </trkpt>
      <trkpt lat="50.04483" lon="2.32382">
        <ele>123.5</ele>
        <time>2023-10-25T13:22:58Z</time>
      </trkpt>
      <trkpt lat="50.04484" lon="2.32382">
        <ele>123.4</ele>
        <time>2023-10-25T13:22:59Z</time>
      </trkpt>
      <trkpt lat="50.04485" lon="2.32382">
        <ele>123.4</ele>
        <time>2023-10-25T13:23:00Z</time>
      </trkpt>
      <trkpt lat="50.04486" lon="2.32382">
        <ele>123.3</ele>
        <time>2023-10-25T13:23:01Z</time>
      </trkpt>
      <trkpt lat="50.04487" lon="2.32382">
        <ele>123.3</ele>
        <time>2023-10-25T13:23:02Z</time>
      </trkpt>
      <trkpt lat="50.04488" lon="2.32382">
        <ele>123.2</ele>
        <time>2023-10-25T13:23:03Z</time>
      </trkpt>
      <trkpt lat="50.04489" lon="2.32382">
        <ele>123.2</ele>
        <time>2023-10-25T13:23:04Z</time>
      </trkpt>
      <trkpt lat="50.0449" lon="2.32382">
        <ele>123.2</ele>
        <time>2023-10-25T13:23:05Z</time>
      </trkpt>
      <trkpt lat="50.04491" lon="2.32383">
        <ele>123.1</ele>
        <time>2023-10-25T13:23:06Z</time>
      </trkpt>
      <trkpt lat="50.04492" lon="2.32383">
        <ele>123.1</ele>
        <time>2023-10-25T13:23:07Z</time>
      </trkpt>
      <trkpt lat="50.04493" lon="2.32383">
        <ele>123</ele>
        <time>2023-10-25T13:23:08Z</time>
      </trkpt>
      <trkpt lat="50.04494" lon="2.32383">
        <ele>123</ele>
        <time>2023-10-25T13:23:09Z</time>
      </trkpt>
      <trkpt lat="50.04495" lon="2.32384">
        <ele>122.9</ele>
        <time>2023-10-25T13:23:10Z</time>
      </trkpt>
      <trkpt lat="50.04496" lon="2.32384">
        <ele>123</ele>
        <time>2023-10-25T13:23:11Z</time>
      </trkpt>
      <trkpt lat="50.04497" lon="2.32384">
        <ele>123</ele>
        <time>2023-10-25T13:23:12Z</time>
      </trkpt>
      <trkpt lat="50.04498" lon="2.32385">
        <ele>123.1</ele>
        <time>2023-10-25T13:23:13Z</time>
      </trkpt>
      <trkpt lat="50.04499" lon="2.32386">
        <ele>123.1</ele>
        <time>2023-10-25T13:23:14Z</time>
      </trkpt>
      <trkpt lat="50.045" lon="2.32387">
        <ele>123.1</ele>
        <time>2023-10-25T13:23:15Z</time>
      </trkpt>
      <trkpt lat="50.04501" lon="2.32388">
        <ele>123.1</ele>
        <time>2023-10-25T13:23:16Z</time>
      </trkpt>
      <trkpt lat="50.04501" lon="2.32389">
        <ele>123.2</ele>
        <time>2023-10-25T13:23:17Z</time>
      </trkpt>
      <trkpt lat="50.04502" lon="2.32391">
        <ele>123.2</ele>
        <time>2023-10-25T13:23:18Z</time>
      </trkpt>
      <trkpt lat="50.04502" lon="2.32392">
        <ele>123.2</ele>
        <time>2023-10-25T13:23:19Z</time>
      </trkpt>
      <trkpt lat="50.04502" lon="2.32393">
        <ele>123.2</ele>
        <time>2023-10-25T13:23:20Z</time>
      </trkpt>
      <trkpt lat="50.04502" lon="2.32394">
        <ele>123.2</ele>
        <time>2023-10-25T13:23:21Z</time>
      </trkpt>
      <trkpt lat="50.04502" lon="2.32395">
        <ele>123.2</ele>
        <time>2023-10-25T13:23:22Z</time>
      </trkpt>
      <trkpt lat="50.04501" lon="2.32396">
        <ele>123.2</ele>
        <time>2023-10-25T13:23:23Z</time>
      </trkpt>
      <trkpt lat="50.04501" lon="2.32397">
        <ele>123.3</ele>
        <time>2023-10-25T13:23:24Z</time>
      </trkpt>
      <trkpt lat="50.04501" lon="2.32398">
        <ele>123.3</ele>
        <time>2023-10-25T13:23:25Z</time>
      </trkpt>
      <trkpt lat="50.04501" lon="2.32399">
        <ele>123.3</ele>
        <time>2023-10-25T13:23:26Z</time>
      </trkpt>
      <trkpt lat="50.04501" lon="2.324">
        <ele>123.3</ele>
        <time>2023-10-25T13:23:27Z</time>
      </trkpt>
      <trkpt lat="50.04501" lon="2.32401">
        <ele>123.3</ele>
        <time>2023-10-25T13:23:28Z</time>
      </trkpt>
      <trkpt lat="50.04501" lon="2.32402">
        <ele>123.3</ele>
        <time>2023-10-25T13:23:29Z</time>
      </trkpt>
      <trkpt lat="50.04501" lon="2.32402">
        <ele>123.3</ele>
        <time>2023-10-25T13:23:30Z</time>
      </trkpt>
      <trkpt lat="50.045" lon="2.32403">
        <ele>123.3</ele>
        <time>2023-10-25T13:23:31Z</time>
      </trkpt>
      <trkpt lat="50.045" lon="2.32404">
        <ele>123.3</ele>
        <time>2023-10-25T13:23:32Z</time>
      </trkpt>
      <trkpt lat="50.045" lon="2.32405">
        <ele>123.4</ele>
        <time>2023-10-25T13:23:33Z</time>
      </trkpt>
      <trkpt lat="50.04499" lon="2.32406">
        <ele>123.4</ele>
        <time>2023-10-25T13:23:34Z</time>
      </trkpt>
      <trkpt lat="50.04499" lon="2.32407">
        <ele>123.4</ele>
        <time>2023-10-25T13:23:35Z</time>
      </trkpt>
      <trkpt lat="50.04499" lon="2.32408">
        <ele>123.4</ele>
        <time>2023-10-25T13:23:36Z</time>
      </trkpt>
      <trkpt lat="50.04499" lon="2.32409">
        <ele>123.4</ele>
        <time>2023-10-25T13:23:37Z</time>
      </trkpt>
      <trkpt lat="50.04498" lon="2.3241">
        <ele>123.4</ele>
        <time>2023-10-25T13:23:38Z</time>
      </trkpt>
      <trkpt lat="50.04498" lon="2.3241">
        <ele>123.4</ele>
        <time>2023-10-25T13:23:39Z</time>
      </trkpt>
      <trkpt lat="50.04498" lon="2.32411">
        <ele>123.4</ele>
        <time>2023-10-25T13:23:40Z</time>
      </trkpt>
      <trkpt lat="50.04498" lon="2.32412">
        <ele>123.5</ele>
        <time>2023-10-25T13:23:41Z</time>
      </trkpt>
      <trkpt lat="50.04498" lon="2.32413">
        <ele>123.5</ele>
        <time>2023-10-25T13:23:42Z</time>
      </trkpt>
      <trkpt lat="50.04497" lon="2.32415">
        <ele>123.5</ele>
        <time>2023-10-25T13:23:43Z</time>
      </trkpt>
      <trkpt lat="50.04497" lon="2.32416">
        <ele>123.5</ele>
        <time>2023-10-25T13:23:44Z</time>
      </trkpt>
      <trkpt lat="50.04497" lon="2.32417">
        <ele>123.5</ele>
        <time>2023-10-25T13:23:45Z</time>
      </trkpt>
      <trkpt lat="50.04497" lon="2.32418">
        <ele>123.5</ele>
        <time>2023-10-25T13:23:46Z</time>
      </trkpt>
      <trkpt lat="50.04496" lon="2.32419">
        <ele>123.5</ele>
        <time>2023-10-25T13:23:47Z</time>
      </trkpt>
      <trkpt lat="50.04496" lon="2.32421">
        <ele>123.6</ele>
        <time>2023-10-25T13:23:48Z</time>
      </trkpt>
      <trkpt lat="50.04496" lon="2.32423">
        <ele>123.6</ele>
        <time>2023-10-25T13:23:49Z</time>
      </trkpt>
      <trkpt lat="50.04496" lon="2.32426">
        <ele>123.6</ele>
        <time>2023-10-25T13:23:50Z</time>
      </trkpt>
      <trkpt lat="50.04496" lon="2.32427">
        <ele>123.7</ele>
        <time>2023-10-25T13:23:51Z</time>
      </trkpt>
      <trkpt lat="50.04496" lon="2.32429">
        <ele>123.7</ele>
        <time>2023-10-25T13:23:52Z</time>
      </trkpt>
      <trkpt lat="50.04495" lon="2.32431">
        <ele>123.7</ele>
        <time>2023-10-25T13:23:53Z</time>
      </trkpt>
      <trkpt lat="50.04495" lon="2.32433">
        <ele>123.8</ele>
        <time>2023-10-25T13:23:54Z</time>
      </trkpt>
      <trkpt lat="50.04495" lon="2.32435">
        <ele>123.8</ele>
        <time>2023-10-25T13:23:55Z</time>
      </trkpt>
      <trkpt lat="50.04495" lon="2.32437">
        <ele>123.8</ele>
        <time>2023-10-25T13:23:56Z</time>
      </trkpt>
      <trkpt lat="50.04494" lon="2.32439">
        <ele>123.8</ele>
        <time>2023-10-25T13:23:57Z</time>
      </trkpt>
      <trkpt lat="50.04494" lon="2.3244">
        <ele>123.9</ele>
        <time>2023-10-25T13:23:58Z</time>
      </trkpt>
      <trkpt lat="50.04494" lon="2.32442">
        <ele>123.9</ele>
        <time>2023-10-25T13:23:59Z</time>
      </trkpt>
      <trkpt lat="50.04493" lon="2.32443">
        <ele>123.9</ele>
        <time>2023-10-25T13:24:00Z</time>
      </trkpt>
      <trkpt lat="50.04493" lon="2.32445">
        <ele>123.9</ele>
        <time>2023-10-25T13:24:01Z</time>
      </trkpt>
      <trkpt lat="50.04492" lon="2.32447">
        <ele>124</ele>
        <time>2023-10-25T13:24:02Z</time>
      </trkpt>
      <trkpt lat="50.04492" lon="2.32448">
        <ele>124</ele>
        <time>2023-10-25T13:24:03Z</time>
      </trkpt>
      <trkpt lat="50.04492" lon="2.32449">
        <ele>124</ele>
        <time>2023-10-25T13:24:04Z</time>
      </trkpt>
      <trkpt lat="50.04492" lon="2.32451">
        <ele>124</ele>
        <time>2023-10-25T13:24:05Z</time>
      </trkpt>
      <trkpt lat="50.04491" lon="2.32452">
        <ele>124</ele>
        <time>2023-10-25T13:24:06Z</time>
      </trkpt>
      <trkpt lat="50.04491" lon="2.32454">
        <ele>124.1</ele>
        <time>2023-10-25T13:24:07Z</time>
      </trkpt>
      <trkpt lat="50.04491" lon="2.32455">
        <ele>124.1</ele>
        <time>2023-10-25T13:24:08Z</time>
      </trkpt>
      <trkpt lat="50.04491" lon="2.32457">
        <ele>124.1</ele>
        <time>2023-10-25T13:24:09Z</time>
      </trkpt>
      <trkpt lat="50.04491" lon="2.32459">
        <ele>124.1</ele>
        <time>2023-10-25T13:24:10Z</time>
      </trkpt>
      <trkpt lat="50.04491" lon="2.3246">
        <ele>124.1</ele>
        <time>2023-10-25T13:24:11Z</time>
      </trkpt>
      <trkpt lat="50.04491" lon="2.32461">
        <ele>124.2</ele>
        <time>2023-10-25T13:24:12Z</time>
      </trkpt>
      <trkpt lat="50.0449" lon="2.32462">
        <ele>124.2</ele>
        <time>2023-10-25T13:24:13Z</time>
      </trkpt>
      <trkpt lat="50.0449" lon="2.32464">
        <ele>124.2</ele>
        <time>2023-10-25T13:24:14Z</time>
      </trkpt>
      <trkpt lat="50.0449" lon="2.32465">
        <ele>124.2</ele>
        <time>2023-10-25T13:24:15Z</time>
      </trkpt>
      <trkpt lat="50.0449" lon="2.32466">
        <ele>124.2</ele>
        <time>2023-10-25T13:24:16Z</time>
      </trkpt>
      <trkpt lat="50.0449" lon="2.32467">
        <ele>124.2</ele>
        <time>2023-10-25T13:24:17Z</time>
      </trkpt>
      <trkpt lat="50.0449" lon="2.32469">
        <ele>124.3</ele>
        <time>2023-10-25T13:24:18Z</time>
      </trkpt>
      <trkpt lat="50.0449" lon="2.32471">
        <ele>124.3</ele>
        <time>2023-10-25T13:24:19Z</time>
      </trkpt>
      <trkpt lat="50.0449" lon="2.32472">
        <ele>124.3</ele>
        <time>2023-10-25T13:24:20Z</time>
      </trkpt>
      <trkpt lat="50.0449" lon="2.32474">
        <ele>124.3</ele>
        <time>2023-10-25T13:24:21Z</time>
      </trkpt>
      <trkpt lat="50.0449" lon="2.32475">
        <ele>124.3</ele>
        <time>2023-10-25T13:24:22Z</time>
      </trkpt>
      <trkpt lat="50.0449" lon="2.32476">
        <ele>124.4</ele>
        <time>2023-10-25T13:24:23Z</time>
      </trkpt>
      <trkpt lat="50.0449" lon="2.32478">
        <ele>124.4</ele>
        <time>2023-10-25T13:24:24Z</time>
      </trkpt>
      <trkpt lat="50.04489" lon="2.32479">
        <ele>124.4</ele>
        <time>2023-10-25T13:24:25Z</time>
      </trkpt>
      <trkpt lat="50.04489" lon="2.3248">
        <ele>124.4</ele>
        <time>2023-10-25T13:24:26Z</time>
      </trkpt>
      <trkpt lat="50.04489" lon="2.32482">
        <ele>124.5</ele>
        <time>2023-10-25T13:24:27Z</time>
      </trkpt>
      <trkpt lat="50.04489" lon="2.32483">
        <ele>124.5</ele>
        <time>2023-10-25T13:24:28Z</time>
      </trkpt>
      <trkpt lat="50.04489" lon="2.32485">
        <ele>124.5</ele>
        <time>2023-10-25T13:24:29Z</time>
      </trkpt>
      <trkpt lat="50.04489" lon="2.32486">
        <ele>124.5</ele>
        <time>2023-10-25T13:24:30Z</time>
      </trkpt>
      <trkpt lat="50.04488" lon="2.32488">
        <ele>124.6</ele>
        <time>2023-10-25T13:24:31Z</time>
      </trkpt>
      <trkpt lat="50.04488" lon="2.3249">
        <ele>124.6</ele>
        <time>2023-10-25T13:24:32Z</time>
      </trkpt>
      <trkpt lat="50.04488" lon="2.32491">
        <ele>124.6</ele>
        <time>2023-10-25T13:24:33Z</time>
      </trkpt>
      <trkpt lat="50.04487" lon="2.32493">
        <ele>124.6</ele>
        <time>2023-10-25T13:24:34Z</time>
      </trkpt>
      <trkpt lat="50.04487" lon="2.32494">
        <ele>124.7</ele>
        <time>2023-10-25T13:24:35Z</time>
      </trkpt>
      <trkpt lat="50.04487" lon="2.32496">
        <ele>124.7</ele>
        <time>2023-10-25T13:24:36Z</time>
      </trkpt>
      <trkpt lat="50.04487" lon="2.32497">
        <ele>124.7</ele>
        <time>2023-10-25T13:24:37Z</time>
      </trkpt>
      <trkpt lat="50.04486" lon="2.32498">
        <ele>124.7</ele>
        <time>2023-10-25T13:24:38Z</time>
      </trkpt>
      <trkpt lat="50.04486" lon="2.32499">
        <ele>124.7</ele>
        <time>2023-10-25T13:24:39Z</time>
      </trkpt>
      <trkpt lat="50.04486" lon="2.32501">
        <ele>124.8</ele>
        <time>2023-10-25T13:24:40Z</time>
      </trkpt>
      <trkpt lat="50.04486" lon="2.32502">
        <ele>124.8</ele>
        <time>2023-10-25T13:24:41Z</time>
      </trkpt>
      <trkpt lat="50.04486" lon="2.32503">
        <ele>124.8</ele>
        <time>2023-10-25T13:24:42Z</time>
      </trkpt>
      <trkpt lat="50.04486" lon="2.32504">
        <ele>124.8</ele>
        <time>2023-10-25T13:24:43Z</time>
      </trkpt>
      <trkpt lat="50.04485" lon="2.32506">
        <ele>124.8</ele>
        <time>2023-10-25T13:24:44Z</time>
      </trkpt>
      <trkpt lat="50.04485" lon="2.32507">
        <ele>124.9</ele>
        <time>2023-10-25T13:24:45Z</time>
      </trkpt>
      <trkpt lat="50.04485" lon="2.32508">
        <ele>124.9</ele>
        <time>2023-10-25T13:24:46Z</time>
      </trkpt>
      <trkpt lat="50.04485" lon="2.3251">
        <ele>124.9</ele>
        <time>2023-10-25T13:24:47Z</time>
      </trkpt>
      <trkpt lat="50.04485" lon="2.32512">
        <ele>124.9</ele>
        <time>2023-10-25T13:24:48Z</time>
      </trkpt>
      <trkpt lat="50.04485" lon="2.32514">
        <ele>124.9</ele>
        <time>2023-10-25T13:24:49Z</time>
      </trkpt>
      <trkpt lat="50.04485" lon="2.32515">
        <ele>125</ele>
        <time>2023-10-25T13:24:50Z</time>
      </trkpt>
      <trkpt lat="50.04485" lon="2.32516">
        <ele>125</ele>
        <time>2023-10-25T13:24:51Z</time>
      </trkpt>
      <trkpt lat="50.04485" lon="2.32517">
        <ele>125</ele>
        <time>2023-10-25T13:24:52Z</time>
      </trkpt>
      <trkpt lat="50.04484" lon="2.32519">
        <ele>125</ele>
        <time>2023-10-25T13:24:53Z</time>
      </trkpt>
      <trkpt lat="50.04484" lon="2.3252">
        <ele>125</ele>
        <time>2023-10-25T13:24:54Z</time>
      </trkpt>
      <trkpt lat="50.04484" lon="2.32521">
        <ele>125</ele>
        <time>2023-10-25T13:24:55Z</time>
      </trkpt>
      <trkpt lat="50.04484" lon="2.32522">
        <ele>125.1</ele>
        <time>2023-10-25T13:24:56Z</time>
      </trkpt>
      <trkpt lat="50.04484" lon="2.32524">
        <ele>125.1</ele>
        <time>2023-10-25T13:24:57Z</time>
      </trkpt>
      <trkpt lat="50.04484" lon="2.32526">
        <ele>125.1</ele>
        <time>2023-10-25T13:24:58Z</time>
      </trkpt>
      <trkpt lat="50.04484" lon="2.32527">
        <ele>125.1</ele>
        <time>2023-10-25T13:24:59Z</time>
      </trkpt>
      <trkpt lat="50.04484" lon="2.32528">
        <ele>125.1</ele>
        <time>2023-10-25T13:25:00Z</time>
      </trkpt>
      <trkpt lat="50.04483" lon="2.3253">
        <ele>125.2</ele>
        <time>2023-10-25T13:25:01Z</time>
      </trkpt>
      <trkpt lat="50.04483" lon="2.32531">
        <ele>125.2</ele>
        <time>2023-10-25T13:25:02Z</time>
      </trkpt>
      <trkpt lat="50.04483" lon="2.32533">
        <ele>125.2</ele>
        <time>2023-10-25T13:25:03Z</time>
      </trkpt>
      <trkpt lat="50.04483" lon="2.32534">
        <ele>125.2</ele>
        <time>2023-10-25T13:25:04Z</time>
      </trkpt>
      <trkpt lat="50.04483" lon="2.32536">
        <ele>125.2</ele>
        <time>2023-10-25T13:25:05Z</time>
      </trkpt>
      <trkpt lat="50.04483" lon="2.32537">
        <ele>125.2</ele>
        <time>2023-10-25T13:25:06Z</time>
      </trkpt>
      <trkpt lat="50.04483" lon="2.32539">
        <ele>125.3</ele>
        <time>2023-10-25T13:25:07Z</time>
      </trkpt>
      <trkpt lat="50.04483" lon="2.32541">
        <ele>125.3</ele>
        <time>2023-10-25T13:25:08Z</time>
      </trkpt>
      <trkpt lat="50.04482" lon="2.32542">
        <ele>125.3</ele>
        <time>2023-10-25T13:25:09Z</time>
      </trkpt>
      <trkpt lat="50.04482" lon="2.32544">
        <ele>125.3</ele>
        <time>2023-10-25T13:25:10Z</time>
      </trkpt>
      <trkpt lat="50.04482" lon="2.32545">
        <ele>125.3</ele>
        <time>2023-10-25T13:25:11Z</time>
      </trkpt>
      <trkpt lat="50.04482" lon="2.32547">
        <ele>125.3</ele>
        <time>2023-10-25T13:25:12Z</time>
      </trkpt>
      <trkpt lat="50.04481" lon="2.32549">
        <ele>125.4</ele>
        <time>2023-10-25T13:25:13Z</time>
      </trkpt>
      <trkpt lat="50.04481" lon="2.3255">
        <ele>125.4</ele>
        <time>2023-10-25T13:25:14Z</time>
      </trkpt>
      <trkpt lat="50.04481" lon="2.32552">
        <ele>125.4</ele>
        <time>2023-10-25T13:25:15Z</time>
      </trkpt>
      <trkpt lat="50.04481" lon="2.32553">
        <ele>125.4</ele>
        <time>2023-10-25T13:25:16Z</time>
      </trkpt>
      <trkpt lat="50.04481" lon="2.32555">
        <ele>125.4</ele>
        <time>2023-10-25T13:25:17Z</time>
      </trkpt>
      <trkpt lat="50.04481" lon="2.32556">
        <ele>125.4</ele>
        <time>2023-10-25T13:25:18Z</time>
      </trkpt>
      <trkpt lat="50.0448" lon="2.32558">
        <ele>125.5</ele>
        <time>2023-10-25T13:25:19Z</time>
      </trkpt>
      <trkpt lat="50.0448" lon="2.3256">
        <ele>125.5</ele>
        <time>2023-10-25T13:25:20Z</time>
      </trkpt>
      <trkpt lat="50.0448" lon="2.32561">
        <ele>125.5</ele>
        <time>2023-10-25T13:25:21Z</time>
      </trkpt>
      <trkpt lat="50.0448" lon="2.32562">
        <ele>125.5</ele>
        <time>2023-10-25T13:25:22Z</time>
      </trkpt>
      <trkpt lat="50.04479" lon="2.32564">
        <ele>125.5</ele>
        <time>2023-10-25T13:25:23Z</time>
      </trkpt>
      <trkpt lat="50.04479" lon="2.32565">
        <ele>125.5</ele>
        <time>2023-10-25T13:25:24Z</time>
      </trkpt>
      <trkpt lat="50.04479" lon="2.32566">
        <ele>125.5</ele>
        <time>2023-10-25T13:25:25Z</time>
      </trkpt>
      <trkpt lat="50.04478" lon="2.32568">
        <ele>125.5</ele>
        <time>2023-10-25T13:25:26Z</time>
      </trkpt>
      <trkpt lat="50.04478" lon="2.32569">
        <ele>125.5</ele>
        <time>2023-10-25T13:25:27Z</time>
      </trkpt>
      <trkpt lat="50.04478" lon="2.32571">
        <ele>125.6</ele>
        <time>2023-10-25T13:25:28Z</time>
      </trkpt>
      <trkpt lat="50.04477" lon="2.32573">
        <ele>125.6</ele>
        <time>2023-10-25T13:25:29Z</time>
      </trkpt>
      <trkpt lat="50.04477" lon="2.32574">
        <ele>125.6</ele>
        <time>2023-10-25T13:25:30Z</time>
      </trkpt>
      <trkpt lat="50.04477" lon="2.32575">
        <ele>125.6</ele>
        <time>2023-10-25T13:25:31Z</time>
      </trkpt>
      <trkpt lat="50.04477" lon="2.32577">
        <ele>125.6</ele>
        <time>2023-10-25T13:25:32Z</time>
      </trkpt>
      <trkpt lat="50.04477" lon="2.32578">
        <ele>125.6</ele>
        <time>2023-10-25T13:25:33Z</time>
      </trkpt>
      <trkpt lat="50.04477" lon="2.3258">
        <ele>125.6</ele>
        <time>2023-10-25T13:25:34Z</time>
      </trkpt>
      <trkpt lat="50.04476" lon="2.32581">
        <ele>125.6</ele>
        <time>2023-10-25T13:25:35Z</time>
      </trkpt>
      <trkpt lat="50.04476" lon="2.32583">
        <ele>125.6</ele>
        <time>2023-10-25T13:25:36Z</time>
      </trkpt>
      <trkpt lat="50.04476" lon="2.32585">
        <ele>125.6</ele>
        <time>2023-10-25T13:25:37Z</time>
      </trkpt>
      <trkpt lat="50.04476" lon="2.32586">
        <ele>125.7</ele>
        <time>2023-10-25T13:25:38Z</time>
      </trkpt>
      <trkpt lat="50.04475" lon="2.32587">
        <ele>125.7</ele>
        <time>2023-10-25T13:25:39Z</time>
      </trkpt>
      <trkpt lat="50.04475" lon="2.32589">
        <ele>125.7</ele>
        <time>2023-10-25T13:25:40Z</time>
      </trkpt>
      <trkpt lat="50.04475" lon="2.32591">
        <ele>125.7</ele>
        <time>2023-10-25T13:25:41Z</time>
      </trkpt>
      <trkpt lat="50.04475" lon="2.32592">
        <ele>125.7</ele>
        <time>2023-10-25T13:25:42Z</time>
      </trkpt>
      <trkpt lat="50.04475" lon="2.32594">
        <ele>125.7</ele>
        <time>2023-10-25T13:25:43Z</time>
      </trkpt>
      <trkpt lat="50.04475" lon="2.32596">
        <ele>125.7</ele>
        <time>2023-10-25T13:25:44Z</time>
      </trkpt>
      <trkpt lat="50.04475" lon="2.32597">
        <ele>125.7</ele>
        <time>2023-10-25T13:25:45Z</time>
      </trkpt>
      <trkpt lat="50.04475" lon="2.32599">
        <ele>125.7</ele>
        <time>2023-10-25T13:25:46Z</time>
      </trkpt>
      <trkpt lat="50.04475" lon="2.32601">
        <ele>125.7</ele>
        <time>2023-10-25T13:25:47Z</time>
      </trkpt>
      <trkpt lat="50.04476" lon="2.32602">
        <ele>125.7</ele>
        <time>2023-10-25T13:25:48Z</time>
      </trkpt>
      <trkpt lat="50.04475" lon="2.32604">
        <ele>125.7</ele>
        <time>2023-10-25T13:25:49Z</time>
      </trkpt>
      <trkpt lat="50.04475" lon="2.32606">
        <ele>125.7</ele>
        <time>2023-10-25T13:25:50Z</time>
      </trkpt>
      <trkpt lat="50.04475" lon="2.32607">
        <ele>125.7</ele>
        <time>2023-10-25T13:25:51Z</time>
      </trkpt>
      <trkpt lat="50.04475" lon="2.32609">
        <ele>125.7</ele>
        <time>2023-10-25T13:25:52Z</time>
      </trkpt>
      <trkpt lat="50.04475" lon="2.3261">
        <ele>125.7</ele>
        <time>2023-10-25T13:25:53Z</time>
      </trkpt>
      <trkpt lat="50.04475" lon="2.32612">
        <ele>125.7</ele>
        <time>2023-10-25T13:25:54Z</time>
      </trkpt>
      <trkpt lat="50.04475" lon="2.32613">
        <ele>125.7</ele>
        <time>2023-10-25T13:25:55Z</time>
      </trkpt>
      <trkpt lat="50.04475" lon="2.32614">
        <ele>125.7</ele>
        <time>2023-10-25T13:25:56Z</time>
      </trkpt>
      <trkpt lat="50.04475" lon="2.32615">
        <ele>125.7</ele>
        <time>2023-10-25T13:25:57Z</time>
      </trkpt>
      <trkpt lat="50.04475" lon="2.32617">
        <ele>125.7</ele>
        <time>2023-10-25T13:25:58Z</time>
      </trkpt>
      <trkpt lat="50.04475" lon="2.32618">
        <ele>125.7</ele>
        <time>2023-10-25T13:25:59Z</time>
      </trkpt>
      <trkpt lat="50.04474" lon="2.3262">
        <ele>125.7</ele>
        <time>2023-10-25T13:26:00Z</time>
      </trkpt>
      <trkpt lat="50.04474" lon="2.32621">
        <ele>125.8</ele>
        <time>2023-10-25T13:26:01Z</time>
      </trkpt>
      <trkpt lat="50.04474" lon="2.32623">
        <ele>125.8</ele>
        <time>2023-10-25T13:26:02Z</time>
      </trkpt>
      <trkpt lat="50.04474" lon="2.32624">
        <ele>125.8</ele>
        <time>2023-10-25T13:26:03Z</time>
      </trkpt>
      <trkpt lat="50.04474" lon="2.32626">
        <ele>125.8</ele>
        <time>2023-10-25T13:26:04Z</time>
      </trkpt>
      <trkpt lat="50.04474" lon="2.32627">
        <ele>125.8</ele>
        <time>2023-10-25T13:26:05Z</time>
      </trkpt>
      <trkpt lat="50.04474" lon="2.32629">
        <ele>125.8</ele>
        <time>2023-10-25T13:26:06Z</time>
      </trkpt>
      <trkpt lat="50.04473" lon="2.3263">
        <ele>125.8</ele>
        <time>2023-10-25T13:26:07Z</time>
      </trkpt>
      <trkpt lat="50.04473" lon="2.32632">
        <ele>125.8</ele>
        <time>2023-10-25T13:26:08Z</time>
      </trkpt>
      <trkpt lat="50.04473" lon="2.32634">
        <ele>125.8</ele>
        <time>2023-10-25T13:26:09Z</time>
      </trkpt>
      <trkpt lat="50.04473" lon="2.32635">
        <ele>125.8</ele>
        <time>2023-10-25T13:26:10Z</time>
      </trkpt>
      <trkpt lat="50.04473" lon="2.32636">
        <ele>125.8</ele>
        <time>2023-10-25T13:26:11Z</time>
      </trkpt>
      <trkpt lat="50.04473" lon="2.32638">
        <ele>125.8</ele>
        <time>2023-10-25T13:26:12Z</time>
      </trkpt>
      <trkpt lat="50.04472" lon="2.3264">
        <ele>125.8</ele>
        <time>2023-10-25T13:26:13Z</time>
      </trkpt>
      <trkpt lat="50.04472" lon="2.32641">
        <ele>125.8</ele>
        <time>2023-10-25T13:26:14Z</time>
      </trkpt>
      <trkpt lat="50.04472" lon="2.32644">
        <ele>125.8</ele>
        <time>2023-10-25T13:26:15Z</time>
      </trkpt>
      <trkpt lat="50.04472" lon="2.32646">
        <ele>125.8</ele>
        <time>2023-10-25T13:26:16Z</time>
      </trkpt>
      <trkpt lat="50.04471" lon="2.32647">
        <ele>125.8</ele>
        <time>2023-10-25T13:26:17Z</time>
      </trkpt>
      <trkpt lat="50.04471" lon="2.32649">
        <ele>125.8</ele>
        <time>2023-10-25T13:26:18Z</time>
      </trkpt>
      <trkpt lat="50.04471" lon="2.3265">
        <ele>125.8</ele>
        <time>2023-10-25T13:26:19Z</time>
      </trkpt>
      <trkpt lat="50.04471" lon="2.32652">
        <ele>125.8</ele>
        <time>2023-10-25T13:26:20Z</time>
      </trkpt>
      <trkpt lat="50.0447" lon="2.32654">
        <ele>125.8</ele>
        <time>2023-10-25T13:26:21Z</time>
      </trkpt>
      <trkpt lat="50.0447" lon="2.32655">
        <ele>125.8</ele>
        <time>2023-10-25T13:26:22Z</time>
      </trkpt>
      <trkpt lat="50.0447" lon="2.32657">
        <ele>125.8</ele>
        <time>2023-10-25T13:26:23Z</time>
      </trkpt>
      <trkpt lat="50.0447" lon="2.32659">
        <ele>125.8</ele>
        <time>2023-10-25T13:26:24Z</time>
      </trkpt>
      <trkpt lat="50.04469" lon="2.32661">
        <ele>125.8</ele>
        <time>2023-10-25T13:26:25Z</time>
      </trkpt>
      <trkpt lat="50.04469" lon="2.32662">
        <ele>125.8</ele>
        <time>2023-10-25T13:26:26Z</time>
      </trkpt>
      <trkpt lat="50.04469" lon="2.32664">
        <ele>125.8</ele>
        <time>2023-10-25T13:26:27Z</time>
      </trkpt>
      <trkpt lat="50.04469" lon="2.32665">
        <ele>125.8</ele>
        <time>2023-10-25T13:26:28Z</time>
      </trkpt>
      <trkpt lat="50.04469" lon="2.32667">
        <ele>125.8</ele>
        <time>2023-10-25T13:26:29Z</time>
      </trkpt>
      <trkpt lat="50.04469" lon="2.32668">
        <ele>125.8</ele>
        <time>2023-10-25T13:26:30Z</time>
      </trkpt>
      <trkpt lat="50.04468" lon="2.3267">
        <ele>125.8</ele>
        <time>2023-10-25T13:26:31Z</time>
      </trkpt>
      <trkpt lat="50.04468" lon="2.32672">
        <ele>125.8</ele>
        <time>2023-10-25T13:26:32Z</time>
      </trkpt>
      <trkpt lat="50.04468" lon="2.32673">
        <ele>125.8</ele>
        <time>2023-10-25T13:26:33Z</time>
      </trkpt>
      <trkpt lat="50.04468" lon="2.32675">
        <ele>125.8</ele>
        <time>2023-10-25T13:26:34Z</time>
      </trkpt>
      <trkpt lat="50.04468" lon="2.32676">
        <ele>125.8</ele>
        <time>2023-10-25T13:26:35Z</time>
      </trkpt>
      <trkpt lat="50.04468" lon="2.32678">
        <ele>125.8</ele>
        <time>2023-10-25T13:26:36Z</time>
      </trkpt>
      <trkpt lat="50.04468" lon="2.32679">
        <ele>125.8</ele>
        <time>2023-10-25T13:26:37Z</time>
      </trkpt>
      <trkpt lat="50.04468" lon="2.32681">
        <ele>125.8</ele>
        <time>2023-10-25T13:26:38Z</time>
      </trkpt>
      <trkpt lat="50.04467" lon="2.32683">
        <ele>125.8</ele>
        <time>2023-10-25T13:26:39Z</time>
      </trkpt>
      <trkpt lat="50.04467" lon="2.32684">
        <ele>125.8</ele>
        <time>2023-10-25T13:26:40Z</time>
      </trkpt>
      <trkpt lat="50.04467" lon="2.32686">
        <ele>125.8</ele>
        <time>2023-10-25T13:26:41Z</time>
      </trkpt>
      <trkpt lat="50.04467" lon="2.32687">
        <ele>125.8</ele>
        <time>2023-10-25T13:26:42Z</time>
      </trkpt>
      <trkpt lat="50.04467" lon="2.32689">
        <ele>125.8</ele>
        <time>2023-10-25T13:26:43Z</time>
      </trkpt>
      <trkpt lat="50.04467" lon="2.3269">
        <ele>125.8</ele>
        <time>2023-10-25T13:26:44Z</time>
      </trkpt>
      <trkpt lat="50.04466" lon="2.32692">
        <ele>125.7</ele>
        <time>2023-10-25T13:26:45Z</time>
      </trkpt>
      <trkpt lat="50.04466" lon="2.32693">
        <ele>125.7</ele>
        <time>2023-10-25T13:26:46Z</time>
      </trkpt>
      <trkpt lat="50.04466" lon="2.32695">
        <ele>125.7</ele>
        <time>2023-10-25T13:26:47Z</time>
      </trkpt>
      <trkpt lat="50.04466" lon="2.32696">
        <ele>125.7</ele>
        <time>2023-10-25T13:26:48Z</time>
      </trkpt>
      <trkpt lat="50.04465" lon="2.32698">
        <ele>125.7</ele>
        <time>2023-10-25T13:26:49Z</time>
      </trkpt>
      <trkpt lat="50.04465" lon="2.327">
        <ele>125.7</ele>
        <time>2023-10-25T13:26:50Z</time>
      </trkpt>
      <trkpt lat="50.04465" lon="2.32701">
        <ele>125.7</ele>
        <time>2023-10-25T13:26:51Z</time>
      </trkpt>
      <trkpt lat="50.04465" lon="2.32703">
        <ele>125.7</ele>
        <time>2023-10-25T13:26:52Z</time>
      </trkpt>
      <trkpt lat="50.04464" lon="2.32704">
        <ele>125.7</ele>
        <time>2023-10-25T13:26:53Z</time>
      </trkpt>
      <trkpt lat="50.04464" lon="2.32706">
        <ele>125.7</ele>
        <time>2023-10-25T13:26:54Z</time>
      </trkpt>
      <trkpt lat="50.04464" lon="2.32708">
        <ele>125.7</ele>
        <time>2023-10-25T13:26:55Z</time>
      </trkpt>
      <trkpt lat="50.04464" lon="2.32709">
        <ele>125.7</ele>
        <time>2023-10-25T13:26:56Z</time>
      </trkpt>
      <trkpt lat="50.04463" lon="2.32711">
        <ele>125.7</ele>
        <time>2023-10-25T13:26:57Z</time>
      </trkpt>
      <trkpt lat="50.04463" lon="2.32713">
        <ele>125.7</ele>
        <time>2023-10-25T13:26:58Z</time>
      </trkpt>
      <trkpt lat="50.04463" lon="2.32714">
        <ele>125.7</ele>
        <time>2023-10-25T13:26:59Z</time>
      </trkpt>
      <trkpt lat="50.04463" lon="2.32716">
        <ele>125.7</ele>
        <time>2023-10-25T13:27:00Z</time>
      </trkpt>
      <trkpt lat="50.04463" lon="2.32717">
        <ele>125.7</ele>
        <time>2023-10-25T13:27:01Z</time>
      </trkpt>
      <trkpt lat="50.04462" lon="2.32719">
        <ele>125.7</ele>
        <time>2023-10-25T13:27:02Z</time>
      </trkpt>
      <trkpt lat="50.04462" lon="2.32721">
        <ele>125.7</ele>
        <time>2023-10-25T13:27:03Z</time>
      </trkpt>
      <trkpt lat="50.04462" lon="2.32722">
        <ele>125.7</ele>
        <time>2023-10-25T13:27:04Z</time>
      </trkpt>
      <trkpt lat="50.04462" lon="2.32724">
        <ele>125.7</ele>
        <time>2023-10-25T13:27:05Z</time>
      </trkpt>
      <trkpt lat="50.04462" lon="2.32726">
        <ele>125.7</ele>
        <time>2023-10-25T13:27:06Z</time>
      </trkpt>
      <trkpt lat="50.04462" lon="2.32727">
        <ele>125.6</ele>
        <time>2023-10-25T13:27:07Z</time>
      </trkpt>
      <trkpt lat="50.04461" lon="2.32728">
        <ele>125.6</ele>
        <time>2023-10-25T13:27:08Z</time>
      </trkpt>
      <trkpt lat="50.04461" lon="2.3273">
        <ele>125.6</ele>
        <time>2023-10-25T13:27:09Z</time>
      </trkpt>
      <trkpt lat="50.04461" lon="2.32731">
        <ele>125.6</ele>
        <time>2023-10-25T13:27:10Z</time>
      </trkpt>
      <trkpt lat="50.04461" lon="2.32733">
        <ele>125.6</ele>
        <time>2023-10-25T13:27:11Z</time>
      </trkpt>
      <trkpt lat="50.04461" lon="2.32735">
        <ele>125.6</ele>
        <time>2023-10-25T13:27:12Z</time>
      </trkpt>
      <trkpt lat="50.04461" lon="2.32737">
        <ele>125.6</ele>
        <time>2023-10-25T13:27:13Z</time>
      </trkpt>
      <trkpt lat="50.0446" lon="2.32738">
        <ele>125.6</ele>
        <time>2023-10-25T13:27:14Z</time>
      </trkpt>
      <trkpt lat="50.0446" lon="2.3274">
        <ele>125.6</ele>
        <time>2023-10-25T13:27:15Z</time>
      </trkpt>
      <trkpt lat="50.0446" lon="2.32741">
        <ele>125.6</ele>
        <time>2023-10-25T13:27:16Z</time>
      </trkpt>
      <trkpt lat="50.0446" lon="2.32743">
        <ele>125.6</ele>
        <time>2023-10-25T13:27:17Z</time>
      </trkpt>
      <trkpt lat="50.0446" lon="2.32745">
        <ele>125.6</ele>
        <time>2023-10-25T13:27:18Z</time>
      </trkpt>
      <trkpt lat="50.04459" lon="2.32746">
        <ele>125.6</ele>
        <time>2023-10-25T13:27:19Z</time>
      </trkpt>
      <trkpt lat="50.04459" lon="2.32748">
        <ele>125.5</ele>
        <time>2023-10-25T13:27:20Z</time>
      </trkpt>
      <trkpt lat="50.04459" lon="2.3275">
        <ele>125.5</ele>
        <time>2023-10-25T13:27:21Z</time>
      </trkpt>
      <trkpt lat="50.04459" lon="2.32752">
        <ele>125.5</ele>
        <time>2023-10-25T13:27:22Z</time>
      </trkpt>
      <trkpt lat="50.04459" lon="2.32754">
        <ele>125.5</ele>
        <time>2023-10-25T13:27:23Z</time>
      </trkpt>
      <trkpt lat="50.04459" lon="2.32755">
        <ele>125.5</ele>
        <time>2023-10-25T13:27:24Z</time>
      </trkpt>
      <trkpt lat="50.04458" lon="2.32757">
        <ele>125.5</ele>
        <time>2023-10-25T13:27:25Z</time>
      </trkpt>
      <trkpt lat="50.04458" lon="2.32758">
        <ele>125.5</ele>
        <time>2023-10-25T13:27:26Z</time>
      </trkpt>
      <trkpt lat="50.04458" lon="2.3276">
        <ele>125.5</ele>
        <time>2023-10-25T13:27:27Z</time>
      </trkpt>
      <trkpt lat="50.04458" lon="2.32762">
        <ele>125.4</ele>
        <time>2023-10-25T13:27:28Z</time>
      </trkpt>
      <trkpt lat="50.04458" lon="2.32763">
        <ele>125.4</ele>
        <time>2023-10-25T13:27:29Z</time>
      </trkpt>
      <trkpt lat="50.04458" lon="2.32765">
        <ele>125.4</ele>
        <time>2023-10-25T13:27:30Z</time>
      </trkpt>
      <trkpt lat="50.04457" lon="2.32767">
        <ele>125.4</ele>
        <time>2023-10-25T13:27:31Z</time>
      </trkpt>
      <trkpt lat="50.04457" lon="2.32769">
        <ele>125.4</ele>
        <time>2023-10-25T13:27:32Z</time>
      </trkpt>
      <trkpt lat="50.04457" lon="2.3277">
        <ele>125.4</ele>
        <time>2023-10-25T13:27:33Z</time>
      </trkpt>
      <trkpt lat="50.04457" lon="2.32772">
        <ele>125.4</ele>
        <time>2023-10-25T13:27:34Z</time>
      </trkpt>
      <trkpt lat="50.04457" lon="2.32773">
        <ele>125.3</ele>
        <time>2023-10-25T13:27:35Z</time>
      </trkpt>
      <trkpt lat="50.04456" lon="2.32775">
        <ele>125.3</ele>
        <time>2023-10-25T13:27:36Z</time>
      </trkpt>
      <trkpt lat="50.04456" lon="2.32776">
        <ele>125.3</ele>
        <time>2023-10-25T13:27:37Z</time>
      </trkpt>
      <trkpt lat="50.04456" lon="2.32778">
        <ele>125.3</ele>
        <time>2023-10-25T13:27:38Z</time>
      </trkpt>
      <trkpt lat="50.04456" lon="2.3278">
        <ele>125.3</ele>
        <time>2023-10-25T13:27:39Z</time>
      </trkpt>
      <trkpt lat="50.04456" lon="2.32781">
        <ele>125.2</ele>
        <time>2023-10-25T13:27:40Z</time>
      </trkpt>
      <trkpt lat="50.04456" lon="2.32783">
        <ele>125.2</ele>
        <time>2023-10-25T13:27:41Z</time>
      </trkpt>
      <trkpt lat="50.04456" lon="2.32785">
        <ele>125.2</ele>
        <time>2023-10-25T13:27:42Z</time>
      </trkpt>
      <trkpt lat="50.04456" lon="2.32786">
        <ele>125.2</ele>
        <time>2023-10-25T13:27:43Z</time>
      </trkpt>
      <trkpt lat="50.04456" lon="2.32787">
        <ele>125.1</ele>
        <time>2023-10-25T13:27:44Z</time>
      </trkpt>
      <trkpt lat="50.04455" lon="2.32789">
        <ele>125.1</ele>
        <time>2023-10-25T13:27:45Z</time>
      </trkpt>
      <trkpt lat="50.04455" lon="2.3279">
        <ele>125.1</ele>
        <time>2023-10-25T13:27:46Z</time>
      </trkpt>
      <trkpt lat="50.04455" lon="2.32792">
        <ele>125.1</ele>
        <time>2023-10-25T13:27:47Z</time>
      </trkpt>
      <trkpt lat="50.04455" lon="2.32793">
        <ele>125.1</ele>
        <time>2023-10-25T13:27:48Z</time>
      </trkpt>
      <trkpt lat="50.04455" lon="2.32795">
        <ele>125</ele>
        <time>2023-10-25T13:27:49Z</time>
      </trkpt>
      <trkpt lat="50.04455" lon="2.32797">
        <ele>125</ele>
        <time>2023-10-25T13:27:50Z</time>
      </trkpt>
      <trkpt lat="50.04454" lon="2.32798">
        <ele>125</ele>
        <time>2023-10-25T13:27:51Z</time>
      </trkpt>
      <trkpt lat="50.04454" lon="2.328">
        <ele>125</ele>
        <time>2023-10-25T13:27:52Z</time>
      </trkpt>
      <trkpt lat="50.04454" lon="2.32802">
        <ele>124.9</ele>
        <time>2023-10-25T13:27:53Z</time>
      </trkpt>
      <trkpt lat="50.04454" lon="2.32805">
        <ele>124.9</ele>
        <time>2023-10-25T13:27:54Z</time>
      </trkpt>
      <trkpt lat="50.04454" lon="2.32806">
        <ele>124.9</ele>
        <time>2023-10-25T13:27:55Z</time>
      </trkpt>
      <trkpt lat="50.04453" lon="2.32807">
        <ele>124.9</ele>
        <time>2023-10-25T13:27:56Z</time>
      </trkpt>
      <trkpt lat="50.04453" lon="2.3281">
        <ele>124.8</ele>
        <time>2023-10-25T13:27:57Z</time>
      </trkpt>
      <trkpt lat="50.04453" lon="2.32812">
        <ele>124.8</ele>
        <time>2023-10-25T13:27:58Z</time>
      </trkpt>
      <trkpt lat="50.04453" lon="2.32813">
        <ele>124.8</ele>
        <time>2023-10-25T13:27:59Z</time>
      </trkpt>
      <trkpt lat="50.04453" lon="2.32814">
        <ele>124.8</ele>
        <time>2023-10-25T13:28:00Z</time>
      </trkpt>
      <trkpt lat="50.04452" lon="2.32816">
        <ele>124.8</ele>
        <time>2023-10-25T13:28:01Z</time>
      </trkpt>
      <trkpt lat="50.04452" lon="2.32817">
        <ele>124.8</ele>
        <time>2023-10-25T13:28:02Z</time>
      </trkpt>
      <trkpt lat="50.04452" lon="2.32819">
        <ele>124.7</ele>
        <time>2023-10-25T13:28:03Z</time>
      </trkpt>
      <trkpt lat="50.04452" lon="2.3282">
        <ele>124.7</ele>
        <time>2023-10-25T13:28:04Z</time>
      </trkpt>
      <trkpt lat="50.04452" lon="2.32822">
        <ele>124.7</ele>
        <time>2023-10-25T13:28:05Z</time>
      </trkpt>
      <trkpt lat="50.04452" lon="2.32823">
        <ele>124.7</ele>
        <time>2023-10-25T13:28:06Z</time>
      </trkpt>
      <trkpt lat="50.04451" lon="2.32825">
        <ele>124.7</ele>
        <time>2023-10-25T13:28:07Z</time>
      </trkpt>
      <trkpt lat="50.04451" lon="2.32826">
        <ele>124.7</ele>
        <time>2023-10-25T13:28:08Z</time>
      </trkpt>
      <trkpt lat="50.04451" lon="2.32828">
        <ele>124.7</ele>
        <time>2023-10-25T13:28:09Z</time>
      </trkpt>
      <trkpt lat="50.04451" lon="2.32829">
        <ele>124.7</ele>
        <time>2023-10-25T13:28:10Z</time>
      </trkpt>
      <trkpt lat="50.04451" lon="2.3283">
        <ele>124.7</ele>
        <time>2023-10-25T13:28:11Z</time>
      </trkpt>
      <trkpt lat="50.04451" lon="2.32832">
        <ele>124.7</ele>
        <time>2023-10-25T13:28:12Z</time>
      </trkpt>
      <trkpt lat="50.04451" lon="2.32833">
        <ele>124.7</ele>
        <time>2023-10-25T13:28:13Z</time>
      </trkpt>
      <trkpt lat="50.04451" lon="2.32835">
        <ele>124.7</ele>
        <time>2023-10-25T13:28:14Z</time>
      </trkpt>
      <trkpt lat="50.0445" lon="2.32837">
        <ele>124.7</ele>
        <time>2023-10-25T13:28:15Z</time>
      </trkpt>
      <trkpt lat="50.0445" lon="2.32838">
        <ele>124.7</ele>
        <time>2023-10-25T13:28:16Z</time>
      </trkpt>
      <trkpt lat="50.0445" lon="2.3284">
        <ele>124.7</ele>
        <time>2023-10-25T13:28:17Z</time>
      </trkpt>
      <trkpt lat="50.0445" lon="2.32842">
        <ele>124.7</ele>
        <time>2023-10-25T13:28:18Z</time>
      </trkpt>
      <trkpt lat="50.0445" lon="2.32845">
        <ele>124.7</ele>
        <time>2023-10-25T13:28:19Z</time>
      </trkpt>
      <trkpt lat="50.04449" lon="2.32846">
        <ele>124.7</ele>
        <time>2023-10-25T13:28:20Z</time>
      </trkpt>
      <trkpt lat="50.04449" lon="2.32847">
        <ele>124.8</ele>
        <time>2023-10-25T13:28:21Z</time>
      </trkpt>
      <trkpt lat="50.04449" lon="2.32851">
        <ele>124.8</ele>
        <time>2023-10-25T13:28:22Z</time>
      </trkpt>
      <trkpt lat="50.04449" lon="2.32852">
        <ele>124.8</ele>
        <time>2023-10-25T13:28:23Z</time>
      </trkpt>
      <trkpt lat="50.04449" lon="2.32853">
        <ele>124.8</ele>
        <time>2023-10-25T13:28:24Z</time>
      </trkpt>
      <trkpt lat="50.04449" lon="2.32855">
        <ele>124.8</ele>
        <time>2023-10-25T13:28:25Z</time>
      </trkpt>
      <trkpt lat="50.04448" lon="2.32856">
        <ele>124.9</ele>
        <time>2023-10-25T13:28:26Z</time>
      </trkpt>
      <trkpt lat="50.04448" lon="2.32858">
        <ele>124.9</ele>
        <time>2023-10-25T13:28:27Z</time>
      </trkpt>
      <trkpt lat="50.04448" lon="2.32859">
        <ele>124.9</ele>
        <time>2023-10-25T13:28:28Z</time>
      </trkpt>
      <trkpt lat="50.04448" lon="2.32861">
        <ele>124.9</ele>
        <time>2023-10-25T13:28:29Z</time>
      </trkpt>
      <trkpt lat="50.04448" lon="2.32863">
        <ele>124.9</ele>
        <time>2023-10-25T13:28:30Z</time>
      </trkpt>
      <trkpt lat="50.04448" lon="2.32864">
        <ele>125</ele>
        <time>2023-10-25T13:28:31Z</time>
      </trkpt>
      <trkpt lat="50.04447" lon="2.32866">
        <ele>125</ele>
        <time>2023-10-25T13:28:32Z</time>
      </trkpt>
      <trkpt lat="50.04447" lon="2.32867">
        <ele>125</ele>
        <time>2023-10-25T13:28:33Z</time>
      </trkpt>
      <trkpt lat="50.04447" lon="2.32869">
        <ele>125</ele>
        <time>2023-10-25T13:28:34Z</time>
      </trkpt>
      <trkpt lat="50.04447" lon="2.32871">
        <ele>125.1</ele>
        <time>2023-10-25T13:28:35Z</time>
      </trkpt>
      <trkpt lat="50.04447" lon="2.32872">
        <ele>125.1</ele>
        <time>2023-10-25T13:28:36Z</time>
      </trkpt>
      <trkpt lat="50.04446" lon="2.32874">
        <ele>125.1</ele>
        <time>2023-10-25T13:28:37Z</time>
      </trkpt>
      <trkpt lat="50.04446" lon="2.32875">
        <ele>125.2</ele>
        <time>2023-10-25T13:28:38Z</time>
      </trkpt>
      <trkpt lat="50.04446" lon="2.32876">
        <ele>125.2</ele>
        <time>2023-10-25T13:28:39Z</time>
      </trkpt>
      <trkpt lat="50.04446" lon="2.32878">
        <ele>125.2</ele>
        <time>2023-10-25T13:28:40Z</time>
      </trkpt>
      <trkpt lat="50.04446" lon="2.3288">
        <ele>125.2</ele>
        <time>2023-10-25T13:28:41Z</time>
      </trkpt>
      <trkpt lat="50.04446" lon="2.32881">
        <ele>125.3</ele>
        <time>2023-10-25T13:28:42Z</time>
      </trkpt>
      <trkpt lat="50.04445" lon="2.32882">
        <ele>125.3</ele>
        <time>2023-10-25T13:28:43Z</time>
      </trkpt>
      <trkpt lat="50.04445" lon="2.32884">
        <ele>125.3</ele>
        <time>2023-10-25T13:28:44Z</time>
      </trkpt>
      <trkpt lat="50.04445" lon="2.32885">
        <ele>125.4</ele>
        <time>2023-10-25T13:28:45Z</time>
      </trkpt>
      <trkpt lat="50.04445" lon="2.32887">
        <ele>125.4</ele>
        <time>2023-10-25T13:28:46Z</time>
      </trkpt>
      <trkpt lat="50.04444" lon="2.32888">
        <ele>125.4</ele>
        <time>2023-10-25T13:28:47Z</time>
      </trkpt>
      <trkpt lat="50.04444" lon="2.3289">
        <ele>125.5</ele>
        <time>2023-10-25T13:28:48Z</time>
      </trkpt>
      <trkpt lat="50.04444" lon="2.32892">
        <ele>125.5</ele>
        <time>2023-10-25T13:28:49Z</time>
      </trkpt>
      <trkpt lat="50.04444" lon="2.32893">
        <ele>125.5</ele>
        <time>2023-10-25T13:28:50Z</time>
      </trkpt>
      <trkpt lat="50.04444" lon="2.32894">
        <ele>125.5</ele>
        <time>2023-10-25T13:28:51Z</time>
      </trkpt>
      <trkpt lat="50.04444" lon="2.32895">
        <ele>125.6</ele>
        <time>2023-10-25T13:28:52Z</time>
      </trkpt>
      <trkpt lat="50.04444" lon="2.32897">
        <ele>125.6</ele>
        <time>2023-10-25T13:28:53Z</time>
      </trkpt>
      <trkpt lat="50.04444" lon="2.32899">
        <ele>125.6</ele>
        <time>2023-10-25T13:28:54Z</time>
      </trkpt>
      <trkpt lat="50.04443" lon="2.329">
        <ele>125.7</ele>
        <time>2023-10-25T13:28:55Z</time>
      </trkpt>
      <trkpt lat="50.04443" lon="2.32902">
        <ele>125.7</ele>
        <time>2023-10-25T13:28:56Z</time>
      </trkpt>
      <trkpt lat="50.04443" lon="2.32903">
        <ele>125.7</ele>
        <time>2023-10-25T13:28:57Z</time>
      </trkpt>
      <trkpt lat="50.04443" lon="2.32905">
        <ele>125.8</ele>
        <time>2023-10-25T13:28:58Z</time>
      </trkpt>
      <trkpt lat="50.04442" lon="2.32906">
        <ele>125.8</ele>
        <time>2023-10-25T13:28:59Z</time>
      </trkpt>
      <trkpt lat="50.04442" lon="2.32908">
        <ele>125.8</ele>
        <time>2023-10-25T13:29:00Z</time>
      </trkpt>
      <trkpt lat="50.04442" lon="2.3291">
        <ele>125.9</ele>
        <time>2023-10-25T13:29:01Z</time>
      </trkpt>
      <trkpt lat="50.04442" lon="2.32911">
        <ele>125.9</ele>
        <time>2023-10-25T13:29:02Z</time>
      </trkpt>
      <trkpt lat="50.04442" lon="2.32912">
        <ele>125.9</ele>
        <time>2023-10-25T13:29:03Z</time>
      </trkpt>
      <trkpt lat="50.04442" lon="2.32914">
        <ele>125.9</ele>
        <time>2023-10-25T13:29:04Z</time>
      </trkpt>
      <trkpt lat="50.04441" lon="2.32915">
        <ele>126</ele>
        <time>2023-10-25T13:29:05Z</time>
      </trkpt>
      <trkpt lat="50.04441" lon="2.32917">
        <ele>126</ele>
        <time>2023-10-25T13:29:06Z</time>
      </trkpt>
      <trkpt lat="50.04441" lon="2.32918">
        <ele>126</ele>
        <time>2023-10-25T13:29:07Z</time>
      </trkpt>
      <trkpt lat="50.04441" lon="2.3292">
        <ele>126.1</ele>
        <time>2023-10-25T13:29:08Z</time>
      </trkpt>
      <trkpt lat="50.0444" lon="2.32921">
        <ele>126.1</ele>
        <time>2023-10-25T13:29:09Z</time>
      </trkpt>
      <trkpt lat="50.0444" lon="2.32923">
        <ele>126.1</ele>
        <time>2023-10-25T13:29:10Z</time>
      </trkpt>
      <trkpt lat="50.0444" lon="2.32924">
        <ele>126.2</ele>
        <time>2023-10-25T13:29:11Z</time>
      </trkpt>
      <trkpt lat="50.0444" lon="2.32926">
        <ele>126.2</ele>
        <time>2023-10-25T13:29:12Z</time>
      </trkpt>
      <trkpt lat="50.04439" lon="2.32927">
        <ele>126.2</ele>
        <time>2023-10-25T13:29:13Z</time>
      </trkpt>
      <trkpt lat="50.04439" lon="2.32929">
        <ele>126.3</ele>
        <time>2023-10-25T13:29:14Z</time>
      </trkpt>
      <trkpt lat="50.04439" lon="2.3293">
        <ele>126.3</ele>
        <time>2023-10-25T13:29:15Z</time>
      </trkpt>
      <trkpt lat="50.04439" lon="2.32931">
        <ele>126.3</ele>
        <time>2023-10-25T13:29:16Z</time>
      </trkpt>
      <trkpt lat="50.04439" lon="2.32933">
        <ele>126.4</ele>
        <time>2023-10-25T13:29:17Z</time>
      </trkpt>
      <trkpt lat="50.04438" lon="2.32934">
        <ele>126.4</ele>
        <time>2023-10-25T13:29:18Z</time>
      </trkpt>
      <trkpt lat="50.04438" lon="2.32935">
        <ele>126.4</ele>
        <time>2023-10-25T13:29:19Z</time>
      </trkpt>
      <trkpt lat="50.04438" lon="2.32936">
        <ele>126.5</ele>
        <time>2023-10-25T13:29:20Z</time>
      </trkpt>
      <trkpt lat="50.04438" lon="2.32937">
        <ele>126.5</ele>
        <time>2023-10-25T13:29:21Z</time>
      </trkpt>
      <trkpt lat="50.04438" lon="2.32939">
        <ele>126.5</ele>
        <time>2023-10-25T13:29:22Z</time>
      </trkpt>
      <trkpt lat="50.04438" lon="2.3294">
        <ele>126.6</ele>
        <time>2023-10-25T13:29:23Z</time>
      </trkpt>
      <trkpt lat="50.04438" lon="2.32941">
        <ele>126.6</ele>
        <time>2023-10-25T13:29:24Z</time>
      </trkpt>
      <trkpt lat="50.04437" lon="2.32943">
        <ele>126.6</ele>
        <time>2023-10-25T13:29:25Z</time>
      </trkpt>
      <trkpt lat="50.04437" lon="2.32945">
        <ele>126.7</ele>
        <time>2023-10-25T13:29:26Z</time>
      </trkpt>
      <trkpt lat="50.04437" lon="2.32946">
        <ele>126.7</ele>
        <time>2023-10-25T13:29:27Z</time>
      </trkpt>
      <trkpt lat="50.04437" lon="2.32947">
        <ele>126.7</ele>
        <time>2023-10-25T13:29:28Z</time>
      </trkpt>
      <trkpt lat="50.04437" lon="2.32948">
        <ele>126.8</ele>
        <time>2023-10-25T13:29:29Z</time>
      </trkpt>
      <trkpt lat="50.04437" lon="2.3295">
        <ele>126.8</ele>
        <time>2023-10-25T13:29:30Z</time>
      </trkpt>
      <trkpt lat="50.04437" lon="2.32951">
        <ele>126.8</ele>
        <time>2023-10-25T13:29:31Z</time>
      </trkpt>
      <trkpt lat="50.04436" lon="2.32953">
        <ele>126.9</ele>
        <time>2023-10-25T13:29:32Z</time>
      </trkpt>
      <trkpt lat="50.04436" lon="2.32954">
        <ele>126.9</ele>
        <time>2023-10-25T13:29:33Z</time>
      </trkpt>
      <trkpt lat="50.04435" lon="2.32955">
        <ele>126.9</ele>
        <time>2023-10-25T13:29:34Z</time>
      </trkpt>
      <trkpt lat="50.04435" lon="2.32956">
        <ele>127</ele>
        <time>2023-10-25T13:29:35Z</time>
      </trkpt>
      <trkpt lat="50.04434" lon="2.32958">
        <ele>127</ele>
        <time>2023-10-25T13:29:36Z</time>
      </trkpt>
      <trkpt lat="50.04434" lon="2.32959">
        <ele>127.1</ele>
        <time>2023-10-25T13:29:37Z</time>
      </trkpt>
      <trkpt lat="50.04434" lon="2.32961">
        <ele>127.1</ele>
        <time>2023-10-25T13:29:38Z</time>
      </trkpt>
      <trkpt lat="50.04434" lon="2.32962">
        <ele>127.1</ele>
        <time>2023-10-25T13:29:39Z</time>
      </trkpt>
      <trkpt lat="50.04433" lon="2.32964">
        <ele>127.1</ele>
        <time>2023-10-25T13:29:40Z</time>
      </trkpt>
      <trkpt lat="50.04433" lon="2.32965">
        <ele>127.2</ele>
        <time>2023-10-25T13:29:41Z</time>
      </trkpt>
      <trkpt lat="50.04433" lon="2.32967">
        <ele>127.2</ele>
        <time>2023-10-25T13:29:42Z</time>
      </trkpt>
      <trkpt lat="50.04433" lon="2.32968">
        <ele>127.2</ele>
        <time>2023-10-25T13:29:43Z</time>
      </trkpt>
      <trkpt lat="50.04433" lon="2.3297">
        <ele>127.3</ele>
        <time>2023-10-25T13:29:44Z</time>
      </trkpt>
      <trkpt lat="50.04433" lon="2.32972">
        <ele>127.3</ele>
        <time>2023-10-25T13:29:45Z</time>
      </trkpt>
      <trkpt lat="50.04433" lon="2.32974">
        <ele>127.3</ele>
        <time>2023-10-25T13:29:46Z</time>
      </trkpt>
      <trkpt lat="50.04432" lon="2.32975">
        <ele>127.3</ele>
        <time>2023-10-25T13:29:47Z</time>
      </trkpt>
      <trkpt lat="50.04432" lon="2.32977">
        <ele>127.4</ele>
        <time>2023-10-25T13:29:48Z</time>
      </trkpt>
      <trkpt lat="50.04432" lon="2.32979">
        <ele>127.4</ele>
        <time>2023-10-25T13:29:49Z</time>
      </trkpt>
      <trkpt lat="50.04432" lon="2.32981">
        <ele>127.4</ele>
        <time>2023-10-25T13:29:50Z</time>
      </trkpt>
      <trkpt lat="50.04432" lon="2.32982">
        <ele>127.4</ele>
        <time>2023-10-25T13:29:51Z</time>
      </trkpt>
      <trkpt lat="50.04431" lon="2.32984">
        <ele>127.5</ele>
        <time>2023-10-25T13:29:52Z</time>
      </trkpt>
      <trkpt lat="50.04431" lon="2.32986">
        <ele>127.5</ele>
        <time>2023-10-25T13:29:53Z</time>
      </trkpt>
      <trkpt lat="50.04431" lon="2.32987">
        <ele>127.5</ele>
        <time>2023-10-25T13:29:54Z</time>
      </trkpt>
      <trkpt lat="50.04431" lon="2.32989">
        <ele>127.5</ele>
        <time>2023-10-25T13:29:55Z</time>
      </trkpt>
      <trkpt lat="50.04431" lon="2.32991">
        <ele>127.5</ele>
        <time>2023-10-25T13:29:56Z</time>
      </trkpt>
      <trkpt lat="50.0443" lon="2.32992">
        <ele>127.6</ele>
        <time>2023-10-25T13:29:57Z</time>
      </trkpt>
      <trkpt lat="50.0443" lon="2.32994">
        <ele>127.6</ele>
        <time>2023-10-25T13:29:58Z</time>
      </trkpt>
      <trkpt lat="50.0443" lon="2.32996">
        <ele>127.6</ele>
        <time>2023-10-25T13:29:59Z</time>
      </trkpt>
      <trkpt lat="50.0443" lon="2.32997">
        <ele>127.6</ele>
        <time>2023-10-25T13:30:00Z</time>
      </trkpt>
      <trkpt lat="50.0443" lon="2.32999">
        <ele>127.6</ele>
        <time>2023-10-25T13:30:01Z</time>
      </trkpt>
      <trkpt lat="50.0443" lon="2.33">
        <ele>127.7</ele>
        <time>2023-10-25T13:30:02Z</time>
      </trkpt>
      <trkpt lat="50.04429" lon="2.33002">
        <ele>127.7</ele>
        <time>2023-10-25T13:30:03Z</time>
      </trkpt>
      <trkpt lat="50.04429" lon="2.33003">
        <ele>127.7</ele>
        <time>2023-10-25T13:30:04Z</time>
      </trkpt>
      <trkpt lat="50.04429" lon="2.33005">
        <ele>127.7</ele>
        <time>2023-10-25T13:30:05Z</time>
      </trkpt>
      <trkpt lat="50.04429" lon="2.33007">
        <ele>127.7</ele>
        <time>2023-10-25T13:30:06Z</time>
      </trkpt>
      <trkpt lat="50.04429" lon="2.33008">
        <ele>127.7</ele>
        <time>2023-10-25T13:30:07Z</time>
      </trkpt>
      <trkpt lat="50.04429" lon="2.3301">
        <ele>127.8</ele>
        <time>2023-10-25T13:30:08Z</time>
      </trkpt>
      <trkpt lat="50.04429" lon="2.33012">
        <ele>127.8</ele>
        <time>2023-10-25T13:30:09Z</time>
      </trkpt>
      <trkpt lat="50.04429" lon="2.33013">
        <ele>127.8</ele>
        <time>2023-10-25T13:30:10Z</time>
      </trkpt>
      <trkpt lat="50.04429" lon="2.33015">
        <ele>127.8</ele>
        <time>2023-10-25T13:30:11Z</time>
      </trkpt>
      <trkpt lat="50.04428" lon="2.33016">
        <ele>127.8</ele>
        <time>2023-10-25T13:30:12Z</time>
      </trkpt>
      <trkpt lat="50.04428" lon="2.33018">
        <ele>127.9</ele>
        <time>2023-10-25T13:30:13Z</time>
      </trkpt>
      <trkpt lat="50.04428" lon="2.33019">
        <ele>127.9</ele>
        <time>2023-10-25T13:30:14Z</time>
      </trkpt>
      <trkpt lat="50.04428" lon="2.33021">
        <ele>127.9</ele>
        <time>2023-10-25T13:30:15Z</time>
      </trkpt>
      <trkpt lat="50.04428" lon="2.33022">
        <ele>127.9</ele>
        <time>2023-10-25T13:30:16Z</time>
      </trkpt>
      <trkpt lat="50.04428" lon="2.33024">
        <ele>127.9</ele>
        <time>2023-10-25T13:30:17Z</time>
      </trkpt>
      <trkpt lat="50.04428" lon="2.33025">
        <ele>128</ele>
        <time>2023-10-25T13:30:18Z</time>
      </trkpt>
      <trkpt lat="50.04428" lon="2.33027">
        <ele>128</ele>
        <time>2023-10-25T13:30:19Z</time>
      </trkpt>
      <trkpt lat="50.04428" lon="2.33028">
        <ele>128</ele>
        <time>2023-10-25T13:30:20Z</time>
      </trkpt>
      <trkpt lat="50.04427" lon="2.3303">
        <ele>128</ele>
        <time>2023-10-25T13:30:21Z</time>
      </trkpt>
      <trkpt lat="50.04427" lon="2.33031">
        <ele>128</ele>
        <time>2023-10-25T13:30:22Z</time>
      </trkpt>
      <trkpt lat="50.04427" lon="2.33032">
        <ele>128.1</ele>
        <time>2023-10-25T13:30:23Z</time>
      </trkpt>
      <trkpt lat="50.04427" lon="2.33034">
        <ele>128.1</ele>
        <time>2023-10-25T13:30:24Z</time>
      </trkpt>
      <trkpt lat="50.04427" lon="2.33035">
        <ele>128.1</ele>
        <time>2023-10-25T13:30:25Z</time>
      </trkpt>
      <trkpt lat="50.04427" lon="2.33037">
        <ele>128.1</ele>
        <time>2023-10-25T13:30:26Z</time>
      </trkpt>
      <trkpt lat="50.04427" lon="2.33038">
        <ele>128.1</ele>
        <time>2023-10-25T13:30:27Z</time>
      </trkpt>
      <trkpt lat="50.04427" lon="2.33039">
        <ele>128.2</ele>
        <time>2023-10-25T13:30:28Z</time>
      </trkpt>
      <trkpt lat="50.04427" lon="2.3304">
        <ele>128.2</ele>
        <time>2023-10-25T13:30:29Z</time>
      </trkpt>
      <trkpt lat="50.04426" lon="2.33042">
        <ele>128.2</ele>
        <time>2023-10-25T13:30:30Z</time>
      </trkpt>
      <trkpt lat="50.04426" lon="2.33043">
        <ele>128.2</ele>
        <time>2023-10-25T13:30:31Z</time>
      </trkpt>
      <trkpt lat="50.04426" lon="2.33044">
        <ele>128.2</ele>
        <time>2023-10-25T13:30:32Z</time>
      </trkpt>
      <trkpt lat="50.04426" lon="2.33045">
        <ele>128.3</ele>
        <time>2023-10-25T13:30:33Z</time>
      </trkpt>
      <trkpt lat="50.04426" lon="2.33046">
        <ele>128.3</ele>
        <time>2023-10-25T13:30:34Z</time>
      </trkpt>
      <trkpt lat="50.04426" lon="2.33047">
        <ele>128.3</ele>
        <time>2023-10-25T13:30:35Z</time>
      </trkpt>
      <trkpt lat="50.04425" lon="2.33047">
        <ele>128.3</ele>
        <time>2023-10-25T13:30:36Z</time>
      </trkpt>
      <trkpt lat="50.04425" lon="2.33048">
        <ele>128.3</ele>
        <time>2023-10-25T13:30:37Z</time>
      </trkpt>
      <trkpt lat="50.04425" lon="2.3305">
        <ele>128.3</ele>
        <time>2023-10-25T13:30:38Z</time>
      </trkpt>
      <trkpt lat="50.04425" lon="2.33051">
        <ele>128.4</ele>
        <time>2023-10-25T13:30:39Z</time>
      </trkpt>
      <trkpt lat="50.04425" lon="2.33052">
        <ele>128.4</ele>
        <time>2023-10-25T13:30:40Z</time>
      </trkpt>
      <trkpt lat="50.04424" lon="2.33053">
        <ele>128.4</ele>
        <time>2023-10-25T13:30:41Z</time>
      </trkpt>
      <trkpt lat="50.04424" lon="2.33054">
        <ele>128.4</ele>
        <time>2023-10-25T13:30:42Z</time>
      </trkpt>
      <trkpt lat="50.04424" lon="2.33055">
        <ele>128.4</ele>
        <time>2023-10-25T13:30:43Z</time>
      </trkpt>
      <trkpt lat="50.04424" lon="2.33056">
        <ele>128.4</ele>
        <time>2023-10-25T13:30:44Z</time>
      </trkpt>
      <trkpt lat="50.04424" lon="2.33057">
        <ele>128.5</ele>
        <time>2023-10-25T13:30:45Z</time>
      </trkpt>
      <trkpt lat="50.04424" lon="2.33059">
        <ele>128.5</ele>
        <time>2023-10-25T13:30:46Z</time>
      </trkpt>
      <trkpt lat="50.04424" lon="2.3306">
        <ele>128.5</ele>
        <time>2023-10-25T13:30:47Z</time>
      </trkpt>
      <trkpt lat="50.04424" lon="2.33061">
        <ele>128.5</ele>
        <time>2023-10-25T13:30:48Z</time>
      </trkpt>
      <trkpt lat="50.04424" lon="2.33062">
        <ele>128.5</ele>
        <time>2023-10-25T13:30:49Z</time>
      </trkpt>
      <trkpt lat="50.04424" lon="2.33063">
        <ele>128.5</ele>
        <time>2023-10-25T13:30:50Z</time>
      </trkpt>
      <trkpt lat="50.04424" lon="2.33064">
        <ele>128.5</ele>
        <time>2023-10-25T13:30:51Z</time>
      </trkpt>
      <trkpt lat="50.04424" lon="2.33065">
        <ele>128.6</ele>
        <time>2023-10-25T13:30:52Z</time>
      </trkpt>
      <trkpt lat="50.04424" lon="2.33066">
        <ele>128.6</ele>
        <time>2023-10-25T13:30:53Z</time>
      </trkpt>
      <trkpt lat="50.04424" lon="2.33067">
        <ele>128.6</ele>
        <time>2023-10-25T13:30:54Z</time>
      </trkpt>
      <trkpt lat="50.04424" lon="2.33068">
        <ele>128.6</ele>
        <time>2023-10-25T13:30:55Z</time>
      </trkpt>
      <trkpt lat="50.04424" lon="2.33069">
        <ele>128.6</ele>
        <time>2023-10-25T13:30:56Z</time>
      </trkpt>
      <trkpt lat="50.04424" lon="2.33069">
        <ele>128.6</ele>
        <time>2023-10-25T13:30:57Z</time>
      </trkpt>
      <trkpt lat="50.04423" lon="2.3307">
        <ele>128.6</ele>
        <time>2023-10-25T13:30:58Z</time>
      </trkpt>
      <trkpt lat="50.04423" lon="2.3307">
        <ele>128.6</ele>
        <time>2023-10-25T13:30:59Z</time>
      </trkpt>
      <trkpt lat="50.04423" lon="2.33069">
        <ele>128.6</ele>
        <time>2023-10-25T13:31:00Z</time>
      </trkpt>
      <trkpt lat="50.04422" lon="2.33069">
        <ele>128.6</ele>
        <time>2023-10-25T13:31:01Z</time>
      </trkpt>
      <trkpt lat="50.04422" lon="2.33068">
        <ele>128.7</ele>
        <time>2023-10-25T13:31:02Z</time>
      </trkpt>
      <trkpt lat="50.04422" lon="2.33068">
        <ele>128.7</ele>
        <time>2023-10-25T13:31:03Z</time>
      </trkpt>
      <trkpt lat="50.04422" lon="2.33068">
        <ele>128.7</ele>
        <time>2023-10-25T13:31:04Z</time>
      </trkpt>
      <trkpt lat="50.04422" lon="2.33068">
        <ele>128.7</ele>
        <time>2023-10-25T13:31:05Z</time>
      </trkpt>
      <trkpt lat="50.04422" lon="2.33068">
        <ele>128.7</ele>
        <time>2023-10-25T13:31:06Z</time>
      </trkpt>
      <trkpt lat="50.04422" lon="2.33068">
        <ele>128.7</ele>
        <time>2023-10-25T13:31:07Z</time>
      </trkpt>
      <trkpt lat="50.04422" lon="2.33067">
        <ele>128.7</ele>
        <time>2023-10-25T13:31:08Z</time>
      </trkpt>
      <trkpt lat="50.04422" lon="2.33067">
        <ele>128.7</ele>
        <time>2023-10-25T13:31:09Z</time>
      </trkpt>
      <trkpt lat="50.04422" lon="2.33067">
        <ele>128.7</ele>
        <time>2023-10-25T13:31:10Z</time>
      </trkpt>
      <trkpt lat="50.04424" lon="2.3307">
        <ele>128.7</ele>
        <time>2023-10-25T13:33:10Z</time>
      </trkpt>
      <trkpt lat="50.04424" lon="2.33072">
        <ele>128.7</ele>
        <time>2023-10-25T13:33:11Z</time>
      </trkpt>
      <trkpt lat="50.04424" lon="2.33073">
        <ele>128.7</ele>
        <time>2023-10-25T13:33:12Z</time>
      </trkpt>
      <trkpt lat="50.04424" lon="2.33074">
        <ele>128.7</ele>
        <time>2023-10-25T13:33:13Z</time>
      </trkpt>
      <trkpt lat="50.04424" lon="2.33075">
        <ele>128.7</ele>
        <time>2023-10-25T13:33:14Z</time>
      </trkpt>
      <trkpt lat="50.04424" lon="2.33076">
        <ele>128.7</ele>
        <time>2023-10-25T13:33:15Z</time>
      </trkpt>
      <trkpt lat="50.04424" lon="2.33078">
        <ele>128.7</ele>
        <time>2023-10-25T13:33:16Z</time>
      </trkpt>
      <trkpt lat="50.04424" lon="2.33079">
        <ele>128.7</ele>
        <time>2023-10-25T13:33:17Z</time>
      </trkpt>
      <trkpt lat="50.04424" lon="2.3308">
        <ele>128.6</ele>
        <time>2023-10-25T13:33:18Z</time>
      </trkpt>
      <trkpt lat="50.04424" lon="2.33082">
        <ele>128.6</ele>
        <time>2023-10-25T13:33:19Z</time>
      </trkpt>
      <trkpt lat="50.04424" lon="2.33083">
        <ele>128.6</ele>
        <time>2023-10-25T13:33:20Z</time>
      </trkpt>
      <trkpt lat="50.04424" lon="2.33084">
        <ele>128.6</ele>
        <time>2023-10-25T13:33:21Z</time>
      </trkpt>
      <trkpt lat="50.04424" lon="2.33086">
        <ele>128.6</ele>
        <time>2023-10-25T13:33:22Z</time>
      </trkpt>
      <trkpt lat="50.04425" lon="2.33087">
        <ele>128.6</ele>
        <time>2023-10-25T13:33:23Z</time>
      </trkpt>
      <trkpt lat="50.04425" lon="2.33089">
        <ele>128.6</ele>
        <time>2023-10-25T13:33:24Z</time>
      </trkpt>
      <trkpt lat="50.04425" lon="2.3309">
        <ele>128.6</ele>
        <time>2023-10-25T13:33:25Z</time>
      </trkpt>
      <trkpt lat="50.04425" lon="2.33092">
        <ele>128.6</ele>
        <time>2023-10-25T13:33:26Z</time>
      </trkpt>
      <trkpt lat="50.04425" lon="2.33094">
        <ele>128.6</ele>
        <time>2023-10-25T13:33:27Z</time>
      </trkpt>
      <trkpt lat="50.04425" lon="2.33096">
        <ele>128.6</ele>
        <time>2023-10-25T13:33:28Z</time>
      </trkpt>
      <trkpt lat="50.04425" lon="2.33099">
        <ele>128.6</ele>
        <time>2023-10-25T13:33:29Z</time>
      </trkpt>
      <trkpt lat="50.04425" lon="2.33101">
        <ele>128.6</ele>
        <time>2023-10-25T13:33:30Z</time>
      </trkpt>
      <trkpt lat="50.04425" lon="2.33104">
        <ele>128.6</ele>
        <time>2023-10-25T13:33:31Z</time>
      </trkpt>
      <trkpt lat="50.04425" lon="2.33106">
        <ele>128.6</ele>
        <time>2023-10-25T13:33:32Z</time>
      </trkpt>
      <trkpt lat="50.04425" lon="2.33108">
        <ele>128.6</ele>
        <time>2023-10-25T13:33:33Z</time>
      </trkpt>
      <trkpt lat="50.04425" lon="2.3311">
        <ele>128.6</ele>
        <time>2023-10-25T13:33:34Z</time>
      </trkpt>
      <trkpt lat="50.04425" lon="2.33111">
        <ele>128.6</ele>
        <time>2023-10-25T13:33:35Z</time>
      </trkpt>
      <trkpt lat="50.04425" lon="2.33113">
        <ele>128.6</ele>
        <time>2023-10-25T13:33:36Z</time>
      </trkpt>
      <trkpt lat="50.04425" lon="2.33115">
        <ele>128.6</ele>
        <time>2023-10-25T13:33:37Z</time>
      </trkpt>
      <trkpt lat="50.04425" lon="2.33116">
        <ele>128.6</ele>
        <time>2023-10-25T13:33:38Z</time>
      </trkpt>
      <trkpt lat="50.04424" lon="2.33118">
        <ele>128.6</ele>
        <time>2023-10-25T13:33:39Z</time>
      </trkpt>
      <trkpt lat="50.04424" lon="2.33119">
        <ele>128.6</ele>
        <time>2023-10-25T13:33:40Z</time>
      </trkpt>
      <trkpt lat="50.04424" lon="2.33121">
        <ele>128.6</ele>
        <time>2023-10-25T13:33:41Z</time>
      </trkpt>
      <trkpt lat="50.04424" lon="2.33123">
        <ele>128.7</ele>
        <time>2023-10-25T13:33:42Z</time>
      </trkpt>
      <trkpt lat="50.04424" lon="2.33124">
        <ele>128.7</ele>
        <time>2023-10-25T13:33:43Z</time>
      </trkpt>
      <trkpt lat="50.04424" lon="2.33126">
        <ele>128.7</ele>
        <time>2023-10-25T13:33:44Z</time>
      </trkpt>
      <trkpt lat="50.04424" lon="2.33128">
        <ele>128.7</ele>
        <time>2023-10-25T13:33:45Z</time>
      </trkpt>
      <trkpt lat="50.04425" lon="2.3313">
        <ele>128.7</ele>
        <time>2023-10-25T13:33:46Z</time>
      </trkpt>
      <trkpt lat="50.04425" lon="2.33131">
        <ele>128.7</ele>
        <time>2023-10-25T13:33:47Z</time>
      </trkpt>
      <trkpt lat="50.04425" lon="2.33133">
        <ele>128.7</ele>
        <time>2023-10-25T13:33:48Z</time>
      </trkpt>
      <trkpt lat="50.04425" lon="2.33135">
        <ele>128.7</ele>
        <time>2023-10-25T13:33:49Z</time>
      </trkpt>
      <trkpt lat="50.04425" lon="2.33136">
        <ele>128.7</ele>
        <time>2023-10-25T13:33:50Z</time>
      </trkpt>
      <trkpt lat="50.04425" lon="2.33137">
        <ele>128.8</ele>
        <time>2023-10-25T13:33:51Z</time>
      </trkpt>
      <trkpt lat="50.04425" lon="2.33138">
        <ele>128.8</ele>
        <time>2023-10-25T13:33:52Z</time>
      </trkpt>
      <trkpt lat="50.04425" lon="2.33139">
        <ele>128.8</ele>
        <time>2023-10-25T13:33:53Z</time>
      </trkpt>
      <trkpt lat="50.04426" lon="2.3314">
        <ele>128.8</ele>
        <time>2023-10-25T13:33:54Z</time>
      </trkpt>
      <trkpt lat="50.04426" lon="2.33142">
        <ele>128.8</ele>
        <time>2023-10-25T13:33:55Z</time>
      </trkpt>
      <trkpt lat="50.04427" lon="2.33142">
        <ele>128.8</ele>
        <time>2023-10-25T13:33:56Z</time>
      </trkpt>
      <trkpt lat="50.04427" lon="2.33143">
        <ele>128.8</ele>
        <time>2023-10-25T13:33:57Z</time>
      </trkpt>
      <trkpt lat="50.04428" lon="2.33144">
        <ele>128.8</ele>
        <time>2023-10-25T13:33:58Z</time>
      </trkpt>
      <trkpt lat="50.04428" lon="2.33145">
        <ele>128.8</ele>
        <time>2023-10-25T13:33:59Z</time>
      </trkpt>
      <trkpt lat="50.04428" lon="2.33146">
        <ele>128.8</ele>
        <time>2023-10-25T13:34:00Z</time>
      </trkpt>
      <trkpt lat="50.04428" lon="2.33148">
        <ele>128.8</ele>
        <time>2023-10-25T13:34:01Z</time>
      </trkpt>
      <trkpt lat="50.04428" lon="2.33149">
        <ele>128.8</ele>
        <time>2023-10-25T13:34:02Z</time>
      </trkpt>
      <trkpt lat="50.04428" lon="2.33151">
        <ele>128.9</ele>
        <time>2023-10-25T13:34:03Z</time>
      </trkpt>
      <trkpt lat="50.04428" lon="2.33153">
        <ele>128.9</ele>
        <time>2023-10-25T13:34:04Z</time>
      </trkpt>
      <trkpt lat="50.04428" lon="2.33155">
        <ele>128.9</ele>
        <time>2023-10-25T13:34:05Z</time>
      </trkpt>
      <trkpt lat="50.04428" lon="2.33157">
        <ele>128.9</ele>
        <time>2023-10-25T13:34:06Z</time>
      </trkpt>
      <trkpt lat="50.04428" lon="2.33158">
        <ele>128.9</ele>
        <time>2023-10-25T13:34:07Z</time>
      </trkpt>
      <trkpt lat="50.04428" lon="2.3316">
        <ele>128.9</ele>
        <time>2023-10-25T13:34:08Z</time>
      </trkpt>
      <trkpt lat="50.04428" lon="2.33162">
        <ele>128.9</ele>
        <time>2023-10-25T13:34:09Z</time>
      </trkpt>
      <trkpt lat="50.04428" lon="2.33164">
        <ele>129</ele>
        <time>2023-10-25T13:34:10Z</time>
      </trkpt>
      <trkpt lat="50.04428" lon="2.33165">
        <ele>129</ele>
        <time>2023-10-25T13:34:11Z</time>
      </trkpt>
      <trkpt lat="50.04428" lon="2.33167">
        <ele>129</ele>
        <time>2023-10-25T13:34:12Z</time>
      </trkpt>
      <trkpt lat="50.04428" lon="2.33169">
        <ele>129</ele>
        <time>2023-10-25T13:34:13Z</time>
      </trkpt>
      <trkpt lat="50.04428" lon="2.33171">
        <ele>129</ele>
        <time>2023-10-25T13:34:14Z</time>
      </trkpt>
      <trkpt lat="50.04428" lon="2.33172">
        <ele>129</ele>
        <time>2023-10-25T13:34:15Z</time>
      </trkpt>
      <trkpt lat="50.04428" lon="2.33174">
        <ele>129</ele>
        <time>2023-10-25T13:34:16Z</time>
      </trkpt>
      <trkpt lat="50.04428" lon="2.33176">
        <ele>129</ele>
        <time>2023-10-25T13:34:17Z</time>
      </trkpt>
      <trkpt lat="50.04428" lon="2.33177">
        <ele>129.1</ele>
        <time>2023-10-25T13:34:18Z</time>
      </trkpt>
      <trkpt lat="50.04428" lon="2.33179">
        <ele>129.1</ele>
        <time>2023-10-25T13:34:19Z</time>
      </trkpt>
      <trkpt lat="50.04428" lon="2.3318">
        <ele>129.1</ele>
        <time>2023-10-25T13:34:20Z</time>
      </trkpt>
      <trkpt lat="50.04428" lon="2.33182">
        <ele>129.1</ele>
        <time>2023-10-25T13:34:21Z</time>
      </trkpt>
      <trkpt lat="50.04428" lon="2.33183">
        <ele>129.1</ele>
        <time>2023-10-25T13:34:22Z</time>
      </trkpt>
      <trkpt lat="50.04428" lon="2.33184">
        <ele>129.1</ele>
        <time>2023-10-25T13:34:23Z</time>
      </trkpt>
      <trkpt lat="50.04428" lon="2.33185">
        <ele>129.1</ele>
        <time>2023-10-25T13:34:24Z</time>
      </trkpt>
      <trkpt lat="50.04428" lon="2.33187">
        <ele>129.1</ele>
        <time>2023-10-25T13:34:25Z</time>
      </trkpt>
      <trkpt lat="50.04428" lon="2.33189">
        <ele>129.1</ele>
        <time>2023-10-25T13:34:26Z</time>
      </trkpt>
      <trkpt lat="50.04428" lon="2.3319">
        <ele>129.1</ele>
        <time>2023-10-25T13:34:27Z</time>
      </trkpt>
      <trkpt lat="50.04428" lon="2.33192">
        <ele>129.1</ele>
        <time>2023-10-25T13:34:28Z</time>
      </trkpt>
      <trkpt lat="50.04428" lon="2.33194">
        <ele>129.2</ele>
        <time>2023-10-25T13:34:29Z</time>
      </trkpt>
      <trkpt lat="50.04428" lon="2.33196">
        <ele>129.2</ele>
        <time>2023-10-25T13:34:30Z</time>
      </trkpt>
      <trkpt lat="50.04428" lon="2.33197">
        <ele>129.2</ele>
        <time>2023-10-25T13:34:31Z</time>
      </trkpt>
      <trkpt lat="50.04428" lon="2.33199">
        <ele>129.2</ele>
        <time>2023-10-25T13:34:32Z</time>
      </trkpt>
      <trkpt lat="50.04428" lon="2.332">
        <ele>129.2</ele>
        <time>2023-10-25T13:34:33Z</time>
      </trkpt>
      <trkpt lat="50.04429" lon="2.33202">
        <ele>129.2</ele>
        <time>2023-10-25T13:34:34Z</time>
      </trkpt>
      <trkpt lat="50.04429" lon="2.33204">
        <ele>129.2</ele>
        <time>2023-10-25T13:34:35Z</time>
      </trkpt>
      <trkpt lat="50.04429" lon="2.33205">
        <ele>129.2</ele>
        <time>2023-10-25T13:34:36Z</time>
      </trkpt>
      <trkpt lat="50.04429" lon="2.33207">
        <ele>129.2</ele>
        <time>2023-10-25T13:34:37Z</time>
      </trkpt>
      <trkpt lat="50.04429" lon="2.33209">
        <ele>129.2</ele>
        <time>2023-10-25T13:34:38Z</time>
      </trkpt>
      <trkpt lat="50.04429" lon="2.33211">
        <ele>129.2</ele>
        <time>2023-10-25T13:34:39Z</time>
      </trkpt>
      <trkpt lat="50.04429" lon="2.33212">
        <ele>129.2</ele>
        <time>2023-10-25T13:34:40Z</time>
      </trkpt>
      <trkpt lat="50.0443" lon="2.33214">
        <ele>129.2</ele>
        <time>2023-10-25T13:34:41Z</time>
      </trkpt>
      <trkpt lat="50.0443" lon="2.33216">
        <ele>129.2</ele>
        <time>2023-10-25T13:34:42Z</time>
      </trkpt>
      <trkpt lat="50.0443" lon="2.33218">
        <ele>129.2</ele>
        <time>2023-10-25T13:34:43Z</time>
      </trkpt>
      <trkpt lat="50.0443" lon="2.33219">
        <ele>129.2</ele>
        <time>2023-10-25T13:34:44Z</time>
      </trkpt>
      <trkpt lat="50.0443" lon="2.33221">
        <ele>129.2</ele>
        <time>2023-10-25T13:34:45Z</time>
      </trkpt>
      <trkpt lat="50.0443" lon="2.33222">
        <ele>129.2</ele>
        <time>2023-10-25T13:34:46Z</time>
      </trkpt>
      <trkpt lat="50.0443" lon="2.33224">
        <ele>129.2</ele>
        <time>2023-10-25T13:34:47Z</time>
      </trkpt>
      <trkpt lat="50.0443" lon="2.33225">
        <ele>129.2</ele>
        <time>2023-10-25T13:34:48Z</time>
      </trkpt>
      <trkpt lat="50.0443" lon="2.33226">
        <ele>129.2</ele>
        <time>2023-10-25T13:34:49Z</time>
      </trkpt>
      <trkpt lat="50.0443" lon="2.33228">
        <ele>129.2</ele>
        <time>2023-10-25T13:34:50Z</time>
      </trkpt>
      <trkpt lat="50.0443" lon="2.33229">
        <ele>129.2</ele>
        <time>2023-10-25T13:34:51Z</time>
      </trkpt>
      <trkpt lat="50.0443" lon="2.33231">
        <ele>129.2</ele>
        <time>2023-10-25T13:34:52Z</time>
      </trkpt>
      <trkpt lat="50.0443" lon="2.33232">
        <ele>129.2</ele>
        <time>2023-10-25T13:34:53Z</time>
      </trkpt>
      <trkpt lat="50.0443" lon="2.33234">
        <ele>129.2</ele>
        <time>2023-10-25T13:34:54Z</time>
      </trkpt>
      <trkpt lat="50.0443" lon="2.33235">
        <ele>129.2</ele>
        <time>2023-10-25T13:34:55Z</time>
      </trkpt>
      <trkpt lat="50.0443" lon="2.33237">
        <ele>129.2</ele>
        <time>2023-10-25T13:34:56Z</time>
      </trkpt>
      <trkpt lat="50.0443" lon="2.33238">
        <ele>129.2</ele>
        <time>2023-10-25T13:34:57Z</time>
      </trkpt>
      <trkpt lat="50.0443" lon="2.3324">
        <ele>129.2</ele>
        <time>2023-10-25T13:34:58Z</time>
      </trkpt>
      <trkpt lat="50.0443" lon="2.33241">
        <ele>129.2</ele>
        <time>2023-10-25T13:34:59Z</time>
      </trkpt>
      <trkpt lat="50.0443" lon="2.33242">
        <ele>129.2</ele>
        <time>2023-10-25T13:35:00Z</time>
      </trkpt>
      <trkpt lat="50.0443" lon="2.33244">
        <ele>129.2</ele>
        <time>2023-10-25T13:35:01Z</time>
      </trkpt>
      <trkpt lat="50.0443" lon="2.33245">
        <ele>129.2</ele>
        <time>2023-10-25T13:35:02Z</time>
      </trkpt>
      <trkpt lat="50.0443" lon="2.33246">
        <ele>129.3</ele>
        <time>2023-10-25T13:35:03Z</time>
      </trkpt>
      <trkpt lat="50.0443" lon="2.33248">
        <ele>129.3</ele>
        <time>2023-10-25T13:35:04Z</time>
      </trkpt>
      <trkpt lat="50.0443" lon="2.33249">
        <ele>129.3</ele>
        <time>2023-10-25T13:35:05Z</time>
      </trkpt>
      <trkpt lat="50.0443" lon="2.3325">
        <ele>129.3</ele>
        <time>2023-10-25T13:35:06Z</time>
      </trkpt>
      <trkpt lat="50.0443" lon="2.33252">
        <ele>129.3</ele>
        <time>2023-10-25T13:35:07Z</time>
      </trkpt>
      <trkpt lat="50.0443" lon="2.33253">
        <ele>129.3</ele>
        <time>2023-10-25T13:35:08Z</time>
      </trkpt>
      <trkpt lat="50.0443" lon="2.33254">
        <ele>129.3</ele>
        <time>2023-10-25T13:35:09Z</time>
      </trkpt>
      <trkpt lat="50.0443" lon="2.33256">
        <ele>129.3</ele>
        <time>2023-10-25T13:35:10Z</time>
      </trkpt>
      <trkpt lat="50.0443" lon="2.33257">
        <ele>129.4</ele>
        <time>2023-10-25T13:35:11Z</time>
      </trkpt>
      <trkpt lat="50.0443" lon="2.33259">
        <ele>129.4</ele>
        <time>2023-10-25T13:35:12Z</time>
      </trkpt>
      <trkpt lat="50.0443" lon="2.33261">
        <ele>129.4</ele>
        <time>2023-10-25T13:35:13Z</time>
      </trkpt>
      <trkpt lat="50.0443" lon="2.33263">
        <ele>129.4</ele>
        <time>2023-10-25T13:35:14Z</time>
      </trkpt>
      <trkpt lat="50.0443" lon="2.33264">
        <ele>129.4</ele>
        <time>2023-10-25T13:35:15Z</time>
      </trkpt>
      <trkpt lat="50.0443" lon="2.33266">
        <ele>129.5</ele>
        <time>2023-10-25T13:35:16Z</time>
      </trkpt>
      <trkpt lat="50.0443" lon="2.33268">
        <ele>129.5</ele>
        <time>2023-10-25T13:35:17Z</time>
      </trkpt>
      <trkpt lat="50.0443" lon="2.33269">
        <ele>129.5</ele>
        <time>2023-10-25T13:35:18Z</time>
      </trkpt>
      <trkpt lat="50.0443" lon="2.33271">
        <ele>129.5</ele>
        <time>2023-10-25T13:35:19Z</time>
      </trkpt>
      <trkpt lat="50.0443" lon="2.33272">
        <ele>129.6</ele>
        <time>2023-10-25T13:35:20Z</time>
      </trkpt>
      <trkpt lat="50.0443" lon="2.33274">
        <ele>129.6</ele>
        <time>2023-10-25T13:35:21Z</time>
      </trkpt>
      <trkpt lat="50.0443" lon="2.33276">
        <ele>129.6</ele>
        <time>2023-10-25T13:35:22Z</time>
      </trkpt>
      <trkpt lat="50.0443" lon="2.33277">
        <ele>129.6</ele>
        <time>2023-10-25T13:35:23Z</time>
      </trkpt>
      <trkpt lat="50.0443" lon="2.33279">
        <ele>129.7</ele>
        <time>2023-10-25T13:35:24Z</time>
      </trkpt>
      <trkpt lat="50.0443" lon="2.33281">
        <ele>129.7</ele>
        <time>2023-10-25T13:35:25Z</time>
      </trkpt>
      <trkpt lat="50.0443" lon="2.33282">
        <ele>129.7</ele>
        <time>2023-10-25T13:35:26Z</time>
      </trkpt>
      <trkpt lat="50.0443" lon="2.33284">
        <ele>129.7</ele>
        <time>2023-10-25T13:35:27Z</time>
      </trkpt>
      <trkpt lat="50.0443" lon="2.33286">
        <ele>129.8</ele>
        <time>2023-10-25T13:35:28Z</time>
      </trkpt>
      <trkpt lat="50.0443" lon="2.33288">
        <ele>129.8</ele>
        <time>2023-10-25T13:35:29Z</time>
      </trkpt>
      <trkpt lat="50.0443" lon="2.3329">
        <ele>129.8</ele>
        <time>2023-10-25T13:35:30Z</time>
      </trkpt>
      <trkpt lat="50.0443" lon="2.33291">
        <ele>129.8</ele>
        <time>2023-10-25T13:35:31Z</time>
      </trkpt>
      <trkpt lat="50.0443" lon="2.33293">
        <ele>129.8</ele>
        <time>2023-10-25T13:35:32Z</time>
      </trkpt>
      <trkpt lat="50.0443" lon="2.33295">
        <ele>129.9</ele>
        <time>2023-10-25T13:35:33Z</time>
      </trkpt>
      <trkpt lat="50.0443" lon="2.33296">
        <ele>129.9</ele>
        <time>2023-10-25T13:35:34Z</time>
      </trkpt>
      <trkpt lat="50.04431" lon="2.33298">
        <ele>129.9</ele>
        <time>2023-10-25T13:35:35Z</time>
      </trkpt>
      <trkpt lat="50.04431" lon="2.333">
        <ele>129.9</ele>
        <time>2023-10-25T13:35:36Z</time>
      </trkpt>
      <trkpt lat="50.04431" lon="2.33301">
        <ele>129.9</ele>
        <time>2023-10-25T13:35:37Z</time>
      </trkpt>
      <trkpt lat="50.04431" lon="2.33303">
        <ele>129.9</ele>
        <time>2023-10-25T13:35:38Z</time>
      </trkpt>
      <trkpt lat="50.04431" lon="2.33305">
        <ele>129.9</ele>
        <time>2023-10-25T13:35:39Z</time>
      </trkpt>
      <trkpt lat="50.04431" lon="2.33306">
        <ele>130</ele>
        <time>2023-10-25T13:35:40Z</time>
      </trkpt>
      <trkpt lat="50.04431" lon="2.33308">
        <ele>130</ele>
        <time>2023-10-25T13:35:41Z</time>
      </trkpt>
      <trkpt lat="50.04431" lon="2.3331">
        <ele>130</ele>
        <time>2023-10-25T13:35:42Z</time>
      </trkpt>
      <trkpt lat="50.04431" lon="2.33312">
        <ele>130</ele>
        <time>2023-10-25T13:35:43Z</time>
      </trkpt>
      <trkpt lat="50.04431" lon="2.33314">
        <ele>130</ele>
        <time>2023-10-25T13:35:44Z</time>
      </trkpt>
      <trkpt lat="50.04432" lon="2.33317">
        <ele>130</ele>
        <time>2023-10-25T13:35:45Z</time>
      </trkpt>
      <trkpt lat="50.04432" lon="2.33318">
        <ele>130</ele>
        <time>2023-10-25T13:35:46Z</time>
      </trkpt>
      <trkpt lat="50.04432" lon="2.33319">
        <ele>130</ele>
        <time>2023-10-25T13:35:47Z</time>
      </trkpt>
      <trkpt lat="50.04432" lon="2.33321">
        <ele>130</ele>
        <time>2023-10-25T13:35:48Z</time>
      </trkpt>
      <trkpt lat="50.04432" lon="2.33323">
        <ele>130</ele>
        <time>2023-10-25T13:35:49Z</time>
      </trkpt>
      <trkpt lat="50.04432" lon="2.33324">
        <ele>130</ele>
        <time>2023-10-25T13:35:50Z</time>
      </trkpt>
      <trkpt lat="50.04432" lon="2.33326">
        <ele>130</ele>
        <time>2023-10-25T13:35:51Z</time>
      </trkpt>
      <trkpt lat="50.04432" lon="2.33328">
        <ele>130.1</ele>
        <time>2023-10-25T13:35:52Z</time>
      </trkpt>
      <trkpt lat="50.04432" lon="2.33329">
        <ele>130.1</ele>
        <time>2023-10-25T13:35:53Z</time>
      </trkpt>
      <trkpt lat="50.04432" lon="2.33331">
        <ele>130.1</ele>
        <time>2023-10-25T13:35:54Z</time>
      </trkpt>
      <trkpt lat="50.04432" lon="2.33332">
        <ele>130.1</ele>
        <time>2023-10-25T13:35:55Z</time>
      </trkpt>
      <trkpt lat="50.04432" lon="2.33334">
        <ele>130.1</ele>
        <time>2023-10-25T13:35:56Z</time>
      </trkpt>
      <trkpt lat="50.04433" lon="2.33335">
        <ele>130.1</ele>
        <time>2023-10-25T13:35:57Z</time>
      </trkpt>
      <trkpt lat="50.04433" lon="2.33337">
        <ele>130.1</ele>
        <time>2023-10-25T13:35:58Z</time>
      </trkpt>
      <trkpt lat="50.04433" lon="2.33339">
        <ele>130.1</ele>
        <time>2023-10-25T13:35:59Z</time>
      </trkpt>
      <trkpt lat="50.04433" lon="2.33342">
        <ele>130.1</ele>
        <time>2023-10-25T13:36:00Z</time>
      </trkpt>
      <trkpt lat="50.04433" lon="2.33343">
        <ele>130.1</ele>
        <time>2023-10-25T13:36:01Z</time>
      </trkpt>
      <trkpt lat="50.04433" lon="2.33344">
        <ele>130.1</ele>
        <time>2023-10-25T13:36:02Z</time>
      </trkpt>
      <trkpt lat="50.04433" lon="2.33348">
        <ele>130.1</ele>
        <time>2023-10-25T13:36:03Z</time>
      </trkpt>
      <trkpt lat="50.04433" lon="2.33349">
        <ele>130.1</ele>
        <time>2023-10-25T13:36:04Z</time>
      </trkpt>
      <trkpt lat="50.04433" lon="2.3335">
        <ele>130.2</ele>
        <time>2023-10-25T13:36:05Z</time>
      </trkpt>
      <trkpt lat="50.04433" lon="2.33353">
        <ele>130.2</ele>
        <time>2023-10-25T13:36:06Z</time>
      </trkpt>
      <trkpt lat="50.04433" lon="2.33354">
        <ele>130.2</ele>
        <time>2023-10-25T13:36:07Z</time>
      </trkpt>
      <trkpt lat="50.04434" lon="2.33356">
        <ele>130.2</ele>
        <time>2023-10-25T13:36:08Z</time>
      </trkpt>
      <trkpt lat="50.04434" lon="2.33357">
        <ele>130.2</ele>
        <time>2023-10-25T13:36:09Z</time>
      </trkpt>
      <trkpt lat="50.04434" lon="2.33359">
        <ele>130.2</ele>
        <time>2023-10-25T13:36:10Z</time>
      </trkpt>
      <trkpt lat="50.04434" lon="2.3336">
        <ele>130.3</ele>
        <time>2023-10-25T13:36:11Z</time>
      </trkpt>
      <trkpt lat="50.04434" lon="2.33361">
        <ele>130.3</ele>
        <time>2023-10-25T13:36:12Z</time>
      </trkpt>
      <trkpt lat="50.04434" lon="2.33362">
        <ele>130.3</ele>
        <time>2023-10-25T13:36:13Z</time>
      </trkpt>
      <trkpt lat="50.04434" lon="2.33363">
        <ele>130.3</ele>
        <time>2023-10-25T13:36:14Z</time>
      </trkpt>
      <trkpt lat="50.04434" lon="2.33364">
        <ele>130.3</ele>
        <time>2023-10-25T13:36:15Z</time>
      </trkpt>
      <trkpt lat="50.04434" lon="2.33366">
        <ele>130.3</ele>
        <time>2023-10-25T13:36:16Z</time>
      </trkpt>
      <trkpt lat="50.04434" lon="2.33367">
        <ele>130.3</ele>
        <time>2023-10-25T13:36:17Z</time>
      </trkpt>
      <trkpt lat="50.04434" lon="2.33369">
        <ele>130.3</ele>
        <time>2023-10-25T13:36:18Z</time>
      </trkpt>
      <trkpt lat="50.04434" lon="2.3337">
        <ele>130.3</ele>
        <time>2023-10-25T13:36:19Z</time>
      </trkpt>
      <trkpt lat="50.04434" lon="2.33372">
        <ele>130.4</ele>
        <time>2023-10-25T13:36:20Z</time>
      </trkpt>
      <trkpt lat="50.04434" lon="2.33373">
        <ele>130.4</ele>
        <time>2023-10-25T13:36:21Z</time>
      </trkpt>
      <trkpt lat="50.04434" lon="2.33374">
        <ele>130.4</ele>
        <time>2023-10-25T13:36:22Z</time>
      </trkpt>
      <trkpt lat="50.04434" lon="2.33376">
        <ele>130.4</ele>
        <time>2023-10-25T13:36:23Z</time>
      </trkpt>
      <trkpt lat="50.04434" lon="2.33377">
        <ele>130.4</ele>
        <time>2023-10-25T13:36:24Z</time>
      </trkpt>
      <trkpt lat="50.04434" lon="2.33378">
        <ele>130.4</ele>
        <time>2023-10-25T13:36:25Z</time>
      </trkpt>
      <trkpt lat="50.04434" lon="2.3338">
        <ele>130.4</ele>
        <time>2023-10-25T13:36:26Z</time>
      </trkpt>
      <trkpt lat="50.04434" lon="2.33381">
        <ele>130.4</ele>
        <time>2023-10-25T13:36:27Z</time>
      </trkpt>
      <trkpt lat="50.04434" lon="2.33383">
        <ele>130.5</ele>
        <time>2023-10-25T13:36:28Z</time>
      </trkpt>
      <trkpt lat="50.04434" lon="2.33384">
        <ele>130.5</ele>
        <time>2023-10-25T13:36:29Z</time>
      </trkpt>
      <trkpt lat="50.04434" lon="2.33385">
        <ele>130.5</ele>
        <time>2023-10-25T13:36:30Z</time>
      </trkpt>
      <trkpt lat="50.04434" lon="2.33386">
        <ele>130.5</ele>
        <time>2023-10-25T13:36:31Z</time>
      </trkpt>
      <trkpt lat="50.04434" lon="2.33388">
        <ele>130.5</ele>
        <time>2023-10-25T13:36:32Z</time>
      </trkpt>
      <trkpt lat="50.04434" lon="2.33389">
        <ele>130.5</ele>
        <time>2023-10-25T13:36:33Z</time>
      </trkpt>
      <trkpt lat="50.04434" lon="2.33391">
        <ele>130.5</ele>
        <time>2023-10-25T13:36:34Z</time>
      </trkpt>
      <trkpt lat="50.04434" lon="2.33392">
        <ele>130.5</ele>
        <time>2023-10-25T13:36:35Z</time>
      </trkpt>
      <trkpt lat="50.04434" lon="2.33394">
        <ele>130.6</ele>
        <time>2023-10-25T13:36:36Z</time>
      </trkpt>
      <trkpt lat="50.04434" lon="2.33395">
        <ele>130.6</ele>
        <time>2023-10-25T13:36:37Z</time>
      </trkpt>
      <trkpt lat="50.04434" lon="2.33397">
        <ele>130.6</ele>
        <time>2023-10-25T13:36:38Z</time>
      </trkpt>
      <trkpt lat="50.04434" lon="2.33399">
        <ele>130.6</ele>
        <time>2023-10-25T13:36:39Z</time>
      </trkpt>
      <trkpt lat="50.04434" lon="2.334">
        <ele>130.6</ele>
        <time>2023-10-25T13:36:40Z</time>
      </trkpt>
      <trkpt lat="50.04434" lon="2.33402">
        <ele>130.6</ele>
        <time>2023-10-25T13:36:41Z</time>
      </trkpt>
      <trkpt lat="50.04434" lon="2.33404">
        <ele>130.6</ele>
        <time>2023-10-25T13:36:42Z</time>
      </trkpt>
      <trkpt lat="50.04434" lon="2.33405">
        <ele>130.6</ele>
        <time>2023-10-25T13:36:43Z</time>
      </trkpt>
      <trkpt lat="50.04434" lon="2.33407">
        <ele>130.6</ele>
        <time>2023-10-25T13:36:44Z</time>
      </trkpt>
      <trkpt lat="50.04434" lon="2.33409">
        <ele>130.6</ele>
        <time>2023-10-25T13:36:45Z</time>
      </trkpt>
      <trkpt lat="50.04434" lon="2.33411">
        <ele>130.6</ele>
        <time>2023-10-25T13:36:46Z</time>
      </trkpt>
      <trkpt lat="50.04434" lon="2.33413">
        <ele>130.6</ele>
        <time>2023-10-25T13:36:47Z</time>
      </trkpt>
      <trkpt lat="50.04434" lon="2.33414">
        <ele>130.6</ele>
        <time>2023-10-25T13:36:48Z</time>
      </trkpt>
      <trkpt lat="50.04434" lon="2.33416">
        <ele>130.6</ele>
        <time>2023-10-25T13:36:49Z</time>
      </trkpt>
      <trkpt lat="50.04434" lon="2.33418">
        <ele>130.6</ele>
        <time>2023-10-25T13:36:50Z</time>
      </trkpt>
      <trkpt lat="50.04434" lon="2.33419">
        <ele>130.6</ele>
        <time>2023-10-25T13:36:51Z</time>
      </trkpt>
      <trkpt lat="50.04434" lon="2.33421">
        <ele>130.6</ele>
        <time>2023-10-25T13:36:52Z</time>
      </trkpt>
      <trkpt lat="50.04434" lon="2.33423">
        <ele>130.6</ele>
        <time>2023-10-25T13:36:53Z</time>
      </trkpt>
      <trkpt lat="50.04434" lon="2.33424">
        <ele>130.6</ele>
        <time>2023-10-25T13:36:54Z</time>
      </trkpt>
      <trkpt lat="50.04434" lon="2.33427">
        <ele>130.6</ele>
        <time>2023-10-25T13:36:55Z</time>
      </trkpt>
      <trkpt lat="50.04434" lon="2.33429">
        <ele>130.6</ele>
        <time>2023-10-25T13:36:56Z</time>
      </trkpt>
      <trkpt lat="50.04434" lon="2.3343">
        <ele>130.5</ele>
        <time>2023-10-25T13:36:57Z</time>
      </trkpt>
      <trkpt lat="50.04434" lon="2.33432">
        <ele>130.5</ele>
        <time>2023-10-25T13:36:58Z</time>
      </trkpt>
      <trkpt lat="50.04434" lon="2.33434">
        <ele>130.5</ele>
        <time>2023-10-25T13:36:59Z</time>
      </trkpt>
      <trkpt lat="50.04434" lon="2.33436">
        <ele>130.5</ele>
        <time>2023-10-25T13:37:00Z</time>
      </trkpt>
      <trkpt lat="50.04434" lon="2.33439">
        <ele>130.5</ele>
        <time>2023-10-25T13:37:01Z</time>
      </trkpt>
      <trkpt lat="50.04434" lon="2.33441">
        <ele>130.5</ele>
        <time>2023-10-25T13:37:02Z</time>
      </trkpt>
      <trkpt lat="50.04434" lon="2.33443">
        <ele>130.5</ele>
        <time>2023-10-25T13:37:03Z</time>
      </trkpt>
      <trkpt lat="50.04434" lon="2.33446">
        <ele>130.5</ele>
        <time>2023-10-25T13:37:04Z</time>
      </trkpt>
      <trkpt lat="50.04434" lon="2.33448">
        <ele>130.5</ele>
        <time>2023-10-25T13:37:05Z</time>
      </trkpt>
      <trkpt lat="50.04434" lon="2.3345">
        <ele>130.5</ele>
        <time>2023-10-25T13:37:06Z</time>
      </trkpt>
      <trkpt lat="50.04434" lon="2.33452">
        <ele>130.5</ele>
        <time>2023-10-25T13:37:07Z</time>
      </trkpt>
      <trkpt lat="50.04434" lon="2.33453">
        <ele>130.5</ele>
        <time>2023-10-25T13:37:08Z</time>
      </trkpt>
      <trkpt lat="50.04434" lon="2.33454">
        <ele>130.5</ele>
        <time>2023-10-25T13:37:09Z</time>
      </trkpt>
      <trkpt lat="50.04434" lon="2.33456">
        <ele>130.5</ele>
        <time>2023-10-25T13:37:10Z</time>
      </trkpt>
      <trkpt lat="50.04434" lon="2.33457">
        <ele>130.4</ele>
        <time>2023-10-25T13:37:11Z</time>
      </trkpt>
      <trkpt lat="50.04434" lon="2.33458">
        <ele>130.4</ele>
        <time>2023-10-25T13:37:12Z</time>
      </trkpt>
      <trkpt lat="50.04434" lon="2.33459">
        <ele>130.4</ele>
        <time>2023-10-25T13:37:13Z</time>
      </trkpt>
      <trkpt lat="50.04434" lon="2.3346">
        <ele>130.4</ele>
        <time>2023-10-25T13:37:14Z</time>
      </trkpt>
      <trkpt lat="50.04434" lon="2.33461">
        <ele>130.4</ele>
        <time>2023-10-25T13:37:15Z</time>
      </trkpt>
      <trkpt lat="50.04434" lon="2.33463">
        <ele>130.4</ele>
        <time>2023-10-25T13:37:16Z</time>
      </trkpt>
      <trkpt lat="50.04434" lon="2.33464">
        <ele>130.4</ele>
        <time>2023-10-25T13:37:17Z</time>
      </trkpt>
      <trkpt lat="50.04434" lon="2.33465">
        <ele>130.4</ele>
        <time>2023-10-25T13:37:18Z</time>
      </trkpt>
      <trkpt lat="50.04434" lon="2.33466">
        <ele>130.4</ele>
        <time>2023-10-25T13:37:19Z</time>
      </trkpt>
      <trkpt lat="50.04434" lon="2.33467">
        <ele>130.4</ele>
        <time>2023-10-25T13:37:20Z</time>
      </trkpt>
      <trkpt lat="50.04434" lon="2.33469">
        <ele>130.4</ele>
        <time>2023-10-25T13:37:21Z</time>
      </trkpt>
      <trkpt lat="50.04434" lon="2.3347">
        <ele>130.4</ele>
        <time>2023-10-25T13:37:22Z</time>
      </trkpt>
      <trkpt lat="50.04434" lon="2.33472">
        <ele>130.3</ele>
        <time>2023-10-25T13:37:23Z</time>
      </trkpt>
      <trkpt lat="50.04434" lon="2.33473">
        <ele>130.3</ele>
        <time>2023-10-25T13:37:24Z</time>
      </trkpt>
      <trkpt lat="50.04434" lon="2.33475">
        <ele>130.3</ele>
        <time>2023-10-25T13:37:25Z</time>
      </trkpt>
      <trkpt lat="50.04434" lon="2.33476">
        <ele>130.3</ele>
        <time>2023-10-25T13:37:26Z</time>
      </trkpt>
      <trkpt lat="50.04434" lon="2.33478">
        <ele>130.3</ele>
        <time>2023-10-25T13:37:27Z</time>
      </trkpt>
      <trkpt lat="50.04435" lon="2.33479">
        <ele>130.3</ele>
        <time>2023-10-25T13:37:28Z</time>
      </trkpt>
      <trkpt lat="50.04435" lon="2.33481">
        <ele>130.3</ele>
        <time>2023-10-25T13:37:29Z</time>
      </trkpt>
      <trkpt lat="50.04435" lon="2.33482">
        <ele>130.3</ele>
        <time>2023-10-25T13:37:30Z</time>
      </trkpt>
      <trkpt lat="50.04435" lon="2.33484">
        <ele>130.3</ele>
        <time>2023-10-25T13:37:31Z</time>
      </trkpt>
      <trkpt lat="50.04435" lon="2.33486">
        <ele>130.2</ele>
        <time>2023-10-25T13:37:32Z</time>
      </trkpt>
      <trkpt lat="50.04435" lon="2.33488">
        <ele>130.2</ele>
        <time>2023-10-25T13:37:33Z</time>
      </trkpt>
      <trkpt lat="50.04435" lon="2.33489">
        <ele>130.2</ele>
        <time>2023-10-25T13:37:34Z</time>
      </trkpt>
      <trkpt lat="50.04435" lon="2.33491">
        <ele>130.2</ele>
        <time>2023-10-25T13:37:35Z</time>
      </trkpt>
      <trkpt lat="50.04435" lon="2.33493">
        <ele>130.2</ele>
        <time>2023-10-25T13:37:36Z</time>
      </trkpt>
      <trkpt lat="50.04435" lon="2.33494">
        <ele>130.2</ele>
        <time>2023-10-25T13:37:37Z</time>
      </trkpt>
      <trkpt lat="50.04435" lon="2.33495">
        <ele>130.2</ele>
        <time>2023-10-25T13:37:38Z</time>
      </trkpt>
      <trkpt lat="50.04435" lon="2.33497">
        <ele>130.2</ele>
        <time>2023-10-25T13:37:39Z</time>
      </trkpt>
      <trkpt lat="50.04435" lon="2.33498">
        <ele>130.2</ele>
        <time>2023-10-25T13:37:40Z</time>
      </trkpt>
      <trkpt lat="50.04435" lon="2.335">
        <ele>130.2</ele>
        <time>2023-10-25T13:37:41Z</time>
      </trkpt>
      <trkpt lat="50.04435" lon="2.33502">
        <ele>130.2</ele>
        <time>2023-10-25T13:37:42Z</time>
      </trkpt>
      <trkpt lat="50.04435" lon="2.33503">
        <ele>130.2</ele>
        <time>2023-10-25T13:37:43Z</time>
      </trkpt>
      <trkpt lat="50.04435" lon="2.33505">
        <ele>130.2</ele>
        <time>2023-10-25T13:37:44Z</time>
      </trkpt>
      <trkpt lat="50.04435" lon="2.33506">
        <ele>130.2</ele>
        <time>2023-10-25T13:37:45Z</time>
      </trkpt>
      <trkpt lat="50.04435" lon="2.33508">
        <ele>130.2</ele>
        <time>2023-10-25T13:37:46Z</time>
      </trkpt>
      <trkpt lat="50.04435" lon="2.33509">
        <ele>130.2</ele>
        <time>2023-10-25T13:37:47Z</time>
      </trkpt>
      <trkpt lat="50.04436" lon="2.33511">
        <ele>130.2</ele>
        <time>2023-10-25T13:37:48Z</time>
      </trkpt>
      <trkpt lat="50.04436" lon="2.33512">
        <ele>130.2</ele>
        <time>2023-10-25T13:37:49Z</time>
      </trkpt>
      <trkpt lat="50.04436" lon="2.33513">
        <ele>130.2</ele>
        <time>2023-10-25T13:37:50Z</time>
      </trkpt>
      <trkpt lat="50.04436" lon="2.33515">
        <ele>130.2</ele>
        <time>2023-10-25T13:37:51Z</time>
      </trkpt>
      <trkpt lat="50.04436" lon="2.33516">
        <ele>130.2</ele>
        <time>2023-10-25T13:37:52Z</time>
      </trkpt>
      <trkpt lat="50.04436" lon="2.33518">
        <ele>130.2</ele>
        <time>2023-10-25T13:37:53Z</time>
      </trkpt>
      <trkpt lat="50.04436" lon="2.33519">
        <ele>130.2</ele>
        <time>2023-10-25T13:37:54Z</time>
      </trkpt>
      <trkpt lat="50.04436" lon="2.33521">
        <ele>130.2</ele>
        <time>2023-10-25T13:37:55Z</time>
      </trkpt>
      <trkpt lat="50.04436" lon="2.33522">
        <ele>130.2</ele>
        <time>2023-10-25T13:37:56Z</time>
      </trkpt>
      <trkpt lat="50.04436" lon="2.33524">
        <ele>130.1</ele>
        <time>2023-10-25T13:37:57Z</time>
      </trkpt>
      <trkpt lat="50.04437" lon="2.33525">
        <ele>130.1</ele>
        <time>2023-10-25T13:37:58Z</time>
      </trkpt>
      <trkpt lat="50.04437" lon="2.33527">
        <ele>130.1</ele>
        <time>2023-10-25T13:37:59Z</time>
      </trkpt>
      <trkpt lat="50.04437" lon="2.33528">
        <ele>130.1</ele>
        <time>2023-10-25T13:38:00Z</time>
      </trkpt>
      <trkpt lat="50.04437" lon="2.33529">
        <ele>130.1</ele>
        <time>2023-10-25T13:38:01Z</time>
      </trkpt>
      <trkpt lat="50.04437" lon="2.33531">
        <ele>130.1</ele>
        <time>2023-10-25T13:38:02Z</time>
      </trkpt>
      <trkpt lat="50.04437" lon="2.33532">
        <ele>130.1</ele>
        <time>2023-10-25T13:38:03Z</time>
      </trkpt>
      <trkpt lat="50.04437" lon="2.33534">
        <ele>130.1</ele>
        <time>2023-10-25T13:38:04Z</time>
      </trkpt>
      <trkpt lat="50.04438" lon="2.33535">
        <ele>130.1</ele>
        <time>2023-10-25T13:38:05Z</time>
      </trkpt>
      <trkpt lat="50.04438" lon="2.33537">
        <ele>130.1</ele>
        <time>2023-10-25T13:38:06Z</time>
      </trkpt>
      <trkpt lat="50.04438" lon="2.33539">
        <ele>130.1</ele>
        <time>2023-10-25T13:38:07Z</time>
      </trkpt>
      <trkpt lat="50.04438" lon="2.3354">
        <ele>130.1</ele>
        <time>2023-10-25T13:38:08Z</time>
      </trkpt>
      <trkpt lat="50.04438" lon="2.33542">
        <ele>130</ele>
        <time>2023-10-25T13:38:09Z</time>
      </trkpt>
      <trkpt lat="50.04438" lon="2.33545">
        <ele>130</ele>
        <time>2023-10-25T13:38:10Z</time>
      </trkpt>
      <trkpt lat="50.04439" lon="2.33547">
        <ele>130</ele>
        <time>2023-10-25T13:38:11Z</time>
      </trkpt>
      <trkpt lat="50.04439" lon="2.33548">
        <ele>130</ele>
        <time>2023-10-25T13:38:12Z</time>
      </trkpt>
      <trkpt lat="50.04439" lon="2.3355">
        <ele>130</ele>
        <time>2023-10-25T13:38:13Z</time>
      </trkpt>
      <trkpt lat="50.04439" lon="2.33551">
        <ele>130</ele>
        <time>2023-10-25T13:38:14Z</time>
      </trkpt>
      <trkpt lat="50.04439" lon="2.33553">
        <ele>130</ele>
        <time>2023-10-25T13:38:15Z</time>
      </trkpt>
      <trkpt lat="50.04439" lon="2.33555">
        <ele>130</ele>
        <time>2023-10-25T13:38:16Z</time>
      </trkpt>
      <trkpt lat="50.04439" lon="2.33556">
        <ele>130</ele>
        <time>2023-10-25T13:38:17Z</time>
      </trkpt>
      <trkpt lat="50.04439" lon="2.33558">
        <ele>130</ele>
        <time>2023-10-25T13:38:18Z</time>
      </trkpt>
      <trkpt lat="50.04439" lon="2.33562">
        <ele>130</ele>
        <time>2023-10-25T13:38:19Z</time>
      </trkpt>
      <trkpt lat="50.04439" lon="2.33563">
        <ele>130</ele>
        <time>2023-10-25T13:38:20Z</time>
      </trkpt>
      <trkpt lat="50.04439" lon="2.33564">
        <ele>130</ele>
        <time>2023-10-25T13:38:21Z</time>
      </trkpt>
      <trkpt lat="50.04439" lon="2.33566">
        <ele>130</ele>
        <time>2023-10-25T13:38:22Z</time>
      </trkpt>
      <trkpt lat="50.04439" lon="2.33568">
        <ele>130</ele>
        <time>2023-10-25T13:38:23Z</time>
      </trkpt>
      <trkpt lat="50.04439" lon="2.33569">
        <ele>130</ele>
        <time>2023-10-25T13:38:24Z</time>
      </trkpt>
      <trkpt lat="50.04439" lon="2.33572">
        <ele>130</ele>
        <time>2023-10-25T13:38:25Z</time>
      </trkpt>
      <trkpt lat="50.04439" lon="2.33573">
        <ele>130</ele>
        <time>2023-10-25T13:38:26Z</time>
      </trkpt>
      <trkpt lat="50.04439" lon="2.33574">
        <ele>130</ele>
        <time>2023-10-25T13:38:27Z</time>
      </trkpt>
      <trkpt lat="50.04439" lon="2.33575">
        <ele>130</ele>
        <time>2023-10-25T13:38:28Z</time>
      </trkpt>
      <trkpt lat="50.04439" lon="2.33578">
        <ele>130</ele>
        <time>2023-10-25T13:38:29Z</time>
      </trkpt>
      <trkpt lat="50.04439" lon="2.3358">
        <ele>130</ele>
        <time>2023-10-25T13:38:30Z</time>
      </trkpt>
      <trkpt lat="50.04439" lon="2.33581">
        <ele>130.1</ele>
        <time>2023-10-25T13:38:31Z</time>
      </trkpt>
      <trkpt lat="50.04439" lon="2.33582">
        <ele>130.1</ele>
        <time>2023-10-25T13:38:32Z</time>
      </trkpt>
      <trkpt lat="50.04439" lon="2.33584">
        <ele>130.1</ele>
        <time>2023-10-25T13:38:33Z</time>
      </trkpt>
      <trkpt lat="50.04439" lon="2.33585">
        <ele>130.1</ele>
        <time>2023-10-25T13:38:34Z</time>
      </trkpt>
      <trkpt lat="50.04439" lon="2.33587">
        <ele>130.1</ele>
        <time>2023-10-25T13:38:35Z</time>
      </trkpt>
      <trkpt lat="50.04439" lon="2.33588">
        <ele>130.2</ele>
        <time>2023-10-25T13:38:36Z</time>
      </trkpt>
      <trkpt lat="50.04439" lon="2.3359">
        <ele>130.2</ele>
        <time>2023-10-25T13:38:37Z</time>
      </trkpt>
      <trkpt lat="50.04439" lon="2.33591">
        <ele>130.2</ele>
        <time>2023-10-25T13:38:38Z</time>
      </trkpt>
      <trkpt lat="50.04439" lon="2.33593">
        <ele>130.2</ele>
        <time>2023-10-25T13:38:39Z</time>
      </trkpt>
      <trkpt lat="50.04439" lon="2.33594">
        <ele>130.2</ele>
        <time>2023-10-25T13:38:40Z</time>
      </trkpt>
      <trkpt lat="50.04439" lon="2.33596">
        <ele>130.3</ele>
        <time>2023-10-25T13:38:41Z</time>
      </trkpt>
      <trkpt lat="50.04439" lon="2.33597">
        <ele>130.3</ele>
        <time>2023-10-25T13:38:42Z</time>
      </trkpt>
      <trkpt lat="50.04439" lon="2.33599">
        <ele>130.3</ele>
        <time>2023-10-25T13:38:43Z</time>
      </trkpt>
      <trkpt lat="50.04439" lon="2.33602">
        <ele>130.4</ele>
        <time>2023-10-25T13:38:44Z</time>
      </trkpt>
      <trkpt lat="50.04439" lon="2.33603">
        <ele>130.4</ele>
        <time>2023-10-25T13:38:45Z</time>
      </trkpt>
      <trkpt lat="50.04439" lon="2.33605">
        <ele>130.4</ele>
        <time>2023-10-25T13:38:46Z</time>
      </trkpt>
      <trkpt lat="50.04439" lon="2.33607">
        <ele>130.4</ele>
        <time>2023-10-25T13:38:47Z</time>
      </trkpt>
      <trkpt lat="50.04439" lon="2.33608">
        <ele>130.4</ele>
        <time>2023-10-25T13:38:48Z</time>
      </trkpt>
      <trkpt lat="50.04439" lon="2.3361">
        <ele>130.5</ele>
        <time>2023-10-25T13:38:49Z</time>
      </trkpt>
      <trkpt lat="50.04439" lon="2.33612">
        <ele>130.5</ele>
        <time>2023-10-25T13:38:50Z</time>
      </trkpt>
      <trkpt lat="50.04439" lon="2.33614">
        <ele>130.5</ele>
        <time>2023-10-25T13:38:51Z</time>
      </trkpt>
      <trkpt lat="50.04439" lon="2.33615">
        <ele>130.5</ele>
        <time>2023-10-25T13:38:52Z</time>
      </trkpt>
      <trkpt lat="50.04439" lon="2.33617">
        <ele>130.6</ele>
        <time>2023-10-25T13:38:53Z</time>
      </trkpt>
      <trkpt lat="50.04439" lon="2.33618">
        <ele>130.6</ele>
        <time>2023-10-25T13:38:54Z</time>
      </trkpt>
      <trkpt lat="50.04439" lon="2.33619">
        <ele>130.6</ele>
        <time>2023-10-25T13:38:55Z</time>
      </trkpt>
      <trkpt lat="50.04439" lon="2.3362">
        <ele>130.6</ele>
        <time>2023-10-25T13:38:56Z</time>
      </trkpt>
      <trkpt lat="50.04439" lon="2.33621">
        <ele>130.6</ele>
        <time>2023-10-25T13:38:57Z</time>
      </trkpt>
      <trkpt lat="50.04439" lon="2.33622">
        <ele>130.6</ele>
        <time>2023-10-25T13:38:58Z</time>
      </trkpt>
      <trkpt lat="50.04439" lon="2.33624">
        <ele>130.6</ele>
        <time>2023-10-25T13:38:59Z</time>
      </trkpt>
      <trkpt lat="50.04439" lon="2.33625">
        <ele>130.6</ele>
        <time>2023-10-25T13:39:00Z</time>
      </trkpt>
      <trkpt lat="50.04439" lon="2.33626">
        <ele>130.7</ele>
        <time>2023-10-25T13:39:01Z</time>
      </trkpt>
      <trkpt lat="50.04439" lon="2.33627">
        <ele>130.7</ele>
        <time>2023-10-25T13:39:02Z</time>
      </trkpt>
      <trkpt lat="50.04439" lon="2.33629">
        <ele>130.7</ele>
        <time>2023-10-25T13:39:03Z</time>
      </trkpt>
      <trkpt lat="50.04439" lon="2.3363">
        <ele>130.7</ele>
        <time>2023-10-25T13:39:04Z</time>
      </trkpt>
      <trkpt lat="50.04439" lon="2.33631">
        <ele>130.7</ele>
        <time>2023-10-25T13:39:05Z</time>
      </trkpt>
      <trkpt lat="50.04439" lon="2.33632">
        <ele>130.7</ele>
        <time>2023-10-25T13:39:06Z</time>
      </trkpt>
      <trkpt lat="50.04439" lon="2.33632">
        <ele>130.7</ele>
        <time>2023-10-25T13:39:07Z</time>
      </trkpt>
      <trkpt lat="50.04439" lon="2.33633">
        <ele>130.7</ele>
        <time>2023-10-25T13:39:08Z</time>
      </trkpt>
      <trkpt lat="50.04438" lon="2.33634">
        <ele>130.7</ele>
        <time>2023-10-25T13:39:09Z</time>
      </trkpt>
      <trkpt lat="50.04438" lon="2.33634">
        <ele>130.8</ele>
        <time>2023-10-25T13:39:10Z</time>
      </trkpt>
      <trkpt lat="50.04438" lon="2.33635">
        <ele>130.8</ele>
        <time>2023-10-25T13:39:11Z</time>
      </trkpt>
      <trkpt lat="50.04438" lon="2.33636">
        <ele>130.8</ele>
        <time>2023-10-25T13:39:12Z</time>
      </trkpt>
      <trkpt lat="50.04438" lon="2.33637">
        <ele>130.8</ele>
        <time>2023-10-25T13:39:13Z</time>
      </trkpt>
      <trkpt lat="50.04438" lon="2.33637">
        <ele>130.8</ele>
        <time>2023-10-25T13:39:14Z</time>
      </trkpt>
      <trkpt lat="50.04438" lon="2.33638">
        <ele>130.8</ele>
        <time>2023-10-25T13:39:15Z</time>
      </trkpt>
      <trkpt lat="50.04438" lon="2.33639">
        <ele>130.8</ele>
        <time>2023-10-25T13:39:16Z</time>
      </trkpt>
      <trkpt lat="50.04439" lon="2.3364">
        <ele>130.8</ele>
        <time>2023-10-25T13:39:17Z</time>
      </trkpt>
      <trkpt lat="50.04438" lon="2.33641">
        <ele>130.8</ele>
        <time>2023-10-25T13:39:18Z</time>
      </trkpt>
      <trkpt lat="50.04438" lon="2.33641">
        <ele>130.8</ele>
        <time>2023-10-25T13:39:19Z</time>
      </trkpt>
      <trkpt lat="50.04438" lon="2.33641">
        <ele>130.8</ele>
        <time>2023-10-25T13:39:20Z</time>
      </trkpt>
      <trkpt lat="50.04438" lon="2.33641">
        <ele>130.8</ele>
        <time>2023-10-25T13:39:21Z</time>
      </trkpt>
      <trkpt lat="50.04437" lon="2.3364">
        <ele>130.8</ele>
        <time>2023-10-25T13:39:22Z</time>
      </trkpt>
      <trkpt lat="50.04437" lon="2.33639">
        <ele>130.9</ele>
        <time>2023-10-25T13:39:23Z</time>
      </trkpt>
      <trkpt lat="50.04437" lon="2.33639">
        <ele>130.9</ele>
        <time>2023-10-25T13:39:24Z</time>
      </trkpt>
      <trkpt lat="50.04437" lon="2.33638">
        <ele>130.9</ele>
        <time>2023-10-25T13:39:25Z</time>
      </trkpt>
      <trkpt lat="50.04437" lon="2.33638">
        <ele>130.9</ele>
        <time>2023-10-25T13:39:26Z</time>
      </trkpt>
      <trkpt lat="50.04437" lon="2.33637">
        <ele>130.9</ele>
        <time>2023-10-25T13:39:27Z</time>
      </trkpt>
      <trkpt lat="50.04436" lon="2.33636">
        <ele>130.9</ele>
        <time>2023-10-25T13:39:28Z</time>
      </trkpt>
      <trkpt lat="50.04436" lon="2.33636">
        <ele>130.9</ele>
        <time>2023-10-25T13:39:29Z</time>
      </trkpt>
      <trkpt lat="50.04436" lon="2.33635">
        <ele>130.9</ele>
        <time>2023-10-25T13:39:30Z</time>
      </trkpt>
      <trkpt lat="50.04435" lon="2.33634">
        <ele>130.9</ele>
        <time>2023-10-25T13:39:31Z</time>
      </trkpt>
      <trkpt lat="50.04435" lon="2.33634">
        <ele>130.9</ele>
        <time>2023-10-25T13:39:32Z</time>
      </trkpt>
      <trkpt lat="50.04435" lon="2.33634">
        <ele>130.9</ele>
        <time>2023-10-25T13:39:33Z</time>
      </trkpt>
      <trkpt lat="50.04435" lon="2.33633">
        <ele>130.9</ele>
        <time>2023-10-25T13:39:34Z</time>
      </trkpt>
      <trkpt lat="50.04436" lon="2.33633">
        <ele>130.9</ele>
        <time>2023-10-25T13:39:35Z</time>
      </trkpt>
      <trkpt lat="50.04436" lon="2.33634">
        <ele>130.9</ele>
        <time>2023-10-25T13:39:36Z</time>
      </trkpt>
      <trkpt lat="50.04436" lon="2.33634">
        <ele>130.9</ele>
        <time>2023-10-25T13:39:37Z</time>
      </trkpt>
      <trkpt lat="50.04436" lon="2.33634">
        <ele>130.9</ele>
        <time>2023-10-25T13:39:38Z</time>
      </trkpt>
      <trkpt lat="50.04436" lon="2.33634">
        <ele>130.9</ele>
        <time>2023-10-25T13:39:39Z</time>
      </trkpt>
      <trkpt lat="50.04436" lon="2.33634">
        <ele>130.9</ele>
        <time>2023-10-25T13:39:40Z</time>
      </trkpt>
      <trkpt lat="50.04436" lon="2.33634">
        <ele>130.9</ele>
        <time>2023-10-25T13:39:41Z</time>
      </trkpt>
      <trkpt lat="50.04436" lon="2.33634">
        <ele>130.9</ele>
        <time>2023-10-25T13:39:42Z</time>
      </trkpt>
      <trkpt lat="50.04437" lon="2.33631">
        <ele>131</ele>
        <time>2023-10-25T13:40:19Z</time>
      </trkpt>
      <trkpt lat="50.04438" lon="2.33631">
        <ele>131</ele>
        <time>2023-10-25T13:40:20Z</time>
      </trkpt>
      <trkpt lat="50.04438" lon="2.33631">
        <ele>131</ele>
        <time>2023-10-25T13:40:21Z</time>
      </trkpt>
      <trkpt lat="50.04438" lon="2.33631">
        <ele>131</ele>
        <time>2023-10-25T13:40:22Z</time>
      </trkpt>
      <trkpt lat="50.04438" lon="2.33631">
        <ele>131</ele>
        <time>2023-10-25T13:40:23Z</time>
      </trkpt>
      <trkpt lat="50.04438" lon="2.33631">
        <ele>131</ele>
        <time>2023-10-25T13:40:24Z</time>
      </trkpt>
      <trkpt lat="50.04438" lon="2.33631">
        <ele>131</ele>
        <time>2023-10-25T13:40:25Z</time>
      </trkpt>
      <trkpt lat="50.04438" lon="2.33631">
        <ele>131</ele>
        <time>2023-10-25T13:40:26Z</time>
      </trkpt>
      <trkpt lat="50.04438" lon="2.33631">
        <ele>131</ele>
        <time>2023-10-25T13:40:27Z</time>
      </trkpt>
      <trkpt lat="50.04438" lon="2.3363">
        <ele>131</ele>
        <time>2023-10-25T13:40:28Z</time>
      </trkpt>
      <trkpt lat="50.04438" lon="2.3363">
        <ele>131</ele>
        <time>2023-10-25T13:40:29Z</time>
      </trkpt>
      <trkpt lat="50.04438" lon="2.3363">
        <ele>131</ele>
        <time>2023-10-25T13:40:30Z</time>
      </trkpt>
      <trkpt lat="50.04438" lon="2.3363">
        <ele>131</ele>
        <time>2023-10-25T13:40:31Z</time>
      </trkpt>
      <trkpt lat="50.04437" lon="2.3363">
        <ele>131</ele>
        <time>2023-10-25T13:40:32Z</time>
      </trkpt>
      <trkpt lat="50.04436" lon="2.3363">
        <ele>131</ele>
        <time>2023-10-25T13:40:33Z</time>
      </trkpt>
      <trkpt lat="50.04435" lon="2.3363">
        <ele>131</ele>
        <time>2023-10-25T13:40:34Z</time>
      </trkpt>
      <trkpt lat="50.04435" lon="2.3363">
        <ele>131</ele>
        <time>2023-10-25T13:40:35Z</time>
      </trkpt>
      <trkpt lat="50.04434" lon="2.3363">
        <ele>131.1</ele>
        <time>2023-10-25T13:40:36Z</time>
      </trkpt>
      <trkpt lat="50.04433" lon="2.3363">
        <ele>131.1</ele>
        <time>2023-10-25T13:40:37Z</time>
      </trkpt>
      <trkpt lat="50.04432" lon="2.3363">
        <ele>131.1</ele>
        <time>2023-10-25T13:40:38Z</time>
      </trkpt>
      <trkpt lat="50.04432" lon="2.3363">
        <ele>131.1</ele>
        <time>2023-10-25T13:40:39Z</time>
      </trkpt>
      <trkpt lat="50.04431" lon="2.3363">
        <ele>131.1</ele>
        <time>2023-10-25T13:40:40Z</time>
      </trkpt>
      <trkpt lat="50.0443" lon="2.3363">
        <ele>131.1</ele>
        <time>2023-10-25T13:40:41Z</time>
      </trkpt>
      <trkpt lat="50.04429" lon="2.3363">
        <ele>131.1</ele>
        <time>2023-10-25T13:40:42Z</time>
      </trkpt>
      <trkpt lat="50.04429" lon="2.3363">
        <ele>131.1</ele>
        <time>2023-10-25T13:40:43Z</time>
      </trkpt>
      <trkpt lat="50.04428" lon="2.33631">
        <ele>131.2</ele>
        <time>2023-10-25T13:40:44Z</time>
      </trkpt>
      <trkpt lat="50.04427" lon="2.33631">
        <ele>131.2</ele>
        <time>2023-10-25T13:40:45Z</time>
      </trkpt>
      <trkpt lat="50.04426" lon="2.33631">
        <ele>131.2</ele>
        <time>2023-10-25T13:40:46Z</time>
      </trkpt>
      <trkpt lat="50.04425" lon="2.33631">
        <ele>131.2</ele>
        <time>2023-10-25T13:40:47Z</time>
      </trkpt>
      <trkpt lat="50.04424" lon="2.33631">
        <ele>131.2</ele>
        <time>2023-10-25T13:40:48Z</time>
      </trkpt>
      <trkpt lat="50.04423" lon="2.33631">
        <ele>131.2</ele>
        <time>2023-10-25T13:40:49Z</time>
      </trkpt>
      <trkpt lat="50.04422" lon="2.33631">
        <ele>131.2</ele>
        <time>2023-10-25T13:40:50Z</time>
      </trkpt>
      <trkpt lat="50.04421" lon="2.33631">
        <ele>131.2</ele>
        <time>2023-10-25T13:40:51Z</time>
      </trkpt>
      <trkpt lat="50.0442" lon="2.33631">
        <ele>131.2</ele>
        <time>2023-10-25T13:40:52Z</time>
      </trkpt>
      <trkpt lat="50.04419" lon="2.33631">
        <ele>131.2</ele>
        <time>2023-10-25T13:40:53Z</time>
      </trkpt>
      <trkpt lat="50.04418" lon="2.33631">
        <ele>131.3</ele>
        <time>2023-10-25T13:40:54Z</time>
      </trkpt>
      <trkpt lat="50.04417" lon="2.33632">
        <ele>131.3</ele>
        <time>2023-10-25T13:40:55Z</time>
      </trkpt>
      <trkpt lat="50.04415" lon="2.33632">
        <ele>131.3</ele>
        <time>2023-10-25T13:40:56Z</time>
      </trkpt>
      <trkpt lat="50.04414" lon="2.33632">
        <ele>131.3</ele>
        <time>2023-10-25T13:40:57Z</time>
      </trkpt>
      <trkpt lat="50.04413" lon="2.33632">
        <ele>131.3</ele>
        <time>2023-10-25T13:40:58Z</time>
      </trkpt>
      <trkpt lat="50.04412" lon="2.33633">
        <ele>131.3</ele>
        <time>2023-10-25T13:40:59Z</time>
      </trkpt>
      <trkpt lat="50.04411" lon="2.33633">
        <ele>131.3</ele>
        <time>2023-10-25T13:41:00Z</time>
      </trkpt>
      <trkpt lat="50.04409" lon="2.33633">
        <ele>131.3</ele>
        <time>2023-10-25T13:41:01Z</time>
      </trkpt>
      <trkpt lat="50.04408" lon="2.33633">
        <ele>131.4</ele>
        <time>2023-10-25T13:41:02Z</time>
      </trkpt>
      <trkpt lat="50.04407" lon="2.33633">
        <ele>131.4</ele>
        <time>2023-10-25T13:41:03Z</time>
      </trkpt>
      <trkpt lat="50.04406" lon="2.33633">
        <ele>131.4</ele>
        <time>2023-10-25T13:41:04Z</time>
      </trkpt>
      <trkpt lat="50.04405" lon="2.33633">
        <ele>131.4</ele>
        <time>2023-10-25T13:41:05Z</time>
      </trkpt>
      <trkpt lat="50.04404" lon="2.33633">
        <ele>131.4</ele>
        <time>2023-10-25T13:41:06Z</time>
      </trkpt>
      <trkpt lat="50.04403" lon="2.33633">
        <ele>131.4</ele>
        <time>2023-10-25T13:41:07Z</time>
      </trkpt>
      <trkpt lat="50.04402" lon="2.33633">
        <ele>131.4</ele>
        <time>2023-10-25T13:41:08Z</time>
      </trkpt>
      <trkpt lat="50.04402" lon="2.33633">
        <ele>131.4</ele>
        <time>2023-10-25T13:41:09Z</time>
      </trkpt>
      <trkpt lat="50.04401" lon="2.33633">
        <ele>131.5</ele>
        <time>2023-10-25T13:41:10Z</time>
      </trkpt>
      <trkpt lat="50.044" lon="2.33633">
        <ele>131.5</ele>
        <time>2023-10-25T13:41:11Z</time>
      </trkpt>
      <trkpt lat="50.04399" lon="2.33633">
        <ele>131.5</ele>
        <time>2023-10-25T13:41:12Z</time>
      </trkpt>
      <trkpt lat="50.04398" lon="2.33633">
        <ele>131.5</ele>
        <time>2023-10-25T13:41:13Z</time>
      </trkpt>
      <trkpt lat="50.04397" lon="2.33632">
        <ele>131.5</ele>
        <time>2023-10-25T13:41:14Z</time>
      </trkpt>
      <trkpt lat="50.04396" lon="2.33632">
        <ele>131.5</ele>
        <time>2023-10-25T13:41:15Z</time>
      </trkpt>
      <trkpt lat="50.04395" lon="2.33632">
        <ele>131.5</ele>
        <time>2023-10-25T13:41:16Z</time>
      </trkpt>
      <trkpt lat="50.04394" lon="2.33632">
        <ele>131.5</ele>
        <time>2023-10-25T13:41:17Z</time>
      </trkpt>
      <trkpt lat="50.04393" lon="2.33631">
        <ele>131.6</ele>
        <time>2023-10-25T13:41:18Z</time>
      </trkpt>
      <trkpt lat="50.04392" lon="2.33631">
        <ele>131.6</ele>
        <time>2023-10-25T13:41:19Z</time>
      </trkpt>
      <trkpt lat="50.04391" lon="2.33631">
        <ele>131.6</ele>
        <time>2023-10-25T13:41:20Z</time>
      </trkpt>
      <trkpt lat="50.0439" lon="2.33631">
        <ele>131.6</ele>
        <time>2023-10-25T13:41:21Z</time>
      </trkpt>
      <trkpt lat="50.04389" lon="2.33631">
        <ele>131.6</ele>
        <time>2023-10-25T13:41:22Z</time>
      </trkpt>
      <trkpt lat="50.04388" lon="2.33631">
        <ele>131.6</ele>
        <time>2023-10-25T13:41:23Z</time>
      </trkpt>
      <trkpt lat="50.04387" lon="2.3363">
        <ele>131.6</ele>
        <time>2023-10-25T13:41:24Z</time>
      </trkpt>
      <trkpt lat="50.04386" lon="2.3363">
        <ele>131.7</ele>
        <time>2023-10-25T13:41:25Z</time>
      </trkpt>
      <trkpt lat="50.04385" lon="2.3363">
        <ele>131.7</ele>
        <time>2023-10-25T13:41:26Z</time>
      </trkpt>
      <trkpt lat="50.04384" lon="2.3363">
        <ele>131.7</ele>
        <time>2023-10-25T13:41:27Z</time>
      </trkpt>
      <trkpt lat="50.04383" lon="2.3363">
        <ele>131.7</ele>
        <time>2023-10-25T13:41:28Z</time>
      </trkpt>
      <trkpt lat="50.04382" lon="2.3363">
        <ele>131.7</ele>
        <time>2023-10-25T13:41:29Z</time>
      </trkpt>
      <trkpt lat="50.04381" lon="2.3363">
        <ele>131.7</ele>
        <time>2023-10-25T13:41:30Z</time>
      </trkpt>
      <trkpt lat="50.0438" lon="2.3363">
        <ele>131.7</ele>
        <time>2023-10-25T13:41:31Z</time>
      </trkpt>
      <trkpt lat="50.04379" lon="2.33629">
        <ele>131.7</ele>
        <time>2023-10-25T13:41:32Z</time>
      </trkpt>
      <trkpt lat="50.04379" lon="2.33629">
        <ele>131.8</ele>
        <time>2023-10-25T13:41:33Z</time>
      </trkpt>
      <trkpt lat="50.04378" lon="2.33629">
        <ele>131.8</ele>
        <time>2023-10-25T13:41:34Z</time>
      </trkpt>
      <trkpt lat="50.04377" lon="2.33629">
        <ele>131.8</ele>
        <time>2023-10-25T13:41:35Z</time>
      </trkpt>
      <trkpt lat="50.04376" lon="2.33629">
        <ele>131.8</ele>
        <time>2023-10-25T13:41:36Z</time>
      </trkpt>
      <trkpt lat="50.04375" lon="2.33629">
        <ele>131.8</ele>
        <time>2023-10-25T13:41:37Z</time>
      </trkpt>
      <trkpt lat="50.04374" lon="2.33629">
        <ele>131.8</ele>
        <time>2023-10-25T13:41:38Z</time>
      </trkpt>
      <trkpt lat="50.04373" lon="2.33629">
        <ele>131.8</ele>
        <time>2023-10-25T13:41:39Z</time>
      </trkpt>
      <trkpt lat="50.04372" lon="2.3363">
        <ele>131.8</ele>
        <time>2023-10-25T13:41:40Z</time>
      </trkpt>
      <trkpt lat="50.04371" lon="2.3363">
        <ele>131.8</ele>
        <time>2023-10-25T13:41:41Z</time>
      </trkpt>
      <trkpt lat="50.0437" lon="2.33629">
        <ele>131.8</ele>
        <time>2023-10-25T13:41:42Z</time>
      </trkpt>
      <trkpt lat="50.04369" lon="2.33629">
        <ele>131.9</ele>
        <time>2023-10-25T13:41:43Z</time>
      </trkpt>
      <trkpt lat="50.04368" lon="2.3363">
        <ele>131.9</ele>
        <time>2023-10-25T13:41:44Z</time>
      </trkpt>
      <trkpt lat="50.04367" lon="2.3363">
        <ele>131.9</ele>
        <time>2023-10-25T13:41:45Z</time>
      </trkpt>
      <trkpt lat="50.04366" lon="2.3363">
        <ele>131.9</ele>
        <time>2023-10-25T13:41:46Z</time>
      </trkpt>
      <trkpt lat="50.04365" lon="2.3363">
        <ele>131.9</ele>
        <time>2023-10-25T13:41:47Z</time>
      </trkpt>
      <trkpt lat="50.04364" lon="2.3363">
        <ele>131.9</ele>
        <time>2023-10-25T13:41:48Z</time>
      </trkpt>
      <trkpt lat="50.04363" lon="2.3363">
        <ele>131.9</ele>
        <time>2023-10-25T13:41:49Z</time>
      </trkpt>
      <trkpt lat="50.04362" lon="2.3363">
        <ele>131.9</ele>
        <time>2023-10-25T13:41:50Z</time>
      </trkpt>
      <trkpt lat="50.04361" lon="2.3363">
        <ele>132</ele>
        <time>2023-10-25T13:41:51Z</time>
      </trkpt>
      <trkpt lat="50.0436" lon="2.3363">
        <ele>132</ele>
        <time>2023-10-25T13:41:52Z</time>
      </trkpt>
      <trkpt lat="50.04359" lon="2.3363">
        <ele>132</ele>
        <time>2023-10-25T13:41:53Z</time>
      </trkpt>
      <trkpt lat="50.04358" lon="2.3363">
        <ele>132</ele>
        <time>2023-10-25T13:41:54Z</time>
      </trkpt>
      <trkpt lat="50.04357" lon="2.3363">
        <ele>132</ele>
        <time>2023-10-25T13:41:55Z</time>
      </trkpt>
      <trkpt lat="50.04356" lon="2.3363">
        <ele>132</ele>
        <time>2023-10-25T13:41:56Z</time>
      </trkpt>
      <trkpt lat="50.04355" lon="2.33629">
        <ele>132</ele>
        <time>2023-10-25T13:41:57Z</time>
      </trkpt>
      <trkpt lat="50.04354" lon="2.33629">
        <ele>132</ele>
        <time>2023-10-25T13:41:58Z</time>
      </trkpt>
      <trkpt lat="50.04353" lon="2.33629">
        <ele>132</ele>
        <time>2023-10-25T13:41:59Z</time>
      </trkpt>
      <trkpt lat="50.04352" lon="2.33628">
        <ele>132.1</ele>
        <time>2023-10-25T13:42:00Z</time>
      </trkpt>
      <trkpt lat="50.04351" lon="2.33628">
        <ele>132.1</ele>
        <time>2023-10-25T13:42:01Z</time>
      </trkpt>
      <trkpt lat="50.0435" lon="2.33628">
        <ele>132.1</ele>
        <time>2023-10-25T13:42:02Z</time>
      </trkpt>
      <trkpt lat="50.04349" lon="2.33627">
        <ele>132.1</ele>
        <time>2023-10-25T13:42:03Z</time>
      </trkpt>
      <trkpt lat="50.04347" lon="2.33627">
        <ele>132.1</ele>
        <time>2023-10-25T13:42:04Z</time>
      </trkpt>
      <trkpt lat="50.04346" lon="2.33626">
        <ele>132.1</ele>
        <time>2023-10-25T13:42:05Z</time>
      </trkpt>
      <trkpt lat="50.04345" lon="2.33626">
        <ele>132.1</ele>
        <time>2023-10-25T13:42:06Z</time>
      </trkpt>
      <trkpt lat="50.04343" lon="2.33625">
        <ele>132.2</ele>
        <time>2023-10-25T13:42:07Z</time>
      </trkpt>
      <trkpt lat="50.04343" lon="2.33624">
        <ele>132.2</ele>
        <time>2023-10-25T13:42:08Z</time>
      </trkpt>
      <trkpt lat="50.04342" lon="2.33624">
        <ele>132.2</ele>
        <time>2023-10-25T13:42:09Z</time>
      </trkpt>
      <trkpt lat="50.04341" lon="2.33623">
        <ele>132.2</ele>
        <time>2023-10-25T13:42:10Z</time>
      </trkpt>
      <trkpt lat="50.0434" lon="2.33623">
        <ele>132.2</ele>
        <time>2023-10-25T13:42:11Z</time>
      </trkpt>
      <trkpt lat="50.04339" lon="2.33622">
        <ele>132.2</ele>
        <time>2023-10-25T13:42:12Z</time>
      </trkpt>
      <trkpt lat="50.04338" lon="2.33622">
        <ele>132.3</ele>
        <time>2023-10-25T13:42:13Z</time>
      </trkpt>
      <trkpt lat="50.04337" lon="2.33621">
        <ele>132.3</ele>
        <time>2023-10-25T13:42:14Z</time>
      </trkpt>
      <trkpt lat="50.04336" lon="2.33621">
        <ele>132.3</ele>
        <time>2023-10-25T13:42:15Z</time>
      </trkpt>
      <trkpt lat="50.04335" lon="2.3362">
        <ele>132.3</ele>
        <time>2023-10-25T13:42:16Z</time>
      </trkpt>
      <trkpt lat="50.04334" lon="2.33619">
        <ele>132.3</ele>
        <time>2023-10-25T13:42:17Z</time>
      </trkpt>
      <trkpt lat="50.04333" lon="2.33619">
        <ele>132.3</ele>
        <time>2023-10-25T13:42:18Z</time>
      </trkpt>
      <trkpt lat="50.04332" lon="2.33618">
        <ele>132.3</ele>
        <time>2023-10-25T13:42:19Z</time>
      </trkpt>
      <trkpt lat="50.04331" lon="2.33618">
        <ele>132.4</ele>
        <time>2023-10-25T13:42:20Z</time>
      </trkpt>
      <trkpt lat="50.0433" lon="2.33617">
        <ele>132.4</ele>
        <time>2023-10-25T13:42:21Z</time>
      </trkpt>
      <trkpt lat="50.04329" lon="2.33617">
        <ele>132.4</ele>
        <time>2023-10-25T13:42:22Z</time>
      </trkpt>
      <trkpt lat="50.04329" lon="2.33616">
        <ele>132.4</ele>
        <time>2023-10-25T13:42:23Z</time>
      </trkpt>
      <trkpt lat="50.04328" lon="2.33616">
        <ele>132.4</ele>
        <time>2023-10-25T13:42:24Z</time>
      </trkpt>
      <trkpt lat="50.04327" lon="2.33615">
        <ele>132.4</ele>
        <time>2023-10-25T13:42:25Z</time>
      </trkpt>
      <trkpt lat="50.04326" lon="2.33615">
        <ele>132.4</ele>
        <time>2023-10-25T13:42:26Z</time>
      </trkpt>
      <trkpt lat="50.04325" lon="2.33614">
        <ele>132.5</ele>
        <time>2023-10-25T13:42:27Z</time>
      </trkpt>
      <trkpt lat="50.04325" lon="2.33614">
        <ele>132.5</ele>
        <time>2023-10-25T13:42:28Z</time>
      </trkpt>
      <trkpt lat="50.04324" lon="2.33614">
        <ele>132.5</ele>
        <time>2023-10-25T13:42:29Z</time>
      </trkpt>
      <trkpt lat="50.04323" lon="2.33613">
        <ele>132.5</ele>
        <time>2023-10-25T13:42:30Z</time>
      </trkpt>
      <trkpt lat="50.04322" lon="2.33612">
        <ele>132.5</ele>
        <time>2023-10-25T13:42:31Z</time>
      </trkpt>
      <trkpt lat="50.04321" lon="2.33612">
        <ele>132.5</ele>
        <time>2023-10-25T13:42:32Z</time>
      </trkpt>
      <trkpt lat="50.0432" lon="2.33611">
        <ele>132.6</ele>
        <time>2023-10-25T13:42:33Z</time>
      </trkpt>
      <trkpt lat="50.04319" lon="2.3361">
        <ele>132.6</ele>
        <time>2023-10-25T13:42:34Z</time>
      </trkpt>
      <trkpt lat="50.04319" lon="2.3361">
        <ele>132.6</ele>
        <time>2023-10-25T13:42:35Z</time>
      </trkpt>
      <trkpt lat="50.04318" lon="2.33609">
        <ele>132.6</ele>
        <time>2023-10-25T13:42:36Z</time>
      </trkpt>
      <trkpt lat="50.04317" lon="2.33608">
        <ele>132.6</ele>
        <time>2023-10-25T13:42:37Z</time>
      </trkpt>
      <trkpt lat="50.04316" lon="2.33608">
        <ele>132.7</ele>
        <time>2023-10-25T13:42:38Z</time>
      </trkpt>
      <trkpt lat="50.04315" lon="2.33607">
        <ele>132.7</ele>
        <time>2023-10-25T13:42:39Z</time>
      </trkpt>
      <trkpt lat="50.04314" lon="2.33606">
        <ele>132.7</ele>
        <time>2023-10-25T13:42:40Z</time>
      </trkpt>
      <trkpt lat="50.04313" lon="2.33605">
        <ele>132.7</ele>
        <time>2023-10-25T13:42:41Z</time>
      </trkpt>
      <trkpt lat="50.04311" lon="2.33604">
        <ele>132.8</ele>
        <time>2023-10-25T13:42:42Z</time>
      </trkpt>
      <trkpt lat="50.04311" lon="2.33604">
        <ele>132.8</ele>
        <time>2023-10-25T13:42:43Z</time>
      </trkpt>
      <trkpt lat="50.0431" lon="2.33603">
        <ele>132.8</ele>
        <time>2023-10-25T13:42:44Z</time>
      </trkpt>
      <trkpt lat="50.0431" lon="2.33603">
        <ele>132.8</ele>
        <time>2023-10-25T13:42:45Z</time>
      </trkpt>
      <trkpt lat="50.04309" lon="2.33602">
        <ele>132.8</ele>
        <time>2023-10-25T13:42:46Z</time>
      </trkpt>
      <trkpt lat="50.04308" lon="2.33601">
        <ele>132.9</ele>
        <time>2023-10-25T13:42:47Z</time>
      </trkpt>
      <trkpt lat="50.04307" lon="2.336">
        <ele>132.9</ele>
        <time>2023-10-25T13:42:48Z</time>
      </trkpt>
      <trkpt lat="50.04306" lon="2.336">
        <ele>132.9</ele>
        <time>2023-10-25T13:42:49Z</time>
      </trkpt>
      <trkpt lat="50.04305" lon="2.33599">
        <ele>133</ele>
        <time>2023-10-25T13:42:50Z</time>
      </trkpt>
      <trkpt lat="50.04304" lon="2.33598">
        <ele>133</ele>
        <time>2023-10-25T13:42:51Z</time>
      </trkpt>
      <trkpt lat="50.04303" lon="2.33598">
        <ele>133</ele>
        <time>2023-10-25T13:42:52Z</time>
      </trkpt>
      <trkpt lat="50.04302" lon="2.33597">
        <ele>133</ele>
        <time>2023-10-25T13:42:53Z</time>
      </trkpt>
      <trkpt lat="50.04301" lon="2.33596">
        <ele>133.1</ele>
        <time>2023-10-25T13:42:54Z</time>
      </trkpt>
      <trkpt lat="50.043" lon="2.33596">
        <ele>133.1</ele>
        <time>2023-10-25T13:42:55Z</time>
      </trkpt>
      <trkpt lat="50.04299" lon="2.33595">
        <ele>133.1</ele>
        <time>2023-10-25T13:42:56Z</time>
      </trkpt>
      <trkpt lat="50.04298" lon="2.33594">
        <ele>133.2</ele>
        <time>2023-10-25T13:42:57Z</time>
      </trkpt>
      <trkpt lat="50.04297" lon="2.33594">
        <ele>133.2</ele>
        <time>2023-10-25T13:42:58Z</time>
      </trkpt>
      <trkpt lat="50.04296" lon="2.33593">
        <ele>133.2</ele>
        <time>2023-10-25T13:42:59Z</time>
      </trkpt>
      <trkpt lat="50.04295" lon="2.33592">
        <ele>133.3</ele>
        <time>2023-10-25T13:43:00Z</time>
      </trkpt>
      <trkpt lat="50.04294" lon="2.33592">
        <ele>133.3</ele>
        <time>2023-10-25T13:43:01Z</time>
      </trkpt>
      <trkpt lat="50.04292" lon="2.33591">
        <ele>133.3</ele>
        <time>2023-10-25T13:43:02Z</time>
      </trkpt>
      <trkpt lat="50.04291" lon="2.3359">
        <ele>133.3</ele>
        <time>2023-10-25T13:43:03Z</time>
      </trkpt>
      <trkpt lat="50.04289" lon="2.33589">
        <ele>133.4</ele>
        <time>2023-10-25T13:43:04Z</time>
      </trkpt>
      <trkpt lat="50.04289" lon="2.33588">
        <ele>133.4</ele>
        <time>2023-10-25T13:43:05Z</time>
      </trkpt>
      <trkpt lat="50.04288" lon="2.33588">
        <ele>133.5</ele>
        <time>2023-10-25T13:43:06Z</time>
      </trkpt>
      <trkpt lat="50.04287" lon="2.33587">
        <ele>133.5</ele>
        <time>2023-10-25T13:43:07Z</time>
      </trkpt>
      <trkpt lat="50.04286" lon="2.33586">
        <ele>133.5</ele>
        <time>2023-10-25T13:43:08Z</time>
      </trkpt>
      <trkpt lat="50.04285" lon="2.33586">
        <ele>133.6</ele>
        <time>2023-10-25T13:43:09Z</time>
      </trkpt>
      <trkpt lat="50.04283" lon="2.33584">
        <ele>133.6</ele>
        <time>2023-10-25T13:43:10Z</time>
      </trkpt>
      <trkpt lat="50.04282" lon="2.33584">
        <ele>133.6</ele>
        <time>2023-10-25T13:43:11Z</time>
      </trkpt>
      <trkpt lat="50.04281" lon="2.33583">
        <ele>133.7</ele>
        <time>2023-10-25T13:43:12Z</time>
      </trkpt>
      <trkpt lat="50.0428" lon="2.33582">
        <ele>133.7</ele>
        <time>2023-10-25T13:43:13Z</time>
      </trkpt>
      <trkpt lat="50.04279" lon="2.33582">
        <ele>133.7</ele>
        <time>2023-10-25T13:43:14Z</time>
      </trkpt>
      <trkpt lat="50.04278" lon="2.33581">
        <ele>133.8</ele>
        <time>2023-10-25T13:43:15Z</time>
      </trkpt>
      <trkpt lat="50.04277" lon="2.3358">
        <ele>133.8</ele>
        <time>2023-10-25T13:43:16Z</time>
      </trkpt>
      <trkpt lat="50.04276" lon="2.3358">
        <ele>133.8</ele>
        <time>2023-10-25T13:43:17Z</time>
      </trkpt>
      <trkpt lat="50.04275" lon="2.33579">
        <ele>133.8</ele>
        <time>2023-10-25T13:43:18Z</time>
      </trkpt>
      <trkpt lat="50.04274" lon="2.33579">
        <ele>133.9</ele>
        <time>2023-10-25T13:43:19Z</time>
      </trkpt>
      <trkpt lat="50.04273" lon="2.33578">
        <ele>133.9</ele>
        <time>2023-10-25T13:43:20Z</time>
      </trkpt>
      <trkpt lat="50.04273" lon="2.33578">
        <ele>133.9</ele>
        <time>2023-10-25T13:43:21Z</time>
      </trkpt>
      <trkpt lat="50.04272" lon="2.33577">
        <ele>133.9</ele>
        <time>2023-10-25T13:43:22Z</time>
      </trkpt>
      <trkpt lat="50.04271" lon="2.33576">
        <ele>134</ele>
        <time>2023-10-25T13:43:23Z</time>
      </trkpt>
      <trkpt lat="50.0427" lon="2.33576">
        <ele>134</ele>
        <time>2023-10-25T13:43:24Z</time>
      </trkpt>
      <trkpt lat="50.04269" lon="2.33575">
        <ele>134</ele>
        <time>2023-10-25T13:43:25Z</time>
      </trkpt>
      <trkpt lat="50.04268" lon="2.33574">
        <ele>134.1</ele>
        <time>2023-10-25T13:43:26Z</time>
      </trkpt>
      <trkpt lat="50.04267" lon="2.33574">
        <ele>134.1</ele>
        <time>2023-10-25T13:43:27Z</time>
      </trkpt>
      <trkpt lat="50.04267" lon="2.33573">
        <ele>134.1</ele>
        <time>2023-10-25T13:43:28Z</time>
      </trkpt>
      <trkpt lat="50.04266" lon="2.33573">
        <ele>134.1</ele>
        <time>2023-10-25T13:43:29Z</time>
      </trkpt>
      <trkpt lat="50.04265" lon="2.33572">
        <ele>134.1</ele>
        <time>2023-10-25T13:43:30Z</time>
      </trkpt>
      <trkpt lat="50.04264" lon="2.33572">
        <ele>134.2</ele>
        <time>2023-10-25T13:43:31Z</time>
      </trkpt>
      <trkpt lat="50.04264" lon="2.33571">
        <ele>134.2</ele>
        <time>2023-10-25T13:43:32Z</time>
      </trkpt>
      <trkpt lat="50.04263" lon="2.33571">
        <ele>134.2</ele>
        <time>2023-10-25T13:43:33Z</time>
      </trkpt>
      <trkpt lat="50.04262" lon="2.3357">
        <ele>134.2</ele>
        <time>2023-10-25T13:43:34Z</time>
      </trkpt>
      <trkpt lat="50.04261" lon="2.3357">
        <ele>134.3</ele>
        <time>2023-10-25T13:43:35Z</time>
      </trkpt>
      <trkpt lat="50.04259" lon="2.33569">
        <ele>134.3</ele>
        <time>2023-10-25T13:43:36Z</time>
      </trkpt>
      <trkpt lat="50.04258" lon="2.33569">
        <ele>134.3</ele>
        <time>2023-10-25T13:43:37Z</time>
      </trkpt>
      <trkpt lat="50.04257" lon="2.33568">
        <ele>134.4</ele>
        <time>2023-10-25T13:43:38Z</time>
      </trkpt>
      <trkpt lat="50.04256" lon="2.33568">
        <ele>134.4</ele>
        <time>2023-10-25T13:43:39Z</time>
      </trkpt>
      <trkpt lat="50.04255" lon="2.33568">
        <ele>134.4</ele>
        <time>2023-10-25T13:43:40Z</time>
      </trkpt>
      <trkpt lat="50.04254" lon="2.33567">
        <ele>134.4</ele>
        <time>2023-10-25T13:43:41Z</time>
      </trkpt>
      <trkpt lat="50.04252" lon="2.33567">
        <ele>134.5</ele>
        <time>2023-10-25T13:43:42Z</time>
      </trkpt>
      <trkpt lat="50.04251" lon="2.33567">
        <ele>134.5</ele>
        <time>2023-10-25T13:43:43Z</time>
      </trkpt>
      <trkpt lat="50.0425" lon="2.33566">
        <ele>134.5</ele>
        <time>2023-10-25T13:43:44Z</time>
      </trkpt>
      <trkpt lat="50.04249" lon="2.33566">
        <ele>134.6</ele>
        <time>2023-10-25T13:43:45Z</time>
      </trkpt>
      <trkpt lat="50.04248" lon="2.33566">
        <ele>134.6</ele>
        <time>2023-10-25T13:43:46Z</time>
      </trkpt>
      <trkpt lat="50.04247" lon="2.33565">
        <ele>134.6</ele>
        <time>2023-10-25T13:43:47Z</time>
      </trkpt>
      <trkpt lat="50.04246" lon="2.33565">
        <ele>134.6</ele>
        <time>2023-10-25T13:43:48Z</time>
      </trkpt>
      <trkpt lat="50.04245" lon="2.33565">
        <ele>134.7</ele>
        <time>2023-10-25T13:43:49Z</time>
      </trkpt>
      <trkpt lat="50.04244" lon="2.33564">
        <ele>134.7</ele>
        <time>2023-10-25T13:43:50Z</time>
      </trkpt>
      <trkpt lat="50.04242" lon="2.33563">
        <ele>134.7</ele>
        <time>2023-10-25T13:43:51Z</time>
      </trkpt>
      <trkpt lat="50.04241" lon="2.33563">
        <ele>134.7</ele>
        <time>2023-10-25T13:43:52Z</time>
      </trkpt>
      <trkpt lat="50.0424" lon="2.33563">
        <ele>134.8</ele>
        <time>2023-10-25T13:43:53Z</time>
      </trkpt>
      <trkpt lat="50.04239" lon="2.33562">
        <ele>134.8</ele>
        <time>2023-10-25T13:43:54Z</time>
      </trkpt>
      <trkpt lat="50.04238" lon="2.33562">
        <ele>134.8</ele>
        <time>2023-10-25T13:43:55Z</time>
      </trkpt>
      <trkpt lat="50.04237" lon="2.33562">
        <ele>134.8</ele>
        <time>2023-10-25T13:43:56Z</time>
      </trkpt>
      <trkpt lat="50.04235" lon="2.33561">
        <ele>134.8</ele>
        <time>2023-10-25T13:43:57Z</time>
      </trkpt>
      <trkpt lat="50.04234" lon="2.33561">
        <ele>134.9</ele>
        <time>2023-10-25T13:43:58Z</time>
      </trkpt>
      <trkpt lat="50.04233" lon="2.33561">
        <ele>134.9</ele>
        <time>2023-10-25T13:43:59Z</time>
      </trkpt>
      <trkpt lat="50.04232" lon="2.3356">
        <ele>134.9</ele>
        <time>2023-10-25T13:44:00Z</time>
      </trkpt>
      <trkpt lat="50.04231" lon="2.3356">
        <ele>135</ele>
        <time>2023-10-25T13:44:01Z</time>
      </trkpt>
      <trkpt lat="50.0423" lon="2.3356">
        <ele>135</ele>
        <time>2023-10-25T13:44:02Z</time>
      </trkpt>
      <trkpt lat="50.04229" lon="2.3356">
        <ele>135</ele>
        <time>2023-10-25T13:44:03Z</time>
      </trkpt>
      <trkpt lat="50.04228" lon="2.33559">
        <ele>135</ele>
        <time>2023-10-25T13:44:04Z</time>
      </trkpt>
      <trkpt lat="50.04227" lon="2.33559">
        <ele>135</ele>
        <time>2023-10-25T13:44:05Z</time>
      </trkpt>
      <trkpt lat="50.04226" lon="2.33559">
        <ele>135.1</ele>
        <time>2023-10-25T13:44:06Z</time>
      </trkpt>
      <trkpt lat="50.04225" lon="2.33558">
        <ele>135.1</ele>
        <time>2023-10-25T13:44:07Z</time>
      </trkpt>
      <trkpt lat="50.04224" lon="2.33558">
        <ele>135.1</ele>
        <time>2023-10-25T13:44:08Z</time>
      </trkpt>
      <trkpt lat="50.04223" lon="2.33557">
        <ele>135.1</ele>
        <time>2023-10-25T13:44:09Z</time>
      </trkpt>
      <trkpt lat="50.04222" lon="2.33557">
        <ele>135.2</ele>
        <time>2023-10-25T13:44:10Z</time>
      </trkpt>
      <trkpt lat="50.04221" lon="2.33557">
        <ele>135.2</ele>
        <time>2023-10-25T13:44:11Z</time>
      </trkpt>
      <trkpt lat="50.0422" lon="2.33556">
        <ele>135.2</ele>
        <time>2023-10-25T13:44:12Z</time>
      </trkpt>
      <trkpt lat="50.04219" lon="2.33556">
        <ele>135.2</ele>
        <time>2023-10-25T13:44:13Z</time>
      </trkpt>
      <trkpt lat="50.04218" lon="2.33556">
        <ele>135.3</ele>
        <time>2023-10-25T13:44:14Z</time>
      </trkpt>
      <trkpt lat="50.04217" lon="2.33555">
        <ele>135.3</ele>
        <time>2023-10-25T13:44:15Z</time>
      </trkpt>
      <trkpt lat="50.04216" lon="2.33555">
        <ele>135.3</ele>
        <time>2023-10-25T13:44:16Z</time>
      </trkpt>
      <trkpt lat="50.04215" lon="2.33554">
        <ele>135.3</ele>
        <time>2023-10-25T13:44:17Z</time>
      </trkpt>
      <trkpt lat="50.04214" lon="2.33554">
        <ele>135.4</ele>
        <time>2023-10-25T13:44:18Z</time>
      </trkpt>
      <trkpt lat="50.04213" lon="2.33553">
        <ele>135.4</ele>
        <time>2023-10-25T13:44:19Z</time>
      </trkpt>
      <trkpt lat="50.04212" lon="2.33553">
        <ele>135.4</ele>
        <time>2023-10-25T13:44:20Z</time>
      </trkpt>
      <trkpt lat="50.04211" lon="2.33552">
        <ele>135.4</ele>
        <time>2023-10-25T13:44:21Z</time>
      </trkpt>
      <trkpt lat="50.0421" lon="2.33552">
        <ele>135.5</ele>
        <time>2023-10-25T13:44:22Z</time>
      </trkpt>
      <trkpt lat="50.04209" lon="2.33551">
        <ele>135.5</ele>
        <time>2023-10-25T13:44:23Z</time>
      </trkpt>
      <trkpt lat="50.04208" lon="2.33551">
        <ele>135.5</ele>
        <time>2023-10-25T13:44:24Z</time>
      </trkpt>
      <trkpt lat="50.04207" lon="2.3355">
        <ele>135.5</ele>
        <time>2023-10-25T13:44:25Z</time>
      </trkpt>
      <trkpt lat="50.04206" lon="2.3355">
        <ele>135.6</ele>
        <time>2023-10-25T13:44:26Z</time>
      </trkpt>
      <trkpt lat="50.04205" lon="2.33549">
        <ele>135.6</ele>
        <time>2023-10-25T13:44:27Z</time>
      </trkpt>
      <trkpt lat="50.04204" lon="2.33549">
        <ele>135.6</ele>
        <time>2023-10-25T13:44:28Z</time>
      </trkpt>
      <trkpt lat="50.04203" lon="2.33548">
        <ele>135.6</ele>
        <time>2023-10-25T13:44:29Z</time>
      </trkpt>
      <trkpt lat="50.04202" lon="2.33547">
        <ele>135.7</ele>
        <time>2023-10-25T13:44:30Z</time>
      </trkpt>
      <trkpt lat="50.04201" lon="2.33547">
        <ele>135.7</ele>
        <time>2023-10-25T13:44:31Z</time>
      </trkpt>
      <trkpt lat="50.042" lon="2.33546">
        <ele>135.7</ele>
        <time>2023-10-25T13:44:32Z</time>
      </trkpt>
      <trkpt lat="50.04199" lon="2.33546">
        <ele>135.7</ele>
        <time>2023-10-25T13:44:33Z</time>
      </trkpt>
      <trkpt lat="50.04198" lon="2.33545">
        <ele>135.8</ele>
        <time>2023-10-25T13:44:34Z</time>
      </trkpt>
      <trkpt lat="50.04197" lon="2.33545">
        <ele>135.8</ele>
        <time>2023-10-25T13:44:35Z</time>
      </trkpt>
      <trkpt lat="50.04196" lon="2.33544">
        <ele>135.8</ele>
        <time>2023-10-25T13:44:36Z</time>
      </trkpt>
      <trkpt lat="50.04195" lon="2.33544">
        <ele>135.8</ele>
        <time>2023-10-25T13:44:37Z</time>
      </trkpt>
      <trkpt lat="50.04194" lon="2.33543">
        <ele>135.9</ele>
        <time>2023-10-25T13:44:38Z</time>
      </trkpt>
      <trkpt lat="50.04193" lon="2.33543">
        <ele>135.9</ele>
        <time>2023-10-25T13:44:39Z</time>
      </trkpt>
      <trkpt lat="50.04192" lon="2.33542">
        <ele>135.9</ele>
        <time>2023-10-25T13:44:40Z</time>
      </trkpt>
      <trkpt lat="50.04191" lon="2.33542">
        <ele>135.9</ele>
        <time>2023-10-25T13:44:41Z</time>
      </trkpt>
      <trkpt lat="50.0419" lon="2.33542">
        <ele>136</ele>
        <time>2023-10-25T13:44:42Z</time>
      </trkpt>
      <trkpt lat="50.04189" lon="2.33541">
        <ele>136</ele>
        <time>2023-10-25T13:44:43Z</time>
      </trkpt>
      <trkpt lat="50.04188" lon="2.33541">
        <ele>136</ele>
        <time>2023-10-25T13:44:44Z</time>
      </trkpt>
      <trkpt lat="50.04187" lon="2.3354">
        <ele>136</ele>
        <time>2023-10-25T13:44:45Z</time>
      </trkpt>
      <trkpt lat="50.04186" lon="2.3354">
        <ele>136.1</ele>
        <time>2023-10-25T13:44:46Z</time>
      </trkpt>
      <trkpt lat="50.04185" lon="2.33539">
        <ele>136.1</ele>
        <time>2023-10-25T13:44:47Z</time>
      </trkpt>
      <trkpt lat="50.04184" lon="2.33539">
        <ele>136.1</ele>
        <time>2023-10-25T13:44:48Z</time>
      </trkpt>
      <trkpt lat="50.04183" lon="2.33539">
        <ele>136.1</ele>
        <time>2023-10-25T13:44:49Z</time>
      </trkpt>
      <trkpt lat="50.04182" lon="2.33538">
        <ele>136.1</ele>
        <time>2023-10-25T13:44:50Z</time>
      </trkpt>
      <trkpt lat="50.04181" lon="2.33538">
        <ele>136.1</ele>
        <time>2023-10-25T13:44:51Z</time>
      </trkpt>
      <trkpt lat="50.0418" lon="2.33538">
        <ele>136.1</ele>
        <time>2023-10-25T13:44:52Z</time>
      </trkpt>
      <trkpt lat="50.04179" lon="2.33537">
        <ele>136.2</ele>
        <time>2023-10-25T13:44:53Z</time>
      </trkpt>
      <trkpt lat="50.04178" lon="2.33537">
        <ele>136.2</ele>
        <time>2023-10-25T13:44:54Z</time>
      </trkpt>
      <trkpt lat="50.04177" lon="2.33537">
        <ele>136.2</ele>
        <time>2023-10-25T13:44:55Z</time>
      </trkpt>
      <trkpt lat="50.04176" lon="2.33536">
        <ele>136.2</ele>
        <time>2023-10-25T13:44:56Z</time>
      </trkpt>
      <trkpt lat="50.04175" lon="2.33536">
        <ele>136.2</ele>
        <time>2023-10-25T13:44:57Z</time>
      </trkpt>
      <trkpt lat="50.04174" lon="2.33536">
        <ele>136.2</ele>
        <time>2023-10-25T13:44:58Z</time>
      </trkpt>
      <trkpt lat="50.04174" lon="2.33536">
        <ele>136.3</ele>
        <time>2023-10-25T13:44:59Z</time>
      </trkpt>
      <trkpt lat="50.04173" lon="2.33536">
        <ele>136.3</ele>
        <time>2023-10-25T13:45:00Z</time>
      </trkpt>
      <trkpt lat="50.04172" lon="2.33535">
        <ele>136.3</ele>
        <time>2023-10-25T13:45:01Z</time>
      </trkpt>
      <trkpt lat="50.04171" lon="2.33535">
        <ele>136.3</ele>
        <time>2023-10-25T13:45:02Z</time>
      </trkpt>
      <trkpt lat="50.0417" lon="2.33535">
        <ele>136.3</ele>
        <time>2023-10-25T13:45:03Z</time>
      </trkpt>
      <trkpt lat="50.04169" lon="2.33534">
        <ele>136.3</ele>
        <time>2023-10-25T13:45:04Z</time>
      </trkpt>
      <trkpt lat="50.04168" lon="2.33534">
        <ele>136.3</ele>
        <time>2023-10-25T13:45:05Z</time>
      </trkpt>
      <trkpt lat="50.04167" lon="2.33533">
        <ele>136.4</ele>
        <time>2023-10-25T13:45:06Z</time>
      </trkpt>
      <trkpt lat="50.04166" lon="2.33533">
        <ele>136.4</ele>
        <time>2023-10-25T13:45:07Z</time>
      </trkpt>
      <trkpt lat="50.04165" lon="2.33533">
        <ele>136.4</ele>
        <time>2023-10-25T13:45:08Z</time>
      </trkpt>
      <trkpt lat="50.04164" lon="2.33532">
        <ele>136.4</ele>
        <time>2023-10-25T13:45:09Z</time>
      </trkpt>
      <trkpt lat="50.04163" lon="2.33532">
        <ele>136.4</ele>
        <time>2023-10-25T13:45:10Z</time>
      </trkpt>
      <trkpt lat="50.04162" lon="2.33532">
        <ele>136.4</ele>
        <time>2023-10-25T13:45:11Z</time>
      </trkpt>
      <trkpt lat="50.04161" lon="2.33531">
        <ele>136.4</ele>
        <time>2023-10-25T13:45:12Z</time>
      </trkpt>
      <trkpt lat="50.0416" lon="2.33531">
        <ele>136.5</ele>
        <time>2023-10-25T13:45:13Z</time>
      </trkpt>
      <trkpt lat="50.04159" lon="2.33531">
        <ele>136.5</ele>
        <time>2023-10-25T13:45:14Z</time>
      </trkpt>
      <trkpt lat="50.04158" lon="2.3353">
        <ele>136.5</ele>
        <time>2023-10-25T13:45:15Z</time>
      </trkpt>
      <trkpt lat="50.04157" lon="2.3353">
        <ele>136.5</ele>
        <time>2023-10-25T13:45:16Z</time>
      </trkpt>
      <trkpt lat="50.04156" lon="2.3353">
        <ele>136.5</ele>
        <time>2023-10-25T13:45:17Z</time>
      </trkpt>
      <trkpt lat="50.04155" lon="2.33529">
        <ele>136.5</ele>
        <time>2023-10-25T13:45:18Z</time>
      </trkpt>
      <trkpt lat="50.04153" lon="2.33529">
        <ele>136.6</ele>
        <time>2023-10-25T13:45:19Z</time>
      </trkpt>
      <trkpt lat="50.04152" lon="2.33529">
        <ele>136.6</ele>
        <time>2023-10-25T13:45:20Z</time>
      </trkpt>
      <trkpt lat="50.04152" lon="2.33529">
        <ele>136.6</ele>
        <time>2023-10-25T13:45:21Z</time>
      </trkpt>
      <trkpt lat="50.04151" lon="2.33528">
        <ele>136.6</ele>
        <time>2023-10-25T13:45:22Z</time>
      </trkpt>
      <trkpt lat="50.0415" lon="2.33528">
        <ele>136.6</ele>
        <time>2023-10-25T13:45:23Z</time>
      </trkpt>
      <trkpt lat="50.04149" lon="2.33528">
        <ele>136.6</ele>
        <time>2023-10-25T13:45:24Z</time>
      </trkpt>
      <trkpt lat="50.04148" lon="2.33527">
        <ele>136.7</ele>
        <time>2023-10-25T13:45:25Z</time>
      </trkpt>
      <trkpt lat="50.04147" lon="2.33527">
        <ele>136.7</ele>
        <time>2023-10-25T13:45:26Z</time>
      </trkpt>
      <trkpt lat="50.04146" lon="2.33526">
        <ele>136.7</ele>
        <time>2023-10-25T13:45:27Z</time>
      </trkpt>
      <trkpt lat="50.04145" lon="2.33526">
        <ele>136.7</ele>
        <time>2023-10-25T13:45:28Z</time>
      </trkpt>
      <trkpt lat="50.04144" lon="2.33525">
        <ele>136.7</ele>
        <time>2023-10-25T13:45:29Z</time>
      </trkpt>
      <trkpt lat="50.04143" lon="2.33525">
        <ele>136.7</ele>
        <time>2023-10-25T13:45:30Z</time>
      </trkpt>
      <trkpt lat="50.04142" lon="2.33525">
        <ele>136.7</ele>
        <time>2023-10-25T13:45:31Z</time>
      </trkpt>
      <trkpt lat="50.04141" lon="2.33524">
        <ele>136.7</ele>
        <time>2023-10-25T13:45:32Z</time>
      </trkpt>
      <trkpt lat="50.0414" lon="2.33524">
        <ele>136.7</ele>
        <time>2023-10-25T13:45:33Z</time>
      </trkpt>
      <trkpt lat="50.04139" lon="2.33523">
        <ele>136.8</ele>
        <time>2023-10-25T13:45:34Z</time>
      </trkpt>
      <trkpt lat="50.04138" lon="2.33523">
        <ele>136.8</ele>
        <time>2023-10-25T13:45:35Z</time>
      </trkpt>
      <trkpt lat="50.04137" lon="2.33522">
        <ele>136.8</ele>
        <time>2023-10-25T13:45:36Z</time>
      </trkpt>
      <trkpt lat="50.04136" lon="2.33522">
        <ele>136.8</ele>
        <time>2023-10-25T13:45:37Z</time>
      </trkpt>
      <trkpt lat="50.04135" lon="2.33521">
        <ele>136.8</ele>
        <time>2023-10-25T13:45:38Z</time>
      </trkpt>
      <trkpt lat="50.04134" lon="2.33521">
        <ele>136.8</ele>
        <time>2023-10-25T13:45:39Z</time>
      </trkpt>
      <trkpt lat="50.04133" lon="2.33521">
        <ele>136.8</ele>
        <time>2023-10-25T13:45:40Z</time>
      </trkpt>
      <trkpt lat="50.04132" lon="2.3352">
        <ele>136.8</ele>
        <time>2023-10-25T13:45:41Z</time>
      </trkpt>
      <trkpt lat="50.04131" lon="2.3352">
        <ele>136.8</ele>
        <time>2023-10-25T13:45:42Z</time>
      </trkpt>
      <trkpt lat="50.0413" lon="2.3352">
        <ele>136.9</ele>
        <time>2023-10-25T13:45:43Z</time>
      </trkpt>
      <trkpt lat="50.04129" lon="2.33519">
        <ele>136.9</ele>
        <time>2023-10-25T13:45:44Z</time>
      </trkpt>
      <trkpt lat="50.04128" lon="2.33519">
        <ele>136.9</ele>
        <time>2023-10-25T13:45:45Z</time>
      </trkpt>
      <trkpt lat="50.04127" lon="2.33518">
        <ele>136.9</ele>
        <time>2023-10-25T13:45:46Z</time>
      </trkpt>
      <trkpt lat="50.04126" lon="2.33518">
        <ele>136.9</ele>
        <time>2023-10-25T13:45:47Z</time>
      </trkpt>
      <trkpt lat="50.04125" lon="2.33517">
        <ele>136.9</ele>
        <time>2023-10-25T13:45:48Z</time>
      </trkpt>
      <trkpt lat="50.04125" lon="2.33517">
        <ele>136.9</ele>
        <time>2023-10-25T13:45:49Z</time>
      </trkpt>
      <trkpt lat="50.04124" lon="2.33517">
        <ele>136.9</ele>
        <time>2023-10-25T13:45:50Z</time>
      </trkpt>
      <trkpt lat="50.04123" lon="2.33517">
        <ele>136.9</ele>
        <time>2023-10-25T13:45:51Z</time>
      </trkpt>
      <trkpt lat="50.04122" lon="2.33516">
        <ele>137</ele>
        <time>2023-10-25T13:45:52Z</time>
      </trkpt>
      <trkpt lat="50.04121" lon="2.33516">
        <ele>137</ele>
        <time>2023-10-25T13:45:53Z</time>
      </trkpt>
      <trkpt lat="50.0412" lon="2.33516">
        <ele>137</ele>
        <time>2023-10-25T13:45:54Z</time>
      </trkpt>
      <trkpt lat="50.04119" lon="2.33515">
        <ele>137</ele>
        <time>2023-10-25T13:45:55Z</time>
      </trkpt>
      <trkpt lat="50.04118" lon="2.33515">
        <ele>137</ele>
        <time>2023-10-25T13:45:56Z</time>
      </trkpt>
      <trkpt lat="50.04117" lon="2.33515">
        <ele>137</ele>
        <time>2023-10-25T13:45:57Z</time>
      </trkpt>
      <trkpt lat="50.04117" lon="2.33514">
        <ele>137</ele>
        <time>2023-10-25T13:45:58Z</time>
      </trkpt>
      <trkpt lat="50.04116" lon="2.33514">
        <ele>137</ele>
        <time>2023-10-25T13:45:59Z</time>
      </trkpt>
      <trkpt lat="50.04115" lon="2.33513">
        <ele>137.1</ele>
        <time>2023-10-25T13:46:00Z</time>
      </trkpt>
      <trkpt lat="50.04114" lon="2.33513">
        <ele>137.1</ele>
        <time>2023-10-25T13:46:01Z</time>
      </trkpt>
      <trkpt lat="50.04113" lon="2.33513">
        <ele>137.1</ele>
        <time>2023-10-25T13:46:02Z</time>
      </trkpt>
      <trkpt lat="50.04112" lon="2.33513">
        <ele>137.1</ele>
        <time>2023-10-25T13:46:03Z</time>
      </trkpt>
      <trkpt lat="50.04111" lon="2.33512">
        <ele>137.1</ele>
        <time>2023-10-25T13:46:04Z</time>
      </trkpt>
      <trkpt lat="50.0411" lon="2.33512">
        <ele>137.1</ele>
        <time>2023-10-25T13:46:05Z</time>
      </trkpt>
      <trkpt lat="50.04109" lon="2.33512">
        <ele>137.1</ele>
        <time>2023-10-25T13:46:06Z</time>
      </trkpt>
      <trkpt lat="50.04108" lon="2.33511">
        <ele>137.2</ele>
        <time>2023-10-25T13:46:07Z</time>
      </trkpt>
      <trkpt lat="50.04107" lon="2.33511">
        <ele>137.2</ele>
        <time>2023-10-25T13:46:08Z</time>
      </trkpt>
      <trkpt lat="50.04106" lon="2.33511">
        <ele>137.2</ele>
        <time>2023-10-25T13:46:09Z</time>
      </trkpt>
      <trkpt lat="50.04105" lon="2.33511">
        <ele>137.2</ele>
        <time>2023-10-25T13:46:10Z</time>
      </trkpt>
      <trkpt lat="50.04104" lon="2.3351">
        <ele>137.2</ele>
        <time>2023-10-25T13:46:11Z</time>
      </trkpt>
      <trkpt lat="50.04104" lon="2.3351">
        <ele>137.2</ele>
        <time>2023-10-25T13:46:12Z</time>
      </trkpt>
      <trkpt lat="50.04103" lon="2.3351">
        <ele>137.2</ele>
        <time>2023-10-25T13:46:13Z</time>
      </trkpt>
      <trkpt lat="50.04102" lon="2.3351">
        <ele>137.2</ele>
        <time>2023-10-25T13:46:14Z</time>
      </trkpt>
      <trkpt lat="50.04101" lon="2.3351">
        <ele>137.2</ele>
        <time>2023-10-25T13:46:15Z</time>
      </trkpt>
      <trkpt lat="50.04101" lon="2.3351">
        <ele>137.3</ele>
        <time>2023-10-25T13:46:16Z</time>
      </trkpt>
      <trkpt lat="50.041" lon="2.33509">
        <ele>137.3</ele>
        <time>2023-10-25T13:46:17Z</time>
      </trkpt>
      <trkpt lat="50.041" lon="2.33509">
        <ele>137.3</ele>
        <time>2023-10-25T13:46:18Z</time>
      </trkpt>
      <trkpt lat="50.04099" lon="2.33509">
        <ele>137.3</ele>
        <time>2023-10-25T13:46:19Z</time>
      </trkpt>
      <trkpt lat="50.04099" lon="2.33509">
        <ele>137.3</ele>
        <time>2023-10-25T13:46:20Z</time>
      </trkpt>
      <trkpt lat="50.04098" lon="2.33509">
        <ele>137.3</ele>
        <time>2023-10-25T13:46:21Z</time>
      </trkpt>
      <trkpt lat="50.04097" lon="2.33508">
        <ele>137.3</ele>
        <time>2023-10-25T13:46:22Z</time>
      </trkpt>
      <trkpt lat="50.04096" lon="2.33508">
        <ele>137.3</ele>
        <time>2023-10-25T13:46:23Z</time>
      </trkpt>
      <trkpt lat="50.04096" lon="2.33508">
        <ele>137.3</ele>
        <time>2023-10-25T13:46:24Z</time>
      </trkpt>
      <trkpt lat="50.04095" lon="2.33508">
        <ele>137.3</ele>
        <time>2023-10-25T13:46:25Z</time>
      </trkpt>
      <trkpt lat="50.04094" lon="2.33508">
        <ele>137.3</ele>
        <time>2023-10-25T13:46:26Z</time>
      </trkpt>
      <trkpt lat="50.04094" lon="2.33507">
        <ele>137.3</ele>
        <time>2023-10-25T13:46:27Z</time>
      </trkpt>
      <trkpt lat="50.04093" lon="2.33507">
        <ele>137.4</ele>
        <time>2023-10-25T13:46:28Z</time>
      </trkpt>
      <trkpt lat="50.04092" lon="2.33507">
        <ele>137.4</ele>
        <time>2023-10-25T13:46:29Z</time>
      </trkpt>
      <trkpt lat="50.04092" lon="2.33507">
        <ele>137.4</ele>
        <time>2023-10-25T13:46:30Z</time>
      </trkpt>
      <trkpt lat="50.04091" lon="2.33507">
        <ele>137.4</ele>
        <time>2023-10-25T13:46:31Z</time>
      </trkpt>
      <trkpt lat="50.0409" lon="2.33507">
        <ele>137.4</ele>
        <time>2023-10-25T13:46:32Z</time>
      </trkpt>
      <trkpt lat="50.04089" lon="2.33506">
        <ele>137.4</ele>
        <time>2023-10-25T13:46:33Z</time>
      </trkpt>
      <trkpt lat="50.04088" lon="2.33506">
        <ele>137.4</ele>
        <time>2023-10-25T13:46:34Z</time>
      </trkpt>
      <trkpt lat="50.04087" lon="2.33506">
        <ele>137.4</ele>
        <time>2023-10-25T13:46:35Z</time>
      </trkpt>
      <trkpt lat="50.04085" lon="2.33505">
        <ele>137.4</ele>
        <time>2023-10-25T13:46:36Z</time>
      </trkpt>
      <trkpt lat="50.04084" lon="2.33505">
        <ele>137.4</ele>
        <time>2023-10-25T13:46:37Z</time>
      </trkpt>
      <trkpt lat="50.04083" lon="2.33504">
        <ele>137.5</ele>
        <time>2023-10-25T13:46:38Z</time>
      </trkpt>
      <trkpt lat="50.04081" lon="2.33504">
        <ele>137.5</ele>
        <time>2023-10-25T13:46:39Z</time>
      </trkpt>
      <trkpt lat="50.04079" lon="2.33503">
        <ele>137.5</ele>
        <time>2023-10-25T13:46:40Z</time>
      </trkpt>
      <trkpt lat="50.04078" lon="2.33503">
        <ele>137.5</ele>
        <time>2023-10-25T13:46:41Z</time>
      </trkpt>
      <trkpt lat="50.04077" lon="2.33503">
        <ele>137.5</ele>
        <time>2023-10-25T13:46:42Z</time>
      </trkpt>
      <trkpt lat="50.04075" lon="2.33502">
        <ele>137.5</ele>
        <time>2023-10-25T13:46:43Z</time>
      </trkpt>
      <trkpt lat="50.04075" lon="2.33502">
        <ele>137.5</ele>
        <time>2023-10-25T13:46:44Z</time>
      </trkpt>
      <trkpt lat="50.04074" lon="2.33501">
        <ele>137.6</ele>
        <time>2023-10-25T13:46:45Z</time>
      </trkpt>
      <trkpt lat="50.04073" lon="2.33501">
        <ele>137.6</ele>
        <time>2023-10-25T13:46:46Z</time>
      </trkpt>
      <trkpt lat="50.04072" lon="2.335">
        <ele>137.6</ele>
        <time>2023-10-25T13:46:47Z</time>
      </trkpt>
      <trkpt lat="50.04071" lon="2.335">
        <ele>137.6</ele>
        <time>2023-10-25T13:46:48Z</time>
      </trkpt>
      <trkpt lat="50.0407" lon="2.33499">
        <ele>137.6</ele>
        <time>2023-10-25T13:46:49Z</time>
      </trkpt>
      <trkpt lat="50.04069" lon="2.33499">
        <ele>137.6</ele>
        <time>2023-10-25T13:46:50Z</time>
      </trkpt>
      <trkpt lat="50.04068" lon="2.33498">
        <ele>137.6</ele>
        <time>2023-10-25T13:46:51Z</time>
      </trkpt>
      <trkpt lat="50.04067" lon="2.33498">
        <ele>137.7</ele>
        <time>2023-10-25T13:46:52Z</time>
      </trkpt>
      <trkpt lat="50.04067" lon="2.33498">
        <ele>137.7</ele>
        <time>2023-10-25T13:46:53Z</time>
      </trkpt>
      <trkpt lat="50.04066" lon="2.33498">
        <ele>137.7</ele>
        <time>2023-10-25T13:46:54Z</time>
      </trkpt>
      <trkpt lat="50.04065" lon="2.33498">
        <ele>137.7</ele>
        <time>2023-10-25T13:46:55Z</time>
      </trkpt>
      <trkpt lat="50.04065" lon="2.33498">
        <ele>137.7</ele>
        <time>2023-10-25T13:46:56Z</time>
      </trkpt>
      <trkpt lat="50.04063" lon="2.33498">
        <ele>137.7</ele>
        <time>2023-10-25T13:46:57Z</time>
      </trkpt>
      <trkpt lat="50.04063" lon="2.33498">
        <ele>137.7</ele>
        <time>2023-10-25T13:46:58Z</time>
      </trkpt>
      <trkpt lat="50.04062" lon="2.33497">
        <ele>137.8</ele>
        <time>2023-10-25T13:46:59Z</time>
      </trkpt>
      <trkpt lat="50.04061" lon="2.33497">
        <ele>137.8</ele>
        <time>2023-10-25T13:47:00Z</time>
      </trkpt>
      <trkpt lat="50.04059" lon="2.33497">
        <ele>137.8</ele>
        <time>2023-10-25T13:47:01Z</time>
      </trkpt>
      <trkpt lat="50.04058" lon="2.33497">
        <ele>137.8</ele>
        <time>2023-10-25T13:47:02Z</time>
      </trkpt>
      <trkpt lat="50.04057" lon="2.33496">
        <ele>137.8</ele>
        <time>2023-10-25T13:47:03Z</time>
      </trkpt>
      <trkpt lat="50.04056" lon="2.33496">
        <ele>137.9</ele>
        <time>2023-10-25T13:47:04Z</time>
      </trkpt>
      <trkpt lat="50.04055" lon="2.33496">
        <ele>137.9</ele>
        <time>2023-10-25T13:47:05Z</time>
      </trkpt>
      <trkpt lat="50.04053" lon="2.33496">
        <ele>137.9</ele>
        <time>2023-10-25T13:47:06Z</time>
      </trkpt>
      <trkpt lat="50.04052" lon="2.33495">
        <ele>137.9</ele>
        <time>2023-10-25T13:47:07Z</time>
      </trkpt>
      <trkpt lat="50.0405" lon="2.33495">
        <ele>138</ele>
        <time>2023-10-25T13:47:08Z</time>
      </trkpt>
      <trkpt lat="50.04048" lon="2.33495">
        <ele>138</ele>
        <time>2023-10-25T13:47:09Z</time>
      </trkpt>
      <trkpt lat="50.04047" lon="2.33495">
        <ele>138</ele>
        <time>2023-10-25T13:47:10Z</time>
      </trkpt>
      <trkpt lat="50.04046" lon="2.33496">
        <ele>138</ele>
        <time>2023-10-25T13:47:11Z</time>
      </trkpt>
      <trkpt lat="50.04044" lon="2.33496">
        <ele>138</ele>
        <time>2023-10-25T13:47:12Z</time>
      </trkpt>
      <trkpt lat="50.04043" lon="2.33497">
        <ele>138.1</ele>
        <time>2023-10-25T13:47:13Z</time>
      </trkpt>
      <trkpt lat="50.04042" lon="2.33497">
        <ele>138.1</ele>
        <time>2023-10-25T13:47:14Z</time>
      </trkpt>
      <trkpt lat="50.04041" lon="2.33498">
        <ele>138.1</ele>
        <time>2023-10-25T13:47:15Z</time>
      </trkpt>
      <trkpt lat="50.0404" lon="2.33499">
        <ele>138.1</ele>
        <time>2023-10-25T13:47:16Z</time>
      </trkpt>
      <trkpt lat="50.04039" lon="2.33499">
        <ele>138.1</ele>
        <time>2023-10-25T13:47:17Z</time>
      </trkpt>
      <trkpt lat="50.04038" lon="2.335">
        <ele>138.1</ele>
        <time>2023-10-25T13:47:18Z</time>
      </trkpt>
      <trkpt lat="50.04037" lon="2.33501">
        <ele>138.1</ele>
        <time>2023-10-25T13:47:19Z</time>
      </trkpt>
      <trkpt lat="50.04037" lon="2.33502">
        <ele>138.2</ele>
        <time>2023-10-25T13:47:20Z</time>
      </trkpt>
      <trkpt lat="50.04036" lon="2.33502">
        <ele>138.2</ele>
        <time>2023-10-25T13:47:21Z</time>
      </trkpt>
      <trkpt lat="50.04035" lon="2.33503">
        <ele>138.2</ele>
        <time>2023-10-25T13:47:22Z</time>
      </trkpt>
      <trkpt lat="50.04034" lon="2.33505">
        <ele>138.2</ele>
        <time>2023-10-25T13:47:23Z</time>
      </trkpt>
      <trkpt lat="50.04034" lon="2.33506">
        <ele>138.2</ele>
        <time>2023-10-25T13:47:24Z</time>
      </trkpt>
      <trkpt lat="50.04033" lon="2.33507">
        <ele>138.3</ele>
        <time>2023-10-25T13:47:25Z</time>
      </trkpt>
      <trkpt lat="50.04032" lon="2.33508">
        <ele>138.3</ele>
        <time>2023-10-25T13:47:26Z</time>
      </trkpt>
      <trkpt lat="50.04032" lon="2.33509">
        <ele>138.3</ele>
        <time>2023-10-25T13:47:27Z</time>
      </trkpt>
      <trkpt lat="50.04031" lon="2.3351">
        <ele>138.3</ele>
        <time>2023-10-25T13:47:28Z</time>
      </trkpt>
      <trkpt lat="50.04031" lon="2.3351">
        <ele>138.3</ele>
        <time>2023-10-25T13:47:29Z</time>
      </trkpt>
      <trkpt lat="50.04031" lon="2.3351">
        <ele>138.3</ele>
        <time>2023-10-25T13:47:30Z</time>
      </trkpt>
      <trkpt lat="50.04031" lon="2.3351">
        <ele>138.3</ele>
        <time>2023-10-25T13:47:31Z</time>
      </trkpt>
      <trkpt lat="50.04031" lon="2.3351">
        <ele>138.3</ele>
        <time>2023-10-25T13:47:32Z</time>
      </trkpt>
      <trkpt lat="50.04031" lon="2.3351">
        <ele>138.3</ele>
        <time>2023-10-25T13:47:33Z</time>
      </trkpt>
      <trkpt lat="50.04031" lon="2.3351">
        <ele>138.3</ele>
        <time>2023-10-25T13:47:34Z</time>
      </trkpt>
      <trkpt lat="50.04031" lon="2.33511">
        <ele>138.3</ele>
        <time>2023-10-25T13:47:35Z</time>
      </trkpt>
      <trkpt lat="50.04031" lon="2.33513">
        <ele>138.3</ele>
        <time>2023-10-25T13:47:36Z</time>
      </trkpt>
      <trkpt lat="50.04031" lon="2.33514">
        <ele>138.4</ele>
        <time>2023-10-25T13:47:37Z</time>
      </trkpt>
      <trkpt lat="50.04031" lon="2.33515">
        <ele>138.4</ele>
        <time>2023-10-25T13:47:38Z</time>
      </trkpt>
      <trkpt lat="50.04031" lon="2.33517">
        <ele>138.4</ele>
        <time>2023-10-25T13:47:39Z</time>
      </trkpt>
      <trkpt lat="50.0403" lon="2.33518">
        <ele>138.4</ele>
        <time>2023-10-25T13:47:40Z</time>
      </trkpt>
      <trkpt lat="50.0403" lon="2.33519">
        <ele>138.4</ele>
        <time>2023-10-25T13:47:41Z</time>
      </trkpt>
      <trkpt lat="50.04029" lon="2.3352">
        <ele>138.4</ele>
        <time>2023-10-25T13:47:42Z</time>
      </trkpt>
      <trkpt lat="50.04028" lon="2.33521">
        <ele>138.4</ele>
        <time>2023-10-25T13:47:43Z</time>
      </trkpt>
      <trkpt lat="50.04028" lon="2.33521">
        <ele>138.5</ele>
        <time>2023-10-25T13:47:44Z</time>
      </trkpt>
      <trkpt lat="50.04027" lon="2.33521">
        <ele>138.5</ele>
        <time>2023-10-25T13:47:45Z</time>
      </trkpt>
      <trkpt lat="50.04026" lon="2.33521">
        <ele>138.5</ele>
        <time>2023-10-25T13:47:46Z</time>
      </trkpt>
      <trkpt lat="50.04025" lon="2.3352">
        <ele>138.5</ele>
        <time>2023-10-25T13:47:47Z</time>
      </trkpt>
      <trkpt lat="50.04025" lon="2.3352">
        <ele>138.5</ele>
        <time>2023-10-25T13:47:48Z</time>
      </trkpt>
      <trkpt lat="50.04024" lon="2.33518">
        <ele>138.5</ele>
        <time>2023-10-25T13:47:49Z</time>
      </trkpt>
      <trkpt lat="50.04024" lon="2.33517">
        <ele>138.5</ele>
        <time>2023-10-25T13:47:50Z</time>
      </trkpt>
      <trkpt lat="50.04024" lon="2.33515">
        <ele>138.6</ele>
        <time>2023-10-25T13:47:51Z</time>
      </trkpt>
      <trkpt lat="50.04024" lon="2.33514">
        <ele>138.6</ele>
        <time>2023-10-25T13:47:52Z</time>
      </trkpt>
      <trkpt lat="50.04025" lon="2.33513">
        <ele>138.6</ele>
        <time>2023-10-25T13:47:53Z</time>
      </trkpt>
      <trkpt lat="50.04025" lon="2.33512">
        <ele>138.6</ele>
        <time>2023-10-25T13:47:54Z</time>
      </trkpt>
      <trkpt lat="50.04026" lon="2.33511">
        <ele>138.6</ele>
        <time>2023-10-25T13:47:55Z</time>
      </trkpt>
      <trkpt lat="50.04027" lon="2.33511">
        <ele>138.6</ele>
        <time>2023-10-25T13:47:56Z</time>
      </trkpt>
      <trkpt lat="50.04027" lon="2.33511">
        <ele>138.6</ele>
        <time>2023-10-25T13:47:57Z</time>
      </trkpt>
      <trkpt lat="50.04027" lon="2.33511">
        <ele>138.6</ele>
        <time>2023-10-25T13:47:58Z</time>
      </trkpt>
      <trkpt lat="50.04028" lon="2.33511">
        <ele>138.6</ele>
        <time>2023-10-25T13:47:59Z</time>
      </trkpt>
      <trkpt lat="50.04028" lon="2.33511">
        <ele>138.7</ele>
        <time>2023-10-25T13:48:00Z</time>
      </trkpt>
      <trkpt lat="50.04028" lon="2.33512">
        <ele>138.7</ele>
        <time>2023-10-25T13:48:01Z</time>
      </trkpt>
      <trkpt lat="50.0403" lon="2.33517">
        <ele>138.7</ele>
        <time>2023-10-25T13:49:26Z</time>
      </trkpt>
      <trkpt lat="50.04031" lon="2.33517">
        <ele>138.7</ele>
        <time>2023-10-25T13:49:27Z</time>
      </trkpt>
      <trkpt lat="50.04031" lon="2.33516">
        <ele>138.7</ele>
        <time>2023-10-25T13:49:28Z</time>
      </trkpt>
      <trkpt lat="50.04031" lon="2.33516">
        <ele>138.8</ele>
        <time>2023-10-25T13:49:29Z</time>
      </trkpt>
      <trkpt lat="50.04031" lon="2.33515">
        <ele>138.8</ele>
        <time>2023-10-25T13:49:30Z</time>
      </trkpt>
      <trkpt lat="50.04031" lon="2.33515">
        <ele>138.8</ele>
        <time>2023-10-25T13:49:31Z</time>
      </trkpt>
      <trkpt lat="50.04031" lon="2.33515">
        <ele>138.8</ele>
        <time>2023-10-25T13:49:32Z</time>
      </trkpt>
      <trkpt lat="50.04031" lon="2.33515">
        <ele>138.8</ele>
        <time>2023-10-25T13:49:33Z</time>
      </trkpt>
      <trkpt lat="50.04031" lon="2.33515">
        <ele>138.8</ele>
        <time>2023-10-25T13:49:34Z</time>
      </trkpt>
      <trkpt lat="50.04032" lon="2.33515">
        <ele>138.8</ele>
        <time>2023-10-25T13:49:35Z</time>
      </trkpt>
      <trkpt lat="50.04032" lon="2.33515">
        <ele>138.8</ele>
        <time>2023-10-25T13:49:36Z</time>
      </trkpt>
      <trkpt lat="50.04032" lon="2.33514">
        <ele>138.8</ele>
        <time>2023-10-25T13:49:37Z</time>
      </trkpt>
      <trkpt lat="50.04032" lon="2.33514">
        <ele>138.8</ele>
        <time>2023-10-25T13:49:38Z</time>
      </trkpt>
      <trkpt lat="50.04032" lon="2.33514">
        <ele>138.8</ele>
        <time>2023-10-25T13:49:39Z</time>
      </trkpt>
      <trkpt lat="50.04032" lon="2.33514">
        <ele>138.8</ele>
        <time>2023-10-25T13:49:40Z</time>
      </trkpt>
      <trkpt lat="50.04032" lon="2.33514">
        <ele>138.8</ele>
        <time>2023-10-25T13:49:41Z</time>
      </trkpt>
      <trkpt lat="50.04032" lon="2.33513">
        <ele>138.8</ele>
        <time>2023-10-25T13:49:42Z</time>
      </trkpt>
      <trkpt lat="50.04032" lon="2.33513">
        <ele>138.8</ele>
        <time>2023-10-25T13:49:43Z</time>
      </trkpt>
      <trkpt lat="50.04032" lon="2.33512">
        <ele>138.8</ele>
        <time>2023-10-25T13:49:44Z</time>
      </trkpt>
      <trkpt lat="50.04031" lon="2.33512">
        <ele>138.8</ele>
        <time>2023-10-25T13:49:45Z</time>
      </trkpt>
      <trkpt lat="50.04031" lon="2.33511">
        <ele>138.8</ele>
        <time>2023-10-25T13:49:46Z</time>
      </trkpt>
      <trkpt lat="50.0403" lon="2.3351">
        <ele>138.8</ele>
        <time>2023-10-25T13:49:47Z</time>
      </trkpt>
      <trkpt lat="50.0403" lon="2.33509">
        <ele>138.9</ele>
        <time>2023-10-25T13:49:48Z</time>
      </trkpt>
      <trkpt lat="50.0403" lon="2.33508">
        <ele>138.9</ele>
        <time>2023-10-25T13:49:49Z</time>
      </trkpt>
      <trkpt lat="50.04029" lon="2.33508">
        <ele>138.9</ele>
        <time>2023-10-25T13:49:50Z</time>
      </trkpt>
      <trkpt lat="50.04029" lon="2.33507">
        <ele>138.9</ele>
        <time>2023-10-25T13:49:51Z</time>
      </trkpt>
      <trkpt lat="50.04028" lon="2.33505">
        <ele>138.9</ele>
        <time>2023-10-25T13:49:52Z</time>
      </trkpt>
      <trkpt lat="50.04027" lon="2.33503">
        <ele>138.9</ele>
        <time>2023-10-25T13:49:53Z</time>
      </trkpt>
      <trkpt lat="50.04026" lon="2.33502">
        <ele>138.9</ele>
        <time>2023-10-25T13:49:54Z</time>
      </trkpt>
      <trkpt lat="50.04026" lon="2.33501">
        <ele>139</ele>
        <time>2023-10-25T13:49:55Z</time>
      </trkpt>
      <trkpt lat="50.04025" lon="2.335">
        <ele>139</ele>
        <time>2023-10-25T13:49:56Z</time>
      </trkpt>
      <trkpt lat="50.04025" lon="2.335">
        <ele>139</ele>
        <time>2023-10-25T13:49:57Z</time>
      </trkpt>
      <trkpt lat="50.04024" lon="2.33499">
        <ele>139</ele>
        <time>2023-10-25T13:49:58Z</time>
      </trkpt>
      <trkpt lat="50.04024" lon="2.33499">
        <ele>139</ele>
        <time>2023-10-25T13:49:59Z</time>
      </trkpt>
      <trkpt lat="50.04023" lon="2.33498">
        <ele>139</ele>
        <time>2023-10-25T13:50:00Z</time>
      </trkpt>
      <trkpt lat="50.04023" lon="2.33498">
        <ele>139</ele>
        <time>2023-10-25T13:50:01Z</time>
      </trkpt>
      <trkpt lat="50.04022" lon="2.33498">
        <ele>139</ele>
        <time>2023-10-25T13:50:02Z</time>
      </trkpt>
      <trkpt lat="50.04021" lon="2.33497">
        <ele>139.1</ele>
        <time>2023-10-25T13:50:03Z</time>
      </trkpt>
      <trkpt lat="50.04021" lon="2.33497">
        <ele>139.1</ele>
        <time>2023-10-25T13:50:04Z</time>
      </trkpt>
      <trkpt lat="50.0402" lon="2.33496">
        <ele>139.1</ele>
        <time>2023-10-25T13:50:05Z</time>
      </trkpt>
      <trkpt lat="50.04019" lon="2.33496">
        <ele>139.1</ele>
        <time>2023-10-25T13:50:06Z</time>
      </trkpt>
      <trkpt lat="50.04019" lon="2.33496">
        <ele>139.1</ele>
        <time>2023-10-25T13:50:07Z</time>
      </trkpt>
      <trkpt lat="50.04019" lon="2.33495">
        <ele>139.1</ele>
        <time>2023-10-25T13:50:08Z</time>
      </trkpt>
      <trkpt lat="50.04019" lon="2.33495">
        <ele>139.1</ele>
        <time>2023-10-25T13:50:09Z</time>
      </trkpt>
      <trkpt lat="50.04018" lon="2.33495">
        <ele>139.1</ele>
        <time>2023-10-25T13:50:10Z</time>
      </trkpt>
      <trkpt lat="50.04018" lon="2.33494">
        <ele>139.1</ele>
        <time>2023-10-25T13:50:11Z</time>
      </trkpt>
      <trkpt lat="50.04016" lon="2.33492">
        <ele>139.2</ele>
        <time>2023-10-25T13:50:12Z</time>
      </trkpt>
      <trkpt lat="50.04015" lon="2.33491">
        <ele>139.2</ele>
        <time>2023-10-25T13:50:13Z</time>
      </trkpt>
      <trkpt lat="50.04014" lon="2.33491">
        <ele>139.2</ele>
        <time>2023-10-25T13:50:14Z</time>
      </trkpt>
      <trkpt lat="50.04013" lon="2.3349">
        <ele>139.2</ele>
        <time>2023-10-25T13:50:15Z</time>
      </trkpt>
      <trkpt lat="50.04012" lon="2.33489">
        <ele>139.3</ele>
        <time>2023-10-25T13:50:16Z</time>
      </trkpt>
      <trkpt lat="50.0401" lon="2.33488">
        <ele>139.3</ele>
        <time>2023-10-25T13:50:17Z</time>
      </trkpt>
      <trkpt lat="50.04009" lon="2.33487">
        <ele>139.3</ele>
        <time>2023-10-25T13:50:18Z</time>
      </trkpt>
      <trkpt lat="50.04008" lon="2.33487">
        <ele>139.3</ele>
        <time>2023-10-25T13:50:19Z</time>
      </trkpt>
      <trkpt lat="50.04008" lon="2.33486">
        <ele>139.4</ele>
        <time>2023-10-25T13:50:20Z</time>
      </trkpt>
      <trkpt lat="50.04007" lon="2.33486">
        <ele>139.4</ele>
        <time>2023-10-25T13:50:21Z</time>
      </trkpt>
      <trkpt lat="50.04006" lon="2.33485">
        <ele>139.4</ele>
        <time>2023-10-25T13:50:22Z</time>
      </trkpt>
      <trkpt lat="50.04004" lon="2.33484">
        <ele>139.4</ele>
        <time>2023-10-25T13:50:23Z</time>
      </trkpt>
      <trkpt lat="50.04003" lon="2.33484">
        <ele>139.4</ele>
        <time>2023-10-25T13:50:24Z</time>
      </trkpt>
      <trkpt lat="50.04002" lon="2.33484">
        <ele>139.5</ele>
        <time>2023-10-25T13:50:25Z</time>
      </trkpt>
      <trkpt lat="50.04001" lon="2.33483">
        <ele>139.5</ele>
        <time>2023-10-25T13:50:26Z</time>
      </trkpt>
      <trkpt lat="50.04001" lon="2.33483">
        <ele>139.5</ele>
        <time>2023-10-25T13:50:27Z</time>
      </trkpt>
      <trkpt lat="50.04" lon="2.33483">
        <ele>139.5</ele>
        <time>2023-10-25T13:50:28Z</time>
      </trkpt>
      <trkpt lat="50.03999" lon="2.33482">
        <ele>139.5</ele>
        <time>2023-10-25T13:50:29Z</time>
      </trkpt>
      <trkpt lat="50.03998" lon="2.33482">
        <ele>139.6</ele>
        <time>2023-10-25T13:50:30Z</time>
      </trkpt>
      <trkpt lat="50.03997" lon="2.33482">
        <ele>139.6</ele>
        <time>2023-10-25T13:50:31Z</time>
      </trkpt>
      <trkpt lat="50.03996" lon="2.33481">
        <ele>139.6</ele>
        <time>2023-10-25T13:50:32Z</time>
      </trkpt>
      <trkpt lat="50.03995" lon="2.33481">
        <ele>139.6</ele>
        <time>2023-10-25T13:50:33Z</time>
      </trkpt>
      <trkpt lat="50.03994" lon="2.33481">
        <ele>139.7</ele>
        <time>2023-10-25T13:50:34Z</time>
      </trkpt>
      <trkpt lat="50.03993" lon="2.3348">
        <ele>139.7</ele>
        <time>2023-10-25T13:50:35Z</time>
      </trkpt>
      <trkpt lat="50.03991" lon="2.33479">
        <ele>139.7</ele>
        <time>2023-10-25T13:50:36Z</time>
      </trkpt>
      <trkpt lat="50.0399" lon="2.33479">
        <ele>139.7</ele>
        <time>2023-10-25T13:50:37Z</time>
      </trkpt>
      <trkpt lat="50.03989" lon="2.33479">
        <ele>139.8</ele>
        <time>2023-10-25T13:50:38Z</time>
      </trkpt>
      <trkpt lat="50.03985" lon="2.33478">
        <ele>139.9</ele>
        <time>2023-10-25T13:50:39Z</time>
      </trkpt>
      <trkpt lat="50.03984" lon="2.33477">
        <ele>139.9</ele>
        <time>2023-10-25T13:50:40Z</time>
      </trkpt>
      <trkpt lat="50.03981" lon="2.33476">
        <ele>140</ele>
        <time>2023-10-25T13:50:41Z</time>
      </trkpt>
      <trkpt lat="50.0398" lon="2.33476">
        <ele>140</ele>
        <time>2023-10-25T13:50:42Z</time>
      </trkpt>
      <trkpt lat="50.03979" lon="2.33475">
        <ele>140.1</ele>
        <time>2023-10-25T13:50:43Z</time>
      </trkpt>
      <trkpt lat="50.03977" lon="2.33475">
        <ele>140.1</ele>
        <time>2023-10-25T13:50:44Z</time>
      </trkpt>
      <trkpt lat="50.03976" lon="2.33475">
        <ele>140.2</ele>
        <time>2023-10-25T13:50:45Z</time>
      </trkpt>
      <trkpt lat="50.03974" lon="2.33474">
        <ele>140.2</ele>
        <time>2023-10-25T13:50:46Z</time>
      </trkpt>
      <trkpt lat="50.03973" lon="2.33474">
        <ele>140.3</ele>
        <time>2023-10-25T13:50:47Z</time>
      </trkpt>
      <trkpt lat="50.03971" lon="2.33474">
        <ele>140.3</ele>
        <time>2023-10-25T13:50:48Z</time>
      </trkpt>
      <trkpt lat="50.0397" lon="2.33474">
        <ele>140.4</ele>
        <time>2023-10-25T13:50:49Z</time>
      </trkpt>
      <trkpt lat="50.03969" lon="2.33474">
        <ele>140.4</ele>
        <time>2023-10-25T13:50:50Z</time>
      </trkpt>
      <trkpt lat="50.03968" lon="2.33473">
        <ele>140.4</ele>
        <time>2023-10-25T13:50:51Z</time>
      </trkpt>
      <trkpt lat="50.03967" lon="2.33473">
        <ele>140.5</ele>
        <time>2023-10-25T13:50:52Z</time>
      </trkpt>
      <trkpt lat="50.03966" lon="2.33473">
        <ele>140.5</ele>
        <time>2023-10-25T13:50:53Z</time>
      </trkpt>
      <trkpt lat="50.03965" lon="2.33473">
        <ele>140.5</ele>
        <time>2023-10-25T13:50:54Z</time>
      </trkpt>
      <trkpt lat="50.03964" lon="2.33473">
        <ele>140.6</ele>
        <time>2023-10-25T13:50:55Z</time>
      </trkpt>
      <trkpt lat="50.03963" lon="2.33473">
        <ele>140.6</ele>
        <time>2023-10-25T13:50:56Z</time>
      </trkpt>
      <trkpt lat="50.03961" lon="2.33472">
        <ele>140.7</ele>
        <time>2023-10-25T13:50:57Z</time>
      </trkpt>
      <trkpt lat="50.0396" lon="2.33472">
        <ele>140.7</ele>
        <time>2023-10-25T13:50:58Z</time>
      </trkpt>
      <trkpt lat="50.03959" lon="2.33472">
        <ele>140.7</ele>
        <time>2023-10-25T13:50:59Z</time>
      </trkpt>
      <trkpt lat="50.03958" lon="2.33472">
        <ele>140.8</ele>
        <time>2023-10-25T13:51:00Z</time>
      </trkpt>
      <trkpt lat="50.03956" lon="2.33472">
        <ele>140.8</ele>
        <time>2023-10-25T13:51:01Z</time>
      </trkpt>
      <trkpt lat="50.03955" lon="2.33471">
        <ele>140.9</ele>
        <time>2023-10-25T13:51:02Z</time>
      </trkpt>
      <trkpt lat="50.03955" lon="2.33471">
        <ele>140.9</ele>
        <time>2023-10-25T13:51:03Z</time>
      </trkpt>
      <trkpt lat="50.03953" lon="2.33471">
        <ele>140.9</ele>
        <time>2023-10-25T13:51:04Z</time>
      </trkpt>
      <trkpt lat="50.03952" lon="2.33471">
        <ele>141</ele>
        <time>2023-10-25T13:51:05Z</time>
      </trkpt>
      <trkpt lat="50.03951" lon="2.3347">
        <ele>141</ele>
        <time>2023-10-25T13:51:06Z</time>
      </trkpt>
      <trkpt lat="50.0395" lon="2.3347">
        <ele>141</ele>
        <time>2023-10-25T13:51:07Z</time>
      </trkpt>
      <trkpt lat="50.03949" lon="2.3347">
        <ele>141</ele>
        <time>2023-10-25T13:51:08Z</time>
      </trkpt>
      <trkpt lat="50.03948" lon="2.3347">
        <ele>141</ele>
        <time>2023-10-25T13:51:09Z</time>
      </trkpt>
      <trkpt lat="50.03947" lon="2.3347">
        <ele>141</ele>
        <time>2023-10-25T13:51:10Z</time>
      </trkpt>
      <trkpt lat="50.03946" lon="2.33469">
        <ele>141</ele>
        <time>2023-10-25T13:51:11Z</time>
      </trkpt>
      <trkpt lat="50.03945" lon="2.33469">
        <ele>141</ele>
        <time>2023-10-25T13:51:12Z</time>
      </trkpt>
      <trkpt lat="50.03944" lon="2.33469">
        <ele>141</ele>
        <time>2023-10-25T13:51:13Z</time>
      </trkpt>
      <trkpt lat="50.03943" lon="2.33469">
        <ele>141</ele>
        <time>2023-10-25T13:51:14Z</time>
      </trkpt>
      <trkpt lat="50.03942" lon="2.33469">
        <ele>141.1</ele>
        <time>2023-10-25T13:51:15Z</time>
      </trkpt>
      <trkpt lat="50.03941" lon="2.33469">
        <ele>141.1</ele>
        <time>2023-10-25T13:51:16Z</time>
      </trkpt>
      <trkpt lat="50.0394" lon="2.33469">
        <ele>141.1</ele>
        <time>2023-10-25T13:51:17Z</time>
      </trkpt>
      <trkpt lat="50.03939" lon="2.33469">
        <ele>141.1</ele>
        <time>2023-10-25T13:51:18Z</time>
      </trkpt>
      <trkpt lat="50.03938" lon="2.33469">
        <ele>141.1</ele>
        <time>2023-10-25T13:51:19Z</time>
      </trkpt>
      <trkpt lat="50.03937" lon="2.33469">
        <ele>141.1</ele>
        <time>2023-10-25T13:51:20Z</time>
      </trkpt>
      <trkpt lat="50.03936" lon="2.33469">
        <ele>141.1</ele>
        <time>2023-10-25T13:51:21Z</time>
      </trkpt>
      <trkpt lat="50.03935" lon="2.33469">
        <ele>141.1</ele>
        <time>2023-10-25T13:51:22Z</time>
      </trkpt>
      <trkpt lat="50.03934" lon="2.33468">
        <ele>141.1</ele>
        <time>2023-10-25T13:51:23Z</time>
      </trkpt>
      <trkpt lat="50.03933" lon="2.33468">
        <ele>141.2</ele>
        <time>2023-10-25T13:51:24Z</time>
      </trkpt>
      <trkpt lat="50.03932" lon="2.33468">
        <ele>141.2</ele>
        <time>2023-10-25T13:51:25Z</time>
      </trkpt>
      <trkpt lat="50.03931" lon="2.33468">
        <ele>141.2</ele>
        <time>2023-10-25T13:51:26Z</time>
      </trkpt>
      <trkpt lat="50.0393" lon="2.33467">
        <ele>141.2</ele>
        <time>2023-10-25T13:51:27Z</time>
      </trkpt>
      <trkpt lat="50.03929" lon="2.33467">
        <ele>141.2</ele>
        <time>2023-10-25T13:51:28Z</time>
      </trkpt>
      <trkpt lat="50.03928" lon="2.33467">
        <ele>141.2</ele>
        <time>2023-10-25T13:51:29Z</time>
      </trkpt>
      <trkpt lat="50.03927" lon="2.33467">
        <ele>141.2</ele>
        <time>2023-10-25T13:51:30Z</time>
      </trkpt>
      <trkpt lat="50.03926" lon="2.33467">
        <ele>141.2</ele>
        <time>2023-10-25T13:51:31Z</time>
      </trkpt>
      <trkpt lat="50.03926" lon="2.33467">
        <ele>141.3</ele>
        <time>2023-10-25T13:51:32Z</time>
      </trkpt>
      <trkpt lat="50.03925" lon="2.33467">
        <ele>141.3</ele>
        <time>2023-10-25T13:51:33Z</time>
      </trkpt>
      <trkpt lat="50.03924" lon="2.33466">
        <ele>141.3</ele>
        <time>2023-10-25T13:51:34Z</time>
      </trkpt>
      <trkpt lat="50.03923" lon="2.33466">
        <ele>141.3</ele>
        <time>2023-10-25T13:51:35Z</time>
      </trkpt>
      <trkpt lat="50.03923" lon="2.33465">
        <ele>141.3</ele>
        <time>2023-10-25T13:51:36Z</time>
      </trkpt>
      <trkpt lat="50.03922" lon="2.33465">
        <ele>141.3</ele>
        <time>2023-10-25T13:51:37Z</time>
      </trkpt>
      <trkpt lat="50.03921" lon="2.33464">
        <ele>141.3</ele>
        <time>2023-10-25T13:51:38Z</time>
      </trkpt>
      <trkpt lat="50.0392" lon="2.33464">
        <ele>141.3</ele>
        <time>2023-10-25T13:51:39Z</time>
      </trkpt>
      <trkpt lat="50.03919" lon="2.33463">
        <ele>141.4</ele>
        <time>2023-10-25T13:51:40Z</time>
      </trkpt>
      <trkpt lat="50.03918" lon="2.33463">
        <ele>141.4</ele>
        <time>2023-10-25T13:51:41Z</time>
      </trkpt>
      <trkpt lat="50.03917" lon="2.33462">
        <ele>141.4</ele>
        <time>2023-10-25T13:51:42Z</time>
      </trkpt>
      <trkpt lat="50.03916" lon="2.33462">
        <ele>141.4</ele>
        <time>2023-10-25T13:51:43Z</time>
      </trkpt>
      <trkpt lat="50.03915" lon="2.33462">
        <ele>141.4</ele>
        <time>2023-10-25T13:51:44Z</time>
      </trkpt>
      <trkpt lat="50.03915" lon="2.33462">
        <ele>141.4</ele>
        <time>2023-10-25T13:51:45Z</time>
      </trkpt>
      <trkpt lat="50.03914" lon="2.33461">
        <ele>141.4</ele>
        <time>2023-10-25T13:51:46Z</time>
      </trkpt>
      <trkpt lat="50.03913" lon="2.33461">
        <ele>141.5</ele>
        <time>2023-10-25T13:51:47Z</time>
      </trkpt>
      <trkpt lat="50.03912" lon="2.3346">
        <ele>141.5</ele>
        <time>2023-10-25T13:51:48Z</time>
      </trkpt>
      <trkpt lat="50.03911" lon="2.3346">
        <ele>141.5</ele>
        <time>2023-10-25T13:51:49Z</time>
      </trkpt>
      <trkpt lat="50.0391" lon="2.3346">
        <ele>141.5</ele>
        <time>2023-10-25T13:51:50Z</time>
      </trkpt>
      <trkpt lat="50.03908" lon="2.33459">
        <ele>141.5</ele>
        <time>2023-10-25T13:51:51Z</time>
      </trkpt>
      <trkpt lat="50.03907" lon="2.33459">
        <ele>141.5</ele>
        <time>2023-10-25T13:51:52Z</time>
      </trkpt>
      <trkpt lat="50.03906" lon="2.33459">
        <ele>141.6</ele>
        <time>2023-10-25T13:51:53Z</time>
      </trkpt>
      <trkpt lat="50.03905" lon="2.33459">
        <ele>141.6</ele>
        <time>2023-10-25T13:51:54Z</time>
      </trkpt>
      <trkpt lat="50.03904" lon="2.33458">
        <ele>141.6</ele>
        <time>2023-10-25T13:51:55Z</time>
      </trkpt>
      <trkpt lat="50.03903" lon="2.33458">
        <ele>141.6</ele>
        <time>2023-10-25T13:51:56Z</time>
      </trkpt>
      <trkpt lat="50.03902" lon="2.33458">
        <ele>141.6</ele>
        <time>2023-10-25T13:51:57Z</time>
      </trkpt>
      <trkpt lat="50.03901" lon="2.33458">
        <ele>141.6</ele>
        <time>2023-10-25T13:51:58Z</time>
      </trkpt>
      <trkpt lat="50.039" lon="2.33458">
        <ele>141.7</ele>
        <time>2023-10-25T13:51:59Z</time>
      </trkpt>
      <trkpt lat="50.03899" lon="2.33458">
        <ele>141.7</ele>
        <time>2023-10-25T13:52:00Z</time>
      </trkpt>
      <trkpt lat="50.03898" lon="2.33458">
        <ele>141.7</ele>
        <time>2023-10-25T13:52:01Z</time>
      </trkpt>
      <trkpt lat="50.03897" lon="2.33458">
        <ele>141.7</ele>
        <time>2023-10-25T13:52:02Z</time>
      </trkpt>
      <trkpt lat="50.03896" lon="2.33458">
        <ele>141.7</ele>
        <time>2023-10-25T13:52:03Z</time>
      </trkpt>
      <trkpt lat="50.03895" lon="2.33458">
        <ele>141.7</ele>
        <time>2023-10-25T13:52:04Z</time>
      </trkpt>
      <trkpt lat="50.03894" lon="2.33458">
        <ele>141.7</ele>
        <time>2023-10-25T13:52:05Z</time>
      </trkpt>
      <trkpt lat="50.03892" lon="2.33457">
        <ele>141.8</ele>
        <time>2023-10-25T13:52:06Z</time>
      </trkpt>
      <trkpt lat="50.03891" lon="2.33457">
        <ele>141.8</ele>
        <time>2023-10-25T13:52:07Z</time>
      </trkpt>
      <trkpt lat="50.0389" lon="2.33457">
        <ele>141.8</ele>
        <time>2023-10-25T13:52:08Z</time>
      </trkpt>
      <trkpt lat="50.03889" lon="2.33456">
        <ele>141.8</ele>
        <time>2023-10-25T13:52:09Z</time>
      </trkpt>
      <trkpt lat="50.03888" lon="2.33456">
        <ele>141.8</ele>
        <time>2023-10-25T13:52:10Z</time>
      </trkpt>
      <trkpt lat="50.03887" lon="2.33455">
        <ele>141.8</ele>
        <time>2023-10-25T13:52:11Z</time>
      </trkpt>
      <trkpt lat="50.03886" lon="2.33455">
        <ele>141.8</ele>
        <time>2023-10-25T13:52:12Z</time>
      </trkpt>
      <trkpt lat="50.03885" lon="2.33454">
        <ele>141.8</ele>
        <time>2023-10-25T13:52:13Z</time>
      </trkpt>
      <trkpt lat="50.03884" lon="2.33453">
        <ele>141.8</ele>
        <time>2023-10-25T13:52:14Z</time>
      </trkpt>
      <trkpt lat="50.03884" lon="2.33452">
        <ele>141.8</ele>
        <time>2023-10-25T13:52:15Z</time>
      </trkpt>
      <trkpt lat="50.03883" lon="2.33451">
        <ele>141.9</ele>
        <time>2023-10-25T13:52:16Z</time>
      </trkpt>
      <trkpt lat="50.03882" lon="2.3345">
        <ele>141.9</ele>
        <time>2023-10-25T13:52:17Z</time>
      </trkpt>
      <trkpt lat="50.03882" lon="2.33449">
        <ele>141.9</ele>
        <time>2023-10-25T13:52:18Z</time>
      </trkpt>
      <trkpt lat="50.03881" lon="2.33448">
        <ele>141.9</ele>
        <time>2023-10-25T13:52:19Z</time>
      </trkpt>
      <trkpt lat="50.0388" lon="2.33447">
        <ele>141.9</ele>
        <time>2023-10-25T13:52:20Z</time>
      </trkpt>
      <trkpt lat="50.03879" lon="2.33447">
        <ele>141.9</ele>
        <time>2023-10-25T13:52:21Z</time>
      </trkpt>
      <trkpt lat="50.03878" lon="2.33446">
        <ele>141.9</ele>
        <time>2023-10-25T13:52:22Z</time>
      </trkpt>
      <trkpt lat="50.03877" lon="2.33446">
        <ele>141.9</ele>
        <time>2023-10-25T13:52:23Z</time>
      </trkpt>
      <trkpt lat="50.03876" lon="2.33445">
        <ele>141.9</ele>
        <time>2023-10-25T13:52:24Z</time>
      </trkpt>
      <trkpt lat="50.03875" lon="2.33445">
        <ele>141.9</ele>
        <time>2023-10-25T13:52:25Z</time>
      </trkpt>
      <trkpt lat="50.03874" lon="2.33444">
        <ele>141.9</ele>
        <time>2023-10-25T13:52:26Z</time>
      </trkpt>
      <trkpt lat="50.03873" lon="2.33444">
        <ele>141.9</ele>
        <time>2023-10-25T13:52:27Z</time>
      </trkpt>
      <trkpt lat="50.03872" lon="2.33443">
        <ele>141.9</ele>
        <time>2023-10-25T13:52:28Z</time>
      </trkpt>
      <trkpt lat="50.03871" lon="2.33442">
        <ele>141.9</ele>
        <time>2023-10-25T13:52:29Z</time>
      </trkpt>
      <trkpt lat="50.0387" lon="2.33442">
        <ele>141.9</ele>
        <time>2023-10-25T13:52:30Z</time>
      </trkpt>
      <trkpt lat="50.03869" lon="2.33441">
        <ele>141.9</ele>
        <time>2023-10-25T13:52:31Z</time>
      </trkpt>
      <trkpt lat="50.03868" lon="2.33441">
        <ele>141.9</ele>
        <time>2023-10-25T13:52:32Z</time>
      </trkpt>
      <trkpt lat="50.03867" lon="2.3344">
        <ele>141.9</ele>
        <time>2023-10-25T13:52:33Z</time>
      </trkpt>
      <trkpt lat="50.03867" lon="2.33439">
        <ele>141.9</ele>
        <time>2023-10-25T13:52:34Z</time>
      </trkpt>
      <trkpt lat="50.03866" lon="2.33438">
        <ele>141.9</ele>
        <time>2023-10-25T13:52:35Z</time>
      </trkpt>
      <trkpt lat="50.03865" lon="2.33438">
        <ele>141.9</ele>
        <time>2023-10-25T13:52:36Z</time>
      </trkpt>
      <trkpt lat="50.03864" lon="2.33437">
        <ele>141.9</ele>
        <time>2023-10-25T13:52:37Z</time>
      </trkpt>
      <trkpt lat="50.03863" lon="2.33437">
        <ele>141.9</ele>
        <time>2023-10-25T13:52:38Z</time>
      </trkpt>
      <trkpt lat="50.03862" lon="2.33436">
        <ele>141.9</ele>
        <time>2023-10-25T13:52:39Z</time>
      </trkpt>
      <trkpt lat="50.03861" lon="2.33436">
        <ele>141.9</ele>
        <time>2023-10-25T13:52:40Z</time>
      </trkpt>
      <trkpt lat="50.0386" lon="2.33436">
        <ele>141.9</ele>
        <time>2023-10-25T13:52:41Z</time>
      </trkpt>
      <trkpt lat="50.03859" lon="2.33435">
        <ele>141.9</ele>
        <time>2023-10-25T13:52:42Z</time>
      </trkpt>
      <trkpt lat="50.03858" lon="2.33434">
        <ele>141.9</ele>
        <time>2023-10-25T13:52:43Z</time>
      </trkpt>
      <trkpt lat="50.03857" lon="2.33433">
        <ele>141.9</ele>
        <time>2023-10-25T13:52:44Z</time>
      </trkpt>
      <trkpt lat="50.03856" lon="2.33433">
        <ele>141.9</ele>
        <time>2023-10-25T13:52:45Z</time>
      </trkpt>
      <trkpt lat="50.03855" lon="2.33432">
        <ele>141.9</ele>
        <time>2023-10-25T13:52:46Z</time>
      </trkpt>
      <trkpt lat="50.03854" lon="2.33431">
        <ele>141.9</ele>
        <time>2023-10-25T13:52:47Z</time>
      </trkpt>
      <trkpt lat="50.03853" lon="2.33431">
        <ele>141.9</ele>
        <time>2023-10-25T13:52:48Z</time>
      </trkpt>
      <trkpt lat="50.03852" lon="2.3343">
        <ele>141.9</ele>
        <time>2023-10-25T13:52:49Z</time>
      </trkpt>
      <trkpt lat="50.0385" lon="2.33429">
        <ele>141.9</ele>
        <time>2023-10-25T13:52:50Z</time>
      </trkpt>
      <trkpt lat="50.03849" lon="2.33428">
        <ele>141.9</ele>
        <time>2023-10-25T13:52:51Z</time>
      </trkpt>
      <trkpt lat="50.03848" lon="2.33428">
        <ele>141.9</ele>
        <time>2023-10-25T13:52:52Z</time>
      </trkpt>
      <trkpt lat="50.03846" lon="2.33427">
        <ele>141.8</ele>
        <time>2023-10-25T13:52:53Z</time>
      </trkpt>
      <trkpt lat="50.03845" lon="2.33427">
        <ele>141.8</ele>
        <time>2023-10-25T13:52:54Z</time>
      </trkpt>
      <trkpt lat="50.03845" lon="2.33426">
        <ele>141.8</ele>
        <time>2023-10-25T13:52:55Z</time>
      </trkpt>
      <trkpt lat="50.03844" lon="2.33426">
        <ele>141.8</ele>
        <time>2023-10-25T13:52:56Z</time>
      </trkpt>
      <trkpt lat="50.03843" lon="2.33425">
        <ele>141.8</ele>
        <time>2023-10-25T13:52:57Z</time>
      </trkpt>
      <trkpt lat="50.03842" lon="2.33425">
        <ele>141.8</ele>
        <time>2023-10-25T13:52:58Z</time>
      </trkpt>
      <trkpt lat="50.03841" lon="2.33424">
        <ele>141.8</ele>
        <time>2023-10-25T13:52:59Z</time>
      </trkpt>
      <trkpt lat="50.0384" lon="2.33424">
        <ele>141.8</ele>
        <time>2023-10-25T13:53:00Z</time>
      </trkpt>
      <trkpt lat="50.03839" lon="2.33423">
        <ele>141.8</ele>
        <time>2023-10-25T13:53:01Z</time>
      </trkpt>
      <trkpt lat="50.03838" lon="2.33422">
        <ele>141.8</ele>
        <time>2023-10-25T13:53:02Z</time>
      </trkpt>
      <trkpt lat="50.03837" lon="2.33421">
        <ele>141.8</ele>
        <time>2023-10-25T13:53:03Z</time>
      </trkpt>
      <trkpt lat="50.03836" lon="2.3342">
        <ele>141.8</ele>
        <time>2023-10-25T13:53:04Z</time>
      </trkpt>
      <trkpt lat="50.03835" lon="2.3342">
        <ele>141.8</ele>
        <time>2023-10-25T13:53:05Z</time>
      </trkpt>
      <trkpt lat="50.03834" lon="2.33419">
        <ele>141.8</ele>
        <time>2023-10-25T13:53:06Z</time>
      </trkpt>
      <trkpt lat="50.03833" lon="2.33418">
        <ele>141.8</ele>
        <time>2023-10-25T13:53:07Z</time>
      </trkpt>
      <trkpt lat="50.03832" lon="2.33418">
        <ele>141.8</ele>
        <time>2023-10-25T13:53:08Z</time>
      </trkpt>
      <trkpt lat="50.03832" lon="2.33418">
        <ele>141.8</ele>
        <time>2023-10-25T13:53:09Z</time>
      </trkpt>
      <trkpt lat="50.03831" lon="2.33417">
        <ele>141.8</ele>
        <time>2023-10-25T13:53:10Z</time>
      </trkpt>
      <trkpt lat="50.0383" lon="2.33417">
        <ele>141.8</ele>
        <time>2023-10-25T13:53:11Z</time>
      </trkpt>
      <trkpt lat="50.03829" lon="2.33416">
        <ele>141.8</ele>
        <time>2023-10-25T13:53:12Z</time>
      </trkpt>
      <trkpt lat="50.03828" lon="2.33416">
        <ele>141.8</ele>
        <time>2023-10-25T13:53:13Z</time>
      </trkpt>
      <trkpt lat="50.03827" lon="2.33416">
        <ele>141.7</ele>
        <time>2023-10-25T13:53:14Z</time>
      </trkpt>
      <trkpt lat="50.03826" lon="2.33416">
        <ele>141.7</ele>
        <time>2023-10-25T13:53:15Z</time>
      </trkpt>
      <trkpt lat="50.03825" lon="2.33415">
        <ele>141.7</ele>
        <time>2023-10-25T13:53:16Z</time>
      </trkpt>
      <trkpt lat="50.03825" lon="2.33416">
        <ele>141.7</ele>
        <time>2023-10-25T13:53:17Z</time>
      </trkpt>
      <trkpt lat="50.03824" lon="2.33416">
        <ele>141.8</ele>
        <time>2023-10-25T13:53:18Z</time>
      </trkpt>
      <trkpt lat="50.03823" lon="2.33417">
        <ele>141.8</ele>
        <time>2023-10-25T13:53:19Z</time>
      </trkpt>
      <trkpt lat="50.03823" lon="2.33417">
        <ele>141.8</ele>
        <time>2023-10-25T13:53:20Z</time>
      </trkpt>
      <trkpt lat="50.03823" lon="2.33416">
        <ele>141.8</ele>
        <time>2023-10-25T13:53:21Z</time>
      </trkpt>
      <trkpt lat="50.03823" lon="2.33416">
        <ele>141.8</ele>
        <time>2023-10-25T13:53:22Z</time>
      </trkpt>
      <trkpt lat="50.03823" lon="2.33416">
        <ele>141.8</ele>
        <time>2023-10-25T13:53:23Z</time>
      </trkpt>
      <trkpt lat="50.03823" lon="2.33416">
        <ele>141.8</ele>
        <time>2023-10-25T13:53:24Z</time>
      </trkpt>
      <trkpt lat="50.03823" lon="2.33416">
        <ele>141.8</ele>
        <time>2023-10-25T13:53:25Z</time>
      </trkpt>
      <trkpt lat="50.03823" lon="2.33416">
        <ele>141.8</ele>
        <time>2023-10-25T13:53:26Z</time>
      </trkpt>
      <trkpt lat="50.03823" lon="2.33416">
        <ele>141.8</ele>
        <time>2023-10-25T13:53:27Z</time>
      </trkpt>
      <trkpt lat="50.03823" lon="2.33416">
        <ele>141.8</ele>
        <time>2023-10-25T13:53:28Z</time>
      </trkpt>
      <trkpt lat="50.03824" lon="2.33416">
        <ele>141.8</ele>
        <time>2023-10-25T13:53:29Z</time>
      </trkpt>
      <trkpt lat="50.03824" lon="2.33416">
        <ele>141.8</ele>
        <time>2023-10-25T13:53:30Z</time>
      </trkpt>
      <trkpt lat="50.03824" lon="2.33416">
        <ele>141.8</ele>
        <time>2023-10-25T13:53:31Z</time>
      </trkpt>
      <trkpt lat="50.03824" lon="2.33416">
        <ele>141.8</ele>
        <time>2023-10-25T13:53:32Z</time>
      </trkpt>
      <trkpt lat="50.03824" lon="2.33416">
        <ele>141.8</ele>
        <time>2023-10-25T13:53:33Z</time>
      </trkpt>
      <trkpt lat="50.03824" lon="2.33416">
        <ele>141.8</ele>
        <time>2023-10-25T13:53:34Z</time>
      </trkpt>
      <trkpt lat="50.03824" lon="2.33416">
        <ele>141.8</ele>
        <time>2023-10-25T13:53:35Z</time>
      </trkpt>
      <trkpt lat="50.03824" lon="2.33416">
        <ele>141.8</ele>
        <time>2023-10-25T13:53:36Z</time>
      </trkpt>
      <trkpt lat="50.03824" lon="2.33416">
        <ele>141.8</ele>
        <time>2023-10-25T13:53:37Z</time>
      </trkpt>
      <trkpt lat="50.03824" lon="2.33416">
        <ele>141.8</ele>
        <time>2023-10-25T13:53:38Z</time>
      </trkpt>
      <trkpt lat="50.03825" lon="2.33416">
        <ele>141.8</ele>
        <time>2023-10-25T13:53:39Z</time>
      </trkpt>
      <trkpt lat="50.03825" lon="2.33416">
        <ele>141.8</ele>
        <time>2023-10-25T13:53:40Z</time>
      </trkpt>
      <trkpt lat="50.03825" lon="2.33416">
        <ele>141.8</ele>
        <time>2023-10-25T13:53:41Z</time>
      </trkpt>
      <trkpt lat="50.03825" lon="2.33416">
        <ele>141.8</ele>
        <time>2023-10-25T13:53:42Z</time>
      </trkpt>
      <trkpt lat="50.03825" lon="2.33416">
        <ele>141.8</ele>
        <time>2023-10-25T13:53:43Z</time>
      </trkpt>
      <trkpt lat="50.03827" lon="2.33417">
        <ele>141.9</ele>
        <time>2023-10-25T13:56:05Z</time>
      </trkpt>
      <trkpt lat="50.03828" lon="2.33417">
        <ele>141.9</ele>
        <time>2023-10-25T13:56:06Z</time>
      </trkpt>
      <trkpt lat="50.03827" lon="2.33417">
        <ele>141.9</ele>
        <time>2023-10-25T13:56:07Z</time>
      </trkpt>
      <trkpt lat="50.03826" lon="2.33417">
        <ele>141.9</ele>
        <time>2023-10-25T13:56:08Z</time>
      </trkpt>
      <trkpt lat="50.03826" lon="2.33418">
        <ele>141.9</ele>
        <time>2023-10-25T13:56:09Z</time>
      </trkpt>
      <trkpt lat="50.03825" lon="2.33419">
        <ele>141.9</ele>
        <time>2023-10-25T13:56:10Z</time>
      </trkpt>
      <trkpt lat="50.03826" lon="2.3342">
        <ele>141.9</ele>
        <time>2023-10-25T13:56:11Z</time>
      </trkpt>
      <trkpt lat="50.03826" lon="2.3342">
        <ele>141.9</ele>
        <time>2023-10-25T13:56:12Z</time>
      </trkpt>
      <trkpt lat="50.03826" lon="2.3342">
        <ele>141.9</ele>
        <time>2023-10-25T13:56:13Z</time>
      </trkpt>
      <trkpt lat="50.03826" lon="2.3342">
        <ele>141.9</ele>
        <time>2023-10-25T13:56:14Z</time>
      </trkpt>
      <trkpt lat="50.03826" lon="2.33419">
        <ele>141.9</ele>
        <time>2023-10-25T13:56:15Z</time>
      </trkpt>
      <trkpt lat="50.03826" lon="2.33419">
        <ele>141.9</ele>
        <time>2023-10-25T13:56:16Z</time>
      </trkpt>
      <trkpt lat="50.03826" lon="2.33419">
        <ele>141.9</ele>
        <time>2023-10-25T13:56:17Z</time>
      </trkpt>
      <trkpt lat="50.03826" lon="2.33419">
        <ele>141.9</ele>
        <time>2023-10-25T13:56:18Z</time>
      </trkpt>
      <trkpt lat="50.03826" lon="2.33419">
        <ele>141.9</ele>
        <time>2023-10-25T13:56:19Z</time>
      </trkpt>
      <trkpt lat="50.03826" lon="2.33419">
        <ele>141.9</ele>
        <time>2023-10-25T13:56:20Z</time>
      </trkpt>
      <trkpt lat="50.03826" lon="2.33419">
        <ele>141.9</ele>
        <time>2023-10-25T13:56:21Z</time>
      </trkpt>
      <trkpt lat="50.03822" lon="2.3342">
        <ele>142</ele>
        <time>2023-10-25T13:57:24Z</time>
      </trkpt>
      <trkpt lat="50.03821" lon="2.33421">
        <ele>142</ele>
        <time>2023-10-25T13:57:25Z</time>
      </trkpt>
      <trkpt lat="50.03821" lon="2.33421">
        <ele>142</ele>
        <time>2023-10-25T13:57:26Z</time>
      </trkpt>
      <trkpt lat="50.0382" lon="2.33422">
        <ele>142</ele>
        <time>2023-10-25T13:57:27Z</time>
      </trkpt>
      <trkpt lat="50.0382" lon="2.33422">
        <ele>142</ele>
        <time>2023-10-25T13:57:28Z</time>
      </trkpt>
      <trkpt lat="50.03819" lon="2.33423">
        <ele>142</ele>
        <time>2023-10-25T13:57:29Z</time>
      </trkpt>
      <trkpt lat="50.03819" lon="2.33423">
        <ele>142</ele>
        <time>2023-10-25T13:57:30Z</time>
      </trkpt>
      <trkpt lat="50.03819" lon="2.33424">
        <ele>142.1</ele>
        <time>2023-10-25T13:57:31Z</time>
      </trkpt>
      <trkpt lat="50.03819" lon="2.33425">
        <ele>142.1</ele>
        <time>2023-10-25T13:57:32Z</time>
      </trkpt>
      <trkpt lat="50.03819" lon="2.33425">
        <ele>142.1</ele>
        <time>2023-10-25T13:57:33Z</time>
      </trkpt>
      <trkpt lat="50.03818" lon="2.33427">
        <ele>142.1</ele>
        <time>2023-10-25T13:57:34Z</time>
      </trkpt>
      <trkpt lat="50.03817" lon="2.33428">
        <ele>142.1</ele>
        <time>2023-10-25T13:57:35Z</time>
      </trkpt>
      <trkpt lat="50.03817" lon="2.33429">
        <ele>142.1</ele>
        <time>2023-10-25T13:57:36Z</time>
      </trkpt>
      <trkpt lat="50.03816" lon="2.33431">
        <ele>142.1</ele>
        <time>2023-10-25T13:57:37Z</time>
      </trkpt>
      <trkpt lat="50.03815" lon="2.33432">
        <ele>142.1</ele>
        <time>2023-10-25T13:57:38Z</time>
      </trkpt>
      <trkpt lat="50.03815" lon="2.33433">
        <ele>142.2</ele>
        <time>2023-10-25T13:57:39Z</time>
      </trkpt>
      <trkpt lat="50.03814" lon="2.33435">
        <ele>142.2</ele>
        <time>2023-10-25T13:57:40Z</time>
      </trkpt>
      <trkpt lat="50.03813" lon="2.33436">
        <ele>142.2</ele>
        <time>2023-10-25T13:57:41Z</time>
      </trkpt>
      <trkpt lat="50.03813" lon="2.33438">
        <ele>142.2</ele>
        <time>2023-10-25T13:57:42Z</time>
      </trkpt>
      <trkpt lat="50.03812" lon="2.33439">
        <ele>142.2</ele>
        <time>2023-10-25T13:57:43Z</time>
      </trkpt>
      <trkpt lat="50.03811" lon="2.33441">
        <ele>142.2</ele>
        <time>2023-10-25T13:57:44Z</time>
      </trkpt>
      <trkpt lat="50.03811" lon="2.33442">
        <ele>142.2</ele>
        <time>2023-10-25T13:57:45Z</time>
      </trkpt>
      <trkpt lat="50.0381" lon="2.33444">
        <ele>142.2</ele>
        <time>2023-10-25T13:57:46Z</time>
      </trkpt>
      <trkpt lat="50.0381" lon="2.33445">
        <ele>142.2</ele>
        <time>2023-10-25T13:57:47Z</time>
      </trkpt>
      <trkpt lat="50.03809" lon="2.33447">
        <ele>142.2</ele>
        <time>2023-10-25T13:57:48Z</time>
      </trkpt>
      <trkpt lat="50.03809" lon="2.33448">
        <ele>142.2</ele>
        <time>2023-10-25T13:57:49Z</time>
      </trkpt>
      <trkpt lat="50.03808" lon="2.33451">
        <ele>142.2</ele>
        <time>2023-10-25T13:57:50Z</time>
      </trkpt>
      <trkpt lat="50.03808" lon="2.33452">
        <ele>142.2</ele>
        <time>2023-10-25T13:57:51Z</time>
      </trkpt>
      <trkpt lat="50.03807" lon="2.33453">
        <ele>142.2</ele>
        <time>2023-10-25T13:57:52Z</time>
      </trkpt>
      <trkpt lat="50.03807" lon="2.33455">
        <ele>142.2</ele>
        <time>2023-10-25T13:57:53Z</time>
      </trkpt>
      <trkpt lat="50.03806" lon="2.33456">
        <ele>142.2</ele>
        <time>2023-10-25T13:57:54Z</time>
      </trkpt>
      <trkpt lat="50.03805" lon="2.33458">
        <ele>142.2</ele>
        <time>2023-10-25T13:57:55Z</time>
      </trkpt>
      <trkpt lat="50.03805" lon="2.33459">
        <ele>142.2</ele>
        <time>2023-10-25T13:57:56Z</time>
      </trkpt>
      <trkpt lat="50.03804" lon="2.3346">
        <ele>142.2</ele>
        <time>2023-10-25T13:57:57Z</time>
      </trkpt>
      <trkpt lat="50.03803" lon="2.33461">
        <ele>142.2</ele>
        <time>2023-10-25T13:57:58Z</time>
      </trkpt>
      <trkpt lat="50.03802" lon="2.33463">
        <ele>142.2</ele>
        <time>2023-10-25T13:57:59Z</time>
      </trkpt>
      <trkpt lat="50.03801" lon="2.33464">
        <ele>142.2</ele>
        <time>2023-10-25T13:58:00Z</time>
      </trkpt>
      <trkpt lat="50.03801" lon="2.33465">
        <ele>142.2</ele>
        <time>2023-10-25T13:58:01Z</time>
      </trkpt>
      <trkpt lat="50.038" lon="2.33466">
        <ele>142.2</ele>
        <time>2023-10-25T13:58:02Z</time>
      </trkpt>
      <trkpt lat="50.03799" lon="2.33467">
        <ele>142.2</ele>
        <time>2023-10-25T13:58:03Z</time>
      </trkpt>
      <trkpt lat="50.03798" lon="2.33469">
        <ele>142.2</ele>
        <time>2023-10-25T13:58:04Z</time>
      </trkpt>
      <trkpt lat="50.03797" lon="2.3347">
        <ele>142.2</ele>
        <time>2023-10-25T13:58:05Z</time>
      </trkpt>
      <trkpt lat="50.03797" lon="2.33471">
        <ele>142.2</ele>
        <time>2023-10-25T13:58:06Z</time>
      </trkpt>
      <trkpt lat="50.03796" lon="2.33472">
        <ele>142.2</ele>
        <time>2023-10-25T13:58:07Z</time>
      </trkpt>
      <trkpt lat="50.03794" lon="2.33475">
        <ele>142.2</ele>
        <time>2023-10-25T13:58:08Z</time>
      </trkpt>
      <trkpt lat="50.03794" lon="2.33476">
        <ele>142.2</ele>
        <time>2023-10-25T13:58:09Z</time>
      </trkpt>
      <trkpt lat="50.03793" lon="2.33476">
        <ele>142.2</ele>
        <time>2023-10-25T13:58:10Z</time>
      </trkpt>
      <trkpt lat="50.03792" lon="2.33478">
        <ele>142.2</ele>
        <time>2023-10-25T13:58:11Z</time>
      </trkpt>
      <trkpt lat="50.03792" lon="2.33479">
        <ele>142.2</ele>
        <time>2023-10-25T13:58:12Z</time>
      </trkpt>
      <trkpt lat="50.03791" lon="2.3348">
        <ele>142.2</ele>
        <time>2023-10-25T13:58:13Z</time>
      </trkpt>
      <trkpt lat="50.0379" lon="2.33481">
        <ele>142.2</ele>
        <time>2023-10-25T13:58:14Z</time>
      </trkpt>
      <trkpt lat="50.03789" lon="2.33483">
        <ele>142.2</ele>
        <time>2023-10-25T13:58:15Z</time>
      </trkpt>
      <trkpt lat="50.03788" lon="2.33484">
        <ele>142.2</ele>
        <time>2023-10-25T13:58:16Z</time>
      </trkpt>
      <trkpt lat="50.03787" lon="2.33486">
        <ele>142.2</ele>
        <time>2023-10-25T13:58:17Z</time>
      </trkpt>
      <trkpt lat="50.03786" lon="2.33487">
        <ele>142.2</ele>
        <time>2023-10-25T13:58:18Z</time>
      </trkpt>
      <trkpt lat="50.03786" lon="2.33488">
        <ele>142.2</ele>
        <time>2023-10-25T13:58:19Z</time>
      </trkpt>
      <trkpt lat="50.03785" lon="2.33489">
        <ele>142.2</ele>
        <time>2023-10-25T13:58:20Z</time>
      </trkpt>
      <trkpt lat="50.03784" lon="2.3349">
        <ele>142.2</ele>
        <time>2023-10-25T13:58:21Z</time>
      </trkpt>
      <trkpt lat="50.03784" lon="2.33491">
        <ele>142.2</ele>
        <time>2023-10-25T13:58:22Z</time>
      </trkpt>
      <trkpt lat="50.03783" lon="2.33492">
        <ele>142.2</ele>
        <time>2023-10-25T13:58:23Z</time>
      </trkpt>
      <trkpt lat="50.03782" lon="2.33493">
        <ele>142.2</ele>
        <time>2023-10-25T13:58:24Z</time>
      </trkpt>
      <trkpt lat="50.03781" lon="2.33494">
        <ele>142.2</ele>
        <time>2023-10-25T13:58:25Z</time>
      </trkpt>
      <trkpt lat="50.0378" lon="2.33496">
        <ele>142.2</ele>
        <time>2023-10-25T13:58:26Z</time>
      </trkpt>
      <trkpt lat="50.0378" lon="2.33497">
        <ele>142.2</ele>
        <time>2023-10-25T13:58:27Z</time>
      </trkpt>
      <trkpt lat="50.03779" lon="2.33498">
        <ele>142.2</ele>
        <time>2023-10-25T13:58:28Z</time>
      </trkpt>
      <trkpt lat="50.03778" lon="2.33499">
        <ele>142.2</ele>
        <time>2023-10-25T13:58:29Z</time>
      </trkpt>
      <trkpt lat="50.03777" lon="2.335">
        <ele>142.2</ele>
        <time>2023-10-25T13:58:30Z</time>
      </trkpt>
      <trkpt lat="50.03776" lon="2.33502">
        <ele>142.2</ele>
        <time>2023-10-25T13:58:31Z</time>
      </trkpt>
      <trkpt lat="50.03775" lon="2.33503">
        <ele>142.2</ele>
        <time>2023-10-25T13:58:32Z</time>
      </trkpt>
      <trkpt lat="50.03775" lon="2.33504">
        <ele>142.2</ele>
        <time>2023-10-25T13:58:33Z</time>
      </trkpt>
      <trkpt lat="50.03774" lon="2.33505">
        <ele>142.2</ele>
        <time>2023-10-25T13:58:34Z</time>
      </trkpt>
      <trkpt lat="50.03773" lon="2.33506">
        <ele>142.2</ele>
        <time>2023-10-25T13:58:35Z</time>
      </trkpt>
      <trkpt lat="50.03773" lon="2.33507">
        <ele>142.2</ele>
        <time>2023-10-25T13:58:36Z</time>
      </trkpt>
      <trkpt lat="50.03772" lon="2.33509">
        <ele>142.2</ele>
        <time>2023-10-25T13:58:37Z</time>
      </trkpt>
      <trkpt lat="50.0377" lon="2.33511">
        <ele>142.2</ele>
        <time>2023-10-25T13:58:38Z</time>
      </trkpt>
      <trkpt lat="50.0377" lon="2.33512">
        <ele>142.2</ele>
        <time>2023-10-25T13:58:39Z</time>
      </trkpt>
      <trkpt lat="50.03769" lon="2.33513">
        <ele>142.2</ele>
        <time>2023-10-25T13:58:40Z</time>
      </trkpt>
      <trkpt lat="50.03768" lon="2.33514">
        <ele>142.2</ele>
        <time>2023-10-25T13:58:41Z</time>
      </trkpt>
      <trkpt lat="50.03768" lon="2.33515">
        <ele>142.2</ele>
        <time>2023-10-25T13:58:42Z</time>
      </trkpt>
      <trkpt lat="50.03767" lon="2.33516">
        <ele>142.2</ele>
        <time>2023-10-25T13:58:43Z</time>
      </trkpt>
      <trkpt lat="50.03766" lon="2.33518">
        <ele>142.2</ele>
        <time>2023-10-25T13:58:44Z</time>
      </trkpt>
      <trkpt lat="50.03765" lon="2.33519">
        <ele>142.2</ele>
        <time>2023-10-25T13:58:45Z</time>
      </trkpt>
      <trkpt lat="50.03764" lon="2.3352">
        <ele>142.2</ele>
        <time>2023-10-25T13:58:46Z</time>
      </trkpt>
      <trkpt lat="50.03764" lon="2.33521">
        <ele>142.2</ele>
        <time>2023-10-25T13:58:47Z</time>
      </trkpt>
      <trkpt lat="50.03763" lon="2.33523">
        <ele>142.2</ele>
        <time>2023-10-25T13:58:48Z</time>
      </trkpt>
      <trkpt lat="50.03762" lon="2.33524">
        <ele>142.2</ele>
        <time>2023-10-25T13:58:49Z</time>
      </trkpt>
      <trkpt lat="50.03761" lon="2.33525">
        <ele>142.2</ele>
        <time>2023-10-25T13:58:50Z</time>
      </trkpt>
      <trkpt lat="50.0376" lon="2.33526">
        <ele>142.2</ele>
        <time>2023-10-25T13:58:51Z</time>
      </trkpt>
      <trkpt lat="50.03759" lon="2.33527">
        <ele>142.2</ele>
        <time>2023-10-25T13:58:52Z</time>
      </trkpt>
      <trkpt lat="50.03759" lon="2.33528">
        <ele>142.2</ele>
        <time>2023-10-25T13:58:53Z</time>
      </trkpt>
      <trkpt lat="50.03758" lon="2.33529">
        <ele>142.2</ele>
        <time>2023-10-25T13:58:54Z</time>
      </trkpt>
      <trkpt lat="50.03757" lon="2.3353">
        <ele>142.2</ele>
        <time>2023-10-25T13:58:55Z</time>
      </trkpt>
      <trkpt lat="50.03757" lon="2.33531">
        <ele>142.2</ele>
        <time>2023-10-25T13:58:56Z</time>
      </trkpt>
      <trkpt lat="50.03756" lon="2.33533">
        <ele>142.2</ele>
        <time>2023-10-25T13:58:57Z</time>
      </trkpt>
      <trkpt lat="50.03755" lon="2.33534">
        <ele>142.2</ele>
        <time>2023-10-25T13:58:58Z</time>
      </trkpt>
      <trkpt lat="50.03754" lon="2.33535">
        <ele>142.2</ele>
        <time>2023-10-25T13:58:59Z</time>
      </trkpt>
      <trkpt lat="50.03754" lon="2.33537">
        <ele>142.3</ele>
        <time>2023-10-25T13:59:00Z</time>
      </trkpt>
      <trkpt lat="50.03753" lon="2.33538">
        <ele>142.3</ele>
        <time>2023-10-25T13:59:01Z</time>
      </trkpt>
      <trkpt lat="50.03752" lon="2.33539">
        <ele>142.3</ele>
        <time>2023-10-25T13:59:02Z</time>
      </trkpt>
      <trkpt lat="50.03751" lon="2.3354">
        <ele>142.3</ele>
        <time>2023-10-25T13:59:03Z</time>
      </trkpt>
      <trkpt lat="50.03751" lon="2.33542">
        <ele>142.3</ele>
        <time>2023-10-25T13:59:04Z</time>
      </trkpt>
      <trkpt lat="50.03749" lon="2.33544">
        <ele>142.3</ele>
        <time>2023-10-25T13:59:05Z</time>
      </trkpt>
      <trkpt lat="50.03749" lon="2.33545">
        <ele>142.3</ele>
        <time>2023-10-25T13:59:06Z</time>
      </trkpt>
      <trkpt lat="50.03748" lon="2.33546">
        <ele>142.3</ele>
        <time>2023-10-25T13:59:07Z</time>
      </trkpt>
      <trkpt lat="50.03747" lon="2.33548">
        <ele>142.3</ele>
        <time>2023-10-25T13:59:08Z</time>
      </trkpt>
      <trkpt lat="50.03746" lon="2.33549">
        <ele>142.3</ele>
        <time>2023-10-25T13:59:09Z</time>
      </trkpt>
      <trkpt lat="50.03745" lon="2.3355">
        <ele>142.3</ele>
        <time>2023-10-25T13:59:10Z</time>
      </trkpt>
      <trkpt lat="50.03744" lon="2.33552">
        <ele>142.3</ele>
        <time>2023-10-25T13:59:11Z</time>
      </trkpt>
      <trkpt lat="50.03743" lon="2.33553">
        <ele>142.3</ele>
        <time>2023-10-25T13:59:12Z</time>
      </trkpt>
      <trkpt lat="50.03743" lon="2.33554">
        <ele>142.3</ele>
        <time>2023-10-25T13:59:13Z</time>
      </trkpt>
      <trkpt lat="50.03742" lon="2.33555">
        <ele>142.3</ele>
        <time>2023-10-25T13:59:14Z</time>
      </trkpt>
      <trkpt lat="50.03741" lon="2.33556">
        <ele>142.3</ele>
        <time>2023-10-25T13:59:15Z</time>
      </trkpt>
      <trkpt lat="50.0374" lon="2.33557">
        <ele>142.3</ele>
        <time>2023-10-25T13:59:16Z</time>
      </trkpt>
      <trkpt lat="50.03739" lon="2.33559">
        <ele>142.3</ele>
        <time>2023-10-25T13:59:17Z</time>
      </trkpt>
      <trkpt lat="50.03739" lon="2.3356">
        <ele>142.3</ele>
        <time>2023-10-25T13:59:18Z</time>
      </trkpt>
      <trkpt lat="50.03738" lon="2.33562">
        <ele>142.3</ele>
        <time>2023-10-25T13:59:19Z</time>
      </trkpt>
      <trkpt lat="50.03736" lon="2.33564">
        <ele>142.3</ele>
        <time>2023-10-25T13:59:20Z</time>
      </trkpt>
      <trkpt lat="50.03736" lon="2.33565">
        <ele>142.3</ele>
        <time>2023-10-25T13:59:21Z</time>
      </trkpt>
      <trkpt lat="50.03735" lon="2.33566">
        <ele>142.3</ele>
        <time>2023-10-25T13:59:22Z</time>
      </trkpt>
      <trkpt lat="50.03735" lon="2.33567">
        <ele>142.3</ele>
        <time>2023-10-25T13:59:23Z</time>
      </trkpt>
      <trkpt lat="50.03734" lon="2.33569">
        <ele>142.3</ele>
        <time>2023-10-25T13:59:24Z</time>
      </trkpt>
      <trkpt lat="50.03733" lon="2.3357">
        <ele>142.3</ele>
        <time>2023-10-25T13:59:25Z</time>
      </trkpt>
      <trkpt lat="50.03732" lon="2.33571">
        <ele>142.3</ele>
        <time>2023-10-25T13:59:26Z</time>
      </trkpt>
      <trkpt lat="50.03732" lon="2.33573">
        <ele>142.3</ele>
        <time>2023-10-25T13:59:27Z</time>
      </trkpt>
      <trkpt lat="50.03731" lon="2.33574">
        <ele>142.2</ele>
        <time>2023-10-25T13:59:28Z</time>
      </trkpt>
      <trkpt lat="50.03729" lon="2.33576">
        <ele>142.2</ele>
        <time>2023-10-25T13:59:29Z</time>
      </trkpt>
      <trkpt lat="50.03729" lon="2.33577">
        <ele>142.2</ele>
        <time>2023-10-25T13:59:30Z</time>
      </trkpt>
      <trkpt lat="50.03728" lon="2.33578">
        <ele>142.2</ele>
        <time>2023-10-25T13:59:31Z</time>
      </trkpt>
      <trkpt lat="50.03727" lon="2.33579">
        <ele>142.2</ele>
        <time>2023-10-25T13:59:32Z</time>
      </trkpt>
      <trkpt lat="50.03727" lon="2.3358">
        <ele>142.2</ele>
        <time>2023-10-25T13:59:33Z</time>
      </trkpt>
      <trkpt lat="50.03726" lon="2.33581">
        <ele>142.2</ele>
        <time>2023-10-25T13:59:34Z</time>
      </trkpt>
      <trkpt lat="50.03725" lon="2.33582">
        <ele>142.2</ele>
        <time>2023-10-25T13:59:35Z</time>
      </trkpt>
      <trkpt lat="50.03725" lon="2.33584">
        <ele>142.2</ele>
        <time>2023-10-25T13:59:36Z</time>
      </trkpt>
      <trkpt lat="50.03724" lon="2.33585">
        <ele>142.2</ele>
        <time>2023-10-25T13:59:37Z</time>
      </trkpt>
      <trkpt lat="50.03723" lon="2.33586">
        <ele>142.2</ele>
        <time>2023-10-25T13:59:38Z</time>
      </trkpt>
      <trkpt lat="50.03722" lon="2.33587">
        <ele>142.2</ele>
        <time>2023-10-25T13:59:39Z</time>
      </trkpt>
      <trkpt lat="50.03722" lon="2.33588">
        <ele>142.2</ele>
        <time>2023-10-25T13:59:40Z</time>
      </trkpt>
      <trkpt lat="50.03721" lon="2.3359">
        <ele>142.2</ele>
        <time>2023-10-25T13:59:41Z</time>
      </trkpt>
      <trkpt lat="50.0372" lon="2.33591">
        <ele>142.2</ele>
        <time>2023-10-25T13:59:42Z</time>
      </trkpt>
      <trkpt lat="50.03719" lon="2.33592">
        <ele>142.2</ele>
        <time>2023-10-25T13:59:43Z</time>
      </trkpt>
      <trkpt lat="50.03718" lon="2.33593">
        <ele>142.2</ele>
        <time>2023-10-25T13:59:44Z</time>
      </trkpt>
      <trkpt lat="50.03718" lon="2.33594">
        <ele>142.2</ele>
        <time>2023-10-25T13:59:45Z</time>
      </trkpt>
      <trkpt lat="50.03717" lon="2.33595">
        <ele>142.2</ele>
        <time>2023-10-25T13:59:46Z</time>
      </trkpt>
      <trkpt lat="50.03716" lon="2.33596">
        <ele>142.2</ele>
        <time>2023-10-25T13:59:47Z</time>
      </trkpt>
      <trkpt lat="50.03715" lon="2.33597">
        <ele>142.2</ele>
        <time>2023-10-25T13:59:48Z</time>
      </trkpt>
      <trkpt lat="50.03714" lon="2.33599">
        <ele>142.2</ele>
        <time>2023-10-25T13:59:49Z</time>
      </trkpt>
      <trkpt lat="50.03713" lon="2.33601">
        <ele>142.2</ele>
        <time>2023-10-25T13:59:50Z</time>
      </trkpt>
      <trkpt lat="50.03712" lon="2.33602">
        <ele>142.2</ele>
        <time>2023-10-25T13:59:51Z</time>
      </trkpt>
      <trkpt lat="50.03712" lon="2.33603">
        <ele>142.2</ele>
        <time>2023-10-25T13:59:52Z</time>
      </trkpt>
      <trkpt lat="50.03711" lon="2.33604">
        <ele>142.2</ele>
        <time>2023-10-25T13:59:53Z</time>
      </trkpt>
      <trkpt lat="50.0371" lon="2.33605">
        <ele>142.2</ele>
        <time>2023-10-25T13:59:54Z</time>
      </trkpt>
      <trkpt lat="50.03709" lon="2.33606">
        <ele>142.2</ele>
        <time>2023-10-25T13:59:55Z</time>
      </trkpt>
      <trkpt lat="50.03708" lon="2.33607">
        <ele>142.2</ele>
        <time>2023-10-25T13:59:56Z</time>
      </trkpt>
      <trkpt lat="50.03708" lon="2.33608">
        <ele>142.2</ele>
        <time>2023-10-25T13:59:57Z</time>
      </trkpt>
      <trkpt lat="50.03707" lon="2.3361">
        <ele>142.2</ele>
        <time>2023-10-25T13:59:58Z</time>
      </trkpt>
      <trkpt lat="50.03706" lon="2.33611">
        <ele>142.2</ele>
        <time>2023-10-25T13:59:59Z</time>
      </trkpt>
      <trkpt lat="50.03705" lon="2.33612">
        <ele>142.2</ele>
        <time>2023-10-25T14:00:00Z</time>
      </trkpt>
      <trkpt lat="50.03704" lon="2.33613">
        <ele>142.2</ele>
        <time>2023-10-25T14:00:01Z</time>
      </trkpt>
      <trkpt lat="50.03704" lon="2.33615">
        <ele>142.2</ele>
        <time>2023-10-25T14:00:02Z</time>
      </trkpt>
      <trkpt lat="50.03703" lon="2.33616">
        <ele>142.2</ele>
        <time>2023-10-25T14:00:03Z</time>
      </trkpt>
      <trkpt lat="50.03702" lon="2.33617">
        <ele>142.2</ele>
        <time>2023-10-25T14:00:04Z</time>
      </trkpt>
      <trkpt lat="50.03702" lon="2.33618">
        <ele>142.2</ele>
        <time>2023-10-25T14:00:05Z</time>
      </trkpt>
      <trkpt lat="50.03701" lon="2.3362">
        <ele>142.2</ele>
        <time>2023-10-25T14:00:06Z</time>
      </trkpt>
      <trkpt lat="50.037" lon="2.33621">
        <ele>142.2</ele>
        <time>2023-10-25T14:00:07Z</time>
      </trkpt>
      <trkpt lat="50.037" lon="2.33622">
        <ele>142.2</ele>
        <time>2023-10-25T14:00:08Z</time>
      </trkpt>
      <trkpt lat="50.03699" lon="2.33624">
        <ele>142.2</ele>
        <time>2023-10-25T14:00:09Z</time>
      </trkpt>
      <trkpt lat="50.03698" lon="2.33625">
        <ele>142.2</ele>
        <time>2023-10-25T14:00:10Z</time>
      </trkpt>
      <trkpt lat="50.03698" lon="2.33626">
        <ele>142.2</ele>
        <time>2023-10-25T14:00:11Z</time>
      </trkpt>
      <trkpt lat="50.03697" lon="2.33627">
        <ele>142.2</ele>
        <time>2023-10-25T14:00:12Z</time>
      </trkpt>
      <trkpt lat="50.03696" lon="2.33629">
        <ele>142.2</ele>
        <time>2023-10-25T14:00:13Z</time>
      </trkpt>
      <trkpt lat="50.03695" lon="2.3363">
        <ele>142.2</ele>
        <time>2023-10-25T14:00:14Z</time>
      </trkpt>
      <trkpt lat="50.03694" lon="2.33631">
        <ele>142.2</ele>
        <time>2023-10-25T14:00:15Z</time>
      </trkpt>
      <trkpt lat="50.03694" lon="2.33632">
        <ele>142.2</ele>
        <time>2023-10-25T14:00:16Z</time>
      </trkpt>
      <trkpt lat="50.03693" lon="2.33633">
        <ele>142.2</ele>
        <time>2023-10-25T14:00:17Z</time>
      </trkpt>
      <trkpt lat="50.03692" lon="2.33634">
        <ele>142.2</ele>
        <time>2023-10-25T14:00:18Z</time>
      </trkpt>
      <trkpt lat="50.03692" lon="2.33636">
        <ele>142.2</ele>
        <time>2023-10-25T14:00:19Z</time>
      </trkpt>
      <trkpt lat="50.03691" lon="2.33637">
        <ele>142.2</ele>
        <time>2023-10-25T14:00:20Z</time>
      </trkpt>
      <trkpt lat="50.0369" lon="2.33638">
        <ele>142.2</ele>
        <time>2023-10-25T14:00:21Z</time>
      </trkpt>
      <trkpt lat="50.03689" lon="2.3364">
        <ele>142.2</ele>
        <time>2023-10-25T14:00:22Z</time>
      </trkpt>
      <trkpt lat="50.03689" lon="2.33642">
        <ele>142.2</ele>
        <time>2023-10-25T14:00:23Z</time>
      </trkpt>
      <trkpt lat="50.03688" lon="2.33643">
        <ele>142.2</ele>
        <time>2023-10-25T14:00:24Z</time>
      </trkpt>
      <trkpt lat="50.03687" lon="2.33644">
        <ele>142.2</ele>
        <time>2023-10-25T14:00:25Z</time>
      </trkpt>
      <trkpt lat="50.03686" lon="2.33646">
        <ele>142.2</ele>
        <time>2023-10-25T14:00:26Z</time>
      </trkpt>
      <trkpt lat="50.03686" lon="2.33647">
        <ele>142.2</ele>
        <time>2023-10-25T14:00:27Z</time>
      </trkpt>
      <trkpt lat="50.03685" lon="2.33648">
        <ele>142.2</ele>
        <time>2023-10-25T14:00:28Z</time>
      </trkpt>
      <trkpt lat="50.03683" lon="2.33651">
        <ele>142.2</ele>
        <time>2023-10-25T14:00:29Z</time>
      </trkpt>
      <trkpt lat="50.03683" lon="2.33652">
        <ele>142.2</ele>
        <time>2023-10-25T14:00:30Z</time>
      </trkpt>
      <trkpt lat="50.03682" lon="2.33653">
        <ele>142.2</ele>
        <time>2023-10-25T14:00:31Z</time>
      </trkpt>
      <trkpt lat="50.03681" lon="2.33655">
        <ele>142.2</ele>
        <time>2023-10-25T14:00:32Z</time>
      </trkpt>
      <trkpt lat="50.0368" lon="2.33656">
        <ele>142.2</ele>
        <time>2023-10-25T14:00:33Z</time>
      </trkpt>
      <trkpt lat="50.03679" lon="2.33657">
        <ele>142.2</ele>
        <time>2023-10-25T14:00:34Z</time>
      </trkpt>
      <trkpt lat="50.03679" lon="2.33658">
        <ele>142.2</ele>
        <time>2023-10-25T14:00:35Z</time>
      </trkpt>
      <trkpt lat="50.03678" lon="2.3366">
        <ele>142.2</ele>
        <time>2023-10-25T14:00:36Z</time>
      </trkpt>
      <trkpt lat="50.03677" lon="2.33661">
        <ele>142.2</ele>
        <time>2023-10-25T14:00:37Z</time>
      </trkpt>
      <trkpt lat="50.03676" lon="2.33662">
        <ele>142.2</ele>
        <time>2023-10-25T14:00:38Z</time>
      </trkpt>
      <trkpt lat="50.03676" lon="2.33663">
        <ele>142.2</ele>
        <time>2023-10-25T14:00:39Z</time>
      </trkpt>
      <trkpt lat="50.03675" lon="2.33665">
        <ele>142.2</ele>
        <time>2023-10-25T14:00:40Z</time>
      </trkpt>
      <trkpt lat="50.03674" lon="2.33666">
        <ele>142.2</ele>
        <time>2023-10-25T14:00:41Z</time>
      </trkpt>
      <trkpt lat="50.03674" lon="2.33667">
        <ele>142.1</ele>
        <time>2023-10-25T14:00:42Z</time>
      </trkpt>
      <trkpt lat="50.03673" lon="2.33669">
        <ele>142.1</ele>
        <time>2023-10-25T14:00:43Z</time>
      </trkpt>
      <trkpt lat="50.03672" lon="2.3367">
        <ele>142.1</ele>
        <time>2023-10-25T14:00:44Z</time>
      </trkpt>
      <trkpt lat="50.03671" lon="2.33671">
        <ele>142.1</ele>
        <time>2023-10-25T14:00:45Z</time>
      </trkpt>
      <trkpt lat="50.03671" lon="2.33672">
        <ele>142.1</ele>
        <time>2023-10-25T14:00:46Z</time>
      </trkpt>
      <trkpt lat="50.0367" lon="2.33673">
        <ele>142.1</ele>
        <time>2023-10-25T14:00:47Z</time>
      </trkpt>
      <trkpt lat="50.03669" lon="2.33674">
        <ele>142.1</ele>
        <time>2023-10-25T14:00:48Z</time>
      </trkpt>
      <trkpt lat="50.03669" lon="2.33675">
        <ele>142.1</ele>
        <time>2023-10-25T14:00:49Z</time>
      </trkpt>
      <trkpt lat="50.03668" lon="2.33677">
        <ele>142.1</ele>
        <time>2023-10-25T14:00:50Z</time>
      </trkpt>
      <trkpt lat="50.03667" lon="2.33678">
        <ele>142</ele>
        <time>2023-10-25T14:00:51Z</time>
      </trkpt>
      <trkpt lat="50.03666" lon="2.33679">
        <ele>142</ele>
        <time>2023-10-25T14:00:52Z</time>
      </trkpt>
      <trkpt lat="50.03666" lon="2.33681">
        <ele>142</ele>
        <time>2023-10-25T14:00:53Z</time>
      </trkpt>
      <trkpt lat="50.03665" lon="2.33682">
        <ele>142</ele>
        <time>2023-10-25T14:00:54Z</time>
      </trkpt>
      <trkpt lat="50.03664" lon="2.33683">
        <ele>142</ele>
        <time>2023-10-25T14:00:55Z</time>
      </trkpt>
      <trkpt lat="50.03664" lon="2.33684">
        <ele>142</ele>
        <time>2023-10-25T14:00:56Z</time>
      </trkpt>
      <trkpt lat="50.03663" lon="2.33685">
        <ele>142</ele>
        <time>2023-10-25T14:00:57Z</time>
      </trkpt>
      <trkpt lat="50.03662" lon="2.33687">
        <ele>141.9</ele>
        <time>2023-10-25T14:00:58Z</time>
      </trkpt>
      <trkpt lat="50.03662" lon="2.33688">
        <ele>141.9</ele>
        <time>2023-10-25T14:00:59Z</time>
      </trkpt>
      <trkpt lat="50.03661" lon="2.33689">
        <ele>141.9</ele>
        <time>2023-10-25T14:01:00Z</time>
      </trkpt>
      <trkpt lat="50.0366" lon="2.33691">
        <ele>141.9</ele>
        <time>2023-10-25T14:01:01Z</time>
      </trkpt>
      <trkpt lat="50.03659" lon="2.33693">
        <ele>141.9</ele>
        <time>2023-10-25T14:01:02Z</time>
      </trkpt>
      <trkpt lat="50.03659" lon="2.33694">
        <ele>141.9</ele>
        <time>2023-10-25T14:01:03Z</time>
      </trkpt>
      <trkpt lat="50.03658" lon="2.33695">
        <ele>141.9</ele>
        <time>2023-10-25T14:01:04Z</time>
      </trkpt>
      <trkpt lat="50.03657" lon="2.33697">
        <ele>141.8</ele>
        <time>2023-10-25T14:01:05Z</time>
      </trkpt>
      <trkpt lat="50.03657" lon="2.33698">
        <ele>141.8</ele>
        <time>2023-10-25T14:01:06Z</time>
      </trkpt>
      <trkpt lat="50.03656" lon="2.33699">
        <ele>141.8</ele>
        <time>2023-10-25T14:01:07Z</time>
      </trkpt>
      <trkpt lat="50.03655" lon="2.33701">
        <ele>141.8</ele>
        <time>2023-10-25T14:01:08Z</time>
      </trkpt>
      <trkpt lat="50.03655" lon="2.33702">
        <ele>141.8</ele>
        <time>2023-10-25T14:01:09Z</time>
      </trkpt>
      <trkpt lat="50.03654" lon="2.33703">
        <ele>141.8</ele>
        <time>2023-10-25T14:01:10Z</time>
      </trkpt>
      <trkpt lat="50.03653" lon="2.33705">
        <ele>141.8</ele>
        <time>2023-10-25T14:01:11Z</time>
      </trkpt>
      <trkpt lat="50.03653" lon="2.33706">
        <ele>141.8</ele>
        <time>2023-10-25T14:01:12Z</time>
      </trkpt>
      <trkpt lat="50.03652" lon="2.33707">
        <ele>141.8</ele>
        <time>2023-10-25T14:01:13Z</time>
      </trkpt>
      <trkpt lat="50.0365" lon="2.33709">
        <ele>141.7</ele>
        <time>2023-10-25T14:01:14Z</time>
      </trkpt>
      <trkpt lat="50.0365" lon="2.3371">
        <ele>141.7</ele>
        <time>2023-10-25T14:01:15Z</time>
      </trkpt>
      <trkpt lat="50.03649" lon="2.33711">
        <ele>141.7</ele>
        <time>2023-10-25T14:01:16Z</time>
      </trkpt>
      <trkpt lat="50.03648" lon="2.33713">
        <ele>141.7</ele>
        <time>2023-10-25T14:01:17Z</time>
      </trkpt>
      <trkpt lat="50.03648" lon="2.33714">
        <ele>141.7</ele>
        <time>2023-10-25T14:01:18Z</time>
      </trkpt>
      <trkpt lat="50.03647" lon="2.33715">
        <ele>141.7</ele>
        <time>2023-10-25T14:01:19Z</time>
      </trkpt>
      <trkpt lat="50.03645" lon="2.33718">
        <ele>141.7</ele>
        <time>2023-10-25T14:01:20Z</time>
      </trkpt>
      <trkpt lat="50.03645" lon="2.33719">
        <ele>141.7</ele>
        <time>2023-10-25T14:01:21Z</time>
      </trkpt>
      <trkpt lat="50.03644" lon="2.3372">
        <ele>141.7</ele>
        <time>2023-10-25T14:01:22Z</time>
      </trkpt>
      <trkpt lat="50.03642" lon="2.33722">
        <ele>141.6</ele>
        <time>2023-10-25T14:01:23Z</time>
      </trkpt>
      <trkpt lat="50.03642" lon="2.33723">
        <ele>141.6</ele>
        <time>2023-10-25T14:01:24Z</time>
      </trkpt>
      <trkpt lat="50.03641" lon="2.33724">
        <ele>141.6</ele>
        <time>2023-10-25T14:01:25Z</time>
      </trkpt>
      <trkpt lat="50.0364" lon="2.33726">
        <ele>141.6</ele>
        <time>2023-10-25T14:01:26Z</time>
      </trkpt>
      <trkpt lat="50.03639" lon="2.33727">
        <ele>141.6</ele>
        <time>2023-10-25T14:01:27Z</time>
      </trkpt>
      <trkpt lat="50.03638" lon="2.33728">
        <ele>141.6</ele>
        <time>2023-10-25T14:01:28Z</time>
      </trkpt>
      <trkpt lat="50.03638" lon="2.33729">
        <ele>141.6</ele>
        <time>2023-10-25T14:01:29Z</time>
      </trkpt>
      <trkpt lat="50.03637" lon="2.3373">
        <ele>141.6</ele>
        <time>2023-10-25T14:01:30Z</time>
      </trkpt>
      <trkpt lat="50.03636" lon="2.33731">
        <ele>141.5</ele>
        <time>2023-10-25T14:01:31Z</time>
      </trkpt>
      <trkpt lat="50.03634" lon="2.33733">
        <ele>141.5</ele>
        <time>2023-10-25T14:01:32Z</time>
      </trkpt>
      <trkpt lat="50.03634" lon="2.33734">
        <ele>141.5</ele>
        <time>2023-10-25T14:01:33Z</time>
      </trkpt>
      <trkpt lat="50.03633" lon="2.33735">
        <ele>141.5</ele>
        <time>2023-10-25T14:01:34Z</time>
      </trkpt>
      <trkpt lat="50.03632" lon="2.33738">
        <ele>141.5</ele>
        <time>2023-10-25T14:01:35Z</time>
      </trkpt>
      <trkpt lat="50.03631" lon="2.33739">
        <ele>141.5</ele>
        <time>2023-10-25T14:01:36Z</time>
      </trkpt>
      <trkpt lat="50.03631" lon="2.3374">
        <ele>141.5</ele>
        <time>2023-10-25T14:01:37Z</time>
      </trkpt>
      <trkpt lat="50.0363" lon="2.33741">
        <ele>141.5</ele>
        <time>2023-10-25T14:01:38Z</time>
      </trkpt>
      <trkpt lat="50.03629" lon="2.33742">
        <ele>141.4</ele>
        <time>2023-10-25T14:01:39Z</time>
      </trkpt>
      <trkpt lat="50.03629" lon="2.33744">
        <ele>141.4</ele>
        <time>2023-10-25T14:01:40Z</time>
      </trkpt>
      <trkpt lat="50.03628" lon="2.33745">
        <ele>141.4</ele>
        <time>2023-10-25T14:01:41Z</time>
      </trkpt>
      <trkpt lat="50.03627" lon="2.33746">
        <ele>141.4</ele>
        <time>2023-10-25T14:01:42Z</time>
      </trkpt>
      <trkpt lat="50.03626" lon="2.33747">
        <ele>141.4</ele>
        <time>2023-10-25T14:01:43Z</time>
      </trkpt>
      <trkpt lat="50.03625" lon="2.33749">
        <ele>141.4</ele>
        <time>2023-10-25T14:01:44Z</time>
      </trkpt>
      <trkpt lat="50.03624" lon="2.3375">
        <ele>141.4</ele>
        <time>2023-10-25T14:01:45Z</time>
      </trkpt>
      <trkpt lat="50.03624" lon="2.33751">
        <ele>141.3</ele>
        <time>2023-10-25T14:01:46Z</time>
      </trkpt>
      <trkpt lat="50.03622" lon="2.33753">
        <ele>141.3</ele>
        <time>2023-10-25T14:01:47Z</time>
      </trkpt>
      <trkpt lat="50.03621" lon="2.33754">
        <ele>141.3</ele>
        <time>2023-10-25T14:01:48Z</time>
      </trkpt>
      <trkpt lat="50.03621" lon="2.33755">
        <ele>141.3</ele>
        <time>2023-10-25T14:01:49Z</time>
      </trkpt>
      <trkpt lat="50.0362" lon="2.33756">
        <ele>141.3</ele>
        <time>2023-10-25T14:01:50Z</time>
      </trkpt>
      <trkpt lat="50.03619" lon="2.33758">
        <ele>141.3</ele>
        <time>2023-10-25T14:01:51Z</time>
      </trkpt>
      <trkpt lat="50.03619" lon="2.33759">
        <ele>141.3</ele>
        <time>2023-10-25T14:01:52Z</time>
      </trkpt>
      <trkpt lat="50.03618" lon="2.3376">
        <ele>141.2</ele>
        <time>2023-10-25T14:01:53Z</time>
      </trkpt>
      <trkpt lat="50.03617" lon="2.33761">
        <ele>141.2</ele>
        <time>2023-10-25T14:01:54Z</time>
      </trkpt>
      <trkpt lat="50.03617" lon="2.33763">
        <ele>141.2</ele>
        <time>2023-10-25T14:01:55Z</time>
      </trkpt>
      <trkpt lat="50.03616" lon="2.33764">
        <ele>141.2</ele>
        <time>2023-10-25T14:01:56Z</time>
      </trkpt>
      <trkpt lat="50.03615" lon="2.33766">
        <ele>141.2</ele>
        <time>2023-10-25T14:01:57Z</time>
      </trkpt>
      <trkpt lat="50.03615" lon="2.33767">
        <ele>141.2</ele>
        <time>2023-10-25T14:01:58Z</time>
      </trkpt>
      <trkpt lat="50.03614" lon="2.33768">
        <ele>141.2</ele>
        <time>2023-10-25T14:01:59Z</time>
      </trkpt>
      <trkpt lat="50.03613" lon="2.3377">
        <ele>141.2</ele>
        <time>2023-10-25T14:02:00Z</time>
      </trkpt>
      <trkpt lat="50.03612" lon="2.33771">
        <ele>141.2</ele>
        <time>2023-10-25T14:02:01Z</time>
      </trkpt>
      <trkpt lat="50.03612" lon="2.33772">
        <ele>141.2</ele>
        <time>2023-10-25T14:02:02Z</time>
      </trkpt>
      <trkpt lat="50.03611" lon="2.33773">
        <ele>141.1</ele>
        <time>2023-10-25T14:02:03Z</time>
      </trkpt>
      <trkpt lat="50.0361" lon="2.33775">
        <ele>141.1</ele>
        <time>2023-10-25T14:02:04Z</time>
      </trkpt>
      <trkpt lat="50.03609" lon="2.33776">
        <ele>141.1</ele>
        <time>2023-10-25T14:02:05Z</time>
      </trkpt>
      <trkpt lat="50.03609" lon="2.33777">
        <ele>141.1</ele>
        <time>2023-10-25T14:02:06Z</time>
      </trkpt>
      <trkpt lat="50.03608" lon="2.33779">
        <ele>141.1</ele>
        <time>2023-10-25T14:02:07Z</time>
      </trkpt>
      <trkpt lat="50.03606" lon="2.33781">
        <ele>141.1</ele>
        <time>2023-10-25T14:02:08Z</time>
      </trkpt>
      <trkpt lat="50.03606" lon="2.33782">
        <ele>141.1</ele>
        <time>2023-10-25T14:02:09Z</time>
      </trkpt>
      <trkpt lat="50.03605" lon="2.33783">
        <ele>141.1</ele>
        <time>2023-10-25T14:02:10Z</time>
      </trkpt>
      <trkpt lat="50.03605" lon="2.33784">
        <ele>141.1</ele>
        <time>2023-10-25T14:02:11Z</time>
      </trkpt>
      <trkpt lat="50.03604" lon="2.33785">
        <ele>141.1</ele>
        <time>2023-10-25T14:02:12Z</time>
      </trkpt>
      <trkpt lat="50.03603" lon="2.33786">
        <ele>141</ele>
        <time>2023-10-25T14:02:13Z</time>
      </trkpt>
      <trkpt lat="50.03602" lon="2.33787">
        <ele>141</ele>
        <time>2023-10-25T14:02:14Z</time>
      </trkpt>
      <trkpt lat="50.03601" lon="2.33788">
        <ele>141</ele>
        <time>2023-10-25T14:02:15Z</time>
      </trkpt>
      <trkpt lat="50.03601" lon="2.33789">
        <ele>141</ele>
        <time>2023-10-25T14:02:16Z</time>
      </trkpt>
      <trkpt lat="50.036" lon="2.33791">
        <ele>141</ele>
        <time>2023-10-25T14:02:17Z</time>
      </trkpt>
      <trkpt lat="50.03599" lon="2.33792">
        <ele>141</ele>
        <time>2023-10-25T14:02:18Z</time>
      </trkpt>
      <trkpt lat="50.03598" lon="2.33793">
        <ele>141</ele>
        <time>2023-10-25T14:02:19Z</time>
      </trkpt>
      <trkpt lat="50.03597" lon="2.33794">
        <ele>141</ele>
        <time>2023-10-25T14:02:20Z</time>
      </trkpt>
      <trkpt lat="50.03597" lon="2.33795">
        <ele>140.9</ele>
        <time>2023-10-25T14:02:21Z</time>
      </trkpt>
      <trkpt lat="50.03596" lon="2.33796">
        <ele>140.9</ele>
        <time>2023-10-25T14:02:22Z</time>
      </trkpt>
      <trkpt lat="50.03595" lon="2.33797">
        <ele>140.9</ele>
        <time>2023-10-25T14:02:23Z</time>
      </trkpt>
      <trkpt lat="50.03594" lon="2.33798">
        <ele>140.9</ele>
        <time>2023-10-25T14:02:24Z</time>
      </trkpt>
      <trkpt lat="50.03593" lon="2.33799">
        <ele>140.9</ele>
        <time>2023-10-25T14:02:25Z</time>
      </trkpt>
      <trkpt lat="50.03593" lon="2.33801">
        <ele>140.9</ele>
        <time>2023-10-25T14:02:26Z</time>
      </trkpt>
      <trkpt lat="50.03592" lon="2.33802">
        <ele>140.8</ele>
        <time>2023-10-25T14:02:27Z</time>
      </trkpt>
      <trkpt lat="50.03591" lon="2.33803">
        <ele>140.8</ele>
        <time>2023-10-25T14:02:28Z</time>
      </trkpt>
      <trkpt lat="50.0359" lon="2.33804">
        <ele>140.8</ele>
        <time>2023-10-25T14:02:29Z</time>
      </trkpt>
      <trkpt lat="50.03589" lon="2.33804">
        <ele>140.8</ele>
        <time>2023-10-25T14:02:30Z</time>
      </trkpt>
      <trkpt lat="50.03589" lon="2.33805">
        <ele>140.8</ele>
        <time>2023-10-25T14:02:31Z</time>
      </trkpt>
      <trkpt lat="50.03588" lon="2.33806">
        <ele>140.8</ele>
        <time>2023-10-25T14:02:32Z</time>
      </trkpt>
      <trkpt lat="50.03587" lon="2.33806">
        <ele>140.7</ele>
        <time>2023-10-25T14:02:33Z</time>
      </trkpt>
      <trkpt lat="50.03586" lon="2.33807">
        <ele>140.7</ele>
        <time>2023-10-25T14:02:34Z</time>
      </trkpt>
      <trkpt lat="50.03586" lon="2.33808">
        <ele>140.7</ele>
        <time>2023-10-25T14:02:35Z</time>
      </trkpt>
      <trkpt lat="50.03585" lon="2.33809">
        <ele>140.7</ele>
        <time>2023-10-25T14:02:36Z</time>
      </trkpt>
      <trkpt lat="50.03584" lon="2.3381">
        <ele>140.7</ele>
        <time>2023-10-25T14:02:37Z</time>
      </trkpt>
      <trkpt lat="50.03584" lon="2.33811">
        <ele>140.7</ele>
        <time>2023-10-25T14:02:38Z</time>
      </trkpt>
      <trkpt lat="50.03583" lon="2.33811">
        <ele>140.7</ele>
        <time>2023-10-25T14:02:39Z</time>
      </trkpt>
      <trkpt lat="50.03583" lon="2.33812">
        <ele>140.7</ele>
        <time>2023-10-25T14:02:40Z</time>
      </trkpt>
      <trkpt lat="50.03582" lon="2.33812">
        <ele>140.7</ele>
        <time>2023-10-25T14:02:41Z</time>
      </trkpt>
      <trkpt lat="50.03582" lon="2.33812">
        <ele>140.7</ele>
        <time>2023-10-25T14:02:42Z</time>
      </trkpt>
      <trkpt lat="50.03581" lon="2.33812">
        <ele>140.7</ele>
        <time>2023-10-25T14:02:43Z</time>
      </trkpt>
      <trkpt lat="50.03581" lon="2.33812">
        <ele>140.6</ele>
        <time>2023-10-25T14:02:44Z</time>
      </trkpt>
      <trkpt lat="50.03581" lon="2.33811">
        <ele>140.6</ele>
        <time>2023-10-25T14:02:45Z</time>
      </trkpt>
      <trkpt lat="50.0358" lon="2.33811">
        <ele>140.6</ele>
        <time>2023-10-25T14:02:46Z</time>
      </trkpt>
      <trkpt lat="50.0358" lon="2.3381">
        <ele>140.6</ele>
        <time>2023-10-25T14:02:47Z</time>
      </trkpt>
      <trkpt lat="50.03581" lon="2.3381">
        <ele>140.6</ele>
        <time>2023-10-25T14:02:48Z</time>
      </trkpt>
      <trkpt lat="50.03581" lon="2.3381">
        <ele>140.6</ele>
        <time>2023-10-25T14:02:49Z</time>
      </trkpt>
      <trkpt lat="50.03581" lon="2.3381">
        <ele>140.6</ele>
        <time>2023-10-25T14:02:50Z</time>
      </trkpt>
      <trkpt lat="50.03581" lon="2.3381">
        <ele>140.6</ele>
        <time>2023-10-25T14:02:51Z</time>
      </trkpt>
      <trkpt lat="50.03581" lon="2.33809">
        <ele>140.6</ele>
        <time>2023-10-25T14:02:52Z</time>
      </trkpt>
      <trkpt lat="50.03581" lon="2.33809">
        <ele>140.6</ele>
        <time>2023-10-25T14:02:53Z</time>
      </trkpt>
      <trkpt lat="50.03581" lon="2.33809">
        <ele>140.6</ele>
        <time>2023-10-25T14:02:54Z</time>
      </trkpt>
      <trkpt lat="50.03581" lon="2.33809">
        <ele>140.6</ele>
        <time>2023-10-25T14:02:55Z</time>
      </trkpt>
      <trkpt lat="50.03581" lon="2.33809">
        <ele>140.6</ele>
        <time>2023-10-25T14:02:56Z</time>
      </trkpt>
      <trkpt lat="50.03581" lon="2.33809">
        <ele>140.6</ele>
        <time>2023-10-25T14:02:57Z</time>
      </trkpt>
      <trkpt lat="50.03581" lon="2.33809">
        <ele>140.6</ele>
        <time>2023-10-25T14:02:58Z</time>
      </trkpt>
      <trkpt lat="50.03581" lon="2.33809">
        <ele>140.6</ele>
        <time>2023-10-25T14:02:59Z</time>
      </trkpt>
      <trkpt lat="50.03581" lon="2.33809">
        <ele>140.6</ele>
        <time>2023-10-25T14:03:00Z</time>
      </trkpt>
      <trkpt lat="50.03581" lon="2.33809">
        <ele>140.6</ele>
        <time>2023-10-25T14:03:01Z</time>
      </trkpt>
      <trkpt lat="50.03581" lon="2.33809">
        <ele>140.6</ele>
        <time>2023-10-25T14:03:02Z</time>
      </trkpt>
      <trkpt lat="50.03581" lon="2.33809">
        <ele>140.6</ele>
        <time>2023-10-25T14:03:03Z</time>
      </trkpt>
      <trkpt lat="50.03581" lon="2.33809">
        <ele>140.6</ele>
        <time>2023-10-25T14:03:04Z</time>
      </trkpt>
      <trkpt lat="50.03581" lon="2.33809">
        <ele>140.6</ele>
        <time>2023-10-25T14:03:05Z</time>
      </trkpt>
      <trkpt lat="50.03581" lon="2.33809">
        <ele>140.6</ele>
        <time>2023-10-25T14:03:06Z</time>
      </trkpt>
      <trkpt lat="50.03582" lon="2.33812">
        <ele>140.6</ele>
        <time>2023-10-25T14:03:29Z</time>
      </trkpt>
      <trkpt lat="50.03581" lon="2.33813">
        <ele>140.6</ele>
        <time>2023-10-25T14:03:30Z</time>
      </trkpt>
      <trkpt lat="50.0358" lon="2.33815">
        <ele>140.6</ele>
        <time>2023-10-25T14:03:31Z</time>
      </trkpt>
      <trkpt lat="50.03579" lon="2.33816">
        <ele>140.6</ele>
        <time>2023-10-25T14:03:32Z</time>
      </trkpt>
      <trkpt lat="50.03578" lon="2.33818">
        <ele>140.5</ele>
        <time>2023-10-25T14:03:33Z</time>
      </trkpt>
      <trkpt lat="50.03577" lon="2.33819">
        <ele>140.6</ele>
        <time>2023-10-25T14:03:34Z</time>
      </trkpt>
      <trkpt lat="50.03577" lon="2.33821">
        <ele>140.6</ele>
        <time>2023-10-25T14:03:35Z</time>
      </trkpt>
      <trkpt lat="50.03576" lon="2.33822">
        <ele>140.6</ele>
        <time>2023-10-25T14:03:36Z</time>
      </trkpt>
      <trkpt lat="50.03576" lon="2.33824">
        <ele>140.6</ele>
        <time>2023-10-25T14:03:37Z</time>
      </trkpt>
      <trkpt lat="50.03576" lon="2.33825">
        <ele>140.6</ele>
        <time>2023-10-25T14:03:38Z</time>
      </trkpt>
      <trkpt lat="50.03576" lon="2.33827">
        <ele>140.6</ele>
        <time>2023-10-25T14:03:39Z</time>
      </trkpt>
      <trkpt lat="50.03575" lon="2.33829">
        <ele>140.7</ele>
        <time>2023-10-25T14:03:40Z</time>
      </trkpt>
      <trkpt lat="50.03575" lon="2.33831">
        <ele>140.7</ele>
        <time>2023-10-25T14:03:41Z</time>
      </trkpt>
      <trkpt lat="50.03575" lon="2.33832">
        <ele>140.7</ele>
        <time>2023-10-25T14:03:42Z</time>
      </trkpt>
      <trkpt lat="50.03575" lon="2.33834">
        <ele>140.7</ele>
        <time>2023-10-25T14:03:43Z</time>
      </trkpt>
      <trkpt lat="50.03575" lon="2.33835">
        <ele>140.7</ele>
        <time>2023-10-25T14:03:44Z</time>
      </trkpt>
      <trkpt lat="50.03575" lon="2.33837">
        <ele>140.7</ele>
        <time>2023-10-25T14:03:45Z</time>
      </trkpt>
      <trkpt lat="50.03575" lon="2.33839">
        <ele>140.7</ele>
        <time>2023-10-25T14:03:46Z</time>
      </trkpt>
      <trkpt lat="50.03574" lon="2.3384">
        <ele>140.7</ele>
        <time>2023-10-25T14:03:47Z</time>
      </trkpt>
      <trkpt lat="50.03574" lon="2.33842">
        <ele>140.7</ele>
        <time>2023-10-25T14:03:48Z</time>
      </trkpt>
      <trkpt lat="50.03574" lon="2.33844">
        <ele>140.8</ele>
        <time>2023-10-25T14:03:49Z</time>
      </trkpt>
      <trkpt lat="50.03574" lon="2.33846">
        <ele>140.8</ele>
        <time>2023-10-25T14:03:50Z</time>
      </trkpt>
      <trkpt lat="50.03573" lon="2.33847">
        <ele>140.8</ele>
        <time>2023-10-25T14:03:51Z</time>
      </trkpt>
      <trkpt lat="50.03573" lon="2.33849">
        <ele>140.8</ele>
        <time>2023-10-25T14:03:52Z</time>
      </trkpt>
      <trkpt lat="50.03573" lon="2.3385">
        <ele>140.8</ele>
        <time>2023-10-25T14:03:53Z</time>
      </trkpt>
      <trkpt lat="50.03573" lon="2.33852">
        <ele>140.8</ele>
        <time>2023-10-25T14:03:54Z</time>
      </trkpt>
      <trkpt lat="50.03573" lon="2.33853">
        <ele>140.8</ele>
        <time>2023-10-25T14:03:55Z</time>
      </trkpt>
      <trkpt lat="50.03572" lon="2.33855">
        <ele>140.8</ele>
        <time>2023-10-25T14:03:56Z</time>
      </trkpt>
      <trkpt lat="50.03572" lon="2.33857">
        <ele>140.8</ele>
        <time>2023-10-25T14:03:57Z</time>
      </trkpt>
      <trkpt lat="50.03572" lon="2.33859">
        <ele>140.8</ele>
        <time>2023-10-25T14:03:58Z</time>
      </trkpt>
      <trkpt lat="50.03572" lon="2.33862">
        <ele>140.8</ele>
        <time>2023-10-25T14:03:59Z</time>
      </trkpt>
      <trkpt lat="50.03572" lon="2.33863">
        <ele>140.8</ele>
        <time>2023-10-25T14:04:00Z</time>
      </trkpt>
      <trkpt lat="50.03572" lon="2.33865">
        <ele>140.8</ele>
        <time>2023-10-25T14:04:01Z</time>
      </trkpt>
      <trkpt lat="50.03572" lon="2.33866">
        <ele>140.8</ele>
        <time>2023-10-25T14:04:02Z</time>
      </trkpt>
      <trkpt lat="50.03571" lon="2.33868">
        <ele>140.8</ele>
        <time>2023-10-25T14:04:03Z</time>
      </trkpt>
      <trkpt lat="50.03571" lon="2.3387">
        <ele>140.8</ele>
        <time>2023-10-25T14:04:04Z</time>
      </trkpt>
      <trkpt lat="50.03571" lon="2.33871">
        <ele>140.8</ele>
        <time>2023-10-25T14:04:05Z</time>
      </trkpt>
      <trkpt lat="50.03571" lon="2.33873">
        <ele>140.8</ele>
        <time>2023-10-25T14:04:06Z</time>
      </trkpt>
      <trkpt lat="50.0357" lon="2.33875">
        <ele>140.9</ele>
        <time>2023-10-25T14:04:07Z</time>
      </trkpt>
      <trkpt lat="50.0357" lon="2.33877">
        <ele>140.9</ele>
        <time>2023-10-25T14:04:08Z</time>
      </trkpt>
      <trkpt lat="50.0357" lon="2.33878">
        <ele>140.9</ele>
        <time>2023-10-25T14:04:09Z</time>
      </trkpt>
      <trkpt lat="50.0357" lon="2.3388">
        <ele>140.9</ele>
        <time>2023-10-25T14:04:10Z</time>
      </trkpt>
      <trkpt lat="50.03569" lon="2.33882">
        <ele>140.9</ele>
        <time>2023-10-25T14:04:11Z</time>
      </trkpt>
      <trkpt lat="50.03569" lon="2.33883">
        <ele>140.9</ele>
        <time>2023-10-25T14:04:12Z</time>
      </trkpt>
      <trkpt lat="50.03569" lon="2.33885">
        <ele>140.9</ele>
        <time>2023-10-25T14:04:13Z</time>
      </trkpt>
      <trkpt lat="50.03569" lon="2.33887">
        <ele>140.9</ele>
        <time>2023-10-25T14:04:14Z</time>
      </trkpt>
      <trkpt lat="50.03569" lon="2.33888">
        <ele>140.9</ele>
        <time>2023-10-25T14:04:15Z</time>
      </trkpt>
      <trkpt lat="50.03568" lon="2.3389">
        <ele>140.9</ele>
        <time>2023-10-25T14:04:16Z</time>
      </trkpt>
      <trkpt lat="50.03568" lon="2.33893">
        <ele>140.9</ele>
        <time>2023-10-25T14:04:17Z</time>
      </trkpt>
      <trkpt lat="50.03568" lon="2.33894">
        <ele>140.9</ele>
        <time>2023-10-25T14:04:18Z</time>
      </trkpt>
      <trkpt lat="50.03568" lon="2.33896">
        <ele>140.9</ele>
        <time>2023-10-25T14:04:19Z</time>
      </trkpt>
      <trkpt lat="50.03568" lon="2.33898">
        <ele>140.9</ele>
        <time>2023-10-25T14:04:20Z</time>
      </trkpt>
      <trkpt lat="50.03568" lon="2.33899">
        <ele>140.9</ele>
        <time>2023-10-25T14:04:21Z</time>
      </trkpt>
      <trkpt lat="50.03568" lon="2.33901">
        <ele>140.9</ele>
        <time>2023-10-25T14:04:22Z</time>
      </trkpt>
      <trkpt lat="50.03568" lon="2.33903">
        <ele>140.9</ele>
        <time>2023-10-25T14:04:23Z</time>
      </trkpt>
      <trkpt lat="50.03568" lon="2.33904">
        <ele>140.9</ele>
        <time>2023-10-25T14:04:24Z</time>
      </trkpt>
      <trkpt lat="50.03568" lon="2.33906">
        <ele>140.9</ele>
        <time>2023-10-25T14:04:25Z</time>
      </trkpt>
      <trkpt lat="50.03568" lon="2.33908">
        <ele>140.9</ele>
        <time>2023-10-25T14:04:26Z</time>
      </trkpt>
      <trkpt lat="50.03568" lon="2.33909">
        <ele>140.9</ele>
        <time>2023-10-25T14:04:27Z</time>
      </trkpt>
      <trkpt lat="50.03568" lon="2.33911">
        <ele>140.9</ele>
        <time>2023-10-25T14:04:28Z</time>
      </trkpt>
      <trkpt lat="50.03568" lon="2.33913">
        <ele>140.9</ele>
        <time>2023-10-25T14:04:29Z</time>
      </trkpt>
      <trkpt lat="50.03568" lon="2.33915">
        <ele>140.9</ele>
        <time>2023-10-25T14:04:30Z</time>
      </trkpt>
      <trkpt lat="50.03568" lon="2.33916">
        <ele>140.9</ele>
        <time>2023-10-25T14:04:31Z</time>
      </trkpt>
      <trkpt lat="50.03568" lon="2.33918">
        <ele>140.9</ele>
        <time>2023-10-25T14:04:32Z</time>
      </trkpt>
      <trkpt lat="50.03568" lon="2.3392">
        <ele>140.9</ele>
        <time>2023-10-25T14:04:33Z</time>
      </trkpt>
      <trkpt lat="50.03568" lon="2.33921">
        <ele>140.9</ele>
        <time>2023-10-25T14:04:34Z</time>
      </trkpt>
      <trkpt lat="50.03568" lon="2.33923">
        <ele>140.9</ele>
        <time>2023-10-25T14:04:35Z</time>
      </trkpt>
      <trkpt lat="50.03568" lon="2.33925">
        <ele>140.9</ele>
        <time>2023-10-25T14:04:36Z</time>
      </trkpt>
      <trkpt lat="50.03568" lon="2.33927">
        <ele>140.9</ele>
        <time>2023-10-25T14:04:37Z</time>
      </trkpt>
      <trkpt lat="50.03568" lon="2.3393">
        <ele>140.9</ele>
        <time>2023-10-25T14:04:38Z</time>
      </trkpt>
      <trkpt lat="50.03568" lon="2.33931">
        <ele>140.9</ele>
        <time>2023-10-25T14:04:39Z</time>
      </trkpt>
      <trkpt lat="50.03568" lon="2.33932">
        <ele>140.9</ele>
        <time>2023-10-25T14:04:40Z</time>
      </trkpt>
      <trkpt lat="50.03568" lon="2.33934">
        <ele>140.9</ele>
        <time>2023-10-25T14:04:41Z</time>
      </trkpt>
      <trkpt lat="50.03568" lon="2.33936">
        <ele>140.9</ele>
        <time>2023-10-25T14:04:42Z</time>
      </trkpt>
      <trkpt lat="50.03568" lon="2.33938">
        <ele>140.9</ele>
        <time>2023-10-25T14:04:43Z</time>
      </trkpt>
      <trkpt lat="50.03568" lon="2.33939">
        <ele>140.9</ele>
        <time>2023-10-25T14:04:44Z</time>
      </trkpt>
      <trkpt lat="50.03568" lon="2.33941">
        <ele>140.9</ele>
        <time>2023-10-25T14:04:45Z</time>
      </trkpt>
      <trkpt lat="50.03568" lon="2.33943">
        <ele>140.9</ele>
        <time>2023-10-25T14:04:46Z</time>
      </trkpt>
      <trkpt lat="50.03568" lon="2.33946">
        <ele>140.9</ele>
        <time>2023-10-25T14:04:47Z</time>
      </trkpt>
      <trkpt lat="50.03568" lon="2.33947">
        <ele>140.9</ele>
        <time>2023-10-25T14:04:48Z</time>
      </trkpt>
      <trkpt lat="50.03567" lon="2.33949">
        <ele>140.9</ele>
        <time>2023-10-25T14:04:49Z</time>
      </trkpt>
      <trkpt lat="50.03567" lon="2.3395">
        <ele>140.9</ele>
        <time>2023-10-25T14:04:50Z</time>
      </trkpt>
      <trkpt lat="50.03567" lon="2.33952">
        <ele>140.9</ele>
        <time>2023-10-25T14:04:51Z</time>
      </trkpt>
      <trkpt lat="50.03567" lon="2.33954">
        <ele>140.9</ele>
        <time>2023-10-25T14:04:52Z</time>
      </trkpt>
      <trkpt lat="50.03566" lon="2.33955">
        <ele>140.9</ele>
        <time>2023-10-25T14:04:53Z</time>
      </trkpt>
      <trkpt lat="50.03566" lon="2.33956">
        <ele>140.9</ele>
        <time>2023-10-25T14:04:54Z</time>
      </trkpt>
      <trkpt lat="50.03565" lon="2.33958">
        <ele>140.9</ele>
        <time>2023-10-25T14:04:55Z</time>
      </trkpt>
      <trkpt lat="50.03564" lon="2.33958">
        <ele>140.9</ele>
        <time>2023-10-25T14:04:56Z</time>
      </trkpt>
      <trkpt lat="50.03563" lon="2.33959">
        <ele>140.9</ele>
        <time>2023-10-25T14:04:57Z</time>
      </trkpt>
      <trkpt lat="50.03562" lon="2.33959">
        <ele>140.8</ele>
        <time>2023-10-25T14:04:58Z</time>
      </trkpt>
      <trkpt lat="50.0356" lon="2.33958">
        <ele>140.8</ele>
        <time>2023-10-25T14:04:59Z</time>
      </trkpt>
      <trkpt lat="50.03559" lon="2.33958">
        <ele>140.8</ele>
        <time>2023-10-25T14:05:00Z</time>
      </trkpt>
      <trkpt lat="50.03558" lon="2.33957">
        <ele>140.8</ele>
        <time>2023-10-25T14:05:01Z</time>
      </trkpt>
      <trkpt lat="50.03557" lon="2.33957">
        <ele>140.8</ele>
        <time>2023-10-25T14:05:02Z</time>
      </trkpt>
      <trkpt lat="50.03556" lon="2.33956">
        <ele>140.8</ele>
        <time>2023-10-25T14:05:03Z</time>
      </trkpt>
      <trkpt lat="50.03555" lon="2.33955">
        <ele>140.8</ele>
        <time>2023-10-25T14:05:04Z</time>
      </trkpt>
      <trkpt lat="50.03554" lon="2.33955">
        <ele>140.8</ele>
        <time>2023-10-25T14:05:05Z</time>
      </trkpt>
      <trkpt lat="50.03553" lon="2.33954">
        <ele>140.8</ele>
        <time>2023-10-25T14:05:06Z</time>
      </trkpt>
      <trkpt lat="50.03552" lon="2.33953">
        <ele>140.8</ele>
        <time>2023-10-25T14:05:07Z</time>
      </trkpt>
      <trkpt lat="50.03551" lon="2.33952">
        <ele>140.8</ele>
        <time>2023-10-25T14:05:08Z</time>
      </trkpt>
      <trkpt lat="50.0355" lon="2.33951">
        <ele>140.7</ele>
        <time>2023-10-25T14:05:09Z</time>
      </trkpt>
      <trkpt lat="50.03549" lon="2.3395">
        <ele>140.7</ele>
        <time>2023-10-25T14:05:10Z</time>
      </trkpt>
      <trkpt lat="50.03548" lon="2.33949">
        <ele>140.7</ele>
        <time>2023-10-25T14:05:11Z</time>
      </trkpt>
      <trkpt lat="50.03547" lon="2.33948">
        <ele>140.7</ele>
        <time>2023-10-25T14:05:12Z</time>
      </trkpt>
      <trkpt lat="50.03546" lon="2.33948">
        <ele>140.7</ele>
        <time>2023-10-25T14:05:13Z</time>
      </trkpt>
      <trkpt lat="50.03545" lon="2.33947">
        <ele>140.7</ele>
        <time>2023-10-25T14:05:14Z</time>
      </trkpt>
      <trkpt lat="50.03544" lon="2.33946">
        <ele>140.7</ele>
        <time>2023-10-25T14:05:15Z</time>
      </trkpt>
      <trkpt lat="50.03543" lon="2.33944">
        <ele>140.7</ele>
        <time>2023-10-25T14:05:16Z</time>
      </trkpt>
      <trkpt lat="50.03543" lon="2.33943">
        <ele>140.7</ele>
        <time>2023-10-25T14:05:17Z</time>
      </trkpt>
      <trkpt lat="50.03542" lon="2.33942">
        <ele>140.7</ele>
        <time>2023-10-25T14:05:18Z</time>
      </trkpt>
      <trkpt lat="50.03541" lon="2.33941">
        <ele>140.7</ele>
        <time>2023-10-25T14:05:19Z</time>
      </trkpt>
      <trkpt lat="50.0354" lon="2.33939">
        <ele>140.7</ele>
        <time>2023-10-25T14:05:20Z</time>
      </trkpt>
      <trkpt lat="50.03539" lon="2.33938">
        <ele>140.7</ele>
        <time>2023-10-25T14:05:21Z</time>
      </trkpt>
      <trkpt lat="50.03539" lon="2.33936">
        <ele>140.7</ele>
        <time>2023-10-25T14:05:22Z</time>
      </trkpt>
      <trkpt lat="50.03538" lon="2.33935">
        <ele>140.7</ele>
        <time>2023-10-25T14:05:23Z</time>
      </trkpt>
      <trkpt lat="50.03537" lon="2.33934">
        <ele>140.7</ele>
        <time>2023-10-25T14:05:24Z</time>
      </trkpt>
      <trkpt lat="50.03537" lon="2.33933">
        <ele>140.7</ele>
        <time>2023-10-25T14:05:25Z</time>
      </trkpt>
      <trkpt lat="50.03536" lon="2.33932">
        <ele>140.7</ele>
        <time>2023-10-25T14:05:26Z</time>
      </trkpt>
      <trkpt lat="50.03535" lon="2.33931">
        <ele>140.6</ele>
        <time>2023-10-25T14:05:27Z</time>
      </trkpt>
      <trkpt lat="50.03534" lon="2.33929">
        <ele>140.6</ele>
        <time>2023-10-25T14:05:28Z</time>
      </trkpt>
      <trkpt lat="50.03533" lon="2.33927">
        <ele>140.6</ele>
        <time>2023-10-25T14:05:29Z</time>
      </trkpt>
      <trkpt lat="50.03532" lon="2.33926">
        <ele>140.6</ele>
        <time>2023-10-25T14:05:30Z</time>
      </trkpt>
      <trkpt lat="50.03532" lon="2.33925">
        <ele>140.6</ele>
        <time>2023-10-25T14:05:31Z</time>
      </trkpt>
      <trkpt lat="50.0353" lon="2.33923">
        <ele>140.6</ele>
        <time>2023-10-25T14:05:32Z</time>
      </trkpt>
      <trkpt lat="50.03529" lon="2.33923">
        <ele>140.6</ele>
        <time>2023-10-25T14:05:33Z</time>
      </trkpt>
      <trkpt lat="50.03529" lon="2.33922">
        <ele>140.6</ele>
        <time>2023-10-25T14:05:34Z</time>
      </trkpt>
      <trkpt lat="50.03528" lon="2.33921">
        <ele>140.6</ele>
        <time>2023-10-25T14:05:35Z</time>
      </trkpt>
      <trkpt lat="50.03527" lon="2.3392">
        <ele>140.6</ele>
        <time>2023-10-25T14:05:36Z</time>
      </trkpt>
      <trkpt lat="50.03526" lon="2.33919">
        <ele>140.6</ele>
        <time>2023-10-25T14:05:37Z</time>
      </trkpt>
      <trkpt lat="50.03525" lon="2.33918">
        <ele>140.6</ele>
        <time>2023-10-25T14:05:38Z</time>
      </trkpt>
      <trkpt lat="50.03524" lon="2.33917">
        <ele>140.6</ele>
        <time>2023-10-25T14:05:39Z</time>
      </trkpt>
      <trkpt lat="50.03523" lon="2.33916">
        <ele>140.6</ele>
        <time>2023-10-25T14:05:40Z</time>
      </trkpt>
      <trkpt lat="50.03522" lon="2.33915">
        <ele>140.6</ele>
        <time>2023-10-25T14:05:41Z</time>
      </trkpt>
      <trkpt lat="50.03521" lon="2.33914">
        <ele>140.6</ele>
        <time>2023-10-25T14:05:42Z</time>
      </trkpt>
      <trkpt lat="50.0352" lon="2.33913">
        <ele>140.6</ele>
        <time>2023-10-25T14:05:43Z</time>
      </trkpt>
      <trkpt lat="50.03519" lon="2.33912">
        <ele>140.6</ele>
        <time>2023-10-25T14:05:44Z</time>
      </trkpt>
      <trkpt lat="50.03519" lon="2.33912">
        <ele>140.5</ele>
        <time>2023-10-25T14:05:45Z</time>
      </trkpt>
      <trkpt lat="50.03518" lon="2.33911">
        <ele>140.5</ele>
        <time>2023-10-25T14:05:46Z</time>
      </trkpt>
      <trkpt lat="50.03517" lon="2.3391">
        <ele>140.5</ele>
        <time>2023-10-25T14:05:47Z</time>
      </trkpt>
      <trkpt lat="50.03516" lon="2.33909">
        <ele>140.5</ele>
        <time>2023-10-25T14:05:48Z</time>
      </trkpt>
      <trkpt lat="50.03515" lon="2.33908">
        <ele>140.5</ele>
        <time>2023-10-25T14:05:49Z</time>
      </trkpt>
      <trkpt lat="50.03514" lon="2.33907">
        <ele>140.5</ele>
        <time>2023-10-25T14:05:50Z</time>
      </trkpt>
      <trkpt lat="50.03513" lon="2.33906">
        <ele>140.5</ele>
        <time>2023-10-25T14:05:51Z</time>
      </trkpt>
      <trkpt lat="50.03512" lon="2.33905">
        <ele>140.5</ele>
        <time>2023-10-25T14:05:52Z</time>
      </trkpt>
      <trkpt lat="50.03511" lon="2.33904">
        <ele>140.5</ele>
        <time>2023-10-25T14:05:53Z</time>
      </trkpt>
      <trkpt lat="50.03511" lon="2.33903">
        <ele>140.5</ele>
        <time>2023-10-25T14:05:54Z</time>
      </trkpt>
      <trkpt lat="50.0351" lon="2.33902">
        <ele>140.5</ele>
        <time>2023-10-25T14:05:55Z</time>
      </trkpt>
      <trkpt lat="50.03509" lon="2.33902">
        <ele>140.5</ele>
        <time>2023-10-25T14:05:56Z</time>
      </trkpt>
      <trkpt lat="50.03508" lon="2.33901">
        <ele>140.5</ele>
        <time>2023-10-25T14:05:57Z</time>
      </trkpt>
      <trkpt lat="50.03507" lon="2.339">
        <ele>140.5</ele>
        <time>2023-10-25T14:05:58Z</time>
      </trkpt>
      <trkpt lat="50.03506" lon="2.33899">
        <ele>140.5</ele>
        <time>2023-10-25T14:05:59Z</time>
      </trkpt>
      <trkpt lat="50.03505" lon="2.33898">
        <ele>140.5</ele>
        <time>2023-10-25T14:06:00Z</time>
      </trkpt>
      <trkpt lat="50.03504" lon="2.33897">
        <ele>140.5</ele>
        <time>2023-10-25T14:06:01Z</time>
      </trkpt>
      <trkpt lat="50.03503" lon="2.33897">
        <ele>140.5</ele>
        <time>2023-10-25T14:06:02Z</time>
      </trkpt>
      <trkpt lat="50.03502" lon="2.33896">
        <ele>140.5</ele>
        <time>2023-10-25T14:06:03Z</time>
      </trkpt>
      <trkpt lat="50.03501" lon="2.33895">
        <ele>140.4</ele>
        <time>2023-10-25T14:06:04Z</time>
      </trkpt>
      <trkpt lat="50.035" lon="2.33895">
        <ele>140.4</ele>
        <time>2023-10-25T14:06:05Z</time>
      </trkpt>
      <trkpt lat="50.035" lon="2.33894">
        <ele>140.4</ele>
        <time>2023-10-25T14:06:06Z</time>
      </trkpt>
      <trkpt lat="50.03499" lon="2.33893">
        <ele>140.4</ele>
        <time>2023-10-25T14:06:07Z</time>
      </trkpt>
      <trkpt lat="50.03498" lon="2.33892">
        <ele>140.4</ele>
        <time>2023-10-25T14:06:08Z</time>
      </trkpt>
      <trkpt lat="50.03497" lon="2.33891">
        <ele>140.4</ele>
        <time>2023-10-25T14:06:09Z</time>
      </trkpt>
      <trkpt lat="50.03496" lon="2.3389">
        <ele>140.4</ele>
        <time>2023-10-25T14:06:10Z</time>
      </trkpt>
      <trkpt lat="50.03495" lon="2.33889">
        <ele>140.4</ele>
        <time>2023-10-25T14:06:11Z</time>
      </trkpt>
      <trkpt lat="50.03494" lon="2.33888">
        <ele>140.4</ele>
        <time>2023-10-25T14:06:12Z</time>
      </trkpt>
      <trkpt lat="50.03493" lon="2.33887">
        <ele>140.4</ele>
        <time>2023-10-25T14:06:13Z</time>
      </trkpt>
      <trkpt lat="50.03492" lon="2.33887">
        <ele>140.4</ele>
        <time>2023-10-25T14:06:14Z</time>
      </trkpt>
      <trkpt lat="50.03491" lon="2.33886">
        <ele>140.4</ele>
        <time>2023-10-25T14:06:15Z</time>
      </trkpt>
      <trkpt lat="50.0349" lon="2.33885">
        <ele>140.4</ele>
        <time>2023-10-25T14:06:16Z</time>
      </trkpt>
      <trkpt lat="50.0349" lon="2.33884">
        <ele>140.4</ele>
        <time>2023-10-25T14:06:17Z</time>
      </trkpt>
      <trkpt lat="50.03489" lon="2.33883">
        <ele>140.4</ele>
        <time>2023-10-25T14:06:18Z</time>
      </trkpt>
      <trkpt lat="50.03488" lon="2.33881">
        <ele>140.4</ele>
        <time>2023-10-25T14:06:19Z</time>
      </trkpt>
      <trkpt lat="50.03487" lon="2.3388">
        <ele>140.4</ele>
        <time>2023-10-25T14:06:20Z</time>
      </trkpt>
      <trkpt lat="50.03486" lon="2.33879">
        <ele>140.4</ele>
        <time>2023-10-25T14:06:21Z</time>
      </trkpt>
      <trkpt lat="50.03486" lon="2.33878">
        <ele>140.4</ele>
        <time>2023-10-25T14:06:22Z</time>
      </trkpt>
      <trkpt lat="50.03485" lon="2.33878">
        <ele>140.4</ele>
        <time>2023-10-25T14:06:23Z</time>
      </trkpt>
      <trkpt lat="50.03484" lon="2.33877">
        <ele>140.4</ele>
        <time>2023-10-25T14:06:24Z</time>
      </trkpt>
      <trkpt lat="50.03483" lon="2.33876">
        <ele>140.4</ele>
        <time>2023-10-25T14:06:25Z</time>
      </trkpt>
      <trkpt lat="50.03482" lon="2.33875">
        <ele>140.4</ele>
        <time>2023-10-25T14:06:26Z</time>
      </trkpt>
      <trkpt lat="50.03482" lon="2.33875">
        <ele>140.3</ele>
        <time>2023-10-25T14:06:27Z</time>
      </trkpt>
      <trkpt lat="50.03481" lon="2.33874">
        <ele>140.3</ele>
        <time>2023-10-25T14:06:28Z</time>
      </trkpt>
      <trkpt lat="50.0348" lon="2.33873">
        <ele>140.3</ele>
        <time>2023-10-25T14:06:29Z</time>
      </trkpt>
      <trkpt lat="50.03479" lon="2.33872">
        <ele>140.3</ele>
        <time>2023-10-25T14:06:30Z</time>
      </trkpt>
      <trkpt lat="50.03478" lon="2.33872">
        <ele>140.3</ele>
        <time>2023-10-25T14:06:31Z</time>
      </trkpt>
      <trkpt lat="50.03477" lon="2.33871">
        <ele>140.3</ele>
        <time>2023-10-25T14:06:32Z</time>
      </trkpt>
      <trkpt lat="50.03476" lon="2.33871">
        <ele>140.3</ele>
        <time>2023-10-25T14:06:33Z</time>
      </trkpt>
      <trkpt lat="50.03475" lon="2.3387">
        <ele>140.3</ele>
        <time>2023-10-25T14:06:34Z</time>
      </trkpt>
      <trkpt lat="50.03474" lon="2.33869">
        <ele>140.3</ele>
        <time>2023-10-25T14:06:35Z</time>
      </trkpt>
      <trkpt lat="50.03473" lon="2.33869">
        <ele>140.3</ele>
        <time>2023-10-25T14:06:36Z</time>
      </trkpt>
      <trkpt lat="50.03472" lon="2.33868">
        <ele>140.3</ele>
        <time>2023-10-25T14:06:37Z</time>
      </trkpt>
      <trkpt lat="50.03471" lon="2.33867">
        <ele>140.3</ele>
        <time>2023-10-25T14:06:38Z</time>
      </trkpt>
      <trkpt lat="50.0347" lon="2.33866">
        <ele>140.3</ele>
        <time>2023-10-25T14:06:39Z</time>
      </trkpt>
      <trkpt lat="50.03469" lon="2.33865">
        <ele>140.3</ele>
        <time>2023-10-25T14:06:40Z</time>
      </trkpt>
      <trkpt lat="50.03469" lon="2.33864">
        <ele>140.3</ele>
        <time>2023-10-25T14:06:41Z</time>
      </trkpt>
      <trkpt lat="50.03468" lon="2.33863">
        <ele>140.3</ele>
        <time>2023-10-25T14:06:42Z</time>
      </trkpt>
      <trkpt lat="50.03467" lon="2.33862">
        <ele>140.3</ele>
        <time>2023-10-25T14:06:43Z</time>
      </trkpt>
      <trkpt lat="50.03466" lon="2.33861">
        <ele>140.3</ele>
        <time>2023-10-25T14:06:44Z</time>
      </trkpt>
      <trkpt lat="50.03465" lon="2.3386">
        <ele>140.3</ele>
        <time>2023-10-25T14:06:45Z</time>
      </trkpt>
      <trkpt lat="50.03464" lon="2.33859">
        <ele>140.3</ele>
        <time>2023-10-25T14:06:46Z</time>
      </trkpt>
      <trkpt lat="50.03463" lon="2.33858">
        <ele>140.3</ele>
        <time>2023-10-25T14:06:47Z</time>
      </trkpt>
      <trkpt lat="50.03462" lon="2.33857">
        <ele>140.3</ele>
        <time>2023-10-25T14:06:48Z</time>
      </trkpt>
      <trkpt lat="50.03462" lon="2.33856">
        <ele>140.3</ele>
        <time>2023-10-25T14:06:49Z</time>
      </trkpt>
      <trkpt lat="50.0346" lon="2.33855">
        <ele>140.3</ele>
        <time>2023-10-25T14:06:50Z</time>
      </trkpt>
      <trkpt lat="50.03459" lon="2.33854">
        <ele>140.3</ele>
        <time>2023-10-25T14:06:51Z</time>
      </trkpt>
      <trkpt lat="50.03459" lon="2.33853">
        <ele>140.3</ele>
        <time>2023-10-25T14:06:52Z</time>
      </trkpt>
      <trkpt lat="50.03457" lon="2.33852">
        <ele>140.3</ele>
        <time>2023-10-25T14:06:53Z</time>
      </trkpt>
      <trkpt lat="50.03456" lon="2.3385">
        <ele>140.3</ele>
        <time>2023-10-25T14:06:54Z</time>
      </trkpt>
      <trkpt lat="50.03455" lon="2.33849">
        <ele>140.3</ele>
        <time>2023-10-25T14:06:55Z</time>
      </trkpt>
      <trkpt lat="50.03454" lon="2.33848">
        <ele>140.3</ele>
        <time>2023-10-25T14:06:56Z</time>
      </trkpt>
      <trkpt lat="50.03452" lon="2.33845">
        <ele>140.3</ele>
        <time>2023-10-25T14:06:57Z</time>
      </trkpt>
      <trkpt lat="50.03452" lon="2.33845">
        <ele>140.3</ele>
        <time>2023-10-25T14:06:58Z</time>
      </trkpt>
      <trkpt lat="50.03451" lon="2.33844">
        <ele>140.3</ele>
        <time>2023-10-25T14:06:59Z</time>
      </trkpt>
      <trkpt lat="50.0345" lon="2.33843">
        <ele>140.3</ele>
        <time>2023-10-25T14:07:00Z</time>
      </trkpt>
      <trkpt lat="50.03449" lon="2.33842">
        <ele>140.3</ele>
        <time>2023-10-25T14:07:01Z</time>
      </trkpt>
      <trkpt lat="50.03449" lon="2.33841">
        <ele>140.3</ele>
        <time>2023-10-25T14:07:02Z</time>
      </trkpt>
      <trkpt lat="50.03448" lon="2.3384">
        <ele>140.3</ele>
        <time>2023-10-25T14:07:03Z</time>
      </trkpt>
      <trkpt lat="50.03447" lon="2.33839">
        <ele>140.3</ele>
        <time>2023-10-25T14:07:04Z</time>
      </trkpt>
      <trkpt lat="50.03447" lon="2.33838">
        <ele>140.3</ele>
        <time>2023-10-25T14:07:05Z</time>
      </trkpt>
      <trkpt lat="50.03446" lon="2.33837">
        <ele>140.3</ele>
        <time>2023-10-25T14:07:06Z</time>
      </trkpt>
      <trkpt lat="50.03445" lon="2.33836">
        <ele>140.3</ele>
        <time>2023-10-25T14:07:07Z</time>
      </trkpt>
      <trkpt lat="50.03445" lon="2.33835">
        <ele>140.3</ele>
        <time>2023-10-25T14:07:08Z</time>
      </trkpt>
      <trkpt lat="50.03444" lon="2.33834">
        <ele>140.3</ele>
        <time>2023-10-25T14:07:09Z</time>
      </trkpt>
      <trkpt lat="50.03443" lon="2.33834">
        <ele>140.3</ele>
        <time>2023-10-25T14:07:10Z</time>
      </trkpt>
      <trkpt lat="50.03442" lon="2.33833">
        <ele>140.3</ele>
        <time>2023-10-25T14:07:11Z</time>
      </trkpt>
      <trkpt lat="50.03441" lon="2.33832">
        <ele>140.3</ele>
        <time>2023-10-25T14:07:12Z</time>
      </trkpt>
      <trkpt lat="50.0344" lon="2.33831">
        <ele>140.3</ele>
        <time>2023-10-25T14:07:13Z</time>
      </trkpt>
      <trkpt lat="50.03439" lon="2.3383">
        <ele>140.3</ele>
        <time>2023-10-25T14:07:14Z</time>
      </trkpt>
      <trkpt lat="50.03438" lon="2.33829">
        <ele>140.3</ele>
        <time>2023-10-25T14:07:15Z</time>
      </trkpt>
      <trkpt lat="50.03437" lon="2.33827">
        <ele>140.3</ele>
        <time>2023-10-25T14:07:16Z</time>
      </trkpt>
      <trkpt lat="50.03436" lon="2.33826">
        <ele>140.3</ele>
        <time>2023-10-25T14:07:17Z</time>
      </trkpt>
      <trkpt lat="50.03436" lon="2.33825">
        <ele>140.2</ele>
        <time>2023-10-25T14:07:18Z</time>
      </trkpt>
      <trkpt lat="50.03435" lon="2.33824">
        <ele>140.2</ele>
        <time>2023-10-25T14:07:19Z</time>
      </trkpt>
      <trkpt lat="50.03434" lon="2.33823">
        <ele>140.2</ele>
        <time>2023-10-25T14:07:20Z</time>
      </trkpt>
      <trkpt lat="50.03433" lon="2.33822">
        <ele>140.2</ele>
        <time>2023-10-25T14:07:21Z</time>
      </trkpt>
      <trkpt lat="50.03431" lon="2.33821">
        <ele>140.2</ele>
        <time>2023-10-25T14:07:22Z</time>
      </trkpt>
      <trkpt lat="50.03431" lon="2.3382">
        <ele>140.2</ele>
        <time>2023-10-25T14:07:23Z</time>
      </trkpt>
      <trkpt lat="50.0343" lon="2.33819">
        <ele>140.2</ele>
        <time>2023-10-25T14:07:24Z</time>
      </trkpt>
      <trkpt lat="50.03428" lon="2.33817">
        <ele>140.2</ele>
        <time>2023-10-25T14:07:25Z</time>
      </trkpt>
      <trkpt lat="50.03428" lon="2.33817">
        <ele>140.2</ele>
        <time>2023-10-25T14:07:26Z</time>
      </trkpt>
      <trkpt lat="50.03427" lon="2.33816">
        <ele>140.2</ele>
        <time>2023-10-25T14:07:27Z</time>
      </trkpt>
      <trkpt lat="50.03426" lon="2.33815">
        <ele>140.2</ele>
        <time>2023-10-25T14:07:28Z</time>
      </trkpt>
      <trkpt lat="50.03425" lon="2.33814">
        <ele>140.2</ele>
        <time>2023-10-25T14:07:29Z</time>
      </trkpt>
      <trkpt lat="50.03424" lon="2.33813">
        <ele>140.2</ele>
        <time>2023-10-25T14:07:30Z</time>
      </trkpt>
      <trkpt lat="50.03424" lon="2.33812">
        <ele>140.2</ele>
        <time>2023-10-25T14:07:31Z</time>
      </trkpt>
      <trkpt lat="50.03423" lon="2.33811">
        <ele>140.2</ele>
        <time>2023-10-25T14:07:32Z</time>
      </trkpt>
      <trkpt lat="50.03422" lon="2.3381">
        <ele>140.2</ele>
        <time>2023-10-25T14:07:33Z</time>
      </trkpt>
      <trkpt lat="50.03421" lon="2.33809">
        <ele>140.2</ele>
        <time>2023-10-25T14:07:34Z</time>
      </trkpt>
      <trkpt lat="50.0342" lon="2.33808">
        <ele>140.2</ele>
        <time>2023-10-25T14:07:35Z</time>
      </trkpt>
      <trkpt lat="50.03419" lon="2.33807">
        <ele>140.2</ele>
        <time>2023-10-25T14:07:36Z</time>
      </trkpt>
      <trkpt lat="50.03419" lon="2.33806">
        <ele>140.2</ele>
        <time>2023-10-25T14:07:37Z</time>
      </trkpt>
      <trkpt lat="50.03418" lon="2.33805">
        <ele>140.2</ele>
        <time>2023-10-25T14:07:38Z</time>
      </trkpt>
      <trkpt lat="50.03417" lon="2.33804">
        <ele>140.1</ele>
        <time>2023-10-25T14:07:39Z</time>
      </trkpt>
      <trkpt lat="50.03417" lon="2.33803">
        <ele>140.1</ele>
        <time>2023-10-25T14:07:40Z</time>
      </trkpt>
      <trkpt lat="50.03416" lon="2.33802">
        <ele>140.1</ele>
        <time>2023-10-25T14:07:41Z</time>
      </trkpt>
      <trkpt lat="50.03415" lon="2.33801">
        <ele>140.1</ele>
        <time>2023-10-25T14:07:42Z</time>
      </trkpt>
      <trkpt lat="50.03414" lon="2.338">
        <ele>140.1</ele>
        <time>2023-10-25T14:07:43Z</time>
      </trkpt>
      <trkpt lat="50.03413" lon="2.33799">
        <ele>140.1</ele>
        <time>2023-10-25T14:07:44Z</time>
      </trkpt>
      <trkpt lat="50.03412" lon="2.33798">
        <ele>140.1</ele>
        <time>2023-10-25T14:07:45Z</time>
      </trkpt>
      <trkpt lat="50.03411" lon="2.33796">
        <ele>140.1</ele>
        <time>2023-10-25T14:07:46Z</time>
      </trkpt>
      <trkpt lat="50.0341" lon="2.33795">
        <ele>140.1</ele>
        <time>2023-10-25T14:07:47Z</time>
      </trkpt>
      <trkpt lat="50.03409" lon="2.33794">
        <ele>140.1</ele>
        <time>2023-10-25T14:07:48Z</time>
      </trkpt>
      <trkpt lat="50.03408" lon="2.33792">
        <ele>140.1</ele>
        <time>2023-10-25T14:07:49Z</time>
      </trkpt>
      <trkpt lat="50.03407" lon="2.33791">
        <ele>140.1</ele>
        <time>2023-10-25T14:07:50Z</time>
      </trkpt>
      <trkpt lat="50.03406" lon="2.3379">
        <ele>140</ele>
        <time>2023-10-25T14:07:51Z</time>
      </trkpt>
      <trkpt lat="50.03405" lon="2.33789">
        <ele>140</ele>
        <time>2023-10-25T14:07:52Z</time>
      </trkpt>
      <trkpt lat="50.03405" lon="2.33789">
        <ele>140</ele>
        <time>2023-10-25T14:07:53Z</time>
      </trkpt>
      <trkpt lat="50.03404" lon="2.33788">
        <ele>140</ele>
        <time>2023-10-25T14:07:54Z</time>
      </trkpt>
      <trkpt lat="50.03403" lon="2.33787">
        <ele>140</ele>
        <time>2023-10-25T14:07:55Z</time>
      </trkpt>
      <trkpt lat="50.03402" lon="2.33785">
        <ele>140</ele>
        <time>2023-10-25T14:07:56Z</time>
      </trkpt>
      <trkpt lat="50.03401" lon="2.33784">
        <ele>140</ele>
        <time>2023-10-25T14:07:57Z</time>
      </trkpt>
      <trkpt lat="50.034" lon="2.33783">
        <ele>140</ele>
        <time>2023-10-25T14:07:58Z</time>
      </trkpt>
      <trkpt lat="50.034" lon="2.33782">
        <ele>140</ele>
        <time>2023-10-25T14:07:59Z</time>
      </trkpt>
      <trkpt lat="50.03399" lon="2.33781">
        <ele>140</ele>
        <time>2023-10-25T14:08:00Z</time>
      </trkpt>
      <trkpt lat="50.03398" lon="2.33781">
        <ele>140</ele>
        <time>2023-10-25T14:08:01Z</time>
      </trkpt>
      <trkpt lat="50.03397" lon="2.33779">
        <ele>140</ele>
        <time>2023-10-25T14:08:02Z</time>
      </trkpt>
      <trkpt lat="50.03396" lon="2.33778">
        <ele>139.9</ele>
        <time>2023-10-25T14:08:03Z</time>
      </trkpt>
      <trkpt lat="50.03395" lon="2.33778">
        <ele>139.9</ele>
        <time>2023-10-25T14:08:04Z</time>
      </trkpt>
      <trkpt lat="50.03395" lon="2.33777">
        <ele>139.9</ele>
        <time>2023-10-25T14:08:05Z</time>
      </trkpt>
      <trkpt lat="50.03394" lon="2.33776">
        <ele>139.9</ele>
        <time>2023-10-25T14:08:06Z</time>
      </trkpt>
      <trkpt lat="50.03393" lon="2.33775">
        <ele>139.9</ele>
        <time>2023-10-25T14:08:07Z</time>
      </trkpt>
      <trkpt lat="50.03393" lon="2.33774">
        <ele>139.9</ele>
        <time>2023-10-25T14:08:08Z</time>
      </trkpt>
      <trkpt lat="50.03392" lon="2.33773">
        <ele>139.9</ele>
        <time>2023-10-25T14:08:09Z</time>
      </trkpt>
      <trkpt lat="50.03391" lon="2.33772">
        <ele>139.9</ele>
        <time>2023-10-25T14:08:10Z</time>
      </trkpt>
      <trkpt lat="50.0339" lon="2.33771">
        <ele>139.9</ele>
        <time>2023-10-25T14:08:11Z</time>
      </trkpt>
      <trkpt lat="50.03389" lon="2.3377">
        <ele>139.9</ele>
        <time>2023-10-25T14:08:12Z</time>
      </trkpt>
      <trkpt lat="50.03388" lon="2.33769">
        <ele>139.9</ele>
        <time>2023-10-25T14:08:13Z</time>
      </trkpt>
      <trkpt lat="50.03388" lon="2.33768">
        <ele>139.9</ele>
        <time>2023-10-25T14:08:14Z</time>
      </trkpt>
      <trkpt lat="50.03387" lon="2.33767">
        <ele>139.9</ele>
        <time>2023-10-25T14:08:15Z</time>
      </trkpt>
      <trkpt lat="50.03386" lon="2.33765">
        <ele>139.8</ele>
        <time>2023-10-25T14:08:16Z</time>
      </trkpt>
      <trkpt lat="50.03384" lon="2.33763">
        <ele>139.8</ele>
        <time>2023-10-25T14:08:17Z</time>
      </trkpt>
      <trkpt lat="50.03384" lon="2.33762">
        <ele>139.8</ele>
        <time>2023-10-25T14:08:18Z</time>
      </trkpt>
      <trkpt lat="50.03383" lon="2.33761">
        <ele>139.8</ele>
        <time>2023-10-25T14:08:19Z</time>
      </trkpt>
      <trkpt lat="50.03382" lon="2.3376">
        <ele>139.8</ele>
        <time>2023-10-25T14:08:20Z</time>
      </trkpt>
      <trkpt lat="50.03382" lon="2.33759">
        <ele>139.8</ele>
        <time>2023-10-25T14:08:21Z</time>
      </trkpt>
      <trkpt lat="50.03381" lon="2.33757">
        <ele>139.8</ele>
        <time>2023-10-25T14:08:22Z</time>
      </trkpt>
      <trkpt lat="50.0338" lon="2.33756">
        <ele>139.8</ele>
        <time>2023-10-25T14:08:23Z</time>
      </trkpt>
      <trkpt lat="50.03379" lon="2.33755">
        <ele>139.8</ele>
        <time>2023-10-25T14:08:24Z</time>
      </trkpt>
      <trkpt lat="50.03378" lon="2.33753">
        <ele>139.8</ele>
        <time>2023-10-25T14:08:25Z</time>
      </trkpt>
      <trkpt lat="50.03377" lon="2.33751">
        <ele>139.8</ele>
        <time>2023-10-25T14:08:26Z</time>
      </trkpt>
      <trkpt lat="50.03376" lon="2.3375">
        <ele>139.7</ele>
        <time>2023-10-25T14:08:27Z</time>
      </trkpt>
      <trkpt lat="50.03376" lon="2.33749">
        <ele>139.7</ele>
        <time>2023-10-25T14:08:28Z</time>
      </trkpt>
      <trkpt lat="50.03374" lon="2.33747">
        <ele>139.7</ele>
        <time>2023-10-25T14:08:29Z</time>
      </trkpt>
      <trkpt lat="50.03374" lon="2.33747">
        <ele>139.7</ele>
        <time>2023-10-25T14:08:30Z</time>
      </trkpt>
      <trkpt lat="50.03373" lon="2.33746">
        <ele>139.7</ele>
        <time>2023-10-25T14:08:31Z</time>
      </trkpt>
      <trkpt lat="50.03372" lon="2.33745">
        <ele>139.7</ele>
        <time>2023-10-25T14:08:32Z</time>
      </trkpt>
      <trkpt lat="50.03371" lon="2.33744">
        <ele>139.7</ele>
        <time>2023-10-25T14:08:33Z</time>
      </trkpt>
      <trkpt lat="50.0337" lon="2.33743">
        <ele>139.7</ele>
        <time>2023-10-25T14:08:34Z</time>
      </trkpt>
      <trkpt lat="50.03369" lon="2.33741">
        <ele>139.7</ele>
        <time>2023-10-25T14:08:35Z</time>
      </trkpt>
      <trkpt lat="50.03368" lon="2.3374">
        <ele>139.7</ele>
        <time>2023-10-25T14:08:36Z</time>
      </trkpt>
      <trkpt lat="50.03367" lon="2.33739">
        <ele>139.7</ele>
        <time>2023-10-25T14:08:37Z</time>
      </trkpt>
      <trkpt lat="50.03367" lon="2.33738">
        <ele>139.7</ele>
        <time>2023-10-25T14:08:38Z</time>
      </trkpt>
      <trkpt lat="50.03366" lon="2.33736">
        <ele>139.7</ele>
        <time>2023-10-25T14:08:39Z</time>
      </trkpt>
      <trkpt lat="50.03365" lon="2.33735">
        <ele>139.6</ele>
        <time>2023-10-25T14:08:40Z</time>
      </trkpt>
      <trkpt lat="50.03364" lon="2.33734">
        <ele>139.6</ele>
        <time>2023-10-25T14:08:41Z</time>
      </trkpt>
      <trkpt lat="50.03364" lon="2.33733">
        <ele>139.6</ele>
        <time>2023-10-25T14:08:42Z</time>
      </trkpt>
      <trkpt lat="50.03363" lon="2.33731">
        <ele>139.6</ele>
        <time>2023-10-25T14:08:43Z</time>
      </trkpt>
      <trkpt lat="50.03362" lon="2.3373">
        <ele>139.6</ele>
        <time>2023-10-25T14:08:44Z</time>
      </trkpt>
      <trkpt lat="50.03361" lon="2.33729">
        <ele>139.6</ele>
        <time>2023-10-25T14:08:45Z</time>
      </trkpt>
      <trkpt lat="50.03361" lon="2.33727">
        <ele>139.6</ele>
        <time>2023-10-25T14:08:46Z</time>
      </trkpt>
      <trkpt lat="50.03359" lon="2.33725">
        <ele>139.6</ele>
        <time>2023-10-25T14:08:47Z</time>
      </trkpt>
      <trkpt lat="50.03359" lon="2.33724">
        <ele>139.6</ele>
        <time>2023-10-25T14:08:48Z</time>
      </trkpt>
      <trkpt lat="50.03358" lon="2.33723">
        <ele>139.6</ele>
        <time>2023-10-25T14:08:49Z</time>
      </trkpt>
      <trkpt lat="50.03357" lon="2.33721">
        <ele>139.6</ele>
        <time>2023-10-25T14:08:50Z</time>
      </trkpt>
      <trkpt lat="50.03356" lon="2.3372">
        <ele>139.6</ele>
        <time>2023-10-25T14:08:51Z</time>
      </trkpt>
      <trkpt lat="50.03355" lon="2.33719">
        <ele>139.6</ele>
        <time>2023-10-25T14:08:52Z</time>
      </trkpt>
      <trkpt lat="50.03355" lon="2.33718">
        <ele>139.6</ele>
        <time>2023-10-25T14:08:53Z</time>
      </trkpt>
      <trkpt lat="50.03354" lon="2.33717">
        <ele>139.6</ele>
        <time>2023-10-25T14:08:54Z</time>
      </trkpt>
      <trkpt lat="50.03353" lon="2.33716">
        <ele>139.6</ele>
        <time>2023-10-25T14:08:55Z</time>
      </trkpt>
      <trkpt lat="50.03352" lon="2.33715">
        <ele>139.6</ele>
        <time>2023-10-25T14:08:56Z</time>
      </trkpt>
      <trkpt lat="50.03352" lon="2.33714">
        <ele>139.6</ele>
        <time>2023-10-25T14:08:57Z</time>
      </trkpt>
      <trkpt lat="50.03351" lon="2.33713">
        <ele>139.6</ele>
        <time>2023-10-25T14:08:58Z</time>
      </trkpt>
      <trkpt lat="50.0335" lon="2.33712">
        <ele>139.6</ele>
        <time>2023-10-25T14:08:59Z</time>
      </trkpt>
      <trkpt lat="50.03349" lon="2.3371">
        <ele>139.6</ele>
        <time>2023-10-25T14:09:00Z</time>
      </trkpt>
      <trkpt lat="50.03348" lon="2.33709">
        <ele>139.6</ele>
        <time>2023-10-25T14:09:01Z</time>
      </trkpt>
      <trkpt lat="50.03347" lon="2.33708">
        <ele>139.6</ele>
        <time>2023-10-25T14:09:02Z</time>
      </trkpt>
      <trkpt lat="50.03346" lon="2.33707">
        <ele>139.6</ele>
        <time>2023-10-25T14:09:03Z</time>
      </trkpt>
      <trkpt lat="50.03346" lon="2.33706">
        <ele>139.6</ele>
        <time>2023-10-25T14:09:04Z</time>
      </trkpt>
      <trkpt lat="50.03345" lon="2.33705">
        <ele>139.6</ele>
        <time>2023-10-25T14:09:05Z</time>
      </trkpt>
      <trkpt lat="50.03344" lon="2.33704">
        <ele>139.6</ele>
        <time>2023-10-25T14:09:06Z</time>
      </trkpt>
      <trkpt lat="50.03343" lon="2.33703">
        <ele>139.6</ele>
        <time>2023-10-25T14:09:07Z</time>
      </trkpt>
      <trkpt lat="50.03343" lon="2.33702">
        <ele>139.6</ele>
        <time>2023-10-25T14:09:08Z</time>
      </trkpt>
      <trkpt lat="50.03342" lon="2.33701">
        <ele>139.6</ele>
        <time>2023-10-25T14:09:09Z</time>
      </trkpt>
      <trkpt lat="50.03341" lon="2.33699">
        <ele>139.5</ele>
        <time>2023-10-25T14:09:10Z</time>
      </trkpt>
      <trkpt lat="50.0334" lon="2.33698">
        <ele>139.5</ele>
        <time>2023-10-25T14:09:11Z</time>
      </trkpt>
      <trkpt lat="50.0334" lon="2.33697">
        <ele>139.5</ele>
        <time>2023-10-25T14:09:12Z</time>
      </trkpt>
      <trkpt lat="50.03339" lon="2.33696">
        <ele>139.5</ele>
        <time>2023-10-25T14:09:13Z</time>
      </trkpt>
      <trkpt lat="50.03338" lon="2.33694">
        <ele>139.5</ele>
        <time>2023-10-25T14:09:14Z</time>
      </trkpt>
      <trkpt lat="50.03337" lon="2.33693">
        <ele>139.5</ele>
        <time>2023-10-25T14:09:15Z</time>
      </trkpt>
      <trkpt lat="50.03336" lon="2.33692">
        <ele>139.5</ele>
        <time>2023-10-25T14:09:16Z</time>
      </trkpt>
      <trkpt lat="50.03336" lon="2.33691">
        <ele>139.4</ele>
        <time>2023-10-25T14:09:17Z</time>
      </trkpt>
      <trkpt lat="50.03335" lon="2.33689">
        <ele>139.4</ele>
        <time>2023-10-25T14:09:18Z</time>
      </trkpt>
      <trkpt lat="50.03334" lon="2.33688">
        <ele>139.4</ele>
        <time>2023-10-25T14:09:19Z</time>
      </trkpt>
      <trkpt lat="50.03332" lon="2.33686">
        <ele>139.3</ele>
        <time>2023-10-25T14:09:20Z</time>
      </trkpt>
      <trkpt lat="50.03332" lon="2.33685">
        <ele>139.3</ele>
        <time>2023-10-25T14:09:21Z</time>
      </trkpt>
      <trkpt lat="50.03331" lon="2.33684">
        <ele>139.3</ele>
        <time>2023-10-25T14:09:22Z</time>
      </trkpt>
      <trkpt lat="50.0333" lon="2.33681">
        <ele>139.3</ele>
        <time>2023-10-25T14:09:23Z</time>
      </trkpt>
      <trkpt lat="50.03329" lon="2.33681">
        <ele>139.3</ele>
        <time>2023-10-25T14:09:24Z</time>
      </trkpt>
      <trkpt lat="50.03329" lon="2.3368">
        <ele>139.2</ele>
        <time>2023-10-25T14:09:25Z</time>
      </trkpt>
      <trkpt lat="50.03328" lon="2.33678">
        <ele>139.2</ele>
        <time>2023-10-25T14:09:26Z</time>
      </trkpt>
      <trkpt lat="50.03327" lon="2.33677">
        <ele>139.2</ele>
        <time>2023-10-25T14:09:27Z</time>
      </trkpt>
      <trkpt lat="50.03327" lon="2.33675">
        <ele>139.2</ele>
        <time>2023-10-25T14:09:28Z</time>
      </trkpt>
      <trkpt lat="50.03325" lon="2.33673">
        <ele>139.1</ele>
        <time>2023-10-25T14:09:29Z</time>
      </trkpt>
      <trkpt lat="50.03325" lon="2.33672">
        <ele>139.1</ele>
        <time>2023-10-25T14:09:30Z</time>
      </trkpt>
      <trkpt lat="50.03324" lon="2.33671">
        <ele>139.1</ele>
        <time>2023-10-25T14:09:31Z</time>
      </trkpt>
      <trkpt lat="50.03323" lon="2.33668">
        <ele>139</ele>
        <time>2023-10-25T14:09:32Z</time>
      </trkpt>
      <trkpt lat="50.03323" lon="2.33667">
        <ele>139</ele>
        <time>2023-10-25T14:09:33Z</time>
      </trkpt>
      <trkpt lat="50.03322" lon="2.33666">
        <ele>139</ele>
        <time>2023-10-25T14:09:34Z</time>
      </trkpt>
      <trkpt lat="50.03321" lon="2.33664">
        <ele>139</ele>
        <time>2023-10-25T14:09:35Z</time>
      </trkpt>
      <trkpt lat="50.03321" lon="2.33663">
        <ele>139</ele>
        <time>2023-10-25T14:09:36Z</time>
      </trkpt>
      <trkpt lat="50.0332" lon="2.33662">
        <ele>139</ele>
        <time>2023-10-25T14:09:37Z</time>
      </trkpt>
      <trkpt lat="50.03319" lon="2.33661">
        <ele>139</ele>
        <time>2023-10-25T14:09:38Z</time>
      </trkpt>
      <trkpt lat="50.03319" lon="2.33659">
        <ele>138.9</ele>
        <time>2023-10-25T14:09:39Z</time>
      </trkpt>
      <trkpt lat="50.03318" lon="2.33658">
        <ele>138.9</ele>
        <time>2023-10-25T14:09:40Z</time>
      </trkpt>
      <trkpt lat="50.03316" lon="2.33655">
        <ele>138.9</ele>
        <time>2023-10-25T14:09:41Z</time>
      </trkpt>
      <trkpt lat="50.03316" lon="2.33654">
        <ele>138.9</ele>
        <time>2023-10-25T14:09:42Z</time>
      </trkpt>
      <trkpt lat="50.03315" lon="2.33654">
        <ele>138.9</ele>
        <time>2023-10-25T14:09:43Z</time>
      </trkpt>
      <trkpt lat="50.03314" lon="2.33651">
        <ele>138.8</ele>
        <time>2023-10-25T14:09:44Z</time>
      </trkpt>
      <trkpt lat="50.03313" lon="2.3365">
        <ele>138.8</ele>
        <time>2023-10-25T14:09:45Z</time>
      </trkpt>
      <trkpt lat="50.03313" lon="2.33649">
        <ele>138.8</ele>
        <time>2023-10-25T14:09:46Z</time>
      </trkpt>
      <trkpt lat="50.03312" lon="2.33647">
        <ele>138.8</ele>
        <time>2023-10-25T14:09:47Z</time>
      </trkpt>
      <trkpt lat="50.03311" lon="2.33646">
        <ele>138.8</ele>
        <time>2023-10-25T14:09:48Z</time>
      </trkpt>
      <trkpt lat="50.03311" lon="2.33645">
        <ele>138.8</ele>
        <time>2023-10-25T14:09:49Z</time>
      </trkpt>
      <trkpt lat="50.0331" lon="2.33643">
        <ele>138.8</ele>
        <time>2023-10-25T14:09:50Z</time>
      </trkpt>
      <trkpt lat="50.0331" lon="2.33642">
        <ele>138.8</ele>
        <time>2023-10-25T14:09:51Z</time>
      </trkpt>
      <trkpt lat="50.03309" lon="2.33641">
        <ele>138.7</ele>
        <time>2023-10-25T14:09:52Z</time>
      </trkpt>
      <trkpt lat="50.03309" lon="2.33639">
        <ele>138.7</ele>
        <time>2023-10-25T14:09:53Z</time>
      </trkpt>
      <trkpt lat="50.03308" lon="2.33638">
        <ele>138.7</ele>
        <time>2023-10-25T14:09:54Z</time>
      </trkpt>
      <trkpt lat="50.03308" lon="2.33636">
        <ele>138.7</ele>
        <time>2023-10-25T14:09:55Z</time>
      </trkpt>
      <trkpt lat="50.03307" lon="2.33635">
        <ele>138.7</ele>
        <time>2023-10-25T14:09:56Z</time>
      </trkpt>
      <trkpt lat="50.03307" lon="2.33633">
        <ele>138.7</ele>
        <time>2023-10-25T14:09:57Z</time>
      </trkpt>
      <trkpt lat="50.03306" lon="2.33631">
        <ele>138.6</ele>
        <time>2023-10-25T14:09:58Z</time>
      </trkpt>
      <trkpt lat="50.03306" lon="2.3363">
        <ele>138.6</ele>
        <time>2023-10-25T14:09:59Z</time>
      </trkpt>
      <trkpt lat="50.03305" lon="2.33628">
        <ele>138.6</ele>
        <time>2023-10-25T14:10:00Z</time>
      </trkpt>
      <trkpt lat="50.03305" lon="2.33626">
        <ele>138.6</ele>
        <time>2023-10-25T14:10:01Z</time>
      </trkpt>
      <trkpt lat="50.03304" lon="2.33625">
        <ele>138.6</ele>
        <time>2023-10-25T14:10:02Z</time>
      </trkpt>
      <trkpt lat="50.03304" lon="2.33624">
        <ele>138.6</ele>
        <time>2023-10-25T14:10:03Z</time>
      </trkpt>
      <trkpt lat="50.03303" lon="2.33622">
        <ele>138.6</ele>
        <time>2023-10-25T14:10:04Z</time>
      </trkpt>
      <trkpt lat="50.03303" lon="2.33621">
        <ele>138.6</ele>
        <time>2023-10-25T14:10:05Z</time>
      </trkpt>
      <trkpt lat="50.03302" lon="2.33619">
        <ele>138.6</ele>
        <time>2023-10-25T14:10:06Z</time>
      </trkpt>
      <trkpt lat="50.03301" lon="2.33618">
        <ele>138.6</ele>
        <time>2023-10-25T14:10:07Z</time>
      </trkpt>
      <trkpt lat="50.033" lon="2.33615">
        <ele>138.5</ele>
        <time>2023-10-25T14:10:08Z</time>
      </trkpt>
      <trkpt lat="50.033" lon="2.33614">
        <ele>138.5</ele>
        <time>2023-10-25T14:10:09Z</time>
      </trkpt>
      <trkpt lat="50.03299" lon="2.33613">
        <ele>138.5</ele>
        <time>2023-10-25T14:10:10Z</time>
      </trkpt>
      <trkpt lat="50.03299" lon="2.33611">
        <ele>138.5</ele>
        <time>2023-10-25T14:10:11Z</time>
      </trkpt>
      <trkpt lat="50.03298" lon="2.3361">
        <ele>138.5</ele>
        <time>2023-10-25T14:10:12Z</time>
      </trkpt>
      <trkpt lat="50.03297" lon="2.33608">
        <ele>138.5</ele>
        <time>2023-10-25T14:10:13Z</time>
      </trkpt>
      <trkpt lat="50.03297" lon="2.33607">
        <ele>138.5</ele>
        <time>2023-10-25T14:10:14Z</time>
      </trkpt>
      <trkpt lat="50.03296" lon="2.33605">
        <ele>138.5</ele>
        <time>2023-10-25T14:10:15Z</time>
      </trkpt>
      <trkpt lat="50.03296" lon="2.33604">
        <ele>138.5</ele>
        <time>2023-10-25T14:10:16Z</time>
      </trkpt>
      <trkpt lat="50.03295" lon="2.33602">
        <ele>138.5</ele>
        <time>2023-10-25T14:10:17Z</time>
      </trkpt>
      <trkpt lat="50.03295" lon="2.33601">
        <ele>138.5</ele>
        <time>2023-10-25T14:10:18Z</time>
      </trkpt>
      <trkpt lat="50.03294" lon="2.33599">
        <ele>138.5</ele>
        <time>2023-10-25T14:10:19Z</time>
      </trkpt>
      <trkpt lat="50.03294" lon="2.33598">
        <ele>138.5</ele>
        <time>2023-10-25T14:10:20Z</time>
      </trkpt>
      <trkpt lat="50.03293" lon="2.33596">
        <ele>138.4</ele>
        <time>2023-10-25T14:10:21Z</time>
      </trkpt>
      <trkpt lat="50.03292" lon="2.33594">
        <ele>138.4</ele>
        <time>2023-10-25T14:10:22Z</time>
      </trkpt>
      <trkpt lat="50.03292" lon="2.33593">
        <ele>138.4</ele>
        <time>2023-10-25T14:10:23Z</time>
      </trkpt>
      <trkpt lat="50.03291" lon="2.33591">
        <ele>138.4</ele>
        <time>2023-10-25T14:10:24Z</time>
      </trkpt>
      <trkpt lat="50.03291" lon="2.3359">
        <ele>138.4</ele>
        <time>2023-10-25T14:10:25Z</time>
      </trkpt>
      <trkpt lat="50.03291" lon="2.33588">
        <ele>138.4</ele>
        <time>2023-10-25T14:10:26Z</time>
      </trkpt>
      <trkpt lat="50.0329" lon="2.33587">
        <ele>138.4</ele>
        <time>2023-10-25T14:10:27Z</time>
      </trkpt>
      <trkpt lat="50.0329" lon="2.33586">
        <ele>138.4</ele>
        <time>2023-10-25T14:10:28Z</time>
      </trkpt>
      <trkpt lat="50.03289" lon="2.33584">
        <ele>138.4</ele>
        <time>2023-10-25T14:10:29Z</time>
      </trkpt>
      <trkpt lat="50.03289" lon="2.33583">
        <ele>138.3</ele>
        <time>2023-10-25T14:10:30Z</time>
      </trkpt>
      <trkpt lat="50.03289" lon="2.33582">
        <ele>138.3</ele>
        <time>2023-10-25T14:10:31Z</time>
      </trkpt>
      <trkpt lat="50.03288" lon="2.3358">
        <ele>138.3</ele>
        <time>2023-10-25T14:10:32Z</time>
      </trkpt>
      <trkpt lat="50.03288" lon="2.33579">
        <ele>138.3</ele>
        <time>2023-10-25T14:10:33Z</time>
      </trkpt>
      <trkpt lat="50.03287" lon="2.33577">
        <ele>138.3</ele>
        <time>2023-10-25T14:10:34Z</time>
      </trkpt>
      <trkpt lat="50.03287" lon="2.33576">
        <ele>138.3</ele>
        <time>2023-10-25T14:10:35Z</time>
      </trkpt>
      <trkpt lat="50.03286" lon="2.33574">
        <ele>138.3</ele>
        <time>2023-10-25T14:10:36Z</time>
      </trkpt>
      <trkpt lat="50.03286" lon="2.33573">
        <ele>138.3</ele>
        <time>2023-10-25T14:10:37Z</time>
      </trkpt>
      <trkpt lat="50.03285" lon="2.33571">
        <ele>138.3</ele>
        <time>2023-10-25T14:10:38Z</time>
      </trkpt>
      <trkpt lat="50.03285" lon="2.3357">
        <ele>138.2</ele>
        <time>2023-10-25T14:10:39Z</time>
      </trkpt>
      <trkpt lat="50.03285" lon="2.33569">
        <ele>138.2</ele>
        <time>2023-10-25T14:10:40Z</time>
      </trkpt>
      <trkpt lat="50.03284" lon="2.33567">
        <ele>138.2</ele>
        <time>2023-10-25T14:10:41Z</time>
      </trkpt>
      <trkpt lat="50.03284" lon="2.33566">
        <ele>138.2</ele>
        <time>2023-10-25T14:10:42Z</time>
      </trkpt>
      <trkpt lat="50.03283" lon="2.33564">
        <ele>138.2</ele>
        <time>2023-10-25T14:10:43Z</time>
      </trkpt>
      <trkpt lat="50.03283" lon="2.33562">
        <ele>138.2</ele>
        <time>2023-10-25T14:10:44Z</time>
      </trkpt>
      <trkpt lat="50.03282" lon="2.33561">
        <ele>138.2</ele>
        <time>2023-10-25T14:10:45Z</time>
      </trkpt>
      <trkpt lat="50.03282" lon="2.33559">
        <ele>138.2</ele>
        <time>2023-10-25T14:10:46Z</time>
      </trkpt>
      <trkpt lat="50.03281" lon="2.33558">
        <ele>138.1</ele>
        <time>2023-10-25T14:10:47Z</time>
      </trkpt>
      <trkpt lat="50.0328" lon="2.33556">
        <ele>138.1</ele>
        <time>2023-10-25T14:10:48Z</time>
      </trkpt>
      <trkpt lat="50.0328" lon="2.33555">
        <ele>138.1</ele>
        <time>2023-10-25T14:10:49Z</time>
      </trkpt>
      <trkpt lat="50.03279" lon="2.33554">
        <ele>138.1</ele>
        <time>2023-10-25T14:10:50Z</time>
      </trkpt>
      <trkpt lat="50.03279" lon="2.33552">
        <ele>138.1</ele>
        <time>2023-10-25T14:10:51Z</time>
      </trkpt>
      <trkpt lat="50.03278" lon="2.33551">
        <ele>138.1</ele>
        <time>2023-10-25T14:10:52Z</time>
      </trkpt>
      <trkpt lat="50.03277" lon="2.3355">
        <ele>138.1</ele>
        <time>2023-10-25T14:10:53Z</time>
      </trkpt>
      <trkpt lat="50.03277" lon="2.33548">
        <ele>138.1</ele>
        <time>2023-10-25T14:10:54Z</time>
      </trkpt>
      <trkpt lat="50.03276" lon="2.33547">
        <ele>138.1</ele>
        <time>2023-10-25T14:10:55Z</time>
      </trkpt>
      <trkpt lat="50.03275" lon="2.33545">
        <ele>138</ele>
        <time>2023-10-25T14:10:56Z</time>
      </trkpt>
      <trkpt lat="50.03275" lon="2.33544">
        <ele>138</ele>
        <time>2023-10-25T14:10:57Z</time>
      </trkpt>
      <trkpt lat="50.03274" lon="2.33542">
        <ele>138</ele>
        <time>2023-10-25T14:10:58Z</time>
      </trkpt>
      <trkpt lat="50.03273" lon="2.33541">
        <ele>138</ele>
        <time>2023-10-25T14:10:59Z</time>
      </trkpt>
      <trkpt lat="50.03273" lon="2.3354">
        <ele>138</ele>
        <time>2023-10-25T14:11:00Z</time>
      </trkpt>
      <trkpt lat="50.03272" lon="2.33538">
        <ele>138</ele>
        <time>2023-10-25T14:11:01Z</time>
      </trkpt>
      <trkpt lat="50.03272" lon="2.33537">
        <ele>138</ele>
        <time>2023-10-25T14:11:02Z</time>
      </trkpt>
      <trkpt lat="50.03271" lon="2.33535">
        <ele>138</ele>
        <time>2023-10-25T14:11:03Z</time>
      </trkpt>
      <trkpt lat="50.03271" lon="2.33534">
        <ele>138</ele>
        <time>2023-10-25T14:11:04Z</time>
      </trkpt>
      <trkpt lat="50.0327" lon="2.33532">
        <ele>137.9</ele>
        <time>2023-10-25T14:11:05Z</time>
      </trkpt>
      <trkpt lat="50.03269" lon="2.33531">
        <ele>137.9</ele>
        <time>2023-10-25T14:11:06Z</time>
      </trkpt>
      <trkpt lat="50.03268" lon="2.33529">
        <ele>137.9</ele>
        <time>2023-10-25T14:11:07Z</time>
      </trkpt>
      <trkpt lat="50.03268" lon="2.33528">
        <ele>137.9</ele>
        <time>2023-10-25T14:11:08Z</time>
      </trkpt>
      <trkpt lat="50.03267" lon="2.33526">
        <ele>137.9</ele>
        <time>2023-10-25T14:11:09Z</time>
      </trkpt>
      <trkpt lat="50.03266" lon="2.33525">
        <ele>137.9</ele>
        <time>2023-10-25T14:11:10Z</time>
      </trkpt>
      <trkpt lat="50.03266" lon="2.33523">
        <ele>137.9</ele>
        <time>2023-10-25T14:11:11Z</time>
      </trkpt>
      <trkpt lat="50.03265" lon="2.33522">
        <ele>137.8</ele>
        <time>2023-10-25T14:11:12Z</time>
      </trkpt>
      <trkpt lat="50.03265" lon="2.33521">
        <ele>137.8</ele>
        <time>2023-10-25T14:11:13Z</time>
      </trkpt>
      <trkpt lat="50.03264" lon="2.3352">
        <ele>137.8</ele>
        <time>2023-10-25T14:11:14Z</time>
      </trkpt>
      <trkpt lat="50.03264" lon="2.33518">
        <ele>137.8</ele>
        <time>2023-10-25T14:11:15Z</time>
      </trkpt>
      <trkpt lat="50.03263" lon="2.33517">
        <ele>137.8</ele>
        <time>2023-10-25T14:11:16Z</time>
      </trkpt>
      <trkpt lat="50.03262" lon="2.33514">
        <ele>137.8</ele>
        <time>2023-10-25T14:11:17Z</time>
      </trkpt>
      <trkpt lat="50.03262" lon="2.33513">
        <ele>137.7</ele>
        <time>2023-10-25T14:11:18Z</time>
      </trkpt>
      <trkpt lat="50.03261" lon="2.33512">
        <ele>137.7</ele>
        <time>2023-10-25T14:11:19Z</time>
      </trkpt>
      <trkpt lat="50.0326" lon="2.33509">
        <ele>137.7</ele>
        <time>2023-10-25T14:11:20Z</time>
      </trkpt>
      <trkpt lat="50.0326" lon="2.33507">
        <ele>137.7</ele>
        <time>2023-10-25T14:11:21Z</time>
      </trkpt>
      <trkpt lat="50.0326" lon="2.33506">
        <ele>137.7</ele>
        <time>2023-10-25T14:11:22Z</time>
      </trkpt>
      <trkpt lat="50.03258" lon="2.33503">
        <ele>137.6</ele>
        <time>2023-10-25T14:11:23Z</time>
      </trkpt>
      <trkpt lat="50.03258" lon="2.33502">
        <ele>137.6</ele>
        <time>2023-10-25T14:11:24Z</time>
      </trkpt>
      <trkpt lat="50.03258" lon="2.33501">
        <ele>137.6</ele>
        <time>2023-10-25T14:11:25Z</time>
      </trkpt>
      <trkpt lat="50.03257" lon="2.33499">
        <ele>137.6</ele>
        <time>2023-10-25T14:11:26Z</time>
      </trkpt>
      <trkpt lat="50.03256" lon="2.33498">
        <ele>137.6</ele>
        <time>2023-10-25T14:11:27Z</time>
      </trkpt>
      <trkpt lat="50.03256" lon="2.33496">
        <ele>137.6</ele>
        <time>2023-10-25T14:11:28Z</time>
      </trkpt>
      <trkpt lat="50.03255" lon="2.33495">
        <ele>137.5</ele>
        <time>2023-10-25T14:11:29Z</time>
      </trkpt>
      <trkpt lat="50.03255" lon="2.33493">
        <ele>137.5</ele>
        <time>2023-10-25T14:11:30Z</time>
      </trkpt>
      <trkpt lat="50.03254" lon="2.33492">
        <ele>137.5</ele>
        <time>2023-10-25T14:11:31Z</time>
      </trkpt>
      <trkpt lat="50.03254" lon="2.33491">
        <ele>137.5</ele>
        <time>2023-10-25T14:11:32Z</time>
      </trkpt>
      <trkpt lat="50.03253" lon="2.33489">
        <ele>137.5</ele>
        <time>2023-10-25T14:11:33Z</time>
      </trkpt>
      <trkpt lat="50.03252" lon="2.33488">
        <ele>137.5</ele>
        <time>2023-10-25T14:11:34Z</time>
      </trkpt>
      <trkpt lat="50.03252" lon="2.33486">
        <ele>137.4</ele>
        <time>2023-10-25T14:11:35Z</time>
      </trkpt>
      <trkpt lat="50.03251" lon="2.33485">
        <ele>137.4</ele>
        <time>2023-10-25T14:11:36Z</time>
      </trkpt>
      <trkpt lat="50.0325" lon="2.33483">
        <ele>137.4</ele>
        <time>2023-10-25T14:11:37Z</time>
      </trkpt>
      <trkpt lat="50.03249" lon="2.33481">
        <ele>137.4</ele>
        <time>2023-10-25T14:11:38Z</time>
      </trkpt>
      <trkpt lat="50.03248" lon="2.3348">
        <ele>137.4</ele>
        <time>2023-10-25T14:11:39Z</time>
      </trkpt>
      <trkpt lat="50.03248" lon="2.33479">
        <ele>137.3</ele>
        <time>2023-10-25T14:11:40Z</time>
      </trkpt>
      <trkpt lat="50.03247" lon="2.33477">
        <ele>137.3</ele>
        <time>2023-10-25T14:11:41Z</time>
      </trkpt>
      <trkpt lat="50.03246" lon="2.33476">
        <ele>137.3</ele>
        <time>2023-10-25T14:11:42Z</time>
      </trkpt>
      <trkpt lat="50.03245" lon="2.33475">
        <ele>137.3</ele>
        <time>2023-10-25T14:11:43Z</time>
      </trkpt>
      <trkpt lat="50.03245" lon="2.33473">
        <ele>137.3</ele>
        <time>2023-10-25T14:11:44Z</time>
      </trkpt>
      <trkpt lat="50.03244" lon="2.33472">
        <ele>137.3</ele>
        <time>2023-10-25T14:11:45Z</time>
      </trkpt>
      <trkpt lat="50.03243" lon="2.33471">
        <ele>137.2</ele>
        <time>2023-10-25T14:11:46Z</time>
      </trkpt>
      <trkpt lat="50.03241" lon="2.33469">
        <ele>137.2</ele>
        <time>2023-10-25T14:11:47Z</time>
      </trkpt>
      <trkpt lat="50.03241" lon="2.33468">
        <ele>137.2</ele>
        <time>2023-10-25T14:11:48Z</time>
      </trkpt>
      <trkpt lat="50.0324" lon="2.33467">
        <ele>137.2</ele>
        <time>2023-10-25T14:11:49Z</time>
      </trkpt>
      <trkpt lat="50.03238" lon="2.33466">
        <ele>137.1</ele>
        <time>2023-10-25T14:11:50Z</time>
      </trkpt>
      <trkpt lat="50.03237" lon="2.33465">
        <ele>137.1</ele>
        <time>2023-10-25T14:11:51Z</time>
      </trkpt>
      <trkpt lat="50.03237" lon="2.33464">
        <ele>137.1</ele>
        <time>2023-10-25T14:11:52Z</time>
      </trkpt>
      <trkpt lat="50.03235" lon="2.33463">
        <ele>137.1</ele>
        <time>2023-10-25T14:11:53Z</time>
      </trkpt>
      <trkpt lat="50.03234" lon="2.33462">
        <ele>137.1</ele>
        <time>2023-10-25T14:11:54Z</time>
      </trkpt>
      <trkpt lat="50.03234" lon="2.33461">
        <ele>137</ele>
        <time>2023-10-25T14:11:55Z</time>
      </trkpt>
      <trkpt lat="50.03233" lon="2.33461">
        <ele>137</ele>
        <time>2023-10-25T14:11:56Z</time>
      </trkpt>
      <trkpt lat="50.03232" lon="2.3346">
        <ele>137</ele>
        <time>2023-10-25T14:11:57Z</time>
      </trkpt>
      <trkpt lat="50.03231" lon="2.3346">
        <ele>137</ele>
        <time>2023-10-25T14:11:58Z</time>
      </trkpt>
      <trkpt lat="50.0323" lon="2.33459">
        <ele>137</ele>
        <time>2023-10-25T14:11:59Z</time>
      </trkpt>
      <trkpt lat="50.03229" lon="2.33459">
        <ele>137</ele>
        <time>2023-10-25T14:12:00Z</time>
      </trkpt>
      <trkpt lat="50.03228" lon="2.33458">
        <ele>136.9</ele>
        <time>2023-10-25T14:12:01Z</time>
      </trkpt>
      <trkpt lat="50.03227" lon="2.33458">
        <ele>136.9</ele>
        <time>2023-10-25T14:12:02Z</time>
      </trkpt>
      <trkpt lat="50.03225" lon="2.33456">
        <ele>136.9</ele>
        <time>2023-10-25T14:12:03Z</time>
      </trkpt>
      <trkpt lat="50.03225" lon="2.33456">
        <ele>136.9</ele>
        <time>2023-10-25T14:12:04Z</time>
      </trkpt>
      <trkpt lat="50.03224" lon="2.33456">
        <ele>136.8</ele>
        <time>2023-10-25T14:12:05Z</time>
      </trkpt>
      <trkpt lat="50.03223" lon="2.33455">
        <ele>136.8</ele>
        <time>2023-10-25T14:12:06Z</time>
      </trkpt>
      <trkpt lat="50.03222" lon="2.33454">
        <ele>136.8</ele>
        <time>2023-10-25T14:12:07Z</time>
      </trkpt>
      <trkpt lat="50.03221" lon="2.33454">
        <ele>136.8</ele>
        <time>2023-10-25T14:12:08Z</time>
      </trkpt>
      <trkpt lat="50.0322" lon="2.33453">
        <ele>136.8</ele>
        <time>2023-10-25T14:12:09Z</time>
      </trkpt>
      <trkpt lat="50.03219" lon="2.33452">
        <ele>136.7</ele>
        <time>2023-10-25T14:12:10Z</time>
      </trkpt>
      <trkpt lat="50.03218" lon="2.33452">
        <ele>136.7</ele>
        <time>2023-10-25T14:12:11Z</time>
      </trkpt>
      <trkpt lat="50.03217" lon="2.33451">
        <ele>136.7</ele>
        <time>2023-10-25T14:12:12Z</time>
      </trkpt>
      <trkpt lat="50.03216" lon="2.3345">
        <ele>136.7</ele>
        <time>2023-10-25T14:12:13Z</time>
      </trkpt>
      <trkpt lat="50.03215" lon="2.3345">
        <ele>136.7</ele>
        <time>2023-10-25T14:12:14Z</time>
      </trkpt>
      <trkpt lat="50.03213" lon="2.33448">
        <ele>136.6</ele>
        <time>2023-10-25T14:12:15Z</time>
      </trkpt>
      <trkpt lat="50.03212" lon="2.33448">
        <ele>136.6</ele>
        <time>2023-10-25T14:12:16Z</time>
      </trkpt>
      <trkpt lat="50.03211" lon="2.33447">
        <ele>136.6</ele>
        <time>2023-10-25T14:12:17Z</time>
      </trkpt>
      <trkpt lat="50.03209" lon="2.33446">
        <ele>136.6</ele>
        <time>2023-10-25T14:12:18Z</time>
      </trkpt>
      <trkpt lat="50.03208" lon="2.33445">
        <ele>136.5</ele>
        <time>2023-10-25T14:12:19Z</time>
      </trkpt>
      <trkpt lat="50.03207" lon="2.33445">
        <ele>136.5</ele>
        <time>2023-10-25T14:12:20Z</time>
      </trkpt>
      <trkpt lat="50.03206" lon="2.33444">
        <ele>136.5</ele>
        <time>2023-10-25T14:12:21Z</time>
      </trkpt>
      <trkpt lat="50.03205" lon="2.33443">
        <ele>136.5</ele>
        <time>2023-10-25T14:12:22Z</time>
      </trkpt>
      <trkpt lat="50.03204" lon="2.33443">
        <ele>136.5</ele>
        <time>2023-10-25T14:12:23Z</time>
      </trkpt>
      <trkpt lat="50.03202" lon="2.33442">
        <ele>136.5</ele>
        <time>2023-10-25T14:12:24Z</time>
      </trkpt>
      <trkpt lat="50.03202" lon="2.33441">
        <ele>136.5</ele>
        <time>2023-10-25T14:12:25Z</time>
      </trkpt>
      <trkpt lat="50.03201" lon="2.33441">
        <ele>136.4</ele>
        <time>2023-10-25T14:12:26Z</time>
      </trkpt>
      <trkpt lat="50.03199" lon="2.33439">
        <ele>136.4</ele>
        <time>2023-10-25T14:12:27Z</time>
      </trkpt>
      <trkpt lat="50.03198" lon="2.33439">
        <ele>136.4</ele>
        <time>2023-10-25T14:12:28Z</time>
      </trkpt>
      <trkpt lat="50.03197" lon="2.33439">
        <ele>136.4</ele>
        <time>2023-10-25T14:12:29Z</time>
      </trkpt>
      <trkpt lat="50.03195" lon="2.33438">
        <ele>136.4</ele>
        <time>2023-10-25T14:12:30Z</time>
      </trkpt>
      <trkpt lat="50.03194" lon="2.33437">
        <ele>136.4</ele>
        <time>2023-10-25T14:12:31Z</time>
      </trkpt>
      <trkpt lat="50.03194" lon="2.33437">
        <ele>136.3</ele>
        <time>2023-10-25T14:12:32Z</time>
      </trkpt>
      <trkpt lat="50.03193" lon="2.33436">
        <ele>136.3</ele>
        <time>2023-10-25T14:12:33Z</time>
      </trkpt>
      <trkpt lat="50.03192" lon="2.33436">
        <ele>136.3</ele>
        <time>2023-10-25T14:12:34Z</time>
      </trkpt>
      <trkpt lat="50.03191" lon="2.33435">
        <ele>136.3</ele>
        <time>2023-10-25T14:12:35Z</time>
      </trkpt>
      <trkpt lat="50.0319" lon="2.33435">
        <ele>136.3</ele>
        <time>2023-10-25T14:12:36Z</time>
      </trkpt>
      <trkpt lat="50.03188" lon="2.33434">
        <ele>136.3</ele>
        <time>2023-10-25T14:12:37Z</time>
      </trkpt>
      <trkpt lat="50.03187" lon="2.33433">
        <ele>136.3</ele>
        <time>2023-10-25T14:12:38Z</time>
      </trkpt>
      <trkpt lat="50.03186" lon="2.33432">
        <ele>136.2</ele>
        <time>2023-10-25T14:12:39Z</time>
      </trkpt>
      <trkpt lat="50.03185" lon="2.33432">
        <ele>136.2</ele>
        <time>2023-10-25T14:12:40Z</time>
      </trkpt>
      <trkpt lat="50.03184" lon="2.33431">
        <ele>136.2</ele>
        <time>2023-10-25T14:12:41Z</time>
      </trkpt>
      <trkpt lat="50.03183" lon="2.3343">
        <ele>136.2</ele>
        <time>2023-10-25T14:12:42Z</time>
      </trkpt>
      <trkpt lat="50.03182" lon="2.33429">
        <ele>136.2</ele>
        <time>2023-10-25T14:12:43Z</time>
      </trkpt>
      <trkpt lat="50.03181" lon="2.33429">
        <ele>136.2</ele>
        <time>2023-10-25T14:12:44Z</time>
      </trkpt>
      <trkpt lat="50.03181" lon="2.33428">
        <ele>136.2</ele>
        <time>2023-10-25T14:12:45Z</time>
      </trkpt>
      <trkpt lat="50.0318" lon="2.33427">
        <ele>136.1</ele>
        <time>2023-10-25T14:12:46Z</time>
      </trkpt>
      <trkpt lat="50.03179" lon="2.33427">
        <ele>136.1</ele>
        <time>2023-10-25T14:12:47Z</time>
      </trkpt>
      <trkpt lat="50.03178" lon="2.33426">
        <ele>136.1</ele>
        <time>2023-10-25T14:12:48Z</time>
      </trkpt>
      <trkpt lat="50.03177" lon="2.33425">
        <ele>136.1</ele>
        <time>2023-10-25T14:12:49Z</time>
      </trkpt>
      <trkpt lat="50.03176" lon="2.33424">
        <ele>136.1</ele>
        <time>2023-10-25T14:12:50Z</time>
      </trkpt>
      <trkpt lat="50.03175" lon="2.33424">
        <ele>136.1</ele>
        <time>2023-10-25T14:12:51Z</time>
      </trkpt>
      <trkpt lat="50.03174" lon="2.33423">
        <ele>136.1</ele>
        <time>2023-10-25T14:12:52Z</time>
      </trkpt>
      <trkpt lat="50.03173" lon="2.33422">
        <ele>136</ele>
        <time>2023-10-25T14:12:53Z</time>
      </trkpt>
      <trkpt lat="50.03172" lon="2.33422">
        <ele>136</ele>
        <time>2023-10-25T14:12:54Z</time>
      </trkpt>
      <trkpt lat="50.03171" lon="2.33421">
        <ele>136</ele>
        <time>2023-10-25T14:12:55Z</time>
      </trkpt>
      <trkpt lat="50.0317" lon="2.3342">
        <ele>136</ele>
        <time>2023-10-25T14:12:56Z</time>
      </trkpt>
      <trkpt lat="50.03169" lon="2.3342">
        <ele>136</ele>
        <time>2023-10-25T14:12:57Z</time>
      </trkpt>
      <trkpt lat="50.03168" lon="2.33419">
        <ele>136</ele>
        <time>2023-10-25T14:12:58Z</time>
      </trkpt>
      <trkpt lat="50.03167" lon="2.33419">
        <ele>135.9</ele>
        <time>2023-10-25T14:12:59Z</time>
      </trkpt>
      <trkpt lat="50.03166" lon="2.33418">
        <ele>135.9</ele>
        <time>2023-10-25T14:13:00Z</time>
      </trkpt>
      <trkpt lat="50.03165" lon="2.33418">
        <ele>135.9</ele>
        <time>2023-10-25T14:13:01Z</time>
      </trkpt>
      <trkpt lat="50.03164" lon="2.33417">
        <ele>135.9</ele>
        <time>2023-10-25T14:13:02Z</time>
      </trkpt>
      <trkpt lat="50.03162" lon="2.33416">
        <ele>135.9</ele>
        <time>2023-10-25T14:13:03Z</time>
      </trkpt>
      <trkpt lat="50.03161" lon="2.33415">
        <ele>135.8</ele>
        <time>2023-10-25T14:13:04Z</time>
      </trkpt>
      <trkpt lat="50.03161" lon="2.33415">
        <ele>135.8</ele>
        <time>2023-10-25T14:13:05Z</time>
      </trkpt>
      <trkpt lat="50.03159" lon="2.33413">
        <ele>135.8</ele>
        <time>2023-10-25T14:13:06Z</time>
      </trkpt>
      <trkpt lat="50.03158" lon="2.33413">
        <ele>135.8</ele>
        <time>2023-10-25T14:13:07Z</time>
      </trkpt>
      <trkpt lat="50.03157" lon="2.33412">
        <ele>135.8</ele>
        <time>2023-10-25T14:13:08Z</time>
      </trkpt>
      <trkpt lat="50.03155" lon="2.33411">
        <ele>135.7</ele>
        <time>2023-10-25T14:13:09Z</time>
      </trkpt>
      <trkpt lat="50.03154" lon="2.3341">
        <ele>135.7</ele>
        <time>2023-10-25T14:13:10Z</time>
      </trkpt>
      <trkpt lat="50.03154" lon="2.33409">
        <ele>135.7</ele>
        <time>2023-10-25T14:13:11Z</time>
      </trkpt>
      <trkpt lat="50.03152" lon="2.33409">
        <ele>135.7</ele>
        <time>2023-10-25T14:13:12Z</time>
      </trkpt>
      <trkpt lat="50.03152" lon="2.33408">
        <ele>135.7</ele>
        <time>2023-10-25T14:13:13Z</time>
      </trkpt>
      <trkpt lat="50.03151" lon="2.33408">
        <ele>135.7</ele>
        <time>2023-10-25T14:13:14Z</time>
      </trkpt>
      <trkpt lat="50.0315" lon="2.33407">
        <ele>135.7</ele>
        <time>2023-10-25T14:13:15Z</time>
      </trkpt>
      <trkpt lat="50.03149" lon="2.33406">
        <ele>135.6</ele>
        <time>2023-10-25T14:13:16Z</time>
      </trkpt>
      <trkpt lat="50.03148" lon="2.33406">
        <ele>135.6</ele>
        <time>2023-10-25T14:13:17Z</time>
      </trkpt>
      <trkpt lat="50.03147" lon="2.33405">
        <ele>135.6</ele>
        <time>2023-10-25T14:13:18Z</time>
      </trkpt>
      <trkpt lat="50.03146" lon="2.33404">
        <ele>135.6</ele>
        <time>2023-10-25T14:13:19Z</time>
      </trkpt>
      <trkpt lat="50.03144" lon="2.33403">
        <ele>135.6</ele>
        <time>2023-10-25T14:13:20Z</time>
      </trkpt>
      <trkpt lat="50.03143" lon="2.33402">
        <ele>135.5</ele>
        <time>2023-10-25T14:13:21Z</time>
      </trkpt>
      <trkpt lat="50.03142" lon="2.33401">
        <ele>135.5</ele>
        <time>2023-10-25T14:13:22Z</time>
      </trkpt>
      <trkpt lat="50.03141" lon="2.33401">
        <ele>135.5</ele>
        <time>2023-10-25T14:13:23Z</time>
      </trkpt>
      <trkpt lat="50.0314" lon="2.334">
        <ele>135.5</ele>
        <time>2023-10-25T14:13:24Z</time>
      </trkpt>
      <trkpt lat="50.03139" lon="2.33399">
        <ele>135.5</ele>
        <time>2023-10-25T14:13:25Z</time>
      </trkpt>
      <trkpt lat="50.03138" lon="2.33398">
        <ele>135.5</ele>
        <time>2023-10-25T14:13:26Z</time>
      </trkpt>
      <trkpt lat="50.03137" lon="2.33398">
        <ele>135.4</ele>
        <time>2023-10-25T14:13:27Z</time>
      </trkpt>
      <trkpt lat="50.03136" lon="2.33397">
        <ele>135.4</ele>
        <time>2023-10-25T14:13:28Z</time>
      </trkpt>
      <trkpt lat="50.03135" lon="2.33396">
        <ele>135.4</ele>
        <time>2023-10-25T14:13:29Z</time>
      </trkpt>
      <trkpt lat="50.03133" lon="2.33395">
        <ele>135.4</ele>
        <time>2023-10-25T14:13:30Z</time>
      </trkpt>
      <trkpt lat="50.03132" lon="2.33395">
        <ele>135.4</ele>
        <time>2023-10-25T14:13:31Z</time>
      </trkpt>
      <trkpt lat="50.03132" lon="2.33394">
        <ele>135.4</ele>
        <time>2023-10-25T14:13:32Z</time>
      </trkpt>
      <trkpt lat="50.0313" lon="2.33393">
        <ele>135.3</ele>
        <time>2023-10-25T14:13:33Z</time>
      </trkpt>
      <trkpt lat="50.03129" lon="2.33392">
        <ele>135.3</ele>
        <time>2023-10-25T14:13:34Z</time>
      </trkpt>
      <trkpt lat="50.03128" lon="2.33392">
        <ele>135.3</ele>
        <time>2023-10-25T14:13:35Z</time>
      </trkpt>
      <trkpt lat="50.03126" lon="2.3339">
        <ele>135.3</ele>
        <time>2023-10-25T14:13:36Z</time>
      </trkpt>
      <trkpt lat="50.03126" lon="2.3339">
        <ele>135.3</ele>
        <time>2023-10-25T14:13:37Z</time>
      </trkpt>
      <trkpt lat="50.03125" lon="2.33389">
        <ele>135.2</ele>
        <time>2023-10-25T14:13:38Z</time>
      </trkpt>
      <trkpt lat="50.03124" lon="2.33388">
        <ele>135.2</ele>
        <time>2023-10-25T14:13:39Z</time>
      </trkpt>
      <trkpt lat="50.03123" lon="2.33387">
        <ele>135.2</ele>
        <time>2023-10-25T14:13:40Z</time>
      </trkpt>
      <trkpt lat="50.03122" lon="2.33387">
        <ele>135.2</ele>
        <time>2023-10-25T14:13:41Z</time>
      </trkpt>
      <trkpt lat="50.0312" lon="2.33385">
        <ele>135.2</ele>
        <time>2023-10-25T14:13:42Z</time>
      </trkpt>
      <trkpt lat="50.0312" lon="2.33384">
        <ele>135.1</ele>
        <time>2023-10-25T14:13:43Z</time>
      </trkpt>
      <trkpt lat="50.03119" lon="2.33383">
        <ele>135.1</ele>
        <time>2023-10-25T14:13:44Z</time>
      </trkpt>
      <trkpt lat="50.03117" lon="2.33381">
        <ele>135.1</ele>
        <time>2023-10-25T14:13:45Z</time>
      </trkpt>
      <trkpt lat="50.03117" lon="2.33381">
        <ele>135.1</ele>
        <time>2023-10-25T14:13:46Z</time>
      </trkpt>
      <trkpt lat="50.03116" lon="2.3338">
        <ele>135.1</ele>
        <time>2023-10-25T14:13:47Z</time>
      </trkpt>
      <trkpt lat="50.03114" lon="2.33378">
        <ele>135</ele>
        <time>2023-10-25T14:13:48Z</time>
      </trkpt>
      <trkpt lat="50.03113" lon="2.33378">
        <ele>135</ele>
        <time>2023-10-25T14:13:49Z</time>
      </trkpt>
      <trkpt lat="50.03113" lon="2.33377">
        <ele>135</ele>
        <time>2023-10-25T14:13:50Z</time>
      </trkpt>
      <trkpt lat="50.03112" lon="2.33377">
        <ele>135</ele>
        <time>2023-10-25T14:13:51Z</time>
      </trkpt>
      <trkpt lat="50.03111" lon="2.33376">
        <ele>135</ele>
        <time>2023-10-25T14:13:52Z</time>
      </trkpt>
      <trkpt lat="50.0311" lon="2.33375">
        <ele>135</ele>
        <time>2023-10-25T14:13:53Z</time>
      </trkpt>
      <trkpt lat="50.0311" lon="2.33374">
        <ele>134.9</ele>
        <time>2023-10-25T14:13:54Z</time>
      </trkpt>
      <trkpt lat="50.03109" lon="2.33373">
        <ele>134.9</ele>
        <time>2023-10-25T14:13:55Z</time>
      </trkpt>
      <trkpt lat="50.03108" lon="2.33372">
        <ele>134.9</ele>
        <time>2023-10-25T14:13:56Z</time>
      </trkpt>
      <trkpt lat="50.03107" lon="2.33371">
        <ele>134.9</ele>
        <time>2023-10-25T14:13:57Z</time>
      </trkpt>
      <trkpt lat="50.03106" lon="2.3337">
        <ele>134.9</ele>
        <time>2023-10-25T14:13:58Z</time>
      </trkpt>
      <trkpt lat="50.03105" lon="2.33369">
        <ele>134.9</ele>
        <time>2023-10-25T14:13:59Z</time>
      </trkpt>
      <trkpt lat="50.03105" lon="2.33368">
        <ele>134.8</ele>
        <time>2023-10-25T14:14:00Z</time>
      </trkpt>
      <trkpt lat="50.03104" lon="2.33367">
        <ele>134.8</ele>
        <time>2023-10-25T14:14:01Z</time>
      </trkpt>
      <trkpt lat="50.03103" lon="2.33366">
        <ele>134.8</ele>
        <time>2023-10-25T14:14:02Z</time>
      </trkpt>
      <trkpt lat="50.03102" lon="2.33365">
        <ele>134.8</ele>
        <time>2023-10-25T14:14:03Z</time>
      </trkpt>
      <trkpt lat="50.03101" lon="2.33364">
        <ele>134.8</ele>
        <time>2023-10-25T14:14:04Z</time>
      </trkpt>
      <trkpt lat="50.031" lon="2.33364">
        <ele>134.8</ele>
        <time>2023-10-25T14:14:05Z</time>
      </trkpt>
      <trkpt lat="50.03099" lon="2.33363">
        <ele>134.7</ele>
        <time>2023-10-25T14:14:06Z</time>
      </trkpt>
      <trkpt lat="50.03098" lon="2.33362">
        <ele>134.7</ele>
        <time>2023-10-25T14:14:07Z</time>
      </trkpt>
      <trkpt lat="50.03097" lon="2.33361">
        <ele>134.7</ele>
        <time>2023-10-25T14:14:08Z</time>
      </trkpt>
      <trkpt lat="50.03096" lon="2.3336">
        <ele>134.7</ele>
        <time>2023-10-25T14:14:09Z</time>
      </trkpt>
      <trkpt lat="50.03095" lon="2.33359">
        <ele>134.7</ele>
        <time>2023-10-25T14:14:10Z</time>
      </trkpt>
      <trkpt lat="50.03094" lon="2.33358">
        <ele>134.7</ele>
        <time>2023-10-25T14:14:11Z</time>
      </trkpt>
      <trkpt lat="50.03093" lon="2.33356">
        <ele>134.6</ele>
        <time>2023-10-25T14:14:12Z</time>
      </trkpt>
      <trkpt lat="50.03092" lon="2.33355">
        <ele>134.6</ele>
        <time>2023-10-25T14:14:13Z</time>
      </trkpt>
      <trkpt lat="50.03091" lon="2.33355">
        <ele>134.6</ele>
        <time>2023-10-25T14:14:14Z</time>
      </trkpt>
      <trkpt lat="50.0309" lon="2.33354">
        <ele>134.6</ele>
        <time>2023-10-25T14:14:15Z</time>
      </trkpt>
      <trkpt lat="50.03089" lon="2.33353">
        <ele>134.6</ele>
        <time>2023-10-25T14:14:16Z</time>
      </trkpt>
      <trkpt lat="50.03088" lon="2.33352">
        <ele>134.5</ele>
        <time>2023-10-25T14:14:17Z</time>
      </trkpt>
      <trkpt lat="50.03087" lon="2.33351">
        <ele>134.5</ele>
        <time>2023-10-25T14:14:18Z</time>
      </trkpt>
      <trkpt lat="50.03087" lon="2.3335">
        <ele>134.5</ele>
        <time>2023-10-25T14:14:19Z</time>
      </trkpt>
      <trkpt lat="50.03086" lon="2.33348">
        <ele>134.5</ele>
        <time>2023-10-25T14:14:20Z</time>
      </trkpt>
      <trkpt lat="50.03086" lon="2.33347">
        <ele>134.5</ele>
        <time>2023-10-25T14:14:21Z</time>
      </trkpt>
      <trkpt lat="50.03085" lon="2.33346">
        <ele>134.5</ele>
        <time>2023-10-25T14:14:22Z</time>
      </trkpt>
      <trkpt lat="50.03084" lon="2.33345">
        <ele>134.5</ele>
        <time>2023-10-25T14:14:23Z</time>
      </trkpt>
      <trkpt lat="50.03084" lon="2.33345">
        <ele>134.4</ele>
        <time>2023-10-25T14:14:24Z</time>
      </trkpt>
      <trkpt lat="50.03083" lon="2.33344">
        <ele>134.4</ele>
        <time>2023-10-25T14:14:25Z</time>
      </trkpt>
      <trkpt lat="50.03082" lon="2.33343">
        <ele>134.4</ele>
        <time>2023-10-25T14:14:26Z</time>
      </trkpt>
      <trkpt lat="50.03081" lon="2.33343">
        <ele>134.4</ele>
        <time>2023-10-25T14:14:27Z</time>
      </trkpt>
      <trkpt lat="50.0308" lon="2.33342">
        <ele>134.4</ele>
        <time>2023-10-25T14:14:28Z</time>
      </trkpt>
      <trkpt lat="50.03079" lon="2.33341">
        <ele>134.4</ele>
        <time>2023-10-25T14:14:29Z</time>
      </trkpt>
      <trkpt lat="50.03078" lon="2.33341">
        <ele>134.3</ele>
        <time>2023-10-25T14:14:30Z</time>
      </trkpt>
      <trkpt lat="50.03077" lon="2.3334">
        <ele>134.3</ele>
        <time>2023-10-25T14:14:31Z</time>
      </trkpt>
      <trkpt lat="50.03076" lon="2.33339">
        <ele>134.3</ele>
        <time>2023-10-25T14:14:32Z</time>
      </trkpt>
      <trkpt lat="50.03075" lon="2.33339">
        <ele>134.3</ele>
        <time>2023-10-25T14:14:33Z</time>
      </trkpt>
      <trkpt lat="50.03074" lon="2.33338">
        <ele>134.3</ele>
        <time>2023-10-25T14:14:34Z</time>
      </trkpt>
      <trkpt lat="50.03073" lon="2.33337">
        <ele>134.3</ele>
        <time>2023-10-25T14:14:35Z</time>
      </trkpt>
      <trkpt lat="50.03072" lon="2.33337">
        <ele>134.2</ele>
        <time>2023-10-25T14:14:36Z</time>
      </trkpt>
      <trkpt lat="50.03071" lon="2.33336">
        <ele>134.2</ele>
        <time>2023-10-25T14:14:37Z</time>
      </trkpt>
      <trkpt lat="50.0307" lon="2.33335">
        <ele>134.2</ele>
        <time>2023-10-25T14:14:38Z</time>
      </trkpt>
      <trkpt lat="50.03068" lon="2.33333">
        <ele>134.2</ele>
        <time>2023-10-25T14:14:39Z</time>
      </trkpt>
      <trkpt lat="50.03068" lon="2.33332">
        <ele>134.2</ele>
        <time>2023-10-25T14:14:40Z</time>
      </trkpt>
      <trkpt lat="50.03067" lon="2.33332">
        <ele>134.1</ele>
        <time>2023-10-25T14:14:41Z</time>
      </trkpt>
      <trkpt lat="50.03065" lon="2.3333">
        <ele>134.1</ele>
        <time>2023-10-25T14:14:42Z</time>
      </trkpt>
      <trkpt lat="50.03064" lon="2.3333">
        <ele>134.1</ele>
        <time>2023-10-25T14:14:43Z</time>
      </trkpt>
      <trkpt lat="50.03063" lon="2.33329">
        <ele>134.1</ele>
        <time>2023-10-25T14:14:44Z</time>
      </trkpt>
      <trkpt lat="50.03062" lon="2.33328">
        <ele>134.1</ele>
        <time>2023-10-25T14:14:45Z</time>
      </trkpt>
      <trkpt lat="50.03061" lon="2.33327">
        <ele>134</ele>
        <time>2023-10-25T14:14:46Z</time>
      </trkpt>
      <trkpt lat="50.0306" lon="2.33326">
        <ele>134</ele>
        <time>2023-10-25T14:14:47Z</time>
      </trkpt>
      <trkpt lat="50.0306" lon="2.33325">
        <ele>134</ele>
        <time>2023-10-25T14:14:48Z</time>
      </trkpt>
      <trkpt lat="50.03059" lon="2.33325">
        <ele>134</ele>
        <time>2023-10-25T14:14:49Z</time>
      </trkpt>
      <trkpt lat="50.03058" lon="2.33324">
        <ele>133.9</ele>
        <time>2023-10-25T14:14:50Z</time>
      </trkpt>
      <trkpt lat="50.03056" lon="2.33323">
        <ele>133.9</ele>
        <time>2023-10-25T14:14:51Z</time>
      </trkpt>
      <trkpt lat="50.03055" lon="2.33322">
        <ele>133.9</ele>
        <time>2023-10-25T14:14:52Z</time>
      </trkpt>
      <trkpt lat="50.03054" lon="2.33322">
        <ele>133.9</ele>
        <time>2023-10-25T14:14:53Z</time>
      </trkpt>
      <trkpt lat="50.03052" lon="2.3332">
        <ele>133.8</ele>
        <time>2023-10-25T14:14:54Z</time>
      </trkpt>
      <trkpt lat="50.03052" lon="2.33319">
        <ele>133.8</ele>
        <time>2023-10-25T14:14:55Z</time>
      </trkpt>
      <trkpt lat="50.03051" lon="2.33319">
        <ele>133.8</ele>
        <time>2023-10-25T14:14:56Z</time>
      </trkpt>
      <trkpt lat="50.03049" lon="2.33317">
        <ele>133.8</ele>
        <time>2023-10-25T14:14:57Z</time>
      </trkpt>
      <trkpt lat="50.03048" lon="2.33316">
        <ele>133.7</ele>
        <time>2023-10-25T14:14:58Z</time>
      </trkpt>
      <trkpt lat="50.03048" lon="2.33316">
        <ele>133.7</ele>
        <time>2023-10-25T14:14:59Z</time>
      </trkpt>
      <trkpt lat="50.03047" lon="2.33315">
        <ele>133.7</ele>
        <time>2023-10-25T14:15:00Z</time>
      </trkpt>
      <trkpt lat="50.03046" lon="2.33314">
        <ele>133.7</ele>
        <time>2023-10-25T14:15:01Z</time>
      </trkpt>
      <trkpt lat="50.03044" lon="2.33313">
        <ele>133.7</ele>
        <time>2023-10-25T14:15:02Z</time>
      </trkpt>
      <trkpt lat="50.03043" lon="2.33312">
        <ele>133.6</ele>
        <time>2023-10-25T14:15:03Z</time>
      </trkpt>
      <trkpt lat="50.03042" lon="2.33312">
        <ele>133.6</ele>
        <time>2023-10-25T14:15:04Z</time>
      </trkpt>
      <trkpt lat="50.03041" lon="2.33311">
        <ele>133.6</ele>
        <time>2023-10-25T14:15:05Z</time>
      </trkpt>
      <trkpt lat="50.0304" lon="2.3331">
        <ele>133.6</ele>
        <time>2023-10-25T14:15:06Z</time>
      </trkpt>
      <trkpt lat="50.03039" lon="2.3331">
        <ele>133.5</ele>
        <time>2023-10-25T14:15:07Z</time>
      </trkpt>
      <trkpt lat="50.03038" lon="2.33309">
        <ele>133.5</ele>
        <time>2023-10-25T14:15:08Z</time>
      </trkpt>
      <trkpt lat="50.03037" lon="2.33308">
        <ele>133.5</ele>
        <time>2023-10-25T14:15:09Z</time>
      </trkpt>
      <trkpt lat="50.03036" lon="2.33308">
        <ele>133.5</ele>
        <time>2023-10-25T14:15:10Z</time>
      </trkpt>
      <trkpt lat="50.03035" lon="2.33307">
        <ele>133.5</ele>
        <time>2023-10-25T14:15:11Z</time>
      </trkpt>
      <trkpt lat="50.03034" lon="2.33306">
        <ele>133.4</ele>
        <time>2023-10-25T14:15:12Z</time>
      </trkpt>
      <trkpt lat="50.03033" lon="2.33306">
        <ele>133.4</ele>
        <time>2023-10-25T14:15:13Z</time>
      </trkpt>
      <trkpt lat="50.03032" lon="2.33305">
        <ele>133.4</ele>
        <time>2023-10-25T14:15:14Z</time>
      </trkpt>
      <trkpt lat="50.0303" lon="2.33303">
        <ele>133.3</ele>
        <time>2023-10-25T14:15:15Z</time>
      </trkpt>
      <trkpt lat="50.03029" lon="2.33303">
        <ele>133.3</ele>
        <time>2023-10-25T14:15:16Z</time>
      </trkpt>
      <trkpt lat="50.03028" lon="2.33302">
        <ele>133.3</ele>
        <time>2023-10-25T14:15:17Z</time>
      </trkpt>
      <trkpt lat="50.03026" lon="2.33301">
        <ele>133.3</ele>
        <time>2023-10-25T14:15:18Z</time>
      </trkpt>
      <trkpt lat="50.03026" lon="2.333">
        <ele>133.2</ele>
        <time>2023-10-25T14:15:19Z</time>
      </trkpt>
      <trkpt lat="50.03025" lon="2.33299">
        <ele>133.2</ele>
        <time>2023-10-25T14:15:20Z</time>
      </trkpt>
      <trkpt lat="50.03023" lon="2.33298">
        <ele>133.2</ele>
        <time>2023-10-25T14:15:21Z</time>
      </trkpt>
      <trkpt lat="50.03023" lon="2.33297">
        <ele>133.2</ele>
        <time>2023-10-25T14:15:22Z</time>
      </trkpt>
      <trkpt lat="50.03022" lon="2.33297">
        <ele>133.2</ele>
        <time>2023-10-25T14:15:23Z</time>
      </trkpt>
      <trkpt lat="50.03021" lon="2.33296">
        <ele>133.2</ele>
        <time>2023-10-25T14:15:24Z</time>
      </trkpt>
      <trkpt lat="50.0302" lon="2.33295">
        <ele>133.1</ele>
        <time>2023-10-25T14:15:25Z</time>
      </trkpt>
      <trkpt lat="50.0302" lon="2.33295">
        <ele>133.1</ele>
        <time>2023-10-25T14:15:26Z</time>
      </trkpt>
      <trkpt lat="50.03019" lon="2.33294">
        <ele>133.1</ele>
        <time>2023-10-25T14:15:27Z</time>
      </trkpt>
      <trkpt lat="50.03018" lon="2.33294">
        <ele>133.1</ele>
        <time>2023-10-25T14:15:28Z</time>
      </trkpt>
      <trkpt lat="50.03017" lon="2.33293">
        <ele>133.1</ele>
        <time>2023-10-25T14:15:29Z</time>
      </trkpt>
      <trkpt lat="50.03016" lon="2.33292">
        <ele>133.1</ele>
        <time>2023-10-25T14:15:30Z</time>
      </trkpt>
      <trkpt lat="50.03015" lon="2.33292">
        <ele>133</ele>
        <time>2023-10-25T14:15:31Z</time>
      </trkpt>
      <trkpt lat="50.03015" lon="2.33291">
        <ele>133</ele>
        <time>2023-10-25T14:15:32Z</time>
      </trkpt>
      <trkpt lat="50.03014" lon="2.33291">
        <ele>133</ele>
        <time>2023-10-25T14:15:33Z</time>
      </trkpt>
      <trkpt lat="50.03013" lon="2.3329">
        <ele>133</ele>
        <time>2023-10-25T14:15:34Z</time>
      </trkpt>
      <trkpt lat="50.03012" lon="2.3329">
        <ele>133</ele>
        <time>2023-10-25T14:15:35Z</time>
      </trkpt>
      <trkpt lat="50.0301" lon="2.33289">
        <ele>133</ele>
        <time>2023-10-25T14:15:36Z</time>
      </trkpt>
      <trkpt lat="50.03009" lon="2.33289">
        <ele>132.9</ele>
        <time>2023-10-25T14:15:37Z</time>
      </trkpt>
      <trkpt lat="50.03008" lon="2.33289">
        <ele>132.9</ele>
        <time>2023-10-25T14:15:38Z</time>
      </trkpt>
      <trkpt lat="50.03007" lon="2.33288">
        <ele>132.9</ele>
        <time>2023-10-25T14:15:39Z</time>
      </trkpt>
      <trkpt lat="50.03006" lon="2.33288">
        <ele>132.9</ele>
        <time>2023-10-25T14:15:40Z</time>
      </trkpt>
      <trkpt lat="50.03005" lon="2.33287">
        <ele>132.9</ele>
        <time>2023-10-25T14:15:41Z</time>
      </trkpt>
      <trkpt lat="50.03004" lon="2.33287">
        <ele>132.9</ele>
        <time>2023-10-25T14:15:42Z</time>
      </trkpt>
      <trkpt lat="50.03003" lon="2.33287">
        <ele>132.8</ele>
        <time>2023-10-25T14:15:43Z</time>
      </trkpt>
      <trkpt lat="50.03002" lon="2.33286">
        <ele>132.8</ele>
        <time>2023-10-25T14:15:44Z</time>
      </trkpt>
      <trkpt lat="50.03001" lon="2.33286">
        <ele>132.8</ele>
        <time>2023-10-25T14:15:45Z</time>
      </trkpt>
      <trkpt lat="50.03" lon="2.33285">
        <ele>132.8</ele>
        <time>2023-10-25T14:15:46Z</time>
      </trkpt>
      <trkpt lat="50.02999" lon="2.33285">
        <ele>132.8</ele>
        <time>2023-10-25T14:15:47Z</time>
      </trkpt>
      <trkpt lat="50.02998" lon="2.33285">
        <ele>132.8</ele>
        <time>2023-10-25T14:15:48Z</time>
      </trkpt>
      <trkpt lat="50.02997" lon="2.33284">
        <ele>132.8</ele>
        <time>2023-10-25T14:15:49Z</time>
      </trkpt>
      <trkpt lat="50.02996" lon="2.33284">
        <ele>132.7</ele>
        <time>2023-10-25T14:15:50Z</time>
      </trkpt>
      <trkpt lat="50.02994" lon="2.33283">
        <ele>132.7</ele>
        <time>2023-10-25T14:15:51Z</time>
      </trkpt>
      <trkpt lat="50.02992" lon="2.33282">
        <ele>132.7</ele>
        <time>2023-10-25T14:15:52Z</time>
      </trkpt>
      <trkpt lat="50.02992" lon="2.33282">
        <ele>132.7</ele>
        <time>2023-10-25T14:15:53Z</time>
      </trkpt>
      <trkpt lat="50.02991" lon="2.33281">
        <ele>132.7</ele>
        <time>2023-10-25T14:15:54Z</time>
      </trkpt>
      <trkpt lat="50.0299" lon="2.33281">
        <ele>132.7</ele>
        <time>2023-10-25T14:15:55Z</time>
      </trkpt>
      <trkpt lat="50.02989" lon="2.3328">
        <ele>132.7</ele>
        <time>2023-10-25T14:15:56Z</time>
      </trkpt>
      <trkpt lat="50.02988" lon="2.33279">
        <ele>132.7</ele>
        <time>2023-10-25T14:15:57Z</time>
      </trkpt>
      <trkpt lat="50.02987" lon="2.33279">
        <ele>132.7</ele>
        <time>2023-10-25T14:15:58Z</time>
      </trkpt>
      <trkpt lat="50.02986" lon="2.33278">
        <ele>132.7</ele>
        <time>2023-10-25T14:15:59Z</time>
      </trkpt>
      <trkpt lat="50.02985" lon="2.33277">
        <ele>132.6</ele>
        <time>2023-10-25T14:16:00Z</time>
      </trkpt>
      <trkpt lat="50.02984" lon="2.33276">
        <ele>132.6</ele>
        <time>2023-10-25T14:16:01Z</time>
      </trkpt>
      <trkpt lat="50.02983" lon="2.33276">
        <ele>132.6</ele>
        <time>2023-10-25T14:16:02Z</time>
      </trkpt>
      <trkpt lat="50.02982" lon="2.33275">
        <ele>132.6</ele>
        <time>2023-10-25T14:16:03Z</time>
      </trkpt>
      <trkpt lat="50.02981" lon="2.33274">
        <ele>132.6</ele>
        <time>2023-10-25T14:16:04Z</time>
      </trkpt>
      <trkpt lat="50.0298" lon="2.33273">
        <ele>132.6</ele>
        <time>2023-10-25T14:16:05Z</time>
      </trkpt>
      <trkpt lat="50.02979" lon="2.33273">
        <ele>132.6</ele>
        <time>2023-10-25T14:16:06Z</time>
      </trkpt>
      <trkpt lat="50.02978" lon="2.33272">
        <ele>132.6</ele>
        <time>2023-10-25T14:16:07Z</time>
      </trkpt>
      <trkpt lat="50.02977" lon="2.33271">
        <ele>132.6</ele>
        <time>2023-10-25T14:16:08Z</time>
      </trkpt>
      <trkpt lat="50.02976" lon="2.3327">
        <ele>132.6</ele>
        <time>2023-10-25T14:16:09Z</time>
      </trkpt>
      <trkpt lat="50.02974" lon="2.33269">
        <ele>132.6</ele>
        <time>2023-10-25T14:16:10Z</time>
      </trkpt>
      <trkpt lat="50.02974" lon="2.33268">
        <ele>132.6</ele>
        <time>2023-10-25T14:16:11Z</time>
      </trkpt>
      <trkpt lat="50.02973" lon="2.33268">
        <ele>132.5</ele>
        <time>2023-10-25T14:16:12Z</time>
      </trkpt>
      <trkpt lat="50.02972" lon="2.33267">
        <ele>132.5</ele>
        <time>2023-10-25T14:16:13Z</time>
      </trkpt>
      <trkpt lat="50.02971" lon="2.33266">
        <ele>132.5</ele>
        <time>2023-10-25T14:16:14Z</time>
      </trkpt>
      <trkpt lat="50.0297" lon="2.33266">
        <ele>132.5</ele>
        <time>2023-10-25T14:16:15Z</time>
      </trkpt>
      <trkpt lat="50.02969" lon="2.33265">
        <ele>132.5</ele>
        <time>2023-10-25T14:16:16Z</time>
      </trkpt>
      <trkpt lat="50.02968" lon="2.33264">
        <ele>132.5</ele>
        <time>2023-10-25T14:16:17Z</time>
      </trkpt>
      <trkpt lat="50.02967" lon="2.33264">
        <ele>132.5</ele>
        <time>2023-10-25T14:16:18Z</time>
      </trkpt>
      <trkpt lat="50.02966" lon="2.33262">
        <ele>132.5</ele>
        <time>2023-10-25T14:16:19Z</time>
      </trkpt>
      <trkpt lat="50.02966" lon="2.33261">
        <ele>132.5</ele>
        <time>2023-10-25T14:16:20Z</time>
      </trkpt>
      <trkpt lat="50.02965" lon="2.33259">
        <ele>132.5</ele>
        <time>2023-10-25T14:16:21Z</time>
      </trkpt>
      <trkpt lat="50.02964" lon="2.33257">
        <ele>132.5</ele>
        <time>2023-10-25T14:16:22Z</time>
      </trkpt>
      <trkpt lat="50.02963" lon="2.33256">
        <ele>132.5</ele>
        <time>2023-10-25T14:16:23Z</time>
      </trkpt>
      <trkpt lat="50.02962" lon="2.33255">
        <ele>132.4</ele>
        <time>2023-10-25T14:16:24Z</time>
      </trkpt>
      <trkpt lat="50.02961" lon="2.33254">
        <ele>132.4</ele>
        <time>2023-10-25T14:16:25Z</time>
      </trkpt>
      <trkpt lat="50.0296" lon="2.33253">
        <ele>132.4</ele>
        <time>2023-10-25T14:16:26Z</time>
      </trkpt>
      <trkpt lat="50.02959" lon="2.33252">
        <ele>132.4</ele>
        <time>2023-10-25T14:16:27Z</time>
      </trkpt>
      <trkpt lat="50.02957" lon="2.33251">
        <ele>132.4</ele>
        <time>2023-10-25T14:16:28Z</time>
      </trkpt>
      <trkpt lat="50.02957" lon="2.3325">
        <ele>132.4</ele>
        <time>2023-10-25T14:16:29Z</time>
      </trkpt>
      <trkpt lat="50.02956" lon="2.33249">
        <ele>132.4</ele>
        <time>2023-10-25T14:16:30Z</time>
      </trkpt>
      <trkpt lat="50.02955" lon="2.33248">
        <ele>132.4</ele>
        <time>2023-10-25T14:16:31Z</time>
      </trkpt>
      <trkpt lat="50.02954" lon="2.33247">
        <ele>132.4</ele>
        <time>2023-10-25T14:16:32Z</time>
      </trkpt>
      <trkpt lat="50.02953" lon="2.33246">
        <ele>132.3</ele>
        <time>2023-10-25T14:16:33Z</time>
      </trkpt>
      <trkpt lat="50.02952" lon="2.33245">
        <ele>132.3</ele>
        <time>2023-10-25T14:16:34Z</time>
      </trkpt>
      <trkpt lat="50.02951" lon="2.33244">
        <ele>132.3</ele>
        <time>2023-10-25T14:16:35Z</time>
      </trkpt>
      <trkpt lat="50.0295" lon="2.33244">
        <ele>132.3</ele>
        <time>2023-10-25T14:16:36Z</time>
      </trkpt>
      <trkpt lat="50.02948" lon="2.33242">
        <ele>132.3</ele>
        <time>2023-10-25T14:16:37Z</time>
      </trkpt>
      <trkpt lat="50.02948" lon="2.33241">
        <ele>132.2</ele>
        <time>2023-10-25T14:16:38Z</time>
      </trkpt>
      <trkpt lat="50.02947" lon="2.33241">
        <ele>132.2</ele>
        <time>2023-10-25T14:16:39Z</time>
      </trkpt>
      <trkpt lat="50.02946" lon="2.33239">
        <ele>132.2</ele>
        <time>2023-10-25T14:16:40Z</time>
      </trkpt>
      <trkpt lat="50.02945" lon="2.33238">
        <ele>132.2</ele>
        <time>2023-10-25T14:16:41Z</time>
      </trkpt>
      <trkpt lat="50.02943" lon="2.33236">
        <ele>132.2</ele>
        <time>2023-10-25T14:16:42Z</time>
      </trkpt>
      <trkpt lat="50.02942" lon="2.33236">
        <ele>132.1</ele>
        <time>2023-10-25T14:16:43Z</time>
      </trkpt>
      <trkpt lat="50.02941" lon="2.33235">
        <ele>132.1</ele>
        <time>2023-10-25T14:16:44Z</time>
      </trkpt>
      <trkpt lat="50.0294" lon="2.33233">
        <ele>132.1</ele>
        <time>2023-10-25T14:16:45Z</time>
      </trkpt>
      <trkpt lat="50.02939" lon="2.33233">
        <ele>132.1</ele>
        <time>2023-10-25T14:16:46Z</time>
      </trkpt>
      <trkpt lat="50.02938" lon="2.33232">
        <ele>132.1</ele>
        <time>2023-10-25T14:16:47Z</time>
      </trkpt>
      <trkpt lat="50.02936" lon="2.3323">
        <ele>132</ele>
        <time>2023-10-25T14:16:48Z</time>
      </trkpt>
      <trkpt lat="50.02936" lon="2.33229">
        <ele>132</ele>
        <time>2023-10-25T14:16:49Z</time>
      </trkpt>
      <trkpt lat="50.02935" lon="2.33229">
        <ele>132</ele>
        <time>2023-10-25T14:16:50Z</time>
      </trkpt>
      <trkpt lat="50.02933" lon="2.33227">
        <ele>132</ele>
        <time>2023-10-25T14:16:51Z</time>
      </trkpt>
      <trkpt lat="50.02932" lon="2.33226">
        <ele>132</ele>
        <time>2023-10-25T14:16:52Z</time>
      </trkpt>
      <trkpt lat="50.02931" lon="2.33225">
        <ele>131.9</ele>
        <time>2023-10-25T14:16:53Z</time>
      </trkpt>
      <trkpt lat="50.0293" lon="2.33224">
        <ele>131.9</ele>
        <time>2023-10-25T14:16:54Z</time>
      </trkpt>
      <trkpt lat="50.02929" lon="2.33223">
        <ele>131.9</ele>
        <time>2023-10-25T14:16:55Z</time>
      </trkpt>
      <trkpt lat="50.02928" lon="2.33222">
        <ele>131.9</ele>
        <time>2023-10-25T14:16:56Z</time>
      </trkpt>
      <trkpt lat="50.02926" lon="2.33221">
        <ele>131.9</ele>
        <time>2023-10-25T14:16:57Z</time>
      </trkpt>
      <trkpt lat="50.02925" lon="2.3322">
        <ele>131.8</ele>
        <time>2023-10-25T14:16:58Z</time>
      </trkpt>
      <trkpt lat="50.02924" lon="2.33219">
        <ele>131.8</ele>
        <time>2023-10-25T14:16:59Z</time>
      </trkpt>
      <trkpt lat="50.02923" lon="2.33218">
        <ele>131.8</ele>
        <time>2023-10-25T14:17:00Z</time>
      </trkpt>
      <trkpt lat="50.02922" lon="2.33218">
        <ele>131.8</ele>
        <time>2023-10-25T14:17:01Z</time>
      </trkpt>
      <trkpt lat="50.02921" lon="2.33217">
        <ele>131.7</ele>
        <time>2023-10-25T14:17:02Z</time>
      </trkpt>
      <trkpt lat="50.02919" lon="2.33216">
        <ele>131.7</ele>
        <time>2023-10-25T14:17:03Z</time>
      </trkpt>
      <trkpt lat="50.02918" lon="2.33215">
        <ele>131.7</ele>
        <time>2023-10-25T14:17:04Z</time>
      </trkpt>
      <trkpt lat="50.02917" lon="2.33214">
        <ele>131.7</ele>
        <time>2023-10-25T14:17:05Z</time>
      </trkpt>
      <trkpt lat="50.02916" lon="2.33214">
        <ele>131.7</ele>
        <time>2023-10-25T14:17:06Z</time>
      </trkpt>
      <trkpt lat="50.02915" lon="2.33213">
        <ele>131.6</ele>
        <time>2023-10-25T14:17:07Z</time>
      </trkpt>
      <trkpt lat="50.02914" lon="2.33213">
        <ele>131.6</ele>
        <time>2023-10-25T14:17:08Z</time>
      </trkpt>
      <trkpt lat="50.02913" lon="2.33212">
        <ele>131.6</ele>
        <time>2023-10-25T14:17:09Z</time>
      </trkpt>
      <trkpt lat="50.02912" lon="2.33212">
        <ele>131.6</ele>
        <time>2023-10-25T14:17:10Z</time>
      </trkpt>
      <trkpt lat="50.02911" lon="2.33211">
        <ele>131.6</ele>
        <time>2023-10-25T14:17:11Z</time>
      </trkpt>
      <trkpt lat="50.0291" lon="2.33211">
        <ele>131.5</ele>
        <time>2023-10-25T14:17:12Z</time>
      </trkpt>
      <trkpt lat="50.02909" lon="2.3321">
        <ele>131.5</ele>
        <time>2023-10-25T14:17:13Z</time>
      </trkpt>
      <trkpt lat="50.02908" lon="2.3321">
        <ele>131.5</ele>
        <time>2023-10-25T14:17:14Z</time>
      </trkpt>
      <trkpt lat="50.02907" lon="2.3321">
        <ele>131.5</ele>
        <time>2023-10-25T14:17:15Z</time>
      </trkpt>
      <trkpt lat="50.02905" lon="2.33209">
        <ele>131.5</ele>
        <time>2023-10-25T14:17:16Z</time>
      </trkpt>
      <trkpt lat="50.02904" lon="2.33209">
        <ele>131.4</ele>
        <time>2023-10-25T14:17:17Z</time>
      </trkpt>
      <trkpt lat="50.02903" lon="2.33209">
        <ele>131.4</ele>
        <time>2023-10-25T14:17:18Z</time>
      </trkpt>
      <trkpt lat="50.02902" lon="2.33208">
        <ele>131.4</ele>
        <time>2023-10-25T14:17:19Z</time>
      </trkpt>
      <trkpt lat="50.02901" lon="2.33208">
        <ele>131.4</ele>
        <time>2023-10-25T14:17:20Z</time>
      </trkpt>
      <trkpt lat="50.02901" lon="2.33208">
        <ele>131.4</ele>
        <time>2023-10-25T14:17:21Z</time>
      </trkpt>
      <trkpt lat="50.029" lon="2.33208">
        <ele>131.4</ele>
        <time>2023-10-25T14:17:22Z</time>
      </trkpt>
      <trkpt lat="50.029" lon="2.33207">
        <ele>131.4</ele>
        <time>2023-10-25T14:17:23Z</time>
      </trkpt>
      <trkpt lat="50.02899" lon="2.33207">
        <ele>131.4</ele>
        <time>2023-10-25T14:17:24Z</time>
      </trkpt>
      <trkpt lat="50.02898" lon="2.33206">
        <ele>131.4</ele>
        <time>2023-10-25T14:17:25Z</time>
      </trkpt>
      <trkpt lat="50.02898" lon="2.33206">
        <ele>131.3</ele>
        <time>2023-10-25T14:17:26Z</time>
      </trkpt>
      <trkpt lat="50.02897" lon="2.33206">
        <ele>131.3</ele>
        <time>2023-10-25T14:17:27Z</time>
      </trkpt>
      <trkpt lat="50.02896" lon="2.33205">
        <ele>131.3</ele>
        <time>2023-10-25T14:17:28Z</time>
      </trkpt>
      <trkpt lat="50.02895" lon="2.33205">
        <ele>131.3</ele>
        <time>2023-10-25T14:17:29Z</time>
      </trkpt>
      <trkpt lat="50.02894" lon="2.33204">
        <ele>131.3</ele>
        <time>2023-10-25T14:17:30Z</time>
      </trkpt>
      <trkpt lat="50.02893" lon="2.33204">
        <ele>131.3</ele>
        <time>2023-10-25T14:17:31Z</time>
      </trkpt>
      <trkpt lat="50.02891" lon="2.33203">
        <ele>131.3</ele>
        <time>2023-10-25T14:17:32Z</time>
      </trkpt>
      <trkpt lat="50.0289" lon="2.33203">
        <ele>131.3</ele>
        <time>2023-10-25T14:17:33Z</time>
      </trkpt>
      <trkpt lat="50.02889" lon="2.33203">
        <ele>131.2</ele>
        <time>2023-10-25T14:17:34Z</time>
      </trkpt>
      <trkpt lat="50.02887" lon="2.33202">
        <ele>131.2</ele>
        <time>2023-10-25T14:17:35Z</time>
      </trkpt>
      <trkpt lat="50.02887" lon="2.33202">
        <ele>131.2</ele>
        <time>2023-10-25T14:17:36Z</time>
      </trkpt>
      <trkpt lat="50.02886" lon="2.33202">
        <ele>131.2</ele>
        <time>2023-10-25T14:17:37Z</time>
      </trkpt>
      <trkpt lat="50.02885" lon="2.33202">
        <ele>131.2</ele>
        <time>2023-10-25T14:17:38Z</time>
      </trkpt>
      <trkpt lat="50.02884" lon="2.33202">
        <ele>131.2</ele>
        <time>2023-10-25T14:17:39Z</time>
      </trkpt>
      <trkpt lat="50.02883" lon="2.33201">
        <ele>131.2</ele>
        <time>2023-10-25T14:17:40Z</time>
      </trkpt>
      <trkpt lat="50.02882" lon="2.33201">
        <ele>131.2</ele>
        <time>2023-10-25T14:17:41Z</time>
      </trkpt>
      <trkpt lat="50.02882" lon="2.332">
        <ele>131.2</ele>
        <time>2023-10-25T14:17:42Z</time>
      </trkpt>
      <trkpt lat="50.02881" lon="2.33199">
        <ele>131.2</ele>
        <time>2023-10-25T14:17:43Z</time>
      </trkpt>
      <trkpt lat="50.0288" lon="2.33199">
        <ele>131.2</ele>
        <time>2023-10-25T14:17:44Z</time>
      </trkpt>
      <trkpt lat="50.0288" lon="2.33198">
        <ele>131.1</ele>
        <time>2023-10-25T14:17:45Z</time>
      </trkpt>
      <trkpt lat="50.02879" lon="2.33198">
        <ele>131.1</ele>
        <time>2023-10-25T14:17:46Z</time>
      </trkpt>
      <trkpt lat="50.02879" lon="2.33198">
        <ele>131.1</ele>
        <time>2023-10-25T14:17:47Z</time>
      </trkpt>
      <trkpt lat="50.02879" lon="2.33198">
        <ele>131.1</ele>
        <time>2023-10-25T14:17:48Z</time>
      </trkpt>
      <trkpt lat="50.02878" lon="2.33198">
        <ele>131.1</ele>
        <time>2023-10-25T14:17:49Z</time>
      </trkpt>
      <trkpt lat="50.02879" lon="2.33198">
        <ele>131.1</ele>
        <time>2023-10-25T14:17:50Z</time>
      </trkpt>
      <trkpt lat="50.02879" lon="2.33198">
        <ele>131.1</ele>
        <time>2023-10-25T14:17:51Z</time>
      </trkpt>
      <trkpt lat="50.02879" lon="2.33198">
        <ele>131.1</ele>
        <time>2023-10-25T14:17:52Z</time>
      </trkpt>
      <trkpt lat="50.02879" lon="2.33198">
        <ele>131.1</ele>
        <time>2023-10-25T14:17:53Z</time>
      </trkpt>
      <trkpt lat="50.02879" lon="2.33198">
        <ele>131.1</ele>
        <time>2023-10-25T14:17:54Z</time>
      </trkpt>
      <trkpt lat="50.02879" lon="2.33198">
        <ele>131.1</ele>
        <time>2023-10-25T14:17:55Z</time>
      </trkpt>
      <trkpt lat="50.02879" lon="2.33198">
        <ele>131.1</ele>
        <time>2023-10-25T14:17:56Z</time>
      </trkpt>
      <trkpt lat="50.02879" lon="2.33198">
        <ele>131.1</ele>
        <time>2023-10-25T14:17:57Z</time>
      </trkpt>
      <trkpt lat="50.02879" lon="2.33198">
        <ele>131.1</ele>
        <time>2023-10-25T14:17:58Z</time>
      </trkpt>
      <trkpt lat="50.02879" lon="2.33198">
        <ele>131.1</ele>
        <time>2023-10-25T14:17:59Z</time>
      </trkpt>
      <trkpt lat="50.02879" lon="2.33198">
        <ele>131.1</ele>
        <time>2023-10-25T14:18:00Z</time>
      </trkpt>
      <trkpt lat="50.02879" lon="2.33198">
        <ele>131.1</ele>
        <time>2023-10-25T14:18:01Z</time>
      </trkpt>
      <trkpt lat="50.02879" lon="2.33198">
        <ele>131.1</ele>
        <time>2023-10-25T14:18:02Z</time>
      </trkpt>
      <trkpt lat="50.02879" lon="2.33198">
        <ele>131.1</ele>
        <time>2023-10-25T14:18:03Z</time>
      </trkpt>
      <trkpt lat="50.02879" lon="2.33198">
        <ele>131.1</ele>
        <time>2023-10-25T14:18:04Z</time>
      </trkpt>
      <trkpt lat="50.02879" lon="2.33198">
        <ele>131.1</ele>
        <time>2023-10-25T14:18:05Z</time>
      </trkpt>
      <trkpt lat="50.02882" lon="2.33195">
        <ele>131.1</ele>
        <time>2023-10-25T14:20:15Z</time>
      </trkpt>
      <trkpt lat="50.02882" lon="2.33193">
        <ele>131.1</ele>
        <time>2023-10-25T14:20:16Z</time>
      </trkpt>
      <trkpt lat="50.02882" lon="2.33192">
        <ele>131.1</ele>
        <time>2023-10-25T14:20:17Z</time>
      </trkpt>
      <trkpt lat="50.02881" lon="2.33191">
        <ele>131.1</ele>
        <time>2023-10-25T14:20:18Z</time>
      </trkpt>
      <trkpt lat="50.02881" lon="2.33191">
        <ele>131</ele>
        <time>2023-10-25T14:20:19Z</time>
      </trkpt>
      <trkpt lat="50.0288" lon="2.3319">
        <ele>131</ele>
        <time>2023-10-25T14:20:20Z</time>
      </trkpt>
      <trkpt lat="50.02879" lon="2.33189">
        <ele>131</ele>
        <time>2023-10-25T14:20:21Z</time>
      </trkpt>
      <trkpt lat="50.02878" lon="2.33188">
        <ele>131</ele>
        <time>2023-10-25T14:20:22Z</time>
      </trkpt>
      <trkpt lat="50.02877" lon="2.33188">
        <ele>131</ele>
        <time>2023-10-25T14:20:23Z</time>
      </trkpt>
      <trkpt lat="50.02877" lon="2.33188">
        <ele>131</ele>
        <time>2023-10-25T14:20:24Z</time>
      </trkpt>
      <trkpt lat="50.02876" lon="2.33188">
        <ele>131</ele>
        <time>2023-10-25T14:20:25Z</time>
      </trkpt>
      <trkpt lat="50.02875" lon="2.33188">
        <ele>131</ele>
        <time>2023-10-25T14:20:26Z</time>
      </trkpt>
      <trkpt lat="50.02874" lon="2.33189">
        <ele>131</ele>
        <time>2023-10-25T14:20:27Z</time>
      </trkpt>
      <trkpt lat="50.02874" lon="2.33189">
        <ele>131</ele>
        <time>2023-10-25T14:20:28Z</time>
      </trkpt>
      <trkpt lat="50.02874" lon="2.33189">
        <ele>131</ele>
        <time>2023-10-25T14:20:29Z</time>
      </trkpt>
      <trkpt lat="50.02874" lon="2.33189">
        <ele>131</ele>
        <time>2023-10-25T14:20:30Z</time>
      </trkpt>
      <trkpt lat="50.02874" lon="2.33189">
        <ele>131</ele>
        <time>2023-10-25T14:20:31Z</time>
      </trkpt>
      <trkpt lat="50.02874" lon="2.33189">
        <ele>131</ele>
        <time>2023-10-25T14:20:32Z</time>
      </trkpt>
      <trkpt lat="50.02874" lon="2.33188">
        <ele>131</ele>
        <time>2023-10-25T14:20:33Z</time>
      </trkpt>
      <trkpt lat="50.02874" lon="2.33188">
        <ele>131</ele>
        <time>2023-10-25T14:20:34Z</time>
      </trkpt>
      <trkpt lat="50.02874" lon="2.33188">
        <ele>131</ele>
        <time>2023-10-25T14:20:35Z</time>
      </trkpt>
      <trkpt lat="50.02874" lon="2.33188">
        <ele>131</ele>
        <time>2023-10-25T14:20:36Z</time>
      </trkpt>
      <trkpt lat="50.02874" lon="2.33188">
        <ele>131</ele>
        <time>2023-10-25T14:20:37Z</time>
      </trkpt>
      <trkpt lat="50.02874" lon="2.33188">
        <ele>131</ele>
        <time>2023-10-25T14:20:38Z</time>
      </trkpt>
      <trkpt lat="50.02874" lon="2.33188">
        <ele>131</ele>
        <time>2023-10-25T14:20:39Z</time>
      </trkpt>
      <trkpt lat="50.02874" lon="2.33189">
        <ele>131</ele>
        <time>2023-10-25T14:20:40Z</time>
      </trkpt>
      <trkpt lat="50.02874" lon="2.33189">
        <ele>131</ele>
        <time>2023-10-25T14:20:41Z</time>
      </trkpt>
      <trkpt lat="50.02874" lon="2.33189">
        <ele>131</ele>
        <time>2023-10-25T14:20:42Z</time>
      </trkpt>
      <trkpt lat="50.02874" lon="2.33189">
        <ele>131</ele>
        <time>2023-10-25T14:20:43Z</time>
      </trkpt>
      <trkpt lat="50.02874" lon="2.33189">
        <ele>131</ele>
        <time>2023-10-25T14:20:44Z</time>
      </trkpt>
      <trkpt lat="50.02874" lon="2.33189">
        <ele>131</ele>
        <time>2023-10-25T14:20:45Z</time>
      </trkpt>
      <trkpt lat="50.02876" lon="2.33184">
        <ele>131</ele>
        <time>2023-10-25T14:20:54Z</time>
      </trkpt>
      <trkpt lat="50.02876" lon="2.33184">
        <ele>131</ele>
        <time>2023-10-25T14:20:55Z</time>
      </trkpt>
      <trkpt lat="50.02876" lon="2.33183">
        <ele>131</ele>
        <time>2023-10-25T14:20:56Z</time>
      </trkpt>
      <trkpt lat="50.02877" lon="2.33182">
        <ele>131</ele>
        <time>2023-10-25T14:20:57Z</time>
      </trkpt>
      <trkpt lat="50.02877" lon="2.33181">
        <ele>131</ele>
        <time>2023-10-25T14:20:58Z</time>
      </trkpt>
      <trkpt lat="50.02877" lon="2.3318">
        <ele>131</ele>
        <time>2023-10-25T14:20:59Z</time>
      </trkpt>
      <trkpt lat="50.02877" lon="2.33179">
        <ele>131</ele>
        <time>2023-10-25T14:21:00Z</time>
      </trkpt>
      <trkpt lat="50.02877" lon="2.33178">
        <ele>131</ele>
        <time>2023-10-25T14:21:01Z</time>
      </trkpt>
      <trkpt lat="50.02878" lon="2.33177">
        <ele>131</ele>
        <time>2023-10-25T14:21:02Z</time>
      </trkpt>
      <trkpt lat="50.02878" lon="2.33176">
        <ele>131</ele>
        <time>2023-10-25T14:21:03Z</time>
      </trkpt>
      <trkpt lat="50.02879" lon="2.33175">
        <ele>131</ele>
        <time>2023-10-25T14:21:04Z</time>
      </trkpt>
      <trkpt lat="50.02879" lon="2.33174">
        <ele>131</ele>
        <time>2023-10-25T14:21:05Z</time>
      </trkpt>
      <trkpt lat="50.02879" lon="2.33173">
        <ele>131</ele>
        <time>2023-10-25T14:21:06Z</time>
      </trkpt>
      <trkpt lat="50.0288" lon="2.33171">
        <ele>131</ele>
        <time>2023-10-25T14:21:07Z</time>
      </trkpt>
      <trkpt lat="50.0288" lon="2.3317">
        <ele>131</ele>
        <time>2023-10-25T14:21:08Z</time>
      </trkpt>
      <trkpt lat="50.0288" lon="2.33169">
        <ele>131</ele>
        <time>2023-10-25T14:21:09Z</time>
      </trkpt>
      <trkpt lat="50.0288" lon="2.33168">
        <ele>131.1</ele>
        <time>2023-10-25T14:21:10Z</time>
      </trkpt>
      <trkpt lat="50.0288" lon="2.33167">
        <ele>131.1</ele>
        <time>2023-10-25T14:21:11Z</time>
      </trkpt>
      <trkpt lat="50.0288" lon="2.33166">
        <ele>131.1</ele>
        <time>2023-10-25T14:21:12Z</time>
      </trkpt>
      <trkpt lat="50.0288" lon="2.33165">
        <ele>131.1</ele>
        <time>2023-10-25T14:21:13Z</time>
      </trkpt>
      <trkpt lat="50.0288" lon="2.33164">
        <ele>131.1</ele>
        <time>2023-10-25T14:21:14Z</time>
      </trkpt>
      <trkpt lat="50.02879" lon="2.33163">
        <ele>131.1</ele>
        <time>2023-10-25T14:21:15Z</time>
      </trkpt>
      <trkpt lat="50.02879" lon="2.33162">
        <ele>131.1</ele>
        <time>2023-10-25T14:21:16Z</time>
      </trkpt>
      <trkpt lat="50.02879" lon="2.3316">
        <ele>131.1</ele>
        <time>2023-10-25T14:21:17Z</time>
      </trkpt>
      <trkpt lat="50.02879" lon="2.33158">
        <ele>131.1</ele>
        <time>2023-10-25T14:21:18Z</time>
      </trkpt>
      <trkpt lat="50.02879" lon="2.33155">
        <ele>131.1</ele>
        <time>2023-10-25T14:21:19Z</time>
      </trkpt>
      <trkpt lat="50.02879" lon="2.33154">
        <ele>131.1</ele>
        <time>2023-10-25T14:21:20Z</time>
      </trkpt>
      <trkpt lat="50.02879" lon="2.33153">
        <ele>131.1</ele>
        <time>2023-10-25T14:21:21Z</time>
      </trkpt>
      <trkpt lat="50.0288" lon="2.33149">
        <ele>131.1</ele>
        <time>2023-10-25T14:21:22Z</time>
      </trkpt>
      <trkpt lat="50.0288" lon="2.33148">
        <ele>131.1</ele>
        <time>2023-10-25T14:21:23Z</time>
      </trkpt>
      <trkpt lat="50.0288" lon="2.33147">
        <ele>131.1</ele>
        <time>2023-10-25T14:21:24Z</time>
      </trkpt>
      <trkpt lat="50.0288" lon="2.33145">
        <ele>131.1</ele>
        <time>2023-10-25T14:21:25Z</time>
      </trkpt>
      <trkpt lat="50.0288" lon="2.33143">
        <ele>131.1</ele>
        <time>2023-10-25T14:21:26Z</time>
      </trkpt>
      <trkpt lat="50.0288" lon="2.33141">
        <ele>131.1</ele>
        <time>2023-10-25T14:21:27Z</time>
      </trkpt>
      <trkpt lat="50.0288" lon="2.33138">
        <ele>131.1</ele>
        <time>2023-10-25T14:21:28Z</time>
      </trkpt>
      <trkpt lat="50.0288" lon="2.33137">
        <ele>131.1</ele>
        <time>2023-10-25T14:21:29Z</time>
      </trkpt>
      <trkpt lat="50.02881" lon="2.33135">
        <ele>131.1</ele>
        <time>2023-10-25T14:21:30Z</time>
      </trkpt>
      <trkpt lat="50.02881" lon="2.33132">
        <ele>131.1</ele>
        <time>2023-10-25T14:21:31Z</time>
      </trkpt>
      <trkpt lat="50.02881" lon="2.33131">
        <ele>131.1</ele>
        <time>2023-10-25T14:21:32Z</time>
      </trkpt>
      <trkpt lat="50.02881" lon="2.33129">
        <ele>131.1</ele>
        <time>2023-10-25T14:21:33Z</time>
      </trkpt>
      <trkpt lat="50.02881" lon="2.33126">
        <ele>131.1</ele>
        <time>2023-10-25T14:21:34Z</time>
      </trkpt>
      <trkpt lat="50.02881" lon="2.33125">
        <ele>131.1</ele>
        <time>2023-10-25T14:21:35Z</time>
      </trkpt>
      <trkpt lat="50.02881" lon="2.33123">
        <ele>131.1</ele>
        <time>2023-10-25T14:21:36Z</time>
      </trkpt>
      <trkpt lat="50.02882" lon="2.3312">
        <ele>131.1</ele>
        <time>2023-10-25T14:21:37Z</time>
      </trkpt>
      <trkpt lat="50.02882" lon="2.33119">
        <ele>131.2</ele>
        <time>2023-10-25T14:21:38Z</time>
      </trkpt>
      <trkpt lat="50.02882" lon="2.33118">
        <ele>131.2</ele>
        <time>2023-10-25T14:21:39Z</time>
      </trkpt>
      <trkpt lat="50.02883" lon="2.33114">
        <ele>131.2</ele>
        <time>2023-10-25T14:21:40Z</time>
      </trkpt>
      <trkpt lat="50.02883" lon="2.33113">
        <ele>131.2</ele>
        <time>2023-10-25T14:21:41Z</time>
      </trkpt>
      <trkpt lat="50.02884" lon="2.33112">
        <ele>131.2</ele>
        <time>2023-10-25T14:21:42Z</time>
      </trkpt>
      <trkpt lat="50.02884" lon="2.3311">
        <ele>131.2</ele>
        <time>2023-10-25T14:21:43Z</time>
      </trkpt>
      <trkpt lat="50.02884" lon="2.33108">
        <ele>131.2</ele>
        <time>2023-10-25T14:21:44Z</time>
      </trkpt>
      <trkpt lat="50.02885" lon="2.33106">
        <ele>131.2</ele>
        <time>2023-10-25T14:21:45Z</time>
      </trkpt>
      <trkpt lat="50.02885" lon="2.33105">
        <ele>131.2</ele>
        <time>2023-10-25T14:21:46Z</time>
      </trkpt>
      <trkpt lat="50.02885" lon="2.33103">
        <ele>131.2</ele>
        <time>2023-10-25T14:21:47Z</time>
      </trkpt>
      <trkpt lat="50.02886" lon="2.33101">
        <ele>131.2</ele>
        <time>2023-10-25T14:21:48Z</time>
      </trkpt>
      <trkpt lat="50.02886" lon="2.33098">
        <ele>131.2</ele>
        <time>2023-10-25T14:21:49Z</time>
      </trkpt>
      <trkpt lat="50.02886" lon="2.33097">
        <ele>131.2</ele>
        <time>2023-10-25T14:21:50Z</time>
      </trkpt>
      <trkpt lat="50.02886" lon="2.33095">
        <ele>131.2</ele>
        <time>2023-10-25T14:21:51Z</time>
      </trkpt>
      <trkpt lat="50.02886" lon="2.33093">
        <ele>131.3</ele>
        <time>2023-10-25T14:21:52Z</time>
      </trkpt>
      <trkpt lat="50.02886" lon="2.33091">
        <ele>131.3</ele>
        <time>2023-10-25T14:21:53Z</time>
      </trkpt>
      <trkpt lat="50.02886" lon="2.33089">
        <ele>131.3</ele>
        <time>2023-10-25T14:21:54Z</time>
      </trkpt>
      <trkpt lat="50.02886" lon="2.33088">
        <ele>131.3</ele>
        <time>2023-10-25T14:21:55Z</time>
      </trkpt>
      <trkpt lat="50.02886" lon="2.33086">
        <ele>131.3</ele>
        <time>2023-10-25T14:21:56Z</time>
      </trkpt>
      <trkpt lat="50.02886" lon="2.33085">
        <ele>131.3</ele>
        <time>2023-10-25T14:21:57Z</time>
      </trkpt>
      <trkpt lat="50.02886" lon="2.33083">
        <ele>131.3</ele>
        <time>2023-10-25T14:21:58Z</time>
      </trkpt>
      <trkpt lat="50.02886" lon="2.33081">
        <ele>131.3</ele>
        <time>2023-10-25T14:21:59Z</time>
      </trkpt>
      <trkpt lat="50.02886" lon="2.3308">
        <ele>131.3</ele>
        <time>2023-10-25T14:22:00Z</time>
      </trkpt>
      <trkpt lat="50.02886" lon="2.33078">
        <ele>131.3</ele>
        <time>2023-10-25T14:22:01Z</time>
      </trkpt>
      <trkpt lat="50.02885" lon="2.33076">
        <ele>131.3</ele>
        <time>2023-10-25T14:22:02Z</time>
      </trkpt>
      <trkpt lat="50.02885" lon="2.33074">
        <ele>131.4</ele>
        <time>2023-10-25T14:22:03Z</time>
      </trkpt>
      <trkpt lat="50.02885" lon="2.33073">
        <ele>131.4</ele>
        <time>2023-10-25T14:22:04Z</time>
      </trkpt>
      <trkpt lat="50.02885" lon="2.33071">
        <ele>131.4</ele>
        <time>2023-10-25T14:22:05Z</time>
      </trkpt>
      <trkpt lat="50.02885" lon="2.3307">
        <ele>131.4</ele>
        <time>2023-10-25T14:22:06Z</time>
      </trkpt>
      <trkpt lat="50.02885" lon="2.33068">
        <ele>131.4</ele>
        <time>2023-10-25T14:22:07Z</time>
      </trkpt>
      <trkpt lat="50.02885" lon="2.33067">
        <ele>131.4</ele>
        <time>2023-10-25T14:22:08Z</time>
      </trkpt>
      <trkpt lat="50.02885" lon="2.33065">
        <ele>131.4</ele>
        <time>2023-10-25T14:22:09Z</time>
      </trkpt>
      <trkpt lat="50.02885" lon="2.33064">
        <ele>131.4</ele>
        <time>2023-10-25T14:22:10Z</time>
      </trkpt>
      <trkpt lat="50.02885" lon="2.33062">
        <ele>131.4</ele>
        <time>2023-10-25T14:22:11Z</time>
      </trkpt>
      <trkpt lat="50.02885" lon="2.3306">
        <ele>131.5</ele>
        <time>2023-10-25T14:22:12Z</time>
      </trkpt>
      <trkpt lat="50.02885" lon="2.33059">
        <ele>131.5</ele>
        <time>2023-10-25T14:22:13Z</time>
      </trkpt>
      <trkpt lat="50.02885" lon="2.33057">
        <ele>131.5</ele>
        <time>2023-10-25T14:22:14Z</time>
      </trkpt>
      <trkpt lat="50.02885" lon="2.33056">
        <ele>131.5</ele>
        <time>2023-10-25T14:22:15Z</time>
      </trkpt>
      <trkpt lat="50.02886" lon="2.33055">
        <ele>131.5</ele>
        <time>2023-10-25T14:22:16Z</time>
      </trkpt>
      <trkpt lat="50.02886" lon="2.33053">
        <ele>131.5</ele>
        <time>2023-10-25T14:22:17Z</time>
      </trkpt>
      <trkpt lat="50.02886" lon="2.33051">
        <ele>131.5</ele>
        <time>2023-10-25T14:22:18Z</time>
      </trkpt>
      <trkpt lat="50.02886" lon="2.3305">
        <ele>131.5</ele>
        <time>2023-10-25T14:22:19Z</time>
      </trkpt>
      <trkpt lat="50.02886" lon="2.33048">
        <ele>131.6</ele>
        <time>2023-10-25T14:22:20Z</time>
      </trkpt>
      <trkpt lat="50.02887" lon="2.33046">
        <ele>131.6</ele>
        <time>2023-10-25T14:22:21Z</time>
      </trkpt>
      <trkpt lat="50.02887" lon="2.33044">
        <ele>131.6</ele>
        <time>2023-10-25T14:22:22Z</time>
      </trkpt>
      <trkpt lat="50.02887" lon="2.33043">
        <ele>131.6</ele>
        <time>2023-10-25T14:22:23Z</time>
      </trkpt>
      <trkpt lat="50.02887" lon="2.33041">
        <ele>131.6</ele>
        <time>2023-10-25T14:22:24Z</time>
      </trkpt>
      <trkpt lat="50.02888" lon="2.3304">
        <ele>131.6</ele>
        <time>2023-10-25T14:22:25Z</time>
      </trkpt>
      <trkpt lat="50.02888" lon="2.33038">
        <ele>131.6</ele>
        <time>2023-10-25T14:22:26Z</time>
      </trkpt>
      <trkpt lat="50.02888" lon="2.33036">
        <ele>131.7</ele>
        <time>2023-10-25T14:22:27Z</time>
      </trkpt>
      <trkpt lat="50.02888" lon="2.33035">
        <ele>131.7</ele>
        <time>2023-10-25T14:22:28Z</time>
      </trkpt>
      <trkpt lat="50.02889" lon="2.33033">
        <ele>131.7</ele>
        <time>2023-10-25T14:22:29Z</time>
      </trkpt>
      <trkpt lat="50.02889" lon="2.33031">
        <ele>131.7</ele>
        <time>2023-10-25T14:22:30Z</time>
      </trkpt>
      <trkpt lat="50.02889" lon="2.3303">
        <ele>131.7</ele>
        <time>2023-10-25T14:22:31Z</time>
      </trkpt>
      <trkpt lat="50.02889" lon="2.33028">
        <ele>131.7</ele>
        <time>2023-10-25T14:22:32Z</time>
      </trkpt>
      <trkpt lat="50.02889" lon="2.33026">
        <ele>131.7</ele>
        <time>2023-10-25T14:22:33Z</time>
      </trkpt>
      <trkpt lat="50.02889" lon="2.33025">
        <ele>131.8</ele>
        <time>2023-10-25T14:22:34Z</time>
      </trkpt>
      <trkpt lat="50.02889" lon="2.33024">
        <ele>131.8</ele>
        <time>2023-10-25T14:22:35Z</time>
      </trkpt>
      <trkpt lat="50.02889" lon="2.33022">
        <ele>131.8</ele>
        <time>2023-10-25T14:22:36Z</time>
      </trkpt>
      <trkpt lat="50.02889" lon="2.33021">
        <ele>131.8</ele>
        <time>2023-10-25T14:22:37Z</time>
      </trkpt>
      <trkpt lat="50.02889" lon="2.33019">
        <ele>131.8</ele>
        <time>2023-10-25T14:22:38Z</time>
      </trkpt>
      <trkpt lat="50.02889" lon="2.33017">
        <ele>131.8</ele>
        <time>2023-10-25T14:22:39Z</time>
      </trkpt>
      <trkpt lat="50.02889" lon="2.33016">
        <ele>131.8</ele>
        <time>2023-10-25T14:22:40Z</time>
      </trkpt>
      <trkpt lat="50.02889" lon="2.33014">
        <ele>131.8</ele>
        <time>2023-10-25T14:22:41Z</time>
      </trkpt>
      <trkpt lat="50.0289" lon="2.33012">
        <ele>131.8</ele>
        <time>2023-10-25T14:22:42Z</time>
      </trkpt>
      <trkpt lat="50.0289" lon="2.33011">
        <ele>131.8</ele>
        <time>2023-10-25T14:22:43Z</time>
      </trkpt>
      <trkpt lat="50.0289" lon="2.33009">
        <ele>131.8</ele>
        <time>2023-10-25T14:22:44Z</time>
      </trkpt>
      <trkpt lat="50.0289" lon="2.33008">
        <ele>131.8</ele>
        <time>2023-10-25T14:22:45Z</time>
      </trkpt>
      <trkpt lat="50.0289" lon="2.33006">
        <ele>131.8</ele>
        <time>2023-10-25T14:22:46Z</time>
      </trkpt>
      <trkpt lat="50.0289" lon="2.33005">
        <ele>131.8</ele>
        <time>2023-10-25T14:22:47Z</time>
      </trkpt>
      <trkpt lat="50.0289" lon="2.33003">
        <ele>131.8</ele>
        <time>2023-10-25T14:22:48Z</time>
      </trkpt>
      <trkpt lat="50.0289" lon="2.33001">
        <ele>131.8</ele>
        <time>2023-10-25T14:22:49Z</time>
      </trkpt>
      <trkpt lat="50.0289" lon="2.32999">
        <ele>131.8</ele>
        <time>2023-10-25T14:22:50Z</time>
      </trkpt>
      <trkpt lat="50.0289" lon="2.32997">
        <ele>131.8</ele>
        <time>2023-10-25T14:22:51Z</time>
      </trkpt>
      <trkpt lat="50.0289" lon="2.32996">
        <ele>131.8</ele>
        <time>2023-10-25T14:22:52Z</time>
      </trkpt>
      <trkpt lat="50.0289" lon="2.32994">
        <ele>131.9</ele>
        <time>2023-10-25T14:22:53Z</time>
      </trkpt>
      <trkpt lat="50.0289" lon="2.32993">
        <ele>131.9</ele>
        <time>2023-10-25T14:22:54Z</time>
      </trkpt>
      <trkpt lat="50.0289" lon="2.32991">
        <ele>131.9</ele>
        <time>2023-10-25T14:22:55Z</time>
      </trkpt>
      <trkpt lat="50.0289" lon="2.3299">
        <ele>131.9</ele>
        <time>2023-10-25T14:22:56Z</time>
      </trkpt>
      <trkpt lat="50.0289" lon="2.32988">
        <ele>131.9</ele>
        <time>2023-10-25T14:22:57Z</time>
      </trkpt>
      <trkpt lat="50.0289" lon="2.32986">
        <ele>131.9</ele>
        <time>2023-10-25T14:22:58Z</time>
      </trkpt>
      <trkpt lat="50.0289" lon="2.32985">
        <ele>131.9</ele>
        <time>2023-10-25T14:22:59Z</time>
      </trkpt>
      <trkpt lat="50.0289" lon="2.32983">
        <ele>131.9</ele>
        <time>2023-10-25T14:23:00Z</time>
      </trkpt>
      <trkpt lat="50.0289" lon="2.32982">
        <ele>131.9</ele>
        <time>2023-10-25T14:23:01Z</time>
      </trkpt>
      <trkpt lat="50.0289" lon="2.32981">
        <ele>131.9</ele>
        <time>2023-10-25T14:23:02Z</time>
      </trkpt>
      <trkpt lat="50.0289" lon="2.32979">
        <ele>131.9</ele>
        <time>2023-10-25T14:23:03Z</time>
      </trkpt>
      <trkpt lat="50.0289" lon="2.32978">
        <ele>131.9</ele>
        <time>2023-10-25T14:23:04Z</time>
      </trkpt>
      <trkpt lat="50.0289" lon="2.32976">
        <ele>131.9</ele>
        <time>2023-10-25T14:23:05Z</time>
      </trkpt>
      <trkpt lat="50.0289" lon="2.32975">
        <ele>132</ele>
        <time>2023-10-25T14:23:06Z</time>
      </trkpt>
      <trkpt lat="50.0289" lon="2.32973">
        <ele>132</ele>
        <time>2023-10-25T14:23:07Z</time>
      </trkpt>
      <trkpt lat="50.0289" lon="2.32972">
        <ele>132</ele>
        <time>2023-10-25T14:23:08Z</time>
      </trkpt>
      <trkpt lat="50.0289" lon="2.3297">
        <ele>132</ele>
        <time>2023-10-25T14:23:09Z</time>
      </trkpt>
      <trkpt lat="50.0289" lon="2.32967">
        <ele>132</ele>
        <time>2023-10-25T14:23:10Z</time>
      </trkpt>
      <trkpt lat="50.0289" lon="2.32966">
        <ele>132</ele>
        <time>2023-10-25T14:23:11Z</time>
      </trkpt>
      <trkpt lat="50.0289" lon="2.32965">
        <ele>132</ele>
        <time>2023-10-25T14:23:12Z</time>
      </trkpt>
      <trkpt lat="50.0289" lon="2.32961">
        <ele>132</ele>
        <time>2023-10-25T14:23:13Z</time>
      </trkpt>
      <trkpt lat="50.0289" lon="2.3296">
        <ele>132</ele>
        <time>2023-10-25T14:23:14Z</time>
      </trkpt>
      <trkpt lat="50.02891" lon="2.32959">
        <ele>132.1</ele>
        <time>2023-10-25T14:23:15Z</time>
      </trkpt>
      <trkpt lat="50.02891" lon="2.32957">
        <ele>132.1</ele>
        <time>2023-10-25T14:23:16Z</time>
      </trkpt>
      <trkpt lat="50.02891" lon="2.32955">
        <ele>132.1</ele>
        <time>2023-10-25T14:23:17Z</time>
      </trkpt>
      <trkpt lat="50.02891" lon="2.32954">
        <ele>132.1</ele>
        <time>2023-10-25T14:23:18Z</time>
      </trkpt>
      <trkpt lat="50.02891" lon="2.32953">
        <ele>132.1</ele>
        <time>2023-10-25T14:23:19Z</time>
      </trkpt>
      <trkpt lat="50.02891" lon="2.32951">
        <ele>132.1</ele>
        <time>2023-10-25T14:23:20Z</time>
      </trkpt>
      <trkpt lat="50.02891" lon="2.32949">
        <ele>132.1</ele>
        <time>2023-10-25T14:23:21Z</time>
      </trkpt>
      <trkpt lat="50.02892" lon="2.32948">
        <ele>132.1</ele>
        <time>2023-10-25T14:23:22Z</time>
      </trkpt>
      <trkpt lat="50.02892" lon="2.32946">
        <ele>132.1</ele>
        <time>2023-10-25T14:23:23Z</time>
      </trkpt>
      <trkpt lat="50.02892" lon="2.32945">
        <ele>132.2</ele>
        <time>2023-10-25T14:23:24Z</time>
      </trkpt>
      <trkpt lat="50.02892" lon="2.32943">
        <ele>132.2</ele>
        <time>2023-10-25T14:23:25Z</time>
      </trkpt>
      <trkpt lat="50.02892" lon="2.32942">
        <ele>132.2</ele>
        <time>2023-10-25T14:23:26Z</time>
      </trkpt>
      <trkpt lat="50.02892" lon="2.3294">
        <ele>132.2</ele>
        <time>2023-10-25T14:23:27Z</time>
      </trkpt>
      <trkpt lat="50.02892" lon="2.32938">
        <ele>132.2</ele>
        <time>2023-10-25T14:23:28Z</time>
      </trkpt>
      <trkpt lat="50.02892" lon="2.32937">
        <ele>132.2</ele>
        <time>2023-10-25T14:23:29Z</time>
      </trkpt>
      <trkpt lat="50.02893" lon="2.32935">
        <ele>132.2</ele>
        <time>2023-10-25T14:23:30Z</time>
      </trkpt>
      <trkpt lat="50.02893" lon="2.32933">
        <ele>132.2</ele>
        <time>2023-10-25T14:23:31Z</time>
      </trkpt>
      <trkpt lat="50.02893" lon="2.32931">
        <ele>132.3</ele>
        <time>2023-10-25T14:23:32Z</time>
      </trkpt>
      <trkpt lat="50.02893" lon="2.3293">
        <ele>132.3</ele>
        <time>2023-10-25T14:23:33Z</time>
      </trkpt>
      <trkpt lat="50.02894" lon="2.32928">
        <ele>132.3</ele>
        <time>2023-10-25T14:23:34Z</time>
      </trkpt>
      <trkpt lat="50.02894" lon="2.32926">
        <ele>132.3</ele>
        <time>2023-10-25T14:23:35Z</time>
      </trkpt>
      <trkpt lat="50.02894" lon="2.32925">
        <ele>132.3</ele>
        <time>2023-10-25T14:23:36Z</time>
      </trkpt>
      <trkpt lat="50.02895" lon="2.32923">
        <ele>132.3</ele>
        <time>2023-10-25T14:23:37Z</time>
      </trkpt>
      <trkpt lat="50.02895" lon="2.32921">
        <ele>132.3</ele>
        <time>2023-10-25T14:23:38Z</time>
      </trkpt>
      <trkpt lat="50.02895" lon="2.3292">
        <ele>132.3</ele>
        <time>2023-10-25T14:23:39Z</time>
      </trkpt>
      <trkpt lat="50.02895" lon="2.32917">
        <ele>132.4</ele>
        <time>2023-10-25T14:23:40Z</time>
      </trkpt>
      <trkpt lat="50.02896" lon="2.32915">
        <ele>132.4</ele>
        <time>2023-10-25T14:23:41Z</time>
      </trkpt>
      <trkpt lat="50.02896" lon="2.32914">
        <ele>132.4</ele>
        <time>2023-10-25T14:23:42Z</time>
      </trkpt>
      <trkpt lat="50.02896" lon="2.32912">
        <ele>132.4</ele>
        <time>2023-10-25T14:23:43Z</time>
      </trkpt>
      <trkpt lat="50.02896" lon="2.32911">
        <ele>132.4</ele>
        <time>2023-10-25T14:23:44Z</time>
      </trkpt>
      <trkpt lat="50.02897" lon="2.32909">
        <ele>132.4</ele>
        <time>2023-10-25T14:23:45Z</time>
      </trkpt>
      <trkpt lat="50.02897" lon="2.32908">
        <ele>132.4</ele>
        <time>2023-10-25T14:23:46Z</time>
      </trkpt>
      <trkpt lat="50.02897" lon="2.32906">
        <ele>132.4</ele>
        <time>2023-10-25T14:23:47Z</time>
      </trkpt>
      <trkpt lat="50.02897" lon="2.32904">
        <ele>132.5</ele>
        <time>2023-10-25T14:23:48Z</time>
      </trkpt>
      <trkpt lat="50.02898" lon="2.32901">
        <ele>132.5</ele>
        <time>2023-10-25T14:23:49Z</time>
      </trkpt>
      <trkpt lat="50.02898" lon="2.329">
        <ele>132.5</ele>
        <time>2023-10-25T14:23:50Z</time>
      </trkpt>
      <trkpt lat="50.02898" lon="2.32898">
        <ele>132.5</ele>
        <time>2023-10-25T14:23:51Z</time>
      </trkpt>
      <trkpt lat="50.02898" lon="2.32897">
        <ele>132.5</ele>
        <time>2023-10-25T14:23:52Z</time>
      </trkpt>
      <trkpt lat="50.02898" lon="2.32895">
        <ele>132.5</ele>
        <time>2023-10-25T14:23:53Z</time>
      </trkpt>
      <trkpt lat="50.02898" lon="2.32893">
        <ele>132.5</ele>
        <time>2023-10-25T14:23:54Z</time>
      </trkpt>
      <trkpt lat="50.02898" lon="2.3289">
        <ele>132.5</ele>
        <time>2023-10-25T14:23:55Z</time>
      </trkpt>
      <trkpt lat="50.02898" lon="2.32888">
        <ele>132.6</ele>
        <time>2023-10-25T14:23:56Z</time>
      </trkpt>
      <trkpt lat="50.02899" lon="2.32887">
        <ele>132.6</ele>
        <time>2023-10-25T14:23:57Z</time>
      </trkpt>
      <trkpt lat="50.02899" lon="2.32885">
        <ele>132.6</ele>
        <time>2023-10-25T14:23:58Z</time>
      </trkpt>
      <trkpt lat="50.02899" lon="2.32883">
        <ele>132.6</ele>
        <time>2023-10-25T14:23:59Z</time>
      </trkpt>
      <trkpt lat="50.02899" lon="2.32881">
        <ele>132.6</ele>
        <time>2023-10-25T14:24:00Z</time>
      </trkpt>
      <trkpt lat="50.02899" lon="2.32879">
        <ele>132.6</ele>
        <time>2023-10-25T14:24:01Z</time>
      </trkpt>
      <trkpt lat="50.029" lon="2.32877">
        <ele>132.7</ele>
        <time>2023-10-25T14:24:02Z</time>
      </trkpt>
      <trkpt lat="50.029" lon="2.32876">
        <ele>132.7</ele>
        <time>2023-10-25T14:24:03Z</time>
      </trkpt>
      <trkpt lat="50.02901" lon="2.32874">
        <ele>132.7</ele>
        <time>2023-10-25T14:24:04Z</time>
      </trkpt>
      <trkpt lat="50.02901" lon="2.32873">
        <ele>132.7</ele>
        <time>2023-10-25T14:24:05Z</time>
      </trkpt>
      <trkpt lat="50.02902" lon="2.32871">
        <ele>132.7</ele>
        <time>2023-10-25T14:24:06Z</time>
      </trkpt>
      <trkpt lat="50.02902" lon="2.3287">
        <ele>132.7</ele>
        <time>2023-10-25T14:24:07Z</time>
      </trkpt>
      <trkpt lat="50.02903" lon="2.32868">
        <ele>132.7</ele>
        <time>2023-10-25T14:24:08Z</time>
      </trkpt>
      <trkpt lat="50.02904" lon="2.32867">
        <ele>132.7</ele>
        <time>2023-10-25T14:24:09Z</time>
      </trkpt>
      <trkpt lat="50.02904" lon="2.32866">
        <ele>132.8</ele>
        <time>2023-10-25T14:24:10Z</time>
      </trkpt>
      <trkpt lat="50.02905" lon="2.32865">
        <ele>132.8</ele>
        <time>2023-10-25T14:24:11Z</time>
      </trkpt>
      <trkpt lat="50.02906" lon="2.32864">
        <ele>132.8</ele>
        <time>2023-10-25T14:24:12Z</time>
      </trkpt>
      <trkpt lat="50.02907" lon="2.32864">
        <ele>132.8</ele>
        <time>2023-10-25T14:24:13Z</time>
      </trkpt>
      <trkpt lat="50.02908" lon="2.32863">
        <ele>132.8</ele>
        <time>2023-10-25T14:24:14Z</time>
      </trkpt>
      <trkpt lat="50.02908" lon="2.32862">
        <ele>132.8</ele>
        <time>2023-10-25T14:24:15Z</time>
      </trkpt>
      <trkpt lat="50.02909" lon="2.32861">
        <ele>132.8</ele>
        <time>2023-10-25T14:24:16Z</time>
      </trkpt>
      <trkpt lat="50.0291" lon="2.32861">
        <ele>132.9</ele>
        <time>2023-10-25T14:24:17Z</time>
      </trkpt>
      <trkpt lat="50.02911" lon="2.3286">
        <ele>132.9</ele>
        <time>2023-10-25T14:24:18Z</time>
      </trkpt>
      <trkpt lat="50.02912" lon="2.3286">
        <ele>132.9</ele>
        <time>2023-10-25T14:24:19Z</time>
      </trkpt>
      <trkpt lat="50.02914" lon="2.3286">
        <ele>132.9</ele>
        <time>2023-10-25T14:24:20Z</time>
      </trkpt>
      <trkpt lat="50.02916" lon="2.32859">
        <ele>132.9</ele>
        <time>2023-10-25T14:24:21Z</time>
      </trkpt>
      <trkpt lat="50.02916" lon="2.32859">
        <ele>133</ele>
        <time>2023-10-25T14:24:22Z</time>
      </trkpt>
      <trkpt lat="50.02917" lon="2.32859">
        <ele>133</ele>
        <time>2023-10-25T14:24:23Z</time>
      </trkpt>
      <trkpt lat="50.02919" lon="2.32858">
        <ele>133</ele>
        <time>2023-10-25T14:24:24Z</time>
      </trkpt>
      <trkpt lat="50.0292" lon="2.32857">
        <ele>133</ele>
        <time>2023-10-25T14:24:25Z</time>
      </trkpt>
      <trkpt lat="50.0292" lon="2.32857">
        <ele>133</ele>
        <time>2023-10-25T14:24:26Z</time>
      </trkpt>
      <trkpt lat="50.02922" lon="2.32856">
        <ele>133</ele>
        <time>2023-10-25T14:24:27Z</time>
      </trkpt>
      <trkpt lat="50.02923" lon="2.32855">
        <ele>133.1</ele>
        <time>2023-10-25T14:24:28Z</time>
      </trkpt>
      <trkpt lat="50.02924" lon="2.32854">
        <ele>133.1</ele>
        <time>2023-10-25T14:24:29Z</time>
      </trkpt>
      <trkpt lat="50.02926" lon="2.32854">
        <ele>133.1</ele>
        <time>2023-10-25T14:24:30Z</time>
      </trkpt>
      <trkpt lat="50.02926" lon="2.32853">
        <ele>133.1</ele>
        <time>2023-10-25T14:24:31Z</time>
      </trkpt>
      <trkpt lat="50.02927" lon="2.32853">
        <ele>133.1</ele>
        <time>2023-10-25T14:24:32Z</time>
      </trkpt>
      <trkpt lat="50.02929" lon="2.32853">
        <ele>133.2</ele>
        <time>2023-10-25T14:24:33Z</time>
      </trkpt>
      <trkpt lat="50.0293" lon="2.32853">
        <ele>133.2</ele>
        <time>2023-10-25T14:24:34Z</time>
      </trkpt>
      <trkpt lat="50.02932" lon="2.32852">
        <ele>133.2</ele>
        <time>2023-10-25T14:24:35Z</time>
      </trkpt>
      <trkpt lat="50.02933" lon="2.32852">
        <ele>133.2</ele>
        <time>2023-10-25T14:24:36Z</time>
      </trkpt>
      <trkpt lat="50.02935" lon="2.32851">
        <ele>133.3</ele>
        <time>2023-10-25T14:24:37Z</time>
      </trkpt>
      <trkpt lat="50.02936" lon="2.32851">
        <ele>133.3</ele>
        <time>2023-10-25T14:24:38Z</time>
      </trkpt>
      <trkpt lat="50.02937" lon="2.32851">
        <ele>133.3</ele>
        <time>2023-10-25T14:24:39Z</time>
      </trkpt>
      <trkpt lat="50.02938" lon="2.32851">
        <ele>133.3</ele>
        <time>2023-10-25T14:24:40Z</time>
      </trkpt>
      <trkpt lat="50.02939" lon="2.3285">
        <ele>133.3</ele>
        <time>2023-10-25T14:24:41Z</time>
      </trkpt>
      <trkpt lat="50.0294" lon="2.3285">
        <ele>133.3</ele>
        <time>2023-10-25T14:24:42Z</time>
      </trkpt>
      <trkpt lat="50.02942" lon="2.3285">
        <ele>133.4</ele>
        <time>2023-10-25T14:24:43Z</time>
      </trkpt>
      <trkpt lat="50.02943" lon="2.32849">
        <ele>133.4</ele>
        <time>2023-10-25T14:24:44Z</time>
      </trkpt>
      <trkpt lat="50.02944" lon="2.32849">
        <ele>133.4</ele>
        <time>2023-10-25T14:24:45Z</time>
      </trkpt>
      <trkpt lat="50.02945" lon="2.32848">
        <ele>133.4</ele>
        <time>2023-10-25T14:24:46Z</time>
      </trkpt>
      <trkpt lat="50.02946" lon="2.32848">
        <ele>133.4</ele>
        <time>2023-10-25T14:24:47Z</time>
      </trkpt>
      <trkpt lat="50.02947" lon="2.32848">
        <ele>133.4</ele>
        <time>2023-10-25T14:24:48Z</time>
      </trkpt>
      <trkpt lat="50.02948" lon="2.32847">
        <ele>133.5</ele>
        <time>2023-10-25T14:24:49Z</time>
      </trkpt>
      <trkpt lat="50.02949" lon="2.32846">
        <ele>133.5</ele>
        <time>2023-10-25T14:24:50Z</time>
      </trkpt>
      <trkpt lat="50.0295" lon="2.32845">
        <ele>133.5</ele>
        <time>2023-10-25T14:24:51Z</time>
      </trkpt>
      <trkpt lat="50.02951" lon="2.32845">
        <ele>133.5</ele>
        <time>2023-10-25T14:24:52Z</time>
      </trkpt>
      <trkpt lat="50.02952" lon="2.32844">
        <ele>133.5</ele>
        <time>2023-10-25T14:24:53Z</time>
      </trkpt>
      <trkpt lat="50.02954" lon="2.32844">
        <ele>133.6</ele>
        <time>2023-10-25T14:24:54Z</time>
      </trkpt>
      <trkpt lat="50.02955" lon="2.32843">
        <ele>133.6</ele>
        <time>2023-10-25T14:24:55Z</time>
      </trkpt>
      <trkpt lat="50.02956" lon="2.32843">
        <ele>133.6</ele>
        <time>2023-10-25T14:24:56Z</time>
      </trkpt>
      <trkpt lat="50.02956" lon="2.32842">
        <ele>133.6</ele>
        <time>2023-10-25T14:24:57Z</time>
      </trkpt>
      <trkpt lat="50.02957" lon="2.32841">
        <ele>133.6</ele>
        <time>2023-10-25T14:24:58Z</time>
      </trkpt>
      <trkpt lat="50.02958" lon="2.3284">
        <ele>133.6</ele>
        <time>2023-10-25T14:24:59Z</time>
      </trkpt>
      <trkpt lat="50.02959" lon="2.32839">
        <ele>133.7</ele>
        <time>2023-10-25T14:25:00Z</time>
      </trkpt>
      <trkpt lat="50.0296" lon="2.32838">
        <ele>133.7</ele>
        <time>2023-10-25T14:25:01Z</time>
      </trkpt>
      <trkpt lat="50.02961" lon="2.32837">
        <ele>133.7</ele>
        <time>2023-10-25T14:25:02Z</time>
      </trkpt>
      <trkpt lat="50.02961" lon="2.32836">
        <ele>133.7</ele>
        <time>2023-10-25T14:25:03Z</time>
      </trkpt>
      <trkpt lat="50.02962" lon="2.32835">
        <ele>133.7</ele>
        <time>2023-10-25T14:25:04Z</time>
      </trkpt>
      <trkpt lat="50.02963" lon="2.32834">
        <ele>133.7</ele>
        <time>2023-10-25T14:25:05Z</time>
      </trkpt>
      <trkpt lat="50.02964" lon="2.32833">
        <ele>133.8</ele>
        <time>2023-10-25T14:25:06Z</time>
      </trkpt>
      <trkpt lat="50.02965" lon="2.32832">
        <ele>133.8</ele>
        <time>2023-10-25T14:25:07Z</time>
      </trkpt>
      <trkpt lat="50.02965" lon="2.32831">
        <ele>133.8</ele>
        <time>2023-10-25T14:25:08Z</time>
      </trkpt>
      <trkpt lat="50.02966" lon="2.3283">
        <ele>133.8</ele>
        <time>2023-10-25T14:25:09Z</time>
      </trkpt>
      <trkpt lat="50.02967" lon="2.32829">
        <ele>133.8</ele>
        <time>2023-10-25T14:25:10Z</time>
      </trkpt>
      <trkpt lat="50.02968" lon="2.32828">
        <ele>133.9</ele>
        <time>2023-10-25T14:25:11Z</time>
      </trkpt>
      <trkpt lat="50.02969" lon="2.32827">
        <ele>133.9</ele>
        <time>2023-10-25T14:25:12Z</time>
      </trkpt>
      <trkpt lat="50.0297" lon="2.32827">
        <ele>133.9</ele>
        <time>2023-10-25T14:25:13Z</time>
      </trkpt>
      <trkpt lat="50.02971" lon="2.32826">
        <ele>133.9</ele>
        <time>2023-10-25T14:25:14Z</time>
      </trkpt>
      <trkpt lat="50.02972" lon="2.32825">
        <ele>133.9</ele>
        <time>2023-10-25T14:25:15Z</time>
      </trkpt>
      <trkpt lat="50.02973" lon="2.32824">
        <ele>134</ele>
        <time>2023-10-25T14:25:16Z</time>
      </trkpt>
      <trkpt lat="50.02974" lon="2.32823">
        <ele>134</ele>
        <time>2023-10-25T14:25:17Z</time>
      </trkpt>
      <trkpt lat="50.02975" lon="2.32822">
        <ele>134</ele>
        <time>2023-10-25T14:25:18Z</time>
      </trkpt>
      <trkpt lat="50.02975" lon="2.32821">
        <ele>134</ele>
        <time>2023-10-25T14:25:19Z</time>
      </trkpt>
      <trkpt lat="50.02976" lon="2.3282">
        <ele>134</ele>
        <time>2023-10-25T14:25:20Z</time>
      </trkpt>
      <trkpt lat="50.02977" lon="2.32819">
        <ele>134</ele>
        <time>2023-10-25T14:25:21Z</time>
      </trkpt>
      <trkpt lat="50.02978" lon="2.32818">
        <ele>134.1</ele>
        <time>2023-10-25T14:25:22Z</time>
      </trkpt>
      <trkpt lat="50.02979" lon="2.32817">
        <ele>134.1</ele>
        <time>2023-10-25T14:25:23Z</time>
      </trkpt>
      <trkpt lat="50.02979" lon="2.32816">
        <ele>134.1</ele>
        <time>2023-10-25T14:25:24Z</time>
      </trkpt>
      <trkpt lat="50.0298" lon="2.32815">
        <ele>134.1</ele>
        <time>2023-10-25T14:25:25Z</time>
      </trkpt>
      <trkpt lat="50.02981" lon="2.32814">
        <ele>134.1</ele>
        <time>2023-10-25T14:25:26Z</time>
      </trkpt>
      <trkpt lat="50.02982" lon="2.32813">
        <ele>134.2</ele>
        <time>2023-10-25T14:25:27Z</time>
      </trkpt>
      <trkpt lat="50.02983" lon="2.32812">
        <ele>134.2</ele>
        <time>2023-10-25T14:25:28Z</time>
      </trkpt>
      <trkpt lat="50.02984" lon="2.32811">
        <ele>134.2</ele>
        <time>2023-10-25T14:25:29Z</time>
      </trkpt>
      <trkpt lat="50.02985" lon="2.32811">
        <ele>134.2</ele>
        <time>2023-10-25T14:25:30Z</time>
      </trkpt>
      <trkpt lat="50.02986" lon="2.3281">
        <ele>134.2</ele>
        <time>2023-10-25T14:25:31Z</time>
      </trkpt>
      <trkpt lat="50.02986" lon="2.32809">
        <ele>134.2</ele>
        <time>2023-10-25T14:25:32Z</time>
      </trkpt>
      <trkpt lat="50.02987" lon="2.32808">
        <ele>134.3</ele>
        <time>2023-10-25T14:25:33Z</time>
      </trkpt>
      <trkpt lat="50.02989" lon="2.32807">
        <ele>134.3</ele>
        <time>2023-10-25T14:25:34Z</time>
      </trkpt>
      <trkpt lat="50.0299" lon="2.32806">
        <ele>134.3</ele>
        <time>2023-10-25T14:25:35Z</time>
      </trkpt>
      <trkpt lat="50.02991" lon="2.32806">
        <ele>134.3</ele>
        <time>2023-10-25T14:25:36Z</time>
      </trkpt>
      <trkpt lat="50.02993" lon="2.32804">
        <ele>134.4</ele>
        <time>2023-10-25T14:25:37Z</time>
      </trkpt>
      <trkpt lat="50.02993" lon="2.32804">
        <ele>134.4</ele>
        <time>2023-10-25T14:25:38Z</time>
      </trkpt>
      <trkpt lat="50.02994" lon="2.32803">
        <ele>134.4</ele>
        <time>2023-10-25T14:25:39Z</time>
      </trkpt>
      <trkpt lat="50.02995" lon="2.32802">
        <ele>134.4</ele>
        <time>2023-10-25T14:25:40Z</time>
      </trkpt>
      <trkpt lat="50.02996" lon="2.32801">
        <ele>134.4</ele>
        <time>2023-10-25T14:25:41Z</time>
      </trkpt>
      <trkpt lat="50.02996" lon="2.328">
        <ele>134.5</ele>
        <time>2023-10-25T14:25:42Z</time>
      </trkpt>
      <trkpt lat="50.02997" lon="2.32799">
        <ele>134.5</ele>
        <time>2023-10-25T14:25:43Z</time>
      </trkpt>
      <trkpt lat="50.02998" lon="2.32799">
        <ele>134.5</ele>
        <time>2023-10-25T14:25:44Z</time>
      </trkpt>
      <trkpt lat="50.02999" lon="2.32798">
        <ele>134.5</ele>
        <time>2023-10-25T14:25:45Z</time>
      </trkpt>
      <trkpt lat="50.03" lon="2.32797">
        <ele>134.5</ele>
        <time>2023-10-25T14:25:46Z</time>
      </trkpt>
      <trkpt lat="50.03001" lon="2.32797">
        <ele>134.6</ele>
        <time>2023-10-25T14:25:47Z</time>
      </trkpt>
      <trkpt lat="50.03002" lon="2.32796">
        <ele>134.6</ele>
        <time>2023-10-25T14:25:48Z</time>
      </trkpt>
      <trkpt lat="50.03003" lon="2.32795">
        <ele>134.6</ele>
        <time>2023-10-25T14:25:49Z</time>
      </trkpt>
      <trkpt lat="50.03004" lon="2.32795">
        <ele>134.6</ele>
        <time>2023-10-25T14:25:50Z</time>
      </trkpt>
      <trkpt lat="50.03005" lon="2.32794">
        <ele>134.6</ele>
        <time>2023-10-25T14:25:51Z</time>
      </trkpt>
      <trkpt lat="50.03006" lon="2.32793">
        <ele>134.6</ele>
        <time>2023-10-25T14:25:52Z</time>
      </trkpt>
      <trkpt lat="50.03007" lon="2.32792">
        <ele>134.7</ele>
        <time>2023-10-25T14:25:53Z</time>
      </trkpt>
      <trkpt lat="50.03008" lon="2.32792">
        <ele>134.7</ele>
        <time>2023-10-25T14:25:54Z</time>
      </trkpt>
      <trkpt lat="50.0301" lon="2.3279">
        <ele>134.7</ele>
        <time>2023-10-25T14:25:55Z</time>
      </trkpt>
      <trkpt lat="50.03011" lon="2.3279">
        <ele>134.7</ele>
        <time>2023-10-25T14:25:56Z</time>
      </trkpt>
      <trkpt lat="50.03012" lon="2.32789">
        <ele>134.8</ele>
        <time>2023-10-25T14:25:57Z</time>
      </trkpt>
      <trkpt lat="50.03013" lon="2.32789">
        <ele>134.8</ele>
        <time>2023-10-25T14:25:58Z</time>
      </trkpt>
      <trkpt lat="50.03013" lon="2.32788">
        <ele>134.8</ele>
        <time>2023-10-25T14:25:59Z</time>
      </trkpt>
      <trkpt lat="50.03014" lon="2.32787">
        <ele>134.8</ele>
        <time>2023-10-25T14:26:00Z</time>
      </trkpt>
      <trkpt lat="50.03015" lon="2.32786">
        <ele>134.8</ele>
        <time>2023-10-25T14:26:01Z</time>
      </trkpt>
      <trkpt lat="50.03016" lon="2.32785">
        <ele>134.8</ele>
        <time>2023-10-25T14:26:02Z</time>
      </trkpt>
      <trkpt lat="50.03017" lon="2.32784">
        <ele>134.9</ele>
        <time>2023-10-25T14:26:03Z</time>
      </trkpt>
      <trkpt lat="50.03018" lon="2.32784">
        <ele>134.9</ele>
        <time>2023-10-25T14:26:04Z</time>
      </trkpt>
      <trkpt lat="50.03019" lon="2.32784">
        <ele>134.9</ele>
        <time>2023-10-25T14:26:05Z</time>
      </trkpt>
      <trkpt lat="50.03019" lon="2.32783">
        <ele>134.9</ele>
        <time>2023-10-25T14:26:06Z</time>
      </trkpt>
      <trkpt lat="50.0302" lon="2.32783">
        <ele>134.9</ele>
        <time>2023-10-25T14:26:07Z</time>
      </trkpt>
      <trkpt lat="50.03021" lon="2.32782">
        <ele>134.9</ele>
        <time>2023-10-25T14:26:08Z</time>
      </trkpt>
      <trkpt lat="50.03022" lon="2.32782">
        <ele>134.9</ele>
        <time>2023-10-25T14:26:09Z</time>
      </trkpt>
      <trkpt lat="50.03022" lon="2.32782">
        <ele>134.9</ele>
        <time>2023-10-25T14:26:10Z</time>
      </trkpt>
      <trkpt lat="50.03023" lon="2.32781">
        <ele>134.9</ele>
        <time>2023-10-25T14:26:11Z</time>
      </trkpt>
      <trkpt lat="50.03024" lon="2.32781">
        <ele>135</ele>
        <time>2023-10-25T14:26:12Z</time>
      </trkpt>
      <trkpt lat="50.03024" lon="2.3278">
        <ele>135</ele>
        <time>2023-10-25T14:26:13Z</time>
      </trkpt>
      <trkpt lat="50.03024" lon="2.3278">
        <ele>135</ele>
        <time>2023-10-25T14:26:14Z</time>
      </trkpt>
      <trkpt lat="50.03025" lon="2.32779">
        <ele>135</ele>
        <time>2023-10-25T14:26:15Z</time>
      </trkpt>
      <trkpt lat="50.03025" lon="2.32779">
        <ele>135</ele>
        <time>2023-10-25T14:26:16Z</time>
      </trkpt>
      <trkpt lat="50.03026" lon="2.32779">
        <ele>135</ele>
        <time>2023-10-25T14:26:17Z</time>
      </trkpt>
      <trkpt lat="50.03027" lon="2.32778">
        <ele>135</ele>
        <time>2023-10-25T14:26:18Z</time>
      </trkpt>
      <trkpt lat="50.03027" lon="2.32777">
        <ele>135</ele>
        <time>2023-10-25T14:26:19Z</time>
      </trkpt>
      <trkpt lat="50.03028" lon="2.32777">
        <ele>135</ele>
        <time>2023-10-25T14:26:20Z</time>
      </trkpt>
      <trkpt lat="50.0303" lon="2.32776">
        <ele>135.1</ele>
        <time>2023-10-25T14:26:21Z</time>
      </trkpt>
      <trkpt lat="50.03031" lon="2.32776">
        <ele>135.1</ele>
        <time>2023-10-25T14:26:22Z</time>
      </trkpt>
      <trkpt lat="50.03032" lon="2.32775">
        <ele>135.1</ele>
        <time>2023-10-25T14:26:23Z</time>
      </trkpt>
      <trkpt lat="50.03033" lon="2.32775">
        <ele>135.1</ele>
        <time>2023-10-25T14:26:24Z</time>
      </trkpt>
      <trkpt lat="50.03034" lon="2.32774">
        <ele>135.1</ele>
        <time>2023-10-25T14:26:25Z</time>
      </trkpt>
      <trkpt lat="50.03035" lon="2.32774">
        <ele>135.1</ele>
        <time>2023-10-25T14:26:26Z</time>
      </trkpt>
      <trkpt lat="50.03036" lon="2.32773">
        <ele>135.2</ele>
        <time>2023-10-25T14:26:27Z</time>
      </trkpt>
      <trkpt lat="50.03037" lon="2.32773">
        <ele>135.2</ele>
        <time>2023-10-25T14:26:28Z</time>
      </trkpt>
      <trkpt lat="50.03039" lon="2.32772">
        <ele>135.2</ele>
        <time>2023-10-25T14:26:29Z</time>
      </trkpt>
      <trkpt lat="50.0304" lon="2.32771">
        <ele>135.2</ele>
        <time>2023-10-25T14:26:30Z</time>
      </trkpt>
      <trkpt lat="50.03041" lon="2.32771">
        <ele>135.2</ele>
        <time>2023-10-25T14:26:31Z</time>
      </trkpt>
      <trkpt lat="50.03042" lon="2.32771">
        <ele>135.2</ele>
        <time>2023-10-25T14:26:32Z</time>
      </trkpt>
      <trkpt lat="50.03043" lon="2.3277">
        <ele>135.2</ele>
        <time>2023-10-25T14:26:33Z</time>
      </trkpt>
      <trkpt lat="50.03044" lon="2.3277">
        <ele>135.2</ele>
        <time>2023-10-25T14:26:34Z</time>
      </trkpt>
      <trkpt lat="50.03046" lon="2.3277">
        <ele>135.2</ele>
        <time>2023-10-25T14:26:35Z</time>
      </trkpt>
      <trkpt lat="50.03047" lon="2.32769">
        <ele>135.2</ele>
        <time>2023-10-25T14:26:36Z</time>
      </trkpt>
      <trkpt lat="50.03048" lon="2.32769">
        <ele>135.2</ele>
        <time>2023-10-25T14:26:37Z</time>
      </trkpt>
      <trkpt lat="50.03049" lon="2.32769">
        <ele>135.2</ele>
        <time>2023-10-25T14:26:38Z</time>
      </trkpt>
      <trkpt lat="50.0305" lon="2.32769">
        <ele>135.2</ele>
        <time>2023-10-25T14:26:39Z</time>
      </trkpt>
      <trkpt lat="50.03051" lon="2.32768">
        <ele>135.2</ele>
        <time>2023-10-25T14:26:40Z</time>
      </trkpt>
      <trkpt lat="50.03052" lon="2.32768">
        <ele>135.2</ele>
        <time>2023-10-25T14:26:41Z</time>
      </trkpt>
      <trkpt lat="50.03053" lon="2.32768">
        <ele>135.2</ele>
        <time>2023-10-25T14:26:42Z</time>
      </trkpt>
      <trkpt lat="50.03055" lon="2.32768">
        <ele>135.2</ele>
        <time>2023-10-25T14:26:43Z</time>
      </trkpt>
      <trkpt lat="50.03056" lon="2.32767">
        <ele>135.2</ele>
        <time>2023-10-25T14:26:44Z</time>
      </trkpt>
      <trkpt lat="50.03057" lon="2.32767">
        <ele>135.3</ele>
        <time>2023-10-25T14:26:45Z</time>
      </trkpt>
      <trkpt lat="50.03058" lon="2.32767">
        <ele>135.3</ele>
        <time>2023-10-25T14:26:46Z</time>
      </trkpt>
      <trkpt lat="50.03059" lon="2.32767">
        <ele>135.3</ele>
        <time>2023-10-25T14:26:47Z</time>
      </trkpt>
      <trkpt lat="50.0306" lon="2.32767">
        <ele>135.3</ele>
        <time>2023-10-25T14:26:48Z</time>
      </trkpt>
      <trkpt lat="50.03061" lon="2.32767">
        <ele>135.3</ele>
        <time>2023-10-25T14:26:49Z</time>
      </trkpt>
      <trkpt lat="50.03063" lon="2.32766">
        <ele>135.3</ele>
        <time>2023-10-25T14:26:50Z</time>
      </trkpt>
      <trkpt lat="50.03064" lon="2.32767">
        <ele>135.3</ele>
        <time>2023-10-25T14:26:51Z</time>
      </trkpt>
      <trkpt lat="50.03065" lon="2.32767">
        <ele>135.3</ele>
        <time>2023-10-25T14:26:52Z</time>
      </trkpt>
      <trkpt lat="50.03065" lon="2.32767">
        <ele>135.3</ele>
        <time>2023-10-25T14:26:53Z</time>
      </trkpt>
      <trkpt lat="50.03066" lon="2.32767">
        <ele>135.3</ele>
        <time>2023-10-25T14:26:54Z</time>
      </trkpt>
      <trkpt lat="50.03067" lon="2.32766">
        <ele>135.3</ele>
        <time>2023-10-25T14:26:55Z</time>
      </trkpt>
      <trkpt lat="50.03068" lon="2.32766">
        <ele>135.3</ele>
        <time>2023-10-25T14:26:56Z</time>
      </trkpt>
      <trkpt lat="50.03069" lon="2.32766">
        <ele>135.3</ele>
        <time>2023-10-25T14:26:57Z</time>
      </trkpt>
      <trkpt lat="50.0307" lon="2.32765">
        <ele>135.3</ele>
        <time>2023-10-25T14:26:58Z</time>
      </trkpt>
      <trkpt lat="50.03071" lon="2.32765">
        <ele>135.3</ele>
        <time>2023-10-25T14:26:59Z</time>
      </trkpt>
      <trkpt lat="50.03071" lon="2.32764">
        <ele>135.3</ele>
        <time>2023-10-25T14:27:00Z</time>
      </trkpt>
      <trkpt lat="50.03072" lon="2.32764">
        <ele>135.3</ele>
        <time>2023-10-25T14:27:01Z</time>
      </trkpt>
      <trkpt lat="50.03073" lon="2.32763">
        <ele>135.3</ele>
        <time>2023-10-25T14:27:02Z</time>
      </trkpt>
      <trkpt lat="50.03074" lon="2.32763">
        <ele>135.3</ele>
        <time>2023-10-25T14:27:03Z</time>
      </trkpt>
      <trkpt lat="50.03074" lon="2.32761">
        <ele>135.4</ele>
        <time>2023-10-25T14:27:04Z</time>
      </trkpt>
      <trkpt lat="50.03075" lon="2.3276">
        <ele>135.4</ele>
        <time>2023-10-25T14:27:05Z</time>
      </trkpt>
      <trkpt lat="50.03075" lon="2.32759">
        <ele>135.4</ele>
        <time>2023-10-25T14:27:06Z</time>
      </trkpt>
      <trkpt lat="50.03076" lon="2.32758">
        <ele>135.4</ele>
        <time>2023-10-25T14:27:07Z</time>
      </trkpt>
      <trkpt lat="50.03077" lon="2.32758">
        <ele>135.4</ele>
        <time>2023-10-25T14:27:08Z</time>
      </trkpt>
      <trkpt lat="50.03078" lon="2.32757">
        <ele>135.4</ele>
        <time>2023-10-25T14:27:09Z</time>
      </trkpt>
      <trkpt lat="50.03078" lon="2.32756">
        <ele>135.4</ele>
        <time>2023-10-25T14:27:10Z</time>
      </trkpt>
      <trkpt lat="50.03079" lon="2.32756">
        <ele>135.4</ele>
        <time>2023-10-25T14:27:11Z</time>
      </trkpt>
      <trkpt lat="50.0308" lon="2.32755">
        <ele>135.4</ele>
        <time>2023-10-25T14:27:12Z</time>
      </trkpt>
      <trkpt lat="50.03081" lon="2.32754">
        <ele>135.4</ele>
        <time>2023-10-25T14:27:13Z</time>
      </trkpt>
      <trkpt lat="50.03081" lon="2.32754">
        <ele>135.4</ele>
        <time>2023-10-25T14:27:14Z</time>
      </trkpt>
      <trkpt lat="50.03082" lon="2.32753">
        <ele>135.4</ele>
        <time>2023-10-25T14:27:15Z</time>
      </trkpt>
      <trkpt lat="50.03083" lon="2.32752">
        <ele>135.4</ele>
        <time>2023-10-25T14:27:16Z</time>
      </trkpt>
      <trkpt lat="50.03084" lon="2.32752">
        <ele>135.4</ele>
        <time>2023-10-25T14:27:17Z</time>
      </trkpt>
      <trkpt lat="50.03084" lon="2.32751">
        <ele>135.4</ele>
        <time>2023-10-25T14:27:18Z</time>
      </trkpt>
      <trkpt lat="50.03084" lon="2.32749">
        <ele>135.4</ele>
        <time>2023-10-25T14:27:19Z</time>
      </trkpt>
      <trkpt lat="50.03084" lon="2.32748">
        <ele>135.4</ele>
        <time>2023-10-25T14:27:20Z</time>
      </trkpt>
      <trkpt lat="50.03084" lon="2.32748">
        <ele>135.4</ele>
        <time>2023-10-25T14:27:21Z</time>
      </trkpt>
      <trkpt lat="50.03083" lon="2.32748">
        <ele>135.4</ele>
        <time>2023-10-25T14:27:22Z</time>
      </trkpt>
      <trkpt lat="50.03082" lon="2.32747">
        <ele>135.4</ele>
        <time>2023-10-25T14:27:23Z</time>
      </trkpt>
      <trkpt lat="50.03082" lon="2.32747">
        <ele>135.4</ele>
        <time>2023-10-25T14:27:24Z</time>
      </trkpt>
      <trkpt lat="50.03081" lon="2.32746">
        <ele>135.4</ele>
        <time>2023-10-25T14:27:25Z</time>
      </trkpt>
      <trkpt lat="50.03081" lon="2.32745">
        <ele>135.4</ele>
        <time>2023-10-25T14:27:26Z</time>
      </trkpt>
      <trkpt lat="50.0308" lon="2.32744">
        <ele>135.4</ele>
        <time>2023-10-25T14:27:27Z</time>
      </trkpt>
      <trkpt lat="50.0308" lon="2.32743">
        <ele>135.4</ele>
        <time>2023-10-25T14:27:28Z</time>
      </trkpt>
      <trkpt lat="50.03079" lon="2.32741">
        <ele>135.4</ele>
        <time>2023-10-25T14:27:29Z</time>
      </trkpt>
      <trkpt lat="50.03079" lon="2.32739">
        <ele>135.4</ele>
        <time>2023-10-25T14:27:30Z</time>
      </trkpt>
      <trkpt lat="50.03078" lon="2.32737">
        <ele>135.4</ele>
        <time>2023-10-25T14:27:31Z</time>
      </trkpt>
      <trkpt lat="50.03078" lon="2.32735">
        <ele>135.4</ele>
        <time>2023-10-25T14:27:32Z</time>
      </trkpt>
      <trkpt lat="50.03077" lon="2.32734">
        <ele>135.4</ele>
        <time>2023-10-25T14:27:33Z</time>
      </trkpt>
      <trkpt lat="50.03077" lon="2.32732">
        <ele>135.4</ele>
        <time>2023-10-25T14:27:34Z</time>
      </trkpt>
      <trkpt lat="50.03076" lon="2.3273">
        <ele>135.3</ele>
        <time>2023-10-25T14:27:35Z</time>
      </trkpt>
      <trkpt lat="50.03075" lon="2.32728">
        <ele>135.3</ele>
        <time>2023-10-25T14:27:36Z</time>
      </trkpt>
      <trkpt lat="50.03075" lon="2.32726">
        <ele>135.3</ele>
        <time>2023-10-25T14:27:37Z</time>
      </trkpt>
      <trkpt lat="50.03074" lon="2.32723">
        <ele>135.3</ele>
        <time>2023-10-25T14:27:38Z</time>
      </trkpt>
      <trkpt lat="50.03074" lon="2.32722">
        <ele>135.3</ele>
        <time>2023-10-25T14:27:39Z</time>
      </trkpt>
      <trkpt lat="50.03073" lon="2.32721">
        <ele>135.3</ele>
        <time>2023-10-25T14:27:40Z</time>
      </trkpt>
      <trkpt lat="50.03073" lon="2.32719">
        <ele>135.3</ele>
        <time>2023-10-25T14:27:41Z</time>
      </trkpt>
      <trkpt lat="50.03072" lon="2.32717">
        <ele>135.3</ele>
        <time>2023-10-25T14:27:42Z</time>
      </trkpt>
      <trkpt lat="50.03072" lon="2.32716">
        <ele>135.3</ele>
        <time>2023-10-25T14:27:43Z</time>
      </trkpt>
      <trkpt lat="50.03071" lon="2.32714">
        <ele>135.3</ele>
        <time>2023-10-25T14:27:44Z</time>
      </trkpt>
      <trkpt lat="50.03071" lon="2.32713">
        <ele>135.3</ele>
        <time>2023-10-25T14:27:45Z</time>
      </trkpt>
      <trkpt lat="50.0307" lon="2.32711">
        <ele>135.3</ele>
        <time>2023-10-25T14:27:46Z</time>
      </trkpt>
      <trkpt lat="50.0307" lon="2.3271">
        <ele>135.3</ele>
        <time>2023-10-25T14:27:47Z</time>
      </trkpt>
      <trkpt lat="50.03069" lon="2.32708">
        <ele>135.3</ele>
        <time>2023-10-25T14:27:48Z</time>
      </trkpt>
      <trkpt lat="50.03069" lon="2.32707">
        <ele>135.3</ele>
        <time>2023-10-25T14:27:49Z</time>
      </trkpt>
      <trkpt lat="50.03068" lon="2.32706">
        <ele>135.3</ele>
        <time>2023-10-25T14:27:50Z</time>
      </trkpt>
      <trkpt lat="50.03067" lon="2.32704">
        <ele>135.3</ele>
        <time>2023-10-25T14:27:51Z</time>
      </trkpt>
      <trkpt lat="50.03066" lon="2.32703">
        <ele>135.2</ele>
        <time>2023-10-25T14:27:52Z</time>
      </trkpt>
      <trkpt lat="50.03066" lon="2.32701">
        <ele>135.2</ele>
        <time>2023-10-25T14:27:53Z</time>
      </trkpt>
      <trkpt lat="50.03065" lon="2.327">
        <ele>135.2</ele>
        <time>2023-10-25T14:27:54Z</time>
      </trkpt>
      <trkpt lat="50.03064" lon="2.32699">
        <ele>135.2</ele>
        <time>2023-10-25T14:27:55Z</time>
      </trkpt>
      <trkpt lat="50.03064" lon="2.32698">
        <ele>135.2</ele>
        <time>2023-10-25T14:27:56Z</time>
      </trkpt>
      <trkpt lat="50.03063" lon="2.32697">
        <ele>135.2</ele>
        <time>2023-10-25T14:27:57Z</time>
      </trkpt>
      <trkpt lat="50.03063" lon="2.32696">
        <ele>135.2</ele>
        <time>2023-10-25T14:27:58Z</time>
      </trkpt>
      <trkpt lat="50.03062" lon="2.32695">
        <ele>135.2</ele>
        <time>2023-10-25T14:27:59Z</time>
      </trkpt>
      <trkpt lat="50.03062" lon="2.32695">
        <ele>135.2</ele>
        <time>2023-10-25T14:28:00Z</time>
      </trkpt>
      <trkpt lat="50.03061" lon="2.32694">
        <ele>135.2</ele>
        <time>2023-10-25T14:28:01Z</time>
      </trkpt>
      <trkpt lat="50.03061" lon="2.32693">
        <ele>135.2</ele>
        <time>2023-10-25T14:28:02Z</time>
      </trkpt>
      <trkpt lat="50.0306" lon="2.32692">
        <ele>135.2</ele>
        <time>2023-10-25T14:28:03Z</time>
      </trkpt>
      <trkpt lat="50.0306" lon="2.32692">
        <ele>135.2</ele>
        <time>2023-10-25T14:28:04Z</time>
      </trkpt>
      <trkpt lat="50.03059" lon="2.32691">
        <ele>135.2</ele>
        <time>2023-10-25T14:28:05Z</time>
      </trkpt>
      <trkpt lat="50.03059" lon="2.32691">
        <ele>135.2</ele>
        <time>2023-10-25T14:28:06Z</time>
      </trkpt>
      <trkpt lat="50.03059" lon="2.32691">
        <ele>135.2</ele>
        <time>2023-10-25T14:28:07Z</time>
      </trkpt>
      <trkpt lat="50.03058" lon="2.32691">
        <ele>135.3</ele>
        <time>2023-10-25T14:28:08Z</time>
      </trkpt>
      <trkpt lat="50.03058" lon="2.3269">
        <ele>135.3</ele>
        <time>2023-10-25T14:28:09Z</time>
      </trkpt>
      <trkpt lat="50.03058" lon="2.3269">
        <ele>135.3</ele>
        <time>2023-10-25T14:28:10Z</time>
      </trkpt>
      <trkpt lat="50.03058" lon="2.3269">
        <ele>135.3</ele>
        <time>2023-10-25T14:28:11Z</time>
      </trkpt>
      <trkpt lat="50.03058" lon="2.3269">
        <ele>135.3</ele>
        <time>2023-10-25T14:28:12Z</time>
      </trkpt>
      <trkpt lat="50.03058" lon="2.32689">
        <ele>135.3</ele>
        <time>2023-10-25T14:28:13Z</time>
      </trkpt>
      <trkpt lat="50.03058" lon="2.32688">
        <ele>135.3</ele>
        <time>2023-10-25T14:28:14Z</time>
      </trkpt>
      <trkpt lat="50.03059" lon="2.32687">
        <ele>135.3</ele>
        <time>2023-10-25T14:28:15Z</time>
      </trkpt>
      <trkpt lat="50.03059" lon="2.32685">
        <ele>135.3</ele>
        <time>2023-10-25T14:28:16Z</time>
      </trkpt>
      <trkpt lat="50.03058" lon="2.32684">
        <ele>135.3</ele>
        <time>2023-10-25T14:28:17Z</time>
      </trkpt>
      <trkpt lat="50.03058" lon="2.32682">
        <ele>135.3</ele>
        <time>2023-10-25T14:28:18Z</time>
      </trkpt>
      <trkpt lat="50.03058" lon="2.3268">
        <ele>135.3</ele>
        <time>2023-10-25T14:28:19Z</time>
      </trkpt>
      <trkpt lat="50.03057" lon="2.32677">
        <ele>135.3</ele>
        <time>2023-10-25T14:28:20Z</time>
      </trkpt>
      <trkpt lat="50.03057" lon="2.32676">
        <ele>135.3</ele>
        <time>2023-10-25T14:28:21Z</time>
      </trkpt>
      <trkpt lat="50.03056" lon="2.32675">
        <ele>135.3</ele>
        <time>2023-10-25T14:28:22Z</time>
      </trkpt>
      <trkpt lat="50.03056" lon="2.32673">
        <ele>135.3</ele>
        <time>2023-10-25T14:28:23Z</time>
      </trkpt>
      <trkpt lat="50.03056" lon="2.32672">
        <ele>135.3</ele>
        <time>2023-10-25T14:28:24Z</time>
      </trkpt>
      <trkpt lat="50.03056" lon="2.32671">
        <ele>135.3</ele>
        <time>2023-10-25T14:28:25Z</time>
      </trkpt>
      <trkpt lat="50.03056" lon="2.3267">
        <ele>135.3</ele>
        <time>2023-10-25T14:28:26Z</time>
      </trkpt>
      <trkpt lat="50.03055" lon="2.32669">
        <ele>135.3</ele>
        <time>2023-10-25T14:28:27Z</time>
      </trkpt>
      <trkpt lat="50.03055" lon="2.32668">
        <ele>135.4</ele>
        <time>2023-10-25T14:28:28Z</time>
      </trkpt>
      <trkpt lat="50.03054" lon="2.32667">
        <ele>135.4</ele>
        <time>2023-10-25T14:28:29Z</time>
      </trkpt>
      <trkpt lat="50.03054" lon="2.32666">
        <ele>135.4</ele>
        <time>2023-10-25T14:28:30Z</time>
      </trkpt>
      <trkpt lat="50.03053" lon="2.32666">
        <ele>135.4</ele>
        <time>2023-10-25T14:28:31Z</time>
      </trkpt>
      <trkpt lat="50.03052" lon="2.32665">
        <ele>135.4</ele>
        <time>2023-10-25T14:28:32Z</time>
      </trkpt>
      <trkpt lat="50.03051" lon="2.32664">
        <ele>135.4</ele>
        <time>2023-10-25T14:28:33Z</time>
      </trkpt>
      <trkpt lat="50.0305" lon="2.32663">
        <ele>135.4</ele>
        <time>2023-10-25T14:28:34Z</time>
      </trkpt>
      <trkpt lat="50.0305" lon="2.32663">
        <ele>135.4</ele>
        <time>2023-10-25T14:28:35Z</time>
      </trkpt>
      <trkpt lat="50.03049" lon="2.32662">
        <ele>135.4</ele>
        <time>2023-10-25T14:28:36Z</time>
      </trkpt>
      <trkpt lat="50.03049" lon="2.32661">
        <ele>135.4</ele>
        <time>2023-10-25T14:28:37Z</time>
      </trkpt>
      <trkpt lat="50.03048" lon="2.32661">
        <ele>135.4</ele>
        <time>2023-10-25T14:28:38Z</time>
      </trkpt>
      <trkpt lat="50.03047" lon="2.3266">
        <ele>135.4</ele>
        <time>2023-10-25T14:28:39Z</time>
      </trkpt>
      <trkpt lat="50.03047" lon="2.3266">
        <ele>135.4</ele>
        <time>2023-10-25T14:28:40Z</time>
      </trkpt>
      <trkpt lat="50.03046" lon="2.32659">
        <ele>135.4</ele>
        <time>2023-10-25T14:28:41Z</time>
      </trkpt>
      <trkpt lat="50.03045" lon="2.32659">
        <ele>135.4</ele>
        <time>2023-10-25T14:28:42Z</time>
      </trkpt>
      <trkpt lat="50.03044" lon="2.32658">
        <ele>135.4</ele>
        <time>2023-10-25T14:28:43Z</time>
      </trkpt>
      <trkpt lat="50.03043" lon="2.32657">
        <ele>135.5</ele>
        <time>2023-10-25T14:28:44Z</time>
      </trkpt>
      <trkpt lat="50.03042" lon="2.32657">
        <ele>135.5</ele>
        <time>2023-10-25T14:28:45Z</time>
      </trkpt>
      <trkpt lat="50.03041" lon="2.32656">
        <ele>135.5</ele>
        <time>2023-10-25T14:28:46Z</time>
      </trkpt>
      <trkpt lat="50.0304" lon="2.32656">
        <ele>135.5</ele>
        <time>2023-10-25T14:28:47Z</time>
      </trkpt>
      <trkpt lat="50.03039" lon="2.32656">
        <ele>135.5</ele>
        <time>2023-10-25T14:28:48Z</time>
      </trkpt>
      <trkpt lat="50.03038" lon="2.32655">
        <ele>135.5</ele>
        <time>2023-10-25T14:28:49Z</time>
      </trkpt>
      <trkpt lat="50.03037" lon="2.32655">
        <ele>135.5</ele>
        <time>2023-10-25T14:28:50Z</time>
      </trkpt>
      <trkpt lat="50.03035" lon="2.32654">
        <ele>135.5</ele>
        <time>2023-10-25T14:28:51Z</time>
      </trkpt>
      <trkpt lat="50.03034" lon="2.32653">
        <ele>135.5</ele>
        <time>2023-10-25T14:28:52Z</time>
      </trkpt>
      <trkpt lat="50.03033" lon="2.32652">
        <ele>135.5</ele>
        <time>2023-10-25T14:28:53Z</time>
      </trkpt>
      <trkpt lat="50.03032" lon="2.32651">
        <ele>135.5</ele>
        <time>2023-10-25T14:28:54Z</time>
      </trkpt>
      <trkpt lat="50.03031" lon="2.3265">
        <ele>135.5</ele>
        <time>2023-10-25T14:28:55Z</time>
      </trkpt>
      <trkpt lat="50.0303" lon="2.32649">
        <ele>135.5</ele>
        <time>2023-10-25T14:28:56Z</time>
      </trkpt>
      <trkpt lat="50.03029" lon="2.32647">
        <ele>135.6</ele>
        <time>2023-10-25T14:28:57Z</time>
      </trkpt>
      <trkpt lat="50.03028" lon="2.32646">
        <ele>135.6</ele>
        <time>2023-10-25T14:28:58Z</time>
      </trkpt>
      <trkpt lat="50.03027" lon="2.32644">
        <ele>135.6</ele>
        <time>2023-10-25T14:28:59Z</time>
      </trkpt>
      <trkpt lat="50.03026" lon="2.32643">
        <ele>135.6</ele>
        <time>2023-10-25T14:29:00Z</time>
      </trkpt>
      <trkpt lat="50.03025" lon="2.32641">
        <ele>135.6</ele>
        <time>2023-10-25T14:29:01Z</time>
      </trkpt>
      <trkpt lat="50.03024" lon="2.32639">
        <ele>135.6</ele>
        <time>2023-10-25T14:29:02Z</time>
      </trkpt>
      <trkpt lat="50.03023" lon="2.32638">
        <ele>135.6</ele>
        <time>2023-10-25T14:29:03Z</time>
      </trkpt>
      <trkpt lat="50.03023" lon="2.32637">
        <ele>135.6</ele>
        <time>2023-10-25T14:29:04Z</time>
      </trkpt>
      <trkpt lat="50.03022" lon="2.32636">
        <ele>135.6</ele>
        <time>2023-10-25T14:29:05Z</time>
      </trkpt>
      <trkpt lat="50.03021" lon="2.32636">
        <ele>135.6</ele>
        <time>2023-10-25T14:29:06Z</time>
      </trkpt>
      <trkpt lat="50.03021" lon="2.32635">
        <ele>135.6</ele>
        <time>2023-10-25T14:29:07Z</time>
      </trkpt>
      <trkpt lat="50.0302" lon="2.32634">
        <ele>135.6</ele>
        <time>2023-10-25T14:29:08Z</time>
      </trkpt>
      <trkpt lat="50.0302" lon="2.32634">
        <ele>135.6</ele>
        <time>2023-10-25T14:29:09Z</time>
      </trkpt>
      <trkpt lat="50.0302" lon="2.32634">
        <ele>135.6</ele>
        <time>2023-10-25T14:29:10Z</time>
      </trkpt>
      <trkpt lat="50.03019" lon="2.32634">
        <ele>135.6</ele>
        <time>2023-10-25T14:29:11Z</time>
      </trkpt>
      <trkpt lat="50.03019" lon="2.32633">
        <ele>135.6</ele>
        <time>2023-10-25T14:29:12Z</time>
      </trkpt>
      <trkpt lat="50.0302" lon="2.32632">
        <ele>135.6</ele>
        <time>2023-10-25T14:29:13Z</time>
      </trkpt>
      <trkpt lat="50.0302" lon="2.32632">
        <ele>135.6</ele>
        <time>2023-10-25T14:29:14Z</time>
      </trkpt>
      <trkpt lat="50.03019" lon="2.32631">
        <ele>135.6</ele>
        <time>2023-10-25T14:29:15Z</time>
      </trkpt>
      <trkpt lat="50.03019" lon="2.32631">
        <ele>135.6</ele>
        <time>2023-10-25T14:29:16Z</time>
      </trkpt>
      <trkpt lat="50.03019" lon="2.32632">
        <ele>135.6</ele>
        <time>2023-10-25T14:29:17Z</time>
      </trkpt>
      <trkpt lat="50.03018" lon="2.32632">
        <ele>135.6</ele>
        <time>2023-10-25T14:29:18Z</time>
      </trkpt>
      <trkpt lat="50.03018" lon="2.32633">
        <ele>135.6</ele>
        <time>2023-10-25T14:29:19Z</time>
      </trkpt>
      <trkpt lat="50.03018" lon="2.32633">
        <ele>135.6</ele>
        <time>2023-10-25T14:29:20Z</time>
      </trkpt>
      <trkpt lat="50.03018" lon="2.32633">
        <ele>135.6</ele>
        <time>2023-10-25T14:29:21Z</time>
      </trkpt>
      <trkpt lat="50.03019" lon="2.32633">
        <ele>135.6</ele>
        <time>2023-10-25T14:29:22Z</time>
      </trkpt>
      <trkpt lat="50.0302" lon="2.32633">
        <ele>135.6</ele>
        <time>2023-10-25T14:29:23Z</time>
      </trkpt>
      <trkpt lat="50.03021" lon="2.32632">
        <ele>135.6</ele>
        <time>2023-10-25T14:29:24Z</time>
      </trkpt>
      <trkpt lat="50.03022" lon="2.32631">
        <ele>135.6</ele>
        <time>2023-10-25T14:29:25Z</time>
      </trkpt>
      <trkpt lat="50.03022" lon="2.32631">
        <ele>135.6</ele>
        <time>2023-10-25T14:29:26Z</time>
      </trkpt>
      <trkpt lat="50.03023" lon="2.3263">
        <ele>135.6</ele>
        <time>2023-10-25T14:29:27Z</time>
      </trkpt>
      <trkpt lat="50.03024" lon="2.32629">
        <ele>135.6</ele>
        <time>2023-10-25T14:29:28Z</time>
      </trkpt>
      <trkpt lat="50.03025" lon="2.32628">
        <ele>135.6</ele>
        <time>2023-10-25T14:29:29Z</time>
      </trkpt>
      <trkpt lat="50.03026" lon="2.32627">
        <ele>135.6</ele>
        <time>2023-10-25T14:29:30Z</time>
      </trkpt>
      <trkpt lat="50.03027" lon="2.32626">
        <ele>135.6</ele>
        <time>2023-10-25T14:29:31Z</time>
      </trkpt>
      <trkpt lat="50.03028" lon="2.32625">
        <ele>135.6</ele>
        <time>2023-10-25T14:29:32Z</time>
      </trkpt>
      <trkpt lat="50.03029" lon="2.32624">
        <ele>135.6</ele>
        <time>2023-10-25T14:29:33Z</time>
      </trkpt>
      <trkpt lat="50.0303" lon="2.32622">
        <ele>135.5</ele>
        <time>2023-10-25T14:29:34Z</time>
      </trkpt>
      <trkpt lat="50.0303" lon="2.32621">
        <ele>135.5</ele>
        <time>2023-10-25T14:29:35Z</time>
      </trkpt>
      <trkpt lat="50.03032" lon="2.32619">
        <ele>135.5</ele>
        <time>2023-10-25T14:29:36Z</time>
      </trkpt>
      <trkpt lat="50.03032" lon="2.32618">
        <ele>135.5</ele>
        <time>2023-10-25T14:29:37Z</time>
      </trkpt>
      <trkpt lat="50.03033" lon="2.32617">
        <ele>135.5</ele>
        <time>2023-10-25T14:29:38Z</time>
      </trkpt>
      <trkpt lat="50.03034" lon="2.32616">
        <ele>135.5</ele>
        <time>2023-10-25T14:29:39Z</time>
      </trkpt>
      <trkpt lat="50.03035" lon="2.32615">
        <ele>135.5</ele>
        <time>2023-10-25T14:29:40Z</time>
      </trkpt>
      <trkpt lat="50.03035" lon="2.32613">
        <ele>135.5</ele>
        <time>2023-10-25T14:29:41Z</time>
      </trkpt>
      <trkpt lat="50.03036" lon="2.32612">
        <ele>135.5</ele>
        <time>2023-10-25T14:29:42Z</time>
      </trkpt>
      <trkpt lat="50.03036" lon="2.32611">
        <ele>135.5</ele>
        <time>2023-10-25T14:29:43Z</time>
      </trkpt>
      <trkpt lat="50.03037" lon="2.3261">
        <ele>135.5</ele>
        <time>2023-10-25T14:29:44Z</time>
      </trkpt>
      <trkpt lat="50.03037" lon="2.32609">
        <ele>135.5</ele>
        <time>2023-10-25T14:29:45Z</time>
      </trkpt>
      <trkpt lat="50.03038" lon="2.32608">
        <ele>135.5</ele>
        <time>2023-10-25T14:29:46Z</time>
      </trkpt>
      <trkpt lat="50.03038" lon="2.32606">
        <ele>135.5</ele>
        <time>2023-10-25T14:29:47Z</time>
      </trkpt>
      <trkpt lat="50.03039" lon="2.32605">
        <ele>135.5</ele>
        <time>2023-10-25T14:29:48Z</time>
      </trkpt>
      <trkpt lat="50.03039" lon="2.32604">
        <ele>135.5</ele>
        <time>2023-10-25T14:29:49Z</time>
      </trkpt>
      <trkpt lat="50.0304" lon="2.32604">
        <ele>135.5</ele>
        <time>2023-10-25T14:29:50Z</time>
      </trkpt>
      <trkpt lat="50.03041" lon="2.32603">
        <ele>135.5</ele>
        <time>2023-10-25T14:29:51Z</time>
      </trkpt>
      <trkpt lat="50.03041" lon="2.32602">
        <ele>135.5</ele>
        <time>2023-10-25T14:29:52Z</time>
      </trkpt>
      <trkpt lat="50.03042" lon="2.32602">
        <ele>135.5</ele>
        <time>2023-10-25T14:29:53Z</time>
      </trkpt>
      <trkpt lat="50.03042" lon="2.32601">
        <ele>135.5</ele>
        <time>2023-10-25T14:29:54Z</time>
      </trkpt>
      <trkpt lat="50.03042" lon="2.32601">
        <ele>135.5</ele>
        <time>2023-10-25T14:29:55Z</time>
      </trkpt>
      <trkpt lat="50.03043" lon="2.32601">
        <ele>135.5</ele>
        <time>2023-10-25T14:29:56Z</time>
      </trkpt>
      <trkpt lat="50.03043" lon="2.32601">
        <ele>135.5</ele>
        <time>2023-10-25T14:29:57Z</time>
      </trkpt>
      <trkpt lat="50.03043" lon="2.32601">
        <ele>135.5</ele>
        <time>2023-10-25T14:29:58Z</time>
      </trkpt>
      <trkpt lat="50.03044" lon="2.32601">
        <ele>135.5</ele>
        <time>2023-10-25T14:29:59Z</time>
      </trkpt>
      <trkpt lat="50.03044" lon="2.32602">
        <ele>135.5</ele>
        <time>2023-10-25T14:30:00Z</time>
      </trkpt>
      <trkpt lat="50.03044" lon="2.32602">
        <ele>135.5</ele>
        <time>2023-10-25T14:30:01Z</time>
      </trkpt>
      <trkpt lat="50.03044" lon="2.32602">
        <ele>135.5</ele>
        <time>2023-10-25T14:30:02Z</time>
      </trkpt>
      <trkpt lat="50.03044" lon="2.32603">
        <ele>135.5</ele>
        <time>2023-10-25T14:30:03Z</time>
      </trkpt>
      <trkpt lat="50.03044" lon="2.32604">
        <ele>135.5</ele>
        <time>2023-10-25T14:30:04Z</time>
      </trkpt>
      <trkpt lat="50.03044" lon="2.32605">
        <ele>135.5</ele>
        <time>2023-10-25T14:30:05Z</time>
      </trkpt>
      <trkpt lat="50.03044" lon="2.32606">
        <ele>135.5</ele>
        <time>2023-10-25T14:30:06Z</time>
      </trkpt>
      <trkpt lat="50.03045" lon="2.32607">
        <ele>135.5</ele>
        <time>2023-10-25T14:30:07Z</time>
      </trkpt>
      <trkpt lat="50.03046" lon="2.32609">
        <ele>135.5</ele>
        <time>2023-10-25T14:30:08Z</time>
      </trkpt>
      <trkpt lat="50.03046" lon="2.3261">
        <ele>135.5</ele>
        <time>2023-10-25T14:30:09Z</time>
      </trkpt>
      <trkpt lat="50.03047" lon="2.3261">
        <ele>135.5</ele>
        <time>2023-10-25T14:30:10Z</time>
      </trkpt>
      <trkpt lat="50.03048" lon="2.3261">
        <ele>135.5</ele>
        <time>2023-10-25T14:30:11Z</time>
      </trkpt>
      <trkpt lat="50.03049" lon="2.32609">
        <ele>135.5</ele>
        <time>2023-10-25T14:30:12Z</time>
      </trkpt>
      <trkpt lat="50.03049" lon="2.32608">
        <ele>135.5</ele>
        <time>2023-10-25T14:30:13Z</time>
      </trkpt>
      <trkpt lat="50.0305" lon="2.32607">
        <ele>135.5</ele>
        <time>2023-10-25T14:30:14Z</time>
      </trkpt>
      <trkpt lat="50.03049" lon="2.32607">
        <ele>135.5</ele>
        <time>2023-10-25T14:30:15Z</time>
      </trkpt>
      <trkpt lat="50.03049" lon="2.32607">
        <ele>135.5</ele>
        <time>2023-10-25T14:30:16Z</time>
      </trkpt>
      <trkpt lat="50.03049" lon="2.32606">
        <ele>135.5</ele>
        <time>2023-10-25T14:30:17Z</time>
      </trkpt>
      <trkpt lat="50.03049" lon="2.32606">
        <ele>135.5</ele>
        <time>2023-10-25T14:30:18Z</time>
      </trkpt>
      <trkpt lat="50.03049" lon="2.32606">
        <ele>135.5</ele>
        <time>2023-10-25T14:30:19Z</time>
      </trkpt>
      <trkpt lat="50.03049" lon="2.32606">
        <ele>135.5</ele>
        <time>2023-10-25T14:30:20Z</time>
      </trkpt>
      <trkpt lat="50.03049" lon="2.32606">
        <ele>135.5</ele>
        <time>2023-10-25T14:30:21Z</time>
      </trkpt>
      <trkpt lat="50.03049" lon="2.32606">
        <ele>135.5</ele>
        <time>2023-10-25T14:30:22Z</time>
      </trkpt>
      <trkpt lat="50.03049" lon="2.32606">
        <ele>135.5</ele>
        <time>2023-10-25T14:30:23Z</time>
      </trkpt>
      <trkpt lat="50.03049" lon="2.32606">
        <ele>135.5</ele>
        <time>2023-10-25T14:30:24Z</time>
      </trkpt>
      <trkpt lat="50.03046" lon="2.32608">
        <ele>135.4</ele>
        <time>2023-10-25T14:30:48Z</time>
      </trkpt>
      <trkpt lat="50.03045" lon="2.32608">
        <ele>135.4</ele>
        <time>2023-10-25T14:30:49Z</time>
      </trkpt>
      <trkpt lat="50.03045" lon="2.32608">
        <ele>135.4</ele>
        <time>2023-10-25T14:30:50Z</time>
      </trkpt>
      <trkpt lat="50.03044" lon="2.32608">
        <ele>135.4</ele>
        <time>2023-10-25T14:30:51Z</time>
      </trkpt>
      <trkpt lat="50.03044" lon="2.32608">
        <ele>135.4</ele>
        <time>2023-10-25T14:30:52Z</time>
      </trkpt>
      <trkpt lat="50.03044" lon="2.32609">
        <ele>135.4</ele>
        <time>2023-10-25T14:30:53Z</time>
      </trkpt>
      <trkpt lat="50.03045" lon="2.32609">
        <ele>135.4</ele>
        <time>2023-10-25T14:30:54Z</time>
      </trkpt>
      <trkpt lat="50.03045" lon="2.32609">
        <ele>135.4</ele>
        <time>2023-10-25T14:30:55Z</time>
      </trkpt>
      <trkpt lat="50.03045" lon="2.32609">
        <ele>135.4</ele>
        <time>2023-10-25T14:30:56Z</time>
      </trkpt>
      <trkpt lat="50.03045" lon="2.3261">
        <ele>135.4</ele>
        <time>2023-10-25T14:30:58Z</time>
      </trkpt>
    </trkseg>
  </trk>
</gpx>